<?xml version="1.0" encoding="UTF-8" standalone="no" ?>
<gpx xmlns="http://www.topografix.com/GPX/1/1" xmlns:xsi="http://www.w3.org/2001/XMLSchema-instance" xsi:schemaLocation="http://www.topografix.com/GPX/1/1 http://www.topografix.com/GPX/1/1/gpx.xsd" version="1.1" creator="VisuGPX - https://www.visugpx.com">
  <metadata>
    <name>durance cyclo</name>
    <desc><![CDATA[Quelques circuits le long de la durance]]></desc>
  </metadata>
  <trk>
    <name><![CDATA[N°48  Monetier/Ventavon / Lazer/ Upaix /Rourebeau]]></name>
    <trkseg>
      <trkpt lat="44.38528" lon="5.94222">
        <ele>663.9274902</ele>
        <time>2013-04-05T08:46:35Z</time>
      </trkpt>
      <trkpt lat="44.38521" lon="5.9422">
        <ele>664.888916</ele>
        <time>2013-04-05T08:46:54Z</time>
      </trkpt>
      <trkpt lat="44.38521" lon="5.9422">
        <ele>663.4470215</ele>
        <time>2013-04-05T08:46:56Z</time>
      </trkpt>
      <trkpt lat="44.38524" lon="5.94221">
        <ele>660.5629883</ele>
        <time>2013-04-05T08:47:15Z</time>
      </trkpt>
      <trkpt lat="44.38524" lon="5.94221">
        <ele>657.1984863</ele>
        <time>2013-04-05T08:47:16Z</time>
      </trkpt>
      <trkpt lat="44.38524" lon="5.94221">
        <ele>654.3146973</ele>
        <time>2013-04-05T08:47:17Z</time>
      </trkpt>
      <trkpt lat="44.38524" lon="5.94222">
        <ele>650.949707</ele>
        <time>2013-04-05T08:47:18Z</time>
      </trkpt>
      <trkpt lat="44.38524" lon="5.94222">
        <ele>647.1044922</ele>
        <time>2013-04-05T08:47:19Z</time>
      </trkpt>
      <trkpt lat="44.38524" lon="5.94222">
        <ele>641.8173828</ele>
        <time>2013-04-05T08:47:21Z</time>
      </trkpt>
      <trkpt lat="44.38523" lon="5.94222">
        <ele>636.5302734</ele>
        <time>2013-04-05T08:47:23Z</time>
      </trkpt>
      <trkpt lat="44.38523" lon="5.94223">
        <ele>631.7233887</ele>
        <time>2013-04-05T08:47:25Z</time>
      </trkpt>
      <trkpt lat="44.38523" lon="5.94223">
        <ele>626.9169922</ele>
        <time>2013-04-05T08:47:27Z</time>
      </trkpt>
      <trkpt lat="44.38523" lon="5.94223">
        <ele>622.5910645</ele>
        <time>2013-04-05T08:47:29Z</time>
      </trkpt>
      <trkpt lat="44.38523" lon="5.94223">
        <ele>617.7841797</ele>
        <time>2013-04-05T08:47:32Z</time>
      </trkpt>
      <trkpt lat="44.38523" lon="5.94223">
        <ele>613.9389648</ele>
        <time>2013-04-05T08:47:34Z</time>
      </trkpt>
      <trkpt lat="44.38523" lon="5.94223">
        <ele>610.09375</ele>
        <time>2013-04-05T08:47:36Z</time>
      </trkpt>
      <trkpt lat="44.38524" lon="5.94223">
        <ele>606.2485352</ele>
        <time>2013-04-05T08:47:38Z</time>
      </trkpt>
      <trkpt lat="44.38524" lon="5.94223">
        <ele>602.8837891</ele>
        <time>2013-04-05T08:47:41Z</time>
      </trkpt>
      <trkpt lat="44.38524" lon="5.94223">
        <ele>599.5192871</ele>
        <time>2013-04-05T08:47:43Z</time>
      </trkpt>
      <trkpt lat="44.38524" lon="5.94223">
        <ele>595.6740723</ele>
        <time>2013-04-05T08:47:46Z</time>
      </trkpt>
      <trkpt lat="44.38523" lon="5.94223">
        <ele>592.3095703</ele>
        <time>2013-04-05T08:47:50Z</time>
      </trkpt>
      <trkpt lat="44.38523" lon="5.94224">
        <ele>588.4643555</ele>
        <time>2013-04-05T08:47:53Z</time>
      </trkpt>
      <trkpt lat="44.38523" lon="5.94224">
        <ele>585.0996094</ele>
        <time>2013-04-05T08:47:57Z</time>
      </trkpt>
      <trkpt lat="44.38523" lon="5.94224">
        <ele>581.7348633</ele>
        <time>2013-04-05T08:48:02Z</time>
      </trkpt>
      <trkpt lat="44.38523" lon="5.94224">
        <ele>579.8122559</ele>
        <time>2013-04-05T08:48:05Z</time>
      </trkpt>
      <trkpt lat="44.38523" lon="5.94224">
        <ele>576.4477539</ele>
        <time>2013-04-05T08:48:09Z</time>
      </trkpt>
      <trkpt lat="44.38523" lon="5.94224">
        <ele>573.5639648</ele>
        <time>2013-04-05T08:48:16Z</time>
      </trkpt>
      <trkpt lat="44.38523" lon="5.94224">
        <ele>570.1989746</ele>
        <time>2013-04-05T08:48:23Z</time>
      </trkpt>
      <trkpt lat="44.38523" lon="5.94224">
        <ele>568.7570801</ele>
        <time>2013-04-05T08:48:29Z</time>
      </trkpt>
      <trkpt lat="44.38523" lon="5.94224">
        <ele>567.3151855</ele>
        <time>2013-04-05T08:48:35Z</time>
      </trkpt>
      <trkpt lat="44.38523" lon="5.94224">
        <ele>563.9504395</ele>
        <time>2013-04-05T08:48:55Z</time>
      </trkpt>
      <trkpt lat="44.38527" lon="5.94226">
        <ele>562.0280762</ele>
        <time>2013-04-05T08:52:24Z</time>
      </trkpt>
      <trkpt lat="44.3853" lon="5.94227">
        <ele>562.0280762</ele>
        <time>2013-04-05T08:52:26Z</time>
      </trkpt>
      <trkpt lat="44.38525" lon="5.94238">
        <ele>562.0280762</ele>
        <time>2013-04-05T08:52:31Z</time>
      </trkpt>
      <trkpt lat="44.38497" lon="5.94249">
        <ele>561.5473633</ele>
        <time>2013-04-05T08:52:42Z</time>
      </trkpt>
      <trkpt lat="44.38492" lon="5.94243">
        <ele>561.5473633</ele>
        <time>2013-04-05T08:52:46Z</time>
      </trkpt>
      <trkpt lat="44.38491" lon="5.94216">
        <ele>562.0280762</ele>
        <time>2013-04-05T08:52:55Z</time>
      </trkpt>
      <trkpt lat="44.38493" lon="5.9421">
        <ele>562.0280762</ele>
        <time>2013-04-05T08:53:10Z</time>
      </trkpt>
      <trkpt lat="44.38493" lon="5.94208">
        <ele>562.0280762</ele>
        <time>2013-04-05T08:53:21Z</time>
      </trkpt>
      <trkpt lat="44.38495" lon="5.94192">
        <ele>562.0280762</ele>
        <time>2013-04-05T08:53:27Z</time>
      </trkpt>
      <trkpt lat="44.38499" lon="5.94156">
        <ele>561.0666504</ele>
        <time>2013-04-05T08:53:34Z</time>
      </trkpt>
      <trkpt lat="44.38506" lon="5.94076">
        <ele>560.5859375</ele>
        <time>2013-04-05T08:53:48Z</time>
      </trkpt>
      <trkpt lat="44.38508" lon="5.94046">
        <ele>560.1052246</ele>
        <time>2013-04-05T08:53:53Z</time>
      </trkpt>
      <trkpt lat="44.38502" lon="5.93982">
        <ele>558.6633301</ele>
        <time>2013-04-05T08:54:03Z</time>
      </trkpt>
      <trkpt lat="44.3852" lon="5.93936">
        <ele>560.1052246</ele>
        <time>2013-04-05T08:54:12Z</time>
      </trkpt>
      <trkpt lat="44.3856" lon="5.93929">
        <ele>563.4699707</ele>
        <time>2013-04-05T08:54:27Z</time>
      </trkpt>
      <trkpt lat="44.38601" lon="5.9392">
        <ele>566.3537598</ele>
        <time>2013-04-05T08:54:45Z</time>
      </trkpt>
      <trkpt lat="44.3864" lon="5.93913">
        <ele>569.237793</ele>
        <time>2013-04-05T08:55:03Z</time>
      </trkpt>
      <trkpt lat="44.38672" lon="5.93905">
        <ele>572.6025391</ele>
        <time>2013-04-05T08:55:20Z</time>
      </trkpt>
      <trkpt lat="44.38704" lon="5.93892">
        <ele>575.0058594</ele>
        <time>2013-04-05T08:55:37Z</time>
      </trkpt>
      <trkpt lat="44.38696" lon="5.93807">
        <ele>577.8896484</ele>
        <time>2013-04-05T08:55:58Z</time>
      </trkpt>
      <trkpt lat="44.38701" lon="5.93728">
        <ele>580.2929688</ele>
        <time>2013-04-05T08:56:22Z</time>
      </trkpt>
      <trkpt lat="44.38702" lon="5.93714">
        <ele>581.2543945</ele>
        <time>2013-04-05T08:56:26Z</time>
      </trkpt>
      <trkpt lat="44.38705" lon="5.93657">
        <ele>581.7348633</ele>
        <time>2013-04-05T08:56:42Z</time>
      </trkpt>
      <trkpt lat="44.38706" lon="5.93622">
        <ele>582.6962891</ele>
        <time>2013-04-05T08:56:54Z</time>
      </trkpt>
      <trkpt lat="44.38708" lon="5.93605">
        <ele>582.6962891</ele>
        <time>2013-04-05T08:57:00Z</time>
      </trkpt>
      <trkpt lat="44.38712" lon="5.93598">
        <ele>582.6962891</ele>
        <time>2013-04-05T08:57:11Z</time>
      </trkpt>
      <trkpt lat="44.38678" lon="5.93573">
        <ele>582.2155762</ele>
        <time>2013-04-05T08:57:24Z</time>
      </trkpt>
      <trkpt lat="44.38631" lon="5.93542">
        <ele>578.8510742</ele>
        <time>2013-04-05T08:57:33Z</time>
      </trkpt>
      <trkpt lat="44.38566" lon="5.93491">
        <ele>575.4863281</ele>
        <time>2013-04-05T08:57:44Z</time>
      </trkpt>
      <trkpt lat="44.38486" lon="5.93433">
        <ele>575.0058594</ele>
        <time>2013-04-05T08:57:58Z</time>
      </trkpt>
      <trkpt lat="44.38387" lon="5.93364">
        <ele>574.5251465</ele>
        <time>2013-04-05T08:58:18Z</time>
      </trkpt>
      <trkpt lat="44.38302" lon="5.93307">
        <ele>575.4863281</ele>
        <time>2013-04-05T08:58:38Z</time>
      </trkpt>
      <trkpt lat="44.38208" lon="5.93245">
        <ele>576.4477539</ele>
        <time>2013-04-05T08:59:02Z</time>
      </trkpt>
      <trkpt lat="44.38182" lon="5.93226">
        <ele>576.4477539</ele>
        <time>2013-04-05T08:59:09Z</time>
      </trkpt>
      <trkpt lat="44.38107" lon="5.93174">
        <ele>575.967041</ele>
        <time>2013-04-05T08:59:28Z</time>
      </trkpt>
      <trkpt lat="44.38095" lon="5.93154">
        <ele>575.4863281</ele>
        <time>2013-04-05T08:59:32Z</time>
      </trkpt>
      <trkpt lat="44.38062" lon="5.93081">
        <ele>576.4477539</ele>
        <time>2013-04-05T08:59:49Z</time>
      </trkpt>
      <trkpt lat="44.38024" lon="5.93017">
        <ele>576.9284668</ele>
        <time>2013-04-05T09:00:05Z</time>
      </trkpt>
      <trkpt lat="44.37969" lon="5.92942">
        <ele>578.3703613</ele>
        <time>2013-04-05T09:00:25Z</time>
      </trkpt>
      <trkpt lat="44.37936" lon="5.92841">
        <ele>575.967041</ele>
        <time>2013-04-05T09:00:41Z</time>
      </trkpt>
      <trkpt lat="44.37925" lon="5.92808">
        <ele>575.4863281</ele>
        <time>2013-04-05T09:00:46Z</time>
      </trkpt>
      <trkpt lat="44.37911" lon="5.92786">
        <ele>575.4863281</ele>
        <time>2013-04-05T09:00:50Z</time>
      </trkpt>
      <trkpt lat="44.37871" lon="5.92756">
        <ele>579.331543</ele>
        <time>2013-04-05T09:01:03Z</time>
      </trkpt>
      <trkpt lat="44.37828" lon="5.92694">
        <ele>580.7736816</ele>
        <time>2013-04-05T09:01:24Z</time>
      </trkpt>
      <trkpt lat="44.37782" lon="5.92608">
        <ele>581.7348633</ele>
        <time>2013-04-05T09:01:46Z</time>
      </trkpt>
      <trkpt lat="44.37746" lon="5.92523">
        <ele>582.2155762</ele>
        <time>2013-04-05T09:02:07Z</time>
      </trkpt>
      <trkpt lat="44.37721" lon="5.92441">
        <ele>583.1767578</ele>
        <time>2013-04-05T09:02:25Z</time>
      </trkpt>
      <trkpt lat="44.37707" lon="5.92409">
        <ele>582.6962891</ele>
        <time>2013-04-05T09:02:32Z</time>
      </trkpt>
      <trkpt lat="44.37678" lon="5.92359">
        <ele>582.6962891</ele>
        <time>2013-04-05T09:02:43Z</time>
      </trkpt>
      <trkpt lat="44.3767" lon="5.92348">
        <ele>582.2155762</ele>
        <time>2013-04-05T09:02:49Z</time>
      </trkpt>
      <trkpt lat="44.37601" lon="5.92254">
        <ele>579.331543</ele>
        <time>2013-04-05T09:03:04Z</time>
      </trkpt>
      <trkpt lat="44.37578" lon="5.92213">
        <ele>579.331543</ele>
        <time>2013-04-05T09:03:10Z</time>
      </trkpt>
      <trkpt lat="44.37566" lon="5.92184">
        <ele>579.331543</ele>
        <time>2013-04-05T09:03:14Z</time>
      </trkpt>
      <trkpt lat="44.37558" lon="5.9215">
        <ele>579.8122559</ele>
        <time>2013-04-05T09:03:19Z</time>
      </trkpt>
      <trkpt lat="44.3757" lon="5.9209">
        <ele>581.2543945</ele>
        <time>2013-04-05T09:03:31Z</time>
      </trkpt>
      <trkpt lat="44.37589" lon="5.92032">
        <ele>583.6574707</ele>
        <time>2013-04-05T09:03:46Z</time>
      </trkpt>
      <trkpt lat="44.37581" lon="5.91981">
        <ele>585.0996094</ele>
        <time>2013-04-05T09:04:00Z</time>
      </trkpt>
      <trkpt lat="44.3756" lon="5.91954">
        <ele>588.4643555</ele>
        <time>2013-04-05T09:04:14Z</time>
      </trkpt>
      <trkpt lat="44.37535" lon="5.91928">
        <ele>591.3481445</ele>
        <time>2013-04-05T09:04:30Z</time>
      </trkpt>
      <trkpt lat="44.37518" lon="5.91905">
        <ele>594.7126465</ele>
        <time>2013-04-05T09:04:42Z</time>
      </trkpt>
      <trkpt lat="44.37509" lon="5.91883">
        <ele>595.6740723</ele>
        <time>2013-04-05T09:04:51Z</time>
      </trkpt>
      <trkpt lat="44.37488" lon="5.91824">
        <ele>598.5578613</ele>
        <time>2013-04-05T09:05:14Z</time>
      </trkpt>
      <trkpt lat="44.37463" lon="5.91778">
        <ele>600.9611816</ele>
        <time>2013-04-05T09:05:34Z</time>
      </trkpt>
      <trkpt lat="44.37442" lon="5.91733">
        <ele>602.4030762</ele>
        <time>2013-04-05T09:05:50Z</time>
      </trkpt>
      <trkpt lat="44.37424" lon="5.91653">
        <ele>602.4030762</ele>
        <time>2013-04-05T09:06:07Z</time>
      </trkpt>
      <trkpt lat="44.37409" lon="5.91573">
        <ele>603.8452148</ele>
        <time>2013-04-05T09:06:27Z</time>
      </trkpt>
      <trkpt lat="44.37404" lon="5.91513">
        <ele>606.729248</ele>
        <time>2013-04-05T09:06:46Z</time>
      </trkpt>
      <trkpt lat="44.37401" lon="5.91467">
        <ele>610.09375</ele>
        <time>2013-04-05T09:07:02Z</time>
      </trkpt>
      <trkpt lat="44.37391" lon="5.91393">
        <ele>612.0166016</ele>
        <time>2013-04-05T09:07:24Z</time>
      </trkpt>
      <trkpt lat="44.3738" lon="5.91318">
        <ele>612.9777832</ele>
        <time>2013-04-05T09:07:44Z</time>
      </trkpt>
      <trkpt lat="44.37356" lon="5.91249">
        <ele>612.0166016</ele>
        <time>2013-04-05T09:08:01Z</time>
      </trkpt>
      <trkpt lat="44.37308" lon="5.9116">
        <ele>613.4584961</ele>
        <time>2013-04-05T09:08:22Z</time>
      </trkpt>
      <trkpt lat="44.37303" lon="5.91118">
        <ele>616.822998</ele>
        <time>2013-04-05T09:08:35Z</time>
      </trkpt>
      <trkpt lat="44.37293" lon="5.91065">
        <ele>619.2263184</ele>
        <time>2013-04-05T09:08:51Z</time>
      </trkpt>
      <trkpt lat="44.3727" lon="5.9099">
        <ele>621.6296387</ele>
        <time>2013-04-05T09:09:13Z</time>
      </trkpt>
      <trkpt lat="44.37271" lon="5.90932">
        <ele>624.032959</ele>
        <time>2013-04-05T09:09:31Z</time>
      </trkpt>
      <trkpt lat="44.37276" lon="5.9087">
        <ele>626.4362793</ele>
        <time>2013-04-05T09:09:52Z</time>
      </trkpt>
      <trkpt lat="44.37259" lon="5.90813">
        <ele>628.3588867</ele>
        <time>2013-04-05T09:10:10Z</time>
      </trkpt>
      <trkpt lat="44.37234" lon="5.90779">
        <ele>631.7233887</ele>
        <time>2013-04-05T09:10:26Z</time>
      </trkpt>
      <trkpt lat="44.37192" lon="5.90765">
        <ele>633.1652832</ele>
        <time>2013-04-05T09:10:45Z</time>
      </trkpt>
      <trkpt lat="44.37179" lon="5.90735">
        <ele>633.6459961</ele>
        <time>2013-04-05T09:10:55Z</time>
      </trkpt>
      <trkpt lat="44.37202" lon="5.90673">
        <ele>635.0881348</ele>
        <time>2013-04-05T09:11:10Z</time>
      </trkpt>
      <trkpt lat="44.37235" lon="5.90635">
        <ele>636.0495605</ele>
        <time>2013-04-05T09:11:23Z</time>
      </trkpt>
      <trkpt lat="44.37255" lon="5.90577">
        <ele>635.5686035</ele>
        <time>2013-04-05T09:11:36Z</time>
      </trkpt>
      <trkpt lat="44.37256" lon="5.90564">
        <ele>634.6074219</ele>
        <time>2013-04-05T09:11:38Z</time>
      </trkpt>
      <trkpt lat="44.37256" lon="5.90538">
        <ele>633.6459961</ele>
        <time>2013-04-05T09:11:41Z</time>
      </trkpt>
      <trkpt lat="44.3727" lon="5.90491">
        <ele>631.7233887</ele>
        <time>2013-04-05T09:11:46Z</time>
      </trkpt>
      <trkpt lat="44.37268" lon="5.90457">
        <ele>630.2814941</ele>
        <time>2013-04-05T09:11:49Z</time>
      </trkpt>
      <trkpt lat="44.37266" lon="5.90433">
        <ele>628.8395996</ele>
        <time>2013-04-05T09:11:51Z</time>
      </trkpt>
      <trkpt lat="44.3728" lon="5.90371">
        <ele>626.4362793</ele>
        <time>2013-04-05T09:11:56Z</time>
      </trkpt>
      <trkpt lat="44.37291" lon="5.90348">
        <ele>624.9943848</ele>
        <time>2013-04-05T09:11:58Z</time>
      </trkpt>
      <trkpt lat="44.373" lon="5.90326">
        <ele>623.0717773</ele>
        <time>2013-04-05T09:12:00Z</time>
      </trkpt>
      <trkpt lat="44.37315" lon="5.90291">
        <ele>621.6296387</ele>
        <time>2013-04-05T09:12:03Z</time>
      </trkpt>
      <trkpt lat="44.37335" lon="5.90246">
        <ele>618.2648926</ele>
        <time>2013-04-05T09:12:08Z</time>
      </trkpt>
      <trkpt lat="44.37353" lon="5.90234">
        <ele>617.3037109</ele>
        <time>2013-04-05T09:12:12Z</time>
      </trkpt>
      <trkpt lat="44.37373" lon="5.90252">
        <ele>615.8618164</ele>
        <time>2013-04-05T09:12:16Z</time>
      </trkpt>
      <trkpt lat="44.37405" lon="5.90284">
        <ele>614.4196777</ele>
        <time>2013-04-05T09:12:22Z</time>
      </trkpt>
      <trkpt lat="44.37426" lon="5.90303">
        <ele>613.4584961</ele>
        <time>2013-04-05T09:12:29Z</time>
      </trkpt>
      <trkpt lat="44.37423" lon="5.90277">
        <ele>612.9777832</ele>
        <time>2013-04-05T09:12:36Z</time>
      </trkpt>
      <trkpt lat="44.37393" lon="5.90244">
        <ele>612.0166016</ele>
        <time>2013-04-05T09:12:44Z</time>
      </trkpt>
      <trkpt lat="44.37326" lon="5.90158">
        <ele>608.6518555</ele>
        <time>2013-04-05T09:12:59Z</time>
      </trkpt>
      <trkpt lat="44.37307" lon="5.90132">
        <ele>607.2099609</ele>
        <time>2013-04-05T09:13:03Z</time>
      </trkpt>
      <trkpt lat="44.37244" lon="5.90051">
        <ele>604.3261719</ele>
        <time>2013-04-05T09:13:15Z</time>
      </trkpt>
      <trkpt lat="44.37234" lon="5.90035">
        <ele>603.364502</ele>
        <time>2013-04-05T09:13:17Z</time>
      </trkpt>
      <trkpt lat="44.37165" lon="5.89953">
        <ele>602.4030762</ele>
        <time>2013-04-05T09:13:30Z</time>
      </trkpt>
      <trkpt lat="44.37137" lon="5.89948">
        <ele>602.4030762</ele>
        <time>2013-04-05T09:13:35Z</time>
      </trkpt>
      <trkpt lat="44.37098" lon="5.89981">
        <ele>603.8452148</ele>
        <time>2013-04-05T09:13:47Z</time>
      </trkpt>
      <trkpt lat="44.3706" lon="5.9001">
        <ele>606.729248</ele>
        <time>2013-04-05T09:14:02Z</time>
      </trkpt>
      <trkpt lat="44.37002" lon="5.9">
        <ele>608.1713867</ele>
        <time>2013-04-05T09:14:22Z</time>
      </trkpt>
      <trkpt lat="44.36994" lon="5.89997">
        <ele>607.6906738</ele>
        <time>2013-04-05T09:14:24Z</time>
      </trkpt>
      <trkpt lat="44.36926" lon="5.8996">
        <ele>604.8066406</ele>
        <time>2013-04-05T09:14:36Z</time>
      </trkpt>
      <trkpt lat="44.36887" lon="5.89935">
        <ele>602.8837891</ele>
        <time>2013-04-05T09:14:42Z</time>
      </trkpt>
      <trkpt lat="44.36872" lon="5.89925">
        <ele>600.9611816</ele>
        <time>2013-04-05T09:14:44Z</time>
      </trkpt>
      <trkpt lat="44.36802" lon="5.89846">
        <ele>600</ele>
        <time>2013-04-05T09:14:56Z</time>
      </trkpt>
      <trkpt lat="44.36795" lon="5.89833">
        <ele>601.9226074</ele>
        <time>2013-04-05T09:14:59Z</time>
      </trkpt>
      <trkpt lat="44.36775" lon="5.89777">
        <ele>603.364502</ele>
        <time>2013-04-05T09:15:14Z</time>
      </trkpt>
      <trkpt lat="44.36722" lon="5.89689">
        <ele>602.8837891</ele>
        <time>2013-04-05T09:15:34Z</time>
      </trkpt>
      <trkpt lat="44.36655" lon="5.89585">
        <ele>600.9611816</ele>
        <time>2013-04-05T09:15:54Z</time>
      </trkpt>
      <trkpt lat="44.36602" lon="5.89503">
        <ele>601.4418945</ele>
        <time>2013-04-05T09:16:10Z</time>
      </trkpt>
      <trkpt lat="44.36562" lon="5.89434">
        <ele>601.4418945</ele>
        <time>2013-04-05T09:16:26Z</time>
      </trkpt>
      <trkpt lat="44.36543" lon="5.89325">
        <ele>601.4418945</ele>
        <time>2013-04-05T09:16:44Z</time>
      </trkpt>
      <trkpt lat="44.36524" lon="5.89268">
        <ele>603.364502</ele>
        <time>2013-04-05T09:16:59Z</time>
      </trkpt>
      <trkpt lat="44.36499" lon="5.89201">
        <ele>606.2485352</ele>
        <time>2013-04-05T09:17:20Z</time>
      </trkpt>
      <trkpt lat="44.36478" lon="5.89146">
        <ele>606.729248</ele>
        <time>2013-04-05T09:17:36Z</time>
      </trkpt>
      <trkpt lat="44.36462" lon="5.89115">
        <ele>607.6906738</ele>
        <time>2013-04-05T09:17:45Z</time>
      </trkpt>
      <trkpt lat="44.3645" lon="5.89122">
        <ele>607.2099609</ele>
        <time>2013-04-05T09:17:49Z</time>
      </trkpt>
      <trkpt lat="44.36397" lon="5.89161">
        <ele>604.3261719</ele>
        <time>2013-04-05T09:17:59Z</time>
      </trkpt>
      <trkpt lat="44.36332" lon="5.89205">
        <ele>601.9226074</ele>
        <time>2013-04-05T09:18:09Z</time>
      </trkpt>
      <trkpt lat="44.36245" lon="5.8927">
        <ele>600.4807129</ele>
        <time>2013-04-05T09:18:24Z</time>
      </trkpt>
      <trkpt lat="44.36168" lon="5.89326">
        <ele>597.1159668</ele>
        <time>2013-04-05T09:18:42Z</time>
      </trkpt>
      <trkpt lat="44.36159" lon="5.89339">
        <ele>595.6740723</ele>
        <time>2013-04-05T09:18:44Z</time>
      </trkpt>
      <trkpt lat="44.3615" lon="5.8938">
        <ele>593.270752</ele>
        <time>2013-04-05T09:18:49Z</time>
      </trkpt>
      <trkpt lat="44.36148" lon="5.89431">
        <ele>590.3869629</ele>
        <time>2013-04-05T09:18:55Z</time>
      </trkpt>
      <trkpt lat="44.36132" lon="5.89457">
        <ele>588.9450684</ele>
        <time>2013-04-05T09:19:02Z</time>
      </trkpt>
      <trkpt lat="44.36113" lon="5.89427">
        <ele>587.0219727</ele>
        <time>2013-04-05T09:19:08Z</time>
      </trkpt>
      <trkpt lat="44.36078" lon="5.89369">
        <ele>586.060791</ele>
        <time>2013-04-05T09:19:17Z</time>
      </trkpt>
      <trkpt lat="44.3607" lon="5.8935">
        <ele>586.060791</ele>
        <time>2013-04-05T09:19:20Z</time>
      </trkpt>
      <trkpt lat="44.3605" lon="5.89333">
        <ele>585.0996094</ele>
        <time>2013-04-05T09:19:26Z</time>
      </trkpt>
      <trkpt lat="44.35992" lon="5.89349">
        <ele>586.5415039</ele>
        <time>2013-04-05T09:19:45Z</time>
      </trkpt>
      <trkpt lat="44.35954" lon="5.89362">
        <ele>588.9450684</ele>
        <time>2013-04-05T09:20:03Z</time>
      </trkpt>
      <trkpt lat="44.3592" lon="5.89378">
        <ele>592.3095703</ele>
        <time>2013-04-05T09:20:20Z</time>
      </trkpt>
      <trkpt lat="44.35893" lon="5.89396">
        <ele>595.6740723</ele>
        <time>2013-04-05T09:20:36Z</time>
      </trkpt>
      <trkpt lat="44.35859" lon="5.89415">
        <ele>599.0385742</ele>
        <time>2013-04-05T09:20:55Z</time>
      </trkpt>
      <trkpt lat="44.35831" lon="5.89427">
        <ele>600.4807129</ele>
        <time>2013-04-05T09:21:10Z</time>
      </trkpt>
      <trkpt lat="44.35781" lon="5.89432">
        <ele>603.364502</ele>
        <time>2013-04-05T09:21:36Z</time>
      </trkpt>
      <trkpt lat="44.35739" lon="5.89431">
        <ele>605.2873535</ele>
        <time>2013-04-05T09:21:55Z</time>
      </trkpt>
      <trkpt lat="44.35712" lon="5.89449">
        <ele>607.6906738</ele>
        <time>2013-04-05T09:22:11Z</time>
      </trkpt>
      <trkpt lat="44.35702" lon="5.89452">
        <ele>608.1713867</ele>
        <time>2013-04-05T09:22:17Z</time>
      </trkpt>
      <trkpt lat="44.35696" lon="5.89457">
        <ele>607.6906738</ele>
        <time>2013-04-05T09:22:19Z</time>
      </trkpt>
      <trkpt lat="44.35654" lon="5.89496">
        <ele>606.2485352</ele>
        <time>2013-04-05T09:22:29Z</time>
      </trkpt>
      <trkpt lat="44.35638" lon="5.89513">
        <ele>604.8066406</ele>
        <time>2013-04-05T09:22:33Z</time>
      </trkpt>
      <trkpt lat="44.35608" lon="5.89543">
        <ele>606.2485352</ele>
        <time>2013-04-05T09:22:44Z</time>
      </trkpt>
      <trkpt lat="44.35583" lon="5.8959">
        <ele>609.1325684</ele>
        <time>2013-04-05T09:23:03Z</time>
      </trkpt>
      <trkpt lat="44.35574" lon="5.89642">
        <ele>612.0166016</ele>
        <time>2013-04-05T09:23:21Z</time>
      </trkpt>
      <trkpt lat="44.35564" lon="5.89663">
        <ele>612.4970703</ele>
        <time>2013-04-05T09:23:29Z</time>
      </trkpt>
      <trkpt lat="44.3554" lon="5.89655">
        <ele>611.0551758</ele>
        <time>2013-04-05T09:23:37Z</time>
      </trkpt>
      <trkpt lat="44.35534" lon="5.8965">
        <ele>611.0551758</ele>
        <time>2013-04-05T09:23:39Z</time>
      </trkpt>
      <trkpt lat="44.35506" lon="5.89659">
        <ele>609.6132813</ele>
        <time>2013-04-05T09:23:46Z</time>
      </trkpt>
      <trkpt lat="44.35456" lon="5.89686">
        <ele>609.1325684</ele>
        <time>2013-04-05T09:23:58Z</time>
      </trkpt>
      <trkpt lat="44.35409" lon="5.89716">
        <ele>611.5358887</ele>
        <time>2013-04-05T09:24:18Z</time>
      </trkpt>
      <trkpt lat="44.35369" lon="5.89712">
        <ele>615.3811035</ele>
        <time>2013-04-05T09:24:38Z</time>
      </trkpt>
      <trkpt lat="44.35331" lon="5.8968">
        <ele>616.822998</ele>
        <time>2013-04-05T09:24:59Z</time>
      </trkpt>
      <trkpt lat="44.35301" lon="5.89636">
        <ele>619.7070313</ele>
        <time>2013-04-05T09:25:19Z</time>
      </trkpt>
      <trkpt lat="44.35274" lon="5.89622">
        <ele>622.5910645</ele>
        <time>2013-04-05T09:25:35Z</time>
      </trkpt>
      <trkpt lat="44.35269" lon="5.89619">
        <ele>624.032959</ele>
        <time>2013-04-05T09:25:53Z</time>
      </trkpt>
      <trkpt lat="44.35269" lon="5.89619">
        <ele>625.9555664</ele>
        <time>2013-04-05T09:26:25Z</time>
      </trkpt>
      <trkpt lat="44.35269" lon="5.89619">
        <ele>628.8395996</ele>
        <time>2013-04-05T09:26:44Z</time>
      </trkpt>
      <trkpt lat="44.35269" lon="5.89619">
        <ele>632.2041016</ele>
        <time>2013-04-05T09:27:03Z</time>
      </trkpt>
      <trkpt lat="44.35269" lon="5.89619">
        <ele>635.0881348</ele>
        <time>2013-04-05T09:27:22Z</time>
      </trkpt>
      <trkpt lat="44.35186" lon="5.89568">
        <ele>637.972168</ele>
        <time>2013-04-05T09:27:43Z</time>
      </trkpt>
      <trkpt lat="44.35186" lon="5.89568">
        <ele>640.855957</ele>
        <time>2013-04-05T09:28:05Z</time>
      </trkpt>
      <trkpt lat="44.35186" lon="5.89568">
        <ele>644.2207031</ele>
        <time>2013-04-05T09:28:32Z</time>
      </trkpt>
      <trkpt lat="44.35186" lon="5.89568">
        <ele>646.6240234</ele>
        <time>2013-04-05T09:29:01Z</time>
      </trkpt>
      <trkpt lat="44.35107" lon="5.89508">
        <ele>646.6240234</ele>
        <time>2013-04-05T09:29:14Z</time>
      </trkpt>
      <trkpt lat="44.35074" lon="5.89459">
        <ele>647.5852051</ele>
        <time>2013-04-05T09:29:34Z</time>
      </trkpt>
      <trkpt lat="44.35036" lon="5.89413">
        <ele>649.0270996</ele>
        <time>2013-04-05T09:29:55Z</time>
      </trkpt>
      <trkpt lat="44.35036" lon="5.89413">
        <ele>650.4692383</ele>
        <time>2013-04-05T09:30:07Z</time>
      </trkpt>
      <trkpt lat="44.35036" lon="5.89413">
        <ele>653.3532715</ele>
        <time>2013-04-05T09:30:28Z</time>
      </trkpt>
      <trkpt lat="44.35036" lon="5.89413">
        <ele>656.2370605</ele>
        <time>2013-04-05T09:30:47Z</time>
      </trkpt>
      <trkpt lat="44.35036" lon="5.89413">
        <ele>659.6018066</ele>
        <time>2013-04-05T09:31:08Z</time>
      </trkpt>
      <trkpt lat="44.35036" lon="5.89413">
        <ele>662.4855957</ele>
        <time>2013-04-05T09:31:31Z</time>
      </trkpt>
      <trkpt lat="44.34965" lon="5.89334">
        <ele>665.8503418</ele>
        <time>2013-04-05T09:31:54Z</time>
      </trkpt>
      <trkpt lat="44.34965" lon="5.89334">
        <ele>668.734375</ele>
        <time>2013-04-05T09:32:16Z</time>
      </trkpt>
      <trkpt lat="44.34965" lon="5.89334">
        <ele>669.2150879</ele>
        <time>2013-04-05T09:32:20Z</time>
      </trkpt>
      <trkpt lat="44.34965" lon="5.89334">
        <ele>672.5795898</ele>
        <time>2013-04-05T09:32:47Z</time>
      </trkpt>
      <trkpt lat="44.34965" lon="5.89334">
        <ele>673.0603027</ele>
        <time>2013-04-05T09:33:09Z</time>
      </trkpt>
      <trkpt lat="44.34965" lon="5.89334">
        <ele>674.0214844</ele>
        <time>2013-04-05T09:35:06Z</time>
      </trkpt>
      <trkpt lat="44.34965" lon="5.89334">
        <ele>673.0603027</ele>
        <time>2013-04-05T09:35:48Z</time>
      </trkpt>
      <trkpt lat="44.34915" lon="5.89304">
        <ele>675.4633789</ele>
        <time>2013-04-05T09:36:01Z</time>
      </trkpt>
      <trkpt lat="44.34923" lon="5.89284">
        <ele>677.3862305</ele>
        <time>2013-04-05T09:36:10Z</time>
      </trkpt>
      <trkpt lat="44.3491" lon="5.89242">
        <ele>678.828125</ele>
        <time>2013-04-05T09:36:26Z</time>
      </trkpt>
      <trkpt lat="44.34886" lon="5.8922">
        <ele>681.7119141</ele>
        <time>2013-04-05T09:36:41Z</time>
      </trkpt>
      <trkpt lat="44.34858" lon="5.89196">
        <ele>683.1538086</ele>
        <time>2013-04-05T09:36:56Z</time>
      </trkpt>
      <trkpt lat="44.34818" lon="5.89167">
        <ele>684.5961914</ele>
        <time>2013-04-05T09:37:16Z</time>
      </trkpt>
      <trkpt lat="44.34808" lon="5.89156">
        <ele>685.557373</ele>
        <time>2013-04-05T09:37:22Z</time>
      </trkpt>
      <trkpt lat="44.34769" lon="5.89127">
        <ele>688.9221191</ele>
        <time>2013-04-05T09:37:43Z</time>
      </trkpt>
      <trkpt lat="44.34752" lon="5.89122">
        <ele>691.8059082</ele>
        <time>2013-04-05T09:37:52Z</time>
      </trkpt>
      <trkpt lat="44.34727" lon="5.89116">
        <ele>695.1704102</ele>
        <time>2013-04-05T09:38:07Z</time>
      </trkpt>
      <trkpt lat="44.34688" lon="5.89106">
        <ele>697.0930176</ele>
        <time>2013-04-05T09:38:26Z</time>
      </trkpt>
      <trkpt lat="44.34644" lon="5.89087">
        <ele>698.5349121</ele>
        <time>2013-04-05T09:38:45Z</time>
      </trkpt>
      <trkpt lat="44.34602" lon="5.89064">
        <ele>699.015625</ele>
        <time>2013-04-05T09:39:01Z</time>
      </trkpt>
      <trkpt lat="44.34557" lon="5.89038">
        <ele>699.9770508</ele>
        <time>2013-04-05T09:39:19Z</time>
      </trkpt>
      <trkpt lat="44.34517" lon="5.89006">
        <ele>701.8999023</ele>
        <time>2013-04-05T09:39:37Z</time>
      </trkpt>
      <trkpt lat="44.3446" lon="5.88935">
        <ele>703.3417969</ele>
        <time>2013-04-05T09:40:03Z</time>
      </trkpt>
      <trkpt lat="44.34441" lon="5.88912">
        <ele>702.861084</ele>
        <time>2013-04-05T09:40:10Z</time>
      </trkpt>
      <trkpt lat="44.3443" lon="5.88902">
        <ele>702.3803711</ele>
        <time>2013-04-05T09:40:13Z</time>
      </trkpt>
      <trkpt lat="44.34381" lon="5.88869">
        <ele>699.9770508</ele>
        <time>2013-04-05T09:40:23Z</time>
      </trkpt>
      <trkpt lat="44.34345" lon="5.88857">
        <ele>698.0544434</ele>
        <time>2013-04-05T09:40:28Z</time>
      </trkpt>
      <trkpt lat="44.34318" lon="5.88854">
        <ele>698.0544434</ele>
        <time>2013-04-05T09:40:32Z</time>
      </trkpt>
      <trkpt lat="44.34285" lon="5.88863">
        <ele>699.9770508</ele>
        <time>2013-04-05T09:40:41Z</time>
      </trkpt>
      <trkpt lat="44.34224" lon="5.88844">
        <ele>698.5349121</ele>
        <time>2013-04-05T09:40:53Z</time>
      </trkpt>
      <trkpt lat="44.34163" lon="5.88864">
        <ele>699.015625</ele>
        <time>2013-04-05T09:41:09Z</time>
      </trkpt>
      <trkpt lat="44.3415" lon="5.88868">
        <ele>698.5349121</ele>
        <time>2013-04-05T09:41:12Z</time>
      </trkpt>
      <trkpt lat="44.34079" lon="5.88846">
        <ele>698.0544434</ele>
        <time>2013-04-05T09:41:29Z</time>
      </trkpt>
      <trkpt lat="44.34019" lon="5.8883">
        <ele>695.651123</ele>
        <time>2013-04-05T09:41:40Z</time>
      </trkpt>
      <trkpt lat="44.34007" lon="5.88828">
        <ele>694.2092285</ele>
        <time>2013-04-05T09:41:42Z</time>
      </trkpt>
      <trkpt lat="44.33992" lon="5.88825">
        <ele>693.2478027</ele>
        <time>2013-04-05T09:41:46Z</time>
      </trkpt>
      <trkpt lat="44.33947" lon="5.88807">
        <ele>691.3251953</ele>
        <time>2013-04-05T09:41:58Z</time>
      </trkpt>
      <trkpt lat="44.33878" lon="5.88773">
        <ele>688.4414063</ele>
        <time>2013-04-05T09:42:11Z</time>
      </trkpt>
      <trkpt lat="44.3385" lon="5.88735">
        <ele>686.9992676</ele>
        <time>2013-04-05T09:42:18Z</time>
      </trkpt>
      <trkpt lat="44.33807" lon="5.8866">
        <ele>683.1538086</ele>
        <time>2013-04-05T09:42:31Z</time>
      </trkpt>
      <trkpt lat="44.33798" lon="5.88647">
        <ele>682.6733398</ele>
        <time>2013-04-05T09:42:33Z</time>
      </trkpt>
      <trkpt lat="44.3373" lon="5.88556">
        <ele>679.3085938</ele>
        <time>2013-04-05T09:42:45Z</time>
      </trkpt>
      <trkpt lat="44.33673" lon="5.88497">
        <ele>676.9055176</ele>
        <time>2013-04-05T09:42:56Z</time>
      </trkpt>
      <trkpt lat="44.33648" lon="5.88478">
        <ele>674.0214844</ele>
        <time>2013-04-05T09:43:01Z</time>
      </trkpt>
      <trkpt lat="44.33553" lon="5.8842">
        <ele>671.1376953</ele>
        <time>2013-04-05T09:43:18Z</time>
      </trkpt>
      <trkpt lat="44.3352" lon="5.88397">
        <ele>671.1376953</ele>
        <time>2013-04-05T09:43:26Z</time>
      </trkpt>
      <trkpt lat="44.33485" lon="5.88341">
        <ele>671.1376953</ele>
        <time>2013-04-05T09:43:42Z</time>
      </trkpt>
      <trkpt lat="44.33449" lon="5.88298">
        <ele>670.1762695</ele>
        <time>2013-04-05T09:43:56Z</time>
      </trkpt>
      <trkpt lat="44.33412" lon="5.88264">
        <ele>669.6958008</ele>
        <time>2013-04-05T09:44:10Z</time>
      </trkpt>
      <trkpt lat="44.33387" lon="5.8824">
        <ele>668.734375</ele>
        <time>2013-04-05T09:44:16Z</time>
      </trkpt>
      <trkpt lat="44.33337" lon="5.88245">
        <ele>666.8115234</ele>
        <time>2013-04-05T09:44:27Z</time>
      </trkpt>
      <trkpt lat="44.3329" lon="5.88257">
        <ele>665.8503418</ele>
        <time>2013-04-05T09:44:37Z</time>
      </trkpt>
      <trkpt lat="44.33287" lon="5.88257">
        <ele>665.8503418</ele>
        <time>2013-04-05T09:44:38Z</time>
      </trkpt>
      <trkpt lat="44.33282" lon="5.88258">
        <ele>665.8503418</ele>
        <time>2013-04-05T09:44:47Z</time>
      </trkpt>
      <trkpt lat="44.33282" lon="5.88258">
        <ele>665.3696289</ele>
        <time>2013-04-05T09:45:16Z</time>
      </trkpt>
      <trkpt lat="44.33282" lon="5.88258">
        <ele>665.8503418</ele>
        <time>2013-04-05T09:45:24Z</time>
      </trkpt>
      <trkpt lat="44.33287" lon="5.88258">
        <ele>666.3308105</ele>
        <time>2013-04-05T09:45:28Z</time>
      </trkpt>
      <trkpt lat="44.33323" lon="5.88249">
        <ele>666.3308105</ele>
        <time>2013-04-05T09:45:43Z</time>
      </trkpt>
      <trkpt lat="44.33328" lon="5.88248">
        <ele>666.8115234</ele>
        <time>2013-04-05T09:45:45Z</time>
      </trkpt>
      <trkpt lat="44.33344" lon="5.88241">
        <ele>666.8115234</ele>
        <time>2013-04-05T09:45:51Z</time>
      </trkpt>
      <trkpt lat="44.33353" lon="5.8821">
        <ele>665.3696289</ele>
        <time>2013-04-05T09:45:55Z</time>
      </trkpt>
      <trkpt lat="44.33407" lon="5.88097">
        <ele>663.4470215</ele>
        <time>2013-04-05T09:46:12Z</time>
      </trkpt>
      <trkpt lat="44.33417" lon="5.88081">
        <ele>662.9663086</ele>
        <time>2013-04-05T09:46:15Z</time>
      </trkpt>
      <trkpt lat="44.33426" lon="5.88047">
        <ele>663.4470215</ele>
        <time>2013-04-05T09:46:20Z</time>
      </trkpt>
      <trkpt lat="44.3343" lon="5.88013">
        <ele>663.9274902</ele>
        <time>2013-04-05T09:46:25Z</time>
      </trkpt>
      <trkpt lat="44.33448" lon="5.8796">
        <ele>663.9274902</ele>
        <time>2013-04-05T09:46:34Z</time>
      </trkpt>
      <trkpt lat="44.33491" lon="5.87901">
        <ele>664.4082031</ele>
        <time>2013-04-05T09:46:47Z</time>
      </trkpt>
      <trkpt lat="44.33532" lon="5.87875">
        <ele>664.888916</ele>
        <time>2013-04-05T09:46:58Z</time>
      </trkpt>
      <trkpt lat="44.33548" lon="5.87852">
        <ele>665.3696289</ele>
        <time>2013-04-05T09:47:02Z</time>
      </trkpt>
      <trkpt lat="44.33578" lon="5.87766">
        <ele>665.8503418</ele>
        <time>2013-04-05T09:47:17Z</time>
      </trkpt>
      <trkpt lat="44.33597" lon="5.87684">
        <ele>667.2922363</ele>
        <time>2013-04-05T09:47:35Z</time>
      </trkpt>
      <trkpt lat="44.33599" lon="5.8759">
        <ele>667.7727051</ele>
        <time>2013-04-05T09:47:53Z</time>
      </trkpt>
      <trkpt lat="44.33609" lon="5.87509">
        <ele>667.2922363</ele>
        <time>2013-04-05T09:48:09Z</time>
      </trkpt>
      <trkpt lat="44.33616" lon="5.87421">
        <ele>663.9274902</ele>
        <time>2013-04-05T09:48:21Z</time>
      </trkpt>
      <trkpt lat="44.33615" lon="5.87403">
        <ele>662.9663086</ele>
        <time>2013-04-05T09:48:23Z</time>
      </trkpt>
      <trkpt lat="44.33614" lon="5.87378">
        <ele>661.5244141</ele>
        <time>2013-04-05T09:48:26Z</time>
      </trkpt>
      <trkpt lat="44.33629" lon="5.87345">
        <ele>659.6018066</ele>
        <time>2013-04-05T09:48:32Z</time>
      </trkpt>
      <trkpt lat="44.33639" lon="5.87334">
        <ele>658.1599121</ele>
        <time>2013-04-05T09:48:34Z</time>
      </trkpt>
      <trkpt lat="44.33662" lon="5.87309">
        <ele>655.7565918</ele>
        <time>2013-04-05T09:48:39Z</time>
      </trkpt>
      <trkpt lat="44.33666" lon="5.87304">
        <ele>654.795166</ele>
        <time>2013-04-05T09:48:40Z</time>
      </trkpt>
      <trkpt lat="44.33676" lon="5.87281">
        <ele>653.3532715</ele>
        <time>2013-04-05T09:48:44Z</time>
      </trkpt>
      <trkpt lat="44.33676" lon="5.87273">
        <ele>652.3918457</ele>
        <time>2013-04-05T09:48:46Z</time>
      </trkpt>
      <trkpt lat="44.33676" lon="5.8727">
        <ele>652.8725586</ele>
        <time>2013-04-05T09:48:56Z</time>
      </trkpt>
      <trkpt lat="44.33676" lon="5.8727">
        <ele>652.3918457</ele>
        <time>2013-04-05T09:51:48Z</time>
      </trkpt>
      <trkpt lat="44.3371" lon="5.8726">
        <ele>652.8725586</ele>
        <time>2013-04-05T09:51:59Z</time>
      </trkpt>
      <trkpt lat="44.33759" lon="5.87246">
        <ele>654.3146973</ele>
        <time>2013-04-05T09:52:15Z</time>
      </trkpt>
      <trkpt lat="44.33813" lon="5.87241">
        <ele>657.1984863</ele>
        <time>2013-04-05T09:52:32Z</time>
      </trkpt>
      <trkpt lat="44.33852" lon="5.87251">
        <ele>659.1210938</ele>
        <time>2013-04-05T09:52:45Z</time>
      </trkpt>
      <trkpt lat="44.33904" lon="5.87274">
        <ele>660.5629883</ele>
        <time>2013-04-05T09:53:02Z</time>
      </trkpt>
      <trkpt lat="44.33969" lon="5.87306">
        <ele>662.4855957</ele>
        <time>2013-04-05T09:53:22Z</time>
      </trkpt>
      <trkpt lat="44.34016" lon="5.87306">
        <ele>665.3696289</ele>
        <time>2013-04-05T09:53:38Z</time>
      </trkpt>
      <trkpt lat="44.34069" lon="5.87307">
        <ele>667.7727051</ele>
        <time>2013-04-05T09:53:56Z</time>
      </trkpt>
      <trkpt lat="44.34134" lon="5.87334">
        <ele>670.6569824</ele>
        <time>2013-04-05T09:54:18Z</time>
      </trkpt>
      <trkpt lat="44.34186" lon="5.87346">
        <ele>674.0214844</ele>
        <time>2013-04-05T09:54:37Z</time>
      </trkpt>
      <trkpt lat="44.34241" lon="5.87319">
        <ele>675.4633789</ele>
        <time>2013-04-05T09:54:55Z</time>
      </trkpt>
      <trkpt lat="44.34298" lon="5.87282">
        <ele>675.9440918</ele>
        <time>2013-04-05T09:55:13Z</time>
      </trkpt>
      <trkpt lat="44.34355" lon="5.8727">
        <ele>679.3085938</ele>
        <time>2013-04-05T09:55:31Z</time>
      </trkpt>
      <trkpt lat="44.34364" lon="5.87266">
        <ele>680.7507324</ele>
        <time>2013-04-05T09:55:35Z</time>
      </trkpt>
      <trkpt lat="44.34393" lon="5.87256">
        <ele>683.1538086</ele>
        <time>2013-04-05T09:55:45Z</time>
      </trkpt>
      <trkpt lat="44.34429" lon="5.87223">
        <ele>684.5961914</ele>
        <time>2013-04-05T09:56:01Z</time>
      </trkpt>
      <trkpt lat="44.34439" lon="5.87147">
        <ele>682.6733398</ele>
        <time>2013-04-05T09:56:15Z</time>
      </trkpt>
      <trkpt lat="44.34454" lon="5.87044">
        <ele>683.6345215</ele>
        <time>2013-04-05T09:56:36Z</time>
      </trkpt>
      <trkpt lat="44.34446" lon="5.86981">
        <ele>682.192627</ele>
        <time>2013-04-05T09:56:48Z</time>
      </trkpt>
      <trkpt lat="44.34436" lon="5.86951">
        <ele>681.2314453</ele>
        <time>2013-04-05T09:56:52Z</time>
      </trkpt>
      <trkpt lat="44.34433" lon="5.86944">
        <ele>680.7507324</ele>
        <time>2013-04-05T09:56:53Z</time>
      </trkpt>
      <trkpt lat="44.34402" lon="5.86921">
        <ele>677.8666992</ele>
        <time>2013-04-05T09:56:59Z</time>
      </trkpt>
      <trkpt lat="44.34379" lon="5.86919">
        <ele>675.9440918</ele>
        <time>2013-04-05T09:57:02Z</time>
      </trkpt>
      <trkpt lat="44.34372" lon="5.86918">
        <ele>674.0214844</ele>
        <time>2013-04-05T09:57:03Z</time>
      </trkpt>
      <trkpt lat="44.34349" lon="5.869">
        <ele>672.098877</ele>
        <time>2013-04-05T09:57:07Z</time>
      </trkpt>
      <trkpt lat="44.34336" lon="5.86889">
        <ele>671.1376953</ele>
        <time>2013-04-05T09:57:09Z</time>
      </trkpt>
      <trkpt lat="44.34317" lon="5.86868">
        <ele>670.1762695</ele>
        <time>2013-04-05T09:57:13Z</time>
      </trkpt>
      <trkpt lat="44.34315" lon="5.8683">
        <ele>667.7727051</ele>
        <time>2013-04-05T09:57:21Z</time>
      </trkpt>
      <trkpt lat="44.34324" lon="5.86827">
        <ele>666.3308105</ele>
        <time>2013-04-05T09:57:23Z</time>
      </trkpt>
      <trkpt lat="44.34341" lon="5.86831">
        <ele>664.4082031</ele>
        <time>2013-04-05T09:57:26Z</time>
      </trkpt>
      <trkpt lat="44.34392" lon="5.86851">
        <ele>662.005127</ele>
        <time>2013-04-05T09:57:34Z</time>
      </trkpt>
      <trkpt lat="44.34405" lon="5.86856">
        <ele>660.5629883</ele>
        <time>2013-04-05T09:57:36Z</time>
      </trkpt>
      <trkpt lat="44.34424" lon="5.86856">
        <ele>657.1984863</ele>
        <time>2013-04-05T09:57:39Z</time>
      </trkpt>
      <trkpt lat="44.34431" lon="5.86854">
        <ele>655.7565918</ele>
        <time>2013-04-05T09:57:40Z</time>
      </trkpt>
      <trkpt lat="44.34461" lon="5.86841">
        <ele>652.8725586</ele>
        <time>2013-04-05T09:57:45Z</time>
      </trkpt>
      <trkpt lat="44.34466" lon="5.86838">
        <ele>652.8725586</ele>
        <time>2013-04-05T09:57:46Z</time>
      </trkpt>
      <trkpt lat="44.34501" lon="5.86816">
        <ele>649.5078125</ele>
        <time>2013-04-05T09:57:54Z</time>
      </trkpt>
      <trkpt lat="44.3451" lon="5.86811">
        <ele>648.5463867</ele>
        <time>2013-04-05T09:57:58Z</time>
      </trkpt>
      <trkpt lat="44.34507" lon="5.8681">
        <ele>648.065918</ele>
        <time>2013-04-05T09:58:07Z</time>
      </trkpt>
      <trkpt lat="44.34507" lon="5.8681">
        <ele>649.0270996</ele>
        <time>2013-04-05T10:00:02Z</time>
      </trkpt>
      <trkpt lat="44.34496" lon="5.868">
        <ele>647.5852051</ele>
        <time>2013-04-05T10:00:07Z</time>
      </trkpt>
      <trkpt lat="44.34491" lon="5.86792">
        <ele>647.1044922</ele>
        <time>2013-04-05T10:00:09Z</time>
      </trkpt>
      <trkpt lat="44.34488" lon="5.86783">
        <ele>645.6625977</ele>
        <time>2013-04-05T10:00:11Z</time>
      </trkpt>
      <trkpt lat="44.34492" lon="5.8676">
        <ele>643.7399902</ele>
        <time>2013-04-05T10:00:15Z</time>
      </trkpt>
      <trkpt lat="44.34534" lon="5.86729">
        <ele>640.855957</ele>
        <time>2013-04-05T10:00:27Z</time>
      </trkpt>
      <trkpt lat="44.34541" lon="5.86721">
        <ele>639.8947754</ele>
        <time>2013-04-05T10:00:29Z</time>
      </trkpt>
      <trkpt lat="44.34545" lon="5.86717">
        <ele>639.4140625</ele>
        <time>2013-04-05T10:00:30Z</time>
      </trkpt>
      <trkpt lat="44.34557" lon="5.86696">
        <ele>638.9335938</ele>
        <time>2013-04-05T10:00:34Z</time>
      </trkpt>
      <trkpt lat="44.34583" lon="5.86592">
        <ele>636.0495605</ele>
        <time>2013-04-05T10:00:48Z</time>
      </trkpt>
      <trkpt lat="44.34588" lon="5.86564">
        <ele>636.0495605</ele>
        <time>2013-04-05T10:00:52Z</time>
      </trkpt>
      <trkpt lat="44.34593" lon="5.86525">
        <ele>636.0495605</ele>
        <time>2013-04-05T10:00:58Z</time>
      </trkpt>
      <trkpt lat="44.3459" lon="5.8648">
        <ele>636.5302734</ele>
        <time>2013-04-05T10:01:05Z</time>
      </trkpt>
      <trkpt lat="44.34561" lon="5.86366">
        <ele>636.5302734</ele>
        <time>2013-04-05T10:01:23Z</time>
      </trkpt>
      <trkpt lat="44.34503" lon="5.86196">
        <ele>636.0495605</ele>
        <time>2013-04-05T10:01:52Z</time>
      </trkpt>
      <trkpt lat="44.34482" lon="5.86096">
        <ele>635.0881348</ele>
        <time>2013-04-05T10:02:08Z</time>
      </trkpt>
      <trkpt lat="44.34432" lon="5.86032">
        <ele>634.6074219</ele>
        <time>2013-04-05T10:02:22Z</time>
      </trkpt>
      <trkpt lat="44.3441" lon="5.86007">
        <ele>635.0881348</ele>
        <time>2013-04-05T10:02:28Z</time>
      </trkpt>
      <trkpt lat="44.34398" lon="5.85955">
        <ele>634.6074219</ele>
        <time>2013-04-05T10:02:36Z</time>
      </trkpt>
      <trkpt lat="44.34416" lon="5.85815">
        <ele>635.5686035</ele>
        <time>2013-04-05T10:02:56Z</time>
      </trkpt>
      <trkpt lat="44.3444" lon="5.85649">
        <ele>636.0495605</ele>
        <time>2013-04-05T10:03:20Z</time>
      </trkpt>
      <trkpt lat="44.34477" lon="5.85562">
        <ele>635.0881348</ele>
        <time>2013-04-05T10:03:34Z</time>
      </trkpt>
      <trkpt lat="44.34483" lon="5.85524">
        <ele>634.6074219</ele>
        <time>2013-04-05T10:03:40Z</time>
      </trkpt>
      <trkpt lat="44.34464" lon="5.85426">
        <ele>635.0881348</ele>
        <time>2013-04-05T10:03:55Z</time>
      </trkpt>
      <trkpt lat="44.34443" lon="5.85398">
        <ele>634.6074219</ele>
        <time>2013-04-05T10:04:01Z</time>
      </trkpt>
      <trkpt lat="44.34434" lon="5.85355">
        <ele>634.126709</ele>
        <time>2013-04-05T10:04:07Z</time>
      </trkpt>
      <trkpt lat="44.34442" lon="5.8531">
        <ele>632.6848145</ele>
        <time>2013-04-05T10:04:13Z</time>
      </trkpt>
      <trkpt lat="44.34477" lon="5.85199">
        <ele>631.7233887</ele>
        <time>2013-04-05T10:04:30Z</time>
      </trkpt>
      <trkpt lat="44.34512" lon="5.85101">
        <ele>630.762207</ele>
        <time>2013-04-05T10:04:45Z</time>
      </trkpt>
      <trkpt lat="44.34525" lon="5.85051">
        <ele>630.2814941</ele>
        <time>2013-04-05T10:04:52Z</time>
      </trkpt>
      <trkpt lat="44.34577" lon="5.84923">
        <ele>625.9555664</ele>
        <time>2013-04-05T10:05:10Z</time>
      </trkpt>
      <trkpt lat="44.34586" lon="5.84898">
        <ele>624.9943848</ele>
        <time>2013-04-05T10:05:13Z</time>
      </trkpt>
      <trkpt lat="44.34624" lon="5.8479">
        <ele>624.032959</ele>
        <time>2013-04-05T10:05:27Z</time>
      </trkpt>
      <trkpt lat="44.34624" lon="5.84761">
        <ele>624.032959</ele>
        <time>2013-04-05T10:05:32Z</time>
      </trkpt>
      <trkpt lat="44.34621" lon="5.84733">
        <ele>623.5524902</ele>
        <time>2013-04-05T10:05:36Z</time>
      </trkpt>
      <trkpt lat="44.3462" lon="5.84605">
        <ele>623.5524902</ele>
        <time>2013-04-05T10:05:55Z</time>
      </trkpt>
      <trkpt lat="44.34617" lon="5.84479">
        <ele>622.5910645</ele>
        <time>2013-04-05T10:06:14Z</time>
      </trkpt>
      <trkpt lat="44.34616" lon="5.84422">
        <ele>621.6296387</ele>
        <time>2013-04-05T10:06:23Z</time>
      </trkpt>
      <trkpt lat="44.34631" lon="5.84396">
        <ele>622.1103516</ele>
        <time>2013-04-05T10:06:29Z</time>
      </trkpt>
      <trkpt lat="44.34642" lon="5.84381">
        <ele>623.0717773</ele>
        <time>2013-04-05T10:06:35Z</time>
      </trkpt>
      <trkpt lat="44.34646" lon="5.84365">
        <ele>623.5524902</ele>
        <time>2013-04-05T10:06:46Z</time>
      </trkpt>
      <trkpt lat="44.34646" lon="5.84365">
        <ele>624.032959</ele>
        <time>2013-04-05T10:09:06Z</time>
      </trkpt>
      <trkpt lat="44.34646" lon="5.84365">
        <ele>624.032959</ele>
        <time>2013-04-05T10:09:39Z</time>
      </trkpt>
      <trkpt lat="44.34633" lon="5.84319">
        <ele>622.5910645</ele>
        <time>2013-04-05T10:09:51Z</time>
      </trkpt>
      <trkpt lat="44.34608" lon="5.84206">
        <ele>620.668457</ele>
        <time>2013-04-05T10:10:08Z</time>
      </trkpt>
      <trkpt lat="44.3455" lon="5.84117">
        <ele>618.7456055</ele>
        <time>2013-04-05T10:10:25Z</time>
      </trkpt>
      <trkpt lat="44.34471" lon="5.84013">
        <ele>619.7070313</ele>
        <time>2013-04-05T10:10:48Z</time>
      </trkpt>
      <trkpt lat="44.34396" lon="5.83915">
        <ele>619.2263184</ele>
        <time>2013-04-05T10:11:09Z</time>
      </trkpt>
      <trkpt lat="44.34314" lon="5.83811">
        <ele>616.822998</ele>
        <time>2013-04-05T10:11:29Z</time>
      </trkpt>
      <trkpt lat="44.34225" lon="5.83693">
        <ele>613.9389648</ele>
        <time>2013-04-05T10:11:47Z</time>
      </trkpt>
      <trkpt lat="44.34138" lon="5.83597">
        <ele>613.9389648</ele>
        <time>2013-04-05T10:12:04Z</time>
      </trkpt>
      <trkpt lat="44.34031" lon="5.8349">
        <ele>612.0166016</ele>
        <time>2013-04-05T10:12:25Z</time>
      </trkpt>
      <trkpt lat="44.33918" lon="5.83405">
        <ele>609.6132813</ele>
        <time>2013-04-05T10:12:42Z</time>
      </trkpt>
      <trkpt lat="44.33836" lon="5.83388">
        <ele>606.2485352</ele>
        <time>2013-04-05T10:12:52Z</time>
      </trkpt>
      <trkpt lat="44.33683" lon="5.83368">
        <ele>602.8837891</ele>
        <time>2013-04-05T10:13:11Z</time>
      </trkpt>
      <trkpt lat="44.33581" lon="5.83355">
        <ele>599.5192871</ele>
        <time>2013-04-05T10:13:23Z</time>
      </trkpt>
      <trkpt lat="44.33415" lon="5.83354">
        <ele>596.1547852</ele>
        <time>2013-04-05T10:13:43Z</time>
      </trkpt>
      <trkpt lat="44.33255" lon="5.83377">
        <ele>593.270752</ele>
        <time>2013-04-05T10:14:05Z</time>
      </trkpt>
      <trkpt lat="44.33086" lon="5.834">
        <ele>590.3869629</ele>
        <time>2013-04-05T10:14:28Z</time>
      </trkpt>
      <trkpt lat="44.32985" lon="5.83394">
        <ele>590.8674316</ele>
        <time>2013-04-05T10:14:45Z</time>
      </trkpt>
      <trkpt lat="44.32868" lon="5.83389">
        <ele>587.9833984</ele>
        <time>2013-04-05T10:15:04Z</time>
      </trkpt>
      <trkpt lat="44.32837" lon="5.83386">
        <ele>586.5415039</ele>
        <time>2013-04-05T10:15:08Z</time>
      </trkpt>
      <trkpt lat="44.3283" lon="5.83385">
        <ele>586.5415039</ele>
        <time>2013-04-05T10:15:09Z</time>
      </trkpt>
      <trkpt lat="44.32808" lon="5.83377">
        <ele>585.5800781</ele>
        <time>2013-04-05T10:15:12Z</time>
      </trkpt>
      <trkpt lat="44.3269" lon="5.83295">
        <ele>583.6574707</ele>
        <time>2013-04-05T10:15:31Z</time>
      </trkpt>
      <trkpt lat="44.32668" lon="5.83279">
        <ele>584.6188965</ele>
        <time>2013-04-05T10:15:36Z</time>
      </trkpt>
      <trkpt lat="44.32659" lon="5.83293">
        <ele>584.6188965</ele>
        <time>2013-04-05T10:15:40Z</time>
      </trkpt>
      <trkpt lat="44.32645" lon="5.83394">
        <ele>585.0996094</ele>
        <time>2013-04-05T10:15:57Z</time>
      </trkpt>
      <trkpt lat="44.32631" lon="5.83512">
        <ele>585.5800781</ele>
        <time>2013-04-05T10:16:15Z</time>
      </trkpt>
      <trkpt lat="44.32626" lon="5.83558">
        <ele>585.0996094</ele>
        <time>2013-04-05T10:16:21Z</time>
      </trkpt>
      <trkpt lat="44.32628" lon="5.83599">
        <ele>585.0996094</ele>
        <time>2013-04-05T10:16:26Z</time>
      </trkpt>
      <trkpt lat="44.32669" lon="5.83763">
        <ele>586.5415039</ele>
        <time>2013-04-05T10:16:49Z</time>
      </trkpt>
      <trkpt lat="44.32697" lon="5.83914">
        <ele>587.0219727</ele>
        <time>2013-04-05T10:17:11Z</time>
      </trkpt>
      <trkpt lat="44.32712" lon="5.8399">
        <ele>587.5026855</ele>
        <time>2013-04-05T10:17:22Z</time>
      </trkpt>
      <trkpt lat="44.32749" lon="5.84054">
        <ele>587.9833984</ele>
        <time>2013-04-05T10:17:34Z</time>
      </trkpt>
      <trkpt lat="44.3276" lon="5.84077">
        <ele>588.9450684</ele>
        <time>2013-04-05T10:17:38Z</time>
      </trkpt>
      <trkpt lat="44.3278" lon="5.84224">
        <ele>590.8674316</ele>
        <time>2013-04-05T10:18:00Z</time>
      </trkpt>
      <trkpt lat="44.32789" lon="5.84302">
        <ele>594.2321777</ele>
        <time>2013-04-05T10:18:16Z</time>
      </trkpt>
      <trkpt lat="44.32799" lon="5.84383">
        <ele>597.5966797</ele>
        <time>2013-04-05T10:18:35Z</time>
      </trkpt>
      <trkpt lat="44.32805" lon="5.84445">
        <ele>600</ele>
        <time>2013-04-05T10:18:51Z</time>
      </trkpt>
      <trkpt lat="44.3279" lon="5.84524">
        <ele>601.9226074</ele>
        <time>2013-04-05T10:19:09Z</time>
      </trkpt>
      <trkpt lat="44.32768" lon="5.84612">
        <ele>604.3261719</ele>
        <time>2013-04-05T10:19:29Z</time>
      </trkpt>
      <trkpt lat="44.32753" lon="5.84693">
        <ele>606.2485352</ele>
        <time>2013-04-05T10:19:47Z</time>
      </trkpt>
      <trkpt lat="44.32754" lon="5.84772">
        <ele>607.2099609</ele>
        <time>2013-04-05T10:20:04Z</time>
      </trkpt>
      <trkpt lat="44.32757" lon="5.84876">
        <ele>608.6518555</ele>
        <time>2013-04-05T10:20:24Z</time>
      </trkpt>
      <trkpt lat="44.32764" lon="5.84993">
        <ele>610.5744629</ele>
        <time>2013-04-05T10:20:47Z</time>
      </trkpt>
      <trkpt lat="44.32797" lon="5.85028">
        <ele>613.4584961</ele>
        <time>2013-04-05T10:21:01Z</time>
      </trkpt>
      <trkpt lat="44.32847" lon="5.85016">
        <ele>615.3811035</ele>
        <time>2013-04-05T10:21:17Z</time>
      </trkpt>
      <trkpt lat="44.32895" lon="5.85029">
        <ele>615.3811035</ele>
        <time>2013-04-05T10:21:31Z</time>
      </trkpt>
      <trkpt lat="44.32908" lon="5.85045">
        <ele>615.8618164</ele>
        <time>2013-04-05T10:21:35Z</time>
      </trkpt>
      <trkpt lat="44.32944" lon="5.85115">
        <ele>616.3422852</ele>
        <time>2013-04-05T10:21:49Z</time>
      </trkpt>
      <trkpt lat="44.32951" lon="5.8514">
        <ele>615.8618164</ele>
        <time>2013-04-05T10:21:53Z</time>
      </trkpt>
      <trkpt lat="44.32953" lon="5.85258">
        <ele>615.3811035</ele>
        <time>2013-04-05T10:22:11Z</time>
      </trkpt>
      <trkpt lat="44.32951" lon="5.85398">
        <ele>616.3422852</ele>
        <time>2013-04-05T10:22:29Z</time>
      </trkpt>
      <trkpt lat="44.32951" lon="5.85547">
        <ele>617.3037109</ele>
        <time>2013-04-05T10:22:49Z</time>
      </trkpt>
      <trkpt lat="44.32951" lon="5.85561">
        <ele>617.7841797</ele>
        <time>2013-04-05T10:22:51Z</time>
      </trkpt>
      <trkpt lat="44.32945" lon="5.85681">
        <ele>619.7070313</ele>
        <time>2013-04-05T10:23:10Z</time>
      </trkpt>
      <trkpt lat="44.32945" lon="5.8578">
        <ele>620.1877441</ele>
        <time>2013-04-05T10:23:25Z</time>
      </trkpt>
      <trkpt lat="44.32948" lon="5.85948">
        <ele>621.1491699</ele>
        <time>2013-04-05T10:23:51Z</time>
      </trkpt>
      <trkpt lat="44.32956" lon="5.85969">
        <ele>621.6296387</ele>
        <time>2013-04-05T10:23:55Z</time>
      </trkpt>
      <trkpt lat="44.32985" lon="5.8604">
        <ele>622.1103516</ele>
        <time>2013-04-05T10:24:08Z</time>
      </trkpt>
      <trkpt lat="44.32973" lon="5.86107">
        <ele>622.5910645</ele>
        <time>2013-04-05T10:24:19Z</time>
      </trkpt>
      <trkpt lat="44.32903" lon="5.86231">
        <ele>624.032959</ele>
        <time>2013-04-05T10:24:44Z</time>
      </trkpt>
      <trkpt lat="44.32845" lon="5.86356">
        <ele>623.5524902</ele>
        <time>2013-04-05T10:25:04Z</time>
      </trkpt>
      <trkpt lat="44.32842" lon="5.86412">
        <ele>623.5524902</ele>
        <time>2013-04-05T10:25:10Z</time>
      </trkpt>
      <trkpt lat="44.32808" lon="5.8647">
        <ele>623.0717773</ele>
        <time>2013-04-05T10:25:19Z</time>
      </trkpt>
      <trkpt lat="44.32798" lon="5.86478">
        <ele>623.5524902</ele>
        <time>2013-04-05T10:25:21Z</time>
      </trkpt>
      <trkpt lat="44.32754" lon="5.86551">
        <ele>624.032959</ele>
        <time>2013-04-05T10:25:34Z</time>
      </trkpt>
      <trkpt lat="44.32747" lon="5.86586">
        <ele>624.5136719</ele>
        <time>2013-04-05T10:25:39Z</time>
      </trkpt>
      <trkpt lat="44.32761" lon="5.86738">
        <ele>624.5136719</ele>
        <time>2013-04-05T10:25:59Z</time>
      </trkpt>
      <trkpt lat="44.32761" lon="5.86745">
        <ele>624.5136719</ele>
        <time>2013-04-05T10:26:00Z</time>
      </trkpt>
      <trkpt lat="44.32741" lon="5.86858">
        <ele>625.4748535</ele>
        <time>2013-04-05T10:26:17Z</time>
      </trkpt>
      <trkpt lat="44.32706" lon="5.87012">
        <ele>626.4362793</ele>
        <time>2013-04-05T10:26:42Z</time>
      </trkpt>
      <trkpt lat="44.3269" lon="5.87093">
        <ele>628.3588867</ele>
        <time>2013-04-05T10:26:56Z</time>
      </trkpt>
      <trkpt lat="44.32662" lon="5.87125">
        <ele>630.2814941</ele>
        <time>2013-04-05T10:27:05Z</time>
      </trkpt>
      <trkpt lat="44.32603" lon="5.8714">
        <ele>631.2429199</ele>
        <time>2013-04-05T10:27:22Z</time>
      </trkpt>
      <trkpt lat="44.32539" lon="5.87154">
        <ele>631.7233887</ele>
        <time>2013-04-05T10:27:40Z</time>
      </trkpt>
      <trkpt lat="44.32496" lon="5.87184">
        <ele>633.1652832</ele>
        <time>2013-04-05T10:27:55Z</time>
      </trkpt>
      <trkpt lat="44.32459" lon="5.87224">
        <ele>635.0881348</ele>
        <time>2013-04-05T10:28:11Z</time>
      </trkpt>
      <trkpt lat="44.32449" lon="5.87302">
        <ele>635.5686035</ele>
        <time>2013-04-05T10:28:27Z</time>
      </trkpt>
      <trkpt lat="44.32438" lon="5.87405">
        <ele>636.0495605</ele>
        <time>2013-04-05T10:28:46Z</time>
      </trkpt>
      <trkpt lat="44.32437" lon="5.87428">
        <ele>636.5302734</ele>
        <time>2013-04-05T10:28:50Z</time>
      </trkpt>
      <trkpt lat="44.32444" lon="5.87456">
        <ele>636.5302734</ele>
        <time>2013-04-05T10:28:55Z</time>
      </trkpt>
      <trkpt lat="44.32471" lon="5.87505">
        <ele>637.0107422</ele>
        <time>2013-04-05T10:29:06Z</time>
      </trkpt>
      <trkpt lat="44.32493" lon="5.87538">
        <ele>637.0107422</ele>
        <time>2013-04-05T10:29:14Z</time>
      </trkpt>
      <trkpt lat="44.32516" lon="5.87572">
        <ele>637.0107422</ele>
        <time>2013-04-05T10:29:22Z</time>
      </trkpt>
      <trkpt lat="44.3252" lon="5.87583">
        <ele>637.4914551</ele>
        <time>2013-04-05T10:29:24Z</time>
      </trkpt>
      <trkpt lat="44.32524" lon="5.87618">
        <ele>637.4914551</ele>
        <time>2013-04-05T10:29:30Z</time>
      </trkpt>
      <trkpt lat="44.32516" lon="5.87724">
        <ele>639.8947754</ele>
        <time>2013-04-05T10:29:51Z</time>
      </trkpt>
      <trkpt lat="44.32509" lon="5.87819">
        <ele>643.2592773</ele>
        <time>2013-04-05T10:30:13Z</time>
      </trkpt>
      <trkpt lat="44.32503" lon="5.87913">
        <ele>645.1818848</ele>
        <time>2013-04-05T10:30:35Z</time>
      </trkpt>
      <trkpt lat="44.32481" lon="5.88002">
        <ele>647.5852051</ele>
        <time>2013-04-05T10:30:56Z</time>
      </trkpt>
      <trkpt lat="44.32429" lon="5.88072">
        <ele>648.5463867</ele>
        <time>2013-04-05T10:31:18Z</time>
      </trkpt>
      <trkpt lat="44.32414" lon="5.88116">
        <ele>649.5078125</ele>
        <time>2013-04-05T10:31:29Z</time>
      </trkpt>
      <trkpt lat="44.32396" lon="5.88182">
        <ele>651.4304199</ele>
        <time>2013-04-05T10:31:46Z</time>
      </trkpt>
      <trkpt lat="44.32387" lon="5.88207">
        <ele>652.8725586</ele>
        <time>2013-04-05T10:31:53Z</time>
      </trkpt>
      <trkpt lat="44.3238" lon="5.88222">
        <ele>653.8339844</ele>
        <time>2013-04-05T10:31:57Z</time>
      </trkpt>
      <trkpt lat="44.3234" lon="5.88251">
        <ele>656.2370605</ele>
        <time>2013-04-05T10:32:14Z</time>
      </trkpt>
      <trkpt lat="44.32316" lon="5.88244">
        <ele>658.1599121</ele>
        <time>2013-04-05T10:32:26Z</time>
      </trkpt>
      <trkpt lat="44.32313" lon="5.88196">
        <ele>660.5629883</ele>
        <time>2013-04-05T10:32:41Z</time>
      </trkpt>
      <trkpt lat="44.3231" lon="5.88148">
        <ele>663.9274902</ele>
        <time>2013-04-05T10:32:57Z</time>
      </trkpt>
      <trkpt lat="44.3231" lon="5.88114">
        <ele>665.8503418</ele>
        <time>2013-04-05T10:33:09Z</time>
      </trkpt>
      <trkpt lat="44.32296" lon="5.88113">
        <ele>666.3308105</ele>
        <time>2013-04-05T10:33:15Z</time>
      </trkpt>
      <trkpt lat="44.32274" lon="5.88156">
        <ele>669.2150879</ele>
        <time>2013-04-05T10:33:32Z</time>
      </trkpt>
      <trkpt lat="44.32239" lon="5.88198">
        <ele>670.1762695</ele>
        <time>2013-04-05T10:33:52Z</time>
      </trkpt>
      <trkpt lat="44.3223" lon="5.88181">
        <ele>671.1376953</ele>
        <time>2013-04-05T10:33:59Z</time>
      </trkpt>
      <trkpt lat="44.32232" lon="5.88168">
        <ele>672.098877</ele>
        <time>2013-04-05T10:34:03Z</time>
      </trkpt>
      <trkpt lat="44.32223" lon="5.88109">
        <ele>674.9829102</ele>
        <time>2013-04-05T10:34:24Z</time>
      </trkpt>
      <trkpt lat="44.32212" lon="5.88067">
        <ele>676.4248047</ele>
        <time>2013-04-05T10:34:40Z</time>
      </trkpt>
      <trkpt lat="44.32203" lon="5.88025">
        <ele>679.3085938</ele>
        <time>2013-04-05T10:34:56Z</time>
      </trkpt>
      <trkpt lat="44.322" lon="5.88015">
        <ele>679.7893066</ele>
        <time>2013-04-05T10:35:00Z</time>
      </trkpt>
      <trkpt lat="44.32189" lon="5.87976">
        <ele>683.1538086</ele>
        <time>2013-04-05T10:35:16Z</time>
      </trkpt>
      <trkpt lat="44.32176" lon="5.87939">
        <ele>686.5187988</ele>
        <time>2013-04-05T10:35:34Z</time>
      </trkpt>
      <trkpt lat="44.32163" lon="5.87924">
        <ele>687.9606934</ele>
        <time>2013-04-05T10:35:43Z</time>
      </trkpt>
      <trkpt lat="44.3217" lon="5.87914">
        <ele>689.4025879</ele>
        <time>2013-04-05T10:35:54Z</time>
      </trkpt>
      <trkpt lat="44.32174" lon="5.87915">
        <ele>689.4025879</ele>
        <time>2013-04-05T10:35:56Z</time>
      </trkpt>
      <trkpt lat="44.32208" lon="5.87915">
        <ele>691.8059082</ele>
        <time>2013-04-05T10:36:15Z</time>
      </trkpt>
      <trkpt lat="44.32214" lon="5.87886">
        <ele>695.651123</ele>
        <time>2013-04-05T10:36:27Z</time>
      </trkpt>
      <trkpt lat="44.32193" lon="5.87837">
        <ele>697.5737305</ele>
        <time>2013-04-05T10:36:50Z</time>
      </trkpt>
      <trkpt lat="44.32166" lon="5.87793">
        <ele>700.4580078</ele>
        <time>2013-04-05T10:37:12Z</time>
      </trkpt>
      <trkpt lat="44.32146" lon="5.87756">
        <ele>702.861084</ele>
        <time>2013-04-05T10:37:30Z</time>
      </trkpt>
      <trkpt lat="44.3213" lon="5.87733">
        <ele>704.7836914</ele>
        <time>2013-04-05T10:37:44Z</time>
      </trkpt>
      <trkpt lat="44.32117" lon="5.87772">
        <ele>708.1484375</ele>
        <time>2013-04-05T10:38:02Z</time>
      </trkpt>
      <trkpt lat="44.32093" lon="5.87813">
        <ele>709.590332</ele>
        <time>2013-04-05T10:38:21Z</time>
      </trkpt>
      <trkpt lat="44.32058" lon="5.87831">
        <ele>711.9936523</ele>
        <time>2013-04-05T10:38:39Z</time>
      </trkpt>
      <trkpt lat="44.32028" lon="5.87819">
        <ele>714.3967285</ele>
        <time>2013-04-05T10:38:55Z</time>
      </trkpt>
      <trkpt lat="44.31997" lon="5.87776">
        <ele>717.2810059</ele>
        <time>2013-04-05T10:39:17Z</time>
      </trkpt>
      <trkpt lat="44.31982" lon="5.8774">
        <ele>719.2036133</ele>
        <time>2013-04-05T10:39:32Z</time>
      </trkpt>
      <trkpt lat="44.3197" lon="5.87692">
        <ele>721.6066895</ele>
        <time>2013-04-05T10:39:51Z</time>
      </trkpt>
      <trkpt lat="44.31962" lon="5.87647">
        <ele>724.4907227</ele>
        <time>2013-04-05T10:40:10Z</time>
      </trkpt>
      <trkpt lat="44.31957" lon="5.87602">
        <ele>727.8552246</ele>
        <time>2013-04-05T10:40:29Z</time>
      </trkpt>
      <trkpt lat="44.31949" lon="5.87557">
        <ele>730.2585449</ele>
        <time>2013-04-05T10:40:48Z</time>
      </trkpt>
      <trkpt lat="44.31948" lon="5.87536">
        <ele>732.1813965</ele>
        <time>2013-04-05T10:40:56Z</time>
      </trkpt>
      <trkpt lat="44.31962" lon="5.87513">
        <ele>735.0654297</ele>
        <time>2013-04-05T10:41:09Z</time>
      </trkpt>
      <trkpt lat="44.31964" lon="5.87507">
        <ele>736.0266113</ele>
        <time>2013-04-05T10:41:12Z</time>
      </trkpt>
      <trkpt lat="44.31951" lon="5.87495">
        <ele>737.9492188</ele>
        <time>2013-04-05T10:41:22Z</time>
      </trkpt>
      <trkpt lat="44.3195" lon="5.87496">
        <ele>737.9492188</ele>
        <time>2013-04-05T10:41:37Z</time>
      </trkpt>
      <trkpt lat="44.3195" lon="5.87496">
        <ele>737.9492188</ele>
        <time>2013-04-05T10:42:16Z</time>
      </trkpt>
      <trkpt lat="44.3195" lon="5.87496">
        <ele>737.4685059</ele>
        <time>2013-04-05T10:42:47Z</time>
      </trkpt>
      <trkpt lat="44.3195" lon="5.87496">
        <ele>736.5073242</ele>
        <time>2013-04-05T10:43:27Z</time>
      </trkpt>
      <trkpt lat="44.3195" lon="5.87496">
        <ele>736.5073242</ele>
        <time>2013-04-05T10:43:45Z</time>
      </trkpt>
      <trkpt lat="44.31956" lon="5.87494">
        <ele>736.5073242</ele>
        <time>2013-04-05T10:43:48Z</time>
      </trkpt>
      <trkpt lat="44.31968" lon="5.87478">
        <ele>736.5073242</ele>
        <time>2013-04-05T10:43:59Z</time>
      </trkpt>
      <trkpt lat="44.31977" lon="5.87465">
        <ele>737.4685059</ele>
        <time>2013-04-05T10:44:05Z</time>
      </trkpt>
      <trkpt lat="44.31983" lon="5.87454">
        <ele>738.9106445</ele>
        <time>2013-04-05T10:44:10Z</time>
      </trkpt>
      <trkpt lat="44.31981" lon="5.87445">
        <ele>740.3525391</ele>
        <time>2013-04-05T10:44:18Z</time>
      </trkpt>
      <trkpt lat="44.31979" lon="5.87426">
        <ele>740.8330078</ele>
        <time>2013-04-05T10:44:20Z</time>
      </trkpt>
      <trkpt lat="44.31994" lon="5.87441">
        <ele>742.7558594</ele>
        <time>2013-04-05T10:44:27Z</time>
      </trkpt>
      <trkpt lat="44.31928" lon="5.87427">
        <ele>746.1203613</ele>
        <time>2013-04-05T10:44:40Z</time>
      </trkpt>
      <trkpt lat="44.31926" lon="5.87394">
        <ele>749.4851074</ele>
        <time>2013-04-05T10:44:57Z</time>
      </trkpt>
      <trkpt lat="44.3189" lon="5.87393">
        <ele>750.927002</ele>
        <time>2013-04-05T10:45:15Z</time>
      </trkpt>
      <trkpt lat="44.31868" lon="5.87423">
        <ele>754.291748</ele>
        <time>2013-04-05T10:45:28Z</time>
      </trkpt>
      <trkpt lat="44.31859" lon="5.87434">
        <ele>755.7336426</ele>
        <time>2013-04-05T10:45:34Z</time>
      </trkpt>
      <trkpt lat="44.31867" lon="5.87453">
        <ele>756.2141113</ele>
        <time>2013-04-05T10:45:41Z</time>
      </trkpt>
      <trkpt lat="44.31892" lon="5.87438">
        <ele>758.1369629</ele>
        <time>2013-04-05T10:45:55Z</time>
      </trkpt>
      <trkpt lat="44.31928" lon="5.87427">
        <ele>760.0593262</ele>
        <time>2013-04-05T10:46:16Z</time>
      </trkpt>
      <trkpt lat="44.31928" lon="5.87427">
        <ele>760.0593262</ele>
        <time>2013-04-05T10:46:17Z</time>
      </trkpt>
      <trkpt lat="44.31928" lon="5.87427">
        <ele>761.020752</ele>
        <time>2013-04-05T10:46:31Z</time>
      </trkpt>
      <trkpt lat="44.31928" lon="5.87427">
        <ele>760.0593262</ele>
        <time>2013-04-05T10:47:13Z</time>
      </trkpt>
      <trkpt lat="44.31928" lon="5.87427">
        <ele>760.0593262</ele>
        <time>2013-04-05T10:47:54Z</time>
      </trkpt>
      <trkpt lat="44.31928" lon="5.87427">
        <ele>759.5788574</ele>
        <time>2013-04-05T10:48:36Z</time>
      </trkpt>
      <trkpt lat="44.31928" lon="5.87427">
        <ele>759.0981445</ele>
        <time>2013-04-05T10:49:10Z</time>
      </trkpt>
      <trkpt lat="44.31928" lon="5.87427">
        <ele>759.0981445</ele>
        <time>2013-04-05T10:49:57Z</time>
      </trkpt>
      <trkpt lat="44.31928" lon="5.87427">
        <ele>760.5400391</ele>
        <time>2013-04-05T10:50:11Z</time>
      </trkpt>
      <trkpt lat="44.31928" lon="5.87427">
        <ele>760.0593262</ele>
        <time>2013-04-05T10:50:37Z</time>
      </trkpt>
      <trkpt lat="44.31928" lon="5.87427">
        <ele>759.0981445</ele>
        <time>2013-04-05T10:50:45Z</time>
      </trkpt>
      <trkpt lat="44.31928" lon="5.87427">
        <ele>758.6174316</ele>
        <time>2013-04-05T10:51:30Z</time>
      </trkpt>
      <trkpt lat="44.31928" lon="5.87427">
        <ele>759.0981445</ele>
        <time>2013-04-05T10:52:00Z</time>
      </trkpt>
      <trkpt lat="44.31928" lon="5.87427">
        <ele>761.020752</ele>
        <time>2013-04-05T11:01:41Z</time>
      </trkpt>
      <trkpt lat="44.31908" lon="5.8743">
        <ele>760.0593262</ele>
        <time>2013-04-05T11:01:52Z</time>
      </trkpt>
      <trkpt lat="44.31882" lon="5.87447">
        <ele>758.1369629</ele>
        <time>2013-04-05T11:02:05Z</time>
      </trkpt>
      <trkpt lat="44.31858" lon="5.87436">
        <ele>756.6948242</ele>
        <time>2013-04-05T11:02:16Z</time>
      </trkpt>
      <trkpt lat="44.31859" lon="5.87434">
        <ele>756.2141113</ele>
        <time>2013-04-05T11:02:17Z</time>
      </trkpt>
      <trkpt lat="44.31867" lon="5.87424">
        <ele>754.7722168</ele>
        <time>2013-04-05T11:02:21Z</time>
      </trkpt>
      <trkpt lat="44.31874" lon="5.87419">
        <ele>754.7722168</ele>
        <time>2013-04-05T11:02:23Z</time>
      </trkpt>
      <trkpt lat="44.31896" lon="5.87405">
        <ele>751.4077148</ele>
        <time>2013-04-05T11:02:29Z</time>
      </trkpt>
      <trkpt lat="44.31901" lon="5.87401">
        <ele>750.927002</ele>
        <time>2013-04-05T11:02:31Z</time>
      </trkpt>
      <trkpt lat="44.319" lon="5.87392">
        <ele>749.0043945</ele>
        <time>2013-04-05T11:02:36Z</time>
      </trkpt>
      <trkpt lat="44.31896" lon="5.87393">
        <ele>749.4851074</ele>
        <time>2013-04-05T11:02:47Z</time>
      </trkpt>
      <trkpt lat="44.31876" lon="5.87394">
        <ele>746.1203613</ele>
        <time>2013-04-05T11:02:54Z</time>
      </trkpt>
      <trkpt lat="44.31872" lon="5.87394">
        <ele>746.1203613</ele>
        <time>2013-04-05T11:02:55Z</time>
      </trkpt>
      <trkpt lat="44.31857" lon="5.87396">
        <ele>744.6782227</ele>
        <time>2013-04-05T11:02:58Z</time>
      </trkpt>
      <trkpt lat="44.31838" lon="5.87395">
        <ele>742.7558594</ele>
        <time>2013-04-05T11:03:02Z</time>
      </trkpt>
      <trkpt lat="44.31823" lon="5.8739">
        <ele>740.3525391</ele>
        <time>2013-04-05T11:03:06Z</time>
      </trkpt>
      <trkpt lat="44.31813" lon="5.87388">
        <ele>738.4299316</ele>
        <time>2013-04-05T11:03:09Z</time>
      </trkpt>
      <trkpt lat="44.31786" lon="5.87378">
        <ele>736.0266113</ele>
        <time>2013-04-05T11:03:21Z</time>
      </trkpt>
      <trkpt lat="44.3178" lon="5.87378">
        <ele>736.5073242</ele>
        <time>2013-04-05T11:03:24Z</time>
      </trkpt>
      <trkpt lat="44.31779" lon="5.87378">
        <ele>736.0266113</ele>
        <time>2013-04-05T11:03:31Z</time>
      </trkpt>
      <trkpt lat="44.31775" lon="5.87378">
        <ele>736.0266113</ele>
        <time>2013-04-05T11:03:35Z</time>
      </trkpt>
      <trkpt lat="44.31763" lon="5.87373">
        <ele>735.0654297</ele>
        <time>2013-04-05T11:03:41Z</time>
      </trkpt>
      <trkpt lat="44.31756" lon="5.8738">
        <ele>733.1425781</ele>
        <time>2013-04-05T11:03:46Z</time>
      </trkpt>
      <trkpt lat="44.31746" lon="5.87419">
        <ele>730.2585449</ele>
        <time>2013-04-05T11:03:54Z</time>
      </trkpt>
      <trkpt lat="44.31743" lon="5.8743">
        <ele>730.2585449</ele>
        <time>2013-04-05T11:03:56Z</time>
      </trkpt>
      <trkpt lat="44.31736" lon="5.87453">
        <ele>731.2199707</ele>
        <time>2013-04-05T11:04:01Z</time>
      </trkpt>
      <trkpt lat="44.31735" lon="5.8747">
        <ele>733.1425781</ele>
        <time>2013-04-05T11:04:09Z</time>
      </trkpt>
      <trkpt lat="44.31735" lon="5.8747">
        <ele>732.6621094</ele>
        <time>2013-04-05T11:04:16Z</time>
      </trkpt>
      <trkpt lat="44.31735" lon="5.87461">
        <ele>732.6621094</ele>
        <time>2013-04-05T11:04:21Z</time>
      </trkpt>
      <trkpt lat="44.31745" lon="5.87422">
        <ele>731.2199707</ele>
        <time>2013-04-05T11:04:30Z</time>
      </trkpt>
      <trkpt lat="44.31756" lon="5.87376">
        <ele>732.6621094</ele>
        <time>2013-04-05T11:04:44Z</time>
      </trkpt>
      <trkpt lat="44.3176" lon="5.87354">
        <ele>731.7004395</ele>
        <time>2013-04-05T11:04:51Z</time>
      </trkpt>
      <trkpt lat="44.31748" lon="5.87343">
        <ele>729.777832</ele>
        <time>2013-04-05T11:04:57Z</time>
      </trkpt>
      <trkpt lat="44.31747" lon="5.87346">
        <ele>729.2971191</ele>
        <time>2013-04-05T11:04:58Z</time>
      </trkpt>
      <trkpt lat="44.31744" lon="5.87354">
        <ele>728.8166504</ele>
        <time>2013-04-05T11:05:02Z</time>
      </trkpt>
      <trkpt lat="44.31744" lon="5.87355">
        <ele>728.8166504</ele>
        <time>2013-04-05T11:05:08Z</time>
      </trkpt>
      <trkpt lat="44.31753" lon="5.87338">
        <ele>729.2971191</ele>
        <time>2013-04-05T11:05:13Z</time>
      </trkpt>
      <trkpt lat="44.3176" lon="5.87352">
        <ele>732.1813965</ele>
        <time>2013-04-05T11:05:20Z</time>
      </trkpt>
      <trkpt lat="44.31759" lon="5.87359">
        <ele>732.6621094</ele>
        <time>2013-04-05T11:05:23Z</time>
      </trkpt>
      <trkpt lat="44.31758" lon="5.87363">
        <ele>733.623291</ele>
        <time>2013-04-05T11:05:25Z</time>
      </trkpt>
      <trkpt lat="44.31764" lon="5.87373">
        <ele>734.5847168</ele>
        <time>2013-04-05T11:05:32Z</time>
      </trkpt>
      <trkpt lat="44.31767" lon="5.87372">
        <ele>735.0654297</ele>
        <time>2013-04-05T11:05:34Z</time>
      </trkpt>
      <trkpt lat="44.31774" lon="5.87373">
        <ele>736.0266113</ele>
        <time>2013-04-05T11:05:38Z</time>
      </trkpt>
      <trkpt lat="44.31775" lon="5.87388">
        <ele>736.0266113</ele>
        <time>2013-04-05T11:05:44Z</time>
      </trkpt>
      <trkpt lat="44.31771" lon="5.87462">
        <ele>734.5847168</ele>
        <time>2013-04-05T11:06:05Z</time>
      </trkpt>
      <trkpt lat="44.31771" lon="5.87467">
        <ele>734.1040039</ele>
        <time>2013-04-05T11:06:07Z</time>
      </trkpt>
      <trkpt lat="44.31768" lon="5.8747">
        <ele>733.623291</ele>
        <time>2013-04-05T11:06:11Z</time>
      </trkpt>
      <trkpt lat="44.31741" lon="5.87481">
        <ele>732.1813965</ele>
        <time>2013-04-05T11:06:22Z</time>
      </trkpt>
      <trkpt lat="44.31733" lon="5.87488">
        <ele>731.2199707</ele>
        <time>2013-04-05T11:06:24Z</time>
      </trkpt>
      <trkpt lat="44.31723" lon="5.87498">
        <ele>728.8166504</ele>
        <time>2013-04-05T11:06:27Z</time>
      </trkpt>
      <trkpt lat="44.31714" lon="5.875">
        <ele>727.3747559</ele>
        <time>2013-04-05T11:06:29Z</time>
      </trkpt>
      <trkpt lat="44.31706" lon="5.875">
        <ele>726.4133301</ele>
        <time>2013-04-05T11:06:31Z</time>
      </trkpt>
      <trkpt lat="44.31696" lon="5.875">
        <ele>724.4907227</ele>
        <time>2013-04-05T11:06:34Z</time>
      </trkpt>
      <trkpt lat="44.31682" lon="5.87492">
        <ele>722.0874023</ele>
        <time>2013-04-05T11:06:38Z</time>
      </trkpt>
      <trkpt lat="44.31678" lon="5.87488">
        <ele>721.1262207</ele>
        <time>2013-04-05T11:06:40Z</time>
      </trkpt>
      <trkpt lat="44.31683" lon="5.8743">
        <ele>717.2810059</ele>
        <time>2013-04-05T11:06:47Z</time>
      </trkpt>
      <trkpt lat="44.31685" lon="5.87422">
        <ele>717.2810059</ele>
        <time>2013-04-05T11:06:48Z</time>
      </trkpt>
      <trkpt lat="44.31684" lon="5.87368">
        <ele>713.4355469</ele>
        <time>2013-04-05T11:06:55Z</time>
      </trkpt>
      <trkpt lat="44.31675" lon="5.87357">
        <ele>711.9936523</ele>
        <time>2013-04-05T11:06:57Z</time>
      </trkpt>
      <trkpt lat="44.3167" lon="5.87353">
        <ele>711.5129395</ele>
        <time>2013-04-05T11:06:58Z</time>
      </trkpt>
      <trkpt lat="44.31655" lon="5.87341">
        <ele>710.0708008</ele>
        <time>2013-04-05T11:07:01Z</time>
      </trkpt>
      <trkpt lat="44.3164" lon="5.87329">
        <ele>706.7062988</ele>
        <time>2013-04-05T11:07:04Z</time>
      </trkpt>
      <trkpt lat="44.31636" lon="5.87312">
        <ele>705.2644043</ele>
        <time>2013-04-05T11:07:06Z</time>
      </trkpt>
      <trkpt lat="44.31636" lon="5.87294">
        <ele>703.8225098</ele>
        <time>2013-04-05T11:07:08Z</time>
      </trkpt>
      <trkpt lat="44.31638" lon="5.87274">
        <ele>699.4963379</ele>
        <time>2013-04-05T11:07:10Z</time>
      </trkpt>
      <trkpt lat="44.31647" lon="5.8722">
        <ele>697.0930176</ele>
        <time>2013-04-05T11:07:15Z</time>
      </trkpt>
      <trkpt lat="44.3165" lon="5.87199">
        <ele>693.2478027</ele>
        <time>2013-04-05T11:07:17Z</time>
      </trkpt>
      <trkpt lat="44.31653" lon="5.87162">
        <ele>690.8444824</ele>
        <time>2013-04-05T11:07:21Z</time>
      </trkpt>
      <trkpt lat="44.31655" lon="5.87134">
        <ele>687.4799805</ele>
        <time>2013-04-05T11:07:24Z</time>
      </trkpt>
      <trkpt lat="44.31657" lon="5.87123">
        <ele>687.4799805</ele>
        <time>2013-04-05T11:07:25Z</time>
      </trkpt>
      <trkpt lat="44.31659" lon="5.87113">
        <ele>686.0380859</ele>
        <time>2013-04-05T11:07:26Z</time>
      </trkpt>
      <trkpt lat="44.31654" lon="5.87084">
        <ele>683.6345215</ele>
        <time>2013-04-05T11:07:29Z</time>
      </trkpt>
      <trkpt lat="44.31646" lon="5.87063">
        <ele>680.2700195</ele>
        <time>2013-04-05T11:07:31Z</time>
      </trkpt>
      <trkpt lat="44.31641" lon="5.87055">
        <ele>680.2700195</ele>
        <time>2013-04-05T11:07:32Z</time>
      </trkpt>
      <trkpt lat="44.3163" lon="5.87043">
        <ele>678.828125</ele>
        <time>2013-04-05T11:07:34Z</time>
      </trkpt>
      <trkpt lat="44.31623" lon="5.87038">
        <ele>677.8666992</ele>
        <time>2013-04-05T11:07:35Z</time>
      </trkpt>
      <trkpt lat="44.31593" lon="5.87015">
        <ele>674.9829102</ele>
        <time>2013-04-05T11:07:39Z</time>
      </trkpt>
      <trkpt lat="44.31576" lon="5.87002">
        <ele>673.0603027</ele>
        <time>2013-04-05T11:07:41Z</time>
      </trkpt>
      <trkpt lat="44.31558" lon="5.8699">
        <ele>671.6181641</ele>
        <time>2013-04-05T11:07:43Z</time>
      </trkpt>
      <trkpt lat="44.31523" lon="5.86966">
        <ele>667.2922363</ele>
        <time>2013-04-05T11:07:47Z</time>
      </trkpt>
      <trkpt lat="44.31514" lon="5.86961">
        <ele>667.2922363</ele>
        <time>2013-04-05T11:07:48Z</time>
      </trkpt>
      <trkpt lat="44.31499" lon="5.8695">
        <ele>666.3308105</ele>
        <time>2013-04-05T11:07:50Z</time>
      </trkpt>
      <trkpt lat="44.31475" lon="5.86934">
        <ele>662.9663086</ele>
        <time>2013-04-05T11:07:53Z</time>
      </trkpt>
      <trkpt lat="44.3146" lon="5.86923">
        <ele>662.4855957</ele>
        <time>2013-04-05T11:07:55Z</time>
      </trkpt>
      <trkpt lat="44.31448" lon="5.86912">
        <ele>661.0437012</ele>
        <time>2013-04-05T11:07:57Z</time>
      </trkpt>
      <trkpt lat="44.31444" lon="5.86906">
        <ele>660.5629883</ele>
        <time>2013-04-05T11:07:58Z</time>
      </trkpt>
      <trkpt lat="44.31413" lon="5.86849">
        <ele>657.6791992</ele>
        <time>2013-04-05T11:08:07Z</time>
      </trkpt>
      <trkpt lat="44.31381" lon="5.86779">
        <ele>652.3918457</ele>
        <time>2013-04-05T11:08:15Z</time>
      </trkpt>
      <trkpt lat="44.31377" lon="5.8677">
        <ele>652.3918457</ele>
        <time>2013-04-05T11:08:16Z</time>
      </trkpt>
      <trkpt lat="44.31372" lon="5.86762">
        <ele>650.949707</ele>
        <time>2013-04-05T11:08:17Z</time>
      </trkpt>
      <trkpt lat="44.31346" lon="5.86726">
        <ele>648.065918</ele>
        <time>2013-04-05T11:08:22Z</time>
      </trkpt>
      <trkpt lat="44.31339" lon="5.86719">
        <ele>648.065918</ele>
        <time>2013-04-05T11:08:23Z</time>
      </trkpt>
      <trkpt lat="44.31328" lon="5.86703">
        <ele>646.1433105</ele>
        <time>2013-04-05T11:08:25Z</time>
      </trkpt>
      <trkpt lat="44.31313" lon="5.86693">
        <ele>644.7011719</ele>
        <time>2013-04-05T11:08:27Z</time>
      </trkpt>
      <trkpt lat="44.31297" lon="5.86685">
        <ele>643.2592773</ele>
        <time>2013-04-05T11:08:29Z</time>
      </trkpt>
      <trkpt lat="44.31272" lon="5.86672">
        <ele>640.3754883</ele>
        <time>2013-04-05T11:08:32Z</time>
      </trkpt>
      <trkpt lat="44.31255" lon="5.86663">
        <ele>638.9335938</ele>
        <time>2013-04-05T11:08:34Z</time>
      </trkpt>
      <trkpt lat="44.31213" lon="5.86642">
        <ele>636.0495605</ele>
        <time>2013-04-05T11:08:39Z</time>
      </trkpt>
      <trkpt lat="44.31205" lon="5.86638">
        <ele>634.6074219</ele>
        <time>2013-04-05T11:08:40Z</time>
      </trkpt>
      <trkpt lat="44.31165" lon="5.86592">
        <ele>632.2041016</ele>
        <time>2013-04-05T11:08:46Z</time>
      </trkpt>
      <trkpt lat="44.3116" lon="5.86582">
        <ele>631.2429199</ele>
        <time>2013-04-05T11:08:47Z</time>
      </trkpt>
      <trkpt lat="44.31135" lon="5.86527">
        <ele>627.8781738</ele>
        <time>2013-04-05T11:08:52Z</time>
      </trkpt>
      <trkpt lat="44.3113" lon="5.86516">
        <ele>627.8781738</ele>
        <time>2013-04-05T11:08:53Z</time>
      </trkpt>
      <trkpt lat="44.31112" lon="5.86483">
        <ele>625.9555664</ele>
        <time>2013-04-05T11:08:56Z</time>
      </trkpt>
      <trkpt lat="44.31063" lon="5.8645">
        <ele>624.032959</ele>
        <time>2013-04-05T11:09:02Z</time>
      </trkpt>
      <trkpt lat="44.30998" lon="5.86441">
        <ele>621.6296387</ele>
        <time>2013-04-05T11:09:09Z</time>
      </trkpt>
      <trkpt lat="44.30978" lon="5.86438">
        <ele>619.7070313</ele>
        <time>2013-04-05T11:09:11Z</time>
      </trkpt>
      <trkpt lat="44.30937" lon="5.8643">
        <ele>615.8618164</ele>
        <time>2013-04-05T11:09:15Z</time>
      </trkpt>
      <trkpt lat="44.30927" lon="5.86428">
        <ele>615.8618164</ele>
        <time>2013-04-05T11:09:16Z</time>
      </trkpt>
      <trkpt lat="44.30884" lon="5.86417">
        <ele>613.4584961</ele>
        <time>2013-04-05T11:09:21Z</time>
      </trkpt>
      <trkpt lat="44.30857" lon="5.86395">
        <ele>611.5358887</ele>
        <time>2013-04-05T11:09:25Z</time>
      </trkpt>
      <trkpt lat="44.30782" lon="5.8628">
        <ele>608.6518555</ele>
        <time>2013-04-05T11:09:41Z</time>
      </trkpt>
      <trkpt lat="44.30766" lon="5.86257">
        <ele>607.2099609</ele>
        <time>2013-04-05T11:09:44Z</time>
      </trkpt>
      <trkpt lat="44.30729" lon="5.86199">
        <ele>603.8452148</ele>
        <time>2013-04-05T11:09:51Z</time>
      </trkpt>
      <trkpt lat="44.30719" lon="5.86183">
        <ele>603.364502</ele>
        <time>2013-04-05T11:09:53Z</time>
      </trkpt>
      <trkpt lat="44.30705" lon="5.86163">
        <ele>601.9226074</ele>
        <time>2013-04-05T11:09:56Z</time>
      </trkpt>
      <trkpt lat="44.30686" lon="5.86142">
        <ele>601.4418945</ele>
        <time>2013-04-05T11:10:04Z</time>
      </trkpt>
      <trkpt lat="44.30676" lon="5.86156">
        <ele>602.4030762</ele>
        <time>2013-04-05T11:10:08Z</time>
      </trkpt>
      <trkpt lat="44.30674" lon="5.86219">
        <ele>603.8452148</ele>
        <time>2013-04-05T11:10:22Z</time>
      </trkpt>
      <trkpt lat="44.30689" lon="5.863">
        <ele>605.7680664</ele>
        <time>2013-04-05T11:10:40Z</time>
      </trkpt>
      <trkpt lat="44.30724" lon="5.86377">
        <ele>607.6906738</ele>
        <time>2013-04-05T11:11:00Z</time>
      </trkpt>
      <trkpt lat="44.30757" lon="5.86446">
        <ele>611.0551758</ele>
        <time>2013-04-05T11:11:20Z</time>
      </trkpt>
      <trkpt lat="44.30786" lon="5.86518">
        <ele>614.4196777</ele>
        <time>2013-04-05T11:11:39Z</time>
      </trkpt>
      <trkpt lat="44.30799" lon="5.86578">
        <ele>617.3037109</ele>
        <time>2013-04-05T11:11:55Z</time>
      </trkpt>
      <trkpt lat="44.30809" lon="5.86644">
        <ele>620.1877441</ele>
        <time>2013-04-05T11:12:13Z</time>
      </trkpt>
      <trkpt lat="44.30814" lon="5.86692">
        <ele>623.0717773</ele>
        <time>2013-04-05T11:12:27Z</time>
      </trkpt>
      <trkpt lat="44.30825" lon="5.86768">
        <ele>626.9169922</ele>
        <time>2013-04-05T11:12:48Z</time>
      </trkpt>
      <trkpt lat="44.30829" lon="5.86846">
        <ele>629.8007813</ele>
        <time>2013-04-05T11:13:09Z</time>
      </trkpt>
      <trkpt lat="44.30824" lon="5.86911">
        <ele>633.1652832</ele>
        <time>2013-04-05T11:13:26Z</time>
      </trkpt>
      <trkpt lat="44.30808" lon="5.86981">
        <ele>635.0881348</ele>
        <time>2013-04-05T11:13:43Z</time>
      </trkpt>
      <trkpt lat="44.30779" lon="5.87052">
        <ele>637.4914551</ele>
        <time>2013-04-05T11:14:02Z</time>
      </trkpt>
      <trkpt lat="44.30736" lon="5.87123">
        <ele>639.4140625</ele>
        <time>2013-04-05T11:14:22Z</time>
      </trkpt>
      <trkpt lat="44.307" lon="5.87179">
        <ele>641.8173828</ele>
        <time>2013-04-05T11:14:40Z</time>
      </trkpt>
      <trkpt lat="44.30654" lon="5.87251">
        <ele>644.7011719</ele>
        <time>2013-04-05T11:15:03Z</time>
      </trkpt>
      <trkpt lat="44.30615" lon="5.87314">
        <ele>647.5852051</ele>
        <time>2013-04-05T11:15:23Z</time>
      </trkpt>
      <trkpt lat="44.30584" lon="5.8737">
        <ele>649.5078125</ele>
        <time>2013-04-05T11:15:40Z</time>
      </trkpt>
      <trkpt lat="44.30563" lon="5.8744">
        <ele>651.4304199</ele>
        <time>2013-04-05T11:15:58Z</time>
      </trkpt>
      <trkpt lat="44.30553" lon="5.87531">
        <ele>651.4304199</ele>
        <time>2013-04-05T11:16:15Z</time>
      </trkpt>
      <trkpt lat="44.30508" lon="5.87644">
        <ele>649.5078125</ele>
        <time>2013-04-05T11:16:31Z</time>
      </trkpt>
      <trkpt lat="44.30486" lon="5.87671">
        <ele>647.5852051</ele>
        <time>2013-04-05T11:16:35Z</time>
      </trkpt>
      <trkpt lat="44.30448" lon="5.87722">
        <ele>644.2207031</ele>
        <time>2013-04-05T11:16:41Z</time>
      </trkpt>
      <trkpt lat="44.30441" lon="5.87731">
        <ele>644.2207031</ele>
        <time>2013-04-05T11:16:42Z</time>
      </trkpt>
      <trkpt lat="44.30427" lon="5.8775">
        <ele>642.7788086</ele>
        <time>2013-04-05T11:16:44Z</time>
      </trkpt>
      <trkpt lat="44.30415" lon="5.87773">
        <ele>640.855957</ele>
        <time>2013-04-05T11:16:46Z</time>
      </trkpt>
      <trkpt lat="44.30398" lon="5.87812">
        <ele>638.4528809</ele>
        <time>2013-04-05T11:16:49Z</time>
      </trkpt>
      <trkpt lat="44.30389" lon="5.87841">
        <ele>637.0107422</ele>
        <time>2013-04-05T11:16:51Z</time>
      </trkpt>
      <trkpt lat="44.30382" lon="5.87873">
        <ele>635.0881348</ele>
        <time>2013-04-05T11:16:53Z</time>
      </trkpt>
      <trkpt lat="44.30376" lon="5.87907">
        <ele>633.6459961</ele>
        <time>2013-04-05T11:16:55Z</time>
      </trkpt>
      <trkpt lat="44.30376" lon="5.87944">
        <ele>628.8395996</ele>
        <time>2013-04-05T11:16:57Z</time>
      </trkpt>
      <trkpt lat="44.30376" lon="5.87962">
        <ele>628.8395996</ele>
        <time>2013-04-05T11:16:58Z</time>
      </trkpt>
      <trkpt lat="44.30381" lon="5.88">
        <ele>627.3977051</ele>
        <time>2013-04-05T11:17:00Z</time>
      </trkpt>
      <trkpt lat="44.30384" lon="5.88038">
        <ele>625.4748535</ele>
        <time>2013-04-05T11:17:02Z</time>
      </trkpt>
      <trkpt lat="44.30385" lon="5.88075">
        <ele>621.6296387</ele>
        <time>2013-04-05T11:17:04Z</time>
      </trkpt>
      <trkpt lat="44.30385" lon="5.88094">
        <ele>621.6296387</ele>
        <time>2013-04-05T11:17:05Z</time>
      </trkpt>
      <trkpt lat="44.30381" lon="5.88152">
        <ele>618.7456055</ele>
        <time>2013-04-05T11:17:08Z</time>
      </trkpt>
      <trkpt lat="44.30379" lon="5.88172">
        <ele>618.7456055</ele>
        <time>2013-04-05T11:17:09Z</time>
      </trkpt>
      <trkpt lat="44.30373" lon="5.8821">
        <ele>615.3811035</ele>
        <time>2013-04-05T11:17:11Z</time>
      </trkpt>
      <trkpt lat="44.30371" lon="5.88229">
        <ele>615.3811035</ele>
        <time>2013-04-05T11:17:12Z</time>
      </trkpt>
      <trkpt lat="44.30368" lon="5.88264">
        <ele>612.9777832</ele>
        <time>2013-04-05T11:17:14Z</time>
      </trkpt>
      <trkpt lat="44.30368" lon="5.88296">
        <ele>612.0166016</ele>
        <time>2013-04-05T11:17:16Z</time>
      </trkpt>
      <trkpt lat="44.30371" lon="5.88327">
        <ele>607.6906738</ele>
        <time>2013-04-05T11:17:18Z</time>
      </trkpt>
      <trkpt lat="44.30374" lon="5.88342">
        <ele>607.6906738</ele>
        <time>2013-04-05T11:17:19Z</time>
      </trkpt>
      <trkpt lat="44.3038" lon="5.88373">
        <ele>605.7680664</ele>
        <time>2013-04-05T11:17:21Z</time>
      </trkpt>
      <trkpt lat="44.30388" lon="5.88404">
        <ele>604.3261719</ele>
        <time>2013-04-05T11:17:23Z</time>
      </trkpt>
      <trkpt lat="44.30403" lon="5.88449">
        <ele>601.9226074</ele>
        <time>2013-04-05T11:17:26Z</time>
      </trkpt>
      <trkpt lat="44.30433" lon="5.88552">
        <ele>600</ele>
        <time>2013-04-05T11:17:35Z</time>
      </trkpt>
      <trkpt lat="44.30435" lon="5.88558">
        <ele>599.5192871</ele>
        <time>2013-04-05T11:17:44Z</time>
      </trkpt>
      <trkpt lat="44.3044" lon="5.88588">
        <ele>599.0385742</ele>
        <time>2013-04-05T11:17:58Z</time>
      </trkpt>
      <trkpt lat="44.30441" lon="5.88594">
        <ele>599.0385742</ele>
        <time>2013-04-05T11:17:59Z</time>
      </trkpt>
      <trkpt lat="44.30447" lon="5.88694">
        <ele>598.5578613</ele>
        <time>2013-04-05T11:18:13Z</time>
      </trkpt>
      <trkpt lat="44.30464" lon="5.88813">
        <ele>595.6740723</ele>
        <time>2013-04-05T11:18:26Z</time>
      </trkpt>
      <trkpt lat="44.30456" lon="5.88924">
        <ele>592.7902832</ele>
        <time>2013-04-05T11:18:36Z</time>
      </trkpt>
      <trkpt lat="44.3046" lon="5.88976">
        <ele>590.3869629</ele>
        <time>2013-04-05T11:18:40Z</time>
      </trkpt>
      <trkpt lat="44.30466" lon="5.89032">
        <ele>588.4643555</ele>
        <time>2013-04-05T11:18:44Z</time>
      </trkpt>
      <trkpt lat="44.30471" lon="5.89076">
        <ele>586.060791</ele>
        <time>2013-04-05T11:18:47Z</time>
      </trkpt>
      <trkpt lat="44.30491" lon="5.89256">
        <ele>583.6574707</ele>
        <time>2013-04-05T11:19:01Z</time>
      </trkpt>
      <trkpt lat="44.30498" lon="5.89318">
        <ele>584.1381836</ele>
        <time>2013-04-05T11:19:12Z</time>
      </trkpt>
      <trkpt lat="44.30503" lon="5.89323">
        <ele>583.6574707</ele>
        <time>2013-04-05T11:19:14Z</time>
      </trkpt>
      <trkpt lat="44.30553" lon="5.89308">
        <ele>582.6962891</ele>
        <time>2013-04-05T11:19:26Z</time>
      </trkpt>
      <trkpt lat="44.30658" lon="5.89276">
        <ele>583.1767578</ele>
        <time>2013-04-05T11:19:48Z</time>
      </trkpt>
      <trkpt lat="44.30782" lon="5.89239">
        <ele>583.1767578</ele>
        <time>2013-04-05T11:20:15Z</time>
      </trkpt>
      <trkpt lat="44.3083" lon="5.89225">
        <ele>586.060791</ele>
        <time>2013-04-05T11:20:28Z</time>
      </trkpt>
      <trkpt lat="44.30834" lon="5.89224">
        <ele>586.060791</ele>
        <time>2013-04-05T11:20:29Z</time>
      </trkpt>
      <trkpt lat="44.30905" lon="5.89202">
        <ele>589.90625</ele>
        <time>2013-04-05T11:20:50Z</time>
      </trkpt>
      <trkpt lat="44.30912" lon="5.892">
        <ele>590.8674316</ele>
        <time>2013-04-05T11:20:52Z</time>
      </trkpt>
      <trkpt lat="44.30985" lon="5.89179">
        <ele>592.7902832</ele>
        <time>2013-04-05T11:21:16Z</time>
      </trkpt>
      <trkpt lat="44.31058" lon="5.89164">
        <ele>593.270752</ele>
        <time>2013-04-05T11:21:37Z</time>
      </trkpt>
      <trkpt lat="44.31152" lon="5.89151">
        <ele>593.7514648</ele>
        <time>2013-04-05T11:22:01Z</time>
      </trkpt>
      <trkpt lat="44.31244" lon="5.89136">
        <ele>595.1933594</ele>
        <time>2013-04-05T11:22:24Z</time>
      </trkpt>
      <trkpt lat="44.31316" lon="5.89123">
        <ele>595.6740723</ele>
        <time>2013-04-05T11:22:43Z</time>
      </trkpt>
      <trkpt lat="44.3141" lon="5.89108">
        <ele>594.2321777</ele>
        <time>2013-04-05T11:23:02Z</time>
      </trkpt>
      <trkpt lat="44.31512" lon="5.89095">
        <ele>594.7126465</ele>
        <time>2013-04-05T11:23:23Z</time>
      </trkpt>
      <trkpt lat="44.31576" lon="5.89097">
        <ele>591.3481445</ele>
        <time>2013-04-05T11:23:34Z</time>
      </trkpt>
      <trkpt lat="44.31688" lon="5.89093">
        <ele>589.4255371</ele>
        <time>2013-04-05T11:23:50Z</time>
      </trkpt>
      <trkpt lat="44.31787" lon="5.89051">
        <ele>586.5415039</ele>
        <time>2013-04-05T11:24:05Z</time>
      </trkpt>
      <trkpt lat="44.31861" lon="5.89">
        <ele>583.1767578</ele>
        <time>2013-04-05T11:24:17Z</time>
      </trkpt>
      <trkpt lat="44.31953" lon="5.89">
        <ele>580.7736816</ele>
        <time>2013-04-05T11:24:30Z</time>
      </trkpt>
      <trkpt lat="44.31994" lon="5.89034">
        <ele>580.2929688</ele>
        <time>2013-04-05T11:24:37Z</time>
      </trkpt>
      <trkpt lat="44.32087" lon="5.89064">
        <ele>577.4091797</ele>
        <time>2013-04-05T11:24:51Z</time>
      </trkpt>
      <trkpt lat="44.32115" lon="5.89069">
        <ele>575.967041</ele>
        <time>2013-04-05T11:24:55Z</time>
      </trkpt>
      <trkpt lat="44.3223" lon="5.89104">
        <ele>575.967041</ele>
        <time>2013-04-05T11:25:13Z</time>
      </trkpt>
      <trkpt lat="44.32378" lon="5.89151">
        <ele>576.9284668</ele>
        <time>2013-04-05T11:25:38Z</time>
      </trkpt>
      <trkpt lat="44.32516" lon="5.89194">
        <ele>576.4477539</ele>
        <time>2013-04-05T11:26:01Z</time>
      </trkpt>
      <trkpt lat="44.32609" lon="5.89239">
        <ele>577.4091797</ele>
        <time>2013-04-05T11:26:19Z</time>
      </trkpt>
      <trkpt lat="44.32695" lon="5.89302">
        <ele>577.4091797</ele>
        <time>2013-04-05T11:26:37Z</time>
      </trkpt>
      <trkpt lat="44.32833" lon="5.894">
        <ele>577.4091797</ele>
        <time>2013-04-05T11:27:03Z</time>
      </trkpt>
      <trkpt lat="44.32946" lon="5.89474">
        <ele>577.8896484</ele>
        <time>2013-04-05T11:27:24Z</time>
      </trkpt>
      <trkpt lat="44.33051" lon="5.89518">
        <ele>577.4091797</ele>
        <time>2013-04-05T11:27:43Z</time>
      </trkpt>
      <trkpt lat="44.33182" lon="5.89562">
        <ele>577.8896484</ele>
        <time>2013-04-05T11:28:07Z</time>
      </trkpt>
      <trkpt lat="44.3332" lon="5.89614">
        <ele>577.8896484</ele>
        <time>2013-04-05T11:28:32Z</time>
      </trkpt>
      <trkpt lat="44.33438" lon="5.89668">
        <ele>577.4091797</ele>
        <time>2013-04-05T11:28:54Z</time>
      </trkpt>
      <trkpt lat="44.33548" lon="5.89722">
        <ele>577.4091797</ele>
        <time>2013-04-05T11:29:14Z</time>
      </trkpt>
      <trkpt lat="44.33668" lon="5.89783">
        <ele>577.8896484</ele>
        <time>2013-04-05T11:29:35Z</time>
      </trkpt>
      <trkpt lat="44.33725" lon="5.89815">
        <ele>575.967041</ele>
        <time>2013-04-05T11:29:44Z</time>
      </trkpt>
      <trkpt lat="44.33801" lon="5.89876">
        <ele>577.8896484</ele>
        <time>2013-04-05T11:29:57Z</time>
      </trkpt>
      <trkpt lat="44.33857" lon="5.89918">
        <ele>581.7348633</ele>
        <time>2013-04-05T11:30:13Z</time>
      </trkpt>
      <trkpt lat="44.33906" lon="5.89965">
        <ele>582.6962891</ele>
        <time>2013-04-05T11:30:29Z</time>
      </trkpt>
      <trkpt lat="44.33972" lon="5.90039">
        <ele>581.7348633</ele>
        <time>2013-04-05T11:30:48Z</time>
      </trkpt>
      <trkpt lat="44.33987" lon="5.90055">
        <ele>581.7348633</ele>
        <time>2013-04-05T11:30:51Z</time>
      </trkpt>
      <trkpt lat="44.34051" lon="5.90115">
        <ele>584.6188965</ele>
        <time>2013-04-05T11:31:08Z</time>
      </trkpt>
      <trkpt lat="44.34086" lon="5.90147">
        <ele>587.5026855</ele>
        <time>2013-04-05T11:31:22Z</time>
      </trkpt>
      <trkpt lat="44.3414" lon="5.90201">
        <ele>588.9450684</ele>
        <time>2013-04-05T11:31:43Z</time>
      </trkpt>
      <trkpt lat="44.34146" lon="5.90207">
        <ele>588.9450684</ele>
        <time>2013-04-05T11:31:45Z</time>
      </trkpt>
      <trkpt lat="44.34195" lon="5.90269">
        <ele>584.6188965</ele>
        <time>2013-04-05T11:31:56Z</time>
      </trkpt>
      <trkpt lat="44.34201" lon="5.90277">
        <ele>584.6188965</ele>
        <time>2013-04-05T11:31:57Z</time>
      </trkpt>
      <trkpt lat="44.34241" lon="5.90326">
        <ele>580.7736816</ele>
        <time>2013-04-05T11:32:03Z</time>
      </trkpt>
      <trkpt lat="44.34247" lon="5.90334">
        <ele>580.7736816</ele>
        <time>2013-04-05T11:32:04Z</time>
      </trkpt>
      <trkpt lat="44.34261" lon="5.90352">
        <ele>578.8510742</ele>
        <time>2013-04-05T11:32:06Z</time>
      </trkpt>
      <trkpt lat="44.3432" lon="5.90416">
        <ele>575.4863281</ele>
        <time>2013-04-05T11:32:14Z</time>
      </trkpt>
      <trkpt lat="44.34376" lon="5.9045">
        <ele>578.8510742</ele>
        <time>2013-04-05T11:32:24Z</time>
      </trkpt>
      <trkpt lat="44.34391" lon="5.90457">
        <ele>580.7736816</ele>
        <time>2013-04-05T11:32:29Z</time>
      </trkpt>
      <trkpt lat="44.34403" lon="5.90466">
        <ele>581.2543945</ele>
        <time>2013-04-05T11:32:33Z</time>
      </trkpt>
      <trkpt lat="44.3441" lon="5.90485">
        <ele>579.8122559</ele>
        <time>2013-04-05T11:32:37Z</time>
      </trkpt>
      <trkpt lat="44.34486" lon="5.90558">
        <ele>577.8896484</ele>
        <time>2013-04-05T11:32:52Z</time>
      </trkpt>
      <trkpt lat="44.34565" lon="5.90624">
        <ele>577.8896484</ele>
        <time>2013-04-05T11:33:09Z</time>
      </trkpt>
      <trkpt lat="44.34651" lon="5.90693">
        <ele>575.967041</ele>
        <time>2013-04-05T11:33:27Z</time>
      </trkpt>
      <trkpt lat="44.34689" lon="5.90716">
        <ele>573.083252</ele>
        <time>2013-04-05T11:33:32Z</time>
      </trkpt>
      <trkpt lat="44.34724" lon="5.9074">
        <ele>570.6796875</ele>
        <time>2013-04-05T11:33:36Z</time>
      </trkpt>
      <trkpt lat="44.3485" lon="5.90842">
        <ele>567.7956543</ele>
        <time>2013-04-05T11:33:52Z</time>
      </trkpt>
      <trkpt lat="44.34945" lon="5.90915">
        <ele>565.873291</ele>
        <time>2013-04-05T11:34:07Z</time>
      </trkpt>
      <trkpt lat="44.34957" lon="5.90924">
        <ele>564.9118652</ele>
        <time>2013-04-05T11:34:09Z</time>
      </trkpt>
      <trkpt lat="44.35006" lon="5.90968">
        <ele>567.3151855</ele>
        <time>2013-04-05T11:34:21Z</time>
      </trkpt>
      <trkpt lat="44.35052" lon="5.91011">
        <ele>568.7570801</ele>
        <time>2013-04-05T11:34:37Z</time>
      </trkpt>
      <trkpt lat="44.35116" lon="5.91071">
        <ele>570.6796875</ele>
        <time>2013-04-05T11:34:59Z</time>
      </trkpt>
      <trkpt lat="44.35177" lon="5.91128">
        <ele>573.083252</ele>
        <time>2013-04-05T11:35:20Z</time>
      </trkpt>
      <trkpt lat="44.35256" lon="5.912">
        <ele>575.0058594</ele>
        <time>2013-04-05T11:35:47Z</time>
      </trkpt>
      <trkpt lat="44.35327" lon="5.91259">
        <ele>575.4863281</ele>
        <time>2013-04-05T11:36:09Z</time>
      </trkpt>
      <trkpt lat="44.35425" lon="5.91336">
        <ele>576.4477539</ele>
        <time>2013-04-05T11:36:37Z</time>
      </trkpt>
      <trkpt lat="44.35506" lon="5.91387">
        <ele>578.3703613</ele>
        <time>2013-04-05T11:36:59Z</time>
      </trkpt>
      <trkpt lat="44.35575" lon="5.91432">
        <ele>577.4091797</ele>
        <time>2013-04-05T11:37:16Z</time>
      </trkpt>
      <trkpt lat="44.35655" lon="5.91485">
        <ele>575.0058594</ele>
        <time>2013-04-05T11:37:32Z</time>
      </trkpt>
      <trkpt lat="44.35739" lon="5.91545">
        <ele>574.5251465</ele>
        <time>2013-04-05T11:37:49Z</time>
      </trkpt>
      <trkpt lat="44.35869" lon="5.91634">
        <ele>574.0444336</ele>
        <time>2013-04-05T11:38:16Z</time>
      </trkpt>
      <trkpt lat="44.35975" lon="5.91708">
        <ele>575.0058594</ele>
        <time>2013-04-05T11:38:38Z</time>
      </trkpt>
      <trkpt lat="44.36068" lon="5.91773">
        <ele>575.0058594</ele>
        <time>2013-04-05T11:38:57Z</time>
      </trkpt>
      <trkpt lat="44.36151" lon="5.9183">
        <ele>574.5251465</ele>
        <time>2013-04-05T11:39:15Z</time>
      </trkpt>
      <trkpt lat="44.36274" lon="5.91915">
        <ele>574.5251465</ele>
        <time>2013-04-05T11:39:41Z</time>
      </trkpt>
      <trkpt lat="44.36381" lon="5.91988">
        <ele>575.0058594</ele>
        <time>2013-04-05T11:40:02Z</time>
      </trkpt>
      <trkpt lat="44.36512" lon="5.92078">
        <ele>572.6025391</ele>
        <time>2013-04-05T11:40:27Z</time>
      </trkpt>
      <trkpt lat="44.36613" lon="5.92141">
        <ele>573.083252</ele>
        <time>2013-04-05T11:40:47Z</time>
      </trkpt>
      <trkpt lat="44.36718" lon="5.92174">
        <ele>573.083252</ele>
        <time>2013-04-05T11:41:08Z</time>
      </trkpt>
      <trkpt lat="44.36795" lon="5.92202">
        <ele>575.4863281</ele>
        <time>2013-04-05T11:41:26Z</time>
      </trkpt>
      <trkpt lat="44.36801" lon="5.92206">
        <ele>576.9284668</ele>
        <time>2013-04-05T11:41:29Z</time>
      </trkpt>
      <trkpt lat="44.36831" lon="5.92222">
        <ele>578.8510742</ele>
        <time>2013-04-05T11:41:48Z</time>
      </trkpt>
      <trkpt lat="44.36831" lon="5.92222">
        <ele>579.8122559</ele>
        <time>2013-04-05T11:43:17Z</time>
      </trkpt>
      <trkpt lat="44.36841" lon="5.92228">
        <ele>579.331543</ele>
        <time>2013-04-05T11:43:22Z</time>
      </trkpt>
      <trkpt lat="44.36864" lon="5.92241">
        <ele>577.8896484</ele>
        <time>2013-04-05T11:43:28Z</time>
      </trkpt>
      <trkpt lat="44.36907" lon="5.92267">
        <ele>574.5251465</ele>
        <time>2013-04-05T11:43:36Z</time>
      </trkpt>
      <trkpt lat="44.36996" lon="5.92337">
        <ele>573.083252</ele>
        <time>2013-04-05T11:43:51Z</time>
      </trkpt>
      <trkpt lat="44.37007" lon="5.92346">
        <ele>572.6025391</ele>
        <time>2013-04-05T11:43:53Z</time>
      </trkpt>
      <trkpt lat="44.37098" lon="5.92424">
        <ele>570.6796875</ele>
        <time>2013-04-05T11:44:09Z</time>
      </trkpt>
      <trkpt lat="44.37202" lon="5.92515">
        <ele>571.1604004</ele>
        <time>2013-04-05T11:44:29Z</time>
      </trkpt>
      <trkpt lat="44.37244" lon="5.92554">
        <ele>571.6408691</ele>
        <time>2013-04-05T11:44:39Z</time>
      </trkpt>
      <trkpt lat="44.37316" lon="5.92619">
        <ele>574.0444336</ele>
        <time>2013-04-05T11:45:00Z</time>
      </trkpt>
      <trkpt lat="44.37374" lon="5.92664">
        <ele>575.967041</ele>
        <time>2013-04-05T11:45:20Z</time>
      </trkpt>
      <trkpt lat="44.37388" lon="5.92674">
        <ele>575.4863281</ele>
        <time>2013-04-05T11:45:24Z</time>
      </trkpt>
      <trkpt lat="44.37473" lon="5.92733">
        <ele>575.4863281</ele>
        <time>2013-04-05T11:45:44Z</time>
      </trkpt>
      <trkpt lat="44.37549" lon="5.92785">
        <ele>574.5251465</ele>
        <time>2013-04-05T11:46:01Z</time>
      </trkpt>
      <trkpt lat="44.37622" lon="5.92832">
        <ele>574.5251465</ele>
        <time>2013-04-05T11:46:16Z</time>
      </trkpt>
      <trkpt lat="44.37636" lon="5.92843">
        <ele>574.0444336</ele>
        <time>2013-04-05T11:46:19Z</time>
      </trkpt>
      <trkpt lat="44.37686" lon="5.92878">
        <ele>574.0444336</ele>
        <time>2013-04-05T11:46:29Z</time>
      </trkpt>
      <trkpt lat="44.37797" lon="5.92952">
        <ele>573.5639648</ele>
        <time>2013-04-05T11:46:50Z</time>
      </trkpt>
      <trkpt lat="44.37907" lon="5.93027">
        <ele>574.0444336</ele>
        <time>2013-04-05T11:47:11Z</time>
      </trkpt>
      <trkpt lat="44.3799" lon="5.93087">
        <ele>574.5251465</ele>
        <time>2013-04-05T11:47:29Z</time>
      </trkpt>
      <trkpt lat="44.38076" lon="5.93151">
        <ele>575.4863281</ele>
        <time>2013-04-05T11:47:50Z</time>
      </trkpt>
      <trkpt lat="44.38168" lon="5.93216">
        <ele>576.4477539</ele>
        <time>2013-04-05T11:48:13Z</time>
      </trkpt>
      <trkpt lat="44.38188" lon="5.93231">
        <ele>575.967041</ele>
        <time>2013-04-05T11:48:18Z</time>
      </trkpt>
      <trkpt lat="44.38208" lon="5.93245">
        <ele>576.4477539</ele>
        <time>2013-04-05T11:48:23Z</time>
      </trkpt>
      <trkpt lat="44.38256" lon="5.93276">
        <ele>576.4477539</ele>
        <time>2013-04-05T11:48:33Z</time>
      </trkpt>
      <trkpt lat="44.38342" lon="5.93334">
        <ele>575.0058594</ele>
        <time>2013-04-05T11:48:51Z</time>
      </trkpt>
      <trkpt lat="44.38381" lon="5.9336">
        <ele>575.0058594</ele>
        <time>2013-04-05T11:48:59Z</time>
      </trkpt>
      <trkpt lat="44.38491" lon="5.93436">
        <ele>575.4863281</ele>
        <time>2013-04-05T11:49:22Z</time>
      </trkpt>
      <trkpt lat="44.38504" lon="5.93445">
        <ele>575.0058594</ele>
        <time>2013-04-05T11:49:25Z</time>
      </trkpt>
      <trkpt lat="44.38598" lon="5.93517">
        <ele>576.4477539</ele>
        <time>2013-04-05T11:49:48Z</time>
      </trkpt>
      <trkpt lat="44.38643" lon="5.9355">
        <ele>578.3703613</ele>
        <time>2013-04-05T11:50:04Z</time>
      </trkpt>
      <trkpt lat="44.3869" lon="5.93581">
        <ele>581.7348633</ele>
        <time>2013-04-05T11:50:23Z</time>
      </trkpt>
      <trkpt lat="44.38708" lon="5.93595">
        <ele>581.7348633</ele>
        <time>2013-04-05T11:50:29Z</time>
      </trkpt>
      <trkpt lat="44.38705" lon="5.9366">
        <ele>581.7348633</ele>
        <time>2013-04-05T11:50:41Z</time>
      </trkpt>
      <trkpt lat="44.38697" lon="5.93795">
        <ele>578.3703613</ele>
        <time>2013-04-05T11:50:58Z</time>
      </trkpt>
      <trkpt lat="44.38693" lon="5.93837">
        <ele>576.9284668</ele>
        <time>2013-04-05T11:51:02Z</time>
      </trkpt>
      <trkpt lat="44.38697" lon="5.93873">
        <ele>575.0058594</ele>
        <time>2013-04-05T11:51:05Z</time>
      </trkpt>
      <trkpt lat="44.38668" lon="5.93907">
        <ele>573.083252</ele>
        <time>2013-04-05T11:51:11Z</time>
      </trkpt>
      <trkpt lat="44.3866" lon="5.93909">
        <ele>572.1218262</ele>
        <time>2013-04-05T11:51:12Z</time>
      </trkpt>
      <trkpt lat="44.38635" lon="5.93913">
        <ele>570.6796875</ele>
        <time>2013-04-05T11:51:15Z</time>
      </trkpt>
      <trkpt lat="44.3861" lon="5.93918">
        <ele>569.237793</ele>
        <time>2013-04-05T11:51:18Z</time>
      </trkpt>
      <trkpt lat="44.38595" lon="5.93921">
        <ele>567.7956543</ele>
        <time>2013-04-05T11:51:20Z</time>
      </trkpt>
      <trkpt lat="44.38564" lon="5.93928">
        <ele>564.4311523</ele>
        <time>2013-04-05T11:51:24Z</time>
      </trkpt>
      <trkpt lat="44.38556" lon="5.9393">
        <ele>564.4311523</ele>
        <time>2013-04-05T11:51:25Z</time>
      </trkpt>
      <trkpt lat="44.38523" lon="5.93936">
        <ele>562.0280762</ele>
        <time>2013-04-05T11:51:29Z</time>
      </trkpt>
      <trkpt lat="44.38502" lon="5.93963">
        <ele>559.144043</ele>
        <time>2013-04-05T11:51:34Z</time>
      </trkpt>
      <trkpt lat="44.38502" lon="5.93978">
        <ele>559.144043</ele>
        <time>2013-04-05T11:51:36Z</time>
      </trkpt>
      <trkpt lat="44.38508" lon="5.94029">
        <ele>559.6247559</ele>
        <time>2013-04-05T11:51:43Z</time>
      </trkpt>
      <trkpt lat="44.38508" lon="5.94053">
        <ele>559.144043</ele>
        <time>2013-04-05T11:51:47Z</time>
      </trkpt>
      <trkpt lat="44.38507" lon="5.9407">
        <ele>561.5473633</ele>
        <time>2013-04-05T11:51:50Z</time>
      </trkpt>
      <trkpt lat="44.38501" lon="5.9414">
        <ele>560.5859375</ele>
        <time>2013-04-05T11:52:03Z</time>
      </trkpt>
      <trkpt lat="44.38493" lon="5.94204">
        <ele>561.5473633</ele>
        <time>2013-04-05T11:52:17Z</time>
      </trkpt>
      <trkpt lat="44.38489" lon="5.94237">
        <ele>561.5473633</ele>
        <time>2013-04-05T11:52:26Z</time>
      </trkpt>
      <trkpt lat="44.38498" lon="5.94242">
        <ele>561.0666504</ele>
        <time>2013-04-05T11:52:31Z</time>
      </trkpt>
      <trkpt lat="44.3849" lon="5.9423">
        <ele>561.5473633</ele>
        <time>2013-04-05T11:52:40Z</time>
      </trkpt>
      <trkpt lat="44.38491" lon="5.94219">
        <ele>562.0280762</ele>
        <time>2013-04-05T11:52:53Z</time>
      </trkpt>
      <trkpt lat="44.38491" lon="5.94219">
        <ele>561.5473633</ele>
        <time>2013-04-05T11:53:06Z</time>
      </trkpt>
    </trkseg>
  </trk>
  <trk>
    <name><![CDATA[N°62  Monetier/Sisteron]]></name>
    <trkseg>
      <trkpt lat="44.38523" lon="5.9422">
        <ele>440.9018555</ele>
        <time>2016-02-05T10:05:02Z</time>
      </trkpt>
      <trkpt lat="44.38518" lon="5.9423">
        <ele>446.6696777</ele>
        <time>2016-02-05T10:06:03Z</time>
      </trkpt>
      <trkpt lat="44.38518" lon="5.9423">
        <ele>450.5150146</ele>
        <time>2016-02-05T10:06:04Z</time>
      </trkpt>
      <trkpt lat="44.38518" lon="5.9423">
        <ele>454.8408203</ele>
        <time>2016-02-05T10:06:05Z</time>
      </trkpt>
      <trkpt lat="44.38518" lon="5.9423">
        <ele>458.6861572</ele>
        <time>2016-02-05T10:06:06Z</time>
      </trkpt>
      <trkpt lat="44.38518" lon="5.9423">
        <ele>462.5313721</ele>
        <time>2016-02-05T10:06:07Z</time>
      </trkpt>
      <trkpt lat="44.38518" lon="5.9423">
        <ele>466.376709</ele>
        <time>2016-02-05T10:06:08Z</time>
      </trkpt>
      <trkpt lat="44.38517" lon="5.9423">
        <ele>469.741333</ele>
        <time>2016-02-05T10:06:09Z</time>
      </trkpt>
      <trkpt lat="44.38517" lon="5.9423">
        <ele>473.1060791</ele>
        <time>2016-02-05T10:06:10Z</time>
      </trkpt>
      <trkpt lat="44.38517" lon="5.9423">
        <ele>475.9898682</ele>
        <time>2016-02-05T10:06:11Z</time>
      </trkpt>
      <trkpt lat="44.38517" lon="5.9423">
        <ele>479.3544922</ele>
        <time>2016-02-05T10:06:12Z</time>
      </trkpt>
      <trkpt lat="44.38517" lon="5.9423">
        <ele>482.2385254</ele>
        <time>2016-02-05T10:06:13Z</time>
      </trkpt>
      <trkpt lat="44.38517" lon="5.9423">
        <ele>488.0064697</ele>
        <time>2016-02-05T10:06:15Z</time>
      </trkpt>
      <trkpt lat="44.38517" lon="5.9423">
        <ele>491.3709717</ele>
        <time>2016-02-05T10:06:16Z</time>
      </trkpt>
      <trkpt lat="44.38517" lon="5.9423">
        <ele>495.6968994</ele>
        <time>2016-02-05T10:06:18Z</time>
      </trkpt>
      <trkpt lat="44.38517" lon="5.9423">
        <ele>500.9841309</ele>
        <time>2016-02-05T10:06:20Z</time>
      </trkpt>
      <trkpt lat="44.38517" lon="5.9423">
        <ele>505.3101807</ele>
        <time>2016-02-05T10:06:22Z</time>
      </trkpt>
      <trkpt lat="44.38517" lon="5.9423">
        <ele>509.6361084</ele>
        <time>2016-02-05T10:06:24Z</time>
      </trkpt>
      <trkpt lat="44.38517" lon="5.9423">
        <ele>513.9620361</ele>
        <time>2016-02-05T10:06:26Z</time>
      </trkpt>
      <trkpt lat="44.38517" lon="5.9423">
        <ele>517.3266602</ele>
        <time>2016-02-05T10:06:28Z</time>
      </trkpt>
      <trkpt lat="44.38517" lon="5.9423">
        <ele>520.2105713</ele>
        <time>2016-02-05T10:06:30Z</time>
      </trkpt>
      <trkpt lat="44.38517" lon="5.9423">
        <ele>524.0557861</ele>
        <time>2016-02-05T10:06:32Z</time>
      </trkpt>
      <trkpt lat="44.38517" lon="5.9423">
        <ele>527.4204102</ele>
        <time>2016-02-05T10:06:34Z</time>
      </trkpt>
      <trkpt lat="44.38517" lon="5.9423">
        <ele>531.7463379</ele>
        <time>2016-02-05T10:06:37Z</time>
      </trkpt>
      <trkpt lat="44.38517" lon="5.9423">
        <ele>535.5915527</ele>
        <time>2016-02-05T10:06:40Z</time>
      </trkpt>
      <trkpt lat="44.38517" lon="5.9423">
        <ele>539.4368896</ele>
        <time>2016-02-05T10:06:43Z</time>
      </trkpt>
      <trkpt lat="44.38517" lon="5.9423">
        <ele>542.3209229</ele>
        <time>2016-02-05T10:06:46Z</time>
      </trkpt>
      <trkpt lat="44.38517" lon="5.9423">
        <ele>546.1662598</ele>
        <time>2016-02-05T10:06:50Z</time>
      </trkpt>
      <trkpt lat="44.38517" lon="5.9423">
        <ele>550.0114746</ele>
        <time>2016-02-05T10:06:55Z</time>
      </trkpt>
      <trkpt lat="44.38517" lon="5.9423">
        <ele>552.8952637</ele>
        <time>2016-02-05T10:06:59Z</time>
      </trkpt>
      <trkpt lat="44.38517" lon="5.9423">
        <ele>555.7792969</ele>
        <time>2016-02-05T10:07:04Z</time>
      </trkpt>
      <trkpt lat="44.38518" lon="5.9423">
        <ele>559.144043</ele>
        <time>2016-02-05T10:07:11Z</time>
      </trkpt>
      <trkpt lat="44.38518" lon="5.9423">
        <ele>562.5085449</ele>
        <time>2016-02-05T10:07:19Z</time>
      </trkpt>
      <trkpt lat="44.38521" lon="5.94228">
        <ele>565.873291</ele>
        <time>2016-02-05T10:07:29Z</time>
      </trkpt>
      <trkpt lat="44.38525" lon="5.94226">
        <ele>568.7570801</ele>
        <time>2016-02-05T10:08:24Z</time>
      </trkpt>
      <trkpt lat="44.38524" lon="5.94226">
        <ele>568.2763672</ele>
        <time>2016-02-05T10:08:31Z</time>
      </trkpt>
      <trkpt lat="44.38525" lon="5.94232">
        <ele>568.2763672</ele>
        <time>2016-02-05T10:08:35Z</time>
      </trkpt>
      <trkpt lat="44.38516" lon="5.94242">
        <ele>568.7570801</ele>
        <time>2016-02-05T10:08:40Z</time>
      </trkpt>
      <trkpt lat="44.38503" lon="5.94249">
        <ele>568.2763672</ele>
        <time>2016-02-05T10:08:46Z</time>
      </trkpt>
      <trkpt lat="44.38495" lon="5.94237">
        <ele>568.7570801</ele>
        <time>2016-02-05T10:08:53Z</time>
      </trkpt>
      <trkpt lat="44.38496" lon="5.9418">
        <ele>568.7570801</ele>
        <time>2016-02-05T10:09:08Z</time>
      </trkpt>
      <trkpt lat="44.38504" lon="5.94129">
        <ele>568.2763672</ele>
        <time>2016-02-05T10:09:18Z</time>
      </trkpt>
      <trkpt lat="44.38505" lon="5.93996">
        <ele>566.8344727</ele>
        <time>2016-02-05T10:09:42Z</time>
      </trkpt>
      <trkpt lat="44.38504" lon="5.93965">
        <ele>566.8344727</ele>
        <time>2016-02-05T10:09:47Z</time>
      </trkpt>
      <trkpt lat="44.38516" lon="5.93943">
        <ele>566.8344727</ele>
        <time>2016-02-05T10:09:53Z</time>
      </trkpt>
      <trkpt lat="44.3856" lon="5.9393">
        <ele>570.1989746</ele>
        <time>2016-02-05T10:10:15Z</time>
      </trkpt>
      <trkpt lat="44.38589" lon="5.93926">
        <ele>571.6408691</ele>
        <time>2016-02-05T10:10:30Z</time>
      </trkpt>
      <trkpt lat="44.38622" lon="5.93922">
        <ele>575.0058594</ele>
        <time>2016-02-05T10:10:47Z</time>
      </trkpt>
      <trkpt lat="44.38659" lon="5.93915">
        <ele>577.8896484</ele>
        <time>2016-02-05T10:11:08Z</time>
      </trkpt>
      <trkpt lat="44.38694" lon="5.93897">
        <ele>580.7736816</ele>
        <time>2016-02-05T10:11:31Z</time>
      </trkpt>
      <trkpt lat="44.38699" lon="5.93889">
        <ele>580.7736816</ele>
        <time>2016-02-05T10:11:35Z</time>
      </trkpt>
      <trkpt lat="44.38698" lon="5.93872">
        <ele>580.7736816</ele>
        <time>2016-02-05T10:11:40Z</time>
      </trkpt>
      <trkpt lat="44.38697" lon="5.9381">
        <ele>583.6574707</ele>
        <time>2016-02-05T10:12:01Z</time>
      </trkpt>
      <trkpt lat="44.38702" lon="5.93738">
        <ele>586.5415039</ele>
        <time>2016-02-05T10:12:26Z</time>
      </trkpt>
      <trkpt lat="44.38707" lon="5.93651">
        <ele>587.9833984</ele>
        <time>2016-02-05T10:12:52Z</time>
      </trkpt>
      <trkpt lat="44.38699" lon="5.93584">
        <ele>589.4255371</ele>
        <time>2016-02-05T10:13:12Z</time>
      </trkpt>
      <trkpt lat="44.38643" lon="5.93546">
        <ele>587.0219727</ele>
        <time>2016-02-05T10:13:25Z</time>
      </trkpt>
      <trkpt lat="44.38603" lon="5.93518">
        <ele>585.0996094</ele>
        <time>2016-02-05T10:13:31Z</time>
      </trkpt>
      <trkpt lat="44.38482" lon="5.93428">
        <ele>582.2155762</ele>
        <time>2016-02-05T10:13:47Z</time>
      </trkpt>
      <trkpt lat="44.38341" lon="5.9333">
        <ele>582.2155762</ele>
        <time>2016-02-05T10:14:08Z</time>
      </trkpt>
      <trkpt lat="44.38241" lon="5.93263">
        <ele>583.1767578</ele>
        <time>2016-02-05T10:14:27Z</time>
      </trkpt>
      <trkpt lat="44.38114" lon="5.93174">
        <ele>583.1767578</ele>
        <time>2016-02-05T10:14:52Z</time>
      </trkpt>
      <trkpt lat="44.37946" lon="5.93052">
        <ele>580.7736816</ele>
        <time>2016-02-05T10:15:20Z</time>
      </trkpt>
      <trkpt lat="44.37832" lon="5.92973">
        <ele>580.7736816</ele>
        <time>2016-02-05T10:15:39Z</time>
      </trkpt>
      <trkpt lat="44.37693" lon="5.92877">
        <ele>581.2543945</ele>
        <time>2016-02-05T10:16:06Z</time>
      </trkpt>
      <trkpt lat="44.37569" lon="5.92794">
        <ele>582.2155762</ele>
        <time>2016-02-05T10:16:32Z</time>
      </trkpt>
      <trkpt lat="44.37426" lon="5.92696">
        <ele>583.1767578</ele>
        <time>2016-02-05T10:17:02Z</time>
      </trkpt>
      <trkpt lat="44.37317" lon="5.92613">
        <ele>582.6962891</ele>
        <time>2016-02-05T10:17:24Z</time>
      </trkpt>
      <trkpt lat="44.37212" lon="5.92517">
        <ele>579.8122559</ele>
        <time>2016-02-05T10:17:40Z</time>
      </trkpt>
      <trkpt lat="44.37096" lon="5.92414">
        <ele>579.331543</ele>
        <time>2016-02-05T10:17:59Z</time>
      </trkpt>
      <trkpt lat="44.3701" lon="5.92343">
        <ele>580.7736816</ele>
        <time>2016-02-05T10:18:18Z</time>
      </trkpt>
      <trkpt lat="44.36984" lon="5.92322">
        <ele>581.7348633</ele>
        <time>2016-02-05T10:18:25Z</time>
      </trkpt>
      <trkpt lat="44.36908" lon="5.92262">
        <ele>583.6574707</ele>
        <time>2016-02-05T10:18:49Z</time>
      </trkpt>
      <trkpt lat="44.36863" lon="5.92236">
        <ele>587.0219727</ele>
        <time>2016-02-05T10:19:08Z</time>
      </trkpt>
      <trkpt lat="44.36822" lon="5.9221">
        <ele>588.9450684</ele>
        <time>2016-02-05T10:19:27Z</time>
      </trkpt>
      <trkpt lat="44.36779" lon="5.92189">
        <ele>585.5800781</ele>
        <time>2016-02-05T10:19:35Z</time>
      </trkpt>
      <trkpt lat="44.36764" lon="5.92182">
        <ele>584.6188965</ele>
        <time>2016-02-05T10:19:37Z</time>
      </trkpt>
      <trkpt lat="44.36642" lon="5.92148">
        <ele>583.1767578</ele>
        <time>2016-02-05T10:19:53Z</time>
      </trkpt>
      <trkpt lat="44.36541" lon="5.92092">
        <ele>584.1381836</ele>
        <time>2016-02-05T10:20:10Z</time>
      </trkpt>
      <trkpt lat="44.3642" lon="5.92007">
        <ele>583.6574707</ele>
        <time>2016-02-05T10:20:33Z</time>
      </trkpt>
      <trkpt lat="44.36311" lon="5.91932">
        <ele>585.0996094</ele>
        <time>2016-02-05T10:20:56Z</time>
      </trkpt>
      <trkpt lat="44.36219" lon="5.9187">
        <ele>585.0996094</ele>
        <time>2016-02-05T10:21:16Z</time>
      </trkpt>
      <trkpt lat="44.36132" lon="5.91812">
        <ele>585.5800781</ele>
        <time>2016-02-05T10:21:34Z</time>
      </trkpt>
      <trkpt lat="44.35979" lon="5.91704">
        <ele>585.0996094</ele>
        <time>2016-02-05T10:22:05Z</time>
      </trkpt>
      <trkpt lat="44.3589" lon="5.91642">
        <ele>584.6188965</ele>
        <time>2016-02-05T10:22:23Z</time>
      </trkpt>
      <trkpt lat="44.35769" lon="5.91558">
        <ele>584.6188965</ele>
        <time>2016-02-05T10:22:48Z</time>
      </trkpt>
      <trkpt lat="44.35637" lon="5.91465">
        <ele>585.0996094</ele>
        <time>2016-02-05T10:23:15Z</time>
      </trkpt>
      <trkpt lat="44.35614" lon="5.91452">
        <ele>586.060791</ele>
        <time>2016-02-05T10:23:20Z</time>
      </trkpt>
      <trkpt lat="44.3554" lon="5.91403">
        <ele>587.5026855</ele>
        <time>2016-02-05T10:23:40Z</time>
      </trkpt>
      <trkpt lat="44.35505" lon="5.91383">
        <ele>588.4643555</ele>
        <time>2016-02-05T10:23:50Z</time>
      </trkpt>
      <trkpt lat="44.35467" lon="5.91358">
        <ele>587.0219727</ele>
        <time>2016-02-05T10:23:59Z</time>
      </trkpt>
      <trkpt lat="44.35381" lon="5.91296">
        <ele>586.060791</ele>
        <time>2016-02-05T10:24:16Z</time>
      </trkpt>
      <trkpt lat="44.35295" lon="5.91228">
        <ele>585.0996094</ele>
        <time>2016-02-05T10:24:33Z</time>
      </trkpt>
      <trkpt lat="44.3521" lon="5.91153">
        <ele>584.1381836</ele>
        <time>2016-02-05T10:24:50Z</time>
      </trkpt>
      <trkpt lat="44.35096" lon="5.91048">
        <ele>581.2543945</ele>
        <time>2016-02-05T10:25:08Z</time>
      </trkpt>
      <trkpt lat="44.35003" lon="5.9096">
        <ele>577.8896484</ele>
        <time>2016-02-05T10:25:21Z</time>
      </trkpt>
      <trkpt lat="44.34888" lon="5.90864">
        <ele>576.4477539</ele>
        <time>2016-02-05T10:25:37Z</time>
      </trkpt>
      <trkpt lat="44.34805" lon="5.90799">
        <ele>577.8896484</ele>
        <time>2016-02-05T10:25:54Z</time>
      </trkpt>
      <trkpt lat="44.34749" lon="5.90753">
        <ele>578.8510742</ele>
        <time>2016-02-05T10:26:11Z</time>
      </trkpt>
      <trkpt lat="44.34691" lon="5.90714">
        <ele>580.7736816</ele>
        <time>2016-02-05T10:26:33Z</time>
      </trkpt>
      <trkpt lat="44.34659" lon="5.90692">
        <ele>583.6574707</ele>
        <time>2016-02-05T10:26:49Z</time>
      </trkpt>
      <trkpt lat="44.34619" lon="5.90664">
        <ele>586.060791</ele>
        <time>2016-02-05T10:27:10Z</time>
      </trkpt>
      <trkpt lat="44.34558" lon="5.90613">
        <ele>586.060791</ele>
        <time>2016-02-05T10:27:33Z</time>
      </trkpt>
      <trkpt lat="44.34498" lon="5.90564">
        <ele>586.5415039</ele>
        <time>2016-02-05T10:27:52Z</time>
      </trkpt>
      <trkpt lat="44.34419" lon="5.9049">
        <ele>588.4643555</ele>
        <time>2016-02-05T10:28:20Z</time>
      </trkpt>
      <trkpt lat="44.34386" lon="5.90449">
        <ele>589.90625</ele>
        <time>2016-02-05T10:28:35Z</time>
      </trkpt>
      <trkpt lat="44.34345" lon="5.90427">
        <ele>587.0219727</ele>
        <time>2016-02-05T10:28:42Z</time>
      </trkpt>
      <trkpt lat="44.34268" lon="5.90355">
        <ele>586.5415039</ele>
        <time>2016-02-05T10:28:55Z</time>
      </trkpt>
      <trkpt lat="44.34247" lon="5.90328">
        <ele>588.9450684</ele>
        <time>2016-02-05T10:29:02Z</time>
      </trkpt>
      <trkpt lat="44.34215" lon="5.90288">
        <ele>591.8288574</ele>
        <time>2016-02-05T10:29:21Z</time>
      </trkpt>
      <trkpt lat="44.34183" lon="5.90247">
        <ele>594.2321777</ele>
        <time>2016-02-05T10:29:43Z</time>
      </trkpt>
      <trkpt lat="44.34156" lon="5.90212">
        <ele>597.5966797</ele>
        <time>2016-02-05T10:30:01Z</time>
      </trkpt>
      <trkpt lat="44.34103" lon="5.90157">
        <ele>597.5966797</ele>
        <time>2016-02-05T10:30:24Z</time>
      </trkpt>
      <trkpt lat="44.34042" lon="5.90103">
        <ele>595.1933594</ele>
        <time>2016-02-05T10:30:36Z</time>
      </trkpt>
      <trkpt lat="44.33942" lon="5.9">
        <ele>591.8288574</ele>
        <time>2016-02-05T10:30:50Z</time>
      </trkpt>
      <trkpt lat="44.33937" lon="5.89994">
        <ele>592.3095703</ele>
        <time>2016-02-05T10:30:51Z</time>
      </trkpt>
      <trkpt lat="44.33929" lon="5.8998">
        <ele>592.3095703</ele>
        <time>2016-02-05T10:30:59Z</time>
      </trkpt>
      <trkpt lat="44.33927" lon="5.8998">
        <ele>592.3095703</ele>
        <time>2016-02-05T10:32:49Z</time>
      </trkpt>
      <trkpt lat="44.33916" lon="5.89974">
        <ele>591.8288574</ele>
        <time>2016-02-05T10:32:53Z</time>
      </trkpt>
      <trkpt lat="44.3391" lon="5.89967">
        <ele>591.8288574</ele>
        <time>2016-02-05T10:32:55Z</time>
      </trkpt>
      <trkpt lat="44.33895" lon="5.89955">
        <ele>591.3481445</ele>
        <time>2016-02-05T10:32:59Z</time>
      </trkpt>
      <trkpt lat="44.3388" lon="5.89938">
        <ele>591.3481445</ele>
        <time>2016-02-05T10:33:03Z</time>
      </trkpt>
      <trkpt lat="44.33801" lon="5.89875">
        <ele>588.9450684</ele>
        <time>2016-02-05T10:33:17Z</time>
      </trkpt>
      <trkpt lat="44.3374" lon="5.89826">
        <ele>586.060791</ele>
        <time>2016-02-05T10:33:25Z</time>
      </trkpt>
      <trkpt lat="44.33662" lon="5.89781">
        <ele>586.060791</ele>
        <time>2016-02-05T10:33:37Z</time>
      </trkpt>
      <trkpt lat="44.33554" lon="5.89727">
        <ele>586.5415039</ele>
        <time>2016-02-05T10:33:56Z</time>
      </trkpt>
      <trkpt lat="44.33442" lon="5.89672">
        <ele>586.5415039</ele>
        <time>2016-02-05T10:34:16Z</time>
      </trkpt>
      <trkpt lat="44.3332" lon="5.89615">
        <ele>585.5800781</ele>
        <time>2016-02-05T10:34:38Z</time>
      </trkpt>
      <trkpt lat="44.33222" lon="5.89575">
        <ele>586.5415039</ele>
        <time>2016-02-05T10:34:56Z</time>
      </trkpt>
      <trkpt lat="44.33151" lon="5.8955">
        <ele>586.5415039</ele>
        <time>2016-02-05T10:35:09Z</time>
      </trkpt>
      <trkpt lat="44.3314" lon="5.89548">
        <ele>586.5415039</ele>
        <time>2016-02-05T10:35:11Z</time>
      </trkpt>
      <trkpt lat="44.33028" lon="5.89516">
        <ele>586.5415039</ele>
        <time>2016-02-05T10:35:31Z</time>
      </trkpt>
      <trkpt lat="44.32913" lon="5.8946">
        <ele>586.5415039</ele>
        <time>2016-02-05T10:35:52Z</time>
      </trkpt>
      <trkpt lat="44.32833" lon="5.894">
        <ele>586.060791</ele>
        <time>2016-02-05T10:36:08Z</time>
      </trkpt>
      <trkpt lat="44.32761" lon="5.89348">
        <ele>586.5415039</ele>
        <time>2016-02-05T10:36:22Z</time>
      </trkpt>
      <trkpt lat="44.32662" lon="5.89274">
        <ele>586.060791</ele>
        <time>2016-02-05T10:36:42Z</time>
      </trkpt>
      <trkpt lat="44.32594" lon="5.89228">
        <ele>586.5415039</ele>
        <time>2016-02-05T10:36:56Z</time>
      </trkpt>
      <trkpt lat="44.32472" lon="5.89178">
        <ele>585.0996094</ele>
        <time>2016-02-05T10:37:15Z</time>
      </trkpt>
      <trkpt lat="44.32354" lon="5.89142">
        <ele>585.5800781</ele>
        <time>2016-02-05T10:37:34Z</time>
      </trkpt>
      <trkpt lat="44.32212" lon="5.89098">
        <ele>585.5800781</ele>
        <time>2016-02-05T10:37:58Z</time>
      </trkpt>
      <trkpt lat="44.32094" lon="5.89066">
        <ele>586.060791</ele>
        <time>2016-02-05T10:38:18Z</time>
      </trkpt>
      <trkpt lat="44.32025" lon="5.89048">
        <ele>588.9450684</ele>
        <time>2016-02-05T10:38:34Z</time>
      </trkpt>
      <trkpt lat="44.32006" lon="5.89036">
        <ele>589.4255371</ele>
        <time>2016-02-05T10:38:45Z</time>
      </trkpt>
      <trkpt lat="44.32006" lon="5.8903">
        <ele>590.3869629</ele>
        <time>2016-02-05T10:39:03Z</time>
      </trkpt>
      <trkpt lat="44.32007" lon="5.89029">
        <ele>590.3869629</ele>
        <time>2016-02-05T10:39:34Z</time>
      </trkpt>
      <trkpt lat="44.32004" lon="5.89032">
        <ele>590.3869629</ele>
        <time>2016-02-05T10:39:54Z</time>
      </trkpt>
      <trkpt lat="44.32004" lon="5.89032">
        <ele>588.4643555</ele>
        <time>2016-02-05T10:40:15Z</time>
      </trkpt>
      <trkpt lat="44.32004" lon="5.89032">
        <ele>589.90625</ele>
        <time>2016-02-05T10:40:17Z</time>
      </trkpt>
      <trkpt lat="44.32004" lon="5.89032">
        <ele>591.8288574</ele>
        <time>2016-02-05T10:40:22Z</time>
      </trkpt>
      <trkpt lat="44.32004" lon="5.89032">
        <ele>590.3869629</ele>
        <time>2016-02-05T10:40:25Z</time>
      </trkpt>
      <trkpt lat="44.32002" lon="5.8903">
        <ele>591.8288574</ele>
        <time>2016-02-05T10:40:49Z</time>
      </trkpt>
      <trkpt lat="44.31992" lon="5.89024">
        <ele>591.3481445</ele>
        <time>2016-02-05T10:41:12Z</time>
      </trkpt>
      <trkpt lat="44.31945" lon="5.88992">
        <ele>592.3095703</ele>
        <time>2016-02-05T10:41:29Z</time>
      </trkpt>
      <trkpt lat="44.31879" lon="5.8899">
        <ele>594.7126465</ele>
        <time>2016-02-05T10:41:51Z</time>
      </trkpt>
      <trkpt lat="44.31812" lon="5.89033">
        <ele>597.1159668</ele>
        <time>2016-02-05T10:42:15Z</time>
      </trkpt>
      <trkpt lat="44.31724" lon="5.89085">
        <ele>598.5578613</ele>
        <time>2016-02-05T10:42:46Z</time>
      </trkpt>
      <trkpt lat="44.31677" lon="5.89089">
        <ele>600</ele>
        <time>2016-02-05T10:43:01Z</time>
      </trkpt>
      <trkpt lat="44.31582" lon="5.89088">
        <ele>602.8837891</ele>
        <time>2016-02-05T10:43:33Z</time>
      </trkpt>
      <trkpt lat="44.31515" lon="5.89089">
        <ele>605.2873535</ele>
        <time>2016-02-05T10:43:59Z</time>
      </trkpt>
      <trkpt lat="44.31452" lon="5.89099">
        <ele>605.2873535</ele>
        <time>2016-02-05T10:44:17Z</time>
      </trkpt>
      <trkpt lat="44.31365" lon="5.89112">
        <ele>605.2873535</ele>
        <time>2016-02-05T10:44:40Z</time>
      </trkpt>
      <trkpt lat="44.31273" lon="5.8913">
        <ele>606.729248</ele>
        <time>2016-02-05T10:45:06Z</time>
      </trkpt>
      <trkpt lat="44.31262" lon="5.89134">
        <ele>606.2485352</ele>
        <time>2016-02-05T10:45:09Z</time>
      </trkpt>
      <trkpt lat="44.31182" lon="5.89142">
        <ele>605.2873535</ele>
        <time>2016-02-05T10:45:25Z</time>
      </trkpt>
      <trkpt lat="44.31039" lon="5.89161">
        <ele>603.8452148</ele>
        <time>2016-02-05T10:45:53Z</time>
      </trkpt>
      <trkpt lat="44.30921" lon="5.89191">
        <ele>600.9611816</ele>
        <time>2016-02-05T10:46:13Z</time>
      </trkpt>
      <trkpt lat="44.3082" lon="5.89222">
        <ele>597.5966797</ele>
        <time>2016-02-05T10:46:25Z</time>
      </trkpt>
      <trkpt lat="44.30792" lon="5.89231">
        <ele>596.1547852</ele>
        <time>2016-02-05T10:46:28Z</time>
      </trkpt>
      <trkpt lat="44.30673" lon="5.89267">
        <ele>592.7902832</ele>
        <time>2016-02-05T10:46:41Z</time>
      </trkpt>
      <trkpt lat="44.30561" lon="5.89301">
        <ele>593.270752</ele>
        <time>2016-02-05T10:46:56Z</time>
      </trkpt>
      <trkpt lat="44.30443" lon="5.89336">
        <ele>593.7514648</ele>
        <time>2016-02-05T10:47:16Z</time>
      </trkpt>
      <trkpt lat="44.30332" lon="5.89369">
        <ele>591.8288574</ele>
        <time>2016-02-05T10:47:34Z</time>
      </trkpt>
      <trkpt lat="44.3018" lon="5.89415">
        <ele>589.90625</ele>
        <time>2016-02-05T10:47:57Z</time>
      </trkpt>
      <trkpt lat="44.30058" lon="5.8945">
        <ele>589.90625</ele>
        <time>2016-02-05T10:48:21Z</time>
      </trkpt>
      <trkpt lat="44.29956" lon="5.8948">
        <ele>590.8674316</ele>
        <time>2016-02-05T10:48:43Z</time>
      </trkpt>
      <trkpt lat="44.29861" lon="5.8951">
        <ele>591.8288574</ele>
        <time>2016-02-05T10:49:07Z</time>
      </trkpt>
      <trkpt lat="44.29758" lon="5.89517">
        <ele>590.8674316</ele>
        <time>2016-02-05T10:49:30Z</time>
      </trkpt>
      <trkpt lat="44.29666" lon="5.89514">
        <ele>589.90625</ele>
        <time>2016-02-05T10:49:44Z</time>
      </trkpt>
      <trkpt lat="44.29608" lon="5.89513">
        <ele>591.8288574</ele>
        <time>2016-02-05T10:49:59Z</time>
      </trkpt>
      <trkpt lat="44.29564" lon="5.89529">
        <ele>594.2321777</ele>
        <time>2016-02-05T10:50:17Z</time>
      </trkpt>
      <trkpt lat="44.29521" lon="5.89551">
        <ele>597.5966797</ele>
        <time>2016-02-05T10:50:37Z</time>
      </trkpt>
      <trkpt lat="44.2947" lon="5.89569">
        <ele>600.4807129</ele>
        <time>2016-02-05T10:51:02Z</time>
      </trkpt>
      <trkpt lat="44.2941" lon="5.89573">
        <ele>600</ele>
        <time>2016-02-05T10:51:19Z</time>
      </trkpt>
      <trkpt lat="44.29325" lon="5.89585">
        <ele>599.5192871</ele>
        <time>2016-02-05T10:51:40Z</time>
      </trkpt>
      <trkpt lat="44.29256" lon="5.89634">
        <ele>600</ele>
        <time>2016-02-05T10:52:00Z</time>
      </trkpt>
      <trkpt lat="44.29212" lon="5.89703">
        <ele>598.0773926</ele>
        <time>2016-02-05T10:52:14Z</time>
      </trkpt>
      <trkpt lat="44.29198" lon="5.89727">
        <ele>597.1159668</ele>
        <time>2016-02-05T10:52:19Z</time>
      </trkpt>
      <trkpt lat="44.29187" lon="5.89742">
        <ele>596.635498</ele>
        <time>2016-02-05T10:52:22Z</time>
      </trkpt>
      <trkpt lat="44.29148" lon="5.8976">
        <ele>594.2321777</ele>
        <time>2016-02-05T10:52:28Z</time>
      </trkpt>
      <trkpt lat="44.29084" lon="5.89755">
        <ele>590.3869629</ele>
        <time>2016-02-05T10:52:35Z</time>
      </trkpt>
      <trkpt lat="44.29044" lon="5.89751">
        <ele>587.9833984</ele>
        <time>2016-02-05T10:52:39Z</time>
      </trkpt>
      <trkpt lat="44.28917" lon="5.89755">
        <ele>585.5800781</ele>
        <time>2016-02-05T10:52:53Z</time>
      </trkpt>
      <trkpt lat="44.28823" lon="5.89771">
        <ele>586.060791</ele>
        <time>2016-02-05T10:53:09Z</time>
      </trkpt>
      <trkpt lat="44.28726" lon="5.89787">
        <ele>585.5800781</ele>
        <time>2016-02-05T10:53:30Z</time>
      </trkpt>
      <trkpt lat="44.28711" lon="5.89786">
        <ele>585.5800781</ele>
        <time>2016-02-05T10:53:40Z</time>
      </trkpt>
      <trkpt lat="44.28711" lon="5.89786">
        <ele>583.6574707</ele>
        <time>2016-02-05T10:53:46Z</time>
      </trkpt>
      <trkpt lat="44.28711" lon="5.89787">
        <ele>585.0996094</ele>
        <time>2016-02-05T10:53:48Z</time>
      </trkpt>
      <trkpt lat="44.28711" lon="5.89787">
        <ele>586.060791</ele>
        <time>2016-02-05T10:54:18Z</time>
      </trkpt>
      <trkpt lat="44.28711" lon="5.89787">
        <ele>586.5415039</ele>
        <time>2016-02-05T10:54:36Z</time>
      </trkpt>
      <trkpt lat="44.28702" lon="5.89789">
        <ele>584.6188965</ele>
        <time>2016-02-05T10:54:53Z</time>
      </trkpt>
      <trkpt lat="44.28642" lon="5.898">
        <ele>584.6188965</ele>
        <time>2016-02-05T10:55:05Z</time>
      </trkpt>
      <trkpt lat="44.28551" lon="5.89816">
        <ele>581.2543945</ele>
        <time>2016-02-05T10:55:17Z</time>
      </trkpt>
      <trkpt lat="44.28472" lon="5.89829">
        <ele>578.3703613</ele>
        <time>2016-02-05T10:55:25Z</time>
      </trkpt>
      <trkpt lat="44.28439" lon="5.89834">
        <ele>575.967041</ele>
        <time>2016-02-05T10:55:28Z</time>
      </trkpt>
      <trkpt lat="44.28371" lon="5.89827">
        <ele>572.1218262</ele>
        <time>2016-02-05T10:55:34Z</time>
      </trkpt>
      <trkpt lat="44.28361" lon="5.89825">
        <ele>572.1218262</ele>
        <time>2016-02-05T10:55:35Z</time>
      </trkpt>
      <trkpt lat="44.28302" lon="5.89815">
        <ele>569.237793</ele>
        <time>2016-02-05T10:55:41Z</time>
      </trkpt>
      <trkpt lat="44.28275" lon="5.89804">
        <ele>567.7956543</ele>
        <time>2016-02-05T10:55:44Z</time>
      </trkpt>
      <trkpt lat="44.28266" lon="5.89802">
        <ele>568.2763672</ele>
        <time>2016-02-05T10:55:45Z</time>
      </trkpt>
      <trkpt lat="44.28243" lon="5.89796">
        <ele>568.2763672</ele>
        <time>2016-02-05T10:55:48Z</time>
      </trkpt>
      <trkpt lat="44.28221" lon="5.89783">
        <ele>566.8344727</ele>
        <time>2016-02-05T10:55:54Z</time>
      </trkpt>
      <trkpt lat="44.28149" lon="5.89785">
        <ele>563.4699707</ele>
        <time>2016-02-05T10:56:06Z</time>
      </trkpt>
      <trkpt lat="44.28122" lon="5.89784">
        <ele>562.5085449</ele>
        <time>2016-02-05T10:56:09Z</time>
      </trkpt>
      <trkpt lat="44.28097" lon="5.89794">
        <ele>560.1052246</ele>
        <time>2016-02-05T10:56:12Z</time>
      </trkpt>
      <trkpt lat="44.28081" lon="5.8985">
        <ele>558.6633301</ele>
        <time>2016-02-05T10:56:18Z</time>
      </trkpt>
      <trkpt lat="44.28083" lon="5.89923">
        <ele>558.1828613</ele>
        <time>2016-02-05T10:56:25Z</time>
      </trkpt>
      <trkpt lat="44.28083" lon="5.89961">
        <ele>557.7021484</ele>
        <time>2016-02-05T10:56:30Z</time>
      </trkpt>
      <trkpt lat="44.28057" lon="5.90048">
        <ele>557.2214355</ele>
        <time>2016-02-05T10:56:41Z</time>
      </trkpt>
      <trkpt lat="44.28061" lon="5.90107">
        <ele>556.7407227</ele>
        <time>2016-02-05T10:56:52Z</time>
      </trkpt>
      <trkpt lat="44.28062" lon="5.90114">
        <ele>555.7792969</ele>
        <time>2016-02-05T10:57:03Z</time>
      </trkpt>
      <trkpt lat="44.28063" lon="5.90115">
        <ele>555.7792969</ele>
        <time>2016-02-05T10:57:33Z</time>
      </trkpt>
      <trkpt lat="44.28063" lon="5.90114">
        <ele>555.298584</ele>
        <time>2016-02-05T10:58:21Z</time>
      </trkpt>
      <trkpt lat="44.28063" lon="5.90113">
        <ele>555.7792969</ele>
        <time>2016-02-05T10:58:24Z</time>
      </trkpt>
      <trkpt lat="44.28064" lon="5.90105">
        <ele>555.298584</ele>
        <time>2016-02-05T10:58:28Z</time>
      </trkpt>
      <trkpt lat="44.28063" lon="5.9005">
        <ele>556.2600098</ele>
        <time>2016-02-05T10:58:40Z</time>
      </trkpt>
      <trkpt lat="44.28088" lon="5.89964">
        <ele>556.7407227</ele>
        <time>2016-02-05T10:58:58Z</time>
      </trkpt>
      <trkpt lat="44.28086" lon="5.89882">
        <ele>557.2214355</ele>
        <time>2016-02-05T10:59:15Z</time>
      </trkpt>
      <trkpt lat="44.28084" lon="5.89845">
        <ele>556.7407227</ele>
        <time>2016-02-05T10:59:23Z</time>
      </trkpt>
      <trkpt lat="44.28081" lon="5.89841">
        <ele>557.7021484</ele>
        <time>2016-02-05T10:59:25Z</time>
      </trkpt>
      <trkpt lat="44.28105" lon="5.89799">
        <ele>558.6633301</ele>
        <time>2016-02-05T10:59:37Z</time>
      </trkpt>
      <trkpt lat="44.28156" lon="5.89792">
        <ele>561.5473633</ele>
        <time>2016-02-05T11:00:01Z</time>
      </trkpt>
      <trkpt lat="44.28192" lon="5.89792">
        <ele>564.9118652</ele>
        <time>2016-02-05T11:00:21Z</time>
      </trkpt>
      <trkpt lat="44.2824" lon="5.89778">
        <ele>565.873291</ele>
        <time>2016-02-05T11:00:44Z</time>
      </trkpt>
      <trkpt lat="44.28274" lon="5.89745">
        <ele>566.3537598</ele>
        <time>2016-02-05T11:01:02Z</time>
      </trkpt>
      <trkpt lat="44.28288" lon="5.89694">
        <ele>567.7956543</ele>
        <time>2016-02-05T11:01:18Z</time>
      </trkpt>
      <trkpt lat="44.28281" lon="5.8963">
        <ele>570.1989746</ele>
        <time>2016-02-05T11:01:37Z</time>
      </trkpt>
      <trkpt lat="44.28297" lon="5.89571">
        <ele>573.083252</ele>
        <time>2016-02-05T11:01:59Z</time>
      </trkpt>
      <trkpt lat="44.28328" lon="5.89512">
        <ele>575.0058594</ele>
        <time>2016-02-05T11:02:22Z</time>
      </trkpt>
      <trkpt lat="44.28362" lon="5.89437">
        <ele>575.967041</ele>
        <time>2016-02-05T11:02:47Z</time>
      </trkpt>
      <trkpt lat="44.28395" lon="5.89347">
        <ele>574.5251465</ele>
        <time>2016-02-05T11:03:13Z</time>
      </trkpt>
      <trkpt lat="44.28411" lon="5.89272">
        <ele>575.0058594</ele>
        <time>2016-02-05T11:03:31Z</time>
      </trkpt>
      <trkpt lat="44.28414" lon="5.89265">
        <ele>574.5251465</ele>
        <time>2016-02-05T11:03:42Z</time>
      </trkpt>
      <trkpt lat="44.28411" lon="5.89253">
        <ele>574.0444336</ele>
        <time>2016-02-05T11:03:47Z</time>
      </trkpt>
      <trkpt lat="44.28364" lon="5.8921">
        <ele>576.4477539</ele>
        <time>2016-02-05T11:04:07Z</time>
      </trkpt>
      <trkpt lat="44.28314" lon="5.89173">
        <ele>575.967041</ele>
        <time>2016-02-05T11:04:24Z</time>
      </trkpt>
      <trkpt lat="44.28262" lon="5.89117">
        <ele>574.5251465</ele>
        <time>2016-02-05T11:04:36Z</time>
      </trkpt>
      <trkpt lat="44.28242" lon="5.89072">
        <ele>572.1218262</ele>
        <time>2016-02-05T11:04:44Z</time>
      </trkpt>
      <trkpt lat="44.28228" lon="5.89068">
        <ele>571.6408691</ele>
        <time>2016-02-05T11:04:48Z</time>
      </trkpt>
      <trkpt lat="44.28219" lon="5.89072">
        <ele>571.6408691</ele>
        <time>2016-02-05T11:04:50Z</time>
      </trkpt>
      <trkpt lat="44.28188" lon="5.89085">
        <ele>571.1604004</ele>
        <time>2016-02-05T11:04:57Z</time>
      </trkpt>
      <trkpt lat="44.28168" lon="5.89066">
        <ele>570.1989746</ele>
        <time>2016-02-05T11:05:03Z</time>
      </trkpt>
      <trkpt lat="44.28153" lon="5.89011">
        <ele>568.2763672</ele>
        <time>2016-02-05T11:05:10Z</time>
      </trkpt>
      <trkpt lat="44.28125" lon="5.88997">
        <ele>565.873291</ele>
        <time>2016-02-05T11:05:17Z</time>
      </trkpt>
      <trkpt lat="44.28078" lon="5.89027">
        <ele>565.3925781</ele>
        <time>2016-02-05T11:05:26Z</time>
      </trkpt>
      <trkpt lat="44.28053" lon="5.89031">
        <ele>564.9118652</ele>
        <time>2016-02-05T11:05:30Z</time>
      </trkpt>
      <trkpt lat="44.27931" lon="5.89024">
        <ele>562.9892578</ele>
        <time>2016-02-05T11:05:48Z</time>
      </trkpt>
      <trkpt lat="44.27924" lon="5.89026">
        <ele>562.9892578</ele>
        <time>2016-02-05T11:05:49Z</time>
      </trkpt>
      <trkpt lat="44.2791" lon="5.8902">
        <ele>561.5473633</ele>
        <time>2016-02-05T11:05:52Z</time>
      </trkpt>
      <trkpt lat="44.27903" lon="5.89">
        <ele>561.5473633</ele>
        <time>2016-02-05T11:05:55Z</time>
      </trkpt>
      <trkpt lat="44.279" lon="5.88979">
        <ele>561.5473633</ele>
        <time>2016-02-05T11:05:58Z</time>
      </trkpt>
      <trkpt lat="44.27879" lon="5.88958">
        <ele>560.5859375</ele>
        <time>2016-02-05T11:06:03Z</time>
      </trkpt>
      <trkpt lat="44.27822" lon="5.88866">
        <ele>559.6247559</ele>
        <time>2016-02-05T11:06:18Z</time>
      </trkpt>
      <trkpt lat="44.27792" lon="5.88836">
        <ele>559.144043</ele>
        <time>2016-02-05T11:06:24Z</time>
      </trkpt>
      <trkpt lat="44.27702" lon="5.88785">
        <ele>557.7021484</ele>
        <time>2016-02-05T11:06:40Z</time>
      </trkpt>
      <trkpt lat="44.27687" lon="5.88773">
        <ele>557.2214355</ele>
        <time>2016-02-05T11:06:43Z</time>
      </trkpt>
      <trkpt lat="44.27646" lon="5.88757">
        <ele>556.7407227</ele>
        <time>2016-02-05T11:06:50Z</time>
      </trkpt>
      <trkpt lat="44.27636" lon="5.8875">
        <ele>557.2214355</ele>
        <time>2016-02-05T11:06:52Z</time>
      </trkpt>
      <trkpt lat="44.27617" lon="5.88724">
        <ele>557.2214355</ele>
        <time>2016-02-05T11:06:58Z</time>
      </trkpt>
      <trkpt lat="44.2757" lon="5.88625">
        <ele>558.1828613</ele>
        <time>2016-02-05T11:07:14Z</time>
      </trkpt>
      <trkpt lat="44.27551" lon="5.88601">
        <ele>558.6633301</ele>
        <time>2016-02-05T11:07:21Z</time>
      </trkpt>
      <trkpt lat="44.27534" lon="5.88598">
        <ele>558.1828613</ele>
        <time>2016-02-05T11:07:25Z</time>
      </trkpt>
      <trkpt lat="44.27443" lon="5.88591">
        <ele>556.7407227</ele>
        <time>2016-02-05T11:07:41Z</time>
      </trkpt>
      <trkpt lat="44.27339" lon="5.88545">
        <ele>555.298584</ele>
        <time>2016-02-05T11:08:00Z</time>
      </trkpt>
      <trkpt lat="44.27257" lon="5.88519">
        <ele>553.8566895</ele>
        <time>2016-02-05T11:08:15Z</time>
      </trkpt>
      <trkpt lat="44.2716" lon="5.88506">
        <ele>553.8566895</ele>
        <time>2016-02-05T11:08:31Z</time>
      </trkpt>
      <trkpt lat="44.27086" lon="5.88478">
        <ele>553.8566895</ele>
        <time>2016-02-05T11:08:47Z</time>
      </trkpt>
      <trkpt lat="44.27027" lon="5.88455">
        <ele>555.7792969</ele>
        <time>2016-02-05T11:09:02Z</time>
      </trkpt>
      <trkpt lat="44.26932" lon="5.88438">
        <ele>554.8178711</ele>
        <time>2016-02-05T11:09:20Z</time>
      </trkpt>
      <trkpt lat="44.26879" lon="5.88395">
        <ele>555.7792969</ele>
        <time>2016-02-05T11:09:35Z</time>
      </trkpt>
      <trkpt lat="44.26846" lon="5.88372">
        <ele>557.7021484</ele>
        <time>2016-02-05T11:09:49Z</time>
      </trkpt>
      <trkpt lat="44.26804" lon="5.88341">
        <ele>558.1828613</ele>
        <time>2016-02-05T11:10:04Z</time>
      </trkpt>
      <trkpt lat="44.26772" lon="5.88319">
        <ele>558.1828613</ele>
        <time>2016-02-05T11:10:15Z</time>
      </trkpt>
      <trkpt lat="44.26707" lon="5.88285">
        <ele>558.1828613</ele>
        <time>2016-02-05T11:10:34Z</time>
      </trkpt>
      <trkpt lat="44.267" lon="5.88281">
        <ele>558.1828613</ele>
        <time>2016-02-05T11:10:36Z</time>
      </trkpt>
      <trkpt lat="44.26673" lon="5.88259">
        <ele>558.1828613</ele>
        <time>2016-02-05T11:10:43Z</time>
      </trkpt>
      <trkpt lat="44.26655" lon="5.88243">
        <ele>558.1828613</ele>
        <time>2016-02-05T11:10:48Z</time>
      </trkpt>
      <trkpt lat="44.26595" lon="5.88166">
        <ele>559.6247559</ele>
        <time>2016-02-05T11:11:10Z</time>
      </trkpt>
      <trkpt lat="44.26555" lon="5.88111">
        <ele>560.5859375</ele>
        <time>2016-02-05T11:11:29Z</time>
      </trkpt>
      <trkpt lat="44.26523" lon="5.88077">
        <ele>562.0280762</ele>
        <time>2016-02-05T11:11:44Z</time>
      </trkpt>
      <trkpt lat="44.26491" lon="5.88051">
        <ele>565.3925781</ele>
        <time>2016-02-05T11:12:00Z</time>
      </trkpt>
      <trkpt lat="44.26449" lon="5.88037">
        <ele>567.7956543</ele>
        <time>2016-02-05T11:12:19Z</time>
      </trkpt>
      <trkpt lat="44.26408" lon="5.88026">
        <ele>570.6796875</ele>
        <time>2016-02-05T11:12:39Z</time>
      </trkpt>
      <trkpt lat="44.2638" lon="5.8801">
        <ele>574.0444336</ele>
        <time>2016-02-05T11:12:57Z</time>
      </trkpt>
      <trkpt lat="44.26354" lon="5.87967">
        <ele>576.9284668</ele>
        <time>2016-02-05T11:13:19Z</time>
      </trkpt>
      <trkpt lat="44.26346" lon="5.87911">
        <ele>579.331543</ele>
        <time>2016-02-05T11:13:39Z</time>
      </trkpt>
      <trkpt lat="44.26347" lon="5.87853">
        <ele>580.2929688</ele>
        <time>2016-02-05T11:13:57Z</time>
      </trkpt>
      <trkpt lat="44.26325" lon="5.87808">
        <ele>581.7348633</ele>
        <time>2016-02-05T11:14:13Z</time>
      </trkpt>
      <trkpt lat="44.26288" lon="5.87775">
        <ele>582.2155762</ele>
        <time>2016-02-05T11:14:29Z</time>
      </trkpt>
      <trkpt lat="44.26239" lon="5.87736">
        <ele>583.6574707</ele>
        <time>2016-02-05T11:14:49Z</time>
      </trkpt>
      <trkpt lat="44.26183" lon="5.87703">
        <ele>584.6188965</ele>
        <time>2016-02-05T11:15:11Z</time>
      </trkpt>
      <trkpt lat="44.26136" lon="5.87678">
        <ele>585.0996094</ele>
        <time>2016-02-05T11:15:31Z</time>
      </trkpt>
      <trkpt lat="44.26134" lon="5.87677">
        <ele>585.0996094</ele>
        <time>2016-02-05T11:15:32Z</time>
      </trkpt>
      <trkpt lat="44.26117" lon="5.87677">
        <ele>585.5800781</ele>
        <time>2016-02-05T11:15:39Z</time>
      </trkpt>
      <trkpt lat="44.26113" lon="5.87674">
        <ele>584.6188965</ele>
        <time>2016-02-05T11:15:52Z</time>
      </trkpt>
      <trkpt lat="44.26112" lon="5.87673">
        <ele>585.5800781</ele>
        <time>2016-02-05T11:16:18Z</time>
      </trkpt>
      <trkpt lat="44.26105" lon="5.87672">
        <ele>585.5800781</ele>
        <time>2016-02-05T11:16:38Z</time>
      </trkpt>
      <trkpt lat="44.26076" lon="5.87689">
        <ele>585.0996094</ele>
        <time>2016-02-05T11:16:48Z</time>
      </trkpt>
      <trkpt lat="44.2604" lon="5.87688">
        <ele>583.6574707</ele>
        <time>2016-02-05T11:16:55Z</time>
      </trkpt>
      <trkpt lat="44.25939" lon="5.87712">
        <ele>581.2543945</ele>
        <time>2016-02-05T11:17:10Z</time>
      </trkpt>
      <trkpt lat="44.25907" lon="5.87731">
        <ele>579.8122559</ele>
        <time>2016-02-05T11:17:16Z</time>
      </trkpt>
      <trkpt lat="44.25858" lon="5.87754">
        <ele>576.4477539</ele>
        <time>2016-02-05T11:17:26Z</time>
      </trkpt>
      <trkpt lat="44.25837" lon="5.87773">
        <ele>576.4477539</ele>
        <time>2016-02-05T11:17:30Z</time>
      </trkpt>
      <trkpt lat="44.25752" lon="5.87893">
        <ele>573.5639648</ele>
        <time>2016-02-05T11:17:48Z</time>
      </trkpt>
      <trkpt lat="44.25689" lon="5.87972">
        <ele>572.6025391</ele>
        <time>2016-02-05T11:18:03Z</time>
      </trkpt>
      <trkpt lat="44.2566" lon="5.88002">
        <ele>572.6025391</ele>
        <time>2016-02-05T11:18:10Z</time>
      </trkpt>
      <trkpt lat="44.25582" lon="5.88097">
        <ele>573.083252</ele>
        <time>2016-02-05T11:18:33Z</time>
      </trkpt>
      <trkpt lat="44.25554" lon="5.88169">
        <ele>573.5639648</ele>
        <time>2016-02-05T11:18:51Z</time>
      </trkpt>
      <trkpt lat="44.25538" lon="5.88177">
        <ele>571.6408691</ele>
        <time>2016-02-05T11:18:56Z</time>
      </trkpt>
      <trkpt lat="44.25481" lon="5.88187">
        <ele>568.7570801</ele>
        <time>2016-02-05T11:19:05Z</time>
      </trkpt>
      <trkpt lat="44.25422" lon="5.88198">
        <ele>565.873291</ele>
        <time>2016-02-05T11:19:13Z</time>
      </trkpt>
      <trkpt lat="44.25414" lon="5.88199">
        <ele>565.873291</ele>
        <time>2016-02-05T11:19:14Z</time>
      </trkpt>
      <trkpt lat="44.2537" lon="5.88236">
        <ele>563.9504395</ele>
        <time>2016-02-05T11:19:22Z</time>
      </trkpt>
      <trkpt lat="44.25322" lon="5.88315">
        <ele>561.5473633</ele>
        <time>2016-02-05T11:19:32Z</time>
      </trkpt>
      <trkpt lat="44.25296" lon="5.88337">
        <ele>559.144043</ele>
        <time>2016-02-05T11:19:35Z</time>
      </trkpt>
      <trkpt lat="44.25278" lon="5.88346">
        <ele>557.7021484</ele>
        <time>2016-02-05T11:19:37Z</time>
      </trkpt>
      <trkpt lat="44.25219" lon="5.88397">
        <ele>558.1828613</ele>
        <time>2016-02-05T11:19:47Z</time>
      </trkpt>
      <trkpt lat="44.25172" lon="5.88423">
        <ele>559.6247559</ele>
        <time>2016-02-05T11:20:02Z</time>
      </trkpt>
      <trkpt lat="44.2514" lon="5.88441">
        <ele>562.9892578</ele>
        <time>2016-02-05T11:20:17Z</time>
      </trkpt>
      <trkpt lat="44.25107" lon="5.88455">
        <ele>565.3925781</ele>
        <time>2016-02-05T11:20:35Z</time>
      </trkpt>
      <trkpt lat="44.25084" lon="5.8848">
        <ele>566.8344727</ele>
        <time>2016-02-05T11:20:50Z</time>
      </trkpt>
      <trkpt lat="44.25083" lon="5.88481">
        <ele>566.8344727</ele>
        <time>2016-02-05T11:20:51Z</time>
      </trkpt>
      <trkpt lat="44.25067" lon="5.88505">
        <ele>566.3537598</ele>
        <time>2016-02-05T11:21:00Z</time>
      </trkpt>
      <trkpt lat="44.25013" lon="5.88584">
        <ele>562.9892578</ele>
        <time>2016-02-05T11:21:13Z</time>
      </trkpt>
      <trkpt lat="44.24948" lon="5.88662">
        <ele>560.1052246</ele>
        <time>2016-02-05T11:21:24Z</time>
      </trkpt>
      <trkpt lat="44.24873" lon="5.88719">
        <ele>557.2214355</ele>
        <time>2016-02-05T11:21:34Z</time>
      </trkpt>
      <trkpt lat="44.24824" lon="5.88747">
        <ele>554.3374023</ele>
        <time>2016-02-05T11:21:40Z</time>
      </trkpt>
      <trkpt lat="44.24807" lon="5.88757">
        <ele>552.8952637</ele>
        <time>2016-02-05T11:21:42Z</time>
      </trkpt>
      <trkpt lat="44.24766" lon="5.88785">
        <ele>550.9726563</ele>
        <time>2016-02-05T11:21:47Z</time>
      </trkpt>
      <trkpt lat="44.24732" lon="5.88808">
        <ele>549.0500488</ele>
        <time>2016-02-05T11:21:51Z</time>
      </trkpt>
      <trkpt lat="44.24657" lon="5.88859">
        <ele>545.6855469</ele>
        <time>2016-02-05T11:22:00Z</time>
      </trkpt>
      <trkpt lat="44.24582" lon="5.8891">
        <ele>542.3209229</ele>
        <time>2016-02-05T11:22:09Z</time>
      </trkpt>
      <trkpt lat="44.24574" lon="5.88917">
        <ele>542.3209229</ele>
        <time>2016-02-05T11:22:10Z</time>
      </trkpt>
      <trkpt lat="44.24559" lon="5.88933">
        <ele>541.3594971</ele>
        <time>2016-02-05T11:22:12Z</time>
      </trkpt>
      <trkpt lat="44.24546" lon="5.88953">
        <ele>540.8789063</ele>
        <time>2016-02-05T11:22:14Z</time>
      </trkpt>
      <trkpt lat="44.2453" lon="5.88987">
        <ele>538.9562988</ele>
        <time>2016-02-05T11:22:17Z</time>
      </trkpt>
      <trkpt lat="44.24468" lon="5.89108">
        <ele>535.5915527</ele>
        <time>2016-02-05T11:22:29Z</time>
      </trkpt>
      <trkpt lat="44.24383" lon="5.89201">
        <ele>535.5915527</ele>
        <time>2016-02-05T11:22:45Z</time>
      </trkpt>
      <trkpt lat="44.24263" lon="5.89333">
        <ele>533.6689453</ele>
        <time>2016-02-05T11:23:10Z</time>
      </trkpt>
      <trkpt lat="44.24147" lon="5.89461">
        <ele>532.7077637</ele>
        <time>2016-02-05T11:23:34Z</time>
      </trkpt>
      <trkpt lat="44.24016" lon="5.89605">
        <ele>531.2657471</ele>
        <time>2016-02-05T11:24:01Z</time>
      </trkpt>
      <trkpt lat="44.23897" lon="5.89739">
        <ele>530.3044434</ele>
        <time>2016-02-05T11:24:24Z</time>
      </trkpt>
      <trkpt lat="44.23784" lon="5.89862">
        <ele>529.8237305</ele>
        <time>2016-02-05T11:24:48Z</time>
      </trkpt>
      <trkpt lat="44.23748" lon="5.89901">
        <ele>528.3818359</ele>
        <time>2016-02-05T11:24:56Z</time>
      </trkpt>
      <trkpt lat="44.23624" lon="5.90039">
        <ele>527.901001</ele>
        <time>2016-02-05T11:25:22Z</time>
      </trkpt>
      <trkpt lat="44.23556" lon="5.90115">
        <ele>525.4978027</ele>
        <time>2016-02-05T11:25:34Z</time>
      </trkpt>
      <trkpt lat="44.23474" lon="5.90208">
        <ele>521.6525879</ele>
        <time>2016-02-05T11:25:46Z</time>
      </trkpt>
      <trkpt lat="44.23386" lon="5.90309">
        <ele>520.6912842</ele>
        <time>2016-02-05T11:26:01Z</time>
      </trkpt>
      <trkpt lat="44.23302" lon="5.90401">
        <ele>519.7298584</ele>
        <time>2016-02-05T11:26:19Z</time>
      </trkpt>
      <trkpt lat="44.23283" lon="5.90432">
        <ele>519.7298584</ele>
        <time>2016-02-05T11:26:24Z</time>
      </trkpt>
      <trkpt lat="44.23263" lon="5.90455">
        <ele>519.7298584</ele>
        <time>2016-02-05T11:26:29Z</time>
      </trkpt>
      <trkpt lat="44.23255" lon="5.90465">
        <ele>520.2105713</ele>
        <time>2016-02-05T11:26:31Z</time>
      </trkpt>
      <trkpt lat="44.23228" lon="5.90485">
        <ele>519.7298584</ele>
        <time>2016-02-05T11:26:36Z</time>
      </trkpt>
      <trkpt lat="44.23104" lon="5.90626">
        <ele>519.2492676</ele>
        <time>2016-02-05T11:27:02Z</time>
      </trkpt>
      <trkpt lat="44.22984" lon="5.90759">
        <ele>516.8459473</ele>
        <time>2016-02-05T11:27:25Z</time>
      </trkpt>
      <trkpt lat="44.22878" lon="5.90875">
        <ele>515.8846436</ele>
        <time>2016-02-05T11:27:46Z</time>
      </trkpt>
      <trkpt lat="44.22761" lon="5.91005">
        <ele>514.442627</ele>
        <time>2016-02-05T11:28:10Z</time>
      </trkpt>
      <trkpt lat="44.22634" lon="5.91146">
        <ele>514.9233398</ele>
        <time>2016-02-05T11:28:36Z</time>
      </trkpt>
      <trkpt lat="44.22511" lon="5.91305">
        <ele>513.4814453</ele>
        <time>2016-02-05T11:29:02Z</time>
      </trkpt>
      <trkpt lat="44.22503" lon="5.91322">
        <ele>512.5200195</ele>
        <time>2016-02-05T11:29:05Z</time>
      </trkpt>
      <trkpt lat="44.22489" lon="5.91338">
        <ele>512.5200195</ele>
        <time>2016-02-05T11:29:09Z</time>
      </trkpt>
      <trkpt lat="44.22476" lon="5.91392">
        <ele>513.0007324</ele>
        <time>2016-02-05T11:29:18Z</time>
      </trkpt>
      <trkpt lat="44.22508" lon="5.91419">
        <ele>513.9620361</ele>
        <time>2016-02-05T11:29:26Z</time>
      </trkpt>
      <trkpt lat="44.22535" lon="5.91436">
        <ele>513.0007324</ele>
        <time>2016-02-05T11:29:32Z</time>
      </trkpt>
      <trkpt lat="44.22548" lon="5.91457">
        <ele>513.9620361</ele>
        <time>2016-02-05T11:29:36Z</time>
      </trkpt>
      <trkpt lat="44.22574" lon="5.91564">
        <ele>513.9620361</ele>
        <time>2016-02-05T11:29:54Z</time>
      </trkpt>
      <trkpt lat="44.22586" lon="5.91623">
        <ele>515.4040527</ele>
        <time>2016-02-05T11:30:04Z</time>
      </trkpt>
      <trkpt lat="44.22628" lon="5.91715">
        <ele>515.4040527</ele>
        <time>2016-02-05T11:30:21Z</time>
      </trkpt>
      <trkpt lat="44.22703" lon="5.91791">
        <ele>515.4040527</ele>
        <time>2016-02-05T11:30:42Z</time>
      </trkpt>
      <trkpt lat="44.22792" lon="5.91817">
        <ele>516.8459473</ele>
        <time>2016-02-05T11:31:03Z</time>
      </trkpt>
      <trkpt lat="44.22813" lon="5.91816">
        <ele>516.8459473</ele>
        <time>2016-02-05T11:31:08Z</time>
      </trkpt>
      <trkpt lat="44.22908" lon="5.91785">
        <ele>517.807251</ele>
        <time>2016-02-05T11:31:32Z</time>
      </trkpt>
      <trkpt lat="44.23002" lon="5.91746">
        <ele>517.807251</ele>
        <time>2016-02-05T11:31:56Z</time>
      </trkpt>
      <trkpt lat="44.23111" lon="5.91704">
        <ele>517.3266602</ele>
        <time>2016-02-05T11:32:22Z</time>
      </trkpt>
      <trkpt lat="44.23204" lon="5.91666">
        <ele>517.807251</ele>
        <time>2016-02-05T11:32:45Z</time>
      </trkpt>
      <trkpt lat="44.23337" lon="5.91612">
        <ele>518.7685547</ele>
        <time>2016-02-05T11:33:18Z</time>
      </trkpt>
      <trkpt lat="44.23453" lon="5.91567">
        <ele>518.2878418</ele>
        <time>2016-02-05T11:33:46Z</time>
      </trkpt>
      <trkpt lat="44.23544" lon="5.91533">
        <ele>518.7685547</ele>
        <time>2016-02-05T11:34:08Z</time>
      </trkpt>
      <trkpt lat="44.23639" lon="5.91485">
        <ele>520.2105713</ele>
        <time>2016-02-05T11:34:34Z</time>
      </trkpt>
      <trkpt lat="44.23701" lon="5.91446">
        <ele>521.1719971</ele>
        <time>2016-02-05T11:34:52Z</time>
      </trkpt>
      <trkpt lat="44.2376" lon="5.91435">
        <ele>521.6525879</ele>
        <time>2016-02-05T11:35:11Z</time>
      </trkpt>
      <trkpt lat="44.23789" lon="5.91414">
        <ele>523.0946045</ele>
        <time>2016-02-05T11:35:21Z</time>
      </trkpt>
      <trkpt lat="44.23782" lon="5.91368">
        <ele>521.6525879</ele>
        <time>2016-02-05T11:35:31Z</time>
      </trkpt>
      <trkpt lat="44.23777" lon="5.91338">
        <ele>522.1331787</ele>
        <time>2016-02-05T11:35:36Z</time>
      </trkpt>
      <trkpt lat="44.23787" lon="5.91228">
        <ele>520.6912842</ele>
        <time>2016-02-05T11:35:52Z</time>
      </trkpt>
      <trkpt lat="44.23797" lon="5.91204">
        <ele>520.6912842</ele>
        <time>2016-02-05T11:35:56Z</time>
      </trkpt>
      <trkpt lat="44.2381" lon="5.91186">
        <ele>521.1719971</ele>
        <time>2016-02-05T11:36:00Z</time>
      </trkpt>
      <trkpt lat="44.23822" lon="5.91175">
        <ele>521.1719971</ele>
        <time>2016-02-05T11:36:03Z</time>
      </trkpt>
      <trkpt lat="44.23879" lon="5.91166">
        <ele>522.1331787</ele>
        <time>2016-02-05T11:36:18Z</time>
      </trkpt>
      <trkpt lat="44.23922" lon="5.91212">
        <ele>524.0557861</ele>
        <time>2016-02-05T11:36:35Z</time>
      </trkpt>
      <trkpt lat="44.23944" lon="5.91301">
        <ele>526.4591064</ele>
        <time>2016-02-05T11:36:59Z</time>
      </trkpt>
      <trkpt lat="44.2396" lon="5.91374">
        <ele>527.4204102</ele>
        <time>2016-02-05T11:37:19Z</time>
      </trkpt>
      <trkpt lat="44.23975" lon="5.91451">
        <ele>527.901001</ele>
        <time>2016-02-05T11:37:36Z</time>
      </trkpt>
      <trkpt lat="44.24009" lon="5.91562">
        <ele>525.4978027</ele>
        <time>2016-02-05T11:37:52Z</time>
      </trkpt>
      <trkpt lat="44.24074" lon="5.91634">
        <ele>522.1331787</ele>
        <time>2016-02-05T11:38:03Z</time>
      </trkpt>
      <trkpt lat="44.24144" lon="5.9169">
        <ele>521.1719971</ele>
        <time>2016-02-05T11:38:18Z</time>
      </trkpt>
      <trkpt lat="44.24238" lon="5.91762">
        <ele>522.1331787</ele>
        <time>2016-02-05T11:38:43Z</time>
      </trkpt>
      <trkpt lat="44.24314" lon="5.9182">
        <ele>522.1331787</ele>
        <time>2016-02-05T11:39:05Z</time>
      </trkpt>
      <trkpt lat="44.24406" lon="5.9186">
        <ele>522.6138916</ele>
        <time>2016-02-05T11:39:27Z</time>
      </trkpt>
      <trkpt lat="44.24476" lon="5.91869">
        <ele>519.2492676</ele>
        <time>2016-02-05T11:39:38Z</time>
      </trkpt>
      <trkpt lat="44.2456" lon="5.91883">
        <ele>515.8846436</ele>
        <time>2016-02-05T11:39:49Z</time>
      </trkpt>
      <trkpt lat="44.24607" lon="5.91905">
        <ele>513.4814453</ele>
        <time>2016-02-05T11:39:55Z</time>
      </trkpt>
      <trkpt lat="44.24653" lon="5.91941">
        <ele>510.1166992</ele>
        <time>2016-02-05T11:40:01Z</time>
      </trkpt>
      <trkpt lat="44.24661" lon="5.91948">
        <ele>510.1166992</ele>
        <time>2016-02-05T11:40:02Z</time>
      </trkpt>
      <trkpt lat="44.2472" lon="5.92008">
        <ele>506.2714844</ele>
        <time>2016-02-05T11:40:10Z</time>
      </trkpt>
      <trkpt lat="44.24727" lon="5.92016">
        <ele>506.2714844</ele>
        <time>2016-02-05T11:40:11Z</time>
      </trkpt>
      <trkpt lat="44.24756" lon="5.92046">
        <ele>504.8294678</ele>
        <time>2016-02-05T11:40:15Z</time>
      </trkpt>
      <trkpt lat="44.24792" lon="5.92083">
        <ele>503.3874512</ele>
        <time>2016-02-05T11:40:20Z</time>
      </trkpt>
      <trkpt lat="44.24845" lon="5.92162">
        <ele>500.0229492</ele>
        <time>2016-02-05T11:40:29Z</time>
      </trkpt>
      <trkpt lat="44.2485" lon="5.92171">
        <ele>500.0229492</ele>
        <time>2016-02-05T11:40:30Z</time>
      </trkpt>
      <trkpt lat="44.24892" lon="5.92239">
        <ele>496.6583252</ele>
        <time>2016-02-05T11:40:38Z</time>
      </trkpt>
      <trkpt lat="44.24897" lon="5.92247">
        <ele>496.6583252</ele>
        <time>2016-02-05T11:40:39Z</time>
      </trkpt>
      <trkpt lat="44.2494" lon="5.92318">
        <ele>493.774292</ele>
        <time>2016-02-05T11:40:47Z</time>
      </trkpt>
      <trkpt lat="44.25011" lon="5.92409">
        <ele>493.2935791</ele>
        <time>2016-02-05T11:40:59Z</time>
      </trkpt>
      <trkpt lat="44.25053" lon="5.92459">
        <ele>493.774292</ele>
        <time>2016-02-05T11:41:11Z</time>
      </trkpt>
      <trkpt lat="44.25087" lon="5.92518">
        <ele>495.6968994</ele>
        <time>2016-02-05T11:41:30Z</time>
      </trkpt>
      <trkpt lat="44.25116" lon="5.92582">
        <ele>497.6196289</ele>
        <time>2016-02-05T11:41:51Z</time>
      </trkpt>
      <trkpt lat="44.25142" lon="5.92645">
        <ele>499.5422363</ele>
        <time>2016-02-05T11:42:10Z</time>
      </trkpt>
      <trkpt lat="44.25173" lon="5.9272">
        <ele>500.0229492</ele>
        <time>2016-02-05T11:42:31Z</time>
      </trkpt>
      <trkpt lat="44.252" lon="5.92799">
        <ele>502.9067383</ele>
        <time>2016-02-05T11:42:54Z</time>
      </trkpt>
      <trkpt lat="44.25204" lon="5.92859">
        <ele>505.3101807</ele>
        <time>2016-02-05T11:43:11Z</time>
      </trkpt>
      <trkpt lat="44.25221" lon="5.9295">
        <ele>507.713501</ele>
        <time>2016-02-05T11:43:37Z</time>
      </trkpt>
      <trkpt lat="44.25225" lon="5.92959">
        <ele>508.1940918</ele>
        <time>2016-02-05T11:43:40Z</time>
      </trkpt>
      <trkpt lat="44.25261" lon="5.92976">
        <ele>511.0780029</ele>
        <time>2016-02-05T11:43:56Z</time>
      </trkpt>
      <trkpt lat="44.25296" lon="5.93003">
        <ele>513.4814453</ele>
        <time>2016-02-05T11:44:16Z</time>
      </trkpt>
      <trkpt lat="44.25331" lon="5.9302">
        <ele>517.3266602</ele>
        <time>2016-02-05T11:44:36Z</time>
      </trkpt>
      <trkpt lat="44.25374" lon="5.93019">
        <ele>519.7298584</ele>
        <time>2016-02-05T11:44:57Z</time>
      </trkpt>
      <trkpt lat="44.25409" lon="5.93009">
        <ele>521.6525879</ele>
        <time>2016-02-05T11:45:15Z</time>
      </trkpt>
      <trkpt lat="44.2544" lon="5.93001">
        <ele>523.0946045</ele>
        <time>2016-02-05T11:45:31Z</time>
      </trkpt>
      <trkpt lat="44.2548" lon="5.92993">
        <ele>525.9783936</ele>
        <time>2016-02-05T11:45:52Z</time>
      </trkpt>
      <trkpt lat="44.2552" lon="5.92986">
        <ele>528.3818359</ele>
        <time>2016-02-05T11:46:13Z</time>
      </trkpt>
      <trkpt lat="44.25573" lon="5.92982">
        <ele>528.8625488</ele>
        <time>2016-02-05T11:46:32Z</time>
      </trkpt>
      <trkpt lat="44.25619" lon="5.92975">
        <ele>529.8237305</ele>
        <time>2016-02-05T11:46:47Z</time>
      </trkpt>
      <trkpt lat="44.25631" lon="5.92973">
        <ele>528.3818359</ele>
        <time>2016-02-05T11:47:01Z</time>
      </trkpt>
      <trkpt lat="44.25631" lon="5.92973">
        <ele>528.3818359</ele>
        <time>2016-02-05T11:47:46Z</time>
      </trkpt>
      <trkpt lat="44.25631" lon="5.92973">
        <ele>526.9398193</ele>
        <time>2016-02-05T11:48:03Z</time>
      </trkpt>
      <trkpt lat="44.25633" lon="5.92971">
        <ele>530.3044434</ele>
        <time>2016-02-05T11:48:35Z</time>
      </trkpt>
      <trkpt lat="44.25669" lon="5.92955">
        <ele>528.8625488</ele>
        <time>2016-02-05T11:48:49Z</time>
      </trkpt>
      <trkpt lat="44.25713" lon="5.92937">
        <ele>529.8237305</ele>
        <time>2016-02-05T11:49:02Z</time>
      </trkpt>
      <trkpt lat="44.2575" lon="5.9292">
        <ele>529.3431396</ele>
        <time>2016-02-05T11:49:13Z</time>
      </trkpt>
      <trkpt lat="44.25819" lon="5.92889">
        <ele>529.8237305</ele>
        <time>2016-02-05T11:49:34Z</time>
      </trkpt>
      <trkpt lat="44.25856" lon="5.92877">
        <ele>529.8237305</ele>
        <time>2016-02-05T11:49:45Z</time>
      </trkpt>
      <trkpt lat="44.25866" lon="5.92875">
        <ele>532.2270508</ele>
        <time>2016-02-05T11:49:48Z</time>
      </trkpt>
      <trkpt lat="44.25929" lon="5.92865">
        <ele>531.7463379</ele>
        <time>2016-02-05T11:50:06Z</time>
      </trkpt>
      <trkpt lat="44.2601" lon="5.92889">
        <ele>531.2657471</ele>
        <time>2016-02-05T11:50:29Z</time>
      </trkpt>
      <trkpt lat="44.26095" lon="5.92935">
        <ele>532.7077637</ele>
        <time>2016-02-05T11:50:55Z</time>
      </trkpt>
      <trkpt lat="44.26156" lon="5.92955">
        <ele>535.1109619</ele>
        <time>2016-02-05T11:51:14Z</time>
      </trkpt>
      <trkpt lat="44.26246" lon="5.92956">
        <ele>535.5915527</ele>
        <time>2016-02-05T11:51:42Z</time>
      </trkpt>
      <trkpt lat="44.26313" lon="5.92956">
        <ele>535.5915527</ele>
        <time>2016-02-05T11:52:02Z</time>
      </trkpt>
      <trkpt lat="44.26418" lon="5.92959">
        <ele>537.5142822</ele>
        <time>2016-02-05T11:52:31Z</time>
      </trkpt>
      <trkpt lat="44.26494" lon="5.92957">
        <ele>537.0336914</ele>
        <time>2016-02-05T11:52:53Z</time>
      </trkpt>
      <trkpt lat="44.26573" lon="5.92962">
        <ele>537.5142822</ele>
        <time>2016-02-05T11:53:15Z</time>
      </trkpt>
      <trkpt lat="44.26663" lon="5.92983">
        <ele>537.0336914</ele>
        <time>2016-02-05T11:53:41Z</time>
      </trkpt>
      <trkpt lat="44.26734" lon="5.93004">
        <ele>537.5142822</ele>
        <time>2016-02-05T11:54:01Z</time>
      </trkpt>
      <trkpt lat="44.26823" lon="5.93028">
        <ele>538.475708</ele>
        <time>2016-02-05T11:54:26Z</time>
      </trkpt>
      <trkpt lat="44.26902" lon="5.93079">
        <ele>538.475708</ele>
        <time>2016-02-05T11:54:50Z</time>
      </trkpt>
      <trkpt lat="44.2696" lon="5.93102">
        <ele>538.9562988</ele>
        <time>2016-02-05T11:55:10Z</time>
      </trkpt>
      <trkpt lat="44.27025" lon="5.93127">
        <ele>539.9176025</ele>
        <time>2016-02-05T11:55:31Z</time>
      </trkpt>
      <trkpt lat="44.27089" lon="5.93149">
        <ele>539.9176025</ele>
        <time>2016-02-05T11:55:50Z</time>
      </trkpt>
      <trkpt lat="44.27173" lon="5.93174">
        <ele>540.3983154</ele>
        <time>2016-02-05T11:56:15Z</time>
      </trkpt>
      <trkpt lat="44.27262" lon="5.932">
        <ele>540.3983154</ele>
        <time>2016-02-05T11:56:41Z</time>
      </trkpt>
      <trkpt lat="44.27346" lon="5.93216">
        <ele>540.8789063</ele>
        <time>2016-02-05T11:57:04Z</time>
      </trkpt>
      <trkpt lat="44.27421" lon="5.93231">
        <ele>540.8789063</ele>
        <time>2016-02-05T11:57:26Z</time>
      </trkpt>
      <trkpt lat="44.27506" lon="5.93241">
        <ele>542.3209229</ele>
        <time>2016-02-05T11:57:50Z</time>
      </trkpt>
      <trkpt lat="44.27587" lon="5.93253">
        <ele>542.3209229</ele>
        <time>2016-02-05T11:58:13Z</time>
      </trkpt>
      <trkpt lat="44.27663" lon="5.9329">
        <ele>542.8015137</ele>
        <time>2016-02-05T11:58:36Z</time>
      </trkpt>
      <trkpt lat="44.27727" lon="5.93301">
        <ele>543.7628174</ele>
        <time>2016-02-05T11:58:53Z</time>
      </trkpt>
      <trkpt lat="44.27792" lon="5.93311">
        <ele>544.2436523</ele>
        <time>2016-02-05T11:59:12Z</time>
      </trkpt>
      <trkpt lat="44.27871" lon="5.93338">
        <ele>545.204834</ele>
        <time>2016-02-05T11:59:35Z</time>
      </trkpt>
      <trkpt lat="44.27946" lon="5.93362">
        <ele>545.204834</ele>
        <time>2016-02-05T11:59:57Z</time>
      </trkpt>
      <trkpt lat="44.28012" lon="5.9338">
        <ele>545.6855469</ele>
        <time>2016-02-05T12:00:16Z</time>
      </trkpt>
      <trkpt lat="44.28095" lon="5.93403">
        <ele>546.1662598</ele>
        <time>2016-02-05T12:00:41Z</time>
      </trkpt>
      <trkpt lat="44.28192" lon="5.93417">
        <ele>546.6468506</ele>
        <time>2016-02-05T12:01:09Z</time>
      </trkpt>
      <trkpt lat="44.28257" lon="5.93426">
        <ele>546.1662598</ele>
        <time>2016-02-05T12:01:27Z</time>
      </trkpt>
      <trkpt lat="44.28327" lon="5.93436">
        <ele>546.6468506</ele>
        <time>2016-02-05T12:01:46Z</time>
      </trkpt>
      <trkpt lat="44.28396" lon="5.93445">
        <ele>547.1274414</ele>
        <time>2016-02-05T12:02:06Z</time>
      </trkpt>
      <trkpt lat="44.28494" lon="5.93441">
        <ele>547.6081543</ele>
        <time>2016-02-05T12:02:34Z</time>
      </trkpt>
      <trkpt lat="44.28554" lon="5.93436">
        <ele>547.6081543</ele>
        <time>2016-02-05T12:02:53Z</time>
      </trkpt>
      <trkpt lat="44.28617" lon="5.93425">
        <ele>548.0888672</ele>
        <time>2016-02-05T12:03:14Z</time>
      </trkpt>
      <trkpt lat="44.2869" lon="5.93411">
        <ele>548.5693359</ele>
        <time>2016-02-05T12:03:39Z</time>
      </trkpt>
      <trkpt lat="44.28782" lon="5.93396">
        <ele>549.0500488</ele>
        <time>2016-02-05T12:04:07Z</time>
      </trkpt>
      <trkpt lat="44.28869" lon="5.93389">
        <ele>549.5307617</ele>
        <time>2016-02-05T12:04:33Z</time>
      </trkpt>
      <trkpt lat="44.28952" lon="5.9339">
        <ele>551.934082</ele>
        <time>2016-02-05T12:04:58Z</time>
      </trkpt>
      <trkpt lat="44.28959" lon="5.9339">
        <ele>552.4145508</ele>
        <time>2016-02-05T12:05:00Z</time>
      </trkpt>
      <trkpt lat="44.29042" lon="5.93394">
        <ele>550.4921875</ele>
        <time>2016-02-05T12:05:23Z</time>
      </trkpt>
      <trkpt lat="44.29125" lon="5.93399">
        <ele>550.9726563</ele>
        <time>2016-02-05T12:05:47Z</time>
      </trkpt>
      <trkpt lat="44.29212" lon="5.93385">
        <ele>551.934082</ele>
        <time>2016-02-05T12:06:12Z</time>
      </trkpt>
      <trkpt lat="44.29291" lon="5.93371">
        <ele>552.8952637</ele>
        <time>2016-02-05T12:06:35Z</time>
      </trkpt>
      <trkpt lat="44.29369" lon="5.9337">
        <ele>550.4921875</ele>
        <time>2016-02-05T12:06:57Z</time>
      </trkpt>
      <trkpt lat="44.29374" lon="5.9337">
        <ele>550.4921875</ele>
        <time>2016-02-05T12:06:58Z</time>
      </trkpt>
      <trkpt lat="44.29379" lon="5.9337">
        <ele>550.4921875</ele>
        <time>2016-02-05T12:06:59Z</time>
      </trkpt>
      <trkpt lat="44.29409" lon="5.93373">
        <ele>549.5307617</ele>
        <time>2016-02-05T12:07:04Z</time>
      </trkpt>
      <trkpt lat="44.29469" lon="5.93396">
        <ele>546.6468506</ele>
        <time>2016-02-05T12:07:12Z</time>
      </trkpt>
      <trkpt lat="44.29487" lon="5.93398">
        <ele>545.204834</ele>
        <time>2016-02-05T12:07:14Z</time>
      </trkpt>
      <trkpt lat="44.29583" lon="5.93384">
        <ele>541.84021</ele>
        <time>2016-02-05T12:07:25Z</time>
      </trkpt>
      <trkpt lat="44.29591" lon="5.93383">
        <ele>541.84021</ele>
        <time>2016-02-05T12:07:26Z</time>
      </trkpt>
      <trkpt lat="44.2964" lon="5.93375">
        <ele>538.475708</ele>
        <time>2016-02-05T12:07:32Z</time>
      </trkpt>
      <trkpt lat="44.29648" lon="5.93374">
        <ele>538.475708</ele>
        <time>2016-02-05T12:07:33Z</time>
      </trkpt>
      <trkpt lat="44.29767" lon="5.93358">
        <ele>535.5915527</ele>
        <time>2016-02-05T12:07:51Z</time>
      </trkpt>
      <trkpt lat="44.29837" lon="5.93338">
        <ele>534.1496582</ele>
        <time>2016-02-05T12:08:08Z</time>
      </trkpt>
      <trkpt lat="44.29921" lon="5.93315">
        <ele>533.1883545</ele>
        <time>2016-02-05T12:08:30Z</time>
      </trkpt>
      <trkpt lat="44.29978" lon="5.93323">
        <ele>534.1496582</ele>
        <time>2016-02-05T12:08:48Z</time>
      </trkpt>
      <trkpt lat="44.30045" lon="5.93344">
        <ele>535.1109619</ele>
        <time>2016-02-05T12:09:11Z</time>
      </trkpt>
      <trkpt lat="44.30121" lon="5.93335">
        <ele>533.6689453</ele>
        <time>2016-02-05T12:09:31Z</time>
      </trkpt>
      <trkpt lat="44.3018" lon="5.93324">
        <ele>532.7077637</ele>
        <time>2016-02-05T12:09:47Z</time>
      </trkpt>
      <trkpt lat="44.30249" lon="5.93318">
        <ele>531.2657471</ele>
        <time>2016-02-05T12:10:06Z</time>
      </trkpt>
      <trkpt lat="44.30251" lon="5.93319">
        <ele>530.7851563</ele>
        <time>2016-02-05T12:10:19Z</time>
      </trkpt>
      <trkpt lat="44.30253" lon="5.9332">
        <ele>531.2657471</ele>
        <time>2016-02-05T12:12:29Z</time>
      </trkpt>
      <trkpt lat="44.30293" lon="5.93309">
        <ele>532.2270508</ele>
        <time>2016-02-05T12:12:44Z</time>
      </trkpt>
      <trkpt lat="44.30355" lon="5.93285">
        <ele>532.2270508</ele>
        <time>2016-02-05T12:13:03Z</time>
      </trkpt>
      <trkpt lat="44.30443" lon="5.93251">
        <ele>532.2270508</ele>
        <time>2016-02-05T12:13:31Z</time>
      </trkpt>
      <trkpt lat="44.30519" lon="5.93223">
        <ele>532.2270508</ele>
        <time>2016-02-05T12:13:55Z</time>
      </trkpt>
      <trkpt lat="44.30587" lon="5.93198">
        <ele>533.1883545</ele>
        <time>2016-02-05T12:14:17Z</time>
      </trkpt>
      <trkpt lat="44.3066" lon="5.93159">
        <ele>532.7077637</ele>
        <time>2016-02-05T12:14:41Z</time>
      </trkpt>
      <trkpt lat="44.30729" lon="5.93119">
        <ele>531.7463379</ele>
        <time>2016-02-05T12:15:01Z</time>
      </trkpt>
      <trkpt lat="44.30803" lon="5.93079">
        <ele>531.2657471</ele>
        <time>2016-02-05T12:15:23Z</time>
      </trkpt>
      <trkpt lat="44.30896" lon="5.93028">
        <ele>531.7463379</ele>
        <time>2016-02-05T12:15:53Z</time>
      </trkpt>
      <trkpt lat="44.30955" lon="5.92997">
        <ele>532.7077637</ele>
        <time>2016-02-05T12:16:14Z</time>
      </trkpt>
      <trkpt lat="44.30996" lon="5.92974">
        <ele>534.6303711</ele>
        <time>2016-02-05T12:16:34Z</time>
      </trkpt>
      <trkpt lat="44.31035" lon="5.92949">
        <ele>537.0336914</ele>
        <time>2016-02-05T12:16:55Z</time>
      </trkpt>
      <trkpt lat="44.31088" lon="5.92918">
        <ele>537.0336914</ele>
        <time>2016-02-05T12:17:16Z</time>
      </trkpt>
      <trkpt lat="44.3111" lon="5.92907">
        <ele>536.5531006</ele>
        <time>2016-02-05T12:17:22Z</time>
      </trkpt>
      <trkpt lat="44.31149" lon="5.92915">
        <ele>535.1109619</ele>
        <time>2016-02-05T12:17:30Z</time>
      </trkpt>
      <trkpt lat="44.31166" lon="5.92933">
        <ele>533.6689453</ele>
        <time>2016-02-05T12:17:34Z</time>
      </trkpt>
      <trkpt lat="44.31183" lon="5.92949">
        <ele>533.1883545</ele>
        <time>2016-02-05T12:17:38Z</time>
      </trkpt>
      <trkpt lat="44.31207" lon="5.9297">
        <ele>533.1883545</ele>
        <time>2016-02-05T12:17:44Z</time>
      </trkpt>
      <trkpt lat="44.31233" lon="5.93013">
        <ele>532.7077637</ele>
        <time>2016-02-05T12:17:54Z</time>
      </trkpt>
      <trkpt lat="44.31255" lon="5.93008">
        <ele>532.2270508</ele>
        <time>2016-02-05T12:18:01Z</time>
      </trkpt>
      <trkpt lat="44.31272" lon="5.9298">
        <ele>533.1883545</ele>
        <time>2016-02-05T12:18:15Z</time>
      </trkpt>
      <trkpt lat="44.31272" lon="5.9293">
        <ele>534.1496582</ele>
        <time>2016-02-05T12:18:30Z</time>
      </trkpt>
      <trkpt lat="44.31243" lon="5.92881">
        <ele>536.0723877</ele>
        <time>2016-02-05T12:18:50Z</time>
      </trkpt>
      <trkpt lat="44.31252" lon="5.9284">
        <ele>536.5531006</ele>
        <time>2016-02-05T12:19:05Z</time>
      </trkpt>
      <trkpt lat="44.31268" lon="5.92797">
        <ele>537.9949951</ele>
        <time>2016-02-05T12:19:22Z</time>
      </trkpt>
      <trkpt lat="44.31298" lon="5.9277">
        <ele>539.4368896</ele>
        <time>2016-02-05T12:19:38Z</time>
      </trkpt>
      <trkpt lat="44.31329" lon="5.92757">
        <ele>539.9176025</ele>
        <time>2016-02-05T12:19:53Z</time>
      </trkpt>
      <trkpt lat="44.31355" lon="5.92741">
        <ele>539.9176025</ele>
        <time>2016-02-05T12:20:06Z</time>
      </trkpt>
      <trkpt lat="44.31401" lon="5.92708">
        <ele>540.3983154</ele>
        <time>2016-02-05T12:20:27Z</time>
      </trkpt>
      <trkpt lat="44.31445" lon="5.92688">
        <ele>541.3594971</ele>
        <time>2016-02-05T12:20:48Z</time>
      </trkpt>
      <trkpt lat="44.31481" lon="5.92661">
        <ele>542.3209229</ele>
        <time>2016-02-05T12:21:06Z</time>
      </trkpt>
      <trkpt lat="44.31516" lon="5.92643">
        <ele>542.8015137</ele>
        <time>2016-02-05T12:21:22Z</time>
      </trkpt>
      <trkpt lat="44.31549" lon="5.92614">
        <ele>544.7242432</ele>
        <time>2016-02-05T12:21:40Z</time>
      </trkpt>
      <trkpt lat="44.31568" lon="5.92593">
        <ele>544.7242432</ele>
        <time>2016-02-05T12:21:50Z</time>
      </trkpt>
      <trkpt lat="44.31589" lon="5.92562">
        <ele>546.6468506</ele>
        <time>2016-02-05T12:22:06Z</time>
      </trkpt>
      <trkpt lat="44.31611" lon="5.92516">
        <ele>548.0888672</ele>
        <time>2016-02-05T12:22:24Z</time>
      </trkpt>
      <trkpt lat="44.31635" lon="5.92474">
        <ele>549.5307617</ele>
        <time>2016-02-05T12:22:43Z</time>
      </trkpt>
      <trkpt lat="44.31638" lon="5.92464">
        <ele>550.0114746</ele>
        <time>2016-02-05T12:22:46Z</time>
      </trkpt>
      <trkpt lat="44.31668" lon="5.9242">
        <ele>551.4533691</ele>
        <time>2016-02-05T12:23:08Z</time>
      </trkpt>
      <trkpt lat="44.31692" lon="5.92392">
        <ele>553.8566895</ele>
        <time>2016-02-05T12:23:25Z</time>
      </trkpt>
      <trkpt lat="44.31721" lon="5.9236">
        <ele>554.3374023</ele>
        <time>2016-02-05T12:23:43Z</time>
      </trkpt>
      <trkpt lat="44.31762" lon="5.92354">
        <ele>555.298584</ele>
        <time>2016-02-05T12:24:03Z</time>
      </trkpt>
      <trkpt lat="44.3179" lon="5.9239">
        <ele>556.2600098</ele>
        <time>2016-02-05T12:24:23Z</time>
      </trkpt>
      <trkpt lat="44.31809" lon="5.92423">
        <ele>557.2214355</ele>
        <time>2016-02-05T12:24:42Z</time>
      </trkpt>
      <trkpt lat="44.3183" lon="5.92465">
        <ele>558.1828613</ele>
        <time>2016-02-05T12:24:59Z</time>
      </trkpt>
      <trkpt lat="44.31862" lon="5.92466">
        <ele>558.6633301</ele>
        <time>2016-02-05T12:25:15Z</time>
      </trkpt>
      <trkpt lat="44.31866" lon="5.92463">
        <ele>558.6633301</ele>
        <time>2016-02-05T12:25:17Z</time>
      </trkpt>
      <trkpt lat="44.31872" lon="5.92426">
        <ele>561.5473633</ele>
        <time>2016-02-05T12:25:33Z</time>
      </trkpt>
      <trkpt lat="44.31865" lon="5.92385">
        <ele>563.4699707</ele>
        <time>2016-02-05T12:25:52Z</time>
      </trkpt>
      <trkpt lat="44.31855" lon="5.92344">
        <ele>566.3537598</ele>
        <time>2016-02-05T12:26:11Z</time>
      </trkpt>
      <trkpt lat="44.31851" lon="5.92333">
        <ele>566.8344727</ele>
        <time>2016-02-05T12:26:17Z</time>
      </trkpt>
      <trkpt lat="44.31838" lon="5.92288">
        <ele>569.237793</ele>
        <time>2016-02-05T12:26:38Z</time>
      </trkpt>
      <trkpt lat="44.31829" lon="5.92246">
        <ele>572.1218262</ele>
        <time>2016-02-05T12:26:58Z</time>
      </trkpt>
      <trkpt lat="44.31835" lon="5.92214">
        <ele>574.0444336</ele>
        <time>2016-02-05T12:27:14Z</time>
      </trkpt>
      <trkpt lat="44.31845" lon="5.92178">
        <ele>576.4477539</ele>
        <time>2016-02-05T12:27:34Z</time>
      </trkpt>
      <trkpt lat="44.31847" lon="5.92177">
        <ele>575.967041</ele>
        <time>2016-02-05T12:27:36Z</time>
      </trkpt>
      <trkpt lat="44.31868" lon="5.9216">
        <ele>578.3703613</ele>
        <time>2016-02-05T12:27:55Z</time>
      </trkpt>
      <trkpt lat="44.31884" lon="5.92155">
        <ele>578.8510742</ele>
        <time>2016-02-05T12:28:09Z</time>
      </trkpt>
      <trkpt lat="44.31887" lon="5.92153">
        <ele>578.8510742</ele>
        <time>2016-02-05T12:28:32Z</time>
      </trkpt>
      <trkpt lat="44.31887" lon="5.92152">
        <ele>578.8510742</ele>
        <time>2016-02-05T12:28:55Z</time>
      </trkpt>
      <trkpt lat="44.3189" lon="5.92149">
        <ele>579.331543</ele>
        <time>2016-02-05T12:28:58Z</time>
      </trkpt>
      <trkpt lat="44.31914" lon="5.9213">
        <ele>579.331543</ele>
        <time>2016-02-05T12:29:14Z</time>
      </trkpt>
      <trkpt lat="44.31965" lon="5.92092">
        <ele>579.8122559</ele>
        <time>2016-02-05T12:29:35Z</time>
      </trkpt>
      <trkpt lat="44.32028" lon="5.92057">
        <ele>579.8122559</ele>
        <time>2016-02-05T12:29:59Z</time>
      </trkpt>
      <trkpt lat="44.32089" lon="5.92067">
        <ele>579.8122559</ele>
        <time>2016-02-05T12:30:20Z</time>
      </trkpt>
      <trkpt lat="44.32169" lon="5.92082">
        <ele>580.2929688</ele>
        <time>2016-02-05T12:30:47Z</time>
      </trkpt>
      <trkpt lat="44.3223" lon="5.92093">
        <ele>580.2929688</ele>
        <time>2016-02-05T12:31:08Z</time>
      </trkpt>
      <trkpt lat="44.32308" lon="5.92108">
        <ele>581.7348633</ele>
        <time>2016-02-05T12:31:36Z</time>
      </trkpt>
      <trkpt lat="44.3237" lon="5.92106">
        <ele>581.2543945</ele>
        <time>2016-02-05T12:31:59Z</time>
      </trkpt>
      <trkpt lat="44.32422" lon="5.92107">
        <ele>581.2543945</ele>
        <time>2016-02-05T12:32:18Z</time>
      </trkpt>
      <trkpt lat="44.32487" lon="5.92107">
        <ele>581.7348633</ele>
        <time>2016-02-05T12:32:40Z</time>
      </trkpt>
      <trkpt lat="44.32594" lon="5.92104">
        <ele>582.2155762</ele>
        <time>2016-02-05T12:33:17Z</time>
      </trkpt>
      <trkpt lat="44.32706" lon="5.92101">
        <ele>584.1381836</ele>
        <time>2016-02-05T12:33:55Z</time>
      </trkpt>
      <trkpt lat="44.32755" lon="5.92106">
        <ele>583.6574707</ele>
        <time>2016-02-05T12:34:10Z</time>
      </trkpt>
      <trkpt lat="44.32759" lon="5.92106">
        <ele>583.6574707</ele>
        <time>2016-02-05T12:34:11Z</time>
      </trkpt>
      <trkpt lat="44.32841" lon="5.92109">
        <ele>582.2155762</ele>
        <time>2016-02-05T12:34:31Z</time>
      </trkpt>
      <trkpt lat="44.32909" lon="5.92119">
        <ele>580.7736816</ele>
        <time>2016-02-05T12:34:48Z</time>
      </trkpt>
      <trkpt lat="44.32986" lon="5.92167">
        <ele>580.2929688</ele>
        <time>2016-02-05T12:35:10Z</time>
      </trkpt>
      <trkpt lat="44.33049" lon="5.92221">
        <ele>579.331543</ele>
        <time>2016-02-05T12:35:30Z</time>
      </trkpt>
      <trkpt lat="44.33124" lon="5.92274">
        <ele>579.331543</ele>
        <time>2016-02-05T12:35:52Z</time>
      </trkpt>
      <trkpt lat="44.33165" lon="5.92302">
        <ele>580.2929688</ele>
        <time>2016-02-05T12:36:05Z</time>
      </trkpt>
      <trkpt lat="44.33221" lon="5.92339">
        <ele>579.8122559</ele>
        <time>2016-02-05T12:36:25Z</time>
      </trkpt>
      <trkpt lat="44.33278" lon="5.92377">
        <ele>579.331543</ele>
        <time>2016-02-05T12:36:45Z</time>
      </trkpt>
      <trkpt lat="44.33345" lon="5.9242">
        <ele>579.331543</ele>
        <time>2016-02-05T12:37:08Z</time>
      </trkpt>
      <trkpt lat="44.33412" lon="5.92467">
        <ele>579.331543</ele>
        <time>2016-02-05T12:37:32Z</time>
      </trkpt>
      <trkpt lat="44.33471" lon="5.92506">
        <ele>580.7736816</ele>
        <time>2016-02-05T12:37:56Z</time>
      </trkpt>
      <trkpt lat="44.33523" lon="5.92567">
        <ele>580.7736816</ele>
        <time>2016-02-05T12:38:18Z</time>
      </trkpt>
      <trkpt lat="44.33572" lon="5.92633">
        <ele>582.2155762</ele>
        <time>2016-02-05T12:38:41Z</time>
      </trkpt>
      <trkpt lat="44.33604" lon="5.92682">
        <ele>582.6962891</ele>
        <time>2016-02-05T12:38:58Z</time>
      </trkpt>
      <trkpt lat="44.33655" lon="5.92767">
        <ele>582.6962891</ele>
        <time>2016-02-05T12:39:22Z</time>
      </trkpt>
      <trkpt lat="44.3371" lon="5.92863">
        <ele>582.6962891</ele>
        <time>2016-02-05T12:39:46Z</time>
      </trkpt>
      <trkpt lat="44.33774" lon="5.92934">
        <ele>583.1767578</ele>
        <time>2016-02-05T12:40:09Z</time>
      </trkpt>
      <trkpt lat="44.33845" lon="5.93007">
        <ele>583.1767578</ele>
        <time>2016-02-05T12:40:34Z</time>
      </trkpt>
      <trkpt lat="44.33917" lon="5.93061">
        <ele>583.6574707</ele>
        <time>2016-02-05T12:40:58Z</time>
      </trkpt>
      <trkpt lat="44.33984" lon="5.93086">
        <ele>581.2543945</ele>
        <time>2016-02-05T12:41:15Z</time>
      </trkpt>
      <trkpt lat="44.34062" lon="5.93117">
        <ele>581.2543945</ele>
        <time>2016-02-05T12:41:36Z</time>
      </trkpt>
      <trkpt lat="44.34147" lon="5.93147">
        <ele>580.7736816</ele>
        <time>2016-02-05T12:42:00Z</time>
      </trkpt>
      <trkpt lat="44.34221" lon="5.93174">
        <ele>580.2929688</ele>
        <time>2016-02-05T12:42:22Z</time>
      </trkpt>
      <trkpt lat="44.343" lon="5.93205">
        <ele>580.7736816</ele>
        <time>2016-02-05T12:42:46Z</time>
      </trkpt>
      <trkpt lat="44.34365" lon="5.9323">
        <ele>579.331543</ele>
        <time>2016-02-05T12:43:05Z</time>
      </trkpt>
      <trkpt lat="44.34398" lon="5.93242">
        <ele>578.3703613</ele>
        <time>2016-02-05T12:43:14Z</time>
      </trkpt>
      <trkpt lat="44.34429" lon="5.9328">
        <ele>577.4091797</ele>
        <time>2016-02-05T12:43:23Z</time>
      </trkpt>
      <trkpt lat="44.3444" lon="5.93317">
        <ele>576.9284668</ele>
        <time>2016-02-05T12:43:28Z</time>
      </trkpt>
      <trkpt lat="44.34446" lon="5.93351">
        <ele>575.4863281</ele>
        <time>2016-02-05T12:43:32Z</time>
      </trkpt>
      <trkpt lat="44.34446" lon="5.93369">
        <ele>574.5251465</ele>
        <time>2016-02-05T12:43:34Z</time>
      </trkpt>
      <trkpt lat="44.34444" lon="5.93387">
        <ele>573.5639648</ele>
        <time>2016-02-05T12:43:36Z</time>
      </trkpt>
      <trkpt lat="44.3443" lon="5.93431">
        <ele>573.083252</ele>
        <time>2016-02-05T12:43:41Z</time>
      </trkpt>
      <trkpt lat="44.34423" lon="5.93445">
        <ele>571.6408691</ele>
        <time>2016-02-05T12:43:43Z</time>
      </trkpt>
      <trkpt lat="44.34415" lon="5.93465">
        <ele>569.7185059</ele>
        <time>2016-02-05T12:43:46Z</time>
      </trkpt>
      <trkpt lat="44.34422" lon="5.93508">
        <ele>569.237793</ele>
        <time>2016-02-05T12:43:53Z</time>
      </trkpt>
      <trkpt lat="44.3448" lon="5.93527">
        <ele>568.2763672</ele>
        <time>2016-02-05T12:44:07Z</time>
      </trkpt>
      <trkpt lat="44.34515" lon="5.93507">
        <ele>571.1604004</ele>
        <time>2016-02-05T12:44:25Z</time>
      </trkpt>
      <trkpt lat="44.34555" lon="5.93483">
        <ele>572.1218262</ele>
        <time>2016-02-05T12:44:44Z</time>
      </trkpt>
      <trkpt lat="44.34593" lon="5.93462">
        <ele>573.5639648</ele>
        <time>2016-02-05T12:45:03Z</time>
      </trkpt>
      <trkpt lat="44.34642" lon="5.9346">
        <ele>575.967041</ele>
        <time>2016-02-05T12:45:25Z</time>
      </trkpt>
      <trkpt lat="44.34683" lon="5.93502">
        <ele>577.4091797</ele>
        <time>2016-02-05T12:45:45Z</time>
      </trkpt>
      <trkpt lat="44.34736" lon="5.93561">
        <ele>578.8510742</ele>
        <time>2016-02-05T12:46:11Z</time>
      </trkpt>
      <trkpt lat="44.34776" lon="5.93604">
        <ele>579.331543</ele>
        <time>2016-02-05T12:46:31Z</time>
      </trkpt>
      <trkpt lat="44.34818" lon="5.93647">
        <ele>579.8122559</ele>
        <time>2016-02-05T12:46:51Z</time>
      </trkpt>
      <trkpt lat="44.3486" lon="5.93682">
        <ele>578.8510742</ele>
        <time>2016-02-05T12:47:05Z</time>
      </trkpt>
      <trkpt lat="44.34902" lon="5.93709">
        <ele>577.4091797</ele>
        <time>2016-02-05T12:47:15Z</time>
      </trkpt>
      <trkpt lat="44.3494" lon="5.93734">
        <ele>577.8896484</ele>
        <time>2016-02-05T12:47:27Z</time>
      </trkpt>
      <trkpt lat="44.34967" lon="5.93751">
        <ele>580.7736816</ele>
        <time>2016-02-05T12:47:41Z</time>
      </trkpt>
      <trkpt lat="44.35017" lon="5.93776">
        <ele>582.2155762</ele>
        <time>2016-02-05T12:48:04Z</time>
      </trkpt>
      <trkpt lat="44.35042" lon="5.93787">
        <ele>580.7736816</ele>
        <time>2016-02-05T12:48:12Z</time>
      </trkpt>
      <trkpt lat="44.35116" lon="5.93834">
        <ele>579.8122559</ele>
        <time>2016-02-05T12:48:34Z</time>
      </trkpt>
      <trkpt lat="44.35163" lon="5.93865">
        <ele>579.8122559</ele>
        <time>2016-02-05T12:48:53Z</time>
      </trkpt>
      <trkpt lat="44.35201" lon="5.93892">
        <ele>580.7736816</ele>
        <time>2016-02-05T12:49:11Z</time>
      </trkpt>
      <trkpt lat="44.35266" lon="5.93934">
        <ele>579.331543</ele>
        <time>2016-02-05T12:49:30Z</time>
      </trkpt>
      <trkpt lat="44.35336" lon="5.93975">
        <ele>578.8510742</ele>
        <time>2016-02-05T12:49:52Z</time>
      </trkpt>
      <trkpt lat="44.35372" lon="5.93996">
        <ele>579.331543</ele>
        <time>2016-02-05T12:50:02Z</time>
      </trkpt>
      <trkpt lat="44.35399" lon="5.9401">
        <ele>578.3703613</ele>
        <time>2016-02-05T12:50:08Z</time>
      </trkpt>
      <trkpt lat="44.35413" lon="5.9402">
        <ele>577.4091797</ele>
        <time>2016-02-05T12:50:11Z</time>
      </trkpt>
      <trkpt lat="44.35433" lon="5.94037">
        <ele>575.4863281</ele>
        <time>2016-02-05T12:50:15Z</time>
      </trkpt>
      <trkpt lat="44.35454" lon="5.94049">
        <ele>575.0058594</ele>
        <time>2016-02-05T12:50:19Z</time>
      </trkpt>
      <trkpt lat="44.35493" lon="5.94047">
        <ele>575.967041</ele>
        <time>2016-02-05T12:50:32Z</time>
      </trkpt>
      <trkpt lat="44.35538" lon="5.94048">
        <ele>578.3703613</ele>
        <time>2016-02-05T12:50:52Z</time>
      </trkpt>
      <trkpt lat="44.35582" lon="5.94069">
        <ele>580.7736816</ele>
        <time>2016-02-05T12:51:12Z</time>
      </trkpt>
      <trkpt lat="44.35623" lon="5.94094">
        <ele>580.7736816</ele>
        <time>2016-02-05T12:51:27Z</time>
      </trkpt>
      <trkpt lat="44.35686" lon="5.94128">
        <ele>580.2929688</ele>
        <time>2016-02-05T12:51:49Z</time>
      </trkpt>
      <trkpt lat="44.35737" lon="5.94156">
        <ele>582.2155762</ele>
        <time>2016-02-05T12:52:09Z</time>
      </trkpt>
      <trkpt lat="44.35806" lon="5.94206">
        <ele>580.2929688</ele>
        <time>2016-02-05T12:52:32Z</time>
      </trkpt>
      <trkpt lat="44.35866" lon="5.94276">
        <ele>578.3703613</ele>
        <time>2016-02-05T12:52:51Z</time>
      </trkpt>
      <trkpt lat="44.35885" lon="5.94309">
        <ele>577.4091797</ele>
        <time>2016-02-05T12:52:57Z</time>
      </trkpt>
      <trkpt lat="44.35898" lon="5.94327">
        <ele>576.4477539</ele>
        <time>2016-02-05T12:53:00Z</time>
      </trkpt>
      <trkpt lat="44.35942" lon="5.9437">
        <ele>576.9284668</ele>
        <time>2016-02-05T12:53:13Z</time>
      </trkpt>
      <trkpt lat="44.35972" lon="5.94422">
        <ele>575.0058594</ele>
        <time>2016-02-05T12:53:24Z</time>
      </trkpt>
      <trkpt lat="44.35984" lon="5.94434">
        <ele>575.0058594</ele>
        <time>2016-02-05T12:53:27Z</time>
      </trkpt>
      <trkpt lat="44.36028" lon="5.94453">
        <ele>575.4863281</ele>
        <time>2016-02-05T12:53:42Z</time>
      </trkpt>
      <trkpt lat="44.36089" lon="5.9447">
        <ele>574.5251465</ele>
        <time>2016-02-05T12:53:57Z</time>
      </trkpt>
      <trkpt lat="44.36101" lon="5.94473">
        <ele>573.5639648</ele>
        <time>2016-02-05T12:53:59Z</time>
      </trkpt>
      <trkpt lat="44.36138" lon="5.94482">
        <ele>570.6796875</ele>
        <time>2016-02-05T12:54:04Z</time>
      </trkpt>
      <trkpt lat="44.36146" lon="5.94485">
        <ele>568.7570801</ele>
        <time>2016-02-05T12:54:05Z</time>
      </trkpt>
      <trkpt lat="44.36169" lon="5.94501">
        <ele>567.7956543</ele>
        <time>2016-02-05T12:54:08Z</time>
      </trkpt>
      <trkpt lat="44.36181" lon="5.94517">
        <ele>563.9504395</ele>
        <time>2016-02-05T12:54:10Z</time>
      </trkpt>
      <trkpt lat="44.36236" lon="5.94551">
        <ele>562.0280762</ele>
        <time>2016-02-05T12:54:18Z</time>
      </trkpt>
      <trkpt lat="44.36276" lon="5.94551">
        <ele>562.9892578</ele>
        <time>2016-02-05T12:54:28Z</time>
      </trkpt>
      <trkpt lat="44.36305" lon="5.94558">
        <ele>565.3925781</ele>
        <time>2016-02-05T12:54:43Z</time>
      </trkpt>
      <trkpt lat="44.36324" lon="5.94572">
        <ele>569.237793</ele>
        <time>2016-02-05T12:54:56Z</time>
      </trkpt>
      <trkpt lat="44.36325" lon="5.94572">
        <ele>569.237793</ele>
        <time>2016-02-05T12:54:57Z</time>
      </trkpt>
      <trkpt lat="44.36359" lon="5.94587">
        <ele>571.1604004</ele>
        <time>2016-02-05T12:55:16Z</time>
      </trkpt>
      <trkpt lat="44.36395" lon="5.94621">
        <ele>571.6408691</ele>
        <time>2016-02-05T12:55:34Z</time>
      </trkpt>
      <trkpt lat="44.36445" lon="5.94663">
        <ele>571.6408691</ele>
        <time>2016-02-05T12:55:56Z</time>
      </trkpt>
      <trkpt lat="44.36487" lon="5.9468">
        <ele>572.1218262</ele>
        <time>2016-02-05T12:56:09Z</time>
      </trkpt>
      <trkpt lat="44.36498" lon="5.94681">
        <ele>570.6796875</ele>
        <time>2016-02-05T12:56:11Z</time>
      </trkpt>
      <trkpt lat="44.36563" lon="5.94675">
        <ele>567.7956543</ele>
        <time>2016-02-05T12:56:21Z</time>
      </trkpt>
      <trkpt lat="44.36622" lon="5.94679">
        <ele>563.9504395</ele>
        <time>2016-02-05T12:56:29Z</time>
      </trkpt>
      <trkpt lat="44.3663" lon="5.94682">
        <ele>563.9504395</ele>
        <time>2016-02-05T12:56:30Z</time>
      </trkpt>
      <trkpt lat="44.36648" lon="5.94689">
        <ele>562.0280762</ele>
        <time>2016-02-05T12:56:32Z</time>
      </trkpt>
      <trkpt lat="44.36702" lon="5.94713">
        <ele>560.5859375</ele>
        <time>2016-02-05T12:56:39Z</time>
      </trkpt>
      <trkpt lat="44.36761" lon="5.94718">
        <ele>559.144043</ele>
        <time>2016-02-05T12:56:51Z</time>
      </trkpt>
      <trkpt lat="44.36815" lon="5.9471">
        <ele>558.6633301</ele>
        <time>2016-02-05T12:57:08Z</time>
      </trkpt>
      <trkpt lat="44.3687" lon="5.94706">
        <ele>557.7021484</ele>
        <time>2016-02-05T12:57:23Z</time>
      </trkpt>
      <trkpt lat="44.36874" lon="5.94706">
        <ele>557.7021484</ele>
        <time>2016-02-05T12:57:24Z</time>
      </trkpt>
      <trkpt lat="44.36903" lon="5.947">
        <ele>556.7407227</ele>
        <time>2016-02-05T12:57:34Z</time>
      </trkpt>
      <trkpt lat="44.36943" lon="5.94689">
        <ele>559.144043</ele>
        <time>2016-02-05T12:57:50Z</time>
      </trkpt>
      <trkpt lat="44.36975" lon="5.947">
        <ele>561.0666504</ele>
        <time>2016-02-05T12:58:07Z</time>
      </trkpt>
      <trkpt lat="44.37007" lon="5.94722">
        <ele>563.9504395</ele>
        <time>2016-02-05T12:58:27Z</time>
      </trkpt>
      <trkpt lat="44.37047" lon="5.94757">
        <ele>565.3925781</ele>
        <time>2016-02-05T12:58:48Z</time>
      </trkpt>
      <trkpt lat="44.37084" lon="5.94797">
        <ele>567.7956543</ele>
        <time>2016-02-05T12:59:10Z</time>
      </trkpt>
      <trkpt lat="44.37106" lon="5.94831">
        <ele>570.1989746</ele>
        <time>2016-02-05T12:59:30Z</time>
      </trkpt>
      <trkpt lat="44.37137" lon="5.94874">
        <ele>573.083252</ele>
        <time>2016-02-05T12:59:52Z</time>
      </trkpt>
      <trkpt lat="44.37175" lon="5.94901">
        <ele>575.967041</ele>
        <time>2016-02-05T13:00:14Z</time>
      </trkpt>
      <trkpt lat="44.37218" lon="5.94908">
        <ele>578.3703613</ele>
        <time>2016-02-05T13:00:37Z</time>
      </trkpt>
      <trkpt lat="44.37259" lon="5.94915">
        <ele>581.2543945</ele>
        <time>2016-02-05T13:00:59Z</time>
      </trkpt>
      <trkpt lat="44.37263" lon="5.94917">
        <ele>581.2543945</ele>
        <time>2016-02-05T13:01:01Z</time>
      </trkpt>
      <trkpt lat="44.37295" lon="5.94923">
        <ele>584.6188965</ele>
        <time>2016-02-05T13:01:20Z</time>
      </trkpt>
      <trkpt lat="44.37325" lon="5.94932">
        <ele>586.060791</ele>
        <time>2016-02-05T13:01:37Z</time>
      </trkpt>
      <trkpt lat="44.37359" lon="5.94964">
        <ele>586.060791</ele>
        <time>2016-02-05T13:01:56Z</time>
      </trkpt>
      <trkpt lat="44.37402" lon="5.95021">
        <ele>585.0996094</ele>
        <time>2016-02-05T13:02:14Z</time>
      </trkpt>
      <trkpt lat="44.37429" lon="5.95059">
        <ele>583.6574707</ele>
        <time>2016-02-05T13:02:23Z</time>
      </trkpt>
      <trkpt lat="44.37464" lon="5.95111">
        <ele>582.6962891</ele>
        <time>2016-02-05T13:02:34Z</time>
      </trkpt>
      <trkpt lat="44.37523" lon="5.95139">
        <ele>581.2543945</ele>
        <time>2016-02-05T13:02:47Z</time>
      </trkpt>
      <trkpt lat="44.37567" lon="5.95148">
        <ele>581.2543945</ele>
        <time>2016-02-05T13:03:01Z</time>
      </trkpt>
      <trkpt lat="44.37623" lon="5.95122">
        <ele>580.7736816</ele>
        <time>2016-02-05T13:03:18Z</time>
      </trkpt>
      <trkpt lat="44.3763" lon="5.95118">
        <ele>580.7736816</ele>
        <time>2016-02-05T13:03:20Z</time>
      </trkpt>
      <trkpt lat="44.37717" lon="5.95079">
        <ele>577.4091797</ele>
        <time>2016-02-05T13:03:38Z</time>
      </trkpt>
      <trkpt lat="44.37783" lon="5.95048">
        <ele>574.5251465</ele>
        <time>2016-02-05T13:03:48Z</time>
      </trkpt>
      <trkpt lat="44.37806" lon="5.95019">
        <ele>572.6025391</ele>
        <time>2016-02-05T13:03:52Z</time>
      </trkpt>
      <trkpt lat="44.37813" lon="5.94996">
        <ele>571.1604004</ele>
        <time>2016-02-05T13:03:54Z</time>
      </trkpt>
      <trkpt lat="44.37825" lon="5.94931">
        <ele>568.7570801</ele>
        <time>2016-02-05T13:03:59Z</time>
      </trkpt>
      <trkpt lat="44.3783" lon="5.94905">
        <ele>567.3151855</ele>
        <time>2016-02-05T13:04:01Z</time>
      </trkpt>
      <trkpt lat="44.37836" lon="5.94851">
        <ele>562.9892578</ele>
        <time>2016-02-05T13:04:05Z</time>
      </trkpt>
      <trkpt lat="44.37836" lon="5.9484">
        <ele>562.9892578</ele>
        <time>2016-02-05T13:04:06Z</time>
      </trkpt>
      <trkpt lat="44.37837" lon="5.94829">
        <ele>562.5085449</ele>
        <time>2016-02-05T13:04:07Z</time>
      </trkpt>
      <trkpt lat="44.37859" lon="5.94779">
        <ele>560.1052246</ele>
        <time>2016-02-05T13:04:13Z</time>
      </trkpt>
      <trkpt lat="44.37865" lon="5.94774">
        <ele>559.144043</ele>
        <time>2016-02-05T13:04:14Z</time>
      </trkpt>
      <trkpt lat="44.37878" lon="5.94763">
        <ele>558.1828613</ele>
        <time>2016-02-05T13:04:16Z</time>
      </trkpt>
      <trkpt lat="44.37903" lon="5.9473">
        <ele>557.2214355</ele>
        <time>2016-02-05T13:04:20Z</time>
      </trkpt>
      <trkpt lat="44.37914" lon="5.94712">
        <ele>556.2600098</ele>
        <time>2016-02-05T13:04:22Z</time>
      </trkpt>
      <trkpt lat="44.37942" lon="5.94682">
        <ele>554.3374023</ele>
        <time>2016-02-05T13:04:26Z</time>
      </trkpt>
      <trkpt lat="44.3799" lon="5.94663">
        <ele>552.8952637</ele>
        <time>2016-02-05T13:04:32Z</time>
      </trkpt>
      <trkpt lat="44.38027" lon="5.94611">
        <ele>550.9726563</ele>
        <time>2016-02-05T13:04:39Z</time>
      </trkpt>
      <trkpt lat="44.38038" lon="5.94575">
        <ele>549.5307617</ele>
        <time>2016-02-05T13:04:43Z</time>
      </trkpt>
      <trkpt lat="44.38063" lon="5.94489">
        <ele>549.0500488</ele>
        <time>2016-02-05T13:04:54Z</time>
      </trkpt>
      <trkpt lat="44.38069" lon="5.94471">
        <ele>548.5693359</ele>
        <time>2016-02-05T13:04:57Z</time>
      </trkpt>
      <trkpt lat="44.38101" lon="5.94429">
        <ele>547.6081543</ele>
        <time>2016-02-05T13:05:06Z</time>
      </trkpt>
      <trkpt lat="44.38177" lon="5.94376">
        <ele>546.6468506</ele>
        <time>2016-02-05T13:05:23Z</time>
      </trkpt>
      <trkpt lat="44.38187" lon="5.94365">
        <ele>546.1662598</ele>
        <time>2016-02-05T13:05:26Z</time>
      </trkpt>
      <trkpt lat="44.38243" lon="5.94286">
        <ele>546.6468506</ele>
        <time>2016-02-05T13:05:46Z</time>
      </trkpt>
      <trkpt lat="44.38271" lon="5.94232">
        <ele>547.6081543</ele>
        <time>2016-02-05T13:06:02Z</time>
      </trkpt>
      <trkpt lat="44.38301" lon="5.94175">
        <ele>548.0888672</ele>
        <time>2016-02-05T13:06:16Z</time>
      </trkpt>
      <trkpt lat="44.38332" lon="5.94148">
        <ele>550.9726563</ele>
        <time>2016-02-05T13:06:32Z</time>
      </trkpt>
      <trkpt lat="44.38358" lon="5.94185">
        <ele>552.4145508</ele>
        <time>2016-02-05T13:06:49Z</time>
      </trkpt>
      <trkpt lat="44.38379" lon="5.94229">
        <ele>555.298584</ele>
        <time>2016-02-05T13:07:08Z</time>
      </trkpt>
      <trkpt lat="44.38413" lon="5.94259">
        <ele>557.2214355</ele>
        <time>2016-02-05T13:07:27Z</time>
      </trkpt>
      <trkpt lat="44.38456" lon="5.94282">
        <ele>559.144043</ele>
        <time>2016-02-05T13:07:48Z</time>
      </trkpt>
      <trkpt lat="44.38487" lon="5.94266">
        <ele>560.5859375</ele>
        <time>2016-02-05T13:08:04Z</time>
      </trkpt>
      <trkpt lat="44.38491" lon="5.94256">
        <ele>561.0666504</ele>
        <time>2016-02-05T13:08:07Z</time>
      </trkpt>
      <trkpt lat="44.38505" lon="5.94249">
        <ele>562.0280762</ele>
        <time>2016-02-05T13:08:16Z</time>
      </trkpt>
      <trkpt lat="44.38519" lon="5.94236">
        <ele>562.0280762</ele>
        <time>2016-02-05T13:08:29Z</time>
      </trkpt>
      <trkpt lat="44.3852" lon="5.94234">
        <ele>561.0666504</ele>
        <time>2016-02-05T13:08:52Z</time>
      </trkpt>
    </trkseg>
  </trk>
  <trk>
    <name><![CDATA[N°63  Monetier/Le Poet/Lac Mison/Upaix]]></name>
    <trkseg>
      <trkpt lat="44.38602" lon="5.94066">
        <ele>637.4914551</ele>
        <time>2016-02-15T10:33:02Z</time>
      </trkpt>
      <trkpt lat="44.38623" lon="5.94082">
        <ele>636.5302734</ele>
        <time>2016-02-15T10:33:22Z</time>
      </trkpt>
      <trkpt lat="44.38623" lon="5.94072">
        <ele>637.4914551</ele>
        <time>2016-02-15T10:33:39Z</time>
      </trkpt>
      <trkpt lat="44.38614" lon="5.94049">
        <ele>637.4914551</ele>
        <time>2016-02-15T10:34:01Z</time>
      </trkpt>
      <trkpt lat="44.38617" lon="5.94048">
        <ele>637.4914551</ele>
        <time>2016-02-15T10:34:23Z</time>
      </trkpt>
      <trkpt lat="44.3861" lon="5.94054">
        <ele>637.972168</ele>
        <time>2016-02-15T10:34:50Z</time>
      </trkpt>
      <trkpt lat="44.38607" lon="5.94063">
        <ele>637.4914551</ele>
        <time>2016-02-15T10:35:09Z</time>
      </trkpt>
      <trkpt lat="44.38596" lon="5.94065">
        <ele>637.4914551</ele>
        <time>2016-02-15T10:35:13Z</time>
      </trkpt>
      <trkpt lat="44.38589" lon="5.94069">
        <ele>637.4914551</ele>
        <time>2016-02-15T10:35:16Z</time>
      </trkpt>
      <trkpt lat="44.3858" lon="5.94075">
        <ele>637.4914551</ele>
        <time>2016-02-15T10:35:22Z</time>
      </trkpt>
      <trkpt lat="44.38578" lon="5.94067">
        <ele>637.0107422</ele>
        <time>2016-02-15T10:35:27Z</time>
      </trkpt>
      <trkpt lat="44.38579" lon="5.94063">
        <ele>637.4914551</ele>
        <time>2016-02-15T10:35:29Z</time>
      </trkpt>
      <trkpt lat="44.38551" lon="5.94183">
        <ele>637.4914551</ele>
        <time>2016-02-15T10:35:47Z</time>
      </trkpt>
      <trkpt lat="44.38531" lon="5.94017">
        <ele>636.5302734</ele>
        <time>2016-02-15T10:36:05Z</time>
      </trkpt>
      <trkpt lat="44.38501" lon="5.93918">
        <ele>635.0881348</ele>
        <time>2016-02-15T10:36:17Z</time>
      </trkpt>
      <trkpt lat="44.38508" lon="5.93908">
        <ele>635.0881348</ele>
        <time>2016-02-15T10:36:26Z</time>
      </trkpt>
      <trkpt lat="44.38509" lon="5.93909">
        <ele>635.0881348</ele>
        <time>2016-02-15T10:36:40Z</time>
      </trkpt>
      <trkpt lat="44.38513" lon="5.93908">
        <ele>635.0881348</ele>
        <time>2016-02-15T10:37:09Z</time>
      </trkpt>
      <trkpt lat="44.38505" lon="5.93935">
        <ele>634.6074219</ele>
        <time>2016-02-15T10:37:14Z</time>
      </trkpt>
      <trkpt lat="44.38508" lon="5.9391">
        <ele>636.0495605</ele>
        <time>2016-02-15T10:37:22Z</time>
      </trkpt>
      <trkpt lat="44.38532" lon="5.93898">
        <ele>637.972168</ele>
        <time>2016-02-15T10:37:37Z</time>
      </trkpt>
      <trkpt lat="44.38549" lon="5.93896">
        <ele>640.3754883</ele>
        <time>2016-02-15T10:37:51Z</time>
      </trkpt>
      <trkpt lat="44.38568" lon="5.93894">
        <ele>642.2980957</ele>
        <time>2016-02-15T10:38:07Z</time>
      </trkpt>
      <trkpt lat="44.38591" lon="5.9389">
        <ele>644.7011719</ele>
        <time>2016-02-15T10:38:25Z</time>
      </trkpt>
      <trkpt lat="44.38608" lon="5.93889">
        <ele>647.1044922</ele>
        <time>2016-02-15T10:38:39Z</time>
      </trkpt>
      <trkpt lat="44.38616" lon="5.93885">
        <ele>648.065918</ele>
        <time>2016-02-15T10:38:48Z</time>
      </trkpt>
      <trkpt lat="44.38637" lon="5.93873">
        <ele>650.4692383</ele>
        <time>2016-02-15T10:39:07Z</time>
      </trkpt>
      <trkpt lat="44.38644" lon="5.9386">
        <ele>650.949707</ele>
        <time>2016-02-15T10:39:14Z</time>
      </trkpt>
      <trkpt lat="44.38674" lon="5.93816">
        <ele>651.9111328</ele>
        <time>2016-02-15T10:39:27Z</time>
      </trkpt>
      <trkpt lat="44.38678" lon="5.93807">
        <ele>652.3918457</ele>
        <time>2016-02-15T10:39:33Z</time>
      </trkpt>
      <trkpt lat="44.38693" lon="5.93768">
        <ele>654.795166</ele>
        <time>2016-02-15T10:39:56Z</time>
      </trkpt>
      <trkpt lat="44.38704" lon="5.93729">
        <ele>656.7177734</ele>
        <time>2016-02-15T10:40:13Z</time>
      </trkpt>
      <trkpt lat="44.38711" lon="5.93678">
        <ele>658.6403809</ele>
        <time>2016-02-15T10:40:32Z</time>
      </trkpt>
      <trkpt lat="44.38717" lon="5.93612">
        <ele>659.6018066</ele>
        <time>2016-02-15T10:40:53Z</time>
      </trkpt>
      <trkpt lat="44.38717" lon="5.93607">
        <ele>659.1210938</ele>
        <time>2016-02-15T10:40:55Z</time>
      </trkpt>
      <trkpt lat="44.38713" lon="5.93595">
        <ele>658.6403809</ele>
        <time>2016-02-15T10:41:00Z</time>
      </trkpt>
      <trkpt lat="44.38706" lon="5.9359">
        <ele>653.3532715</ele>
        <time>2016-02-15T10:41:03Z</time>
      </trkpt>
      <trkpt lat="44.38701" lon="5.93587">
        <ele>648.065918</ele>
        <time>2016-02-15T10:41:05Z</time>
      </trkpt>
      <trkpt lat="44.38694" lon="5.93582">
        <ele>643.2592773</ele>
        <time>2016-02-15T10:41:07Z</time>
      </trkpt>
      <trkpt lat="44.38688" lon="5.93578">
        <ele>638.4528809</ele>
        <time>2016-02-15T10:41:09Z</time>
      </trkpt>
      <trkpt lat="44.3868" lon="5.93573">
        <ele>633.6459961</ele>
        <time>2016-02-15T10:41:11Z</time>
      </trkpt>
      <trkpt lat="44.38671" lon="5.93567">
        <ele>629.3200684</ele>
        <time>2016-02-15T10:41:13Z</time>
      </trkpt>
      <trkpt lat="44.3866" lon="5.9356">
        <ele>625.4748535</ele>
        <time>2016-02-15T10:41:15Z</time>
      </trkpt>
      <trkpt lat="44.38649" lon="5.93553">
        <ele>622.1103516</ele>
        <time>2016-02-15T10:41:17Z</time>
      </trkpt>
      <trkpt lat="44.38637" lon="5.93544">
        <ele>618.7456055</ele>
        <time>2016-02-15T10:41:19Z</time>
      </trkpt>
      <trkpt lat="44.38624" lon="5.93535">
        <ele>615.3811035</ele>
        <time>2016-02-15T10:41:21Z</time>
      </trkpt>
      <trkpt lat="44.38611" lon="5.93524">
        <ele>611.5358887</ele>
        <time>2016-02-15T10:41:23Z</time>
      </trkpt>
      <trkpt lat="44.38597" lon="5.93514">
        <ele>608.6518555</ele>
        <time>2016-02-15T10:41:25Z</time>
      </trkpt>
      <trkpt lat="44.38582" lon="5.93502">
        <ele>605.2873535</ele>
        <time>2016-02-15T10:41:27Z</time>
      </trkpt>
      <trkpt lat="44.38559" lon="5.93485">
        <ele>601.9226074</ele>
        <time>2016-02-15T10:41:30Z</time>
      </trkpt>
      <trkpt lat="44.38536" lon="5.93468">
        <ele>598.0773926</ele>
        <time>2016-02-15T10:41:33Z</time>
      </trkpt>
      <trkpt lat="44.38506" lon="5.93446">
        <ele>594.7126465</ele>
        <time>2016-02-15T10:41:37Z</time>
      </trkpt>
      <trkpt lat="44.38499" lon="5.9344">
        <ele>594.7126465</ele>
        <time>2016-02-15T10:41:38Z</time>
      </trkpt>
      <trkpt lat="44.38469" lon="5.9342">
        <ele>591.3481445</ele>
        <time>2016-02-15T10:41:42Z</time>
      </trkpt>
      <trkpt lat="44.38425" lon="5.9339">
        <ele>588.4643555</ele>
        <time>2016-02-15T10:41:48Z</time>
      </trkpt>
      <trkpt lat="44.38398" lon="5.93369">
        <ele>586.5415039</ele>
        <time>2016-02-15T10:41:52Z</time>
      </trkpt>
      <trkpt lat="44.38323" lon="5.93319">
        <ele>583.1767578</ele>
        <time>2016-02-15T10:42:04Z</time>
      </trkpt>
      <trkpt lat="44.38235" lon="5.9326">
        <ele>580.7736816</ele>
        <time>2016-02-15T10:42:23Z</time>
      </trkpt>
      <trkpt lat="44.38153" lon="5.93204">
        <ele>579.331543</ele>
        <time>2016-02-15T10:42:43Z</time>
      </trkpt>
      <trkpt lat="44.38056" lon="5.93134">
        <ele>577.8896484</ele>
        <time>2016-02-15T10:43:03Z</time>
      </trkpt>
      <trkpt lat="44.37962" lon="5.93065">
        <ele>576.4477539</ele>
        <time>2016-02-15T10:43:21Z</time>
      </trkpt>
      <trkpt lat="44.3786" lon="5.92994">
        <ele>576.4477539</ele>
        <time>2016-02-15T10:43:40Z</time>
      </trkpt>
      <trkpt lat="44.37756" lon="5.92924">
        <ele>576.4477539</ele>
        <time>2016-02-15T10:44:01Z</time>
      </trkpt>
      <trkpt lat="44.37709" lon="5.92888">
        <ele>575.967041</ele>
        <time>2016-02-15T10:44:11Z</time>
      </trkpt>
      <trkpt lat="44.37622" lon="5.92831">
        <ele>576.9284668</ele>
        <time>2016-02-15T10:44:30Z</time>
      </trkpt>
      <trkpt lat="44.37549" lon="5.9278">
        <ele>577.4091797</ele>
        <time>2016-02-15T10:44:47Z</time>
      </trkpt>
      <trkpt lat="44.37544" lon="5.92777">
        <ele>577.4091797</ele>
        <time>2016-02-15T10:44:48Z</time>
      </trkpt>
      <trkpt lat="44.37465" lon="5.92722">
        <ele>578.3703613</ele>
        <time>2016-02-15T10:45:07Z</time>
      </trkpt>
      <trkpt lat="44.37387" lon="5.92666">
        <ele>578.8510742</ele>
        <time>2016-02-15T10:45:27Z</time>
      </trkpt>
      <trkpt lat="44.37309" lon="5.92604">
        <ele>576.9284668</ele>
        <time>2016-02-15T10:45:44Z</time>
      </trkpt>
      <trkpt lat="44.37206" lon="5.9251">
        <ele>574.5251465</ele>
        <time>2016-02-15T10:46:01Z</time>
      </trkpt>
      <trkpt lat="44.37113" lon="5.92428">
        <ele>574.5251465</ele>
        <time>2016-02-15T10:46:18Z</time>
      </trkpt>
      <trkpt lat="44.37025" lon="5.92352">
        <ele>575.967041</ele>
        <time>2016-02-15T10:46:39Z</time>
      </trkpt>
      <trkpt lat="44.36958" lon="5.92299">
        <ele>576.9284668</ele>
        <time>2016-02-15T10:46:59Z</time>
      </trkpt>
      <trkpt lat="44.36896" lon="5.92254">
        <ele>579.331543</ele>
        <time>2016-02-15T10:47:20Z</time>
      </trkpt>
      <trkpt lat="44.36851" lon="5.92227">
        <ele>581.7348633</ele>
        <time>2016-02-15T10:47:40Z</time>
      </trkpt>
      <trkpt lat="44.36843" lon="5.9222">
        <ele>582.6962891</ele>
        <time>2016-02-15T10:47:44Z</time>
      </trkpt>
      <trkpt lat="44.36786" lon="5.92193">
        <ele>580.2929688</ele>
        <time>2016-02-15T10:47:59Z</time>
      </trkpt>
      <trkpt lat="44.36764" lon="5.92182">
        <ele>578.8510742</ele>
        <time>2016-02-15T10:48:02Z</time>
      </trkpt>
      <trkpt lat="44.36632" lon="5.92144">
        <ele>578.3703613</ele>
        <time>2016-02-15T10:48:20Z</time>
      </trkpt>
      <trkpt lat="44.36518" lon="5.92077">
        <ele>578.3703613</ele>
        <time>2016-02-15T10:48:40Z</time>
      </trkpt>
      <trkpt lat="44.36424" lon="5.92012">
        <ele>578.3703613</ele>
        <time>2016-02-15T10:48:58Z</time>
      </trkpt>
      <trkpt lat="44.36316" lon="5.91937">
        <ele>578.8510742</ele>
        <time>2016-02-15T10:49:20Z</time>
      </trkpt>
      <trkpt lat="44.36187" lon="5.91848">
        <ele>579.8122559</ele>
        <time>2016-02-15T10:49:46Z</time>
      </trkpt>
      <trkpt lat="44.36041" lon="5.91744">
        <ele>579.8122559</ele>
        <time>2016-02-15T10:50:14Z</time>
      </trkpt>
      <trkpt lat="44.35913" lon="5.91658">
        <ele>580.2929688</ele>
        <time>2016-02-15T10:50:39Z</time>
      </trkpt>
      <trkpt lat="44.358" lon="5.91581">
        <ele>580.2929688</ele>
        <time>2016-02-15T10:51:01Z</time>
      </trkpt>
      <trkpt lat="44.35702" lon="5.9151">
        <ele>579.8122559</ele>
        <time>2016-02-15T10:51:20Z</time>
      </trkpt>
      <trkpt lat="44.35623" lon="5.91458">
        <ele>580.7736816</ele>
        <time>2016-02-15T10:51:36Z</time>
      </trkpt>
      <trkpt lat="44.35566" lon="5.91418">
        <ele>582.6962891</ele>
        <time>2016-02-15T10:51:50Z</time>
      </trkpt>
      <trkpt lat="44.35515" lon="5.91389">
        <ele>583.6574707</ele>
        <time>2016-02-15T10:52:03Z</time>
      </trkpt>
      <trkpt lat="44.35429" lon="5.9133">
        <ele>582.2155762</ele>
        <time>2016-02-15T10:52:21Z</time>
      </trkpt>
      <trkpt lat="44.3532" lon="5.91248">
        <ele>581.2543945</ele>
        <time>2016-02-15T10:52:42Z</time>
      </trkpt>
      <trkpt lat="44.35221" lon="5.91162">
        <ele>580.2929688</ele>
        <time>2016-02-15T10:53:01Z</time>
      </trkpt>
      <trkpt lat="44.35131" lon="5.91077">
        <ele>576.9284668</ele>
        <time>2016-02-15T10:53:16Z</time>
      </trkpt>
      <trkpt lat="44.3503" lon="5.90984">
        <ele>574.0444336</ele>
        <time>2016-02-15T10:53:30Z</time>
      </trkpt>
      <trkpt lat="44.349" lon="5.90873">
        <ele>572.1218262</ele>
        <time>2016-02-15T10:53:47Z</time>
      </trkpt>
      <trkpt lat="44.34816" lon="5.90808">
        <ele>573.083252</ele>
        <time>2016-02-15T10:54:03Z</time>
      </trkpt>
      <trkpt lat="44.34764" lon="5.90765">
        <ele>574.5251465</ele>
        <time>2016-02-15T10:54:19Z</time>
      </trkpt>
      <trkpt lat="44.34703" lon="5.90719">
        <ele>576.4477539</ele>
        <time>2016-02-15T10:54:42Z</time>
      </trkpt>
      <trkpt lat="44.34654" lon="5.90691">
        <ele>579.8122559</ele>
        <time>2016-02-15T10:55:04Z</time>
      </trkpt>
      <trkpt lat="44.34641" lon="5.90683">
        <ele>581.2543945</ele>
        <time>2016-02-15T10:55:11Z</time>
      </trkpt>
      <trkpt lat="44.34605" lon="5.90653">
        <ele>582.2155762</ele>
        <time>2016-02-15T10:55:28Z</time>
      </trkpt>
      <trkpt lat="44.34536" lon="5.90595">
        <ele>582.2155762</ele>
        <time>2016-02-15T10:55:50Z</time>
      </trkpt>
      <trkpt lat="44.34458" lon="5.90527">
        <ele>582.6962891</ele>
        <time>2016-02-15T10:56:12Z</time>
      </trkpt>
      <trkpt lat="44.34416" lon="5.90473">
        <ele>584.6188965</ele>
        <time>2016-02-15T10:56:29Z</time>
      </trkpt>
      <trkpt lat="44.34387" lon="5.9045">
        <ele>585.0996094</ele>
        <time>2016-02-15T10:56:41Z</time>
      </trkpt>
      <trkpt lat="44.34368" lon="5.90438">
        <ele>583.1767578</ele>
        <time>2016-02-15T10:56:45Z</time>
      </trkpt>
      <trkpt lat="44.34355" lon="5.90431">
        <ele>581.2543945</ele>
        <time>2016-02-15T10:56:47Z</time>
      </trkpt>
      <trkpt lat="44.34283" lon="5.90366">
        <ele>581.7348633</ele>
        <time>2016-02-15T10:57:00Z</time>
      </trkpt>
      <trkpt lat="44.34251" lon="5.90328">
        <ele>584.1381836</ele>
        <time>2016-02-15T10:57:12Z</time>
      </trkpt>
      <trkpt lat="44.34242" lon="5.90318">
        <ele>585.0996094</ele>
        <time>2016-02-15T10:57:17Z</time>
      </trkpt>
      <trkpt lat="44.34213" lon="5.90279">
        <ele>587.5026855</ele>
        <time>2016-02-15T10:57:34Z</time>
      </trkpt>
      <trkpt lat="44.34181" lon="5.90237">
        <ele>590.8674316</ele>
        <time>2016-02-15T10:57:54Z</time>
      </trkpt>
      <trkpt lat="44.34143" lon="5.90194">
        <ele>593.7514648</ele>
        <time>2016-02-15T10:58:16Z</time>
      </trkpt>
      <trkpt lat="44.34092" lon="5.90144">
        <ele>593.270752</ele>
        <time>2016-02-15T10:58:34Z</time>
      </trkpt>
      <trkpt lat="44.34067" lon="5.90121">
        <ele>590.3869629</ele>
        <time>2016-02-15T10:58:39Z</time>
      </trkpt>
      <trkpt lat="44.34035" lon="5.90093">
        <ele>587.0219727</ele>
        <time>2016-02-15T10:58:44Z</time>
      </trkpt>
      <trkpt lat="44.34028" lon="5.90086">
        <ele>587.0219727</ele>
        <time>2016-02-15T10:58:45Z</time>
      </trkpt>
      <trkpt lat="44.34006" lon="5.90067">
        <ele>585.0996094</ele>
        <time>2016-02-15T10:58:48Z</time>
      </trkpt>
      <trkpt lat="44.33931" lon="5.89984">
        <ele>587.5026855</ele>
        <time>2016-02-15T10:59:01Z</time>
      </trkpt>
      <trkpt lat="44.33841" lon="5.89901">
        <ele>583.1767578</ele>
        <time>2016-02-15T10:59:19Z</time>
      </trkpt>
      <trkpt lat="44.33835" lon="5.89896">
        <ele>583.1767578</ele>
        <time>2016-02-15T10:59:20Z</time>
      </trkpt>
      <trkpt lat="44.33799" lon="5.89869">
        <ele>580.7736816</ele>
        <time>2016-02-15T10:59:25Z</time>
      </trkpt>
      <trkpt lat="44.33693" lon="5.89793">
        <ele>580.2929688</ele>
        <time>2016-02-15T10:59:39Z</time>
      </trkpt>
      <trkpt lat="44.33681" lon="5.89784">
        <ele>581.7348633</ele>
        <time>2016-02-15T10:59:41Z</time>
      </trkpt>
      <trkpt lat="44.33588" lon="5.89736">
        <ele>581.7348633</ele>
        <time>2016-02-15T10:59:58Z</time>
      </trkpt>
      <trkpt lat="44.33556" lon="5.8972">
        <ele>582.2155762</ele>
        <time>2016-02-15T11:00:04Z</time>
      </trkpt>
      <trkpt lat="44.33529" lon="5.89705">
        <ele>581.7348633</ele>
        <time>2016-02-15T11:00:09Z</time>
      </trkpt>
      <trkpt lat="44.33513" lon="5.89699">
        <ele>581.7348633</ele>
        <time>2016-02-15T11:00:12Z</time>
      </trkpt>
      <trkpt lat="44.33498" lon="5.89691">
        <ele>582.2155762</ele>
        <time>2016-02-15T11:00:15Z</time>
      </trkpt>
      <trkpt lat="44.33381" lon="5.89638">
        <ele>581.2543945</ele>
        <time>2016-02-15T11:00:36Z</time>
      </trkpt>
      <trkpt lat="44.33287" lon="5.89598">
        <ele>581.7348633</ele>
        <time>2016-02-15T11:00:54Z</time>
      </trkpt>
      <trkpt lat="44.33195" lon="5.8956">
        <ele>582.2155762</ele>
        <time>2016-02-15T11:01:13Z</time>
      </trkpt>
      <trkpt lat="44.33101" lon="5.89534">
        <ele>581.7348633</ele>
        <time>2016-02-15T11:01:31Z</time>
      </trkpt>
      <trkpt lat="44.33081" lon="5.89527">
        <ele>581.7348633</ele>
        <time>2016-02-15T11:01:35Z</time>
      </trkpt>
      <trkpt lat="44.32989" lon="5.8949">
        <ele>582.2155762</ele>
        <time>2016-02-15T11:01:53Z</time>
      </trkpt>
      <trkpt lat="44.32898" lon="5.89437">
        <ele>581.7348633</ele>
        <time>2016-02-15T11:02:11Z</time>
      </trkpt>
      <trkpt lat="44.328" lon="5.89369">
        <ele>581.2543945</ele>
        <time>2016-02-15T11:02:31Z</time>
      </trkpt>
      <trkpt lat="44.32712" lon="5.89307">
        <ele>581.7348633</ele>
        <time>2016-02-15T11:02:49Z</time>
      </trkpt>
      <trkpt lat="44.32661" lon="5.89268">
        <ele>581.7348633</ele>
        <time>2016-02-15T11:03:00Z</time>
      </trkpt>
      <trkpt lat="44.32633" lon="5.89251">
        <ele>582.2155762</ele>
        <time>2016-02-15T11:03:07Z</time>
      </trkpt>
      <trkpt lat="44.32543" lon="5.89201">
        <ele>580.2929688</ele>
        <time>2016-02-15T11:03:25Z</time>
      </trkpt>
      <trkpt lat="44.32444" lon="5.89168">
        <ele>580.2929688</ele>
        <time>2016-02-15T11:03:42Z</time>
      </trkpt>
      <trkpt lat="44.3236" lon="5.89141">
        <ele>580.2929688</ele>
        <time>2016-02-15T11:03:58Z</time>
      </trkpt>
      <trkpt lat="44.32307" lon="5.89121">
        <ele>580.7736816</ele>
        <time>2016-02-15T11:04:09Z</time>
      </trkpt>
      <trkpt lat="44.32216" lon="5.89094">
        <ele>580.2929688</ele>
        <time>2016-02-15T11:04:28Z</time>
      </trkpt>
      <trkpt lat="44.32131" lon="5.89069">
        <ele>580.7736816</ele>
        <time>2016-02-15T11:04:45Z</time>
      </trkpt>
      <trkpt lat="44.32074" lon="5.89058">
        <ele>581.7348633</ele>
        <time>2016-02-15T11:05:00Z</time>
      </trkpt>
      <trkpt lat="44.32027" lon="5.89048">
        <ele>583.1767578</ele>
        <time>2016-02-15T11:05:16Z</time>
      </trkpt>
      <trkpt lat="44.32019" lon="5.89043">
        <ele>584.1381836</ele>
        <time>2016-02-15T11:05:19Z</time>
      </trkpt>
      <trkpt lat="44.32012" lon="5.89031">
        <ele>584.6188965</ele>
        <time>2016-02-15T11:05:30Z</time>
      </trkpt>
      <trkpt lat="44.32011" lon="5.89031">
        <ele>584.6188965</ele>
        <time>2016-02-15T11:05:31Z</time>
      </trkpt>
      <trkpt lat="44.32009" lon="5.89026">
        <ele>585.0996094</ele>
        <time>2016-02-15T11:05:46Z</time>
      </trkpt>
      <trkpt lat="44.32005" lon="5.89028">
        <ele>584.6188965</ele>
        <time>2016-02-15T11:07:03Z</time>
      </trkpt>
      <trkpt lat="44.32008" lon="5.89028">
        <ele>584.6188965</ele>
        <time>2016-02-15T11:07:19Z</time>
      </trkpt>
      <trkpt lat="44.32006" lon="5.89031">
        <ele>585.0996094</ele>
        <time>2016-02-15T11:08:04Z</time>
      </trkpt>
      <trkpt lat="44.32003" lon="5.89033">
        <ele>584.6188965</ele>
        <time>2016-02-15T11:08:26Z</time>
      </trkpt>
      <trkpt lat="44.32001" lon="5.89033">
        <ele>584.6188965</ele>
        <time>2016-02-15T11:08:38Z</time>
      </trkpt>
      <trkpt lat="44.31972" lon="5.89008">
        <ele>586.060791</ele>
        <time>2016-02-15T11:08:53Z</time>
      </trkpt>
      <trkpt lat="44.31924" lon="5.88989">
        <ele>587.0219727</ele>
        <time>2016-02-15T11:09:10Z</time>
      </trkpt>
      <trkpt lat="44.31877" lon="5.88992">
        <ele>587.9833984</ele>
        <time>2016-02-15T11:09:26Z</time>
      </trkpt>
      <trkpt lat="44.31821" lon="5.89025">
        <ele>589.90625</ele>
        <time>2016-02-15T11:09:47Z</time>
      </trkpt>
      <trkpt lat="44.31764" lon="5.89066">
        <ele>590.8674316</ele>
        <time>2016-02-15T11:10:09Z</time>
      </trkpt>
      <trkpt lat="44.31699" lon="5.8909">
        <ele>592.7902832</ele>
        <time>2016-02-15T11:10:33Z</time>
      </trkpt>
      <trkpt lat="44.31644" lon="5.89094">
        <ele>594.2321777</ele>
        <time>2016-02-15T11:10:53Z</time>
      </trkpt>
      <trkpt lat="44.31583" lon="5.8909">
        <ele>596.1547852</ele>
        <time>2016-02-15T11:11:16Z</time>
      </trkpt>
      <trkpt lat="44.31541" lon="5.89089">
        <ele>597.5966797</ele>
        <time>2016-02-15T11:11:32Z</time>
      </trkpt>
      <trkpt lat="44.31519" lon="5.89088">
        <ele>599.0385742</ele>
        <time>2016-02-15T11:11:48Z</time>
      </trkpt>
      <trkpt lat="44.31515" lon="5.89089">
        <ele>598.5578613</ele>
        <time>2016-02-15T11:12:28Z</time>
      </trkpt>
      <trkpt lat="44.31479" lon="5.89091">
        <ele>598.5578613</ele>
        <time>2016-02-15T11:12:41Z</time>
      </trkpt>
      <trkpt lat="44.31441" lon="5.89099">
        <ele>598.5578613</ele>
        <time>2016-02-15T11:12:53Z</time>
      </trkpt>
      <trkpt lat="44.31407" lon="5.89106">
        <ele>598.5578613</ele>
        <time>2016-02-15T11:13:02Z</time>
      </trkpt>
      <trkpt lat="44.31352" lon="5.89115">
        <ele>598.5578613</ele>
        <time>2016-02-15T11:13:16Z</time>
      </trkpt>
      <trkpt lat="44.31303" lon="5.89124">
        <ele>600</ele>
        <time>2016-02-15T11:13:29Z</time>
      </trkpt>
      <trkpt lat="44.31279" lon="5.89127">
        <ele>599.5192871</ele>
        <time>2016-02-15T11:13:35Z</time>
      </trkpt>
      <trkpt lat="44.31245" lon="5.89128">
        <ele>599.0385742</ele>
        <time>2016-02-15T11:13:43Z</time>
      </trkpt>
      <trkpt lat="44.31154" lon="5.89146">
        <ele>597.5966797</ele>
        <time>2016-02-15T11:14:01Z</time>
      </trkpt>
      <trkpt lat="44.31061" lon="5.89156">
        <ele>596.635498</ele>
        <time>2016-02-15T11:14:21Z</time>
      </trkpt>
      <trkpt lat="44.30978" lon="5.89175">
        <ele>595.1933594</ele>
        <time>2016-02-15T11:14:38Z</time>
      </trkpt>
      <trkpt lat="44.30912" lon="5.89196">
        <ele>591.8288574</ele>
        <time>2016-02-15T11:14:48Z</time>
      </trkpt>
      <trkpt lat="44.30842" lon="5.89217">
        <ele>588.9450684</ele>
        <time>2016-02-15T11:14:57Z</time>
      </trkpt>
      <trkpt lat="44.30761" lon="5.89242">
        <ele>585.0996094</ele>
        <time>2016-02-15T11:15:06Z</time>
      </trkpt>
      <trkpt lat="44.30645" lon="5.89277">
        <ele>584.6188965</ele>
        <time>2016-02-15T11:15:21Z</time>
      </trkpt>
      <trkpt lat="44.30553" lon="5.89306">
        <ele>585.0996094</ele>
        <time>2016-02-15T11:15:37Z</time>
      </trkpt>
      <trkpt lat="44.30526" lon="5.89312">
        <ele>584.6188965</ele>
        <time>2016-02-15T11:15:43Z</time>
      </trkpt>
      <trkpt lat="44.30512" lon="5.89312">
        <ele>585.0996094</ele>
        <time>2016-02-15T11:15:52Z</time>
      </trkpt>
      <trkpt lat="44.30512" lon="5.89312">
        <ele>585.5800781</ele>
        <time>2016-02-15T11:16:03Z</time>
      </trkpt>
      <trkpt lat="44.30511" lon="5.89313">
        <ele>585.5800781</ele>
        <time>2016-02-15T11:16:19Z</time>
      </trkpt>
      <trkpt lat="44.30509" lon="5.89313">
        <ele>585.0996094</ele>
        <time>2016-02-15T11:16:50Z</time>
      </trkpt>
      <trkpt lat="44.3047" lon="5.89329">
        <ele>586.060791</ele>
        <time>2016-02-15T11:17:04Z</time>
      </trkpt>
      <trkpt lat="44.30419" lon="5.89347">
        <ele>586.060791</ele>
        <time>2016-02-15T11:17:17Z</time>
      </trkpt>
      <trkpt lat="44.30342" lon="5.89373">
        <ele>583.6574707</ele>
        <time>2016-02-15T11:17:31Z</time>
      </trkpt>
      <trkpt lat="44.30238" lon="5.89404">
        <ele>581.7348633</ele>
        <time>2016-02-15T11:17:47Z</time>
      </trkpt>
      <trkpt lat="44.30177" lon="5.89425">
        <ele>581.7348633</ele>
        <time>2016-02-15T11:17:58Z</time>
      </trkpt>
      <trkpt lat="44.3006" lon="5.89464">
        <ele>582.2155762</ele>
        <time>2016-02-15T11:18:21Z</time>
      </trkpt>
      <trkpt lat="44.29944" lon="5.89497">
        <ele>584.1381836</ele>
        <time>2016-02-15T11:18:45Z</time>
      </trkpt>
      <trkpt lat="44.29857" lon="5.89527">
        <ele>584.1381836</ele>
        <time>2016-02-15T11:19:05Z</time>
      </trkpt>
      <trkpt lat="44.29848" lon="5.8953">
        <ele>584.6188965</ele>
        <time>2016-02-15T11:19:07Z</time>
      </trkpt>
      <trkpt lat="44.29805" lon="5.89532">
        <ele>585.0996094</ele>
        <time>2016-02-15T11:19:17Z</time>
      </trkpt>
      <trkpt lat="44.29724" lon="5.89531">
        <ele>583.1767578</ele>
        <time>2016-02-15T11:19:31Z</time>
      </trkpt>
      <trkpt lat="44.29655" lon="5.89526">
        <ele>582.6962891</ele>
        <time>2016-02-15T11:19:43Z</time>
      </trkpt>
      <trkpt lat="44.29625" lon="5.89524">
        <ele>584.1381836</ele>
        <time>2016-02-15T11:19:53Z</time>
      </trkpt>
      <trkpt lat="44.29583" lon="5.89531">
        <ele>586.060791</ele>
        <time>2016-02-15T11:20:09Z</time>
      </trkpt>
      <trkpt lat="44.29537" lon="5.89553">
        <ele>589.4255371</ele>
        <time>2016-02-15T11:20:30Z</time>
      </trkpt>
      <trkpt lat="44.29531" lon="5.89554">
        <ele>589.4255371</ele>
        <time>2016-02-15T11:20:34Z</time>
      </trkpt>
      <trkpt lat="44.29497" lon="5.89568">
        <ele>591.3481445</ele>
        <time>2016-02-15T11:20:51Z</time>
      </trkpt>
      <trkpt lat="44.29456" lon="5.89579">
        <ele>593.270752</ele>
        <time>2016-02-15T11:21:08Z</time>
      </trkpt>
      <trkpt lat="44.29396" lon="5.89587">
        <ele>592.7902832</ele>
        <time>2016-02-15T11:21:25Z</time>
      </trkpt>
      <trkpt lat="44.29351" lon="5.89593">
        <ele>592.3095703</ele>
        <time>2016-02-15T11:21:37Z</time>
      </trkpt>
      <trkpt lat="44.2932" lon="5.89598">
        <ele>592.7902832</ele>
        <time>2016-02-15T11:21:47Z</time>
      </trkpt>
      <trkpt lat="44.29297" lon="5.89604">
        <ele>592.7902832</ele>
        <time>2016-02-15T11:21:53Z</time>
      </trkpt>
      <trkpt lat="44.29266" lon="5.8963">
        <ele>593.270752</ele>
        <time>2016-02-15T11:22:03Z</time>
      </trkpt>
      <trkpt lat="44.29257" lon="5.89638">
        <ele>592.7902832</ele>
        <time>2016-02-15T11:22:07Z</time>
      </trkpt>
      <trkpt lat="44.29254" lon="5.89652">
        <ele>592.3095703</ele>
        <time>2016-02-15T11:22:13Z</time>
      </trkpt>
      <trkpt lat="44.2924" lon="5.8968">
        <ele>591.3481445</ele>
        <time>2016-02-15T11:22:18Z</time>
      </trkpt>
      <trkpt lat="44.29224" lon="5.89697">
        <ele>590.8674316</ele>
        <time>2016-02-15T11:22:21Z</time>
      </trkpt>
      <trkpt lat="44.2922" lon="5.89712">
        <ele>592.3095703</ele>
        <time>2016-02-15T11:22:25Z</time>
      </trkpt>
      <trkpt lat="44.29217" lon="5.89718">
        <ele>590.3869629</ele>
        <time>2016-02-15T11:22:26Z</time>
      </trkpt>
      <trkpt lat="44.2918" lon="5.89757">
        <ele>588.9450684</ele>
        <time>2016-02-15T11:22:32Z</time>
      </trkpt>
      <trkpt lat="44.29172" lon="5.8976">
        <ele>587.0219727</ele>
        <time>2016-02-15T11:22:33Z</time>
      </trkpt>
      <trkpt lat="44.29154" lon="5.89763">
        <ele>585.5800781</ele>
        <time>2016-02-15T11:22:35Z</time>
      </trkpt>
      <trkpt lat="44.29064" lon="5.89759">
        <ele>581.7348633</ele>
        <time>2016-02-15T11:22:44Z</time>
      </trkpt>
      <trkpt lat="44.29045" lon="5.89757">
        <ele>580.7736816</ele>
        <time>2016-02-15T11:22:46Z</time>
      </trkpt>
      <trkpt lat="44.28984" lon="5.89754">
        <ele>577.8896484</ele>
        <time>2016-02-15T11:22:52Z</time>
      </trkpt>
      <trkpt lat="44.28975" lon="5.89757">
        <ele>577.8896484</ele>
        <time>2016-02-15T11:22:53Z</time>
      </trkpt>
      <trkpt lat="44.28892" lon="5.89772">
        <ele>577.8896484</ele>
        <time>2016-02-15T11:23:05Z</time>
      </trkpt>
      <trkpt lat="44.2885" lon="5.8978">
        <ele>578.3703613</ele>
        <time>2016-02-15T11:23:13Z</time>
      </trkpt>
      <trkpt lat="44.28831" lon="5.8978">
        <ele>578.3703613</ele>
        <time>2016-02-15T11:23:17Z</time>
      </trkpt>
      <trkpt lat="44.28781" lon="5.89794">
        <ele>579.331543</ele>
        <time>2016-02-15T11:23:28Z</time>
      </trkpt>
      <trkpt lat="44.2871" lon="5.89794">
        <ele>578.8510742</ele>
        <time>2016-02-15T11:23:47Z</time>
      </trkpt>
      <trkpt lat="44.28706" lon="5.89793">
        <ele>579.331543</ele>
        <time>2016-02-15T11:23:57Z</time>
      </trkpt>
      <trkpt lat="44.28705" lon="5.89792">
        <ele>578.8510742</ele>
        <time>2016-02-15T11:24:15Z</time>
      </trkpt>
      <trkpt lat="44.28667" lon="5.89802">
        <ele>577.8896484</ele>
        <time>2016-02-15T11:24:29Z</time>
      </trkpt>
      <trkpt lat="44.28584" lon="5.89817">
        <ele>575.0058594</ele>
        <time>2016-02-15T11:24:43Z</time>
      </trkpt>
      <trkpt lat="44.28562" lon="5.89819">
        <ele>573.5639648</ele>
        <time>2016-02-15T11:24:46Z</time>
      </trkpt>
      <trkpt lat="44.28521" lon="5.89825">
        <ele>570.6796875</ele>
        <time>2016-02-15T11:24:51Z</time>
      </trkpt>
      <trkpt lat="44.28465" lon="5.89836">
        <ele>567.3151855</ele>
        <time>2016-02-15T11:24:57Z</time>
      </trkpt>
      <trkpt lat="44.28455" lon="5.89838">
        <ele>567.3151855</ele>
        <time>2016-02-15T11:24:58Z</time>
      </trkpt>
      <trkpt lat="44.28424" lon="5.89843">
        <ele>563.9504395</ele>
        <time>2016-02-15T11:25:01Z</time>
      </trkpt>
      <trkpt lat="44.28312" lon="5.89821">
        <ele>561.0666504</ele>
        <time>2016-02-15T11:25:13Z</time>
      </trkpt>
      <trkpt lat="44.28304" lon="5.8982">
        <ele>561.0666504</ele>
        <time>2016-02-15T11:25:14Z</time>
      </trkpt>
      <trkpt lat="44.2826" lon="5.89805">
        <ele>560.1052246</ele>
        <time>2016-02-15T11:25:20Z</time>
      </trkpt>
      <trkpt lat="44.28247" lon="5.89804">
        <ele>559.144043</ele>
        <time>2016-02-15T11:25:22Z</time>
      </trkpt>
      <trkpt lat="44.28234" lon="5.89791">
        <ele>559.6247559</ele>
        <time>2016-02-15T11:25:26Z</time>
      </trkpt>
      <trkpt lat="44.28234" lon="5.89786">
        <ele>560.5859375</ele>
        <time>2016-02-15T11:25:41Z</time>
      </trkpt>
      <trkpt lat="44.28235" lon="5.89784">
        <ele>560.5859375</ele>
        <time>2016-02-15T11:25:54Z</time>
      </trkpt>
      <trkpt lat="44.2824" lon="5.89777">
        <ele>560.1052246</ele>
        <time>2016-02-15T11:25:59Z</time>
      </trkpt>
      <trkpt lat="44.28277" lon="5.89734">
        <ele>561.5473633</ele>
        <time>2016-02-15T11:26:15Z</time>
      </trkpt>
      <trkpt lat="44.2829" lon="5.89682">
        <ele>562.5085449</ele>
        <time>2016-02-15T11:26:29Z</time>
      </trkpt>
      <trkpt lat="44.28283" lon="5.8964">
        <ele>563.9504395</ele>
        <time>2016-02-15T11:26:42Z</time>
      </trkpt>
      <trkpt lat="44.28288" lon="5.89585">
        <ele>566.3537598</ele>
        <time>2016-02-15T11:27:00Z</time>
      </trkpt>
      <trkpt lat="44.28318" lon="5.89522">
        <ele>568.7570801</ele>
        <time>2016-02-15T11:27:22Z</time>
      </trkpt>
      <trkpt lat="44.28338" lon="5.89478">
        <ele>569.7185059</ele>
        <time>2016-02-15T11:27:38Z</time>
      </trkpt>
      <trkpt lat="44.28367" lon="5.89414">
        <ele>570.1989746</ele>
        <time>2016-02-15T11:27:59Z</time>
      </trkpt>
      <trkpt lat="44.28394" lon="5.89344">
        <ele>569.237793</ele>
        <time>2016-02-15T11:28:17Z</time>
      </trkpt>
      <trkpt lat="44.28413" lon="5.89264">
        <ele>568.7570801</ele>
        <time>2016-02-15T11:28:34Z</time>
      </trkpt>
      <trkpt lat="44.28409" lon="5.89241">
        <ele>568.7570801</ele>
        <time>2016-02-15T11:28:44Z</time>
      </trkpt>
      <trkpt lat="44.28392" lon="5.89218">
        <ele>569.7185059</ele>
        <time>2016-02-15T11:28:57Z</time>
      </trkpt>
      <trkpt lat="44.28392" lon="5.89217">
        <ele>569.7185059</ele>
        <time>2016-02-15T11:29:50Z</time>
      </trkpt>
      <trkpt lat="44.28354" lon="5.89196">
        <ele>570.6796875</ele>
        <time>2016-02-15T11:30:05Z</time>
      </trkpt>
      <trkpt lat="44.28302" lon="5.89161">
        <ele>570.1989746</ele>
        <time>2016-02-15T11:30:21Z</time>
      </trkpt>
      <trkpt lat="44.28258" lon="5.89114">
        <ele>568.2763672</ele>
        <time>2016-02-15T11:30:31Z</time>
      </trkpt>
      <trkpt lat="44.28241" lon="5.8907">
        <ele>566.3537598</ele>
        <time>2016-02-15T11:30:39Z</time>
      </trkpt>
      <trkpt lat="44.28226" lon="5.89069">
        <ele>565.3925781</ele>
        <time>2016-02-15T11:30:43Z</time>
      </trkpt>
      <trkpt lat="44.282" lon="5.89082">
        <ele>565.3925781</ele>
        <time>2016-02-15T11:30:49Z</time>
      </trkpt>
      <trkpt lat="44.28173" lon="5.89086">
        <ele>564.4311523</ele>
        <time>2016-02-15T11:30:55Z</time>
      </trkpt>
      <trkpt lat="44.28157" lon="5.8903">
        <ele>562.0280762</ele>
        <time>2016-02-15T11:31:03Z</time>
      </trkpt>
      <trkpt lat="44.28145" lon="5.88995">
        <ele>560.5859375</ele>
        <time>2016-02-15T11:31:09Z</time>
      </trkpt>
      <trkpt lat="44.28122" lon="5.88999">
        <ele>560.5859375</ele>
        <time>2016-02-15T11:31:14Z</time>
      </trkpt>
      <trkpt lat="44.28077" lon="5.89029">
        <ele>559.144043</ele>
        <time>2016-02-15T11:31:23Z</time>
      </trkpt>
      <trkpt lat="44.28048" lon="5.89035">
        <ele>558.1828613</ele>
        <time>2016-02-15T11:31:28Z</time>
      </trkpt>
      <trkpt lat="44.27948" lon="5.89024">
        <ele>556.2600098</ele>
        <time>2016-02-15T11:31:45Z</time>
      </trkpt>
      <trkpt lat="44.2793" lon="5.89028">
        <ele>555.7792969</ele>
        <time>2016-02-15T11:31:48Z</time>
      </trkpt>
      <trkpt lat="44.27917" lon="5.89028">
        <ele>555.298584</ele>
        <time>2016-02-15T11:31:50Z</time>
      </trkpt>
      <trkpt lat="44.27902" lon="5.89005">
        <ele>554.8178711</ele>
        <time>2016-02-15T11:31:54Z</time>
      </trkpt>
      <trkpt lat="44.27897" lon="5.88984">
        <ele>555.298584</ele>
        <time>2016-02-15T11:31:57Z</time>
      </trkpt>
      <trkpt lat="44.27884" lon="5.88964">
        <ele>554.3374023</ele>
        <time>2016-02-15T11:32:01Z</time>
      </trkpt>
      <trkpt lat="44.27876" lon="5.88958">
        <ele>554.3374023</ele>
        <time>2016-02-15T11:32:03Z</time>
      </trkpt>
      <trkpt lat="44.27846" lon="5.88917">
        <ele>553.8566895</ele>
        <time>2016-02-15T11:32:11Z</time>
      </trkpt>
      <trkpt lat="44.27811" lon="5.88852">
        <ele>552.8952637</ele>
        <time>2016-02-15T11:32:21Z</time>
      </trkpt>
      <trkpt lat="44.27786" lon="5.8883">
        <ele>551.4533691</ele>
        <time>2016-02-15T11:32:26Z</time>
      </trkpt>
      <trkpt lat="44.27728" lon="5.88808">
        <ele>550.9726563</ele>
        <time>2016-02-15T11:32:36Z</time>
      </trkpt>
      <trkpt lat="44.27701" lon="5.88782">
        <ele>550.4921875</ele>
        <time>2016-02-15T11:32:42Z</time>
      </trkpt>
      <trkpt lat="44.27675" lon="5.88765">
        <ele>550.0114746</ele>
        <time>2016-02-15T11:32:47Z</time>
      </trkpt>
      <trkpt lat="44.27623" lon="5.88732">
        <ele>550.9726563</ele>
        <time>2016-02-15T11:32:59Z</time>
      </trkpt>
      <trkpt lat="44.27587" lon="5.88659">
        <ele>549.5307617</ele>
        <time>2016-02-15T11:33:12Z</time>
      </trkpt>
      <trkpt lat="44.27585" lon="5.88657">
        <ele>549.5307617</ele>
        <time>2016-02-15T11:33:21Z</time>
      </trkpt>
      <trkpt lat="44.27585" lon="5.8866">
        <ele>549.5307617</ele>
        <time>2016-02-15T11:33:45Z</time>
      </trkpt>
      <trkpt lat="44.276" lon="5.88699">
        <ele>550.0114746</ele>
        <time>2016-02-15T11:33:56Z</time>
      </trkpt>
      <trkpt lat="44.27623" lon="5.88751">
        <ele>550.9726563</ele>
        <time>2016-02-15T11:34:09Z</time>
      </trkpt>
      <trkpt lat="44.2763" lon="5.88757">
        <ele>550.9726563</ele>
        <time>2016-02-15T11:34:11Z</time>
      </trkpt>
      <trkpt lat="44.27676" lon="5.8877">
        <ele>550.0114746</ele>
        <time>2016-02-15T11:34:21Z</time>
      </trkpt>
      <trkpt lat="44.27729" lon="5.88811">
        <ele>550.9726563</ele>
        <time>2016-02-15T11:34:37Z</time>
      </trkpt>
      <trkpt lat="44.2779" lon="5.88832">
        <ele>550.9726563</ele>
        <time>2016-02-15T11:34:53Z</time>
      </trkpt>
      <trkpt lat="44.27826" lon="5.88874">
        <ele>551.4533691</ele>
        <time>2016-02-15T11:35:06Z</time>
      </trkpt>
      <trkpt lat="44.2786" lon="5.88931">
        <ele>552.8952637</ele>
        <time>2016-02-15T11:35:21Z</time>
      </trkpt>
      <trkpt lat="44.27899" lon="5.88972">
        <ele>553.3759766</ele>
        <time>2016-02-15T11:35:36Z</time>
      </trkpt>
      <trkpt lat="44.27913" lon="5.89026">
        <ele>553.3759766</ele>
        <time>2016-02-15T11:35:49Z</time>
      </trkpt>
      <trkpt lat="44.27915" lon="5.89026">
        <ele>553.3759766</ele>
        <time>2016-02-15T11:36:02Z</time>
      </trkpt>
      <trkpt lat="44.27949" lon="5.8902">
        <ele>554.3374023</ele>
        <time>2016-02-15T11:36:15Z</time>
      </trkpt>
      <trkpt lat="44.27974" lon="5.89019">
        <ele>555.298584</ele>
        <time>2016-02-15T11:36:23Z</time>
      </trkpt>
      <trkpt lat="44.28019" lon="5.89023">
        <ele>557.2214355</ele>
        <time>2016-02-15T11:36:39Z</time>
      </trkpt>
      <trkpt lat="44.28061" lon="5.8903">
        <ele>556.2600098</ele>
        <time>2016-02-15T11:36:53Z</time>
      </trkpt>
      <trkpt lat="44.28109" lon="5.89006">
        <ele>557.7021484</ele>
        <time>2016-02-15T11:37:10Z</time>
      </trkpt>
      <trkpt lat="44.28149" lon="5.88999">
        <ele>558.6633301</ele>
        <time>2016-02-15T11:37:25Z</time>
      </trkpt>
      <trkpt lat="44.28158" lon="5.89027">
        <ele>559.144043</ele>
        <time>2016-02-15T11:37:32Z</time>
      </trkpt>
      <trkpt lat="44.28162" lon="5.89053">
        <ele>560.5859375</ele>
        <time>2016-02-15T11:37:39Z</time>
      </trkpt>
      <trkpt lat="44.28173" lon="5.89084">
        <ele>562.5085449</ele>
        <time>2016-02-15T11:37:51Z</time>
      </trkpt>
      <trkpt lat="44.28205" lon="5.89077">
        <ele>563.9504395</ele>
        <time>2016-02-15T11:38:05Z</time>
      </trkpt>
      <trkpt lat="44.28237" lon="5.89062">
        <ele>563.9504395</ele>
        <time>2016-02-15T11:38:19Z</time>
      </trkpt>
      <trkpt lat="44.28239" lon="5.89056">
        <ele>564.4311523</ele>
        <time>2016-02-15T11:38:40Z</time>
      </trkpt>
      <trkpt lat="44.2823" lon="5.89009">
        <ele>562.5085449</ele>
        <time>2016-02-15T11:38:52Z</time>
      </trkpt>
      <trkpt lat="44.28225" lon="5.88999">
        <ele>562.5085449</ele>
        <time>2016-02-15T11:38:54Z</time>
      </trkpt>
      <trkpt lat="44.28192" lon="5.88943">
        <ele>560.5859375</ele>
        <time>2016-02-15T11:39:05Z</time>
      </trkpt>
      <trkpt lat="44.28185" lon="5.88926">
        <ele>560.1052246</ele>
        <time>2016-02-15T11:39:08Z</time>
      </trkpt>
      <trkpt lat="44.28175" lon="5.88906">
        <ele>560.5859375</ele>
        <time>2016-02-15T11:39:12Z</time>
      </trkpt>
      <trkpt lat="44.28161" lon="5.88869">
        <ele>561.5473633</ele>
        <time>2016-02-15T11:39:19Z</time>
      </trkpt>
      <trkpt lat="44.28158" lon="5.88804">
        <ele>559.6247559</ele>
        <time>2016-02-15T11:39:32Z</time>
      </trkpt>
      <trkpt lat="44.28159" lon="5.88791">
        <ele>559.6247559</ele>
        <time>2016-02-15T11:39:35Z</time>
      </trkpt>
      <trkpt lat="44.28131" lon="5.88743">
        <ele>559.6247559</ele>
        <time>2016-02-15T11:39:50Z</time>
      </trkpt>
      <trkpt lat="44.281" lon="5.88701">
        <ele>560.1052246</ele>
        <time>2016-02-15T11:40:05Z</time>
      </trkpt>
      <trkpt lat="44.28096" lon="5.88659">
        <ele>563.4699707</ele>
        <time>2016-02-15T11:40:20Z</time>
      </trkpt>
      <trkpt lat="44.28094" lon="5.88652">
        <ele>563.9504395</ele>
        <time>2016-02-15T11:40:23Z</time>
      </trkpt>
      <trkpt lat="44.28087" lon="5.88637">
        <ele>565.873291</ele>
        <time>2016-02-15T11:40:30Z</time>
      </trkpt>
      <trkpt lat="44.28083" lon="5.88632">
        <ele>565.873291</ele>
        <time>2016-02-15T11:40:33Z</time>
      </trkpt>
      <trkpt lat="44.2806" lon="5.8861">
        <ele>567.7956543</ele>
        <time>2016-02-15T11:40:48Z</time>
      </trkpt>
      <trkpt lat="44.28031" lon="5.88586">
        <ele>570.6796875</ele>
        <time>2016-02-15T11:41:07Z</time>
      </trkpt>
      <trkpt lat="44.27999" lon="5.88567">
        <ele>573.5639648</ele>
        <time>2016-02-15T11:41:27Z</time>
      </trkpt>
      <trkpt lat="44.27969" lon="5.88558">
        <ele>576.4477539</ele>
        <time>2016-02-15T11:41:46Z</time>
      </trkpt>
      <trkpt lat="44.27967" lon="5.88556">
        <ele>576.4477539</ele>
        <time>2016-02-15T11:41:47Z</time>
      </trkpt>
      <trkpt lat="44.27962" lon="5.88542">
        <ele>576.4477539</ele>
        <time>2016-02-15T11:41:53Z</time>
      </trkpt>
      <trkpt lat="44.27965" lon="5.88497">
        <ele>576.9284668</ele>
        <time>2016-02-15T11:42:08Z</time>
      </trkpt>
      <trkpt lat="44.27971" lon="5.88453">
        <ele>576.9284668</ele>
        <time>2016-02-15T11:42:22Z</time>
      </trkpt>
      <trkpt lat="44.27975" lon="5.88416">
        <ele>579.8122559</ele>
        <time>2016-02-15T11:42:36Z</time>
      </trkpt>
      <trkpt lat="44.27976" lon="5.88405">
        <ele>580.7736816</ele>
        <time>2016-02-15T11:42:41Z</time>
      </trkpt>
      <trkpt lat="44.27975" lon="5.88395">
        <ele>580.7736816</ele>
        <time>2016-02-15T11:42:45Z</time>
      </trkpt>
      <trkpt lat="44.27973" lon="5.8838">
        <ele>581.7348633</ele>
        <time>2016-02-15T11:42:51Z</time>
      </trkpt>
      <trkpt lat="44.27958" lon="5.88354">
        <ele>585.0996094</ele>
        <time>2016-02-15T11:43:05Z</time>
      </trkpt>
      <trkpt lat="44.27958" lon="5.8835">
        <ele>585.5800781</ele>
        <time>2016-02-15T11:43:07Z</time>
      </trkpt>
      <trkpt lat="44.27962" lon="5.88327">
        <ele>587.5026855</ele>
        <time>2016-02-15T11:43:19Z</time>
      </trkpt>
      <trkpt lat="44.27968" lon="5.8831">
        <ele>589.4255371</ele>
        <time>2016-02-15T11:43:28Z</time>
      </trkpt>
      <trkpt lat="44.27965" lon="5.88301">
        <ele>590.3869629</ele>
        <time>2016-02-15T11:43:34Z</time>
      </trkpt>
      <trkpt lat="44.27961" lon="5.88296">
        <ele>591.3481445</ele>
        <time>2016-02-15T11:43:37Z</time>
      </trkpt>
      <trkpt lat="44.27959" lon="5.88291">
        <ele>592.7902832</ele>
        <time>2016-02-15T11:43:41Z</time>
      </trkpt>
      <trkpt lat="44.2796" lon="5.88285">
        <ele>593.270752</ele>
        <time>2016-02-15T11:43:53Z</time>
      </trkpt>
      <trkpt lat="44.27965" lon="5.88269">
        <ele>595.1933594</ele>
        <time>2016-02-15T11:44:08Z</time>
      </trkpt>
      <trkpt lat="44.27974" lon="5.88245">
        <ele>598.0773926</ele>
        <time>2016-02-15T11:44:29Z</time>
      </trkpt>
      <trkpt lat="44.27979" lon="5.88229">
        <ele>600.9611816</ele>
        <time>2016-02-15T11:44:47Z</time>
      </trkpt>
      <trkpt lat="44.27979" lon="5.88209">
        <ele>602.8837891</ele>
        <time>2016-02-15T11:45:04Z</time>
      </trkpt>
      <trkpt lat="44.27978" lon="5.88188">
        <ele>606.2485352</ele>
        <time>2016-02-15T11:45:24Z</time>
      </trkpt>
      <trkpt lat="44.27974" lon="5.88171">
        <ele>609.6132813</ele>
        <time>2016-02-15T11:45:42Z</time>
      </trkpt>
      <trkpt lat="44.27965" lon="5.88153">
        <ele>611.5358887</ele>
        <time>2016-02-15T11:46:04Z</time>
      </trkpt>
      <trkpt lat="44.27953" lon="5.88134">
        <ele>614.4196777</ele>
        <time>2016-02-15T11:46:27Z</time>
      </trkpt>
      <trkpt lat="44.27952" lon="5.88132">
        <ele>615.3811035</ele>
        <time>2016-02-15T11:46:29Z</time>
      </trkpt>
      <trkpt lat="44.27944" lon="5.88125">
        <ele>616.822998</ele>
        <time>2016-02-15T11:46:39Z</time>
      </trkpt>
      <trkpt lat="44.27937" lon="5.88119">
        <ele>617.7841797</ele>
        <time>2016-02-15T11:46:47Z</time>
      </trkpt>
      <trkpt lat="44.27934" lon="5.88114">
        <ele>617.7841797</ele>
        <time>2016-02-15T11:46:52Z</time>
      </trkpt>
      <trkpt lat="44.27928" lon="5.88102">
        <ele>619.7070313</ele>
        <time>2016-02-15T11:47:03Z</time>
      </trkpt>
      <trkpt lat="44.27922" lon="5.88084">
        <ele>621.1491699</ele>
        <time>2016-02-15T11:47:19Z</time>
      </trkpt>
      <trkpt lat="44.27917" lon="5.88075">
        <ele>622.1103516</ele>
        <time>2016-02-15T11:47:27Z</time>
      </trkpt>
      <trkpt lat="44.27911" lon="5.88057">
        <ele>623.5524902</ele>
        <time>2016-02-15T11:47:44Z</time>
      </trkpt>
      <trkpt lat="44.27904" lon="5.88041">
        <ele>626.4362793</ele>
        <time>2016-02-15T11:48:00Z</time>
      </trkpt>
      <trkpt lat="44.27895" lon="5.88028">
        <ele>628.8395996</ele>
        <time>2016-02-15T11:48:17Z</time>
      </trkpt>
      <trkpt lat="44.27884" lon="5.88022">
        <ele>631.2429199</ele>
        <time>2016-02-15T11:48:32Z</time>
      </trkpt>
      <trkpt lat="44.27879" lon="5.88011">
        <ele>631.7233887</ele>
        <time>2016-02-15T11:48:44Z</time>
      </trkpt>
      <trkpt lat="44.27874" lon="5.87989">
        <ele>634.6074219</ele>
        <time>2016-02-15T11:49:03Z</time>
      </trkpt>
      <trkpt lat="44.27872" lon="5.8798">
        <ele>636.5302734</ele>
        <time>2016-02-15T11:49:27Z</time>
      </trkpt>
      <trkpt lat="44.27865" lon="5.87965">
        <ele>637.0107422</ele>
        <time>2016-02-15T11:50:09Z</time>
      </trkpt>
      <trkpt lat="44.27864" lon="5.87961">
        <ele>637.0107422</ele>
        <time>2016-02-15T11:50:13Z</time>
      </trkpt>
      <trkpt lat="44.27856" lon="5.8794">
        <ele>637.972168</ele>
        <time>2016-02-15T11:50:21Z</time>
      </trkpt>
      <trkpt lat="44.27852" lon="5.87935">
        <ele>638.4528809</ele>
        <time>2016-02-15T11:50:24Z</time>
      </trkpt>
      <trkpt lat="44.27839" lon="5.87899">
        <ele>639.4140625</ele>
        <time>2016-02-15T11:50:38Z</time>
      </trkpt>
      <trkpt lat="44.27825" lon="5.87857">
        <ele>639.8947754</ele>
        <time>2016-02-15T11:50:52Z</time>
      </trkpt>
      <trkpt lat="44.27817" lon="5.87813">
        <ele>639.4140625</ele>
        <time>2016-02-15T11:51:05Z</time>
      </trkpt>
      <trkpt lat="44.27804" lon="5.87765">
        <ele>640.3754883</ele>
        <time>2016-02-15T11:51:18Z</time>
      </trkpt>
      <trkpt lat="44.27796" lon="5.87725">
        <ele>642.2980957</ele>
        <time>2016-02-15T11:51:30Z</time>
      </trkpt>
      <trkpt lat="44.2779" lon="5.87681">
        <ele>644.2207031</ele>
        <time>2016-02-15T11:51:44Z</time>
      </trkpt>
      <trkpt lat="44.27795" lon="5.87602">
        <ele>645.1818848</ele>
        <time>2016-02-15T11:52:05Z</time>
      </trkpt>
      <trkpt lat="44.278" lon="5.87531">
        <ele>646.1433105</ele>
        <time>2016-02-15T11:52:24Z</time>
      </trkpt>
      <trkpt lat="44.27802" lon="5.87479">
        <ele>648.065918</ele>
        <time>2016-02-15T11:52:40Z</time>
      </trkpt>
      <trkpt lat="44.27803" lon="5.87476">
        <ele>649.9885254</ele>
        <time>2016-02-15T11:52:48Z</time>
      </trkpt>
      <trkpt lat="44.27802" lon="5.87476">
        <ele>649.5078125</ele>
        <time>2016-02-15T11:52:59Z</time>
      </trkpt>
      <trkpt lat="44.27787" lon="5.87444">
        <ele>649.5078125</ele>
        <time>2016-02-15T11:53:12Z</time>
      </trkpt>
      <trkpt lat="44.27774" lon="5.87402">
        <ele>651.9111328</ele>
        <time>2016-02-15T11:53:26Z</time>
      </trkpt>
      <trkpt lat="44.27756" lon="5.87341">
        <ele>653.3532715</ele>
        <time>2016-02-15T11:53:46Z</time>
      </trkpt>
      <trkpt lat="44.27739" lon="5.8726">
        <ele>654.3146973</ele>
        <time>2016-02-15T11:54:08Z</time>
      </trkpt>
      <trkpt lat="44.27725" lon="5.87196">
        <ele>655.2758789</ele>
        <time>2016-02-15T11:54:27Z</time>
      </trkpt>
      <trkpt lat="44.27723" lon="5.87175">
        <ele>652.3918457</ele>
        <time>2016-02-15T11:54:31Z</time>
      </trkpt>
      <trkpt lat="44.27721" lon="5.87164">
        <ele>650.949707</ele>
        <time>2016-02-15T11:54:33Z</time>
      </trkpt>
      <trkpt lat="44.2772" lon="5.87146">
        <ele>649.5078125</ele>
        <time>2016-02-15T11:54:37Z</time>
      </trkpt>
      <trkpt lat="44.27721" lon="5.87115">
        <ele>648.065918</ele>
        <time>2016-02-15T11:54:42Z</time>
      </trkpt>
      <trkpt lat="44.2772" lon="5.87068">
        <ele>644.7011719</ele>
        <time>2016-02-15T11:54:48Z</time>
      </trkpt>
      <trkpt lat="44.27721" lon="5.8706">
        <ele>644.7011719</ele>
        <time>2016-02-15T11:54:49Z</time>
      </trkpt>
      <trkpt lat="44.27719" lon="5.87021">
        <ele>643.2592773</ele>
        <time>2016-02-15T11:54:55Z</time>
      </trkpt>
      <trkpt lat="44.27708" lon="5.86952">
        <ele>641.8173828</ele>
        <time>2016-02-15T11:55:09Z</time>
      </trkpt>
      <trkpt lat="44.27702" lon="5.86911">
        <ele>641.8173828</ele>
        <time>2016-02-15T11:55:18Z</time>
      </trkpt>
      <trkpt lat="44.27706" lon="5.869">
        <ele>641.8173828</ele>
        <time>2016-02-15T11:55:27Z</time>
      </trkpt>
      <trkpt lat="44.27705" lon="5.86897">
        <ele>641.8173828</ele>
        <time>2016-02-15T11:55:44Z</time>
      </trkpt>
      <trkpt lat="44.27692" lon="5.86903">
        <ele>641.3366699</ele>
        <time>2016-02-15T11:55:51Z</time>
      </trkpt>
      <trkpt lat="44.27694" lon="5.86904">
        <ele>640.855957</ele>
        <time>2016-02-15T11:55:56Z</time>
      </trkpt>
      <trkpt lat="44.27716" lon="5.86893">
        <ele>642.7788086</ele>
        <time>2016-02-15T11:56:07Z</time>
      </trkpt>
      <trkpt lat="44.2771" lon="5.86844">
        <ele>645.6625977</ele>
        <time>2016-02-15T11:56:21Z</time>
      </trkpt>
      <trkpt lat="44.27707" lon="5.86828">
        <ele>645.1818848</ele>
        <time>2016-02-15T11:56:25Z</time>
      </trkpt>
      <trkpt lat="44.27689" lon="5.86802">
        <ele>643.7399902</ele>
        <time>2016-02-15T11:56:37Z</time>
      </trkpt>
      <trkpt lat="44.27675" lon="5.8677">
        <ele>642.7788086</ele>
        <time>2016-02-15T11:56:56Z</time>
      </trkpt>
      <trkpt lat="44.27659" lon="5.86733">
        <ele>641.3366699</ele>
        <time>2016-02-15T11:57:01Z</time>
      </trkpt>
      <trkpt lat="44.27639" lon="5.867">
        <ele>638.9335938</ele>
        <time>2016-02-15T11:57:05Z</time>
      </trkpt>
      <trkpt lat="44.27624" lon="5.86675">
        <ele>636.5302734</ele>
        <time>2016-02-15T11:57:08Z</time>
      </trkpt>
      <trkpt lat="44.2762" lon="5.86667">
        <ele>636.0495605</ele>
        <time>2016-02-15T11:57:09Z</time>
      </trkpt>
      <trkpt lat="44.27612" lon="5.86647">
        <ele>634.6074219</ele>
        <time>2016-02-15T11:57:11Z</time>
      </trkpt>
      <trkpt lat="44.27599" lon="5.86604">
        <ele>631.7233887</ele>
        <time>2016-02-15T11:57:15Z</time>
      </trkpt>
      <trkpt lat="44.27592" lon="5.86587">
        <ele>629.3200684</ele>
        <time>2016-02-15T11:57:17Z</time>
      </trkpt>
      <trkpt lat="44.27586" lon="5.86571">
        <ele>627.8781738</ele>
        <time>2016-02-15T11:57:19Z</time>
      </trkpt>
      <trkpt lat="44.27575" lon="5.86546">
        <ele>626.4362793</ele>
        <time>2016-02-15T11:57:22Z</time>
      </trkpt>
      <trkpt lat="44.27569" lon="5.86531">
        <ele>624.9943848</ele>
        <time>2016-02-15T11:57:24Z</time>
      </trkpt>
      <trkpt lat="44.27551" lon="5.86495">
        <ele>621.6296387</ele>
        <time>2016-02-15T11:57:30Z</time>
      </trkpt>
      <trkpt lat="44.27548" lon="5.86458">
        <ele>619.7070313</ele>
        <time>2016-02-15T11:57:35Z</time>
      </trkpt>
      <trkpt lat="44.2755" lon="5.8645">
        <ele>618.7456055</ele>
        <time>2016-02-15T11:57:36Z</time>
      </trkpt>
      <trkpt lat="44.27553" lon="5.86432">
        <ele>619.2263184</ele>
        <time>2016-02-15T11:57:38Z</time>
      </trkpt>
      <trkpt lat="44.27553" lon="5.86415">
        <ele>617.7841797</ele>
        <time>2016-02-15T11:57:40Z</time>
      </trkpt>
      <trkpt lat="44.27551" lon="5.86397">
        <ele>617.7841797</ele>
        <time>2016-02-15T11:57:42Z</time>
      </trkpt>
      <trkpt lat="44.27543" lon="5.86369">
        <ele>615.3811035</ele>
        <time>2016-02-15T11:57:45Z</time>
      </trkpt>
      <trkpt lat="44.27537" lon="5.8635">
        <ele>612.9777832</ele>
        <time>2016-02-15T11:57:47Z</time>
      </trkpt>
      <trkpt lat="44.27533" lon="5.86342">
        <ele>612.4970703</ele>
        <time>2016-02-15T11:57:48Z</time>
      </trkpt>
      <trkpt lat="44.27521" lon="5.8631">
        <ele>610.09375</ele>
        <time>2016-02-15T11:57:52Z</time>
      </trkpt>
      <trkpt lat="44.27518" lon="5.86302">
        <ele>608.6518555</ele>
        <time>2016-02-15T11:57:53Z</time>
      </trkpt>
      <trkpt lat="44.27514" lon="5.86268">
        <ele>607.2099609</ele>
        <time>2016-02-15T11:57:56Z</time>
      </trkpt>
      <trkpt lat="44.27515" lon="5.86243">
        <ele>603.8452148</ele>
        <time>2016-02-15T11:57:58Z</time>
      </trkpt>
      <trkpt lat="44.27514" lon="5.86231">
        <ele>603.8452148</ele>
        <time>2016-02-15T11:57:59Z</time>
      </trkpt>
      <trkpt lat="44.27507" lon="5.86151">
        <ele>602.4030762</ele>
        <time>2016-02-15T11:58:06Z</time>
      </trkpt>
      <trkpt lat="44.27474" lon="5.86046">
        <ele>601.4418945</ele>
        <time>2016-02-15T11:58:19Z</time>
      </trkpt>
      <trkpt lat="44.27454" lon="5.85975">
        <ele>602.4030762</ele>
        <time>2016-02-15T11:58:34Z</time>
      </trkpt>
      <trkpt lat="44.27453" lon="5.85972">
        <ele>602.4030762</ele>
        <time>2016-02-15T11:58:35Z</time>
      </trkpt>
      <trkpt lat="44.27442" lon="5.85926">
        <ele>604.3261719</ele>
        <time>2016-02-15T11:58:50Z</time>
      </trkpt>
      <trkpt lat="44.27439" lon="5.85902">
        <ele>606.2485352</ele>
        <time>2016-02-15T11:58:59Z</time>
      </trkpt>
      <trkpt lat="44.27435" lon="5.85857">
        <ele>608.6518555</ele>
        <time>2016-02-15T11:59:15Z</time>
      </trkpt>
      <trkpt lat="44.27435" lon="5.85853">
        <ele>608.6518555</ele>
        <time>2016-02-15T11:59:17Z</time>
      </trkpt>
      <trkpt lat="44.27439" lon="5.8584">
        <ele>609.6132813</ele>
        <time>2016-02-15T11:59:23Z</time>
      </trkpt>
      <trkpt lat="44.27453" lon="5.85816">
        <ele>611.5358887</ele>
        <time>2016-02-15T11:59:34Z</time>
      </trkpt>
      <trkpt lat="44.27471" lon="5.85792">
        <ele>613.9389648</ele>
        <time>2016-02-15T11:59:50Z</time>
      </trkpt>
      <trkpt lat="44.27473" lon="5.85782">
        <ele>615.3811035</ele>
        <time>2016-02-15T11:59:54Z</time>
      </trkpt>
      <trkpt lat="44.27453" lon="5.85776">
        <ele>617.7841797</ele>
        <time>2016-02-15T12:00:07Z</time>
      </trkpt>
      <trkpt lat="44.27445" lon="5.85776">
        <ele>619.2263184</ele>
        <time>2016-02-15T12:00:12Z</time>
      </trkpt>
      <trkpt lat="44.27441" lon="5.85778">
        <ele>619.2263184</ele>
        <time>2016-02-15T12:00:15Z</time>
      </trkpt>
      <trkpt lat="44.27438" lon="5.85777">
        <ele>619.7070313</ele>
        <time>2016-02-15T12:00:18Z</time>
      </trkpt>
      <trkpt lat="44.27416" lon="5.85778">
        <ele>622.1103516</ele>
        <time>2016-02-15T12:00:33Z</time>
      </trkpt>
      <trkpt lat="44.27416" lon="5.85777">
        <ele>621.6296387</ele>
        <time>2016-02-15T12:00:56Z</time>
      </trkpt>
      <trkpt lat="44.27418" lon="5.85777">
        <ele>622.5910645</ele>
        <time>2016-02-15T12:01:21Z</time>
      </trkpt>
      <trkpt lat="44.27419" lon="5.85777">
        <ele>622.1103516</ele>
        <time>2016-02-15T12:01:28Z</time>
      </trkpt>
      <trkpt lat="44.27447" lon="5.85761">
        <ele>622.5910645</ele>
        <time>2016-02-15T12:01:41Z</time>
      </trkpt>
      <trkpt lat="44.27495" lon="5.85734">
        <ele>623.0717773</ele>
        <time>2016-02-15T12:01:57Z</time>
      </trkpt>
      <trkpt lat="44.2751" lon="5.8573">
        <ele>624.032959</ele>
        <time>2016-02-15T12:02:02Z</time>
      </trkpt>
      <trkpt lat="44.27557" lon="5.85722">
        <ele>622.5910645</ele>
        <time>2016-02-15T12:02:17Z</time>
      </trkpt>
      <trkpt lat="44.27607" lon="5.85717">
        <ele>622.1103516</ele>
        <time>2016-02-15T12:02:34Z</time>
      </trkpt>
      <trkpt lat="44.27658" lon="5.8572">
        <ele>620.668457</ele>
        <time>2016-02-15T12:02:49Z</time>
      </trkpt>
      <trkpt lat="44.27722" lon="5.85757">
        <ele>620.668457</ele>
        <time>2016-02-15T12:03:07Z</time>
      </trkpt>
      <trkpt lat="44.27746" lon="5.85769">
        <ele>621.6296387</ele>
        <time>2016-02-15T12:03:16Z</time>
      </trkpt>
      <trkpt lat="44.2778" lon="5.85769">
        <ele>620.1877441</ele>
        <time>2016-02-15T12:03:28Z</time>
      </trkpt>
      <trkpt lat="44.27827" lon="5.85799">
        <ele>619.2263184</ele>
        <time>2016-02-15T12:03:41Z</time>
      </trkpt>
      <trkpt lat="44.27858" lon="5.85818">
        <ele>619.2263184</ele>
        <time>2016-02-15T12:03:52Z</time>
      </trkpt>
      <trkpt lat="44.27877" lon="5.85824">
        <ele>619.7070313</ele>
        <time>2016-02-15T12:03:59Z</time>
      </trkpt>
      <trkpt lat="44.27887" lon="5.85827">
        <ele>618.7456055</ele>
        <time>2016-02-15T12:04:03Z</time>
      </trkpt>
      <trkpt lat="44.27921" lon="5.85835">
        <ele>621.6296387</ele>
        <time>2016-02-15T12:04:17Z</time>
      </trkpt>
      <trkpt lat="44.27923" lon="5.85836">
        <ele>621.6296387</ele>
        <time>2016-02-15T12:04:18Z</time>
      </trkpt>
      <trkpt lat="44.27968" lon="5.85863">
        <ele>622.5910645</ele>
        <time>2016-02-15T12:04:34Z</time>
      </trkpt>
      <trkpt lat="44.27998" lon="5.85882">
        <ele>625.9555664</ele>
        <time>2016-02-15T12:04:47Z</time>
      </trkpt>
      <trkpt lat="44.28041" lon="5.85904">
        <ele>627.8781738</ele>
        <time>2016-02-15T12:05:07Z</time>
      </trkpt>
      <trkpt lat="44.2808" lon="5.85928">
        <ele>629.8007813</ele>
        <time>2016-02-15T12:05:24Z</time>
      </trkpt>
      <trkpt lat="44.28121" lon="5.85959">
        <ele>630.2814941</ele>
        <time>2016-02-15T12:05:40Z</time>
      </trkpt>
      <trkpt lat="44.2816" lon="5.86004">
        <ele>630.762207</ele>
        <time>2016-02-15T12:05:57Z</time>
      </trkpt>
      <trkpt lat="44.28215" lon="5.86076">
        <ele>631.2429199</ele>
        <time>2016-02-15T12:06:17Z</time>
      </trkpt>
      <trkpt lat="44.28277" lon="5.86134">
        <ele>632.6848145</ele>
        <time>2016-02-15T12:06:38Z</time>
      </trkpt>
      <trkpt lat="44.28323" lon="5.86195">
        <ele>633.6459961</ele>
        <time>2016-02-15T12:06:55Z</time>
      </trkpt>
      <trkpt lat="44.28359" lon="5.86264">
        <ele>633.1652832</ele>
        <time>2016-02-15T12:07:12Z</time>
      </trkpt>
      <trkpt lat="44.28381" lon="5.86313">
        <ele>634.126709</ele>
        <time>2016-02-15T12:07:22Z</time>
      </trkpt>
      <trkpt lat="44.28389" lon="5.86329">
        <ele>633.6459961</ele>
        <time>2016-02-15T12:07:25Z</time>
      </trkpt>
      <trkpt lat="44.28401" lon="5.86354">
        <ele>632.6848145</ele>
        <time>2016-02-15T12:07:30Z</time>
      </trkpt>
      <trkpt lat="44.28403" lon="5.86365">
        <ele>630.762207</ele>
        <time>2016-02-15T12:07:32Z</time>
      </trkpt>
      <trkpt lat="44.28408" lon="5.86398">
        <ele>631.7233887</ele>
        <time>2016-02-15T12:07:44Z</time>
      </trkpt>
      <trkpt lat="44.2841" lon="5.8642">
        <ele>630.2814941</ele>
        <time>2016-02-15T12:08:21Z</time>
      </trkpt>
      <trkpt lat="44.28411" lon="5.86478">
        <ele>628.3588867</ele>
        <time>2016-02-15T12:08:29Z</time>
      </trkpt>
      <trkpt lat="44.28428" lon="5.86543">
        <ele>628.3588867</ele>
        <time>2016-02-15T12:08:40Z</time>
      </trkpt>
      <trkpt lat="44.28435" lon="5.86607">
        <ele>628.8395996</ele>
        <time>2016-02-15T12:08:53Z</time>
      </trkpt>
      <trkpt lat="44.28431" lon="5.8666">
        <ele>630.762207</ele>
        <time>2016-02-15T12:09:07Z</time>
      </trkpt>
      <trkpt lat="44.28437" lon="5.86687">
        <ele>632.6848145</ele>
        <time>2016-02-15T12:09:15Z</time>
      </trkpt>
      <trkpt lat="44.28458" lon="5.86728">
        <ele>634.126709</ele>
        <time>2016-02-15T12:09:30Z</time>
      </trkpt>
      <trkpt lat="44.28496" lon="5.86757">
        <ele>635.5686035</ele>
        <time>2016-02-15T12:09:46Z</time>
      </trkpt>
      <trkpt lat="44.28546" lon="5.86792">
        <ele>635.0881348</ele>
        <time>2016-02-15T12:10:06Z</time>
      </trkpt>
      <trkpt lat="44.28592" lon="5.86832">
        <ele>636.0495605</ele>
        <time>2016-02-15T12:10:24Z</time>
      </trkpt>
      <trkpt lat="44.28662" lon="5.86903">
        <ele>636.5302734</ele>
        <time>2016-02-15T12:10:48Z</time>
      </trkpt>
      <trkpt lat="44.28723" lon="5.86954">
        <ele>637.972168</ele>
        <time>2016-02-15T12:11:07Z</time>
      </trkpt>
      <trkpt lat="44.28801" lon="5.87017">
        <ele>637.4914551</ele>
        <time>2016-02-15T12:11:30Z</time>
      </trkpt>
      <trkpt lat="44.28807" lon="5.87022">
        <ele>637.0107422</ele>
        <time>2016-02-15T12:11:32Z</time>
      </trkpt>
      <trkpt lat="44.28879" lon="5.87081">
        <ele>635.5686035</ele>
        <time>2016-02-15T12:11:52Z</time>
      </trkpt>
      <trkpt lat="44.28927" lon="5.87116">
        <ele>634.126709</ele>
        <time>2016-02-15T12:12:06Z</time>
      </trkpt>
      <trkpt lat="44.28976" lon="5.87171">
        <ele>634.126709</ele>
        <time>2016-02-15T12:12:22Z</time>
      </trkpt>
      <trkpt lat="44.29017" lon="5.87218">
        <ele>634.126709</ele>
        <time>2016-02-15T12:12:35Z</time>
      </trkpt>
      <trkpt lat="44.29064" lon="5.87265">
        <ele>632.2041016</ele>
        <time>2016-02-15T12:12:50Z</time>
      </trkpt>
      <trkpt lat="44.29112" lon="5.87307">
        <ele>634.126709</ele>
        <time>2016-02-15T12:13:05Z</time>
      </trkpt>
      <trkpt lat="44.2916" lon="5.8735">
        <ele>634.6074219</ele>
        <time>2016-02-15T12:13:18Z</time>
      </trkpt>
      <trkpt lat="44.29219" lon="5.87392">
        <ele>633.6459961</ele>
        <time>2016-02-15T12:13:34Z</time>
      </trkpt>
      <trkpt lat="44.29238" lon="5.87402">
        <ele>634.126709</ele>
        <time>2016-02-15T12:13:39Z</time>
      </trkpt>
      <trkpt lat="44.29292" lon="5.87464">
        <ele>633.1652832</ele>
        <time>2016-02-15T12:13:54Z</time>
      </trkpt>
      <trkpt lat="44.29295" lon="5.87468">
        <ele>633.1652832</ele>
        <time>2016-02-15T12:13:55Z</time>
      </trkpt>
      <trkpt lat="44.29312" lon="5.8749">
        <ele>634.6074219</ele>
        <time>2016-02-15T12:14:00Z</time>
      </trkpt>
      <trkpt lat="44.29334" lon="5.87525">
        <ele>634.126709</ele>
        <time>2016-02-15T12:14:08Z</time>
      </trkpt>
      <trkpt lat="44.29348" lon="5.87573">
        <ele>635.0881348</ele>
        <time>2016-02-15T12:14:17Z</time>
      </trkpt>
      <trkpt lat="44.29358" lon="5.8759">
        <ele>635.0881348</ele>
        <time>2016-02-15T12:14:21Z</time>
      </trkpt>
      <trkpt lat="44.29387" lon="5.87612">
        <ele>633.1652832</ele>
        <time>2016-02-15T12:14:27Z</time>
      </trkpt>
      <trkpt lat="44.29406" lon="5.87621">
        <ele>631.2429199</ele>
        <time>2016-02-15T12:14:30Z</time>
      </trkpt>
      <trkpt lat="44.29505" lon="5.8767">
        <ele>631.2429199</ele>
        <time>2016-02-15T12:14:47Z</time>
      </trkpt>
      <trkpt lat="44.29583" lon="5.87725">
        <ele>631.2429199</ele>
        <time>2016-02-15T12:15:05Z</time>
      </trkpt>
      <trkpt lat="44.29592" lon="5.87738">
        <ele>631.7233887</ele>
        <time>2016-02-15T12:15:08Z</time>
      </trkpt>
      <trkpt lat="44.29621" lon="5.87803">
        <ele>632.2041016</ele>
        <time>2016-02-15T12:15:20Z</time>
      </trkpt>
      <trkpt lat="44.29627" lon="5.87822">
        <ele>632.6848145</ele>
        <time>2016-02-15T12:15:23Z</time>
      </trkpt>
      <trkpt lat="44.29664" lon="5.87901">
        <ele>632.2041016</ele>
        <time>2016-02-15T12:15:37Z</time>
      </trkpt>
      <trkpt lat="44.29694" lon="5.87975">
        <ele>630.762207</ele>
        <time>2016-02-15T12:15:49Z</time>
      </trkpt>
      <trkpt lat="44.29743" lon="5.88087">
        <ele>627.3977051</ele>
        <time>2016-02-15T12:16:03Z</time>
      </trkpt>
      <trkpt lat="44.29755" lon="5.88116">
        <ele>625.9555664</ele>
        <time>2016-02-15T12:16:06Z</time>
      </trkpt>
      <trkpt lat="44.298" lon="5.88223">
        <ele>624.5136719</ele>
        <time>2016-02-15T12:16:18Z</time>
      </trkpt>
      <trkpt lat="44.29844" lon="5.88279">
        <ele>623.0717773</ele>
        <time>2016-02-15T12:16:27Z</time>
      </trkpt>
      <trkpt lat="44.29861" lon="5.88306">
        <ele>623.0717773</ele>
        <time>2016-02-15T12:16:31Z</time>
      </trkpt>
      <trkpt lat="44.29883" lon="5.88331">
        <ele>624.032959</ele>
        <time>2016-02-15T12:16:36Z</time>
      </trkpt>
      <trkpt lat="44.29925" lon="5.88356">
        <ele>623.5524902</ele>
        <time>2016-02-15T12:16:44Z</time>
      </trkpt>
      <trkpt lat="44.29936" lon="5.8836">
        <ele>623.0717773</ele>
        <time>2016-02-15T12:16:46Z</time>
      </trkpt>
      <trkpt lat="44.30008" lon="5.88386">
        <ele>619.7070313</ele>
        <time>2016-02-15T12:16:57Z</time>
      </trkpt>
      <trkpt lat="44.30016" lon="5.88387">
        <ele>619.7070313</ele>
        <time>2016-02-15T12:16:58Z</time>
      </trkpt>
      <trkpt lat="44.30111" lon="5.88405">
        <ele>615.3811035</ele>
        <time>2016-02-15T12:17:10Z</time>
      </trkpt>
      <trkpt lat="44.30118" lon="5.88407">
        <ele>614.9003906</ele>
        <time>2016-02-15T12:17:11Z</time>
      </trkpt>
      <trkpt lat="44.30138" lon="5.88412">
        <ele>613.9389648</ele>
        <time>2016-02-15T12:17:14Z</time>
      </trkpt>
      <trkpt lat="44.30176" lon="5.88418">
        <ele>612.4970703</ele>
        <time>2016-02-15T12:17:19Z</time>
      </trkpt>
      <trkpt lat="44.30229" lon="5.88425">
        <ele>610.5744629</ele>
        <time>2016-02-15T12:17:26Z</time>
      </trkpt>
      <trkpt lat="44.30248" lon="5.8843">
        <ele>609.6132813</ele>
        <time>2016-02-15T12:17:28Z</time>
      </trkpt>
      <trkpt lat="44.30272" lon="5.88445">
        <ele>609.1325684</ele>
        <time>2016-02-15T12:17:31Z</time>
      </trkpt>
      <trkpt lat="44.30293" lon="5.88463">
        <ele>607.6906738</ele>
        <time>2016-02-15T12:17:34Z</time>
      </trkpt>
      <trkpt lat="44.30336" lon="5.88503">
        <ele>604.3261719</ele>
        <time>2016-02-15T12:17:41Z</time>
      </trkpt>
      <trkpt lat="44.30354" lon="5.88523">
        <ele>603.364502</ele>
        <time>2016-02-15T12:17:44Z</time>
      </trkpt>
      <trkpt lat="44.3039" lon="5.88544">
        <ele>601.9226074</ele>
        <time>2016-02-15T12:17:50Z</time>
      </trkpt>
      <trkpt lat="44.30423" lon="5.8855">
        <ele>600.9611816</ele>
        <time>2016-02-15T12:18:00Z</time>
      </trkpt>
      <trkpt lat="44.30422" lon="5.88553">
        <ele>601.9226074</ele>
        <time>2016-02-15T12:19:36Z</time>
      </trkpt>
      <trkpt lat="44.30422" lon="5.88558">
        <ele>601.4418945</ele>
        <time>2016-02-15T12:20:14Z</time>
      </trkpt>
      <trkpt lat="44.30427" lon="5.88548">
        <ele>602.4030762</ele>
        <time>2016-02-15T12:20:18Z</time>
      </trkpt>
      <trkpt lat="44.30424" lon="5.88511">
        <ele>602.4030762</ele>
        <time>2016-02-15T12:20:28Z</time>
      </trkpt>
      <trkpt lat="44.30411" lon="5.88465">
        <ele>603.364502</ele>
        <time>2016-02-15T12:20:39Z</time>
      </trkpt>
      <trkpt lat="44.30389" lon="5.88391">
        <ele>606.2485352</ele>
        <time>2016-02-15T12:21:00Z</time>
      </trkpt>
      <trkpt lat="44.30377" lon="5.88337">
        <ele>608.1713867</ele>
        <time>2016-02-15T12:21:18Z</time>
      </trkpt>
      <trkpt lat="44.30371" lon="5.88292">
        <ele>611.0551758</ele>
        <time>2016-02-15T12:21:34Z</time>
      </trkpt>
      <trkpt lat="44.30372" lon="5.8826">
        <ele>612.9777832</ele>
        <time>2016-02-15T12:21:46Z</time>
      </trkpt>
      <trkpt lat="44.30373" lon="5.88249">
        <ele>613.4584961</ele>
        <time>2016-02-15T12:21:52Z</time>
      </trkpt>
      <trkpt lat="44.30378" lon="5.88206">
        <ele>615.8618164</ele>
        <time>2016-02-15T12:22:10Z</time>
      </trkpt>
      <trkpt lat="44.30379" lon="5.88194">
        <ele>616.3422852</ele>
        <time>2016-02-15T12:22:15Z</time>
      </trkpt>
      <trkpt lat="44.30384" lon="5.88154">
        <ele>618.7456055</ele>
        <time>2016-02-15T12:22:32Z</time>
      </trkpt>
      <trkpt lat="44.30386" lon="5.88116">
        <ele>620.668457</ele>
        <time>2016-02-15T12:22:49Z</time>
      </trkpt>
      <trkpt lat="44.30388" lon="5.88084">
        <ele>622.5910645</ele>
        <time>2016-02-15T12:23:04Z</time>
      </trkpt>
      <trkpt lat="44.30385" lon="5.88032">
        <ele>624.9943848</ele>
        <time>2016-02-15T12:23:25Z</time>
      </trkpt>
      <trkpt lat="44.3038" lon="5.87982">
        <ele>627.8781738</ele>
        <time>2016-02-15T12:23:45Z</time>
      </trkpt>
      <trkpt lat="44.30378" lon="5.87931">
        <ele>630.2814941</ele>
        <time>2016-02-15T12:24:06Z</time>
      </trkpt>
      <trkpt lat="44.3038" lon="5.87887">
        <ele>632.6848145</ele>
        <time>2016-02-15T12:24:25Z</time>
      </trkpt>
      <trkpt lat="44.30387" lon="5.87848">
        <ele>634.6074219</ele>
        <time>2016-02-15T12:24:43Z</time>
      </trkpt>
      <trkpt lat="44.30396" lon="5.87819">
        <ele>636.5302734</ele>
        <time>2016-02-15T12:24:57Z</time>
      </trkpt>
      <trkpt lat="44.30411" lon="5.87781">
        <ele>639.8947754</ele>
        <time>2016-02-15T12:25:17Z</time>
      </trkpt>
      <trkpt lat="44.30416" lon="5.87773">
        <ele>639.8947754</ele>
        <time>2016-02-15T12:25:22Z</time>
      </trkpt>
      <trkpt lat="44.3042" lon="5.87767">
        <ele>640.855957</ele>
        <time>2016-02-15T12:25:26Z</time>
      </trkpt>
      <trkpt lat="44.30424" lon="5.87755">
        <ele>642.2980957</ele>
        <time>2016-02-15T12:25:32Z</time>
      </trkpt>
      <trkpt lat="44.3044" lon="5.87732">
        <ele>643.7399902</ele>
        <time>2016-02-15T12:25:47Z</time>
      </trkpt>
      <trkpt lat="44.30441" lon="5.87731">
        <ele>643.7399902</ele>
        <time>2016-02-15T12:25:48Z</time>
      </trkpt>
      <trkpt lat="44.30453" lon="5.87714">
        <ele>644.7011719</ele>
        <time>2016-02-15T12:25:58Z</time>
      </trkpt>
      <trkpt lat="44.30477" lon="5.87686">
        <ele>646.6240234</ele>
        <time>2016-02-15T12:26:16Z</time>
      </trkpt>
      <trkpt lat="44.30485" lon="5.87677">
        <ele>647.5852051</ele>
        <time>2016-02-15T12:26:22Z</time>
      </trkpt>
      <trkpt lat="44.30502" lon="5.87656">
        <ele>648.5463867</ele>
        <time>2016-02-15T12:26:35Z</time>
      </trkpt>
      <trkpt lat="44.30506" lon="5.87652">
        <ele>648.5463867</ele>
        <time>2016-02-15T12:26:38Z</time>
      </trkpt>
      <trkpt lat="44.30524" lon="5.87624">
        <ele>649.5078125</ele>
        <time>2016-02-15T12:26:53Z</time>
      </trkpt>
      <trkpt lat="44.30539" lon="5.87587">
        <ele>651.4304199</ele>
        <time>2016-02-15T12:27:09Z</time>
      </trkpt>
      <trkpt lat="44.30551" lon="5.87538">
        <ele>652.3918457</ele>
        <time>2016-02-15T12:27:28Z</time>
      </trkpt>
      <trkpt lat="44.30557" lon="5.87501">
        <ele>652.3918457</ele>
        <time>2016-02-15T12:27:43Z</time>
      </trkpt>
      <trkpt lat="44.30562" lon="5.87449">
        <ele>650.4692383</ele>
        <time>2016-02-15T12:28:01Z</time>
      </trkpt>
      <trkpt lat="44.30558" lon="5.8744">
        <ele>652.3918457</ele>
        <time>2016-02-15T12:28:04Z</time>
      </trkpt>
      <trkpt lat="44.30555" lon="5.87406">
        <ele>651.9111328</ele>
        <time>2016-02-15T12:28:17Z</time>
      </trkpt>
      <trkpt lat="44.30559" lon="5.87396">
        <ele>651.9111328</ele>
        <time>2016-02-15T12:28:30Z</time>
      </trkpt>
      <trkpt lat="44.3056" lon="5.87396">
        <ele>652.3918457</ele>
        <time>2016-02-15T12:28:58Z</time>
      </trkpt>
      <trkpt lat="44.30561" lon="5.87396">
        <ele>651.4304199</ele>
        <time>2016-02-15T12:29:19Z</time>
      </trkpt>
      <trkpt lat="44.30562" lon="5.87396">
        <ele>650.949707</ele>
        <time>2016-02-15T12:29:41Z</time>
      </trkpt>
      <trkpt lat="44.30583" lon="5.87375">
        <ele>650.4692383</ele>
        <time>2016-02-15T12:29:52Z</time>
      </trkpt>
      <trkpt lat="44.30624" lon="5.87298">
        <ele>647.5852051</ele>
        <time>2016-02-15T12:30:09Z</time>
      </trkpt>
      <trkpt lat="44.30647" lon="5.87261">
        <ele>645.1818848</ele>
        <time>2016-02-15T12:30:16Z</time>
      </trkpt>
      <trkpt lat="44.30685" lon="5.87204">
        <ele>643.2592773</ele>
        <time>2016-02-15T12:30:26Z</time>
      </trkpt>
      <trkpt lat="44.30719" lon="5.87149">
        <ele>639.8947754</ele>
        <time>2016-02-15T12:30:36Z</time>
      </trkpt>
      <trkpt lat="44.30723" lon="5.87144">
        <ele>639.8947754</ele>
        <time>2016-02-15T12:30:37Z</time>
      </trkpt>
      <trkpt lat="44.30772" lon="5.87069">
        <ele>638.9335938</ele>
        <time>2016-02-15T12:30:52Z</time>
      </trkpt>
      <trkpt lat="44.30788" lon="5.87042">
        <ele>638.4528809</ele>
        <time>2016-02-15T12:30:57Z</time>
      </trkpt>
      <trkpt lat="44.30815" lon="5.86961">
        <ele>635.0881348</ele>
        <time>2016-02-15T12:31:09Z</time>
      </trkpt>
      <trkpt lat="44.30828" lon="5.86895">
        <ele>632.6848145</ele>
        <time>2016-02-15T12:31:17Z</time>
      </trkpt>
      <trkpt lat="44.30831" lon="5.86833">
        <ele>630.762207</ele>
        <time>2016-02-15T12:31:24Z</time>
      </trkpt>
      <trkpt lat="44.30825" lon="5.86757">
        <ele>627.3977051</ele>
        <time>2016-02-15T12:31:32Z</time>
      </trkpt>
      <trkpt lat="44.30816" lon="5.86694">
        <ele>624.9943848</ele>
        <time>2016-02-15T12:31:38Z</time>
      </trkpt>
      <trkpt lat="44.3081" lon="5.86649">
        <ele>622.5910645</ele>
        <time>2016-02-15T12:31:42Z</time>
      </trkpt>
      <trkpt lat="44.30805" lon="5.86617">
        <ele>621.1491699</ele>
        <time>2016-02-15T12:31:45Z</time>
      </trkpt>
      <trkpt lat="44.30803" lon="5.86596">
        <ele>619.2263184</ele>
        <time>2016-02-15T12:31:47Z</time>
      </trkpt>
      <trkpt lat="44.30797" lon="5.86556">
        <ele>617.7841797</ele>
        <time>2016-02-15T12:31:51Z</time>
      </trkpt>
      <trkpt lat="44.3079" lon="5.86527">
        <ele>615.8618164</ele>
        <time>2016-02-15T12:31:54Z</time>
      </trkpt>
      <trkpt lat="44.30764" lon="5.86455">
        <ele>612.9777832</ele>
        <time>2016-02-15T12:32:01Z</time>
      </trkpt>
      <trkpt lat="44.30733" lon="5.86392">
        <ele>609.6132813</ele>
        <time>2016-02-15T12:32:07Z</time>
      </trkpt>
      <trkpt lat="44.30728" lon="5.86381">
        <ele>609.6132813</ele>
        <time>2016-02-15T12:32:08Z</time>
      </trkpt>
      <trkpt lat="44.30708" lon="5.86343">
        <ele>607.6906738</ele>
        <time>2016-02-15T12:32:12Z</time>
      </trkpt>
      <trkpt lat="44.3069" lon="5.86298">
        <ele>605.7680664</ele>
        <time>2016-02-15T12:32:17Z</time>
      </trkpt>
      <trkpt lat="44.30678" lon="5.86246">
        <ele>604.3261719</ele>
        <time>2016-02-15T12:32:23Z</time>
      </trkpt>
      <trkpt lat="44.30676" lon="5.8622">
        <ele>602.4030762</ele>
        <time>2016-02-15T12:32:26Z</time>
      </trkpt>
      <trkpt lat="44.30674" lon="5.86203">
        <ele>602.4030762</ele>
        <time>2016-02-15T12:32:28Z</time>
      </trkpt>
      <trkpt lat="44.30675" lon="5.86177">
        <ele>601.4418945</ele>
        <time>2016-02-15T12:32:32Z</time>
      </trkpt>
      <trkpt lat="44.30689" lon="5.86153">
        <ele>599.5192871</ele>
        <time>2016-02-15T12:32:38Z</time>
      </trkpt>
      <trkpt lat="44.30706" lon="5.86165">
        <ele>599.5192871</ele>
        <time>2016-02-15T12:32:42Z</time>
      </trkpt>
      <trkpt lat="44.30722" lon="5.86193">
        <ele>601.9226074</ele>
        <time>2016-02-15T12:32:49Z</time>
      </trkpt>
      <trkpt lat="44.30752" lon="5.86239">
        <ele>604.3261719</ele>
        <time>2016-02-15T12:33:06Z</time>
      </trkpt>
      <trkpt lat="44.30781" lon="5.86281">
        <ele>606.2485352</ele>
        <time>2016-02-15T12:33:24Z</time>
      </trkpt>
      <trkpt lat="44.30808" lon="5.86321">
        <ele>608.6518555</ele>
        <time>2016-02-15T12:33:41Z</time>
      </trkpt>
      <trkpt lat="44.30835" lon="5.86365">
        <ele>610.09375</ele>
        <time>2016-02-15T12:33:58Z</time>
      </trkpt>
      <trkpt lat="44.30868" lon="5.8641">
        <ele>611.5358887</ele>
        <time>2016-02-15T12:34:16Z</time>
      </trkpt>
      <trkpt lat="44.30902" lon="5.86424">
        <ele>612.0166016</ele>
        <time>2016-02-15T12:34:31Z</time>
      </trkpt>
      <trkpt lat="44.30942" lon="5.86434">
        <ele>614.9003906</ele>
        <time>2016-02-15T12:34:48Z</time>
      </trkpt>
      <trkpt lat="44.30978" lon="5.8644">
        <ele>616.822998</ele>
        <time>2016-02-15T12:35:05Z</time>
      </trkpt>
      <trkpt lat="44.31011" lon="5.86445">
        <ele>619.2263184</ele>
        <time>2016-02-15T12:35:23Z</time>
      </trkpt>
      <trkpt lat="44.31042" lon="5.86448">
        <ele>622.5910645</ele>
        <time>2016-02-15T12:35:40Z</time>
      </trkpt>
      <trkpt lat="44.31071" lon="5.86453">
        <ele>624.032959</ele>
        <time>2016-02-15T12:35:55Z</time>
      </trkpt>
      <trkpt lat="44.31108" lon="5.86479">
        <ele>624.032959</ele>
        <time>2016-02-15T12:36:15Z</time>
      </trkpt>
      <trkpt lat="44.31126" lon="5.86512">
        <ele>625.9555664</ele>
        <time>2016-02-15T12:36:29Z</time>
      </trkpt>
      <trkpt lat="44.31142" lon="5.86548">
        <ele>629.8007813</ele>
        <time>2016-02-15T12:36:44Z</time>
      </trkpt>
      <trkpt lat="44.31164" lon="5.86592">
        <ele>630.762207</ele>
        <time>2016-02-15T12:37:04Z</time>
      </trkpt>
      <trkpt lat="44.31189" lon="5.86627">
        <ele>633.1652832</ele>
        <time>2016-02-15T12:37:23Z</time>
      </trkpt>
      <trkpt lat="44.31213" lon="5.86645">
        <ele>634.126709</ele>
        <time>2016-02-15T12:37:38Z</time>
      </trkpt>
      <trkpt lat="44.31234" lon="5.86656">
        <ele>636.0495605</ele>
        <time>2016-02-15T12:37:50Z</time>
      </trkpt>
      <trkpt lat="44.31265" lon="5.86671">
        <ele>637.4914551</ele>
        <time>2016-02-15T12:38:09Z</time>
      </trkpt>
      <trkpt lat="44.31288" lon="5.86683">
        <ele>639.8947754</ele>
        <time>2016-02-15T12:38:23Z</time>
      </trkpt>
      <trkpt lat="44.31292" lon="5.86685">
        <ele>639.8947754</ele>
        <time>2016-02-15T12:38:26Z</time>
      </trkpt>
      <trkpt lat="44.31315" lon="5.86697">
        <ele>642.7788086</ele>
        <time>2016-02-15T12:38:40Z</time>
      </trkpt>
      <trkpt lat="44.31318" lon="5.867">
        <ele>643.2592773</ele>
        <time>2016-02-15T12:38:42Z</time>
      </trkpt>
      <trkpt lat="44.3132" lon="5.86703">
        <ele>643.7399902</ele>
        <time>2016-02-15T12:38:44Z</time>
      </trkpt>
      <trkpt lat="44.31327" lon="5.86707">
        <ele>644.7011719</ele>
        <time>2016-02-15T12:38:49Z</time>
      </trkpt>
      <trkpt lat="44.31332" lon="5.86714">
        <ele>645.1818848</ele>
        <time>2016-02-15T12:38:54Z</time>
      </trkpt>
      <trkpt lat="44.31336" lon="5.86718">
        <ele>645.6625977</ele>
        <time>2016-02-15T12:38:58Z</time>
      </trkpt>
      <trkpt lat="44.31348" lon="5.86726">
        <ele>647.1044922</ele>
        <time>2016-02-15T12:39:06Z</time>
      </trkpt>
      <trkpt lat="44.31351" lon="5.86734">
        <ele>647.5852051</ele>
        <time>2016-02-15T12:39:10Z</time>
      </trkpt>
      <trkpt lat="44.31357" lon="5.86737">
        <ele>648.065918</ele>
        <time>2016-02-15T12:39:14Z</time>
      </trkpt>
      <trkpt lat="44.3137" lon="5.86758">
        <ele>650.949707</ele>
        <time>2016-02-15T12:39:27Z</time>
      </trkpt>
      <trkpt lat="44.31385" lon="5.86791">
        <ele>652.8725586</ele>
        <time>2016-02-15T12:39:44Z</time>
      </trkpt>
      <trkpt lat="44.31388" lon="5.86797">
        <ele>652.8725586</ele>
        <time>2016-02-15T12:39:48Z</time>
      </trkpt>
      <trkpt lat="44.314" lon="5.86823">
        <ele>655.2758789</ele>
        <time>2016-02-15T12:40:03Z</time>
      </trkpt>
      <trkpt lat="44.31415" lon="5.86852">
        <ele>656.7177734</ele>
        <time>2016-02-15T12:40:20Z</time>
      </trkpt>
      <trkpt lat="44.31431" lon="5.8689">
        <ele>658.6403809</ele>
        <time>2016-02-15T12:40:40Z</time>
      </trkpt>
      <trkpt lat="44.31458" lon="5.86921">
        <ele>659.1210938</ele>
        <time>2016-02-15T12:41:00Z</time>
      </trkpt>
      <trkpt lat="44.31482" lon="5.86942">
        <ele>662.005127</ele>
        <time>2016-02-15T12:41:16Z</time>
      </trkpt>
      <trkpt lat="44.31487" lon="5.86946">
        <ele>662.005127</ele>
        <time>2016-02-15T12:41:20Z</time>
      </trkpt>
      <trkpt lat="44.31512" lon="5.86962">
        <ele>664.4082031</ele>
        <time>2016-02-15T12:41:38Z</time>
      </trkpt>
      <trkpt lat="44.31532" lon="5.86974">
        <ele>666.3308105</ele>
        <time>2016-02-15T12:41:54Z</time>
      </trkpt>
      <trkpt lat="44.31549" lon="5.86986">
        <ele>668.2536621</ele>
        <time>2016-02-15T12:42:08Z</time>
      </trkpt>
      <trkpt lat="44.31551" lon="5.86988">
        <ele>668.734375</ele>
        <time>2016-02-15T12:42:10Z</time>
      </trkpt>
      <trkpt lat="44.31554" lon="5.86992">
        <ele>669.2150879</ele>
        <time>2016-02-15T12:42:13Z</time>
      </trkpt>
      <trkpt lat="44.31577" lon="5.87007">
        <ele>671.1376953</ele>
        <time>2016-02-15T12:42:30Z</time>
      </trkpt>
      <trkpt lat="44.31585" lon="5.87013">
        <ele>671.6181641</ele>
        <time>2016-02-15T12:42:35Z</time>
      </trkpt>
      <trkpt lat="44.31589" lon="5.87015">
        <ele>671.6181641</ele>
        <time>2016-02-15T12:42:38Z</time>
      </trkpt>
      <trkpt lat="44.31599" lon="5.87022">
        <ele>673.0603027</ele>
        <time>2016-02-15T12:42:47Z</time>
      </trkpt>
      <trkpt lat="44.31604" lon="5.87024">
        <ele>674.0214844</ele>
        <time>2016-02-15T12:42:51Z</time>
      </trkpt>
      <trkpt lat="44.31618" lon="5.87037">
        <ele>675.9440918</ele>
        <time>2016-02-15T12:43:04Z</time>
      </trkpt>
      <trkpt lat="44.31637" lon="5.87054">
        <ele>677.3862305</ele>
        <time>2016-02-15T12:43:17Z</time>
      </trkpt>
      <trkpt lat="44.31651" lon="5.87076">
        <ele>679.3085938</ele>
        <time>2016-02-15T12:43:32Z</time>
      </trkpt>
      <trkpt lat="44.31655" lon="5.87094">
        <ele>680.7507324</ele>
        <time>2016-02-15T12:43:43Z</time>
      </trkpt>
      <trkpt lat="44.31659" lon="5.871">
        <ele>681.7119141</ele>
        <time>2016-02-15T12:43:48Z</time>
      </trkpt>
      <trkpt lat="44.31662" lon="5.87111">
        <ele>683.1538086</ele>
        <time>2016-02-15T12:43:54Z</time>
      </trkpt>
      <trkpt lat="44.31657" lon="5.87122">
        <ele>684.1154785</ele>
        <time>2016-02-15T12:44:01Z</time>
      </trkpt>
      <trkpt lat="44.31656" lon="5.87126">
        <ele>684.5961914</ele>
        <time>2016-02-15T12:44:03Z</time>
      </trkpt>
      <trkpt lat="44.31656" lon="5.87136">
        <ele>685.557373</ele>
        <time>2016-02-15T12:44:09Z</time>
      </trkpt>
      <trkpt lat="44.31655" lon="5.87158">
        <ele>688.9221191</ele>
        <time>2016-02-15T12:44:21Z</time>
      </trkpt>
      <trkpt lat="44.31655" lon="5.8716">
        <ele>688.9221191</ele>
        <time>2016-02-15T12:44:23Z</time>
      </trkpt>
      <trkpt lat="44.31654" lon="5.87175">
        <ele>690.3640137</ele>
        <time>2016-02-15T12:44:32Z</time>
      </trkpt>
      <trkpt lat="44.3165" lon="5.87197">
        <ele>692.2866211</ele>
        <time>2016-02-15T12:44:45Z</time>
      </trkpt>
      <trkpt lat="44.3165" lon="5.87198">
        <ele>692.767334</ele>
        <time>2016-02-15T12:44:46Z</time>
      </trkpt>
      <trkpt lat="44.31649" lon="5.87213">
        <ele>693.2478027</ele>
        <time>2016-02-15T12:44:56Z</time>
      </trkpt>
      <trkpt lat="44.31645" lon="5.87223">
        <ele>694.2092285</ele>
        <time>2016-02-15T12:45:02Z</time>
      </trkpt>
      <trkpt lat="44.31644" lon="5.8723">
        <ele>695.1704102</ele>
        <time>2016-02-15T12:45:07Z</time>
      </trkpt>
      <trkpt lat="44.31642" lon="5.87247">
        <ele>696.6125488</ele>
        <time>2016-02-15T12:45:17Z</time>
      </trkpt>
      <trkpt lat="44.31642" lon="5.87251">
        <ele>697.0930176</ele>
        <time>2016-02-15T12:45:21Z</time>
      </trkpt>
      <trkpt lat="44.31641" lon="5.87261">
        <ele>698.0544434</ele>
        <time>2016-02-15T12:45:27Z</time>
      </trkpt>
      <trkpt lat="44.31641" lon="5.87268">
        <ele>698.0544434</ele>
        <time>2016-02-15T12:45:30Z</time>
      </trkpt>
      <trkpt lat="44.31638" lon="5.87278">
        <ele>698.5349121</ele>
        <time>2016-02-15T12:45:36Z</time>
      </trkpt>
      <trkpt lat="44.31636" lon="5.87287">
        <ele>699.9770508</ele>
        <time>2016-02-15T12:45:42Z</time>
      </trkpt>
      <trkpt lat="44.31636" lon="5.87295">
        <ele>700.4580078</ele>
        <time>2016-02-15T12:45:47Z</time>
      </trkpt>
      <trkpt lat="44.31635" lon="5.87301">
        <ele>701.8999023</ele>
        <time>2016-02-15T12:45:50Z</time>
      </trkpt>
      <trkpt lat="44.31637" lon="5.8731">
        <ele>702.3803711</ele>
        <time>2016-02-15T12:45:56Z</time>
      </trkpt>
      <trkpt lat="44.31637" lon="5.87313">
        <ele>702.3803711</ele>
        <time>2016-02-15T12:45:58Z</time>
      </trkpt>
      <trkpt lat="44.31638" lon="5.87325">
        <ele>703.8225098</ele>
        <time>2016-02-15T12:46:06Z</time>
      </trkpt>
      <trkpt lat="44.31641" lon="5.87334">
        <ele>704.7836914</ele>
        <time>2016-02-15T12:46:12Z</time>
      </trkpt>
      <trkpt lat="44.31641" lon="5.87336">
        <ele>705.7451172</ele>
        <time>2016-02-15T12:46:31Z</time>
      </trkpt>
      <trkpt lat="44.3164" lon="5.87336">
        <ele>704.7836914</ele>
        <time>2016-02-15T12:47:02Z</time>
      </trkpt>
      <trkpt lat="44.3164" lon="5.87336">
        <ele>704.3032227</ele>
        <time>2016-02-15T12:47:13Z</time>
      </trkpt>
      <trkpt lat="44.3164" lon="5.87338">
        <ele>704.7836914</ele>
        <time>2016-02-15T12:47:36Z</time>
      </trkpt>
      <trkpt lat="44.31639" lon="5.87344">
        <ele>704.7836914</ele>
        <time>2016-02-15T12:47:50Z</time>
      </trkpt>
      <trkpt lat="44.3165" lon="5.87339">
        <ele>705.2644043</ele>
        <time>2016-02-15T12:48:00Z</time>
      </trkpt>
      <trkpt lat="44.31658" lon="5.87346">
        <ele>707.1870117</ele>
        <time>2016-02-15T12:48:06Z</time>
      </trkpt>
      <trkpt lat="44.31663" lon="5.87353">
        <ele>707.6677246</ele>
        <time>2016-02-15T12:48:10Z</time>
      </trkpt>
      <trkpt lat="44.31681" lon="5.87365">
        <ele>710.5515137</ele>
        <time>2016-02-15T12:48:24Z</time>
      </trkpt>
      <trkpt lat="44.31683" lon="5.87367">
        <ele>710.5515137</ele>
        <time>2016-02-15T12:48:26Z</time>
      </trkpt>
      <trkpt lat="44.31691" lon="5.87382">
        <ele>711.9936523</ele>
        <time>2016-02-15T12:48:35Z</time>
      </trkpt>
      <trkpt lat="44.31692" lon="5.87406">
        <ele>713.4355469</ele>
        <time>2016-02-15T12:48:45Z</time>
      </trkpt>
      <trkpt lat="44.31688" lon="5.87428">
        <ele>714.8774414</ele>
        <time>2016-02-15T12:48:56Z</time>
      </trkpt>
      <trkpt lat="44.31687" lon="5.87432">
        <ele>715.3581543</ele>
        <time>2016-02-15T12:48:58Z</time>
      </trkpt>
      <trkpt lat="44.31684" lon="5.8744">
        <ele>715.8388672</ele>
        <time>2016-02-15T12:49:03Z</time>
      </trkpt>
      <trkpt lat="44.31683" lon="5.87445">
        <ele>716.3195801</ele>
        <time>2016-02-15T12:49:06Z</time>
      </trkpt>
      <trkpt lat="44.31679" lon="5.8746">
        <ele>716.800293</ele>
        <time>2016-02-15T12:49:14Z</time>
      </trkpt>
      <trkpt lat="44.31678" lon="5.87464">
        <ele>716.800293</ele>
        <time>2016-02-15T12:49:16Z</time>
      </trkpt>
      <trkpt lat="44.31679" lon="5.87486">
        <ele>718.2421875</ele>
        <time>2016-02-15T12:49:27Z</time>
      </trkpt>
      <trkpt lat="44.31689" lon="5.87501">
        <ele>720.6455078</ele>
        <time>2016-02-15T12:49:37Z</time>
      </trkpt>
      <trkpt lat="44.31704" lon="5.87503">
        <ele>722.0874023</ele>
        <time>2016-02-15T12:49:50Z</time>
      </trkpt>
      <trkpt lat="44.31708" lon="5.87503">
        <ele>723.0488281</ele>
        <time>2016-02-15T12:49:52Z</time>
      </trkpt>
      <trkpt lat="44.31714" lon="5.87501">
        <ele>723.529541</ele>
        <time>2016-02-15T12:49:56Z</time>
      </trkpt>
      <trkpt lat="44.31725" lon="5.87498">
        <ele>726.4133301</ele>
        <time>2016-02-15T12:50:10Z</time>
      </trkpt>
      <trkpt lat="44.31725" lon="5.87498">
        <ele>725.9326172</ele>
        <time>2016-02-15T12:50:25Z</time>
      </trkpt>
      <trkpt lat="44.31727" lon="5.87498">
        <ele>726.4133301</ele>
        <time>2016-02-15T12:50:42Z</time>
      </trkpt>
      <trkpt lat="44.31737" lon="5.8748">
        <ele>728.8166504</ele>
        <time>2016-02-15T12:51:01Z</time>
      </trkpt>
      <trkpt lat="44.3175" lon="5.87467">
        <ele>730.2585449</ele>
        <time>2016-02-15T12:51:21Z</time>
      </trkpt>
      <trkpt lat="44.31759" lon="5.87465">
        <ele>731.2199707</ele>
        <time>2016-02-15T12:51:42Z</time>
      </trkpt>
      <trkpt lat="44.31769" lon="5.87454">
        <ele>730.7392578</ele>
        <time>2016-02-15T12:52:04Z</time>
      </trkpt>
      <trkpt lat="44.31772" lon="5.87437">
        <ele>731.7004395</ele>
        <time>2016-02-15T12:52:21Z</time>
      </trkpt>
      <trkpt lat="44.3177" lon="5.87401">
        <ele>732.1813965</ele>
        <time>2016-02-15T12:52:48Z</time>
      </trkpt>
      <trkpt lat="44.3178" lon="5.87379">
        <ele>733.623291</ele>
        <time>2016-02-15T12:53:16Z</time>
      </trkpt>
      <trkpt lat="44.31779" lon="5.87381">
        <ele>732.6621094</ele>
        <time>2016-02-15T12:53:47Z</time>
      </trkpt>
      <trkpt lat="44.31779" lon="5.87381">
        <ele>732.6621094</ele>
        <time>2016-02-15T12:53:49Z</time>
      </trkpt>
      <trkpt lat="44.31775" lon="5.87375">
        <ele>732.1813965</ele>
        <time>2016-02-15T12:53:54Z</time>
      </trkpt>
      <trkpt lat="44.31769" lon="5.87374">
        <ele>732.1813965</ele>
        <time>2016-02-15T12:53:58Z</time>
      </trkpt>
      <trkpt lat="44.31765" lon="5.87378">
        <ele>730.2585449</ele>
        <time>2016-02-15T12:54:01Z</time>
      </trkpt>
      <trkpt lat="44.31756" lon="5.87392">
        <ele>728.3359375</ele>
        <time>2016-02-15T12:54:04Z</time>
      </trkpt>
      <trkpt lat="44.31744" lon="5.87445">
        <ele>726.894043</ele>
        <time>2016-02-15T12:54:16Z</time>
      </trkpt>
      <trkpt lat="44.3174" lon="5.87447">
        <ele>727.3747559</ele>
        <time>2016-02-15T12:54:19Z</time>
      </trkpt>
      <trkpt lat="44.31731" lon="5.87445">
        <ele>727.3747559</ele>
        <time>2016-02-15T12:54:23Z</time>
      </trkpt>
      <trkpt lat="44.31721" lon="5.87443">
        <ele>726.894043</ele>
        <time>2016-02-15T12:54:28Z</time>
      </trkpt>
      <trkpt lat="44.31721" lon="5.87442">
        <ele>726.4133301</ele>
        <time>2016-02-15T12:54:41Z</time>
      </trkpt>
      <trkpt lat="44.31725" lon="5.87442">
        <ele>726.4133301</ele>
        <time>2016-02-15T12:54:59Z</time>
      </trkpt>
      <trkpt lat="44.31707" lon="5.87477">
        <ele>724.0100098</ele>
        <time>2016-02-15T12:55:11Z</time>
      </trkpt>
      <trkpt lat="44.31704" lon="5.87494">
        <ele>722.0874023</ele>
        <time>2016-02-15T12:55:19Z</time>
      </trkpt>
      <trkpt lat="44.31707" lon="5.87499">
        <ele>720.6455078</ele>
        <time>2016-02-15T12:55:22Z</time>
      </trkpt>
      <trkpt lat="44.31711" lon="5.87498">
        <ele>721.1262207</ele>
        <time>2016-02-15T12:55:24Z</time>
      </trkpt>
      <trkpt lat="44.31726" lon="5.87493">
        <ele>723.529541</ele>
        <time>2016-02-15T12:55:31Z</time>
      </trkpt>
      <trkpt lat="44.31729" lon="5.87492">
        <ele>724.4907227</ele>
        <time>2016-02-15T12:55:35Z</time>
      </trkpt>
      <trkpt lat="44.31739" lon="5.87481">
        <ele>727.3747559</ele>
        <time>2016-02-15T12:55:46Z</time>
      </trkpt>
      <trkpt lat="44.31754" lon="5.87478">
        <ele>729.2971191</ele>
        <time>2016-02-15T12:55:58Z</time>
      </trkpt>
      <trkpt lat="44.31759" lon="5.87478">
        <ele>729.2971191</ele>
        <time>2016-02-15T12:56:03Z</time>
      </trkpt>
      <trkpt lat="44.31772" lon="5.8748">
        <ele>729.2971191</ele>
        <time>2016-02-15T12:56:09Z</time>
      </trkpt>
      <trkpt lat="44.31774" lon="5.87483">
        <ele>728.8166504</ele>
        <time>2016-02-15T12:56:11Z</time>
      </trkpt>
      <trkpt lat="44.31819" lon="5.8751">
        <ele>725.9326172</ele>
        <time>2016-02-15T12:56:21Z</time>
      </trkpt>
      <trkpt lat="44.31848" lon="5.87546">
        <ele>726.4133301</ele>
        <time>2016-02-15T12:56:28Z</time>
      </trkpt>
      <trkpt lat="44.31876" lon="5.87548">
        <ele>729.2971191</ele>
        <time>2016-02-15T12:56:41Z</time>
      </trkpt>
      <trkpt lat="44.31886" lon="5.8754">
        <ele>730.2585449</ele>
        <time>2016-02-15T12:56:49Z</time>
      </trkpt>
      <trkpt lat="44.31898" lon="5.87537">
        <ele>731.7004395</ele>
        <time>2016-02-15T12:56:57Z</time>
      </trkpt>
      <trkpt lat="44.31917" lon="5.87519">
        <ele>731.7004395</ele>
        <time>2016-02-15T12:57:09Z</time>
      </trkpt>
      <trkpt lat="44.31944" lon="5.87506">
        <ele>731.2199707</ele>
        <time>2016-02-15T12:57:22Z</time>
      </trkpt>
      <trkpt lat="44.31951" lon="5.8751">
        <ele>730.7392578</ele>
        <time>2016-02-15T12:57:32Z</time>
      </trkpt>
      <trkpt lat="44.31952" lon="5.87508">
        <ele>732.1813965</ele>
        <time>2016-02-15T12:57:46Z</time>
      </trkpt>
      <trkpt lat="44.31952" lon="5.87506">
        <ele>733.1425781</ele>
        <time>2016-02-15T12:59:00Z</time>
      </trkpt>
      <trkpt lat="44.31958" lon="5.87503">
        <ele>732.1813965</ele>
        <time>2016-02-15T12:59:11Z</time>
      </trkpt>
      <trkpt lat="44.31974" lon="5.87508">
        <ele>731.7004395</ele>
        <time>2016-02-15T12:59:21Z</time>
      </trkpt>
      <trkpt lat="44.31989" lon="5.87553">
        <ele>731.2199707</ele>
        <time>2016-02-15T12:59:34Z</time>
      </trkpt>
      <trkpt lat="44.31987" lon="5.87567">
        <ele>730.7392578</ele>
        <time>2016-02-15T12:59:37Z</time>
      </trkpt>
      <trkpt lat="44.3198" lon="5.87579">
        <ele>730.2585449</ele>
        <time>2016-02-15T12:59:41Z</time>
      </trkpt>
      <trkpt lat="44.31982" lon="5.87579">
        <ele>730.2585449</ele>
        <time>2016-02-15T12:59:52Z</time>
      </trkpt>
      <trkpt lat="44.3198" lon="5.87577">
        <ele>730.2585449</ele>
        <time>2016-02-15T13:00:16Z</time>
      </trkpt>
      <trkpt lat="44.31979" lon="5.87568">
        <ele>729.777832</ele>
        <time>2016-02-15T13:00:28Z</time>
      </trkpt>
      <trkpt lat="44.31987" lon="5.87571">
        <ele>729.777832</ele>
        <time>2016-02-15T13:00:55Z</time>
      </trkpt>
      <trkpt lat="44.31991" lon="5.8756">
        <ele>730.7392578</ele>
        <time>2016-02-15T13:01:00Z</time>
      </trkpt>
      <trkpt lat="44.31991" lon="5.87549">
        <ele>731.2199707</ele>
        <time>2016-02-15T13:01:03Z</time>
      </trkpt>
      <trkpt lat="44.31988" lon="5.87536">
        <ele>731.2199707</ele>
        <time>2016-02-15T13:01:07Z</time>
      </trkpt>
      <trkpt lat="44.31971" lon="5.87504">
        <ele>731.2199707</ele>
        <time>2016-02-15T13:01:19Z</time>
      </trkpt>
      <trkpt lat="44.31945" lon="5.87501">
        <ele>733.1425781</ele>
        <time>2016-02-15T13:01:30Z</time>
      </trkpt>
      <trkpt lat="44.3194" lon="5.87504">
        <ele>732.6621094</ele>
        <time>2016-02-15T13:01:32Z</time>
      </trkpt>
      <trkpt lat="44.31908" lon="5.87521">
        <ele>732.6621094</ele>
        <time>2016-02-15T13:01:46Z</time>
      </trkpt>
      <trkpt lat="44.31878" lon="5.87547">
        <ele>732.6621094</ele>
        <time>2016-02-15T13:01:58Z</time>
      </trkpt>
      <trkpt lat="44.31873" lon="5.87549">
        <ele>731.7004395</ele>
        <time>2016-02-15T13:01:59Z</time>
      </trkpt>
      <trkpt lat="44.31861" lon="5.87553">
        <ele>730.2585449</ele>
        <time>2016-02-15T13:02:02Z</time>
      </trkpt>
      <trkpt lat="44.31854" lon="5.87552">
        <ele>729.2971191</ele>
        <time>2016-02-15T13:02:04Z</time>
      </trkpt>
      <trkpt lat="44.31844" lon="5.87545">
        <ele>727.3747559</ele>
        <time>2016-02-15T13:02:07Z</time>
      </trkpt>
      <trkpt lat="44.31838" lon="5.87536">
        <ele>726.894043</ele>
        <time>2016-02-15T13:02:09Z</time>
      </trkpt>
      <trkpt lat="44.31832" lon="5.87525">
        <ele>726.894043</ele>
        <time>2016-02-15T13:02:11Z</time>
      </trkpt>
      <trkpt lat="44.31806" lon="5.87492">
        <ele>727.3747559</ele>
        <time>2016-02-15T13:02:22Z</time>
      </trkpt>
      <trkpt lat="44.31798" lon="5.87485">
        <ele>728.3359375</ele>
        <time>2016-02-15T13:02:26Z</time>
      </trkpt>
      <trkpt lat="44.31789" lon="5.87479">
        <ele>728.8166504</ele>
        <time>2016-02-15T13:02:30Z</time>
      </trkpt>
      <trkpt lat="44.31787" lon="5.87471">
        <ele>729.2971191</ele>
        <time>2016-02-15T13:02:33Z</time>
      </trkpt>
      <trkpt lat="44.31779" lon="5.87471">
        <ele>729.777832</ele>
        <time>2016-02-15T13:02:37Z</time>
      </trkpt>
      <trkpt lat="44.31759" lon="5.87475">
        <ele>728.8166504</ele>
        <time>2016-02-15T13:02:45Z</time>
      </trkpt>
      <trkpt lat="44.31729" lon="5.87505">
        <ele>725.4519043</ele>
        <time>2016-02-15T13:02:56Z</time>
      </trkpt>
      <trkpt lat="44.31725" lon="5.87507">
        <ele>724.4907227</ele>
        <time>2016-02-15T13:02:57Z</time>
      </trkpt>
      <trkpt lat="44.31701" lon="5.87501">
        <ele>722.0874023</ele>
        <time>2016-02-15T13:03:02Z</time>
      </trkpt>
      <trkpt lat="44.31691" lon="5.87497">
        <ele>720.6455078</ele>
        <time>2016-02-15T13:03:05Z</time>
      </trkpt>
      <trkpt lat="44.31685" lon="5.87493">
        <ele>719.2036133</ele>
        <time>2016-02-15T13:03:07Z</time>
      </trkpt>
      <trkpt lat="44.31677" lon="5.87491">
        <ele>717.2810059</ele>
        <time>2016-02-15T13:03:18Z</time>
      </trkpt>
      <trkpt lat="44.31677" lon="5.87493">
        <ele>717.7614746</ele>
        <time>2016-02-15T13:03:36Z</time>
      </trkpt>
      <trkpt lat="44.31679" lon="5.87504">
        <ele>717.7614746</ele>
        <time>2016-02-15T13:03:40Z</time>
      </trkpt>
      <trkpt lat="44.31686" lon="5.87513">
        <ele>716.3195801</ele>
        <time>2016-02-15T13:03:42Z</time>
      </trkpt>
      <trkpt lat="44.31702" lon="5.87524">
        <ele>715.8388672</ele>
        <time>2016-02-15T13:03:46Z</time>
      </trkpt>
      <trkpt lat="44.31736" lon="5.87527">
        <ele>715.3581543</ele>
        <time>2016-02-15T13:03:57Z</time>
      </trkpt>
      <trkpt lat="44.31756" lon="5.87522">
        <ele>714.3967285</ele>
        <time>2016-02-15T13:04:01Z</time>
      </trkpt>
      <trkpt lat="44.31769" lon="5.8752">
        <ele>714.3967285</ele>
        <time>2016-02-15T13:04:03Z</time>
      </trkpt>
      <trkpt lat="44.3181" lon="5.87539">
        <ele>716.3195801</ele>
        <time>2016-02-15T13:04:13Z</time>
      </trkpt>
      <trkpt lat="44.31829" lon="5.87568">
        <ele>718.7229004</ele>
        <time>2016-02-15T13:04:24Z</time>
      </trkpt>
      <trkpt lat="44.31835" lon="5.87577">
        <ele>719.2036133</ele>
        <time>2016-02-15T13:04:28Z</time>
      </trkpt>
      <trkpt lat="44.31849" lon="5.87581">
        <ele>718.7229004</ele>
        <time>2016-02-15T13:04:33Z</time>
      </trkpt>
      <trkpt lat="44.31878" lon="5.87577">
        <ele>720.6455078</ele>
        <time>2016-02-15T13:04:44Z</time>
      </trkpt>
      <trkpt lat="44.31894" lon="5.87573">
        <ele>721.6066895</ele>
        <time>2016-02-15T13:04:52Z</time>
      </trkpt>
      <trkpt lat="44.31898" lon="5.8757">
        <ele>722.5681152</ele>
        <time>2016-02-15T13:04:54Z</time>
      </trkpt>
      <trkpt lat="44.31899" lon="5.87568">
        <ele>722.5681152</ele>
        <time>2016-02-15T13:04:55Z</time>
      </trkpt>
      <trkpt lat="44.31918" lon="5.87565">
        <ele>724.9714355</ele>
        <time>2016-02-15T13:05:05Z</time>
      </trkpt>
      <trkpt lat="44.31934" lon="5.87551">
        <ele>727.3747559</ele>
        <time>2016-02-15T13:05:17Z</time>
      </trkpt>
      <trkpt lat="44.31935" lon="5.87546">
        <ele>728.3359375</ele>
        <time>2016-02-15T13:05:22Z</time>
      </trkpt>
      <trkpt lat="44.31942" lon="5.87547">
        <ele>727.3747559</ele>
        <time>2016-02-15T13:05:32Z</time>
      </trkpt>
      <trkpt lat="44.31944" lon="5.87551">
        <ele>726.894043</ele>
        <time>2016-02-15T13:05:42Z</time>
      </trkpt>
      <trkpt lat="44.31956" lon="5.87606">
        <ele>723.529541</ele>
        <time>2016-02-15T13:05:53Z</time>
      </trkpt>
      <trkpt lat="44.31957" lon="5.87612">
        <ele>723.529541</ele>
        <time>2016-02-15T13:05:54Z</time>
      </trkpt>
      <trkpt lat="44.31962" lon="5.87645">
        <ele>720.6455078</ele>
        <time>2016-02-15T13:05:59Z</time>
      </trkpt>
      <trkpt lat="44.31965" lon="5.8766">
        <ele>719.6843262</ele>
        <time>2016-02-15T13:06:01Z</time>
      </trkpt>
      <trkpt lat="44.31967" lon="5.87679">
        <ele>717.7614746</ele>
        <time>2016-02-15T13:06:04Z</time>
      </trkpt>
      <trkpt lat="44.31968" lon="5.87689">
        <ele>716.800293</ele>
        <time>2016-02-15T13:06:08Z</time>
      </trkpt>
      <trkpt lat="44.31971" lon="5.877">
        <ele>716.800293</ele>
        <time>2016-02-15T13:06:12Z</time>
      </trkpt>
      <trkpt lat="44.31986" lon="5.87753">
        <ele>713.4355469</ele>
        <time>2016-02-15T13:06:21Z</time>
      </trkpt>
      <trkpt lat="44.32009" lon="5.87802">
        <ele>711.9936523</ele>
        <time>2016-02-15T13:06:29Z</time>
      </trkpt>
      <trkpt lat="44.32016" lon="5.87813">
        <ele>711.0322266</ele>
        <time>2016-02-15T13:06:31Z</time>
      </trkpt>
      <trkpt lat="44.32024" lon="5.87822">
        <ele>710.0708008</ele>
        <time>2016-02-15T13:06:33Z</time>
      </trkpt>
      <trkpt lat="44.3204" lon="5.87833">
        <ele>708.1484375</ele>
        <time>2016-02-15T13:06:37Z</time>
      </trkpt>
      <trkpt lat="44.32051" lon="5.87836">
        <ele>707.1870117</ele>
        <time>2016-02-15T13:06:39Z</time>
      </trkpt>
      <trkpt lat="44.32081" lon="5.8783">
        <ele>705.2644043</ele>
        <time>2016-02-15T13:06:44Z</time>
      </trkpt>
      <trkpt lat="44.32097" lon="5.87819">
        <ele>704.7836914</ele>
        <time>2016-02-15T13:06:47Z</time>
      </trkpt>
      <trkpt lat="44.32119" lon="5.87785">
        <ele>703.3417969</ele>
        <time>2016-02-15T13:06:52Z</time>
      </trkpt>
      <trkpt lat="44.32125" lon="5.87773">
        <ele>703.8225098</ele>
        <time>2016-02-15T13:06:54Z</time>
      </trkpt>
      <trkpt lat="44.32134" lon="5.87742">
        <ele>701.4191895</ele>
        <time>2016-02-15T13:06:59Z</time>
      </trkpt>
      <trkpt lat="44.32145" lon="5.87748">
        <ele>698.5349121</ele>
        <time>2016-02-15T13:07:05Z</time>
      </trkpt>
      <trkpt lat="44.32149" lon="5.87762">
        <ele>697.5737305</ele>
        <time>2016-02-15T13:07:07Z</time>
      </trkpt>
      <trkpt lat="44.32179" lon="5.87812">
        <ele>694.2092285</ele>
        <time>2016-02-15T13:07:14Z</time>
      </trkpt>
      <trkpt lat="44.32193" lon="5.87836">
        <ele>692.767334</ele>
        <time>2016-02-15T13:07:17Z</time>
      </trkpt>
      <trkpt lat="44.32208" lon="5.87873">
        <ele>690.3640137</ele>
        <time>2016-02-15T13:07:22Z</time>
      </trkpt>
      <trkpt lat="44.32209" lon="5.87915">
        <ele>686.5187988</ele>
        <time>2016-02-15T13:07:28Z</time>
      </trkpt>
      <trkpt lat="44.32204" lon="5.8792">
        <ele>686.5187988</ele>
        <time>2016-02-15T13:07:29Z</time>
      </trkpt>
      <trkpt lat="44.32174" lon="5.87916">
        <ele>683.6345215</ele>
        <time>2016-02-15T13:07:35Z</time>
      </trkpt>
      <trkpt lat="44.3217" lon="5.87915">
        <ele>683.6345215</ele>
        <time>2016-02-15T13:07:36Z</time>
      </trkpt>
      <trkpt lat="44.32167" lon="5.87932">
        <ele>681.7119141</ele>
        <time>2016-02-15T13:07:42Z</time>
      </trkpt>
      <trkpt lat="44.32169" lon="5.87934">
        <ele>681.7119141</ele>
        <time>2016-02-15T13:07:43Z</time>
      </trkpt>
      <trkpt lat="44.32192" lon="5.87981">
        <ele>677.8666992</ele>
        <time>2016-02-15T13:07:49Z</time>
      </trkpt>
      <trkpt lat="44.32203" lon="5.88017">
        <ele>676.9055176</ele>
        <time>2016-02-15T13:07:52Z</time>
      </trkpt>
      <trkpt lat="44.32208" lon="5.88042">
        <ele>675.4633789</ele>
        <time>2016-02-15T13:07:54Z</time>
      </trkpt>
      <trkpt lat="44.32217" lon="5.88086">
        <ele>670.6569824</ele>
        <time>2016-02-15T13:07:58Z</time>
      </trkpt>
      <trkpt lat="44.32219" lon="5.88097">
        <ele>670.6569824</ele>
        <time>2016-02-15T13:07:59Z</time>
      </trkpt>
      <trkpt lat="44.32223" lon="5.88117">
        <ele>669.2150879</ele>
        <time>2016-02-15T13:08:01Z</time>
      </trkpt>
      <trkpt lat="44.32228" lon="5.88138">
        <ele>668.734375</ele>
        <time>2016-02-15T13:08:03Z</time>
      </trkpt>
      <trkpt lat="44.32231" lon="5.88167">
        <ele>666.3308105</ele>
        <time>2016-02-15T13:08:06Z</time>
      </trkpt>
      <trkpt lat="44.32231" lon="5.88198">
        <ele>665.3696289</ele>
        <time>2016-02-15T13:08:11Z</time>
      </trkpt>
      <trkpt lat="44.32249" lon="5.88196">
        <ele>664.4082031</ele>
        <time>2016-02-15T13:08:16Z</time>
      </trkpt>
      <trkpt lat="44.3228" lon="5.88158">
        <ele>662.4855957</ele>
        <time>2016-02-15T13:08:24Z</time>
      </trkpt>
      <trkpt lat="44.32294" lon="5.88138">
        <ele>662.005127</ele>
        <time>2016-02-15T13:08:27Z</time>
      </trkpt>
      <trkpt lat="44.32302" lon="5.88122">
        <ele>661.0437012</ele>
        <time>2016-02-15T13:08:30Z</time>
      </trkpt>
      <trkpt lat="44.32314" lon="5.88127">
        <ele>658.1599121</ele>
        <time>2016-02-15T13:08:35Z</time>
      </trkpt>
      <trkpt lat="44.32315" lon="5.88134">
        <ele>658.1599121</ele>
        <time>2016-02-15T13:08:36Z</time>
      </trkpt>
      <trkpt lat="44.32315" lon="5.88167">
        <ele>655.7565918</ele>
        <time>2016-02-15T13:08:40Z</time>
      </trkpt>
      <trkpt lat="44.32315" lon="5.88186">
        <ele>653.8339844</ele>
        <time>2016-02-15T13:08:42Z</time>
      </trkpt>
      <trkpt lat="44.32316" lon="5.88225">
        <ele>652.3918457</ele>
        <time>2016-02-15T13:08:46Z</time>
      </trkpt>
      <trkpt lat="44.32317" lon="5.88241">
        <ele>652.3918457</ele>
        <time>2016-02-15T13:08:48Z</time>
      </trkpt>
      <trkpt lat="44.32329" lon="5.8826">
        <ele>651.4304199</ele>
        <time>2016-02-15T13:08:53Z</time>
      </trkpt>
      <trkpt lat="44.32344" lon="5.88254">
        <ele>649.9885254</ele>
        <time>2016-02-15T13:08:57Z</time>
      </trkpt>
      <trkpt lat="44.32384" lon="5.88223">
        <ele>647.1044922</ele>
        <time>2016-02-15T13:09:07Z</time>
      </trkpt>
      <trkpt lat="44.32384" lon="5.88224">
        <ele>647.5852051</ele>
        <time>2016-02-15T13:09:27Z</time>
      </trkpt>
      <trkpt lat="44.32364" lon="5.88205">
        <ele>679.7893066</ele>
        <time>2016-02-15T13:09:59Z</time>
      </trkpt>
      <trkpt lat="44.32364" lon="5.88204">
        <ele>650.949707</ele>
        <time>2016-02-15T13:10:02Z</time>
      </trkpt>
      <trkpt lat="44.3237" lon="5.88208">
        <ele>655.7565918</ele>
        <time>2016-02-15T13:10:13Z</time>
      </trkpt>
      <trkpt lat="44.3237" lon="5.88208">
        <ele>656.2370605</ele>
        <time>2016-02-15T13:10:17Z</time>
      </trkpt>
      <trkpt lat="44.3237" lon="5.88208">
        <ele>654.795166</ele>
        <time>2016-02-15T13:10:22Z</time>
      </trkpt>
      <trkpt lat="44.32371" lon="5.88208">
        <ele>656.7177734</ele>
        <time>2016-02-15T13:10:24Z</time>
      </trkpt>
      <trkpt lat="44.32375" lon="5.88211">
        <ele>656.7177734</ele>
        <time>2016-02-15T13:11:52Z</time>
      </trkpt>
      <trkpt lat="44.32372" lon="5.88222">
        <ele>656.2370605</ele>
        <time>2016-02-15T13:12:04Z</time>
      </trkpt>
      <trkpt lat="44.32375" lon="5.88227">
        <ele>655.7565918</ele>
        <time>2016-02-15T13:12:17Z</time>
      </trkpt>
      <trkpt lat="44.32368" lon="5.88233">
        <ele>654.795166</ele>
        <time>2016-02-15T13:13:13Z</time>
      </trkpt>
      <trkpt lat="44.32372" lon="5.88227">
        <ele>655.7565918</ele>
        <time>2016-02-15T13:13:34Z</time>
      </trkpt>
      <trkpt lat="44.32376" lon="5.88225">
        <ele>655.2758789</ele>
        <time>2016-02-15T13:14:01Z</time>
      </trkpt>
      <trkpt lat="44.32376" lon="5.88226">
        <ele>654.795166</ele>
        <time>2016-02-15T13:14:07Z</time>
      </trkpt>
      <trkpt lat="44.32379" lon="5.88232">
        <ele>654.795166</ele>
        <time>2016-02-15T13:14:10Z</time>
      </trkpt>
      <trkpt lat="44.32363" lon="5.88274">
        <ele>653.8339844</ele>
        <time>2016-02-15T13:14:22Z</time>
      </trkpt>
      <trkpt lat="44.32333" lon="5.88363">
        <ele>650.949707</ele>
        <time>2016-02-15T13:14:39Z</time>
      </trkpt>
      <trkpt lat="44.32328" lon="5.88381">
        <ele>650.4692383</ele>
        <time>2016-02-15T13:14:42Z</time>
      </trkpt>
      <trkpt lat="44.32317" lon="5.88402">
        <ele>649.9885254</ele>
        <time>2016-02-15T13:14:46Z</time>
      </trkpt>
      <trkpt lat="44.32283" lon="5.8842">
        <ele>648.5463867</ele>
        <time>2016-02-15T13:14:56Z</time>
      </trkpt>
      <trkpt lat="44.32281" lon="5.8842">
        <ele>648.5463867</ele>
        <time>2016-02-15T13:14:57Z</time>
      </trkpt>
      <trkpt lat="44.32279" lon="5.88419">
        <ele>651.9111328</ele>
        <time>2016-02-15T13:15:08Z</time>
      </trkpt>
      <trkpt lat="44.32279" lon="5.88419">
        <ele>651.9111328</ele>
        <time>2016-02-15T13:15:09Z</time>
      </trkpt>
      <trkpt lat="44.32279" lon="5.88419">
        <ele>648.065918</ele>
        <time>2016-02-15T13:15:10Z</time>
      </trkpt>
      <trkpt lat="44.32279" lon="5.88419">
        <ele>648.065918</ele>
        <time>2016-02-15T13:15:11Z</time>
      </trkpt>
      <trkpt lat="44.32267" lon="5.88424">
        <ele>647.1044922</ele>
        <time>2016-02-15T13:15:30Z</time>
      </trkpt>
      <trkpt lat="44.32244" lon="5.88427">
        <ele>646.6240234</ele>
        <time>2016-02-15T13:15:36Z</time>
      </trkpt>
      <trkpt lat="44.3223" lon="5.88431">
        <ele>646.6240234</ele>
        <time>2016-02-15T13:15:39Z</time>
      </trkpt>
      <trkpt lat="44.32219" lon="5.88436">
        <ele>646.1433105</ele>
        <time>2016-02-15T13:15:41Z</time>
      </trkpt>
      <trkpt lat="44.32199" lon="5.88451">
        <ele>645.6625977</ele>
        <time>2016-02-15T13:15:45Z</time>
      </trkpt>
      <trkpt lat="44.3217" lon="5.88481">
        <ele>644.2207031</ele>
        <time>2016-02-15T13:15:51Z</time>
      </trkpt>
      <trkpt lat="44.32136" lon="5.88511">
        <ele>642.7788086</ele>
        <time>2016-02-15T13:15:57Z</time>
      </trkpt>
      <trkpt lat="44.32115" lon="5.88523">
        <ele>641.3366699</ele>
        <time>2016-02-15T13:16:00Z</time>
      </trkpt>
      <trkpt lat="44.3208" lon="5.88546">
        <ele>640.3754883</ele>
        <time>2016-02-15T13:16:05Z</time>
      </trkpt>
      <trkpt lat="44.32039" lon="5.88571">
        <ele>638.4528809</ele>
        <time>2016-02-15T13:16:11Z</time>
      </trkpt>
      <trkpt lat="44.32005" lon="5.88572">
        <ele>637.4914551</ele>
        <time>2016-02-15T13:16:16Z</time>
      </trkpt>
      <trkpt lat="44.31998" lon="5.8857">
        <ele>637.4914551</ele>
        <time>2016-02-15T13:16:17Z</time>
      </trkpt>
      <trkpt lat="44.31976" lon="5.88565">
        <ele>636.5302734</ele>
        <time>2016-02-15T13:16:20Z</time>
      </trkpt>
      <trkpt lat="44.319" lon="5.88581">
        <ele>634.126709</ele>
        <time>2016-02-15T13:16:30Z</time>
      </trkpt>
      <trkpt lat="44.31858" lon="5.88614">
        <ele>632.2041016</ele>
        <time>2016-02-15T13:16:36Z</time>
      </trkpt>
      <trkpt lat="44.31831" lon="5.88629">
        <ele>631.2429199</ele>
        <time>2016-02-15T13:16:40Z</time>
      </trkpt>
      <trkpt lat="44.31801" lon="5.88637">
        <ele>629.3200684</ele>
        <time>2016-02-15T13:16:44Z</time>
      </trkpt>
      <trkpt lat="44.31758" lon="5.88657">
        <ele>625.9555664</ele>
        <time>2016-02-15T13:16:50Z</time>
      </trkpt>
      <trkpt lat="44.31736" lon="5.8866">
        <ele>625.4748535</ele>
        <time>2016-02-15T13:16:53Z</time>
      </trkpt>
      <trkpt lat="44.31722" lon="5.88657">
        <ele>624.032959</ele>
        <time>2016-02-15T13:16:55Z</time>
      </trkpt>
      <trkpt lat="44.31703" lon="5.8865">
        <ele>622.1103516</ele>
        <time>2016-02-15T13:16:58Z</time>
      </trkpt>
      <trkpt lat="44.31697" lon="5.88647">
        <ele>621.6296387</ele>
        <time>2016-02-15T13:16:59Z</time>
      </trkpt>
      <trkpt lat="44.3168" lon="5.88644">
        <ele>621.1491699</ele>
        <time>2016-02-15T13:17:02Z</time>
      </trkpt>
      <trkpt lat="44.31666" lon="5.88651">
        <ele>618.7456055</ele>
        <time>2016-02-15T13:17:05Z</time>
      </trkpt>
      <trkpt lat="44.31665" lon="5.88649">
        <ele>616.3422852</ele>
        <time>2016-02-15T13:17:06Z</time>
      </trkpt>
      <trkpt lat="44.31647" lon="5.8869">
        <ele>614.9003906</ele>
        <time>2016-02-15T13:17:12Z</time>
      </trkpt>
      <trkpt lat="44.31636" lon="5.88736">
        <ele>614.4196777</ele>
        <time>2016-02-15T13:17:21Z</time>
      </trkpt>
      <trkpt lat="44.31628" lon="5.88758">
        <ele>613.9389648</ele>
        <time>2016-02-15T13:17:25Z</time>
      </trkpt>
      <trkpt lat="44.31608" lon="5.88815">
        <ele>611.0551758</ele>
        <time>2016-02-15T13:17:33Z</time>
      </trkpt>
      <trkpt lat="44.31593" lon="5.88855">
        <ele>608.6518555</ele>
        <time>2016-02-15T13:17:37Z</time>
      </trkpt>
      <trkpt lat="44.31571" lon="5.88914">
        <ele>606.729248</ele>
        <time>2016-02-15T13:17:42Z</time>
      </trkpt>
      <trkpt lat="44.31562" lon="5.88938">
        <ele>605.2873535</ele>
        <time>2016-02-15T13:17:44Z</time>
      </trkpt>
      <trkpt lat="44.31554" lon="5.88961">
        <ele>603.8452148</ele>
        <time>2016-02-15T13:17:46Z</time>
      </trkpt>
      <trkpt lat="44.31542" lon="5.88993">
        <ele>601.4418945</ele>
        <time>2016-02-15T13:17:49Z</time>
      </trkpt>
      <trkpt lat="44.31513" lon="5.89081">
        <ele>598.5578613</ele>
        <time>2016-02-15T13:18:00Z</time>
      </trkpt>
      <trkpt lat="44.31512" lon="5.89094">
        <ele>598.5578613</ele>
        <time>2016-02-15T13:18:08Z</time>
      </trkpt>
      <trkpt lat="44.31521" lon="5.891">
        <ele>598.0773926</ele>
        <time>2016-02-15T13:18:13Z</time>
      </trkpt>
      <trkpt lat="44.31537" lon="5.89101">
        <ele>598.0773926</ele>
        <time>2016-02-15T13:18:18Z</time>
      </trkpt>
      <trkpt lat="44.31549" lon="5.89102">
        <ele>597.5966797</ele>
        <time>2016-02-15T13:18:21Z</time>
      </trkpt>
      <trkpt lat="44.31557" lon="5.89101">
        <ele>597.5966797</ele>
        <time>2016-02-15T13:18:23Z</time>
      </trkpt>
      <trkpt lat="44.31602" lon="5.89102">
        <ele>596.1547852</ele>
        <time>2016-02-15T13:18:31Z</time>
      </trkpt>
      <trkpt lat="44.3169" lon="5.89101">
        <ele>593.7514648</ele>
        <time>2016-02-15T13:18:46Z</time>
      </trkpt>
      <trkpt lat="44.317" lon="5.89099">
        <ele>593.270752</ele>
        <time>2016-02-15T13:18:48Z</time>
      </trkpt>
      <trkpt lat="44.3178" lon="5.89067">
        <ele>590.8674316</ele>
        <time>2016-02-15T13:19:02Z</time>
      </trkpt>
      <trkpt lat="44.31808" lon="5.89045">
        <ele>589.4255371</ele>
        <time>2016-02-15T13:19:08Z</time>
      </trkpt>
      <trkpt lat="44.31834" lon="5.89025">
        <ele>589.4255371</ele>
        <time>2016-02-15T13:19:14Z</time>
      </trkpt>
      <trkpt lat="44.31872" lon="5.89002">
        <ele>587.9833984</ele>
        <time>2016-02-15T13:19:22Z</time>
      </trkpt>
      <trkpt lat="44.31938" lon="5.88995">
        <ele>586.060791</ele>
        <time>2016-02-15T13:19:33Z</time>
      </trkpt>
      <trkpt lat="44.31944" lon="5.88996">
        <ele>585.5800781</ele>
        <time>2016-02-15T13:19:34Z</time>
      </trkpt>
      <trkpt lat="44.31964" lon="5.89004">
        <ele>585.5800781</ele>
        <time>2016-02-15T13:19:37Z</time>
      </trkpt>
      <trkpt lat="44.32002" lon="5.89034">
        <ele>583.6574707</ele>
        <time>2016-02-15T13:19:47Z</time>
      </trkpt>
      <trkpt lat="44.32041" lon="5.89054">
        <ele>583.1767578</ele>
        <time>2016-02-15T13:19:55Z</time>
      </trkpt>
      <trkpt lat="44.32101" lon="5.89063">
        <ele>580.7736816</ele>
        <time>2016-02-15T13:20:05Z</time>
      </trkpt>
      <trkpt lat="44.32118" lon="5.89066">
        <ele>579.331543</ele>
        <time>2016-02-15T13:20:08Z</time>
      </trkpt>
      <trkpt lat="44.32188" lon="5.89086">
        <ele>579.331543</ele>
        <time>2016-02-15T13:20:21Z</time>
      </trkpt>
      <trkpt lat="44.32273" lon="5.89113">
        <ele>579.331543</ele>
        <time>2016-02-15T13:20:37Z</time>
      </trkpt>
      <trkpt lat="44.32352" lon="5.89138">
        <ele>579.331543</ele>
        <time>2016-02-15T13:20:52Z</time>
      </trkpt>
      <trkpt lat="44.32421" lon="5.89159">
        <ele>578.8510742</ele>
        <time>2016-02-15T13:21:06Z</time>
      </trkpt>
      <trkpt lat="44.32476" lon="5.89175">
        <ele>578.8510742</ele>
        <time>2016-02-15T13:21:17Z</time>
      </trkpt>
      <trkpt lat="44.32545" lon="5.89199">
        <ele>579.8122559</ele>
        <time>2016-02-15T13:21:31Z</time>
      </trkpt>
      <trkpt lat="44.32606" lon="5.89235">
        <ele>579.8122559</ele>
        <time>2016-02-15T13:21:47Z</time>
      </trkpt>
      <trkpt lat="44.32671" lon="5.89278">
        <ele>580.2929688</ele>
        <time>2016-02-15T13:22:02Z</time>
      </trkpt>
      <trkpt lat="44.32728" lon="5.89324">
        <ele>579.8122559</ele>
        <time>2016-02-15T13:22:16Z</time>
      </trkpt>
      <trkpt lat="44.32811" lon="5.8938">
        <ele>579.8122559</ele>
        <time>2016-02-15T13:22:33Z</time>
      </trkpt>
      <trkpt lat="44.32834" lon="5.89397">
        <ele>580.2929688</ele>
        <time>2016-02-15T13:22:38Z</time>
      </trkpt>
      <trkpt lat="44.32868" lon="5.89418">
        <ele>579.8122559</ele>
        <time>2016-02-15T13:22:45Z</time>
      </trkpt>
      <trkpt lat="44.32903" lon="5.89442">
        <ele>578.8510742</ele>
        <time>2016-02-15T13:22:53Z</time>
      </trkpt>
      <trkpt lat="44.32928" lon="5.89461">
        <ele>578.8510742</ele>
        <time>2016-02-15T13:22:59Z</time>
      </trkpt>
      <trkpt lat="44.32988" lon="5.89488">
        <ele>580.2929688</ele>
        <time>2016-02-15T13:23:11Z</time>
      </trkpt>
      <trkpt lat="44.33041" lon="5.89518">
        <ele>580.2929688</ele>
        <time>2016-02-15T13:23:23Z</time>
      </trkpt>
      <trkpt lat="44.33082" lon="5.89532">
        <ele>580.2929688</ele>
        <time>2016-02-15T13:23:32Z</time>
      </trkpt>
      <trkpt lat="44.33117" lon="5.89542">
        <ele>580.2929688</ele>
        <time>2016-02-15T13:23:39Z</time>
      </trkpt>
      <trkpt lat="44.33184" lon="5.89561">
        <ele>579.8122559</ele>
        <time>2016-02-15T13:23:52Z</time>
      </trkpt>
      <trkpt lat="44.33216" lon="5.89571">
        <ele>579.8122559</ele>
        <time>2016-02-15T13:23:58Z</time>
      </trkpt>
      <trkpt lat="44.33233" lon="5.89578">
        <ele>579.8122559</ele>
        <time>2016-02-15T13:24:02Z</time>
      </trkpt>
      <trkpt lat="44.33267" lon="5.89587">
        <ele>580.2929688</ele>
        <time>2016-02-15T13:24:09Z</time>
      </trkpt>
      <trkpt lat="44.33294" lon="5.89595">
        <ele>580.2929688</ele>
        <time>2016-02-15T13:24:15Z</time>
      </trkpt>
      <trkpt lat="44.33342" lon="5.89615">
        <ele>579.8122559</ele>
        <time>2016-02-15T13:24:27Z</time>
      </trkpt>
      <trkpt lat="44.33407" lon="5.89645">
        <ele>579.331543</ele>
        <time>2016-02-15T13:24:41Z</time>
      </trkpt>
      <trkpt lat="44.33475" lon="5.89679">
        <ele>580.2929688</ele>
        <time>2016-02-15T13:24:56Z</time>
      </trkpt>
      <trkpt lat="44.3353" lon="5.8971">
        <ele>580.7736816</ele>
        <time>2016-02-15T13:25:09Z</time>
      </trkpt>
      <trkpt lat="44.33571" lon="5.89731">
        <ele>580.7736816</ele>
        <time>2016-02-15T13:25:18Z</time>
      </trkpt>
      <trkpt lat="44.3359" lon="5.89744">
        <ele>581.2543945</ele>
        <time>2016-02-15T13:25:22Z</time>
      </trkpt>
      <trkpt lat="44.33658" lon="5.89768">
        <ele>581.7348633</ele>
        <time>2016-02-15T13:25:36Z</time>
      </trkpt>
      <trkpt lat="44.33702" lon="5.89789">
        <ele>580.2929688</ele>
        <time>2016-02-15T13:25:46Z</time>
      </trkpt>
      <trkpt lat="44.33722" lon="5.89802">
        <ele>578.3703613</ele>
        <time>2016-02-15T13:25:50Z</time>
      </trkpt>
      <trkpt lat="44.33754" lon="5.89821">
        <ele>575.967041</ele>
        <time>2016-02-15T13:25:55Z</time>
      </trkpt>
      <trkpt lat="44.33759" lon="5.89826">
        <ele>577.4091797</ele>
        <time>2016-02-15T13:25:56Z</time>
      </trkpt>
      <trkpt lat="44.33774" lon="5.89836">
        <ele>577.8896484</ele>
        <time>2016-02-15T13:25:59Z</time>
      </trkpt>
      <trkpt lat="44.33794" lon="5.89851">
        <ele>578.3703613</ele>
        <time>2016-02-15T13:26:03Z</time>
      </trkpt>
      <trkpt lat="44.33805" lon="5.89863">
        <ele>580.2929688</ele>
        <time>2016-02-15T13:26:07Z</time>
      </trkpt>
      <trkpt lat="44.3384" lon="5.89888">
        <ele>581.7348633</ele>
        <time>2016-02-15T13:26:19Z</time>
      </trkpt>
      <trkpt lat="44.33865" lon="5.89915">
        <ele>584.1381836</ele>
        <time>2016-02-15T13:26:32Z</time>
      </trkpt>
      <trkpt lat="44.33888" lon="5.89926">
        <ele>585.5800781</ele>
        <time>2016-02-15T13:26:38Z</time>
      </trkpt>
      <trkpt lat="44.33912" lon="5.8995">
        <ele>586.060791</ele>
        <time>2016-02-15T13:26:48Z</time>
      </trkpt>
      <trkpt lat="44.33955" lon="5.89993">
        <ele>586.5415039</ele>
        <time>2016-02-15T13:27:05Z</time>
      </trkpt>
      <trkpt lat="44.34005" lon="5.90056">
        <ele>585.5800781</ele>
        <time>2016-02-15T13:27:20Z</time>
      </trkpt>
      <trkpt lat="44.34036" lon="5.90086">
        <ele>587.0219727</ele>
        <time>2016-02-15T13:27:31Z</time>
      </trkpt>
      <trkpt lat="44.34054" lon="5.901">
        <ele>587.5026855</ele>
        <time>2016-02-15T13:27:38Z</time>
      </trkpt>
      <trkpt lat="44.34072" lon="5.9012">
        <ele>588.9450684</ele>
        <time>2016-02-15T13:27:48Z</time>
      </trkpt>
      <trkpt lat="44.34103" lon="5.90147">
        <ele>591.8288574</ele>
        <time>2016-02-15T13:28:04Z</time>
      </trkpt>
      <trkpt lat="44.34136" lon="5.90176">
        <ele>593.270752</ele>
        <time>2016-02-15T13:28:19Z</time>
      </trkpt>
      <trkpt lat="44.34151" lon="5.90192">
        <ele>593.270752</ele>
        <time>2016-02-15T13:28:25Z</time>
      </trkpt>
      <trkpt lat="44.34204" lon="5.90258">
        <ele>589.90625</ele>
        <time>2016-02-15T13:28:40Z</time>
      </trkpt>
      <trkpt lat="44.34249" lon="5.90313">
        <ele>587.0219727</ele>
        <time>2016-02-15T13:28:47Z</time>
      </trkpt>
      <trkpt lat="44.34261" lon="5.9033">
        <ele>585.5800781</ele>
        <time>2016-02-15T13:28:49Z</time>
      </trkpt>
      <trkpt lat="44.34266" lon="5.90348">
        <ele>584.1381836</ele>
        <time>2016-02-15T13:28:51Z</time>
      </trkpt>
      <trkpt lat="44.34305" lon="5.90389">
        <ele>581.7348633</ele>
        <time>2016-02-15T13:28:56Z</time>
      </trkpt>
      <trkpt lat="44.34346" lon="5.90427">
        <ele>580.2929688</ele>
        <time>2016-02-15T13:29:02Z</time>
      </trkpt>
      <trkpt lat="44.34382" lon="5.90447">
        <ele>582.6962891</ele>
        <time>2016-02-15T13:29:09Z</time>
      </trkpt>
      <trkpt lat="44.34414" lon="5.90466">
        <ele>584.6188965</ele>
        <time>2016-02-15T13:29:21Z</time>
      </trkpt>
      <trkpt lat="44.34421" lon="5.90482">
        <ele>583.6574707</ele>
        <time>2016-02-15T13:29:24Z</time>
      </trkpt>
      <trkpt lat="44.34432" lon="5.90503">
        <ele>583.6574707</ele>
        <time>2016-02-15T13:29:28Z</time>
      </trkpt>
      <trkpt lat="44.34454" lon="5.90528">
        <ele>582.2155762</ele>
        <time>2016-02-15T13:29:33Z</time>
      </trkpt>
      <trkpt lat="44.34465" lon="5.90539">
        <ele>582.2155762</ele>
        <time>2016-02-15T13:29:35Z</time>
      </trkpt>
      <trkpt lat="44.34522" lon="5.90585">
        <ele>580.7736816</ele>
        <time>2016-02-15T13:29:47Z</time>
      </trkpt>
      <trkpt lat="44.34607" lon="5.90656">
        <ele>581.2543945</ele>
        <time>2016-02-15T13:30:06Z</time>
      </trkpt>
      <trkpt lat="44.34667" lon="5.90699">
        <ele>578.3703613</ele>
        <time>2016-02-15T13:30:17Z</time>
      </trkpt>
      <trkpt lat="44.34744" lon="5.9075">
        <ele>574.0444336</ele>
        <time>2016-02-15T13:30:27Z</time>
      </trkpt>
      <trkpt lat="44.34752" lon="5.90756">
        <ele>574.0444336</ele>
        <time>2016-02-15T13:30:28Z</time>
      </trkpt>
      <trkpt lat="44.34836" lon="5.90824">
        <ele>571.1604004</ele>
        <time>2016-02-15T13:30:41Z</time>
      </trkpt>
      <trkpt lat="44.34906" lon="5.90875">
        <ele>571.1604004</ele>
        <time>2016-02-15T13:30:54Z</time>
      </trkpt>
      <trkpt lat="44.34961" lon="5.90917">
        <ele>567.3151855</ele>
        <time>2016-02-15T13:31:04Z</time>
      </trkpt>
      <trkpt lat="44.34965" lon="5.90922">
        <ele>567.3151855</ele>
        <time>2016-02-15T13:31:05Z</time>
      </trkpt>
      <trkpt lat="44.35012" lon="5.90971">
        <ele>570.1989746</ele>
        <time>2016-02-15T13:31:18Z</time>
      </trkpt>
      <trkpt lat="44.35065" lon="5.91018">
        <ele>570.6796875</ele>
        <time>2016-02-15T13:31:35Z</time>
      </trkpt>
      <trkpt lat="44.35121" lon="5.91071">
        <ele>573.083252</ele>
        <time>2016-02-15T13:31:56Z</time>
      </trkpt>
      <trkpt lat="44.35175" lon="5.91122">
        <ele>575.4863281</ele>
        <time>2016-02-15T13:32:18Z</time>
      </trkpt>
      <trkpt lat="44.35216" lon="5.9116">
        <ele>575.4863281</ele>
        <time>2016-02-15T13:32:34Z</time>
      </trkpt>
      <trkpt lat="44.3528" lon="5.91218">
        <ele>577.4091797</ele>
        <time>2016-02-15T13:32:59Z</time>
      </trkpt>
      <trkpt lat="44.35347" lon="5.91274">
        <ele>577.4091797</ele>
        <time>2016-02-15T13:33:21Z</time>
      </trkpt>
      <trkpt lat="44.35414" lon="5.91322">
        <ele>577.4091797</ele>
        <time>2016-02-15T13:33:41Z</time>
      </trkpt>
      <trkpt lat="44.35488" lon="5.91371">
        <ele>579.331543</ele>
        <time>2016-02-15T13:34:01Z</time>
      </trkpt>
      <trkpt lat="44.35529" lon="5.91395">
        <ele>581.2543945</ele>
        <time>2016-02-15T13:34:13Z</time>
      </trkpt>
      <trkpt lat="44.35609" lon="5.91456">
        <ele>577.8896484</ele>
        <time>2016-02-15T13:34:35Z</time>
      </trkpt>
      <trkpt lat="44.35657" lon="5.91489">
        <ele>573.5639648</ele>
        <time>2016-02-15T13:34:46Z</time>
      </trkpt>
      <trkpt lat="44.35693" lon="5.91513">
        <ele>576.4477539</ele>
        <time>2016-02-15T13:34:54Z</time>
      </trkpt>
      <trkpt lat="44.35785" lon="5.91575">
        <ele>576.4477539</ele>
        <time>2016-02-15T13:35:15Z</time>
      </trkpt>
      <trkpt lat="44.3586" lon="5.91628">
        <ele>576.4477539</ele>
        <time>2016-02-15T13:35:35Z</time>
      </trkpt>
      <trkpt lat="44.35932" lon="5.91682">
        <ele>573.5639648</ele>
        <time>2016-02-15T13:35:55Z</time>
      </trkpt>
      <trkpt lat="44.3594" lon="5.91687">
        <ele>575.4863281</ele>
        <time>2016-02-15T13:35:57Z</time>
      </trkpt>
      <trkpt lat="44.3602" lon="5.91742">
        <ele>576.4477539</ele>
        <time>2016-02-15T13:36:19Z</time>
      </trkpt>
      <trkpt lat="44.36025" lon="5.91744">
        <ele>576.4477539</ele>
        <time>2016-02-15T13:36:20Z</time>
      </trkpt>
      <trkpt lat="44.36098" lon="5.91796">
        <ele>575.4863281</ele>
        <time>2016-02-15T13:36:41Z</time>
      </trkpt>
      <trkpt lat="44.36167" lon="5.91842">
        <ele>575.967041</ele>
        <time>2016-02-15T13:37:01Z</time>
      </trkpt>
      <trkpt lat="44.3623" lon="5.91885">
        <ele>575.967041</ele>
        <time>2016-02-15T13:37:19Z</time>
      </trkpt>
      <trkpt lat="44.36242" lon="5.91893">
        <ele>575.4863281</ele>
        <time>2016-02-15T13:37:22Z</time>
      </trkpt>
      <trkpt lat="44.36255" lon="5.91901">
        <ele>576.4477539</ele>
        <time>2016-02-15T13:37:25Z</time>
      </trkpt>
      <trkpt lat="44.36263" lon="5.91906">
        <ele>577.4091797</ele>
        <time>2016-02-15T13:37:27Z</time>
      </trkpt>
      <trkpt lat="44.36277" lon="5.91915">
        <ele>575.0058594</ele>
        <time>2016-02-15T13:37:30Z</time>
      </trkpt>
      <trkpt lat="44.36281" lon="5.91917">
        <ele>575.0058594</ele>
        <time>2016-02-15T13:37:31Z</time>
      </trkpt>
      <trkpt lat="44.36355" lon="5.91966">
        <ele>575.0058594</ele>
        <time>2016-02-15T13:37:50Z</time>
      </trkpt>
      <trkpt lat="44.36383" lon="5.91984">
        <ele>575.0058594</ele>
        <time>2016-02-15T13:37:57Z</time>
      </trkpt>
      <trkpt lat="44.36482" lon="5.92053">
        <ele>574.0444336</ele>
        <time>2016-02-15T13:38:21Z</time>
      </trkpt>
      <trkpt lat="44.3657" lon="5.92112">
        <ele>574.5251465</ele>
        <time>2016-02-15T13:38:43Z</time>
      </trkpt>
      <trkpt lat="44.36592" lon="5.92127">
        <ele>574.0444336</ele>
        <time>2016-02-15T13:38:48Z</time>
      </trkpt>
      <trkpt lat="44.36678" lon="5.92162">
        <ele>572.1218262</ele>
        <time>2016-02-15T13:39:08Z</time>
      </trkpt>
      <trkpt lat="44.36682" lon="5.92162">
        <ele>572.1218262</ele>
        <time>2016-02-15T13:39:09Z</time>
      </trkpt>
      <trkpt lat="44.36685" lon="5.92164">
        <ele>572.1218262</ele>
        <time>2016-02-15T13:39:10Z</time>
      </trkpt>
      <trkpt lat="44.36706" lon="5.92171">
        <ele>573.5639648</ele>
        <time>2016-02-15T13:39:16Z</time>
      </trkpt>
      <trkpt lat="44.36752" lon="5.92184">
        <ele>574.0444336</ele>
        <time>2016-02-15T13:39:28Z</time>
      </trkpt>
      <trkpt lat="44.36777" lon="5.92191">
        <ele>574.0444336</ele>
        <time>2016-02-15T13:39:35Z</time>
      </trkpt>
      <trkpt lat="44.36794" lon="5.92199">
        <ele>576.9284668</ele>
        <time>2016-02-15T13:39:42Z</time>
      </trkpt>
      <trkpt lat="44.36797" lon="5.92202">
        <ele>579.8122559</ele>
        <time>2016-02-15T13:39:44Z</time>
      </trkpt>
      <trkpt lat="44.36802" lon="5.92204">
        <ele>578.3703613</ele>
        <time>2016-02-15T13:39:46Z</time>
      </trkpt>
      <trkpt lat="44.36813" lon="5.92213">
        <ele>580.2929688</ele>
        <time>2016-02-15T13:39:54Z</time>
      </trkpt>
      <trkpt lat="44.36817" lon="5.92218">
        <ele>580.7736816</ele>
        <time>2016-02-15T13:40:09Z</time>
      </trkpt>
      <trkpt lat="44.36817" lon="5.92218">
        <ele>578.8510742</ele>
        <time>2016-02-15T13:40:21Z</time>
      </trkpt>
      <trkpt lat="44.36819" lon="5.92221">
        <ele>579.8122559</ele>
        <time>2016-02-15T13:40:31Z</time>
      </trkpt>
      <trkpt lat="44.3682" lon="5.92223">
        <ele>580.2929688</ele>
        <time>2016-02-15T13:40:53Z</time>
      </trkpt>
      <trkpt lat="44.3682" lon="5.92223">
        <ele>582.6962891</ele>
        <time>2016-02-15T13:40:56Z</time>
      </trkpt>
      <trkpt lat="44.3682" lon="5.92223">
        <ele>578.8510742</ele>
        <time>2016-02-15T13:41:06Z</time>
      </trkpt>
      <trkpt lat="44.3682" lon="5.92223">
        <ele>578.8510742</ele>
        <time>2016-02-15T13:41:07Z</time>
      </trkpt>
      <trkpt lat="44.3682" lon="5.92223">
        <ele>577.4091797</ele>
        <time>2016-02-15T13:41:09Z</time>
      </trkpt>
      <trkpt lat="44.36821" lon="5.92222">
        <ele>578.8510742</ele>
        <time>2016-02-15T13:41:18Z</time>
      </trkpt>
      <trkpt lat="44.36824" lon="5.92221">
        <ele>578.3703613</ele>
        <time>2016-02-15T13:41:25Z</time>
      </trkpt>
      <trkpt lat="44.36834" lon="5.92228">
        <ele>578.8510742</ele>
        <time>2016-02-15T13:41:30Z</time>
      </trkpt>
      <trkpt lat="44.36857" lon="5.92241">
        <ele>577.4091797</ele>
        <time>2016-02-15T13:41:36Z</time>
      </trkpt>
      <trkpt lat="44.36865" lon="5.92246">
        <ele>574.5251465</ele>
        <time>2016-02-15T13:41:38Z</time>
      </trkpt>
      <trkpt lat="44.3687" lon="5.92249">
        <ele>574.5251465</ele>
        <time>2016-02-15T13:41:39Z</time>
      </trkpt>
      <trkpt lat="44.36912" lon="5.92274">
        <ele>571.1604004</ele>
        <time>2016-02-15T13:41:47Z</time>
      </trkpt>
      <trkpt lat="44.36923" lon="5.92283">
        <ele>572.6025391</ele>
        <time>2016-02-15T13:41:49Z</time>
      </trkpt>
      <trkpt lat="44.36954" lon="5.92308">
        <ele>569.237793</ele>
        <time>2016-02-15T13:41:55Z</time>
      </trkpt>
      <trkpt lat="44.36993" lon="5.92344">
        <ele>569.237793</ele>
        <time>2016-02-15T13:42:04Z</time>
      </trkpt>
      <trkpt lat="44.37086" lon="5.92425">
        <ele>570.1989746</ele>
        <time>2016-02-15T13:42:24Z</time>
      </trkpt>
      <trkpt lat="44.37117" lon="5.9245">
        <ele>571.1604004</ele>
        <time>2016-02-15T13:42:31Z</time>
      </trkpt>
      <trkpt lat="44.37148" lon="5.92476">
        <ele>570.6796875</ele>
        <time>2016-02-15T13:42:38Z</time>
      </trkpt>
      <trkpt lat="44.37181" lon="5.92503">
        <ele>570.6796875</ele>
        <time>2016-02-15T13:42:46Z</time>
      </trkpt>
      <trkpt lat="44.37196" lon="5.92518">
        <ele>570.6796875</ele>
        <time>2016-02-15T13:42:50Z</time>
      </trkpt>
      <trkpt lat="44.37207" lon="5.92526">
        <ele>570.6796875</ele>
        <time>2016-02-15T13:42:53Z</time>
      </trkpt>
      <trkpt lat="44.37246" lon="5.92564">
        <ele>570.6796875</ele>
        <time>2016-02-15T13:43:05Z</time>
      </trkpt>
      <trkpt lat="44.37255" lon="5.92573">
        <ele>572.1218262</ele>
        <time>2016-02-15T13:43:08Z</time>
      </trkpt>
      <trkpt lat="44.37307" lon="5.9262">
        <ele>573.083252</ele>
        <time>2016-02-15T13:43:26Z</time>
      </trkpt>
      <trkpt lat="44.3735" lon="5.92653">
        <ele>575.967041</ele>
        <time>2016-02-15T13:43:41Z</time>
      </trkpt>
      <trkpt lat="44.37409" lon="5.92697">
        <ele>575.0058594</ele>
        <time>2016-02-15T13:44:01Z</time>
      </trkpt>
      <trkpt lat="44.37479" lon="5.92742">
        <ele>574.0444336</ele>
        <time>2016-02-15T13:44:20Z</time>
      </trkpt>
      <trkpt lat="44.37498" lon="5.92753">
        <ele>573.5639648</ele>
        <time>2016-02-15T13:44:25Z</time>
      </trkpt>
      <trkpt lat="44.37559" lon="5.92796">
        <ele>573.5639648</ele>
        <time>2016-02-15T13:44:41Z</time>
      </trkpt>
      <trkpt lat="44.37614" lon="5.92835">
        <ele>573.5639648</ele>
        <time>2016-02-15T13:44:56Z</time>
      </trkpt>
      <trkpt lat="44.37687" lon="5.92881">
        <ele>572.1218262</ele>
        <time>2016-02-15T13:45:14Z</time>
      </trkpt>
      <trkpt lat="44.37729" lon="5.9291">
        <ele>571.6408691</ele>
        <time>2016-02-15T13:45:25Z</time>
      </trkpt>
      <trkpt lat="44.378" lon="5.92956">
        <ele>571.6408691</ele>
        <time>2016-02-15T13:45:42Z</time>
      </trkpt>
      <trkpt lat="44.3788" lon="5.93007">
        <ele>570.6796875</ele>
        <time>2016-02-15T13:46:02Z</time>
      </trkpt>
      <trkpt lat="44.37921" lon="5.93036">
        <ele>572.1218262</ele>
        <time>2016-02-15T13:46:12Z</time>
      </trkpt>
      <trkpt lat="44.37952" lon="5.93058">
        <ele>572.6025391</ele>
        <time>2016-02-15T13:46:20Z</time>
      </trkpt>
      <trkpt lat="44.38013" lon="5.93104">
        <ele>573.083252</ele>
        <time>2016-02-15T13:46:38Z</time>
      </trkpt>
      <trkpt lat="44.3806" lon="5.9314">
        <ele>573.083252</ele>
        <time>2016-02-15T13:46:54Z</time>
      </trkpt>
      <trkpt lat="44.38102" lon="5.93171">
        <ele>573.5639648</ele>
        <time>2016-02-15T13:47:09Z</time>
      </trkpt>
      <trkpt lat="44.38151" lon="5.93208">
        <ele>575.4863281</ele>
        <time>2016-02-15T13:47:26Z</time>
      </trkpt>
      <trkpt lat="44.38154" lon="5.9321">
        <ele>575.4863281</ele>
        <time>2016-02-15T13:47:27Z</time>
      </trkpt>
      <trkpt lat="44.38207" lon="5.93247">
        <ele>575.4863281</ele>
        <time>2016-02-15T13:47:44Z</time>
      </trkpt>
      <trkpt lat="44.38238" lon="5.93265">
        <ele>575.0058594</ele>
        <time>2016-02-15T13:47:52Z</time>
      </trkpt>
      <trkpt lat="44.38258" lon="5.93278">
        <ele>574.5251465</ele>
        <time>2016-02-15T13:47:57Z</time>
      </trkpt>
      <trkpt lat="44.3833" lon="5.93324">
        <ele>574.5251465</ele>
        <time>2016-02-15T13:48:16Z</time>
      </trkpt>
      <trkpt lat="44.38337" lon="5.93329">
        <ele>572.6025391</ele>
        <time>2016-02-15T13:48:18Z</time>
      </trkpt>
      <trkpt lat="44.38433" lon="5.93393">
        <ele>573.083252</ele>
        <time>2016-02-15T13:48:42Z</time>
      </trkpt>
      <trkpt lat="44.38477" lon="5.93425">
        <ele>574.0444336</ele>
        <time>2016-02-15T13:48:54Z</time>
      </trkpt>
      <trkpt lat="44.38489" lon="5.93435">
        <ele>573.5639648</ele>
        <time>2016-02-15T13:48:58Z</time>
      </trkpt>
      <trkpt lat="44.385" lon="5.93445">
        <ele>573.5639648</ele>
        <time>2016-02-15T13:49:01Z</time>
      </trkpt>
      <trkpt lat="44.38562" lon="5.93487">
        <ele>574.0444336</ele>
        <time>2016-02-15T13:49:19Z</time>
      </trkpt>
      <trkpt lat="44.38608" lon="5.93522">
        <ele>576.9284668</ele>
        <time>2016-02-15T13:49:35Z</time>
      </trkpt>
      <trkpt lat="44.38648" lon="5.93553">
        <ele>579.331543</ele>
        <time>2016-02-15T13:49:53Z</time>
      </trkpt>
      <trkpt lat="44.38683" lon="5.93575">
        <ele>580.7736816</ele>
        <time>2016-02-15T13:50:10Z</time>
      </trkpt>
      <trkpt lat="44.38688" lon="5.93578">
        <ele>582.2155762</ele>
        <time>2016-02-15T13:50:13Z</time>
      </trkpt>
      <trkpt lat="44.38704" lon="5.93591">
        <ele>583.6574707</ele>
        <time>2016-02-15T13:50:23Z</time>
      </trkpt>
      <trkpt lat="44.38708" lon="5.93616">
        <ele>583.1767578</ele>
        <time>2016-02-15T13:50:30Z</time>
      </trkpt>
      <trkpt lat="44.38702" lon="5.93727">
        <ele>581.2543945</ele>
        <time>2016-02-15T13:50:48Z</time>
      </trkpt>
      <trkpt lat="44.38701" lon="5.93751">
        <ele>579.8122559</ele>
        <time>2016-02-15T13:50:51Z</time>
      </trkpt>
      <trkpt lat="44.38697" lon="5.93818">
        <ele>576.9284668</ele>
        <time>2016-02-15T13:50:58Z</time>
      </trkpt>
      <trkpt lat="44.38696" lon="5.93854">
        <ele>575.0058594</ele>
        <time>2016-02-15T13:51:02Z</time>
      </trkpt>
      <trkpt lat="44.38669" lon="5.93911">
        <ele>574.0444336</ele>
        <time>2016-02-15T13:51:10Z</time>
      </trkpt>
      <trkpt lat="44.38662" lon="5.93913">
        <ele>573.083252</ele>
        <time>2016-02-15T13:51:11Z</time>
      </trkpt>
      <trkpt lat="44.38616" lon="5.93921">
        <ele>568.7570801</ele>
        <time>2016-02-15T13:51:17Z</time>
      </trkpt>
      <trkpt lat="44.38608" lon="5.93922">
        <ele>568.7570801</ele>
        <time>2016-02-15T13:51:18Z</time>
      </trkpt>
      <trkpt lat="44.38582" lon="5.93926">
        <ele>566.3537598</ele>
        <time>2016-02-15T13:51:21Z</time>
      </trkpt>
      <trkpt lat="44.38566" lon="5.93929">
        <ele>564.9118652</ele>
        <time>2016-02-15T13:51:23Z</time>
      </trkpt>
      <trkpt lat="44.3855" lon="5.93932">
        <ele>562.9892578</ele>
        <time>2016-02-15T13:51:25Z</time>
      </trkpt>
      <trkpt lat="44.38529" lon="5.93936">
        <ele>560.5859375</ele>
        <time>2016-02-15T13:51:28Z</time>
      </trkpt>
      <trkpt lat="44.38523" lon="5.93937">
        <ele>560.1052246</ele>
        <time>2016-02-15T13:51:29Z</time>
      </trkpt>
      <trkpt lat="44.38501" lon="5.93969">
        <ele>557.7021484</ele>
        <time>2016-02-15T13:51:35Z</time>
      </trkpt>
      <trkpt lat="44.38501" lon="5.93978">
        <ele>557.7021484</ele>
        <time>2016-02-15T13:51:36Z</time>
      </trkpt>
      <trkpt lat="44.385" lon="5.94064">
        <ele>559.144043</ele>
        <time>2016-02-15T13:51:50Z</time>
      </trkpt>
      <trkpt lat="44.38493" lon="5.94125">
        <ele>559.6247559</ele>
        <time>2016-02-15T13:52:04Z</time>
      </trkpt>
      <trkpt lat="44.38483" lon="5.94181">
        <ele>559.6247559</ele>
        <time>2016-02-15T13:52:18Z</time>
      </trkpt>
      <trkpt lat="44.38479" lon="5.94208">
        <ele>560.5859375</ele>
        <time>2016-02-15T13:52:26Z</time>
      </trkpt>
      <trkpt lat="44.3848" lon="5.94222">
        <ele>560.5859375</ele>
        <time>2016-02-15T13:52:30Z</time>
      </trkpt>
      <trkpt lat="44.38479" lon="5.94242">
        <ele>560.1052246</ele>
        <time>2016-02-15T13:52:35Z</time>
      </trkpt>
      <trkpt lat="44.38486" lon="5.94243">
        <ele>559.6247559</ele>
        <time>2016-02-15T13:52:40Z</time>
      </trkpt>
      <trkpt lat="44.38499" lon="5.94243">
        <ele>560.1052246</ele>
        <time>2016-02-15T13:52:43Z</time>
      </trkpt>
      <trkpt lat="44.38508" lon="5.94229">
        <ele>560.5859375</ele>
        <time>2016-02-15T13:52:55Z</time>
      </trkpt>
      <trkpt lat="44.38508" lon="5.94229">
        <ele>559.144043</ele>
        <time>2016-02-15T13:53:03Z</time>
      </trkpt>
      <trkpt lat="44.38509" lon="5.94229">
        <ele>560.5859375</ele>
        <time>2016-02-15T13:53:07Z</time>
      </trkpt>
    </trkseg>
  </trk>
  <trk>
    <name><![CDATA[N°64 Monetier / Lazer /Upaix /le Poet]]></name>
    <trkseg>
      <trkpt lat="44.38534" lon="5.94223">
        <ele>442.3438721</ele>
        <time>2016-02-21T09:57:05Z</time>
      </trkpt>
      <trkpt lat="44.38533" lon="5.94223">
        <ele>448.5924072</ele>
        <time>2016-02-21T09:57:13Z</time>
      </trkpt>
      <trkpt lat="44.38533" lon="5.94223">
        <ele>451.9570313</ele>
        <time>2016-02-21T09:57:14Z</time>
      </trkpt>
      <trkpt lat="44.38533" lon="5.94223">
        <ele>455.3215332</ele>
        <time>2016-02-21T09:57:15Z</time>
      </trkpt>
      <trkpt lat="44.38533" lon="5.94223">
        <ele>458.6861572</ele>
        <time>2016-02-21T09:57:16Z</time>
      </trkpt>
      <trkpt lat="44.38533" lon="5.94223">
        <ele>462.5313721</ele>
        <time>2016-02-21T09:57:17Z</time>
      </trkpt>
      <trkpt lat="44.38533" lon="5.94223">
        <ele>465.4155273</ele>
        <time>2016-02-21T09:57:18Z</time>
      </trkpt>
      <trkpt lat="44.38533" lon="5.94222">
        <ele>470.7026367</ele>
        <time>2016-02-21T09:57:20Z</time>
      </trkpt>
      <trkpt lat="44.38533" lon="5.94222">
        <ele>476.4705811</ele>
        <time>2016-02-21T09:57:22Z</time>
      </trkpt>
      <trkpt lat="44.38533" lon="5.94223">
        <ele>479.3544922</ele>
        <time>2016-02-21T09:57:23Z</time>
      </trkpt>
      <trkpt lat="44.38533" lon="5.94223">
        <ele>484.6418457</ele>
        <time>2016-02-21T09:57:25Z</time>
      </trkpt>
      <trkpt lat="44.38533" lon="5.94223">
        <ele>488.9677734</ele>
        <time>2016-02-21T09:57:27Z</time>
      </trkpt>
      <trkpt lat="44.38532" lon="5.94222">
        <ele>493.774292</ele>
        <time>2016-02-21T09:57:29Z</time>
      </trkpt>
      <trkpt lat="44.38532" lon="5.94223">
        <ele>498.1003418</ele>
        <time>2016-02-21T09:57:31Z</time>
      </trkpt>
      <trkpt lat="44.38532" lon="5.94223">
        <ele>502.4261475</ele>
        <time>2016-02-21T09:57:33Z</time>
      </trkpt>
      <trkpt lat="44.38531" lon="5.94223">
        <ele>506.7520752</ele>
        <time>2016-02-21T09:57:36Z</time>
      </trkpt>
      <trkpt lat="44.38531" lon="5.94224">
        <ele>511.0780029</ele>
        <time>2016-02-21T09:57:39Z</time>
      </trkpt>
      <trkpt lat="44.38531" lon="5.94224">
        <ele>514.9233398</ele>
        <time>2016-02-21T09:57:41Z</time>
      </trkpt>
      <trkpt lat="44.38531" lon="5.94224">
        <ele>519.2492676</ele>
        <time>2016-02-21T09:57:44Z</time>
      </trkpt>
      <trkpt lat="44.38531" lon="5.94224">
        <ele>523.0946045</ele>
        <time>2016-02-21T09:57:47Z</time>
      </trkpt>
      <trkpt lat="44.38531" lon="5.94224">
        <ele>526.4591064</ele>
        <time>2016-02-21T09:57:50Z</time>
      </trkpt>
      <trkpt lat="44.38531" lon="5.94224">
        <ele>530.3044434</ele>
        <time>2016-02-21T09:57:54Z</time>
      </trkpt>
      <trkpt lat="44.38531" lon="5.94224">
        <ele>533.6689453</ele>
        <time>2016-02-21T09:57:58Z</time>
      </trkpt>
      <trkpt lat="44.38531" lon="5.94224">
        <ele>537.0336914</ele>
        <time>2016-02-21T09:58:01Z</time>
      </trkpt>
      <trkpt lat="44.38531" lon="5.94224">
        <ele>537.9949951</ele>
        <time>2016-02-21T09:58:03Z</time>
      </trkpt>
      <trkpt lat="44.38531" lon="5.94224">
        <ele>540.8789063</ele>
        <time>2016-02-21T09:58:07Z</time>
      </trkpt>
      <trkpt lat="44.38531" lon="5.94224">
        <ele>541.3594971</ele>
        <time>2016-02-21T09:58:08Z</time>
      </trkpt>
      <trkpt lat="44.38531" lon="5.94224">
        <ele>544.2436523</ele>
        <time>2016-02-21T09:58:14Z</time>
      </trkpt>
      <trkpt lat="44.38531" lon="5.94224">
        <ele>547.6081543</ele>
        <time>2016-02-21T09:58:19Z</time>
      </trkpt>
      <trkpt lat="44.38531" lon="5.94223">
        <ele>550.9726563</ele>
        <time>2016-02-21T09:58:28Z</time>
      </trkpt>
      <trkpt lat="44.38531" lon="5.94223">
        <ele>554.3374023</ele>
        <time>2016-02-21T09:58:42Z</time>
      </trkpt>
      <trkpt lat="44.38531" lon="5.94223">
        <ele>557.2214355</ele>
        <time>2016-02-21T09:59:04Z</time>
      </trkpt>
      <trkpt lat="44.3853" lon="5.94223">
        <ele>558.1828613</ele>
        <time>2016-02-21T09:59:34Z</time>
      </trkpt>
      <trkpt lat="44.38531" lon="5.94223">
        <ele>558.1828613</ele>
        <time>2016-02-21T10:00:02Z</time>
      </trkpt>
      <trkpt lat="44.38529" lon="5.94229">
        <ele>558.1828613</ele>
        <time>2016-02-21T10:00:15Z</time>
      </trkpt>
      <trkpt lat="44.38528" lon="5.94229">
        <ele>557.7021484</ele>
        <time>2016-02-21T10:00:17Z</time>
      </trkpt>
      <trkpt lat="44.38516" lon="5.94232">
        <ele>557.7021484</ele>
        <time>2016-02-21T10:00:22Z</time>
      </trkpt>
      <trkpt lat="44.38506" lon="5.94236">
        <ele>557.7021484</ele>
        <time>2016-02-21T10:00:27Z</time>
      </trkpt>
      <trkpt lat="44.385" lon="5.94237">
        <ele>557.7021484</ele>
        <time>2016-02-21T10:00:30Z</time>
      </trkpt>
      <trkpt lat="44.38497" lon="5.94224">
        <ele>557.7021484</ele>
        <time>2016-02-21T10:00:36Z</time>
      </trkpt>
      <trkpt lat="44.38499" lon="5.94217">
        <ele>558.1828613</ele>
        <time>2016-02-21T10:00:40Z</time>
      </trkpt>
      <trkpt lat="44.38503" lon="5.94206">
        <ele>558.1828613</ele>
        <time>2016-02-21T10:00:44Z</time>
      </trkpt>
      <trkpt lat="44.38506" lon="5.94199">
        <ele>558.1828613</ele>
        <time>2016-02-21T10:00:47Z</time>
      </trkpt>
      <trkpt lat="44.38509" lon="5.94129">
        <ele>557.7021484</ele>
        <time>2016-02-21T10:00:59Z</time>
      </trkpt>
      <trkpt lat="44.3852" lon="5.94044">
        <ele>557.2214355</ele>
        <time>2016-02-21T10:01:16Z</time>
      </trkpt>
      <trkpt lat="44.38516" lon="5.94009">
        <ele>556.7407227</ele>
        <time>2016-02-21T10:01:21Z</time>
      </trkpt>
      <trkpt lat="44.38514" lon="5.93976">
        <ele>556.7407227</ele>
        <time>2016-02-21T10:01:26Z</time>
      </trkpt>
      <trkpt lat="44.38524" lon="5.93946">
        <ele>556.2600098</ele>
        <time>2016-02-21T10:01:32Z</time>
      </trkpt>
      <trkpt lat="44.38555" lon="5.93936">
        <ele>558.6633301</ele>
        <time>2016-02-21T10:01:47Z</time>
      </trkpt>
      <trkpt lat="44.38588" lon="5.93929">
        <ele>561.5473633</ele>
        <time>2016-02-21T10:02:05Z</time>
      </trkpt>
      <trkpt lat="44.3862" lon="5.93922">
        <ele>563.9504395</ele>
        <time>2016-02-21T10:02:21Z</time>
      </trkpt>
      <trkpt lat="44.38645" lon="5.93919">
        <ele>565.3925781</ele>
        <time>2016-02-21T10:02:33Z</time>
      </trkpt>
      <trkpt lat="44.38671" lon="5.93915">
        <ele>567.7956543</ele>
        <time>2016-02-21T10:02:47Z</time>
      </trkpt>
      <trkpt lat="44.3869" lon="5.93905">
        <ele>569.7185059</ele>
        <time>2016-02-21T10:02:59Z</time>
      </trkpt>
      <trkpt lat="44.38702" lon="5.93889">
        <ele>570.6796875</ele>
        <time>2016-02-21T10:03:09Z</time>
      </trkpt>
      <trkpt lat="44.38704" lon="5.93821">
        <ele>572.1218262</ele>
        <time>2016-02-21T10:03:32Z</time>
      </trkpt>
      <trkpt lat="44.38702" lon="5.9381">
        <ele>573.5639648</ele>
        <time>2016-02-21T10:03:35Z</time>
      </trkpt>
      <trkpt lat="44.38701" lon="5.93805">
        <ele>573.5639648</ele>
        <time>2016-02-21T10:03:37Z</time>
      </trkpt>
      <trkpt lat="44.38702" lon="5.93798">
        <ele>571.6408691</ele>
        <time>2016-02-21T10:03:40Z</time>
      </trkpt>
      <trkpt lat="44.38702" lon="5.93793">
        <ele>573.5639648</ele>
        <time>2016-02-21T10:03:42Z</time>
      </trkpt>
      <trkpt lat="44.38706" lon="5.93759">
        <ele>575.4863281</ele>
        <time>2016-02-21T10:03:55Z</time>
      </trkpt>
      <trkpt lat="44.38708" lon="5.93704">
        <ele>577.4091797</ele>
        <time>2016-02-21T10:04:12Z</time>
      </trkpt>
      <trkpt lat="44.38712" lon="5.9365">
        <ele>578.3703613</ele>
        <time>2016-02-21T10:04:27Z</time>
      </trkpt>
      <trkpt lat="44.38712" lon="5.93595">
        <ele>579.8122559</ele>
        <time>2016-02-21T10:04:42Z</time>
      </trkpt>
      <trkpt lat="44.38695" lon="5.93581">
        <ele>579.331543</ele>
        <time>2016-02-21T10:04:48Z</time>
      </trkpt>
      <trkpt lat="44.38613" lon="5.93529">
        <ele>577.8896484</ele>
        <time>2016-02-21T10:05:04Z</time>
      </trkpt>
      <trkpt lat="44.38559" lon="5.93487">
        <ele>574.5251465</ele>
        <time>2016-02-21T10:05:13Z</time>
      </trkpt>
      <trkpt lat="44.38553" lon="5.93483">
        <ele>574.5251465</ele>
        <time>2016-02-21T10:05:14Z</time>
      </trkpt>
      <trkpt lat="44.38466" lon="5.93419">
        <ele>573.083252</ele>
        <time>2016-02-21T10:05:31Z</time>
      </trkpt>
      <trkpt lat="44.38423" lon="5.9339">
        <ele>572.1218262</ele>
        <time>2016-02-21T10:05:42Z</time>
      </trkpt>
      <trkpt lat="44.38352" lon="5.93339">
        <ele>573.083252</ele>
        <time>2016-02-21T10:06:02Z</time>
      </trkpt>
      <trkpt lat="44.38279" lon="5.93292">
        <ele>574.0444336</ele>
        <time>2016-02-21T10:06:24Z</time>
      </trkpt>
      <trkpt lat="44.38189" lon="5.93229">
        <ele>575.0058594</ele>
        <time>2016-02-21T10:06:52Z</time>
      </trkpt>
      <trkpt lat="44.38109" lon="5.93173">
        <ele>575.0058594</ele>
        <time>2016-02-21T10:07:15Z</time>
      </trkpt>
      <trkpt lat="44.38099" lon="5.93148">
        <ele>575.4863281</ele>
        <time>2016-02-21T10:07:20Z</time>
      </trkpt>
      <trkpt lat="44.38064" lon="5.93078">
        <ele>575.0058594</ele>
        <time>2016-02-21T10:07:37Z</time>
      </trkpt>
      <trkpt lat="44.38014" lon="5.93">
        <ele>576.4477539</ele>
        <time>2016-02-21T10:07:59Z</time>
      </trkpt>
      <trkpt lat="44.37967" lon="5.92929">
        <ele>577.4091797</ele>
        <time>2016-02-21T10:08:19Z</time>
      </trkpt>
      <trkpt lat="44.37942" lon="5.92834">
        <ele>575.967041</ele>
        <time>2016-02-21T10:08:35Z</time>
      </trkpt>
      <trkpt lat="44.37907" lon="5.92781">
        <ele>575.4863281</ele>
        <time>2016-02-21T10:08:49Z</time>
      </trkpt>
      <trkpt lat="44.37876" lon="5.9276">
        <ele>577.4091797</ele>
        <time>2016-02-21T10:09:06Z</time>
      </trkpt>
      <trkpt lat="44.3787" lon="5.92757">
        <ele>578.3703613</ele>
        <time>2016-02-21T10:09:09Z</time>
      </trkpt>
      <trkpt lat="44.37843" lon="5.92717">
        <ele>579.8122559</ele>
        <time>2016-02-21T10:09:26Z</time>
      </trkpt>
      <trkpt lat="44.37809" lon="5.9265">
        <ele>580.2929688</ele>
        <time>2016-02-21T10:09:48Z</time>
      </trkpt>
      <trkpt lat="44.37777" lon="5.92593">
        <ele>581.7348633</ele>
        <time>2016-02-21T10:10:04Z</time>
      </trkpt>
      <trkpt lat="44.37746" lon="5.92505">
        <ele>583.1767578</ele>
        <time>2016-02-21T10:10:27Z</time>
      </trkpt>
      <trkpt lat="44.37721" lon="5.92431">
        <ele>582.6962891</ele>
        <time>2016-02-21T10:10:45Z</time>
      </trkpt>
      <trkpt lat="44.37682" lon="5.92356">
        <ele>582.6962891</ele>
        <time>2016-02-21T10:11:04Z</time>
      </trkpt>
      <trkpt lat="44.37634" lon="5.92296">
        <ele>582.2155762</ele>
        <time>2016-02-21T10:11:20Z</time>
      </trkpt>
      <trkpt lat="44.37579" lon="5.92204">
        <ele>580.7736816</ele>
        <time>2016-02-21T10:11:36Z</time>
      </trkpt>
      <trkpt lat="44.37567" lon="5.92151">
        <ele>579.8122559</ele>
        <time>2016-02-21T10:11:47Z</time>
      </trkpt>
      <trkpt lat="44.3758" lon="5.92098">
        <ele>581.2543945</ele>
        <time>2016-02-21T10:12:01Z</time>
      </trkpt>
      <trkpt lat="44.376" lon="5.92052">
        <ele>583.1767578</ele>
        <time>2016-02-21T10:12:16Z</time>
      </trkpt>
      <trkpt lat="44.37608" lon="5.92015">
        <ele>584.1381836</ele>
        <time>2016-02-21T10:12:29Z</time>
      </trkpt>
      <trkpt lat="44.37608" lon="5.92008">
        <ele>584.1381836</ele>
        <time>2016-02-21T10:12:32Z</time>
      </trkpt>
      <trkpt lat="44.37584" lon="5.91963">
        <ele>586.060791</ele>
        <time>2016-02-21T10:12:48Z</time>
      </trkpt>
      <trkpt lat="44.37567" lon="5.91945">
        <ele>588.4643555</ele>
        <time>2016-02-21T10:13:01Z</time>
      </trkpt>
      <trkpt lat="44.37561" lon="5.91942">
        <ele>589.4255371</ele>
        <time>2016-02-21T10:13:05Z</time>
      </trkpt>
      <trkpt lat="44.3754" lon="5.91923">
        <ele>592.7902832</ele>
        <time>2016-02-21T10:13:19Z</time>
      </trkpt>
      <trkpt lat="44.37531" lon="5.91907">
        <ele>594.2321777</ele>
        <time>2016-02-21T10:13:28Z</time>
      </trkpt>
      <trkpt lat="44.37519" lon="5.9188">
        <ele>596.635498</ele>
        <time>2016-02-21T10:13:42Z</time>
      </trkpt>
      <trkpt lat="44.37508" lon="5.91852">
        <ele>598.0773926</ele>
        <time>2016-02-21T10:13:55Z</time>
      </trkpt>
      <trkpt lat="44.37499" lon="5.91824">
        <ele>599.0385742</ele>
        <time>2016-02-21T10:14:07Z</time>
      </trkpt>
      <trkpt lat="44.37479" lon="5.91787">
        <ele>601.4418945</ele>
        <time>2016-02-21T10:14:25Z</time>
      </trkpt>
      <trkpt lat="44.37462" lon="5.91757">
        <ele>603.364502</ele>
        <time>2016-02-21T10:14:40Z</time>
      </trkpt>
      <trkpt lat="44.37456" lon="5.91726">
        <ele>603.8452148</ele>
        <time>2016-02-21T10:14:52Z</time>
      </trkpt>
      <trkpt lat="44.37449" lon="5.91698">
        <ele>603.8452148</ele>
        <time>2016-02-21T10:15:01Z</time>
      </trkpt>
      <trkpt lat="44.37443" lon="5.91655">
        <ele>604.8066406</ele>
        <time>2016-02-21T10:15:15Z</time>
      </trkpt>
      <trkpt lat="44.3744" lon="5.91633">
        <ele>605.7680664</ele>
        <time>2016-02-21T10:15:25Z</time>
      </trkpt>
      <trkpt lat="44.3744" lon="5.91585">
        <ele>607.2099609</ele>
        <time>2016-02-21T10:15:40Z</time>
      </trkpt>
      <trkpt lat="44.37429" lon="5.91526">
        <ele>609.6132813</ele>
        <time>2016-02-21T10:15:59Z</time>
      </trkpt>
      <trkpt lat="44.37421" lon="5.91497">
        <ele>611.0551758</ele>
        <time>2016-02-21T10:16:10Z</time>
      </trkpt>
      <trkpt lat="44.3742" lon="5.91464">
        <ele>613.4584961</ele>
        <time>2016-02-21T10:16:24Z</time>
      </trkpt>
      <trkpt lat="44.3741" lon="5.91409">
        <ele>615.3811035</ele>
        <time>2016-02-21T10:16:44Z</time>
      </trkpt>
      <trkpt lat="44.37405" lon="5.9137">
        <ele>616.3422852</ele>
        <time>2016-02-21T10:16:59Z</time>
      </trkpt>
      <trkpt lat="44.37398" lon="5.91312">
        <ele>617.7841797</ele>
        <time>2016-02-21T10:17:17Z</time>
      </trkpt>
      <trkpt lat="44.37362" lon="5.91238">
        <ele>615.3811035</ele>
        <time>2016-02-21T10:17:35Z</time>
      </trkpt>
      <trkpt lat="44.37323" lon="5.91166">
        <ele>617.7841797</ele>
        <time>2016-02-21T10:17:59Z</time>
      </trkpt>
      <trkpt lat="44.37314" lon="5.91129">
        <ele>620.668457</ele>
        <time>2016-02-21T10:18:15Z</time>
      </trkpt>
      <trkpt lat="44.37312" lon="5.91089">
        <ele>622.5910645</ele>
        <time>2016-02-21T10:18:30Z</time>
      </trkpt>
      <trkpt lat="44.37296" lon="5.91046">
        <ele>623.5524902</ele>
        <time>2016-02-21T10:18:48Z</time>
      </trkpt>
      <trkpt lat="44.37278" lon="5.90987">
        <ele>625.9555664</ele>
        <time>2016-02-21T10:19:11Z</time>
      </trkpt>
      <trkpt lat="44.37279" lon="5.90972">
        <ele>626.4362793</ele>
        <time>2016-02-21T10:19:18Z</time>
      </trkpt>
      <trkpt lat="44.3728" lon="5.90952">
        <ele>627.8781738</ele>
        <time>2016-02-21T10:19:26Z</time>
      </trkpt>
      <trkpt lat="44.3728" lon="5.90946">
        <ele>627.8781738</ele>
        <time>2016-02-21T10:19:29Z</time>
      </trkpt>
      <trkpt lat="44.37283" lon="5.90908">
        <ele>629.8007813</ele>
        <time>2016-02-21T10:19:43Z</time>
      </trkpt>
      <trkpt lat="44.37287" lon="5.90875">
        <ele>632.2041016</ele>
        <time>2016-02-21T10:19:56Z</time>
      </trkpt>
      <trkpt lat="44.37277" lon="5.90831">
        <ele>633.6459961</ele>
        <time>2016-02-21T10:20:13Z</time>
      </trkpt>
      <trkpt lat="44.37262" lon="5.90796">
        <ele>635.0881348</ele>
        <time>2016-02-21T10:20:28Z</time>
      </trkpt>
      <trkpt lat="44.37229" lon="5.90771">
        <ele>637.972168</ele>
        <time>2016-02-21T10:20:49Z</time>
      </trkpt>
      <trkpt lat="44.37189" lon="5.90755">
        <ele>639.4140625</ele>
        <time>2016-02-21T10:21:08Z</time>
      </trkpt>
      <trkpt lat="44.37193" lon="5.90717">
        <ele>641.8173828</ele>
        <time>2016-02-21T10:21:21Z</time>
      </trkpt>
      <trkpt lat="44.37213" lon="5.90666">
        <ele>641.8173828</ele>
        <time>2016-02-21T10:21:40Z</time>
      </trkpt>
      <trkpt lat="44.3724" lon="5.9064">
        <ele>642.7788086</ele>
        <time>2016-02-21T10:21:55Z</time>
      </trkpt>
      <trkpt lat="44.37259" lon="5.90595">
        <ele>642.7788086</ele>
        <time>2016-02-21T10:22:11Z</time>
      </trkpt>
      <trkpt lat="44.37263" lon="5.90575">
        <ele>642.2980957</ele>
        <time>2016-02-21T10:22:15Z</time>
      </trkpt>
      <trkpt lat="44.37264" lon="5.90539">
        <ele>641.8173828</ele>
        <time>2016-02-21T10:22:20Z</time>
      </trkpt>
      <trkpt lat="44.37273" lon="5.90507">
        <ele>640.3754883</ele>
        <time>2016-02-21T10:22:24Z</time>
      </trkpt>
      <trkpt lat="44.37278" lon="5.9049">
        <ele>639.4140625</ele>
        <time>2016-02-21T10:22:26Z</time>
      </trkpt>
      <trkpt lat="44.37278" lon="5.9045">
        <ele>637.4914551</ele>
        <time>2016-02-21T10:22:30Z</time>
      </trkpt>
      <trkpt lat="44.37277" lon="5.90431">
        <ele>637.0107422</ele>
        <time>2016-02-21T10:22:32Z</time>
      </trkpt>
      <trkpt lat="44.37283" lon="5.90383">
        <ele>634.126709</ele>
        <time>2016-02-21T10:22:37Z</time>
      </trkpt>
      <trkpt lat="44.37317" lon="5.90306">
        <ele>631.7233887</ele>
        <time>2016-02-21T10:22:45Z</time>
      </trkpt>
      <trkpt lat="44.37328" lon="5.9028">
        <ele>629.3200684</ele>
        <time>2016-02-21T10:22:48Z</time>
      </trkpt>
      <trkpt lat="44.37342" lon="5.90246">
        <ele>626.4362793</ele>
        <time>2016-02-21T10:22:53Z</time>
      </trkpt>
      <trkpt lat="44.37366" lon="5.90238">
        <ele>624.9943848</ele>
        <time>2016-02-21T10:22:59Z</time>
      </trkpt>
      <trkpt lat="44.37406" lon="5.90296">
        <ele>620.1877441</ele>
        <time>2016-02-21T10:23:10Z</time>
      </trkpt>
      <trkpt lat="44.3741" lon="5.903">
        <ele>620.1877441</ele>
        <time>2016-02-21T10:23:11Z</time>
      </trkpt>
      <trkpt lat="44.37418" lon="5.90306">
        <ele>624.5136719</ele>
        <time>2016-02-21T10:23:13Z</time>
      </trkpt>
      <trkpt lat="44.37424" lon="5.90307">
        <ele>621.1491699</ele>
        <time>2016-02-21T10:23:15Z</time>
      </trkpt>
      <trkpt lat="44.37426" lon="5.90306">
        <ele>621.1491699</ele>
        <time>2016-02-21T10:23:16Z</time>
      </trkpt>
      <trkpt lat="44.37428" lon="5.90304">
        <ele>621.6296387</ele>
        <time>2016-02-21T10:23:17Z</time>
      </trkpt>
      <trkpt lat="44.37435" lon="5.90295">
        <ele>621.1491699</ele>
        <time>2016-02-21T10:23:28Z</time>
      </trkpt>
      <trkpt lat="44.37435" lon="5.90297">
        <ele>621.6296387</ele>
        <time>2016-02-21T10:24:37Z</time>
      </trkpt>
      <trkpt lat="44.37432" lon="5.90285">
        <ele>621.6296387</ele>
        <time>2016-02-21T10:24:42Z</time>
      </trkpt>
      <trkpt lat="44.37418" lon="5.90266">
        <ele>621.1491699</ele>
        <time>2016-02-21T10:24:47Z</time>
      </trkpt>
      <trkpt lat="44.37405" lon="5.90246">
        <ele>620.668457</ele>
        <time>2016-02-21T10:24:51Z</time>
      </trkpt>
      <trkpt lat="44.37387" lon="5.90222">
        <ele>619.7070313</ele>
        <time>2016-02-21T10:24:55Z</time>
      </trkpt>
      <trkpt lat="44.37357" lon="5.90183">
        <ele>618.7456055</ele>
        <time>2016-02-21T10:25:01Z</time>
      </trkpt>
      <trkpt lat="44.37272" lon="5.90079">
        <ele>616.822998</ele>
        <time>2016-02-21T10:25:15Z</time>
      </trkpt>
      <trkpt lat="44.37237" lon="5.90028">
        <ele>614.9003906</ele>
        <time>2016-02-21T10:25:21Z</time>
      </trkpt>
      <trkpt lat="44.37198" lon="5.89975">
        <ele>612.4970703</ele>
        <time>2016-02-21T10:25:28Z</time>
      </trkpt>
      <trkpt lat="44.37192" lon="5.89966">
        <ele>610.5744629</ele>
        <time>2016-02-21T10:25:30Z</time>
      </trkpt>
      <trkpt lat="44.3719" lon="5.89962">
        <ele>611.0551758</ele>
        <time>2016-02-21T10:25:38Z</time>
      </trkpt>
      <trkpt lat="44.3717" lon="5.8995">
        <ele>610.5744629</ele>
        <time>2016-02-21T10:26:13Z</time>
      </trkpt>
      <trkpt lat="44.37123" lon="5.8995">
        <ele>611.0551758</ele>
        <time>2016-02-21T10:26:26Z</time>
      </trkpt>
      <trkpt lat="44.37096" lon="5.89979">
        <ele>612.9777832</ele>
        <time>2016-02-21T10:26:38Z</time>
      </trkpt>
      <trkpt lat="44.37066" lon="5.90006">
        <ele>614.9003906</ele>
        <time>2016-02-21T10:26:51Z</time>
      </trkpt>
      <trkpt lat="44.37026" lon="5.90009">
        <ele>616.822998</ele>
        <time>2016-02-21T10:27:07Z</time>
      </trkpt>
      <trkpt lat="44.36982" lon="5.89991">
        <ele>615.8618164</ele>
        <time>2016-02-21T10:27:20Z</time>
      </trkpt>
      <trkpt lat="44.36909" lon="5.89947">
        <ele>612.4970703</ele>
        <time>2016-02-21T10:27:32Z</time>
      </trkpt>
      <trkpt lat="44.36902" lon="5.89942">
        <ele>612.4970703</ele>
        <time>2016-02-21T10:27:33Z</time>
      </trkpt>
      <trkpt lat="44.36879" lon="5.89928">
        <ele>612.9777832</ele>
        <time>2016-02-21T10:27:36Z</time>
      </trkpt>
      <trkpt lat="44.36835" lon="5.89886">
        <ele>610.5744629</ele>
        <time>2016-02-21T10:27:42Z</time>
      </trkpt>
      <trkpt lat="44.36822" lon="5.8987">
        <ele>610.5744629</ele>
        <time>2016-02-21T10:27:44Z</time>
      </trkpt>
      <trkpt lat="44.36804" lon="5.89842">
        <ele>610.5744629</ele>
        <time>2016-02-21T10:27:48Z</time>
      </trkpt>
      <trkpt lat="44.36782" lon="5.89778">
        <ele>612.4970703</ele>
        <time>2016-02-21T10:28:01Z</time>
      </trkpt>
      <trkpt lat="44.36762" lon="5.89742">
        <ele>612.4970703</ele>
        <time>2016-02-21T10:28:09Z</time>
      </trkpt>
      <trkpt lat="44.36702" lon="5.89647">
        <ele>611.5358887</ele>
        <time>2016-02-21T10:28:26Z</time>
      </trkpt>
      <trkpt lat="44.36667" lon="5.89593">
        <ele>611.0551758</ele>
        <time>2016-02-21T10:28:35Z</time>
      </trkpt>
      <trkpt lat="44.36631" lon="5.89535">
        <ele>610.09375</ele>
        <time>2016-02-21T10:28:44Z</time>
      </trkpt>
      <trkpt lat="44.36587" lon="5.89468">
        <ele>611.0551758</ele>
        <time>2016-02-21T10:28:59Z</time>
      </trkpt>
      <trkpt lat="44.36576" lon="5.89449">
        <ele>610.5744629</ele>
        <time>2016-02-21T10:29:03Z</time>
      </trkpt>
      <trkpt lat="44.36571" lon="5.89439">
        <ele>611.5358887</ele>
        <time>2016-02-21T10:29:05Z</time>
      </trkpt>
      <trkpt lat="44.36552" lon="5.89334">
        <ele>611.0551758</ele>
        <time>2016-02-21T10:29:21Z</time>
      </trkpt>
      <trkpt lat="44.36536" lon="5.89276">
        <ele>612.0166016</ele>
        <time>2016-02-21T10:29:33Z</time>
      </trkpt>
      <trkpt lat="44.36522" lon="5.89236">
        <ele>614.4196777</ele>
        <time>2016-02-21T10:29:46Z</time>
      </trkpt>
      <trkpt lat="44.36506" lon="5.89192">
        <ele>615.8618164</ele>
        <time>2016-02-21T10:30:00Z</time>
      </trkpt>
      <trkpt lat="44.36487" lon="5.89143">
        <ele>617.3037109</ele>
        <time>2016-02-21T10:30:15Z</time>
      </trkpt>
      <trkpt lat="44.36468" lon="5.89093">
        <ele>618.7456055</ele>
        <time>2016-02-21T10:30:30Z</time>
      </trkpt>
      <trkpt lat="44.36447" lon="5.89035">
        <ele>621.1491699</ele>
        <time>2016-02-21T10:30:49Z</time>
      </trkpt>
      <trkpt lat="44.36422" lon="5.88978">
        <ele>621.6296387</ele>
        <time>2016-02-21T10:31:05Z</time>
      </trkpt>
      <trkpt lat="44.36391" lon="5.88894">
        <ele>622.5910645</ele>
        <time>2016-02-21T10:31:21Z</time>
      </trkpt>
      <trkpt lat="44.36363" lon="5.88824">
        <ele>624.032959</ele>
        <time>2016-02-21T10:31:41Z</time>
      </trkpt>
      <trkpt lat="44.36347" lon="5.88765">
        <ele>625.9555664</ele>
        <time>2016-02-21T10:32:00Z</time>
      </trkpt>
      <trkpt lat="44.36356" lon="5.88703">
        <ele>626.4362793</ele>
        <time>2016-02-21T10:32:16Z</time>
      </trkpt>
      <trkpt lat="44.36367" lon="5.88685">
        <ele>626.4362793</ele>
        <time>2016-02-21T10:32:20Z</time>
      </trkpt>
      <trkpt lat="44.36377" lon="5.88662">
        <ele>626.4362793</ele>
        <time>2016-02-21T10:32:24Z</time>
      </trkpt>
      <trkpt lat="44.36384" lon="5.88634">
        <ele>625.9555664</ele>
        <time>2016-02-21T10:32:29Z</time>
      </trkpt>
      <trkpt lat="44.36386" lon="5.88577">
        <ele>625.9555664</ele>
        <time>2016-02-21T10:32:38Z</time>
      </trkpt>
      <trkpt lat="44.36389" lon="5.88491">
        <ele>626.4362793</ele>
        <time>2016-02-21T10:32:52Z</time>
      </trkpt>
      <trkpt lat="44.36388" lon="5.88471">
        <ele>624.9943848</ele>
        <time>2016-02-21T10:32:54Z</time>
      </trkpt>
      <trkpt lat="44.36381" lon="5.88425">
        <ele>625.4748535</ele>
        <time>2016-02-21T10:32:59Z</time>
      </trkpt>
      <trkpt lat="44.36343" lon="5.88322">
        <ele>624.032959</ele>
        <time>2016-02-21T10:33:12Z</time>
      </trkpt>
      <trkpt lat="44.36331" lon="5.88277">
        <ele>625.9555664</ele>
        <time>2016-02-21T10:33:25Z</time>
      </trkpt>
      <trkpt lat="44.3632" lon="5.88213">
        <ele>627.3977051</ele>
        <time>2016-02-21T10:33:43Z</time>
      </trkpt>
      <trkpt lat="44.36305" lon="5.88153">
        <ele>628.3588867</ele>
        <time>2016-02-21T10:34:00Z</time>
      </trkpt>
      <trkpt lat="44.36293" lon="5.881">
        <ele>628.3588867</ele>
        <time>2016-02-21T10:34:12Z</time>
      </trkpt>
      <trkpt lat="44.36272" lon="5.88033">
        <ele>627.3977051</ele>
        <time>2016-02-21T10:34:27Z</time>
      </trkpt>
      <trkpt lat="44.3626" lon="5.87997">
        <ele>629.3200684</ele>
        <time>2016-02-21T10:34:39Z</time>
      </trkpt>
      <trkpt lat="44.36254" lon="5.8796">
        <ele>631.2429199</ele>
        <time>2016-02-21T10:34:52Z</time>
      </trkpt>
      <trkpt lat="44.3626" lon="5.87904">
        <ele>632.6848145</ele>
        <time>2016-02-21T10:35:09Z</time>
      </trkpt>
      <trkpt lat="44.36255" lon="5.87849">
        <ele>632.6848145</ele>
        <time>2016-02-21T10:35:24Z</time>
      </trkpt>
      <trkpt lat="44.3624" lon="5.87791">
        <ele>633.6459961</ele>
        <time>2016-02-21T10:35:41Z</time>
      </trkpt>
      <trkpt lat="44.3623" lon="5.8773">
        <ele>635.5686035</ele>
        <time>2016-02-21T10:35:59Z</time>
      </trkpt>
      <trkpt lat="44.36233" lon="5.87677">
        <ele>637.0107422</ele>
        <time>2016-02-21T10:36:14Z</time>
      </trkpt>
      <trkpt lat="44.36227" lon="5.87625">
        <ele>639.8947754</ele>
        <time>2016-02-21T10:36:32Z</time>
      </trkpt>
      <trkpt lat="44.36209" lon="5.87567">
        <ele>642.2980957</ele>
        <time>2016-02-21T10:36:52Z</time>
      </trkpt>
      <trkpt lat="44.36204" lon="5.87506">
        <ele>645.1818848</ele>
        <time>2016-02-21T10:37:13Z</time>
      </trkpt>
      <trkpt lat="44.36201" lon="5.87487">
        <ele>645.6625977</ele>
        <time>2016-02-21T10:37:19Z</time>
      </trkpt>
      <trkpt lat="44.36204" lon="5.87468">
        <ele>646.6240234</ele>
        <time>2016-02-21T10:37:25Z</time>
      </trkpt>
      <trkpt lat="44.36203" lon="5.8746">
        <ele>646.6240234</ele>
        <time>2016-02-21T10:37:27Z</time>
      </trkpt>
      <trkpt lat="44.36219" lon="5.874">
        <ele>648.5463867</ele>
        <time>2016-02-21T10:37:46Z</time>
      </trkpt>
      <trkpt lat="44.36212" lon="5.87359">
        <ele>650.949707</ele>
        <time>2016-02-21T10:38:02Z</time>
      </trkpt>
      <trkpt lat="44.3618" lon="5.87319">
        <ele>652.8725586</ele>
        <time>2016-02-21T10:38:21Z</time>
      </trkpt>
      <trkpt lat="44.36172" lon="5.87308">
        <ele>654.3146973</ele>
        <time>2016-02-21T10:38:28Z</time>
      </trkpt>
      <trkpt lat="44.36169" lon="5.87306">
        <ele>654.3146973</ele>
        <time>2016-02-21T10:38:30Z</time>
      </trkpt>
      <trkpt lat="44.36161" lon="5.87297">
        <ele>654.795166</ele>
        <time>2016-02-21T10:38:35Z</time>
      </trkpt>
      <trkpt lat="44.36151" lon="5.87266">
        <ele>656.7177734</ele>
        <time>2016-02-21T10:38:47Z</time>
      </trkpt>
      <trkpt lat="44.36146" lon="5.87232">
        <ele>658.1599121</ele>
        <time>2016-02-21T10:39:00Z</time>
      </trkpt>
      <trkpt lat="44.36139" lon="5.87187">
        <ele>660.5629883</ele>
        <time>2016-02-21T10:39:16Z</time>
      </trkpt>
      <trkpt lat="44.36131" lon="5.87151">
        <ele>662.4855957</ele>
        <time>2016-02-21T10:39:30Z</time>
      </trkpt>
      <trkpt lat="44.36125" lon="5.87124">
        <ele>663.4470215</ele>
        <time>2016-02-21T10:39:42Z</time>
      </trkpt>
      <trkpt lat="44.3612" lon="5.87086">
        <ele>665.3696289</ele>
        <time>2016-02-21T10:39:55Z</time>
      </trkpt>
      <trkpt lat="44.36114" lon="5.87055">
        <ele>666.8115234</ele>
        <time>2016-02-21T10:40:10Z</time>
      </trkpt>
      <trkpt lat="44.36112" lon="5.87045">
        <ele>667.7727051</ele>
        <time>2016-02-21T10:40:14Z</time>
      </trkpt>
      <trkpt lat="44.36099" lon="5.87008">
        <ele>669.6958008</ele>
        <time>2016-02-21T10:40:30Z</time>
      </trkpt>
      <trkpt lat="44.36088" lon="5.86984">
        <ele>670.6569824</ele>
        <time>2016-02-21T10:40:42Z</time>
      </trkpt>
      <trkpt lat="44.36084" lon="5.86974">
        <ele>671.1376953</ele>
        <time>2016-02-21T10:40:46Z</time>
      </trkpt>
      <trkpt lat="44.36067" lon="5.86938">
        <ele>673.0603027</ele>
        <time>2016-02-21T10:41:03Z</time>
      </trkpt>
      <trkpt lat="44.36053" lon="5.8691">
        <ele>674.5021973</ele>
        <time>2016-02-21T10:41:15Z</time>
      </trkpt>
      <trkpt lat="44.36032" lon="5.86867">
        <ele>675.9440918</ele>
        <time>2016-02-21T10:41:33Z</time>
      </trkpt>
      <trkpt lat="44.36012" lon="5.86822">
        <ele>677.3862305</ele>
        <time>2016-02-21T10:41:51Z</time>
      </trkpt>
      <trkpt lat="44.35989" lon="5.8677">
        <ele>678.828125</ele>
        <time>2016-02-21T10:42:11Z</time>
      </trkpt>
      <trkpt lat="44.35961" lon="5.86716">
        <ele>681.2314453</ele>
        <time>2016-02-21T10:42:32Z</time>
      </trkpt>
      <trkpt lat="44.35945" lon="5.86646">
        <ele>681.7119141</ele>
        <time>2016-02-21T10:42:54Z</time>
      </trkpt>
      <trkpt lat="44.35925" lon="5.86566">
        <ele>682.192627</ele>
        <time>2016-02-21T10:43:18Z</time>
      </trkpt>
      <trkpt lat="44.35911" lon="5.8649">
        <ele>682.6733398</ele>
        <time>2016-02-21T10:43:41Z</time>
      </trkpt>
      <trkpt lat="44.35893" lon="5.86407">
        <ele>684.1154785</ele>
        <time>2016-02-21T10:44:04Z</time>
      </trkpt>
      <trkpt lat="44.35868" lon="5.86314">
        <ele>684.1154785</ele>
        <time>2016-02-21T10:44:28Z</time>
      </trkpt>
      <trkpt lat="44.35831" lon="5.86234">
        <ele>683.1538086</ele>
        <time>2016-02-21T10:44:46Z</time>
      </trkpt>
      <trkpt lat="44.35812" lon="5.86164">
        <ele>680.7507324</ele>
        <time>2016-02-21T10:44:59Z</time>
      </trkpt>
      <trkpt lat="44.35789" lon="5.86048">
        <ele>681.7119141</ele>
        <time>2016-02-21T10:45:20Z</time>
      </trkpt>
      <trkpt lat="44.35778" lon="5.86022">
        <ele>681.2314453</ele>
        <time>2016-02-21T10:45:25Z</time>
      </trkpt>
      <trkpt lat="44.35766" lon="5.86">
        <ele>680.2700195</ele>
        <time>2016-02-21T10:45:30Z</time>
      </trkpt>
      <trkpt lat="44.35751" lon="5.85978">
        <ele>679.3085938</ele>
        <time>2016-02-21T10:45:35Z</time>
      </trkpt>
      <trkpt lat="44.35684" lon="5.85866">
        <ele>677.3862305</ele>
        <time>2016-02-21T10:45:54Z</time>
      </trkpt>
      <trkpt lat="44.35654" lon="5.85817">
        <ele>673.0603027</ele>
        <time>2016-02-21T10:46:01Z</time>
      </trkpt>
      <trkpt lat="44.3565" lon="5.8581">
        <ele>673.0603027</ele>
        <time>2016-02-21T10:46:02Z</time>
      </trkpt>
      <trkpt lat="44.35632" lon="5.85783">
        <ele>672.098877</ele>
        <time>2016-02-21T10:46:06Z</time>
      </trkpt>
      <trkpt lat="44.35618" lon="5.85762">
        <ele>674.5021973</ele>
        <time>2016-02-21T10:46:09Z</time>
      </trkpt>
      <trkpt lat="44.35559" lon="5.85695">
        <ele>672.098877</ele>
        <time>2016-02-21T10:46:20Z</time>
      </trkpt>
      <trkpt lat="44.35468" lon="5.85597">
        <ele>669.2150879</ele>
        <time>2016-02-21T10:46:36Z</time>
      </trkpt>
      <trkpt lat="44.35407" lon="5.85531">
        <ele>666.3308105</ele>
        <time>2016-02-21T10:46:47Z</time>
      </trkpt>
      <trkpt lat="44.35384" lon="5.85504">
        <ele>663.4470215</ele>
        <time>2016-02-21T10:46:52Z</time>
      </trkpt>
      <trkpt lat="44.35338" lon="5.85452">
        <ele>662.005127</ele>
        <time>2016-02-21T10:47:06Z</time>
      </trkpt>
      <trkpt lat="44.35325" lon="5.85446">
        <ele>661.5244141</ele>
        <time>2016-02-21T10:47:10Z</time>
      </trkpt>
      <trkpt lat="44.35322" lon="5.85449">
        <ele>662.4855957</ele>
        <time>2016-02-21T10:47:23Z</time>
      </trkpt>
      <trkpt lat="44.35321" lon="5.85451">
        <ele>662.005127</ele>
        <time>2016-02-21T10:52:08Z</time>
      </trkpt>
      <trkpt lat="44.3532" lon="5.85455">
        <ele>661.0437012</ele>
        <time>2016-02-21T10:52:10Z</time>
      </trkpt>
      <trkpt lat="44.35319" lon="5.85509">
        <ele>661.0437012</ele>
        <time>2016-02-21T10:52:26Z</time>
      </trkpt>
      <trkpt lat="44.35321" lon="5.85585">
        <ele>661.0437012</ele>
        <time>2016-02-21T10:52:42Z</time>
      </trkpt>
      <trkpt lat="44.35316" lon="5.85652">
        <ele>661.0437012</ele>
        <time>2016-02-21T10:52:55Z</time>
      </trkpt>
      <trkpt lat="44.35307" lon="5.85708">
        <ele>660.5629883</ele>
        <time>2016-02-21T10:53:06Z</time>
      </trkpt>
      <trkpt lat="44.35291" lon="5.85791">
        <ele>661.5244141</ele>
        <time>2016-02-21T10:53:22Z</time>
      </trkpt>
      <trkpt lat="44.35273" lon="5.85891">
        <ele>662.4855957</ele>
        <time>2016-02-21T10:53:41Z</time>
      </trkpt>
      <trkpt lat="44.35245" lon="5.86044">
        <ele>660.0822754</ele>
        <time>2016-02-21T10:54:08Z</time>
      </trkpt>
      <trkpt lat="44.35225" lon="5.86159">
        <ele>660.0822754</ele>
        <time>2016-02-21T10:54:29Z</time>
      </trkpt>
      <trkpt lat="44.35219" lon="5.86217">
        <ele>660.0822754</ele>
        <time>2016-02-21T10:54:40Z</time>
      </trkpt>
      <trkpt lat="44.35209" lon="5.863">
        <ele>659.1210938</ele>
        <time>2016-02-21T10:54:56Z</time>
      </trkpt>
      <trkpt lat="44.35196" lon="5.86333">
        <ele>659.6018066</ele>
        <time>2016-02-21T10:55:03Z</time>
      </trkpt>
      <trkpt lat="44.3518" lon="5.86364">
        <ele>659.1210938</ele>
        <time>2016-02-21T10:55:10Z</time>
      </trkpt>
      <trkpt lat="44.35151" lon="5.86407">
        <ele>659.6018066</ele>
        <time>2016-02-21T10:55:22Z</time>
      </trkpt>
      <trkpt lat="44.35126" lon="5.86441">
        <ele>659.6018066</ele>
        <time>2016-02-21T10:55:30Z</time>
      </trkpt>
      <trkpt lat="44.35076" lon="5.86514">
        <ele>657.6791992</ele>
        <time>2016-02-21T10:55:41Z</time>
      </trkpt>
      <trkpt lat="44.35008" lon="5.86625">
        <ele>654.795166</ele>
        <time>2016-02-21T10:55:56Z</time>
      </trkpt>
      <trkpt lat="44.34952" lon="5.86698">
        <ele>653.8339844</ele>
        <time>2016-02-21T10:56:11Z</time>
      </trkpt>
      <trkpt lat="44.34928" lon="5.86713">
        <ele>654.3146973</ele>
        <time>2016-02-21T10:56:18Z</time>
      </trkpt>
      <trkpt lat="44.34896" lon="5.86741">
        <ele>653.3532715</ele>
        <time>2016-02-21T10:56:28Z</time>
      </trkpt>
      <trkpt lat="44.34842" lon="5.86832">
        <ele>652.3918457</ele>
        <time>2016-02-21T10:56:47Z</time>
      </trkpt>
      <trkpt lat="44.34798" lon="5.86902">
        <ele>653.3532715</ele>
        <time>2016-02-21T10:57:06Z</time>
      </trkpt>
      <trkpt lat="44.3477" lon="5.86919">
        <ele>653.3532715</ele>
        <time>2016-02-21T10:57:18Z</time>
      </trkpt>
      <trkpt lat="44.34728" lon="5.86927">
        <ele>653.8339844</ele>
        <time>2016-02-21T10:57:35Z</time>
      </trkpt>
      <trkpt lat="44.34673" lon="5.8693">
        <ele>654.795166</ele>
        <time>2016-02-21T10:57:56Z</time>
      </trkpt>
      <trkpt lat="44.34647" lon="5.86897">
        <ele>655.2758789</ele>
        <time>2016-02-21T10:58:11Z</time>
      </trkpt>
      <trkpt lat="44.34625" lon="5.86835">
        <ele>656.2370605</ele>
        <time>2016-02-21T10:58:31Z</time>
      </trkpt>
      <trkpt lat="44.34588" lon="5.86822">
        <ele>656.2370605</ele>
        <time>2016-02-21T10:58:47Z</time>
      </trkpt>
      <trkpt lat="44.34552" lon="5.8681">
        <ele>657.1984863</ele>
        <time>2016-02-21T10:59:01Z</time>
      </trkpt>
      <trkpt lat="44.3452" lon="5.86809">
        <ele>658.6403809</ele>
        <time>2016-02-21T10:59:16Z</time>
      </trkpt>
      <trkpt lat="44.34495" lon="5.8682">
        <ele>661.0437012</ele>
        <time>2016-02-21T10:59:31Z</time>
      </trkpt>
      <trkpt lat="44.3447" lon="5.86834">
        <ele>662.9663086</ele>
        <time>2016-02-21T10:59:46Z</time>
      </trkpt>
      <trkpt lat="44.34445" lon="5.86848">
        <ele>665.8503418</ele>
        <time>2016-02-21T11:00:03Z</time>
      </trkpt>
      <trkpt lat="44.34422" lon="5.86857">
        <ele>668.2536621</ele>
        <time>2016-02-21T11:00:18Z</time>
      </trkpt>
      <trkpt lat="44.34415" lon="5.86856">
        <ele>668.734375</ele>
        <time>2016-02-21T11:00:23Z</time>
      </trkpt>
      <trkpt lat="44.3441" lon="5.86855">
        <ele>669.2150879</ele>
        <time>2016-02-21T11:00:27Z</time>
      </trkpt>
      <trkpt lat="44.344" lon="5.86851">
        <ele>670.1762695</ele>
        <time>2016-02-21T11:00:34Z</time>
      </trkpt>
      <trkpt lat="44.34394" lon="5.86849">
        <ele>670.6569824</ele>
        <time>2016-02-21T11:00:39Z</time>
      </trkpt>
      <trkpt lat="44.34368" lon="5.86837">
        <ele>673.0603027</ele>
        <time>2016-02-21T11:00:56Z</time>
      </trkpt>
      <trkpt lat="44.34358" lon="5.86833">
        <ele>674.0214844</ele>
        <time>2016-02-21T11:01:04Z</time>
      </trkpt>
      <trkpt lat="44.34335" lon="5.86827">
        <ele>676.4248047</ele>
        <time>2016-02-21T11:01:20Z</time>
      </trkpt>
      <trkpt lat="44.34329" lon="5.86828">
        <ele>676.9055176</ele>
        <time>2016-02-21T11:01:24Z</time>
      </trkpt>
      <trkpt lat="44.34315" lon="5.86856">
        <ele>678.3474121</ele>
        <time>2016-02-21T11:01:39Z</time>
      </trkpt>
      <trkpt lat="44.34317" lon="5.86865">
        <ele>678.828125</ele>
        <time>2016-02-21T11:01:43Z</time>
      </trkpt>
      <trkpt lat="44.34343" lon="5.86894">
        <ele>679.7893066</ele>
        <time>2016-02-21T11:02:02Z</time>
      </trkpt>
      <trkpt lat="44.34343" lon="5.86896">
        <ele>679.7893066</ele>
        <time>2016-02-21T11:02:03Z</time>
      </trkpt>
      <trkpt lat="44.34359" lon="5.86911">
        <ele>681.2314453</ele>
        <time>2016-02-21T11:02:17Z</time>
      </trkpt>
      <trkpt lat="44.34367" lon="5.86914">
        <ele>682.192627</ele>
        <time>2016-02-21T11:02:23Z</time>
      </trkpt>
      <trkpt lat="44.34386" lon="5.86918">
        <ele>683.6345215</ele>
        <time>2016-02-21T11:02:37Z</time>
      </trkpt>
      <trkpt lat="44.34406" lon="5.86922">
        <ele>686.0380859</ele>
        <time>2016-02-21T11:02:50Z</time>
      </trkpt>
      <trkpt lat="44.34423" lon="5.86927">
        <ele>686.9992676</ele>
        <time>2016-02-21T11:03:00Z</time>
      </trkpt>
      <trkpt lat="44.34436" lon="5.86951">
        <ele>688.4414063</ele>
        <time>2016-02-21T11:03:13Z</time>
      </trkpt>
      <trkpt lat="44.34443" lon="5.86969">
        <ele>689.4025879</ele>
        <time>2016-02-21T11:03:22Z</time>
      </trkpt>
      <trkpt lat="44.34445" lon="5.86979">
        <ele>690.8444824</ele>
        <time>2016-02-21T11:03:27Z</time>
      </trkpt>
      <trkpt lat="44.34455" lon="5.86997">
        <ele>691.3251953</ele>
        <time>2016-02-21T11:03:36Z</time>
      </trkpt>
      <trkpt lat="44.34461" lon="5.87046">
        <ele>691.8059082</ele>
        <time>2016-02-21T11:03:53Z</time>
      </trkpt>
      <trkpt lat="44.34448" lon="5.87111">
        <ele>691.3251953</ele>
        <time>2016-02-21T11:04:07Z</time>
      </trkpt>
      <trkpt lat="44.34439" lon="5.87193">
        <ele>691.3251953</ele>
        <time>2016-02-21T11:04:23Z</time>
      </trkpt>
      <trkpt lat="44.34424" lon="5.87241">
        <ele>691.8059082</ele>
        <time>2016-02-21T11:04:35Z</time>
      </trkpt>
      <trkpt lat="44.34415" lon="5.87249">
        <ele>691.3251953</ele>
        <time>2016-02-21T11:04:37Z</time>
      </trkpt>
      <trkpt lat="44.34329" lon="5.87277">
        <ele>687.9606934</ele>
        <time>2016-02-21T11:04:51Z</time>
      </trkpt>
      <trkpt lat="44.34264" lon="5.87304">
        <ele>684.5961914</ele>
        <time>2016-02-21T11:05:00Z</time>
      </trkpt>
      <trkpt lat="44.34185" lon="5.87347">
        <ele>683.6345215</ele>
        <time>2016-02-21T11:05:14Z</time>
      </trkpt>
      <trkpt lat="44.34156" lon="5.87345">
        <ele>680.2700195</ele>
        <time>2016-02-21T11:05:23Z</time>
      </trkpt>
      <trkpt lat="44.34148" lon="5.87339">
        <ele>679.3085938</ele>
        <time>2016-02-21T11:05:38Z</time>
      </trkpt>
      <trkpt lat="44.34135" lon="5.87332">
        <ele>678.3474121</ele>
        <time>2016-02-21T11:05:42Z</time>
      </trkpt>
      <trkpt lat="44.34095" lon="5.87313">
        <ele>676.9055176</ele>
        <time>2016-02-21T11:05:50Z</time>
      </trkpt>
      <trkpt lat="44.34066" lon="5.87302">
        <ele>677.3862305</ele>
        <time>2016-02-21T11:05:55Z</time>
      </trkpt>
      <trkpt lat="44.33993" lon="5.87307">
        <ele>674.5021973</ele>
        <time>2016-02-21T11:06:05Z</time>
      </trkpt>
      <trkpt lat="44.33963" lon="5.87303">
        <ele>673.5410156</ele>
        <time>2016-02-21T11:06:09Z</time>
      </trkpt>
      <trkpt lat="44.33882" lon="5.87265">
        <ele>670.6569824</ele>
        <time>2016-02-21T11:06:20Z</time>
      </trkpt>
      <trkpt lat="44.33807" lon="5.87239">
        <ele>666.3308105</ele>
        <time>2016-02-21T11:06:30Z</time>
      </trkpt>
      <trkpt lat="44.33802" lon="5.87237">
        <ele>666.3308105</ele>
        <time>2016-02-21T11:06:31Z</time>
      </trkpt>
      <trkpt lat="44.33789" lon="5.87238">
        <ele>665.3696289</ele>
        <time>2016-02-21T11:06:33Z</time>
      </trkpt>
      <trkpt lat="44.33769" lon="5.87245">
        <ele>662.9663086</ele>
        <time>2016-02-21T11:06:36Z</time>
      </trkpt>
      <trkpt lat="44.33703" lon="5.87263">
        <ele>661.5244141</ele>
        <time>2016-02-21T11:06:45Z</time>
      </trkpt>
      <trkpt lat="44.33695" lon="5.87264">
        <ele>662.005127</ele>
        <time>2016-02-21T11:06:46Z</time>
      </trkpt>
      <trkpt lat="44.33679" lon="5.87275">
        <ele>661.0437012</ele>
        <time>2016-02-21T11:06:53Z</time>
      </trkpt>
      <trkpt lat="44.33679" lon="5.87274">
        <ele>660.5629883</ele>
        <time>2016-02-21T11:07:08Z</time>
      </trkpt>
      <trkpt lat="44.33679" lon="5.87274">
        <ele>662.4855957</ele>
        <time>2016-02-21T11:07:11Z</time>
      </trkpt>
      <trkpt lat="44.33679" lon="5.87274">
        <ele>659.1210938</ele>
        <time>2016-02-21T11:07:40Z</time>
      </trkpt>
      <trkpt lat="44.33679" lon="5.87274">
        <ele>659.1210938</ele>
        <time>2016-02-21T11:07:41Z</time>
      </trkpt>
      <trkpt lat="44.33678" lon="5.87274">
        <ele>660.0822754</ele>
        <time>2016-02-21T11:07:42Z</time>
      </trkpt>
      <trkpt lat="44.3367" lon="5.87307">
        <ele>661.0437012</ele>
        <time>2016-02-21T11:07:52Z</time>
      </trkpt>
      <trkpt lat="44.33657" lon="5.87326">
        <ele>664.4082031</ele>
        <time>2016-02-21T11:08:01Z</time>
      </trkpt>
      <trkpt lat="44.33654" lon="5.8733">
        <ele>663.9274902</ele>
        <time>2016-02-21T11:08:03Z</time>
      </trkpt>
      <trkpt lat="44.33626" lon="5.87357">
        <ele>666.3308105</ele>
        <time>2016-02-21T11:08:21Z</time>
      </trkpt>
      <trkpt lat="44.33621" lon="5.87364">
        <ele>667.7727051</ele>
        <time>2016-02-21T11:08:25Z</time>
      </trkpt>
      <trkpt lat="44.33618" lon="5.87382">
        <ele>669.6958008</ele>
        <time>2016-02-21T11:08:32Z</time>
      </trkpt>
      <trkpt lat="44.33616" lon="5.87389">
        <ele>668.734375</ele>
        <time>2016-02-21T11:08:35Z</time>
      </trkpt>
      <trkpt lat="44.33616" lon="5.87402">
        <ele>670.1762695</ele>
        <time>2016-02-21T11:08:39Z</time>
      </trkpt>
      <trkpt lat="44.33619" lon="5.87438">
        <ele>670.6569824</ele>
        <time>2016-02-21T11:08:53Z</time>
      </trkpt>
      <trkpt lat="44.3362" lon="5.87443">
        <ele>671.6181641</ele>
        <time>2016-02-21T11:08:55Z</time>
      </trkpt>
      <trkpt lat="44.33617" lon="5.87481">
        <ele>672.098877</ele>
        <time>2016-02-21T11:09:09Z</time>
      </trkpt>
      <trkpt lat="44.33609" lon="5.8753">
        <ele>674.0214844</ele>
        <time>2016-02-21T11:09:25Z</time>
      </trkpt>
      <trkpt lat="44.33598" lon="5.87572">
        <ele>673.5410156</ele>
        <time>2016-02-21T11:09:41Z</time>
      </trkpt>
      <trkpt lat="44.33599" lon="5.87577">
        <ele>673.5410156</ele>
        <time>2016-02-21T11:09:58Z</time>
      </trkpt>
      <trkpt lat="44.33601" lon="5.87628">
        <ele>673.0603027</ele>
        <time>2016-02-21T11:10:11Z</time>
      </trkpt>
      <trkpt lat="44.336" lon="5.8769">
        <ele>673.5410156</ele>
        <time>2016-02-21T11:10:27Z</time>
      </trkpt>
      <trkpt lat="44.33595" lon="5.87724">
        <ele>673.0603027</ele>
        <time>2016-02-21T11:10:34Z</time>
      </trkpt>
      <trkpt lat="44.33574" lon="5.87795">
        <ele>669.6958008</ele>
        <time>2016-02-21T11:10:45Z</time>
      </trkpt>
      <trkpt lat="44.33557" lon="5.87845">
        <ele>668.734375</ele>
        <time>2016-02-21T11:10:51Z</time>
      </trkpt>
      <trkpt lat="44.3354" lon="5.87874">
        <ele>669.2150879</ele>
        <time>2016-02-21T11:10:56Z</time>
      </trkpt>
      <trkpt lat="44.33507" lon="5.87895">
        <ele>670.1762695</ele>
        <time>2016-02-21T11:11:05Z</time>
      </trkpt>
      <trkpt lat="44.33476" lon="5.87924">
        <ele>669.2150879</ele>
        <time>2016-02-21T11:11:12Z</time>
      </trkpt>
      <trkpt lat="44.33457" lon="5.87951">
        <ele>668.2536621</ele>
        <time>2016-02-21T11:11:17Z</time>
      </trkpt>
      <trkpt lat="44.33436" lon="5.88021">
        <ele>668.734375</ele>
        <time>2016-02-21T11:11:29Z</time>
      </trkpt>
      <trkpt lat="44.33436" lon="5.8805">
        <ele>667.2922363</ele>
        <time>2016-02-21T11:11:34Z</time>
      </trkpt>
      <trkpt lat="44.33424" lon="5.88085">
        <ele>667.7727051</ele>
        <time>2016-02-21T11:11:40Z</time>
      </trkpt>
      <trkpt lat="44.33374" lon="5.88169">
        <ele>668.2536621</ele>
        <time>2016-02-21T11:11:57Z</time>
      </trkpt>
      <trkpt lat="44.33358" lon="5.88212">
        <ele>669.6958008</ele>
        <time>2016-02-21T11:12:09Z</time>
      </trkpt>
      <trkpt lat="44.33338" lon="5.88245">
        <ele>671.1376953</ele>
        <time>2016-02-21T11:12:20Z</time>
      </trkpt>
      <trkpt lat="44.33329" lon="5.88248">
        <ele>671.1376953</ele>
        <time>2016-02-21T11:12:23Z</time>
      </trkpt>
      <trkpt lat="44.33293" lon="5.88257">
        <ele>670.1762695</ele>
        <time>2016-02-21T11:12:32Z</time>
      </trkpt>
      <trkpt lat="44.33255" lon="5.88252">
        <ele>669.6958008</ele>
        <time>2016-02-21T11:12:40Z</time>
      </trkpt>
      <trkpt lat="44.33183" lon="5.88277">
        <ele>666.8115234</ele>
        <time>2016-02-21T11:12:55Z</time>
      </trkpt>
      <trkpt lat="44.33166" lon="5.88284">
        <ele>666.3308105</ele>
        <time>2016-02-21T11:12:58Z</time>
      </trkpt>
      <trkpt lat="44.33131" lon="5.88306">
        <ele>666.3308105</ele>
        <time>2016-02-21T11:13:05Z</time>
      </trkpt>
      <trkpt lat="44.331" lon="5.88328">
        <ele>665.3696289</ele>
        <time>2016-02-21T11:13:10Z</time>
      </trkpt>
      <trkpt lat="44.33018" lon="5.88348">
        <ele>663.9274902</ele>
        <time>2016-02-21T11:13:24Z</time>
      </trkpt>
      <trkpt lat="44.32937" lon="5.88329">
        <ele>662.9663086</ele>
        <time>2016-02-21T11:13:38Z</time>
      </trkpt>
      <trkpt lat="44.32866" lon="5.88304">
        <ele>661.0437012</ele>
        <time>2016-02-21T11:13:51Z</time>
      </trkpt>
      <trkpt lat="44.32847" lon="5.883">
        <ele>660.0822754</ele>
        <time>2016-02-21T11:13:55Z</time>
      </trkpt>
      <trkpt lat="44.3282" lon="5.88289">
        <ele>661.0437012</ele>
        <time>2016-02-21T11:14:00Z</time>
      </trkpt>
      <trkpt lat="44.32785" lon="5.88268">
        <ele>661.5244141</ele>
        <time>2016-02-21T11:14:08Z</time>
      </trkpt>
      <trkpt lat="44.32772" lon="5.88259">
        <ele>661.5244141</ele>
        <time>2016-02-21T11:14:11Z</time>
      </trkpt>
      <trkpt lat="44.32714" lon="5.88204">
        <ele>657.6791992</ele>
        <time>2016-02-21T11:14:23Z</time>
      </trkpt>
      <trkpt lat="44.32708" lon="5.88199">
        <ele>657.6791992</ele>
        <time>2016-02-21T11:14:24Z</time>
      </trkpt>
      <trkpt lat="44.32659" lon="5.88167">
        <ele>655.7565918</ele>
        <time>2016-02-21T11:14:31Z</time>
      </trkpt>
      <trkpt lat="44.32559" lon="5.88144">
        <ele>653.8339844</ele>
        <time>2016-02-21T11:14:44Z</time>
      </trkpt>
      <trkpt lat="44.32475" lon="5.8817">
        <ele>653.3532715</ele>
        <time>2016-02-21T11:14:59Z</time>
      </trkpt>
      <trkpt lat="44.32471" lon="5.88171">
        <ele>651.9111328</ele>
        <time>2016-02-21T11:15:00Z</time>
      </trkpt>
      <trkpt lat="44.3245" lon="5.88178">
        <ele>651.9111328</ele>
        <time>2016-02-21T11:15:05Z</time>
      </trkpt>
      <trkpt lat="44.32409" lon="5.8819">
        <ele>653.8339844</ele>
        <time>2016-02-21T11:15:18Z</time>
      </trkpt>
      <trkpt lat="44.32398" lon="5.88194">
        <ele>654.795166</ele>
        <time>2016-02-21T11:15:23Z</time>
      </trkpt>
      <trkpt lat="44.32385" lon="5.88229">
        <ele>656.2370605</ele>
        <time>2016-02-21T11:15:36Z</time>
      </trkpt>
      <trkpt lat="44.32385" lon="5.8823">
        <ele>655.2758789</ele>
        <time>2016-02-21T11:15:52Z</time>
      </trkpt>
      <trkpt lat="44.32384" lon="5.88228">
        <ele>655.7565918</ele>
        <time>2016-02-21T11:16:17Z</time>
      </trkpt>
      <trkpt lat="44.3238" lon="5.88221">
        <ele>656.2370605</ele>
        <time>2016-02-21T11:16:23Z</time>
      </trkpt>
      <trkpt lat="44.32353" lon="5.88244">
        <ele>658.1599121</ele>
        <time>2016-02-21T11:16:39Z</time>
      </trkpt>
      <trkpt lat="44.32331" lon="5.88254">
        <ele>660.5629883</ele>
        <time>2016-02-21T11:16:51Z</time>
      </trkpt>
      <trkpt lat="44.32322" lon="5.88246">
        <ele>661.0437012</ele>
        <time>2016-02-21T11:16:57Z</time>
      </trkpt>
      <trkpt lat="44.32316" lon="5.88191">
        <ele>663.4470215</ele>
        <time>2016-02-21T11:17:16Z</time>
      </trkpt>
      <trkpt lat="44.32314" lon="5.88165">
        <ele>665.8503418</ele>
        <time>2016-02-21T11:17:27Z</time>
      </trkpt>
      <trkpt lat="44.32313" lon="5.88149">
        <ele>665.8503418</ele>
        <time>2016-02-21T11:17:34Z</time>
      </trkpt>
      <trkpt lat="44.32312" lon="5.88143">
        <ele>664.4082031</ele>
        <time>2016-02-21T11:17:37Z</time>
      </trkpt>
      <trkpt lat="44.32307" lon="5.88119">
        <ele>665.8503418</ele>
        <time>2016-02-21T11:17:48Z</time>
      </trkpt>
      <trkpt lat="44.32306" lon="5.88117">
        <ele>665.8503418</ele>
        <time>2016-02-21T11:17:49Z</time>
      </trkpt>
      <trkpt lat="44.323" lon="5.88111">
        <ele>667.7727051</ele>
        <time>2016-02-21T11:17:53Z</time>
      </trkpt>
      <trkpt lat="44.32295" lon="5.88114">
        <ele>668.2536621</ele>
        <time>2016-02-21T11:17:58Z</time>
      </trkpt>
      <trkpt lat="44.32285" lon="5.88131">
        <ele>669.6958008</ele>
        <time>2016-02-21T11:18:07Z</time>
      </trkpt>
      <trkpt lat="44.32267" lon="5.88167">
        <ele>670.6569824</ele>
        <time>2016-02-21T11:18:24Z</time>
      </trkpt>
      <trkpt lat="44.32242" lon="5.88198">
        <ele>672.098877</ele>
        <time>2016-02-21T11:18:42Z</time>
      </trkpt>
      <trkpt lat="44.32232" lon="5.88178">
        <ele>673.5410156</ele>
        <time>2016-02-21T11:18:54Z</time>
      </trkpt>
      <trkpt lat="44.3223" lon="5.88127">
        <ele>675.4633789</ele>
        <time>2016-02-21T11:19:14Z</time>
      </trkpt>
      <trkpt lat="44.32221" lon="5.8809">
        <ele>677.3862305</ele>
        <time>2016-02-21T11:19:30Z</time>
      </trkpt>
      <trkpt lat="44.32213" lon="5.88058">
        <ele>678.828125</ele>
        <time>2016-02-21T11:19:45Z</time>
      </trkpt>
      <trkpt lat="44.32212" lon="5.88056">
        <ele>678.828125</ele>
        <time>2016-02-21T11:19:46Z</time>
      </trkpt>
      <trkpt lat="44.32213" lon="5.88049">
        <ele>679.3085938</ele>
        <time>2016-02-21T11:19:50Z</time>
      </trkpt>
      <trkpt lat="44.32211" lon="5.8804">
        <ele>680.2700195</ele>
        <time>2016-02-21T11:19:54Z</time>
      </trkpt>
      <trkpt lat="44.32196" lon="5.87993">
        <ele>682.192627</ele>
        <time>2016-02-21T11:20:15Z</time>
      </trkpt>
      <trkpt lat="44.32184" lon="5.87955">
        <ele>685.0769043</ele>
        <time>2016-02-21T11:20:33Z</time>
      </trkpt>
      <trkpt lat="44.32183" lon="5.87954">
        <ele>685.0769043</ele>
        <time>2016-02-21T11:20:34Z</time>
      </trkpt>
      <trkpt lat="44.32177" lon="5.87943">
        <ele>686.0380859</ele>
        <time>2016-02-21T11:20:41Z</time>
      </trkpt>
      <trkpt lat="44.32164" lon="5.87925">
        <ele>688.4414063</ele>
        <time>2016-02-21T11:20:54Z</time>
      </trkpt>
      <trkpt lat="44.32165" lon="5.87913">
        <ele>689.8833008</ele>
        <time>2016-02-21T11:21:01Z</time>
      </trkpt>
      <trkpt lat="44.32183" lon="5.87921">
        <ele>691.3251953</ele>
        <time>2016-02-21T11:21:13Z</time>
      </trkpt>
      <trkpt lat="44.32206" lon="5.87921">
        <ele>692.2866211</ele>
        <time>2016-02-21T11:21:27Z</time>
      </trkpt>
      <trkpt lat="44.32214" lon="5.87892">
        <ele>694.2092285</ele>
        <time>2016-02-21T11:21:41Z</time>
      </trkpt>
      <trkpt lat="44.32212" lon="5.87877">
        <ele>695.651123</ele>
        <time>2016-02-21T11:21:48Z</time>
      </trkpt>
      <trkpt lat="44.32205" lon="5.87866">
        <ele>696.6125488</ele>
        <time>2016-02-21T11:21:54Z</time>
      </trkpt>
      <trkpt lat="44.32201" lon="5.87852">
        <ele>697.0930176</ele>
        <time>2016-02-21T11:22:01Z</time>
      </trkpt>
      <trkpt lat="44.32188" lon="5.87826">
        <ele>698.5349121</ele>
        <time>2016-02-21T11:22:16Z</time>
      </trkpt>
      <trkpt lat="44.32171" lon="5.87797">
        <ele>700.9384766</ele>
        <time>2016-02-21T11:22:34Z</time>
      </trkpt>
      <trkpt lat="44.32157" lon="5.87776">
        <ele>701.8999023</ele>
        <time>2016-02-21T11:22:47Z</time>
      </trkpt>
      <trkpt lat="44.32148" lon="5.87762">
        <ele>702.861084</ele>
        <time>2016-02-21T11:22:55Z</time>
      </trkpt>
      <trkpt lat="44.32146" lon="5.87752">
        <ele>703.8225098</ele>
        <time>2016-02-21T11:23:01Z</time>
      </trkpt>
      <trkpt lat="44.32144" lon="5.87743">
        <ele>704.3032227</ele>
        <time>2016-02-21T11:23:06Z</time>
      </trkpt>
      <trkpt lat="44.32134" lon="5.87731">
        <ele>705.7451172</ele>
        <time>2016-02-21T11:23:17Z</time>
      </trkpt>
      <trkpt lat="44.32126" lon="5.87753">
        <ele>707.1870117</ele>
        <time>2016-02-21T11:23:29Z</time>
      </trkpt>
      <trkpt lat="44.32126" lon="5.87759">
        <ele>707.6677246</ele>
        <time>2016-02-21T11:23:32Z</time>
      </trkpt>
      <trkpt lat="44.32122" lon="5.87765">
        <ele>708.1484375</ele>
        <time>2016-02-21T11:23:35Z</time>
      </trkpt>
      <trkpt lat="44.3212" lon="5.87773">
        <ele>708.1484375</ele>
        <time>2016-02-21T11:23:39Z</time>
      </trkpt>
      <trkpt lat="44.32117" lon="5.87781">
        <ele>709.1096191</ele>
        <time>2016-02-21T11:23:44Z</time>
      </trkpt>
      <trkpt lat="44.32095" lon="5.87812">
        <ele>710.0708008</ele>
        <time>2016-02-21T11:23:59Z</time>
      </trkpt>
      <trkpt lat="44.3207" lon="5.87834">
        <ele>711.5129395</ele>
        <time>2016-02-21T11:24:17Z</time>
      </trkpt>
      <trkpt lat="44.32054" lon="5.87837">
        <ele>712.954834</ele>
        <time>2016-02-21T11:24:29Z</time>
      </trkpt>
      <trkpt lat="44.32041" lon="5.87822">
        <ele>714.8774414</ele>
        <time>2016-02-21T11:24:43Z</time>
      </trkpt>
      <trkpt lat="44.32033" lon="5.87815">
        <ele>715.3581543</ele>
        <time>2016-02-21T11:24:49Z</time>
      </trkpt>
      <trkpt lat="44.32023" lon="5.878">
        <ele>716.800293</ele>
        <time>2016-02-21T11:24:58Z</time>
      </trkpt>
      <trkpt lat="44.32022" lon="5.87796">
        <ele>716.800293</ele>
        <time>2016-02-21T11:25:00Z</time>
      </trkpt>
      <trkpt lat="44.32003" lon="5.87781">
        <ele>717.2810059</ele>
        <time>2016-02-21T11:25:14Z</time>
      </trkpt>
      <trkpt lat="44.3199" lon="5.87756">
        <ele>719.2036133</ele>
        <time>2016-02-21T11:25:28Z</time>
      </trkpt>
      <trkpt lat="44.31979" lon="5.8772">
        <ele>721.1262207</ele>
        <time>2016-02-21T11:25:46Z</time>
      </trkpt>
      <trkpt lat="44.31975" lon="5.87701">
        <ele>721.1262207</ele>
        <time>2016-02-21T11:25:55Z</time>
      </trkpt>
      <trkpt lat="44.31974" lon="5.87692">
        <ele>721.6066895</ele>
        <time>2016-02-21T11:25:59Z</time>
      </trkpt>
      <trkpt lat="44.31971" lon="5.87669">
        <ele>723.0488281</ele>
        <time>2016-02-21T11:26:10Z</time>
      </trkpt>
      <trkpt lat="44.31969" lon="5.87664">
        <ele>723.529541</ele>
        <time>2016-02-21T11:26:12Z</time>
      </trkpt>
      <trkpt lat="44.31968" lon="5.8765">
        <ele>724.4907227</ele>
        <time>2016-02-21T11:26:18Z</time>
      </trkpt>
      <trkpt lat="44.3196" lon="5.87626">
        <ele>725.9326172</ele>
        <time>2016-02-21T11:26:31Z</time>
      </trkpt>
      <trkpt lat="44.3196" lon="5.8761">
        <ele>727.3747559</ele>
        <time>2016-02-21T11:26:39Z</time>
      </trkpt>
      <trkpt lat="44.31962" lon="5.87599">
        <ele>727.8552246</ele>
        <time>2016-02-21T11:26:44Z</time>
      </trkpt>
      <trkpt lat="44.31962" lon="5.87595">
        <ele>728.3359375</ele>
        <time>2016-02-21T11:26:46Z</time>
      </trkpt>
      <trkpt lat="44.31957" lon="5.87578">
        <ele>729.2971191</ele>
        <time>2016-02-21T11:26:55Z</time>
      </trkpt>
      <trkpt lat="44.31955" lon="5.87571">
        <ele>729.777832</ele>
        <time>2016-02-21T11:26:59Z</time>
      </trkpt>
      <trkpt lat="44.31953" lon="5.87562">
        <ele>729.777832</ele>
        <time>2016-02-21T11:27:03Z</time>
      </trkpt>
      <trkpt lat="44.31953" lon="5.87547">
        <ele>731.2199707</ele>
        <time>2016-02-21T11:27:10Z</time>
      </trkpt>
      <trkpt lat="44.31957" lon="5.87541">
        <ele>732.1813965</ele>
        <time>2016-02-21T11:27:15Z</time>
      </trkpt>
      <trkpt lat="44.31962" lon="5.87525">
        <ele>733.623291</ele>
        <time>2016-02-21T11:27:23Z</time>
      </trkpt>
      <trkpt lat="44.31963" lon="5.87521">
        <ele>733.623291</ele>
        <time>2016-02-21T11:27:25Z</time>
      </trkpt>
      <trkpt lat="44.31967" lon="5.87511">
        <ele>734.5847168</ele>
        <time>2016-02-21T11:27:32Z</time>
      </trkpt>
      <trkpt lat="44.31966" lon="5.87504">
        <ele>735.5458984</ele>
        <time>2016-02-21T11:27:35Z</time>
      </trkpt>
      <trkpt lat="44.3196" lon="5.87499">
        <ele>736.0266113</ele>
        <time>2016-02-21T11:27:39Z</time>
      </trkpt>
      <trkpt lat="44.31956" lon="5.87497">
        <ele>736.987793</ele>
        <time>2016-02-21T11:27:42Z</time>
      </trkpt>
      <trkpt lat="44.31951" lon="5.87503">
        <ele>737.4685059</ele>
        <time>2016-02-21T11:27:46Z</time>
      </trkpt>
      <trkpt lat="44.31948" lon="5.87505">
        <ele>736.987793</ele>
        <time>2016-02-21T11:28:00Z</time>
      </trkpt>
      <trkpt lat="44.31946" lon="5.87498">
        <ele>736.5073242</ele>
        <time>2016-02-21T11:28:37Z</time>
      </trkpt>
      <trkpt lat="44.31966" lon="5.87475">
        <ele>737.4685059</ele>
        <time>2016-02-21T11:28:51Z</time>
      </trkpt>
      <trkpt lat="44.31982" lon="5.87453">
        <ele>738.9106445</ele>
        <time>2016-02-21T11:29:03Z</time>
      </trkpt>
      <trkpt lat="44.31972" lon="5.8745">
        <ele>740.3525391</ele>
        <time>2016-02-21T11:29:09Z</time>
      </trkpt>
      <trkpt lat="44.31955" lon="5.87464">
        <ele>742.7558594</ele>
        <time>2016-02-21T11:29:22Z</time>
      </trkpt>
      <trkpt lat="44.31952" lon="5.87467">
        <ele>743.2363281</ele>
        <time>2016-02-21T11:29:25Z</time>
      </trkpt>
      <trkpt lat="44.31948" lon="5.87468">
        <ele>743.717041</ele>
        <time>2016-02-21T11:29:28Z</time>
      </trkpt>
      <trkpt lat="44.31943" lon="5.87472">
        <ele>744.1977539</ele>
        <time>2016-02-21T11:29:32Z</time>
      </trkpt>
      <trkpt lat="44.31923" lon="5.87481">
        <ele>745.6396484</ele>
        <time>2016-02-21T11:29:45Z</time>
      </trkpt>
      <trkpt lat="44.31886" lon="5.87492">
        <ele>745.6396484</ele>
        <time>2016-02-21T11:29:58Z</time>
      </trkpt>
      <trkpt lat="44.31868" lon="5.87495">
        <ele>746.6010742</ele>
        <time>2016-02-21T11:30:07Z</time>
      </trkpt>
      <trkpt lat="44.31849" lon="5.87474">
        <ele>747.5622559</ele>
        <time>2016-02-21T11:30:22Z</time>
      </trkpt>
      <trkpt lat="44.31833" lon="5.87461">
        <ele>746.6010742</ele>
        <time>2016-02-21T11:30:37Z</time>
      </trkpt>
      <trkpt lat="44.31822" lon="5.87451">
        <ele>746.1203613</ele>
        <time>2016-02-21T11:30:42Z</time>
      </trkpt>
      <trkpt lat="44.31821" lon="5.87421">
        <ele>743.2363281</ele>
        <time>2016-02-21T11:30:51Z</time>
      </trkpt>
      <trkpt lat="44.3183" lon="5.87411">
        <ele>741.7944336</ele>
        <time>2016-02-21T11:30:56Z</time>
      </trkpt>
      <trkpt lat="44.31836" lon="5.87402">
        <ele>741.3137207</ele>
        <time>2016-02-21T11:31:00Z</time>
      </trkpt>
      <trkpt lat="44.31858" lon="5.87396">
        <ele>744.1977539</ele>
        <time>2016-02-21T11:31:12Z</time>
      </trkpt>
      <trkpt lat="44.31868" lon="5.87392">
        <ele>745.6396484</ele>
        <time>2016-02-21T11:31:19Z</time>
      </trkpt>
      <trkpt lat="44.31886" lon="5.8739">
        <ele>748.5236816</ele>
        <time>2016-02-21T11:31:33Z</time>
      </trkpt>
      <trkpt lat="44.31896" lon="5.87387">
        <ele>749.4851074</ele>
        <time>2016-02-21T11:31:38Z</time>
      </trkpt>
      <trkpt lat="44.31897" lon="5.87398">
        <ele>750.4465332</ele>
        <time>2016-02-21T11:31:44Z</time>
      </trkpt>
      <trkpt lat="44.31877" lon="5.87415">
        <ele>752.3688965</ele>
        <time>2016-02-21T11:31:58Z</time>
      </trkpt>
      <trkpt lat="44.31874" lon="5.87417">
        <ele>753.3303223</ele>
        <time>2016-02-21T11:32:01Z</time>
      </trkpt>
      <trkpt lat="44.31864" lon="5.87423">
        <ele>754.291748</ele>
        <time>2016-02-21T11:32:09Z</time>
      </trkpt>
      <trkpt lat="44.31858" lon="5.87439">
        <ele>755.7336426</ele>
        <time>2016-02-21T11:32:19Z</time>
      </trkpt>
      <trkpt lat="44.31874" lon="5.8745">
        <ele>757.1755371</ele>
        <time>2016-02-21T11:32:31Z</time>
      </trkpt>
      <trkpt lat="44.31892" lon="5.87441">
        <ele>758.6174316</ele>
        <time>2016-02-21T11:32:42Z</time>
      </trkpt>
      <trkpt lat="44.31902" lon="5.87435">
        <ele>759.0981445</ele>
        <time>2016-02-21T11:32:49Z</time>
      </trkpt>
      <trkpt lat="44.31915" lon="5.87427">
        <ele>759.5788574</ele>
        <time>2016-02-21T11:32:58Z</time>
      </trkpt>
      <trkpt lat="44.31933" lon="5.87426">
        <ele>760.5400391</ele>
        <time>2016-02-21T11:33:13Z</time>
      </trkpt>
      <trkpt lat="44.31934" lon="5.87422">
        <ele>760.5400391</ele>
        <time>2016-02-21T11:33:28Z</time>
      </trkpt>
      <trkpt lat="44.31934" lon="5.8742">
        <ele>761.9821777</ele>
        <time>2016-02-21T11:33:58Z</time>
      </trkpt>
      <trkpt lat="44.31936" lon="5.87421">
        <ele>763.4240723</ele>
        <time>2016-02-21T11:34:21Z</time>
      </trkpt>
      <trkpt lat="44.31935" lon="5.87424">
        <ele>763.904541</ele>
        <time>2016-02-21T11:35:11Z</time>
      </trkpt>
      <trkpt lat="44.31937" lon="5.87424">
        <ele>763.904541</ele>
        <time>2016-02-21T11:36:14Z</time>
      </trkpt>
      <trkpt lat="44.31936" lon="5.87417">
        <ele>763.904541</ele>
        <time>2016-02-21T11:37:20Z</time>
      </trkpt>
      <trkpt lat="44.31939" lon="5.87419">
        <ele>762.4626465</ele>
        <time>2016-02-21T11:38:11Z</time>
      </trkpt>
      <trkpt lat="44.31939" lon="5.87417">
        <ele>763.904541</ele>
        <time>2016-02-21T11:38:54Z</time>
      </trkpt>
      <trkpt lat="44.31941" lon="5.87418">
        <ele>763.904541</ele>
        <time>2016-02-21T11:39:21Z</time>
      </trkpt>
      <trkpt lat="44.31939" lon="5.87419">
        <ele>761.5014648</ele>
        <time>2016-02-21T11:39:38Z</time>
      </trkpt>
      <trkpt lat="44.31931" lon="5.87427">
        <ele>761.5014648</ele>
        <time>2016-02-21T11:40:17Z</time>
      </trkpt>
      <trkpt lat="44.3193" lon="5.87428">
        <ele>761.020752</ele>
        <time>2016-02-21T11:40:59Z</time>
      </trkpt>
      <trkpt lat="44.31899" lon="5.87436">
        <ele>760.5400391</ele>
        <time>2016-02-21T11:41:12Z</time>
      </trkpt>
      <trkpt lat="44.31881" lon="5.87447">
        <ele>759.5788574</ele>
        <time>2016-02-21T11:41:20Z</time>
      </trkpt>
      <trkpt lat="44.31874" lon="5.8745">
        <ele>758.6174316</ele>
        <time>2016-02-21T11:41:24Z</time>
      </trkpt>
      <trkpt lat="44.3187" lon="5.87451">
        <ele>759.0981445</ele>
        <time>2016-02-21T11:41:26Z</time>
      </trkpt>
      <trkpt lat="44.31857" lon="5.87438">
        <ele>758.1369629</ele>
        <time>2016-02-21T11:41:33Z</time>
      </trkpt>
      <trkpt lat="44.3187" lon="5.87419">
        <ele>756.2141113</ele>
        <time>2016-02-21T11:41:39Z</time>
      </trkpt>
      <trkpt lat="44.31877" lon="5.87415">
        <ele>755.7336426</ele>
        <time>2016-02-21T11:41:41Z</time>
      </trkpt>
      <trkpt lat="44.31901" lon="5.87398">
        <ele>752.3688965</ele>
        <time>2016-02-21T11:41:48Z</time>
      </trkpt>
      <trkpt lat="44.31891" lon="5.87389">
        <ele>751.4077148</ele>
        <time>2016-02-21T11:41:55Z</time>
      </trkpt>
      <trkpt lat="44.31884" lon="5.87392">
        <ele>750.4465332</ele>
        <time>2016-02-21T11:41:57Z</time>
      </trkpt>
      <trkpt lat="44.31865" lon="5.87393">
        <ele>748.0432129</ele>
        <time>2016-02-21T11:42:01Z</time>
      </trkpt>
      <trkpt lat="44.31856" lon="5.87394">
        <ele>746.6010742</ele>
        <time>2016-02-21T11:42:03Z</time>
      </trkpt>
      <trkpt lat="44.31836" lon="5.87395">
        <ele>744.6782227</ele>
        <time>2016-02-21T11:42:07Z</time>
      </trkpt>
      <trkpt lat="44.31824" lon="5.87393">
        <ele>742.7558594</ele>
        <time>2016-02-21T11:42:10Z</time>
      </trkpt>
      <trkpt lat="44.318" lon="5.87383">
        <ele>739.3911133</ele>
        <time>2016-02-21T11:42:18Z</time>
      </trkpt>
      <trkpt lat="44.31789" lon="5.8738">
        <ele>738.4299316</ele>
        <time>2016-02-21T11:42:22Z</time>
      </trkpt>
      <trkpt lat="44.31772" lon="5.8741">
        <ele>737.4685059</ele>
        <time>2016-02-21T11:42:30Z</time>
      </trkpt>
      <trkpt lat="44.31776" lon="5.87457">
        <ele>736.987793</ele>
        <time>2016-02-21T11:42:41Z</time>
      </trkpt>
      <trkpt lat="44.31774" lon="5.87463">
        <ele>736.5073242</ele>
        <time>2016-02-21T11:42:43Z</time>
      </trkpt>
      <trkpt lat="44.31734" lon="5.87489">
        <ele>733.623291</ele>
        <time>2016-02-21T11:42:57Z</time>
      </trkpt>
      <trkpt lat="44.3172" lon="5.87498">
        <ele>732.1813965</ele>
        <time>2016-02-21T11:43:01Z</time>
      </trkpt>
      <trkpt lat="44.31714" lon="5.87499">
        <ele>730.7392578</ele>
        <time>2016-02-21T11:43:03Z</time>
      </trkpt>
      <trkpt lat="44.31702" lon="5.875">
        <ele>728.8166504</ele>
        <time>2016-02-21T11:43:06Z</time>
      </trkpt>
      <trkpt lat="44.31698" lon="5.87496">
        <ele>728.3359375</ele>
        <time>2016-02-21T11:43:08Z</time>
      </trkpt>
      <trkpt lat="44.31698" lon="5.87496">
        <ele>727.8552246</ele>
        <time>2016-02-21T11:43:26Z</time>
      </trkpt>
      <trkpt lat="44.31698" lon="5.87496">
        <ele>728.3359375</ele>
        <time>2016-02-21T11:43:28Z</time>
      </trkpt>
      <trkpt lat="44.3169" lon="5.87496">
        <ele>727.8552246</ele>
        <time>2016-02-21T11:43:31Z</time>
      </trkpt>
      <trkpt lat="44.31675" lon="5.87483">
        <ele>726.4133301</ele>
        <time>2016-02-21T11:43:35Z</time>
      </trkpt>
      <trkpt lat="44.31674" lon="5.87462">
        <ele>724.9714355</ele>
        <time>2016-02-21T11:43:38Z</time>
      </trkpt>
      <trkpt lat="44.31685" lon="5.87408">
        <ele>721.6066895</ele>
        <time>2016-02-21T11:43:44Z</time>
      </trkpt>
      <trkpt lat="44.31686" lon="5.87382">
        <ele>719.6843262</ele>
        <time>2016-02-21T11:43:47Z</time>
      </trkpt>
      <trkpt lat="44.31667" lon="5.8735">
        <ele>717.2810059</ele>
        <time>2016-02-21T11:43:52Z</time>
      </trkpt>
      <trkpt lat="44.31663" lon="5.87346">
        <ele>714.8774414</ele>
        <time>2016-02-21T11:43:53Z</time>
      </trkpt>
      <trkpt lat="44.3165" lon="5.87337">
        <ele>714.3967285</ele>
        <time>2016-02-21T11:43:56Z</time>
      </trkpt>
      <trkpt lat="44.31637" lon="5.87322">
        <ele>712.4741211</ele>
        <time>2016-02-21T11:43:59Z</time>
      </trkpt>
      <trkpt lat="44.31633" lon="5.87306">
        <ele>710.0708008</ele>
        <time>2016-02-21T11:44:01Z</time>
      </trkpt>
      <trkpt lat="44.31633" lon="5.87286">
        <ele>708.1484375</ele>
        <time>2016-02-21T11:44:03Z</time>
      </trkpt>
      <trkpt lat="44.31634" lon="5.87275">
        <ele>707.6677246</ele>
        <time>2016-02-21T11:44:04Z</time>
      </trkpt>
      <trkpt lat="44.31642" lon="5.87233">
        <ele>705.7451172</ele>
        <time>2016-02-21T11:44:08Z</time>
      </trkpt>
      <trkpt lat="44.31647" lon="5.87212">
        <ele>703.8225098</ele>
        <time>2016-02-21T11:44:10Z</time>
      </trkpt>
      <trkpt lat="44.3165" lon="5.87189">
        <ele>702.861084</ele>
        <time>2016-02-21T11:44:12Z</time>
      </trkpt>
      <trkpt lat="44.31652" lon="5.87168">
        <ele>699.4963379</ele>
        <time>2016-02-21T11:44:14Z</time>
      </trkpt>
      <trkpt lat="44.31652" lon="5.87158">
        <ele>699.4963379</ele>
        <time>2016-02-21T11:44:15Z</time>
      </trkpt>
      <trkpt lat="44.31655" lon="5.87139">
        <ele>698.0544434</ele>
        <time>2016-02-21T11:44:17Z</time>
      </trkpt>
      <trkpt lat="44.31658" lon="5.8712">
        <ele>696.1318359</ele>
        <time>2016-02-21T11:44:19Z</time>
      </trkpt>
      <trkpt lat="44.31657" lon="5.87091">
        <ele>691.8059082</ele>
        <time>2016-02-21T11:44:22Z</time>
      </trkpt>
      <trkpt lat="44.31652" lon="5.87073">
        <ele>690.3640137</ele>
        <time>2016-02-21T11:44:24Z</time>
      </trkpt>
      <trkpt lat="44.31637" lon="5.87047">
        <ele>686.9992676</ele>
        <time>2016-02-21T11:44:27Z</time>
      </trkpt>
      <trkpt lat="44.31623" lon="5.87033">
        <ele>686.0380859</ele>
        <time>2016-02-21T11:44:29Z</time>
      </trkpt>
      <trkpt lat="44.31555" lon="5.86985">
        <ele>680.2700195</ele>
        <time>2016-02-21T11:44:37Z</time>
      </trkpt>
      <trkpt lat="44.31546" lon="5.86979">
        <ele>680.2700195</ele>
        <time>2016-02-21T11:44:38Z</time>
      </trkpt>
      <trkpt lat="44.31502" lon="5.86949">
        <ele>677.3862305</ele>
        <time>2016-02-21T11:44:43Z</time>
      </trkpt>
      <trkpt lat="44.31493" lon="5.86943">
        <ele>674.0214844</ele>
        <time>2016-02-21T11:44:44Z</time>
      </trkpt>
      <trkpt lat="44.31484" lon="5.86937">
        <ele>674.0214844</ele>
        <time>2016-02-21T11:44:45Z</time>
      </trkpt>
      <trkpt lat="44.3145" lon="5.86912">
        <ele>670.1762695</ele>
        <time>2016-02-21T11:44:49Z</time>
      </trkpt>
      <trkpt lat="44.31443" lon="5.86905">
        <ele>670.1762695</ele>
        <time>2016-02-21T11:44:50Z</time>
      </trkpt>
      <trkpt lat="44.31431" lon="5.8689">
        <ele>668.734375</ele>
        <time>2016-02-21T11:44:52Z</time>
      </trkpt>
      <trkpt lat="44.31396" lon="5.86813">
        <ele>664.888916</ele>
        <time>2016-02-21T11:45:00Z</time>
      </trkpt>
      <trkpt lat="44.31391" lon="5.86804">
        <ele>664.888916</ele>
        <time>2016-02-21T11:45:01Z</time>
      </trkpt>
      <trkpt lat="44.31383" lon="5.86787">
        <ele>663.4470215</ele>
        <time>2016-02-21T11:45:03Z</time>
      </trkpt>
      <trkpt lat="44.31372" lon="5.86762">
        <ele>660.5629883</ele>
        <time>2016-02-21T11:45:06Z</time>
      </trkpt>
      <trkpt lat="44.31364" lon="5.86747">
        <ele>659.1210938</ele>
        <time>2016-02-21T11:45:08Z</time>
      </trkpt>
      <trkpt lat="44.31338" lon="5.86713">
        <ele>656.2370605</ele>
        <time>2016-02-21T11:45:13Z</time>
      </trkpt>
      <trkpt lat="44.31328" lon="5.86701">
        <ele>654.795166</ele>
        <time>2016-02-21T11:45:15Z</time>
      </trkpt>
      <trkpt lat="44.31322" lon="5.86695">
        <ele>652.8725586</ele>
        <time>2016-02-21T11:45:16Z</time>
      </trkpt>
      <trkpt lat="44.3127" lon="5.86667">
        <ele>649.5078125</ele>
        <time>2016-02-21T11:45:23Z</time>
      </trkpt>
      <trkpt lat="44.31262" lon="5.86664">
        <ele>649.5078125</ele>
        <time>2016-02-21T11:45:24Z</time>
      </trkpt>
      <trkpt lat="44.31239" lon="5.86653">
        <ele>647.5852051</ele>
        <time>2016-02-21T11:45:27Z</time>
      </trkpt>
      <trkpt lat="44.31202" lon="5.86635">
        <ele>644.7011719</ele>
        <time>2016-02-21T11:45:32Z</time>
      </trkpt>
      <trkpt lat="44.31189" lon="5.86625">
        <ele>643.7399902</ele>
        <time>2016-02-21T11:45:34Z</time>
      </trkpt>
      <trkpt lat="44.31167" lon="5.86597">
        <ele>642.7788086</ele>
        <time>2016-02-21T11:45:38Z</time>
      </trkpt>
      <trkpt lat="44.31149" lon="5.86562">
        <ele>640.3754883</ele>
        <time>2016-02-21T11:45:42Z</time>
      </trkpt>
      <trkpt lat="44.31114" lon="5.86485">
        <ele>638.4528809</ele>
        <time>2016-02-21T11:45:50Z</time>
      </trkpt>
      <trkpt lat="44.31088" lon="5.86455">
        <ele>636.0495605</ele>
        <time>2016-02-21T11:45:54Z</time>
      </trkpt>
      <trkpt lat="44.31064" lon="5.86446">
        <ele>635.5686035</ele>
        <time>2016-02-21T11:45:57Z</time>
      </trkpt>
      <trkpt lat="44.31047" lon="5.86443">
        <ele>634.126709</ele>
        <time>2016-02-21T11:45:59Z</time>
      </trkpt>
      <trkpt lat="44.31003" lon="5.86439">
        <ele>631.7233887</ele>
        <time>2016-02-21T11:46:04Z</time>
      </trkpt>
      <trkpt lat="44.30944" lon="5.8643">
        <ele>628.3588867</ele>
        <time>2016-02-21T11:46:10Z</time>
      </trkpt>
      <trkpt lat="44.30934" lon="5.86428">
        <ele>628.3588867</ele>
        <time>2016-02-21T11:46:11Z</time>
      </trkpt>
      <trkpt lat="44.30913" lon="5.86424">
        <ele>626.9169922</ele>
        <time>2016-02-21T11:46:13Z</time>
      </trkpt>
      <trkpt lat="44.30896" lon="5.8642">
        <ele>625.4748535</ele>
        <time>2016-02-21T11:46:15Z</time>
      </trkpt>
      <trkpt lat="44.3088" lon="5.86416">
        <ele>623.5524902</ele>
        <time>2016-02-21T11:46:17Z</time>
      </trkpt>
      <trkpt lat="44.30852" lon="5.86393">
        <ele>622.5910645</ele>
        <time>2016-02-21T11:46:21Z</time>
      </trkpt>
      <trkpt lat="44.3079" lon="5.863">
        <ele>619.7070313</ele>
        <time>2016-02-21T11:46:34Z</time>
      </trkpt>
      <trkpt lat="44.30757" lon="5.8625">
        <ele>618.2648926</ele>
        <time>2016-02-21T11:46:41Z</time>
      </trkpt>
      <trkpt lat="44.30731" lon="5.86206">
        <ele>614.9003906</ele>
        <time>2016-02-21T11:46:47Z</time>
      </trkpt>
      <trkpt lat="44.30727" lon="5.86199">
        <ele>614.9003906</ele>
        <time>2016-02-21T11:46:48Z</time>
      </trkpt>
      <trkpt lat="44.30709" lon="5.86171">
        <ele>611.5358887</ele>
        <time>2016-02-21T11:46:53Z</time>
      </trkpt>
      <trkpt lat="44.30683" lon="5.86142">
        <ele>609.6132813</ele>
        <time>2016-02-21T11:47:04Z</time>
      </trkpt>
      <trkpt lat="44.30683" lon="5.86142">
        <ele>610.09375</ele>
        <time>2016-02-21T11:47:18Z</time>
      </trkpt>
      <trkpt lat="44.3068" lon="5.86141">
        <ele>609.1325684</ele>
        <time>2016-02-21T11:47:36Z</time>
      </trkpt>
      <trkpt lat="44.30667" lon="5.86165">
        <ele>611.5358887</ele>
        <time>2016-02-21T11:47:46Z</time>
      </trkpt>
      <trkpt lat="44.30664" lon="5.86176">
        <ele>611.5358887</ele>
        <time>2016-02-21T11:47:50Z</time>
      </trkpt>
      <trkpt lat="44.30666" lon="5.86229">
        <ele>613.9389648</ele>
        <time>2016-02-21T11:48:05Z</time>
      </trkpt>
      <trkpt lat="44.30668" lon="5.86244">
        <ele>613.4584961</ele>
        <time>2016-02-21T11:48:09Z</time>
      </trkpt>
      <trkpt lat="44.3068" lon="5.86301">
        <ele>615.8618164</ele>
        <time>2016-02-21T11:48:26Z</time>
      </trkpt>
      <trkpt lat="44.30694" lon="5.86337">
        <ele>616.3422852</ele>
        <time>2016-02-21T11:48:38Z</time>
      </trkpt>
      <trkpt lat="44.3071" lon="5.86372">
        <ele>617.3037109</ele>
        <time>2016-02-21T11:48:51Z</time>
      </trkpt>
      <trkpt lat="44.30733" lon="5.86414">
        <ele>618.7456055</ele>
        <time>2016-02-21T11:49:07Z</time>
      </trkpt>
      <trkpt lat="44.30744" lon="5.86436">
        <ele>620.1877441</ele>
        <time>2016-02-21T11:49:16Z</time>
      </trkpt>
      <trkpt lat="44.30762" lon="5.86473">
        <ele>621.6296387</ele>
        <time>2016-02-21T11:49:32Z</time>
      </trkpt>
      <trkpt lat="44.30774" lon="5.86504">
        <ele>623.0717773</ele>
        <time>2016-02-21T11:49:45Z</time>
      </trkpt>
      <trkpt lat="44.30783" lon="5.86532">
        <ele>624.5136719</ele>
        <time>2016-02-21T11:49:56Z</time>
      </trkpt>
      <trkpt lat="44.30793" lon="5.86564">
        <ele>625.9555664</ele>
        <time>2016-02-21T11:50:09Z</time>
      </trkpt>
      <trkpt lat="44.30799" lon="5.86608">
        <ele>627.8781738</ele>
        <time>2016-02-21T11:50:26Z</time>
      </trkpt>
      <trkpt lat="44.30802" lon="5.86642">
        <ele>629.8007813</ele>
        <time>2016-02-21T11:50:39Z</time>
      </trkpt>
      <trkpt lat="44.30809" lon="5.8668">
        <ele>631.2429199</ele>
        <time>2016-02-21T11:50:54Z</time>
      </trkpt>
      <trkpt lat="44.30815" lon="5.86722">
        <ele>633.1652832</ele>
        <time>2016-02-21T11:51:10Z</time>
      </trkpt>
      <trkpt lat="44.30818" lon="5.86755">
        <ele>634.6074219</ele>
        <time>2016-02-21T11:51:23Z</time>
      </trkpt>
      <trkpt lat="44.30823" lon="5.86812">
        <ele>637.4914551</ele>
        <time>2016-02-21T11:51:43Z</time>
      </trkpt>
      <trkpt lat="44.30821" lon="5.8688">
        <ele>639.4140625</ele>
        <time>2016-02-21T11:52:06Z</time>
      </trkpt>
      <trkpt lat="44.30814" lon="5.86932">
        <ele>641.8173828</ele>
        <time>2016-02-21T11:52:24Z</time>
      </trkpt>
      <trkpt lat="44.30797" lon="5.86998">
        <ele>643.7399902</ele>
        <time>2016-02-21T11:52:46Z</time>
      </trkpt>
      <trkpt lat="44.30759" lon="5.87073">
        <ele>645.1818848</ele>
        <time>2016-02-21T11:53:14Z</time>
      </trkpt>
      <trkpt lat="44.30727" lon="5.87124">
        <ele>647.5852051</ele>
        <time>2016-02-21T11:53:35Z</time>
      </trkpt>
      <trkpt lat="44.30691" lon="5.87178">
        <ele>649.5078125</ele>
        <time>2016-02-21T11:53:57Z</time>
      </trkpt>
      <trkpt lat="44.30656" lon="5.87236">
        <ele>651.9111328</ele>
        <time>2016-02-21T11:54:22Z</time>
      </trkpt>
      <trkpt lat="44.3062" lon="5.8729">
        <ele>654.3146973</ele>
        <time>2016-02-21T11:54:45Z</time>
      </trkpt>
      <trkpt lat="44.30588" lon="5.87346">
        <ele>656.7177734</ele>
        <time>2016-02-21T11:55:08Z</time>
      </trkpt>
      <trkpt lat="44.30563" lon="5.87398">
        <ele>657.6791992</ele>
        <time>2016-02-21T11:55:28Z</time>
      </trkpt>
      <trkpt lat="44.30541" lon="5.87433">
        <ele>659.6018066</ele>
        <time>2016-02-21T11:55:42Z</time>
      </trkpt>
      <trkpt lat="44.30532" lon="5.87476">
        <ele>662.005127</ele>
        <time>2016-02-21T11:55:58Z</time>
      </trkpt>
      <trkpt lat="44.30532" lon="5.87496">
        <ele>662.4855957</ele>
        <time>2016-02-21T11:56:05Z</time>
      </trkpt>
      <trkpt lat="44.30531" lon="5.87501">
        <ele>663.4470215</ele>
        <time>2016-02-21T11:56:07Z</time>
      </trkpt>
      <trkpt lat="44.30528" lon="5.87538">
        <ele>664.888916</ele>
        <time>2016-02-21T11:56:20Z</time>
      </trkpt>
      <trkpt lat="44.30527" lon="5.87555">
        <ele>664.4082031</ele>
        <time>2016-02-21T11:56:32Z</time>
      </trkpt>
      <trkpt lat="44.30525" lon="5.87553">
        <ele>663.9274902</ele>
        <time>2016-02-21T11:56:57Z</time>
      </trkpt>
      <trkpt lat="44.30523" lon="5.87548">
        <ele>664.4082031</ele>
        <time>2016-02-21T11:57:00Z</time>
      </trkpt>
      <trkpt lat="44.30496" lon="5.87533">
        <ele>665.8503418</ele>
        <time>2016-02-21T11:57:13Z</time>
      </trkpt>
      <trkpt lat="44.30461" lon="5.87511">
        <ele>669.2150879</ele>
        <time>2016-02-21T11:57:30Z</time>
      </trkpt>
      <trkpt lat="44.30447" lon="5.87513">
        <ele>669.2150879</ele>
        <time>2016-02-21T11:57:36Z</time>
      </trkpt>
      <trkpt lat="44.30417" lon="5.8752">
        <ele>671.1376953</ele>
        <time>2016-02-21T11:57:48Z</time>
      </trkpt>
      <trkpt lat="44.30369" lon="5.87531">
        <ele>669.2150879</ele>
        <time>2016-02-21T11:58:00Z</time>
      </trkpt>
      <trkpt lat="44.30288" lon="5.87549">
        <ele>668.734375</ele>
        <time>2016-02-21T11:58:16Z</time>
      </trkpt>
      <trkpt lat="44.30218" lon="5.87566">
        <ele>668.2536621</ele>
        <time>2016-02-21T11:58:31Z</time>
      </trkpt>
      <trkpt lat="44.30199" lon="5.8758">
        <ele>668.734375</ele>
        <time>2016-02-21T11:58:35Z</time>
      </trkpt>
      <trkpt lat="44.30177" lon="5.87607">
        <ele>665.8503418</ele>
        <time>2016-02-21T11:58:40Z</time>
      </trkpt>
      <trkpt lat="44.30175" lon="5.87611">
        <ele>665.8503418</ele>
        <time>2016-02-21T11:58:41Z</time>
      </trkpt>
      <trkpt lat="44.30138" lon="5.87665">
        <ele>663.4470215</ele>
        <time>2016-02-21T11:58:54Z</time>
      </trkpt>
      <trkpt lat="44.30117" lon="5.8768">
        <ele>661.0437012</ele>
        <time>2016-02-21T11:58:59Z</time>
      </trkpt>
      <trkpt lat="44.30107" lon="5.87687">
        <ele>659.6018066</ele>
        <time>2016-02-21T11:59:02Z</time>
      </trkpt>
      <trkpt lat="44.30088" lon="5.87698">
        <ele>658.6403809</ele>
        <time>2016-02-21T11:59:06Z</time>
      </trkpt>
      <trkpt lat="44.30068" lon="5.87707">
        <ele>658.6403809</ele>
        <time>2016-02-21T11:59:09Z</time>
      </trkpt>
      <trkpt lat="44.29995" lon="5.87746">
        <ele>654.3146973</ele>
        <time>2016-02-21T11:59:19Z</time>
      </trkpt>
      <trkpt lat="44.29973" lon="5.8777">
        <ele>651.9111328</ele>
        <time>2016-02-21T11:59:23Z</time>
      </trkpt>
      <trkpt lat="44.2995" lon="5.87815">
        <ele>650.4692383</ele>
        <time>2016-02-21T11:59:29Z</time>
      </trkpt>
      <trkpt lat="44.29926" lon="5.87842">
        <ele>649.0270996</ele>
        <time>2016-02-21T11:59:34Z</time>
      </trkpt>
      <trkpt lat="44.29895" lon="5.87856">
        <ele>646.6240234</ele>
        <time>2016-02-21T11:59:39Z</time>
      </trkpt>
      <trkpt lat="44.29866" lon="5.8787">
        <ele>644.2207031</ele>
        <time>2016-02-21T11:59:43Z</time>
      </trkpt>
      <trkpt lat="44.29796" lon="5.87896">
        <ele>642.2980957</ele>
        <time>2016-02-21T11:59:53Z</time>
      </trkpt>
      <trkpt lat="44.29774" lon="5.87898">
        <ele>641.8173828</ele>
        <time>2016-02-21T11:59:57Z</time>
      </trkpt>
      <trkpt lat="44.2969" lon="5.87861">
        <ele>639.4140625</ele>
        <time>2016-02-21T12:00:14Z</time>
      </trkpt>
      <trkpt lat="44.2965" lon="5.87869">
        <ele>638.9335938</ele>
        <time>2016-02-21T12:00:29Z</time>
      </trkpt>
      <trkpt lat="44.29632" lon="5.87835">
        <ele>638.9335938</ele>
        <time>2016-02-21T12:00:40Z</time>
      </trkpt>
      <trkpt lat="44.29602" lon="5.87763">
        <ele>639.4140625</ele>
        <time>2016-02-21T12:00:55Z</time>
      </trkpt>
      <trkpt lat="44.2955" lon="5.87692">
        <ele>639.8947754</ele>
        <time>2016-02-21T12:01:13Z</time>
      </trkpt>
      <trkpt lat="44.29506" lon="5.87669">
        <ele>639.8947754</ele>
        <time>2016-02-21T12:01:24Z</time>
      </trkpt>
      <trkpt lat="44.29423" lon="5.87627">
        <ele>639.4140625</ele>
        <time>2016-02-21T12:01:46Z</time>
      </trkpt>
      <trkpt lat="44.29372" lon="5.87602">
        <ele>641.3366699</ele>
        <time>2016-02-21T12:02:03Z</time>
      </trkpt>
      <trkpt lat="44.29346" lon="5.87572">
        <ele>642.2980957</ele>
        <time>2016-02-21T12:02:17Z</time>
      </trkpt>
      <trkpt lat="44.29325" lon="5.87506">
        <ele>642.7788086</ele>
        <time>2016-02-21T12:02:31Z</time>
      </trkpt>
      <trkpt lat="44.29276" lon="5.87439">
        <ele>641.8173828</ele>
        <time>2016-02-21T12:02:48Z</time>
      </trkpt>
      <trkpt lat="44.29252" lon="5.8741">
        <ele>641.8173828</ele>
        <time>2016-02-21T12:02:56Z</time>
      </trkpt>
      <trkpt lat="44.29208" lon="5.87383">
        <ele>641.3366699</ele>
        <time>2016-02-21T12:03:08Z</time>
      </trkpt>
      <trkpt lat="44.29139" lon="5.87329">
        <ele>641.3366699</ele>
        <time>2016-02-21T12:03:26Z</time>
      </trkpt>
      <trkpt lat="44.29099" lon="5.87293">
        <ele>641.3366699</ele>
        <time>2016-02-21T12:03:38Z</time>
      </trkpt>
      <trkpt lat="44.29095" lon="5.8729">
        <ele>641.3366699</ele>
        <time>2016-02-21T12:03:39Z</time>
      </trkpt>
      <trkpt lat="44.29082" lon="5.87282">
        <ele>641.3366699</ele>
        <time>2016-02-21T12:03:42Z</time>
      </trkpt>
      <trkpt lat="44.2906" lon="5.87265">
        <ele>641.3366699</ele>
        <time>2016-02-21T12:03:47Z</time>
      </trkpt>
      <trkpt lat="44.29005" lon="5.87208">
        <ele>641.3366699</ele>
        <time>2016-02-21T12:04:02Z</time>
      </trkpt>
      <trkpt lat="44.28967" lon="5.8716">
        <ele>640.855957</ele>
        <time>2016-02-21T12:04:13Z</time>
      </trkpt>
      <trkpt lat="44.28955" lon="5.87143">
        <ele>640.855957</ele>
        <time>2016-02-21T12:04:17Z</time>
      </trkpt>
      <trkpt lat="44.28942" lon="5.87129">
        <ele>640.855957</ele>
        <time>2016-02-21T12:04:21Z</time>
      </trkpt>
      <trkpt lat="44.28926" lon="5.87114">
        <ele>640.855957</ele>
        <time>2016-02-21T12:04:25Z</time>
      </trkpt>
      <trkpt lat="44.28896" lon="5.87089">
        <ele>640.855957</ele>
        <time>2016-02-21T12:04:33Z</time>
      </trkpt>
      <trkpt lat="44.28885" lon="5.87081">
        <ele>640.855957</ele>
        <time>2016-02-21T12:04:36Z</time>
      </trkpt>
      <trkpt lat="44.28857" lon="5.87066">
        <ele>640.855957</ele>
        <time>2016-02-21T12:04:43Z</time>
      </trkpt>
      <trkpt lat="44.28807" lon="5.87017">
        <ele>641.3366699</ele>
        <time>2016-02-21T12:04:57Z</time>
      </trkpt>
      <trkpt lat="44.28796" lon="5.8701">
        <ele>641.8173828</ele>
        <time>2016-02-21T12:05:00Z</time>
      </trkpt>
      <trkpt lat="44.28723" lon="5.8695">
        <ele>641.3366699</ele>
        <time>2016-02-21T12:05:19Z</time>
      </trkpt>
      <trkpt lat="44.28699" lon="5.86934">
        <ele>641.8173828</ele>
        <time>2016-02-21T12:05:25Z</time>
      </trkpt>
      <trkpt lat="44.28629" lon="5.86867">
        <ele>640.855957</ele>
        <time>2016-02-21T12:05:42Z</time>
      </trkpt>
      <trkpt lat="44.2854" lon="5.86785">
        <ele>640.855957</ele>
        <time>2016-02-21T12:06:02Z</time>
      </trkpt>
      <trkpt lat="44.28474" lon="5.86746">
        <ele>637.972168</ele>
        <time>2016-02-21T12:06:14Z</time>
      </trkpt>
      <trkpt lat="44.2846" lon="5.86734">
        <ele>637.972168</ele>
        <time>2016-02-21T12:06:17Z</time>
      </trkpt>
      <trkpt lat="44.28452" lon="5.86724">
        <ele>639.8947754</ele>
        <time>2016-02-21T12:06:19Z</time>
      </trkpt>
      <trkpt lat="44.28444" lon="5.86711">
        <ele>640.3754883</ele>
        <time>2016-02-21T12:06:21Z</time>
      </trkpt>
      <trkpt lat="44.2843" lon="5.86671">
        <ele>639.4140625</ele>
        <time>2016-02-21T12:06:26Z</time>
      </trkpt>
      <trkpt lat="44.28427" lon="5.86619">
        <ele>637.0107422</ele>
        <time>2016-02-21T12:06:31Z</time>
      </trkpt>
      <trkpt lat="44.28429" lon="5.86554">
        <ele>635.5686035</ele>
        <time>2016-02-21T12:06:37Z</time>
      </trkpt>
      <trkpt lat="44.28406" lon="5.86449">
        <ele>633.1652832</ele>
        <time>2016-02-21T12:06:50Z</time>
      </trkpt>
      <trkpt lat="44.28405" lon="5.86381">
        <ele>633.6459961</ele>
        <time>2016-02-21T12:07:05Z</time>
      </trkpt>
      <trkpt lat="44.28385" lon="5.86316">
        <ele>636.0495605</ele>
        <time>2016-02-21T12:07:21Z</time>
      </trkpt>
      <trkpt lat="44.28355" lon="5.86254">
        <ele>637.0107422</ele>
        <time>2016-02-21T12:07:37Z</time>
      </trkpt>
      <trkpt lat="44.28324" lon="5.86198">
        <ele>636.5302734</ele>
        <time>2016-02-21T12:07:52Z</time>
      </trkpt>
      <trkpt lat="44.28297" lon="5.86159">
        <ele>636.0495605</ele>
        <time>2016-02-21T12:08:01Z</time>
      </trkpt>
      <trkpt lat="44.28235" lon="5.86094">
        <ele>635.5686035</ele>
        <time>2016-02-21T12:08:18Z</time>
      </trkpt>
      <trkpt lat="44.28169" lon="5.86017">
        <ele>633.1652832</ele>
        <time>2016-02-21T12:08:35Z</time>
      </trkpt>
      <trkpt lat="44.28112" lon="5.85956">
        <ele>633.6459961</ele>
        <time>2016-02-21T12:08:53Z</time>
      </trkpt>
      <trkpt lat="44.2805" lon="5.85912">
        <ele>634.6074219</ele>
        <time>2016-02-21T12:09:08Z</time>
      </trkpt>
      <trkpt lat="44.28045" lon="5.85909">
        <ele>633.6459961</ele>
        <time>2016-02-21T12:09:09Z</time>
      </trkpt>
      <trkpt lat="44.28" lon="5.85884">
        <ele>630.2814941</ele>
        <time>2016-02-21T12:09:18Z</time>
      </trkpt>
      <trkpt lat="44.27991" lon="5.85879">
        <ele>631.2429199</ele>
        <time>2016-02-21T12:09:20Z</time>
      </trkpt>
      <trkpt lat="44.27947" lon="5.85851">
        <ele>626.9169922</ele>
        <time>2016-02-21T12:09:28Z</time>
      </trkpt>
      <trkpt lat="44.27943" lon="5.85848">
        <ele>626.9169922</ele>
        <time>2016-02-21T12:09:29Z</time>
      </trkpt>
      <trkpt lat="44.27938" lon="5.85845">
        <ele>626.4362793</ele>
        <time>2016-02-21T12:09:30Z</time>
      </trkpt>
      <trkpt lat="44.27925" lon="5.85838">
        <ele>624.9943848</ele>
        <time>2016-02-21T12:09:34Z</time>
      </trkpt>
      <trkpt lat="44.27923" lon="5.85836">
        <ele>624.9943848</ele>
        <time>2016-02-21T12:09:35Z</time>
      </trkpt>
      <trkpt lat="44.27869" lon="5.8582">
        <ele>624.9943848</ele>
        <time>2016-02-21T12:09:49Z</time>
      </trkpt>
      <trkpt lat="44.2781" lon="5.85792">
        <ele>624.032959</ele>
        <time>2016-02-21T12:10:03Z</time>
      </trkpt>
      <trkpt lat="44.27796" lon="5.8578">
        <ele>624.032959</ele>
        <time>2016-02-21T12:10:07Z</time>
      </trkpt>
      <trkpt lat="44.27761" lon="5.85735">
        <ele>624.5136719</ele>
        <time>2016-02-21T12:10:23Z</time>
      </trkpt>
      <trkpt lat="44.27737" lon="5.857">
        <ele>621.6296387</ele>
        <time>2016-02-21T12:10:32Z</time>
      </trkpt>
      <trkpt lat="44.27722" lon="5.85674">
        <ele>620.1877441</ele>
        <time>2016-02-21T12:10:36Z</time>
      </trkpt>
      <trkpt lat="44.27698" lon="5.85639">
        <ele>622.5910645</ele>
        <time>2016-02-21T12:10:41Z</time>
      </trkpt>
      <trkpt lat="44.27657" lon="5.85597">
        <ele>621.1491699</ele>
        <time>2016-02-21T12:10:48Z</time>
      </trkpt>
      <trkpt lat="44.27609" lon="5.85567">
        <ele>618.2648926</ele>
        <time>2016-02-21T12:10:55Z</time>
      </trkpt>
      <trkpt lat="44.2756" lon="5.85534">
        <ele>617.3037109</ele>
        <time>2016-02-21T12:11:03Z</time>
      </trkpt>
      <trkpt lat="44.27537" lon="5.85508">
        <ele>615.8618164</ele>
        <time>2016-02-21T12:11:08Z</time>
      </trkpt>
      <trkpt lat="44.27497" lon="5.85429">
        <ele>614.4196777</ele>
        <time>2016-02-21T12:11:22Z</time>
      </trkpt>
      <trkpt lat="44.27478" lon="5.85385">
        <ele>611.5358887</ele>
        <time>2016-02-21T12:11:35Z</time>
      </trkpt>
      <trkpt lat="44.27478" lon="5.85386">
        <ele>612.9777832</ele>
        <time>2016-02-21T12:12:53Z</time>
      </trkpt>
      <trkpt lat="44.27467" lon="5.85379">
        <ele>613.4584961</ele>
        <time>2016-02-21T12:12:59Z</time>
      </trkpt>
      <trkpt lat="44.27389" lon="5.85373">
        <ele>614.4196777</ele>
        <time>2016-02-21T12:13:18Z</time>
      </trkpt>
      <trkpt lat="44.27337" lon="5.85354">
        <ele>617.7841797</ele>
        <time>2016-02-21T12:13:35Z</time>
      </trkpt>
      <trkpt lat="44.27318" lon="5.8535">
        <ele>619.2263184</ele>
        <time>2016-02-21T12:13:41Z</time>
      </trkpt>
      <trkpt lat="44.27308" lon="5.8535">
        <ele>617.3037109</ele>
        <time>2016-02-21T12:13:44Z</time>
      </trkpt>
      <trkpt lat="44.27247" lon="5.85351">
        <ele>618.7456055</ele>
        <time>2016-02-21T12:14:03Z</time>
      </trkpt>
      <trkpt lat="44.272" lon="5.85351">
        <ele>621.1491699</ele>
        <time>2016-02-21T12:14:20Z</time>
      </trkpt>
      <trkpt lat="44.27149" lon="5.85371">
        <ele>622.5910645</ele>
        <time>2016-02-21T12:14:38Z</time>
      </trkpt>
      <trkpt lat="44.27127" lon="5.85398">
        <ele>624.032959</ele>
        <time>2016-02-21T12:14:46Z</time>
      </trkpt>
      <trkpt lat="44.27102" lon="5.85459">
        <ele>622.1103516</ele>
        <time>2016-02-21T12:14:59Z</time>
      </trkpt>
      <trkpt lat="44.27103" lon="5.8546">
        <ele>622.1103516</ele>
        <time>2016-02-21T12:15:12Z</time>
      </trkpt>
      <trkpt lat="44.27116" lon="5.85456">
        <ele>622.5910645</ele>
        <time>2016-02-21T12:15:27Z</time>
      </trkpt>
      <trkpt lat="44.27117" lon="5.85456">
        <ele>622.5910645</ele>
        <time>2016-02-21T12:15:30Z</time>
      </trkpt>
      <trkpt lat="44.27124" lon="5.85462">
        <ele>623.0717773</ele>
        <time>2016-02-21T12:15:35Z</time>
      </trkpt>
      <trkpt lat="44.27172" lon="5.85493">
        <ele>623.0717773</ele>
        <time>2016-02-21T12:15:51Z</time>
      </trkpt>
      <trkpt lat="44.2723" lon="5.85539">
        <ele>624.032959</ele>
        <time>2016-02-21T12:16:08Z</time>
      </trkpt>
      <trkpt lat="44.27275" lon="5.85605">
        <ele>624.5136719</ele>
        <time>2016-02-21T12:16:26Z</time>
      </trkpt>
      <trkpt lat="44.27313" lon="5.85661">
        <ele>625.9555664</ele>
        <time>2016-02-21T12:16:43Z</time>
      </trkpt>
      <trkpt lat="44.27343" lon="5.85698">
        <ele>626.9169922</ele>
        <time>2016-02-21T12:16:58Z</time>
      </trkpt>
      <trkpt lat="44.27368" lon="5.8573">
        <ele>629.8007813</ele>
        <time>2016-02-21T12:17:10Z</time>
      </trkpt>
      <trkpt lat="44.27387" lon="5.85759">
        <ele>630.2814941</ele>
        <time>2016-02-21T12:17:21Z</time>
      </trkpt>
      <trkpt lat="44.27391" lon="5.85778">
        <ele>629.8007813</ele>
        <time>2016-02-21T12:17:31Z</time>
      </trkpt>
      <trkpt lat="44.27391" lon="5.85779">
        <ele>629.8007813</ele>
        <time>2016-02-21T12:17:48Z</time>
      </trkpt>
      <trkpt lat="44.27416" lon="5.85784">
        <ele>628.3588867</ele>
        <time>2016-02-21T12:17:58Z</time>
      </trkpt>
      <trkpt lat="44.27421" lon="5.85781">
        <ele>628.3588867</ele>
        <time>2016-02-21T12:18:07Z</time>
      </trkpt>
      <trkpt lat="44.27418" lon="5.85773">
        <ele>627.3977051</ele>
        <time>2016-02-21T12:18:27Z</time>
      </trkpt>
      <trkpt lat="44.27419" lon="5.85775">
        <ele>627.8781738</ele>
        <time>2016-02-21T12:18:33Z</time>
      </trkpt>
      <trkpt lat="44.27395" lon="5.85791">
        <ele>629.3200684</ele>
        <time>2016-02-21T12:18:47Z</time>
      </trkpt>
      <trkpt lat="44.2738" lon="5.85805">
        <ele>631.2429199</ele>
        <time>2016-02-21T12:18:56Z</time>
      </trkpt>
      <trkpt lat="44.2737" lon="5.85811">
        <ele>631.7233887</ele>
        <time>2016-02-21T12:19:01Z</time>
      </trkpt>
      <trkpt lat="44.2736" lon="5.85817">
        <ele>633.6459961</ele>
        <time>2016-02-21T12:19:06Z</time>
      </trkpt>
      <trkpt lat="44.27343" lon="5.85827">
        <ele>632.6848145</ele>
        <time>2016-02-21T12:19:13Z</time>
      </trkpt>
      <trkpt lat="44.27346" lon="5.85829">
        <ele>632.6848145</ele>
        <time>2016-02-21T12:19:18Z</time>
      </trkpt>
      <trkpt lat="44.27389" lon="5.85799">
        <ele>631.7233887</ele>
        <time>2016-02-21T12:19:33Z</time>
      </trkpt>
      <trkpt lat="44.27394" lon="5.85796">
        <ele>630.2814941</ele>
        <time>2016-02-21T12:19:34Z</time>
      </trkpt>
      <trkpt lat="44.27402" lon="5.85789">
        <ele>628.8395996</ele>
        <time>2016-02-21T12:19:36Z</time>
      </trkpt>
      <trkpt lat="44.27434" lon="5.85762">
        <ele>627.3977051</ele>
        <time>2016-02-21T12:19:43Z</time>
      </trkpt>
      <trkpt lat="44.27462" lon="5.85743">
        <ele>628.3588867</ele>
        <time>2016-02-21T12:19:54Z</time>
      </trkpt>
      <trkpt lat="44.27464" lon="5.85741">
        <ele>627.8781738</ele>
        <time>2016-02-21T12:20:05Z</time>
      </trkpt>
      <trkpt lat="44.27463" lon="5.85741">
        <ele>627.3977051</ele>
        <time>2016-02-21T12:20:13Z</time>
      </trkpt>
      <trkpt lat="44.27427" lon="5.85762">
        <ele>627.3977051</ele>
        <time>2016-02-21T12:20:28Z</time>
      </trkpt>
      <trkpt lat="44.27416" lon="5.85771">
        <ele>628.3588867</ele>
        <time>2016-02-21T12:20:33Z</time>
      </trkpt>
      <trkpt lat="44.27412" lon="5.85771">
        <ele>628.3588867</ele>
        <time>2016-02-21T12:20:45Z</time>
      </trkpt>
      <trkpt lat="44.27413" lon="5.85774">
        <ele>627.3977051</ele>
        <time>2016-02-21T12:21:25Z</time>
      </trkpt>
      <trkpt lat="44.27414" lon="5.85776">
        <ele>627.8781738</ele>
        <time>2016-02-21T12:23:42Z</time>
      </trkpt>
      <trkpt lat="44.27415" lon="5.85779">
        <ele>628.3588867</ele>
        <time>2016-02-21T12:23:44Z</time>
      </trkpt>
      <trkpt lat="44.27438" lon="5.8578">
        <ele>625.9555664</ele>
        <time>2016-02-21T12:23:53Z</time>
      </trkpt>
      <trkpt lat="44.27443" lon="5.85779">
        <ele>625.4748535</ele>
        <time>2016-02-21T12:23:54Z</time>
      </trkpt>
      <trkpt lat="44.27463" lon="5.85776">
        <ele>622.5910645</ele>
        <time>2016-02-21T12:23:59Z</time>
      </trkpt>
      <trkpt lat="44.27465" lon="5.85802">
        <ele>621.6296387</ele>
        <time>2016-02-21T12:24:05Z</time>
      </trkpt>
      <trkpt lat="44.27458" lon="5.85811">
        <ele>620.1877441</ele>
        <time>2016-02-21T12:24:07Z</time>
      </trkpt>
      <trkpt lat="44.2745" lon="5.85823">
        <ele>618.7456055</ele>
        <time>2016-02-21T12:24:09Z</time>
      </trkpt>
      <trkpt lat="44.27442" lon="5.85836">
        <ele>618.7456055</ele>
        <time>2016-02-21T12:24:11Z</time>
      </trkpt>
      <trkpt lat="44.27434" lon="5.85858">
        <ele>615.8618164</ele>
        <time>2016-02-21T12:24:14Z</time>
      </trkpt>
      <trkpt lat="44.27436" lon="5.85902">
        <ele>614.4196777</ele>
        <time>2016-02-21T12:24:18Z</time>
      </trkpt>
      <trkpt lat="44.27465" lon="5.8602">
        <ele>610.5744629</ele>
        <time>2016-02-21T12:24:27Z</time>
      </trkpt>
      <trkpt lat="44.27492" lon="5.86105">
        <ele>607.2099609</ele>
        <time>2016-02-21T12:24:35Z</time>
      </trkpt>
      <trkpt lat="44.27506" lon="5.86157">
        <ele>607.6906738</ele>
        <time>2016-02-21T12:24:41Z</time>
      </trkpt>
      <trkpt lat="44.27514" lon="5.86226">
        <ele>609.1325684</ele>
        <time>2016-02-21T12:24:52Z</time>
      </trkpt>
      <trkpt lat="44.27513" lon="5.8628">
        <ele>611.5358887</ele>
        <time>2016-02-21T12:25:09Z</time>
      </trkpt>
      <trkpt lat="44.27512" lon="5.86288">
        <ele>612.9777832</ele>
        <time>2016-02-21T12:25:12Z</time>
      </trkpt>
      <trkpt lat="44.27513" lon="5.86295">
        <ele>612.9777832</ele>
        <time>2016-02-21T12:25:16Z</time>
      </trkpt>
      <trkpt lat="44.27514" lon="5.86304">
        <ele>613.9389648</ele>
        <time>2016-02-21T12:25:20Z</time>
      </trkpt>
      <trkpt lat="44.27528" lon="5.86334">
        <ele>616.3422852</ele>
        <time>2016-02-21T12:25:35Z</time>
      </trkpt>
      <trkpt lat="44.27532" lon="5.86346">
        <ele>617.3037109</ele>
        <time>2016-02-21T12:25:41Z</time>
      </trkpt>
      <trkpt lat="44.27536" lon="5.86352">
        <ele>618.2648926</ele>
        <time>2016-02-21T12:25:44Z</time>
      </trkpt>
      <trkpt lat="44.2754" lon="5.86366">
        <ele>619.2263184</ele>
        <time>2016-02-21T12:25:50Z</time>
      </trkpt>
      <trkpt lat="44.2755" lon="5.86395">
        <ele>621.6296387</ele>
        <time>2016-02-21T12:26:05Z</time>
      </trkpt>
      <trkpt lat="44.27553" lon="5.86432">
        <ele>623.5524902</ele>
        <time>2016-02-21T12:26:21Z</time>
      </trkpt>
      <trkpt lat="44.27546" lon="5.86457">
        <ele>625.9555664</ele>
        <time>2016-02-21T12:26:33Z</time>
      </trkpt>
      <trkpt lat="44.27544" lon="5.86476">
        <ele>624.5136719</ele>
        <time>2016-02-21T12:26:42Z</time>
      </trkpt>
      <trkpt lat="44.27542" lon="5.86485">
        <ele>625.4748535</ele>
        <time>2016-02-21T12:26:57Z</time>
      </trkpt>
      <trkpt lat="44.27542" lon="5.86487">
        <ele>626.4362793</ele>
        <time>2016-02-21T12:27:33Z</time>
      </trkpt>
      <trkpt lat="44.27546" lon="5.86492">
        <ele>626.4362793</ele>
        <time>2016-02-21T12:27:36Z</time>
      </trkpt>
      <trkpt lat="44.27549" lon="5.86499">
        <ele>628.3588867</ele>
        <time>2016-02-21T12:27:40Z</time>
      </trkpt>
      <trkpt lat="44.27551" lon="5.86505">
        <ele>628.8395996</ele>
        <time>2016-02-21T12:27:43Z</time>
      </trkpt>
      <trkpt lat="44.27561" lon="5.86514">
        <ele>629.3200684</ele>
        <time>2016-02-21T12:27:49Z</time>
      </trkpt>
      <trkpt lat="44.27562" lon="5.86521">
        <ele>630.2814941</ele>
        <time>2016-02-21T12:27:52Z</time>
      </trkpt>
      <trkpt lat="44.27564" lon="5.86525">
        <ele>631.2429199</ele>
        <time>2016-02-21T12:27:54Z</time>
      </trkpt>
      <trkpt lat="44.27579" lon="5.86557">
        <ele>632.6848145</ele>
        <time>2016-02-21T12:28:09Z</time>
      </trkpt>
      <trkpt lat="44.27581" lon="5.86563">
        <ele>633.1652832</ele>
        <time>2016-02-21T12:28:12Z</time>
      </trkpt>
      <trkpt lat="44.27592" lon="5.8659">
        <ele>635.0881348</ele>
        <time>2016-02-21T12:28:26Z</time>
      </trkpt>
      <trkpt lat="44.27603" lon="5.86613">
        <ele>637.0107422</ele>
        <time>2016-02-21T12:28:38Z</time>
      </trkpt>
      <trkpt lat="44.27604" lon="5.86619">
        <ele>637.0107422</ele>
        <time>2016-02-21T12:28:41Z</time>
      </trkpt>
      <trkpt lat="44.27607" lon="5.86631">
        <ele>637.4914551</ele>
        <time>2016-02-21T12:28:47Z</time>
      </trkpt>
      <trkpt lat="44.27614" lon="5.86645">
        <ele>637.972168</ele>
        <time>2016-02-21T12:28:55Z</time>
      </trkpt>
      <trkpt lat="44.27615" lon="5.86649">
        <ele>638.9335938</ele>
        <time>2016-02-21T12:28:57Z</time>
      </trkpt>
      <trkpt lat="44.27616" lon="5.86653">
        <ele>638.9335938</ele>
        <time>2016-02-21T12:28:59Z</time>
      </trkpt>
      <trkpt lat="44.27616" lon="5.86657">
        <ele>639.4140625</ele>
        <time>2016-02-21T12:29:02Z</time>
      </trkpt>
      <trkpt lat="44.27624" lon="5.86675">
        <ele>640.3754883</ele>
        <time>2016-02-21T12:29:10Z</time>
      </trkpt>
      <trkpt lat="44.27634" lon="5.86689">
        <ele>641.8173828</ele>
        <time>2016-02-21T12:29:17Z</time>
      </trkpt>
      <trkpt lat="44.2765" lon="5.86714">
        <ele>643.7399902</ele>
        <time>2016-02-21T12:29:30Z</time>
      </trkpt>
      <trkpt lat="44.2766" lon="5.86734">
        <ele>645.1818848</ele>
        <time>2016-02-21T12:29:42Z</time>
      </trkpt>
      <trkpt lat="44.27663" lon="5.8674">
        <ele>646.1433105</ele>
        <time>2016-02-21T12:29:45Z</time>
      </trkpt>
      <trkpt lat="44.27674" lon="5.86769">
        <ele>648.065918</ele>
        <time>2016-02-21T12:29:59Z</time>
      </trkpt>
      <trkpt lat="44.27679" lon="5.86777">
        <ele>648.065918</ele>
        <time>2016-02-21T12:30:03Z</time>
      </trkpt>
      <trkpt lat="44.27694" lon="5.86816">
        <ele>650.4692383</ele>
        <time>2016-02-21T12:30:23Z</time>
      </trkpt>
      <trkpt lat="44.2771" lon="5.86855">
        <ele>650.949707</ele>
        <time>2016-02-21T12:30:39Z</time>
      </trkpt>
      <trkpt lat="44.27713" lon="5.8686">
        <ele>650.949707</ele>
        <time>2016-02-21T12:30:43Z</time>
      </trkpt>
      <trkpt lat="44.27714" lon="5.86863">
        <ele>650.4692383</ele>
        <time>2016-02-21T12:30:45Z</time>
      </trkpt>
      <trkpt lat="44.27713" lon="5.86871">
        <ele>650.4692383</ele>
        <time>2016-02-21T12:30:48Z</time>
      </trkpt>
      <trkpt lat="44.27708" lon="5.86906">
        <ele>648.5463867</ele>
        <time>2016-02-21T12:30:59Z</time>
      </trkpt>
      <trkpt lat="44.27709" lon="5.86909">
        <ele>648.065918</ele>
        <time>2016-02-21T12:31:00Z</time>
      </trkpt>
      <trkpt lat="44.27712" lon="5.8695">
        <ele>648.5463867</ele>
        <time>2016-02-21T12:31:11Z</time>
      </trkpt>
      <trkpt lat="44.27711" lon="5.86957">
        <ele>649.0270996</ele>
        <time>2016-02-21T12:31:13Z</time>
      </trkpt>
      <trkpt lat="44.27716" lon="5.87002">
        <ele>649.5078125</ele>
        <time>2016-02-21T12:31:28Z</time>
      </trkpt>
      <trkpt lat="44.27719" lon="5.8704">
        <ele>651.4304199</ele>
        <time>2016-02-21T12:31:41Z</time>
      </trkpt>
      <trkpt lat="44.27721" lon="5.87089">
        <ele>654.3146973</ele>
        <time>2016-02-21T12:31:59Z</time>
      </trkpt>
      <trkpt lat="44.27723" lon="5.87138">
        <ele>657.6791992</ele>
        <time>2016-02-21T12:32:18Z</time>
      </trkpt>
      <trkpt lat="44.27725" lon="5.8719">
        <ele>661.0437012</ele>
        <time>2016-02-21T12:32:39Z</time>
      </trkpt>
      <trkpt lat="44.27736" lon="5.87248">
        <ele>662.005127</ele>
        <time>2016-02-21T12:32:59Z</time>
      </trkpt>
      <trkpt lat="44.27757" lon="5.87341">
        <ele>660.5629883</ele>
        <time>2016-02-21T12:33:21Z</time>
      </trkpt>
      <trkpt lat="44.27784" lon="5.87434">
        <ele>658.6403809</ele>
        <time>2016-02-21T12:33:39Z</time>
      </trkpt>
      <trkpt lat="44.27803" lon="5.87474">
        <ele>656.7177734</ele>
        <time>2016-02-21T12:33:48Z</time>
      </trkpt>
      <trkpt lat="44.27844" lon="5.87493">
        <ele>657.1984863</ele>
        <time>2016-02-21T12:33:59Z</time>
      </trkpt>
      <trkpt lat="44.27862" lon="5.87574">
        <ele>655.2758789</ele>
        <time>2016-02-21T12:34:12Z</time>
      </trkpt>
      <trkpt lat="44.27867" lon="5.87591">
        <ele>655.7565918</ele>
        <time>2016-02-21T12:34:15Z</time>
      </trkpt>
      <trkpt lat="44.27879" lon="5.87611">
        <ele>656.2370605</ele>
        <time>2016-02-21T12:34:19Z</time>
      </trkpt>
      <trkpt lat="44.27899" lon="5.87634">
        <ele>655.7565918</ele>
        <time>2016-02-21T12:34:25Z</time>
      </trkpt>
      <trkpt lat="44.27934" lon="5.87663">
        <ele>657.1984863</ele>
        <time>2016-02-21T12:34:36Z</time>
      </trkpt>
      <trkpt lat="44.2799" lon="5.87698">
        <ele>659.6018066</ele>
        <time>2016-02-21T12:34:55Z</time>
      </trkpt>
      <trkpt lat="44.28041" lon="5.87724">
        <ele>662.005127</ele>
        <time>2016-02-21T12:35:13Z</time>
      </trkpt>
      <trkpt lat="44.28085" lon="5.87761">
        <ele>662.4855957</ele>
        <time>2016-02-21T12:35:29Z</time>
      </trkpt>
      <trkpt lat="44.28123" lon="5.87817">
        <ele>663.4470215</ele>
        <time>2016-02-21T12:35:45Z</time>
      </trkpt>
      <trkpt lat="44.28169" lon="5.87907">
        <ele>662.9663086</ele>
        <time>2016-02-21T12:36:08Z</time>
      </trkpt>
      <trkpt lat="44.28189" lon="5.87936">
        <ele>662.4855957</ele>
        <time>2016-02-21T12:36:16Z</time>
      </trkpt>
      <trkpt lat="44.28215" lon="5.8797">
        <ele>661.5244141</ele>
        <time>2016-02-21T12:36:24Z</time>
      </trkpt>
      <trkpt lat="44.28244" lon="5.88001">
        <ele>661.5244141</ele>
        <time>2016-02-21T12:36:32Z</time>
      </trkpt>
      <trkpt lat="44.28302" lon="5.8804">
        <ele>662.4855957</ele>
        <time>2016-02-21T12:36:48Z</time>
      </trkpt>
      <trkpt lat="44.2835" lon="5.88078">
        <ele>662.4855957</ele>
        <time>2016-02-21T12:37:02Z</time>
      </trkpt>
      <trkpt lat="44.2838" lon="5.88107">
        <ele>662.005127</ele>
        <time>2016-02-21T12:37:11Z</time>
      </trkpt>
      <trkpt lat="44.28416" lon="5.88145">
        <ele>661.0437012</ele>
        <time>2016-02-21T12:37:20Z</time>
      </trkpt>
      <trkpt lat="44.28446" lon="5.88186">
        <ele>660.5629883</ele>
        <time>2016-02-21T12:37:28Z</time>
      </trkpt>
      <trkpt lat="44.28464" lon="5.88246">
        <ele>662.005127</ele>
        <time>2016-02-21T12:37:40Z</time>
      </trkpt>
      <trkpt lat="44.28478" lon="5.88281">
        <ele>664.888916</ele>
        <time>2016-02-21T12:37:50Z</time>
      </trkpt>
      <trkpt lat="44.28496" lon="5.8832">
        <ele>666.3308105</ele>
        <time>2016-02-21T12:38:02Z</time>
      </trkpt>
      <trkpt lat="44.2853" lon="5.88381">
        <ele>669.2150879</ele>
        <time>2016-02-21T12:38:21Z</time>
      </trkpt>
      <trkpt lat="44.28575" lon="5.88416">
        <ele>669.6958008</ele>
        <time>2016-02-21T12:38:39Z</time>
      </trkpt>
      <trkpt lat="44.28607" lon="5.88467">
        <ele>667.7727051</ele>
        <time>2016-02-21T12:38:53Z</time>
      </trkpt>
      <trkpt lat="44.28613" lon="5.88487">
        <ele>665.8503418</ele>
        <time>2016-02-21T12:38:56Z</time>
      </trkpt>
      <trkpt lat="44.28619" lon="5.88502">
        <ele>664.4082031</ele>
        <time>2016-02-21T12:38:58Z</time>
      </trkpt>
      <trkpt lat="44.28631" lon="5.88525">
        <ele>661.5244141</ele>
        <time>2016-02-21T12:39:02Z</time>
      </trkpt>
      <trkpt lat="44.28643" lon="5.88538">
        <ele>660.5629883</ele>
        <time>2016-02-21T12:39:05Z</time>
      </trkpt>
      <trkpt lat="44.28651" lon="5.88546">
        <ele>660.0822754</ele>
        <time>2016-02-21T12:39:07Z</time>
      </trkpt>
      <trkpt lat="44.28664" lon="5.88556">
        <ele>659.1210938</ele>
        <time>2016-02-21T12:39:10Z</time>
      </trkpt>
      <trkpt lat="44.28673" lon="5.88567">
        <ele>658.1599121</ele>
        <time>2016-02-21T12:39:13Z</time>
      </trkpt>
      <trkpt lat="44.28685" lon="5.88575">
        <ele>657.1984863</ele>
        <time>2016-02-21T12:39:16Z</time>
      </trkpt>
      <trkpt lat="44.28699" lon="5.88586">
        <ele>656.7177734</ele>
        <time>2016-02-21T12:39:19Z</time>
      </trkpt>
      <trkpt lat="44.28767" lon="5.88612">
        <ele>655.2758789</ele>
        <time>2016-02-21T12:39:32Z</time>
      </trkpt>
      <trkpt lat="44.28776" lon="5.88614">
        <ele>655.2758789</ele>
        <time>2016-02-21T12:39:34Z</time>
      </trkpt>
      <trkpt lat="44.2881" lon="5.88639">
        <ele>653.8339844</ele>
        <time>2016-02-21T12:39:43Z</time>
      </trkpt>
      <trkpt lat="44.28829" lon="5.88654">
        <ele>652.3918457</ele>
        <time>2016-02-21T12:39:47Z</time>
      </trkpt>
      <trkpt lat="44.28845" lon="5.88709">
        <ele>651.9111328</ele>
        <time>2016-02-21T12:39:56Z</time>
      </trkpt>
      <trkpt lat="44.28847" lon="5.88721">
        <ele>652.3918457</ele>
        <time>2016-02-21T12:39:58Z</time>
      </trkpt>
      <trkpt lat="44.28857" lon="5.88751">
        <ele>650.949707</ele>
        <time>2016-02-21T12:40:04Z</time>
      </trkpt>
      <trkpt lat="44.2886" lon="5.88763">
        <ele>650.949707</ele>
        <time>2016-02-21T12:40:06Z</time>
      </trkpt>
      <trkpt lat="44.28867" lon="5.88788">
        <ele>649.0270996</ele>
        <time>2016-02-21T12:40:10Z</time>
      </trkpt>
      <trkpt lat="44.28872" lon="5.88802">
        <ele>648.065918</ele>
        <time>2016-02-21T12:40:12Z</time>
      </trkpt>
      <trkpt lat="44.28891" lon="5.88835">
        <ele>644.7011719</ele>
        <time>2016-02-21T12:40:17Z</time>
      </trkpt>
      <trkpt lat="44.289" lon="5.8885">
        <ele>643.2592773</ele>
        <time>2016-02-21T12:40:19Z</time>
      </trkpt>
      <trkpt lat="44.28906" lon="5.88867">
        <ele>641.8173828</ele>
        <time>2016-02-21T12:40:21Z</time>
      </trkpt>
      <trkpt lat="44.28911" lon="5.88884">
        <ele>637.0107422</ele>
        <time>2016-02-21T12:40:23Z</time>
      </trkpt>
      <trkpt lat="44.28914" lon="5.88893">
        <ele>637.0107422</ele>
        <time>2016-02-21T12:40:24Z</time>
      </trkpt>
      <trkpt lat="44.28921" lon="5.88911">
        <ele>635.5686035</ele>
        <time>2016-02-21T12:40:26Z</time>
      </trkpt>
      <trkpt lat="44.28928" lon="5.88927">
        <ele>633.1652832</ele>
        <time>2016-02-21T12:40:28Z</time>
      </trkpt>
      <trkpt lat="44.28935" lon="5.88944">
        <ele>629.3200684</ele>
        <time>2016-02-21T12:40:30Z</time>
      </trkpt>
      <trkpt lat="44.28937" lon="5.88951">
        <ele>629.3200684</ele>
        <time>2016-02-21T12:40:31Z</time>
      </trkpt>
      <trkpt lat="44.28942" lon="5.8897">
        <ele>627.8781738</ele>
        <time>2016-02-21T12:40:33Z</time>
      </trkpt>
      <trkpt lat="44.28947" lon="5.88991">
        <ele>625.4748535</ele>
        <time>2016-02-21T12:40:35Z</time>
      </trkpt>
      <trkpt lat="44.28953" lon="5.89023">
        <ele>623.0717773</ele>
        <time>2016-02-21T12:40:38Z</time>
      </trkpt>
      <trkpt lat="44.28958" lon="5.89047">
        <ele>620.668457</ele>
        <time>2016-02-21T12:40:40Z</time>
      </trkpt>
      <trkpt lat="44.28957" lon="5.89066">
        <ele>619.2263184</ele>
        <time>2016-02-21T12:40:42Z</time>
      </trkpt>
      <trkpt lat="44.28957" lon="5.89074">
        <ele>617.3037109</ele>
        <time>2016-02-21T12:40:43Z</time>
      </trkpt>
      <trkpt lat="44.28959" lon="5.89087">
        <ele>616.3422852</ele>
        <time>2016-02-21T12:40:45Z</time>
      </trkpt>
      <trkpt lat="44.28963" lon="5.891">
        <ele>616.3422852</ele>
        <time>2016-02-21T12:40:47Z</time>
      </trkpt>
      <trkpt lat="44.2897" lon="5.89119">
        <ele>615.3811035</ele>
        <time>2016-02-21T12:40:50Z</time>
      </trkpt>
      <trkpt lat="44.2898" lon="5.89138">
        <ele>613.9389648</ele>
        <time>2016-02-21T12:40:53Z</time>
      </trkpt>
      <trkpt lat="44.28993" lon="5.89157">
        <ele>611.5358887</ele>
        <time>2016-02-21T12:40:56Z</time>
      </trkpt>
      <trkpt lat="44.2905" lon="5.89237">
        <ele>610.5744629</ele>
        <time>2016-02-21T12:41:06Z</time>
      </trkpt>
      <trkpt lat="44.29099" lon="5.89281">
        <ele>607.6906738</ele>
        <time>2016-02-21T12:41:12Z</time>
      </trkpt>
      <trkpt lat="44.29151" lon="5.89327">
        <ele>603.8452148</ele>
        <time>2016-02-21T12:41:18Z</time>
      </trkpt>
      <trkpt lat="44.29172" lon="5.89366">
        <ele>602.4030762</ele>
        <time>2016-02-21T12:41:22Z</time>
      </trkpt>
      <trkpt lat="44.29192" lon="5.89405">
        <ele>600</ele>
        <time>2016-02-21T12:41:26Z</time>
      </trkpt>
      <trkpt lat="44.292" lon="5.89425">
        <ele>597.5966797</ele>
        <time>2016-02-21T12:41:28Z</time>
      </trkpt>
      <trkpt lat="44.29225" lon="5.89481">
        <ele>594.2321777</ele>
        <time>2016-02-21T12:41:34Z</time>
      </trkpt>
      <trkpt lat="44.29228" lon="5.8949">
        <ele>594.2321777</ele>
        <time>2016-02-21T12:41:35Z</time>
      </trkpt>
      <trkpt lat="44.29234" lon="5.89508">
        <ele>591.8288574</ele>
        <time>2016-02-21T12:41:37Z</time>
      </trkpt>
      <trkpt lat="44.29247" lon="5.8955">
        <ele>594.2321777</ele>
        <time>2016-02-21T12:41:42Z</time>
      </trkpt>
      <trkpt lat="44.29249" lon="5.89558">
        <ele>594.7126465</ele>
        <time>2016-02-21T12:41:43Z</time>
      </trkpt>
      <trkpt lat="44.29247" lon="5.89592">
        <ele>595.1933594</ele>
        <time>2016-02-21T12:41:48Z</time>
      </trkpt>
      <trkpt lat="44.29222" lon="5.8965">
        <ele>596.635498</ele>
        <time>2016-02-21T12:42:04Z</time>
      </trkpt>
      <trkpt lat="44.29215" lon="5.89674">
        <ele>598.5578613</ele>
        <time>2016-02-21T12:42:14Z</time>
      </trkpt>
      <trkpt lat="44.2922" lon="5.89683">
        <ele>599.5192871</ele>
        <time>2016-02-21T12:42:26Z</time>
      </trkpt>
      <trkpt lat="44.2922" lon="5.89683">
        <ele>600.9611816</ele>
        <time>2016-02-21T12:42:36Z</time>
      </trkpt>
      <trkpt lat="44.29219" lon="5.89683">
        <ele>599.0385742</ele>
        <time>2016-02-21T12:43:10Z</time>
      </trkpt>
      <trkpt lat="44.29217" lon="5.89688">
        <ele>598.5578613</ele>
        <time>2016-02-21T12:43:13Z</time>
      </trkpt>
      <trkpt lat="44.29221" lon="5.89692">
        <ele>600.4807129</ele>
        <time>2016-02-21T12:43:17Z</time>
      </trkpt>
      <trkpt lat="44.29222" lon="5.89691">
        <ele>600</ele>
        <time>2016-02-21T12:43:18Z</time>
      </trkpt>
      <trkpt lat="44.29226" lon="5.89684">
        <ele>600.4807129</ele>
        <time>2016-02-21T12:43:21Z</time>
      </trkpt>
      <trkpt lat="44.29233" lon="5.89682">
        <ele>600.9611816</ele>
        <time>2016-02-21T12:43:25Z</time>
      </trkpt>
      <trkpt lat="44.29237" lon="5.89676">
        <ele>601.9226074</ele>
        <time>2016-02-21T12:43:27Z</time>
      </trkpt>
      <trkpt lat="44.29259" lon="5.89633">
        <ele>601.4418945</ele>
        <time>2016-02-21T12:43:42Z</time>
      </trkpt>
      <trkpt lat="44.29269" lon="5.8962">
        <ele>601.4418945</ele>
        <time>2016-02-21T12:43:47Z</time>
      </trkpt>
      <trkpt lat="44.29276" lon="5.89608">
        <ele>600.9611816</ele>
        <time>2016-02-21T12:43:52Z</time>
      </trkpt>
      <trkpt lat="44.29316" lon="5.8959">
        <ele>600</ele>
        <time>2016-02-21T12:44:01Z</time>
      </trkpt>
      <trkpt lat="44.29353" lon="5.89584">
        <ele>601.9226074</ele>
        <time>2016-02-21T12:44:11Z</time>
      </trkpt>
      <trkpt lat="44.29369" lon="5.89581">
        <ele>601.4418945</ele>
        <time>2016-02-21T12:44:15Z</time>
      </trkpt>
      <trkpt lat="44.2942" lon="5.89577">
        <ele>601.9226074</ele>
        <time>2016-02-21T12:44:28Z</time>
      </trkpt>
      <trkpt lat="44.2947" lon="5.89574">
        <ele>601.4418945</ele>
        <time>2016-02-21T12:44:41Z</time>
      </trkpt>
      <trkpt lat="44.29529" lon="5.89552">
        <ele>600</ele>
        <time>2016-02-21T12:44:52Z</time>
      </trkpt>
      <trkpt lat="44.29574" lon="5.89529">
        <ele>598.5578613</ele>
        <time>2016-02-21T12:44:58Z</time>
      </trkpt>
      <trkpt lat="44.29601" lon="5.89523">
        <ele>597.1159668</ele>
        <time>2016-02-21T12:45:01Z</time>
      </trkpt>
      <trkpt lat="44.29673" lon="5.89521">
        <ele>593.7514648</ele>
        <time>2016-02-21T12:45:09Z</time>
      </trkpt>
      <trkpt lat="44.29691" lon="5.89522">
        <ele>592.7902832</ele>
        <time>2016-02-21T12:45:11Z</time>
      </trkpt>
      <trkpt lat="44.29764" lon="5.89527">
        <ele>592.3095703</ele>
        <time>2016-02-21T12:45:22Z</time>
      </trkpt>
      <trkpt lat="44.29788" lon="5.89527">
        <ele>592.7902832</ele>
        <time>2016-02-21T12:45:31Z</time>
      </trkpt>
      <trkpt lat="44.29833" lon="5.89524">
        <ele>593.270752</ele>
        <time>2016-02-21T12:45:44Z</time>
      </trkpt>
      <trkpt lat="44.29884" lon="5.89509">
        <ele>593.270752</ele>
        <time>2016-02-21T12:45:56Z</time>
      </trkpt>
      <trkpt lat="44.29952" lon="5.89488">
        <ele>592.3095703</ele>
        <time>2016-02-21T12:46:10Z</time>
      </trkpt>
      <trkpt lat="44.30016" lon="5.89468">
        <ele>591.8288574</ele>
        <time>2016-02-21T12:46:22Z</time>
      </trkpt>
      <trkpt lat="44.30124" lon="5.89437">
        <ele>590.3869629</ele>
        <time>2016-02-21T12:46:43Z</time>
      </trkpt>
      <trkpt lat="44.30145" lon="5.8943">
        <ele>590.3869629</ele>
        <time>2016-02-21T12:46:47Z</time>
      </trkpt>
      <trkpt lat="44.30207" lon="5.8941">
        <ele>589.4255371</ele>
        <time>2016-02-21T12:47:00Z</time>
      </trkpt>
      <trkpt lat="44.30283" lon="5.8939">
        <ele>589.4255371</ele>
        <time>2016-02-21T12:47:15Z</time>
      </trkpt>
      <trkpt lat="44.30357" lon="5.89365">
        <ele>590.8674316</ele>
        <time>2016-02-21T12:47:32Z</time>
      </trkpt>
      <trkpt lat="44.30393" lon="5.89354">
        <ele>591.8288574</ele>
        <time>2016-02-21T12:47:44Z</time>
      </trkpt>
      <trkpt lat="44.30445" lon="5.89339">
        <ele>592.7902832</ele>
        <time>2016-02-21T12:47:58Z</time>
      </trkpt>
      <trkpt lat="44.30522" lon="5.89318">
        <ele>592.3095703</ele>
        <time>2016-02-21T12:48:14Z</time>
      </trkpt>
      <trkpt lat="44.3061" lon="5.89293">
        <ele>591.3481445</ele>
        <time>2016-02-21T12:48:33Z</time>
      </trkpt>
      <trkpt lat="44.30703" lon="5.89264">
        <ele>590.3869629</ele>
        <time>2016-02-21T12:48:54Z</time>
      </trkpt>
      <trkpt lat="44.30709" lon="5.89262">
        <ele>590.8674316</ele>
        <time>2016-02-21T12:48:56Z</time>
      </trkpt>
      <trkpt lat="44.3072" lon="5.89269">
        <ele>590.8674316</ele>
        <time>2016-02-21T12:49:00Z</time>
      </trkpt>
      <trkpt lat="44.30718" lon="5.8927">
        <ele>590.8674316</ele>
        <time>2016-02-21T12:49:12Z</time>
      </trkpt>
      <trkpt lat="44.30719" lon="5.8927">
        <ele>590.3869629</ele>
        <time>2016-02-21T12:49:38Z</time>
      </trkpt>
      <trkpt lat="44.30719" lon="5.8927">
        <ele>590.3869629</ele>
        <time>2016-02-21T12:49:45Z</time>
      </trkpt>
      <trkpt lat="44.30725" lon="5.89257">
        <ele>590.8674316</ele>
        <time>2016-02-21T12:49:52Z</time>
      </trkpt>
      <trkpt lat="44.30767" lon="5.89244">
        <ele>591.3481445</ele>
        <time>2016-02-21T12:50:04Z</time>
      </trkpt>
      <trkpt lat="44.3082" lon="5.89228">
        <ele>592.7902832</ele>
        <time>2016-02-21T12:50:20Z</time>
      </trkpt>
      <trkpt lat="44.3086" lon="5.89218">
        <ele>594.2321777</ele>
        <time>2016-02-21T12:50:35Z</time>
      </trkpt>
      <trkpt lat="44.30895" lon="5.89205">
        <ele>595.6740723</ele>
        <time>2016-02-21T12:50:49Z</time>
      </trkpt>
      <trkpt lat="44.30926" lon="5.89196">
        <ele>597.5966797</ele>
        <time>2016-02-21T12:51:02Z</time>
      </trkpt>
      <trkpt lat="44.30957" lon="5.89186">
        <ele>598.0773926</ele>
        <time>2016-02-21T12:51:14Z</time>
      </trkpt>
      <trkpt lat="44.30992" lon="5.89177">
        <ele>600</ele>
        <time>2016-02-21T12:51:29Z</time>
      </trkpt>
      <trkpt lat="44.31035" lon="5.89167">
        <ele>600.9611816</ele>
        <time>2016-02-21T12:51:45Z</time>
      </trkpt>
      <trkpt lat="44.31082" lon="5.89159">
        <ele>600.4807129</ele>
        <time>2016-02-21T12:51:59Z</time>
      </trkpt>
      <trkpt lat="44.31113" lon="5.89154">
        <ele>600.9611816</ele>
        <time>2016-02-21T12:52:07Z</time>
      </trkpt>
      <trkpt lat="44.31121" lon="5.89155">
        <ele>601.4418945</ele>
        <time>2016-02-21T12:52:09Z</time>
      </trkpt>
      <trkpt lat="44.31169" lon="5.89147">
        <ele>601.4418945</ele>
        <time>2016-02-21T12:52:21Z</time>
      </trkpt>
      <trkpt lat="44.31221" lon="5.89138">
        <ele>601.9226074</ele>
        <time>2016-02-21T12:52:34Z</time>
      </trkpt>
      <trkpt lat="44.31272" lon="5.89131">
        <ele>602.8837891</ele>
        <time>2016-02-21T12:52:48Z</time>
      </trkpt>
      <trkpt lat="44.31301" lon="5.89127">
        <ele>603.364502</ele>
        <time>2016-02-21T12:52:57Z</time>
      </trkpt>
      <trkpt lat="44.31331" lon="5.89122">
        <ele>602.8837891</ele>
        <time>2016-02-21T12:53:05Z</time>
      </trkpt>
      <trkpt lat="44.31408" lon="5.8911">
        <ele>602.4030762</ele>
        <time>2016-02-21T12:53:18Z</time>
      </trkpt>
      <trkpt lat="44.31471" lon="5.89102">
        <ele>601.9226074</ele>
        <time>2016-02-21T12:53:32Z</time>
      </trkpt>
      <trkpt lat="44.31527" lon="5.89099">
        <ele>601.4418945</ele>
        <time>2016-02-21T12:53:45Z</time>
      </trkpt>
      <trkpt lat="44.31581" lon="5.891">
        <ele>599.5192871</ele>
        <time>2016-02-21T12:53:56Z</time>
      </trkpt>
      <trkpt lat="44.31601" lon="5.891">
        <ele>598.0773926</ele>
        <time>2016-02-21T12:53:59Z</time>
      </trkpt>
      <trkpt lat="44.31625" lon="5.891">
        <ele>596.635498</ele>
        <time>2016-02-21T12:54:03Z</time>
      </trkpt>
      <trkpt lat="44.31736" lon="5.89082">
        <ele>596.1547852</ele>
        <time>2016-02-21T12:54:20Z</time>
      </trkpt>
      <trkpt lat="44.31827" lon="5.89025">
        <ele>593.270752</ele>
        <time>2016-02-21T12:54:34Z</time>
      </trkpt>
      <trkpt lat="44.31839" lon="5.89016">
        <ele>592.3095703</ele>
        <time>2016-02-21T12:54:36Z</time>
      </trkpt>
      <trkpt lat="44.31927" lon="5.88992">
        <ele>591.3481445</ele>
        <time>2016-02-21T12:54:48Z</time>
      </trkpt>
      <trkpt lat="44.31957" lon="5.89003">
        <ele>589.4255371</ele>
        <time>2016-02-21T12:54:52Z</time>
      </trkpt>
      <trkpt lat="44.31977" lon="5.89015">
        <ele>589.90625</ele>
        <time>2016-02-21T12:54:55Z</time>
      </trkpt>
      <trkpt lat="44.31996" lon="5.89029">
        <ele>588.4643555</ele>
        <time>2016-02-21T12:54:58Z</time>
      </trkpt>
      <trkpt lat="44.32032" lon="5.89049">
        <ele>586.5415039</ele>
        <time>2016-02-21T12:55:04Z</time>
      </trkpt>
      <trkpt lat="44.32117" lon="5.89067">
        <ele>584.1381836</ele>
        <time>2016-02-21T12:55:17Z</time>
      </trkpt>
      <trkpt lat="44.32137" lon="5.89073">
        <ele>586.5415039</ele>
        <time>2016-02-21T12:55:20Z</time>
      </trkpt>
      <trkpt lat="44.3215" lon="5.89075">
        <ele>585.5800781</ele>
        <time>2016-02-21T12:55:22Z</time>
      </trkpt>
      <trkpt lat="44.32237" lon="5.89102">
        <ele>586.060791</ele>
        <time>2016-02-21T12:55:38Z</time>
      </trkpt>
      <trkpt lat="44.32247" lon="5.89104">
        <ele>585.5800781</ele>
        <time>2016-02-21T12:55:40Z</time>
      </trkpt>
      <trkpt lat="44.32343" lon="5.89136">
        <ele>583.1767578</ele>
        <time>2016-02-21T12:56:00Z</time>
      </trkpt>
      <trkpt lat="44.32372" lon="5.89145">
        <ele>585.5800781</ele>
        <time>2016-02-21T12:56:06Z</time>
      </trkpt>
      <trkpt lat="44.32395" lon="5.89153">
        <ele>583.6574707</ele>
        <time>2016-02-21T12:56:11Z</time>
      </trkpt>
      <trkpt lat="44.32483" lon="5.8918">
        <ele>584.1381836</ele>
        <time>2016-02-21T12:56:29Z</time>
      </trkpt>
      <trkpt lat="44.32587" lon="5.89224">
        <ele>584.1381836</ele>
        <time>2016-02-21T12:56:53Z</time>
      </trkpt>
      <trkpt lat="44.32591" lon="5.89226">
        <ele>584.1381836</ele>
        <time>2016-02-21T12:56:54Z</time>
      </trkpt>
      <trkpt lat="44.32649" lon="5.89261">
        <ele>584.6188965</ele>
        <time>2016-02-21T12:57:09Z</time>
      </trkpt>
      <trkpt lat="44.32709" lon="5.89308">
        <ele>584.6188965</ele>
        <time>2016-02-21T12:57:23Z</time>
      </trkpt>
      <trkpt lat="44.32783" lon="5.89362">
        <ele>583.6574707</ele>
        <time>2016-02-21T12:57:42Z</time>
      </trkpt>
      <trkpt lat="44.32832" lon="5.894">
        <ele>584.1381836</ele>
        <time>2016-02-21T12:57:55Z</time>
      </trkpt>
      <trkpt lat="44.32898" lon="5.89448">
        <ele>582.6962891</ele>
        <time>2016-02-21T12:58:13Z</time>
      </trkpt>
      <trkpt lat="44.32976" lon="5.89493">
        <ele>582.6962891</ele>
        <time>2016-02-21T12:58:31Z</time>
      </trkpt>
      <trkpt lat="44.33052" lon="5.89521">
        <ele>582.6962891</ele>
        <time>2016-02-21T12:58:47Z</time>
      </trkpt>
      <trkpt lat="44.33138" lon="5.89553">
        <ele>582.6962891</ele>
        <time>2016-02-21T12:59:07Z</time>
      </trkpt>
      <trkpt lat="44.33227" lon="5.8958">
        <ele>583.6574707</ele>
        <time>2016-02-21T12:59:26Z</time>
      </trkpt>
      <trkpt lat="44.33311" lon="5.89611">
        <ele>582.6962891</ele>
        <time>2016-02-21T12:59:46Z</time>
      </trkpt>
      <trkpt lat="44.33347" lon="5.89622">
        <ele>582.6962891</ele>
        <time>2016-02-21T12:59:53Z</time>
      </trkpt>
      <trkpt lat="44.33409" lon="5.8965">
        <ele>584.1381836</ele>
        <time>2016-02-21T13:00:07Z</time>
      </trkpt>
      <trkpt lat="44.33445" lon="5.89669">
        <ele>582.6962891</ele>
        <time>2016-02-21T13:00:16Z</time>
      </trkpt>
      <trkpt lat="44.3352" lon="5.89707">
        <ele>584.6188965</ele>
        <time>2016-02-21T13:00:34Z</time>
      </trkpt>
      <trkpt lat="44.33555" lon="5.89724">
        <ele>584.6188965</ele>
        <time>2016-02-21T13:00:42Z</time>
      </trkpt>
      <trkpt lat="44.33638" lon="5.89766">
        <ele>584.6188965</ele>
        <time>2016-02-21T13:01:01Z</time>
      </trkpt>
      <trkpt lat="44.33662" lon="5.89781">
        <ele>584.1381836</ele>
        <time>2016-02-21T13:01:07Z</time>
      </trkpt>
      <trkpt lat="44.33724" lon="5.8981">
        <ele>583.6574707</ele>
        <time>2016-02-21T13:01:21Z</time>
      </trkpt>
      <trkpt lat="44.33746" lon="5.89822">
        <ele>579.8122559</ele>
        <time>2016-02-21T13:01:25Z</time>
      </trkpt>
      <trkpt lat="44.33752" lon="5.89825">
        <ele>579.8122559</ele>
        <time>2016-02-21T13:01:26Z</time>
      </trkpt>
      <trkpt lat="44.338" lon="5.89865">
        <ele>582.2155762</ele>
        <time>2016-02-21T13:01:39Z</time>
      </trkpt>
      <trkpt lat="44.33804" lon="5.89869">
        <ele>584.1381836</ele>
        <time>2016-02-21T13:01:41Z</time>
      </trkpt>
      <trkpt lat="44.33818" lon="5.8988">
        <ele>585.0996094</ele>
        <time>2016-02-21T13:01:46Z</time>
      </trkpt>
      <trkpt lat="44.33855" lon="5.89907">
        <ele>586.5415039</ele>
        <time>2016-02-21T13:02:03Z</time>
      </trkpt>
      <trkpt lat="44.33878" lon="5.89935">
        <ele>588.9450684</ele>
        <time>2016-02-21T13:02:18Z</time>
      </trkpt>
      <trkpt lat="44.33902" lon="5.89971">
        <ele>589.4255371</ele>
        <time>2016-02-21T13:02:33Z</time>
      </trkpt>
      <trkpt lat="44.33946" lon="5.90013">
        <ele>589.90625</ele>
        <time>2016-02-21T13:02:50Z</time>
      </trkpt>
      <trkpt lat="44.34001" lon="5.90066">
        <ele>588.4643555</ele>
        <time>2016-02-21T13:03:05Z</time>
      </trkpt>
      <trkpt lat="44.34029" lon="5.90093">
        <ele>589.90625</ele>
        <time>2016-02-21T13:03:16Z</time>
      </trkpt>
      <trkpt lat="44.34039" lon="5.90099">
        <ele>590.3869629</ele>
        <time>2016-02-21T13:03:20Z</time>
      </trkpt>
      <trkpt lat="44.34063" lon="5.90125">
        <ele>592.3095703</ele>
        <time>2016-02-21T13:03:34Z</time>
      </trkpt>
      <trkpt lat="44.34097" lon="5.90149">
        <ele>595.1933594</ele>
        <time>2016-02-21T13:03:48Z</time>
      </trkpt>
      <trkpt lat="44.34127" lon="5.90177">
        <ele>596.1547852</ele>
        <time>2016-02-21T13:04:02Z</time>
      </trkpt>
      <trkpt lat="44.34152" lon="5.90206">
        <ele>595.1933594</ele>
        <time>2016-02-21T13:04:14Z</time>
      </trkpt>
      <trkpt lat="44.34195" lon="5.90262">
        <ele>594.2321777</ele>
        <time>2016-02-21T13:04:27Z</time>
      </trkpt>
      <trkpt lat="44.34276" lon="5.90369">
        <ele>591.8288574</ele>
        <time>2016-02-21T13:04:40Z</time>
      </trkpt>
      <trkpt lat="44.343" lon="5.90394">
        <ele>588.4643555</ele>
        <time>2016-02-21T13:04:43Z</time>
      </trkpt>
      <trkpt lat="44.34307" lon="5.90401">
        <ele>588.9450684</ele>
        <time>2016-02-21T13:04:44Z</time>
      </trkpt>
      <trkpt lat="44.34337" lon="5.90427">
        <ele>585.0996094</ele>
        <time>2016-02-21T13:04:48Z</time>
      </trkpt>
      <trkpt lat="44.34344" lon="5.90432">
        <ele>585.0996094</ele>
        <time>2016-02-21T13:04:49Z</time>
      </trkpt>
      <trkpt lat="44.34366" lon="5.90444">
        <ele>587.0219727</ele>
        <time>2016-02-21T13:04:52Z</time>
      </trkpt>
      <trkpt lat="44.34395" lon="5.90457">
        <ele>587.9833984</ele>
        <time>2016-02-21T13:05:01Z</time>
      </trkpt>
      <trkpt lat="44.34406" lon="5.90463">
        <ele>588.4643555</ele>
        <time>2016-02-21T13:05:05Z</time>
      </trkpt>
      <trkpt lat="44.34418" lon="5.90488">
        <ele>588.4643555</ele>
        <time>2016-02-21T13:05:10Z</time>
      </trkpt>
      <trkpt lat="44.34436" lon="5.90513">
        <ele>587.5026855</ele>
        <time>2016-02-21T13:05:15Z</time>
      </trkpt>
      <trkpt lat="44.34516" lon="5.90586">
        <ele>586.060791</ele>
        <time>2016-02-21T13:05:31Z</time>
      </trkpt>
      <trkpt lat="44.34527" lon="5.90598">
        <ele>586.060791</ele>
        <time>2016-02-21T13:05:34Z</time>
      </trkpt>
      <trkpt lat="44.34555" lon="5.9062">
        <ele>586.5415039</ele>
        <time>2016-02-21T13:05:40Z</time>
      </trkpt>
      <trkpt lat="44.34629" lon="5.90676">
        <ele>586.060791</ele>
        <time>2016-02-21T13:05:57Z</time>
      </trkpt>
      <trkpt lat="44.34662" lon="5.90697">
        <ele>583.6574707</ele>
        <time>2016-02-21T13:06:03Z</time>
      </trkpt>
      <trkpt lat="44.34744" lon="5.90751">
        <ele>580.2929688</ele>
        <time>2016-02-21T13:06:14Z</time>
      </trkpt>
      <trkpt lat="44.348" lon="5.90793">
        <ele>577.4091797</ele>
        <time>2016-02-21T13:06:22Z</time>
      </trkpt>
      <trkpt lat="44.34887" lon="5.90861">
        <ele>576.9284668</ele>
        <time>2016-02-21T13:06:37Z</time>
      </trkpt>
      <trkpt lat="44.3497" lon="5.90931">
        <ele>575.0058594</ele>
        <time>2016-02-21T13:06:54Z</time>
      </trkpt>
      <trkpt lat="44.35021" lon="5.90981">
        <ele>576.4477539</ele>
        <time>2016-02-21T13:07:08Z</time>
      </trkpt>
      <trkpt lat="44.35068" lon="5.91028">
        <ele>577.4091797</ele>
        <time>2016-02-21T13:07:25Z</time>
      </trkpt>
      <trkpt lat="44.35111" lon="5.91067">
        <ele>578.8510742</ele>
        <time>2016-02-21T13:07:41Z</time>
      </trkpt>
      <trkpt lat="44.35149" lon="5.911">
        <ele>579.331543</ele>
        <time>2016-02-21T13:07:56Z</time>
      </trkpt>
      <trkpt lat="44.35187" lon="5.91138">
        <ele>580.7736816</ele>
        <time>2016-02-21T13:08:13Z</time>
      </trkpt>
      <trkpt lat="44.35224" lon="5.91174">
        <ele>581.2543945</ele>
        <time>2016-02-21T13:08:29Z</time>
      </trkpt>
      <trkpt lat="44.35286" lon="5.91229">
        <ele>582.6962891</ele>
        <time>2016-02-21T13:08:53Z</time>
      </trkpt>
      <trkpt lat="44.35352" lon="5.91279">
        <ele>582.6962891</ele>
        <time>2016-02-21T13:09:14Z</time>
      </trkpt>
      <trkpt lat="44.35425" lon="5.91331">
        <ele>583.1767578</ele>
        <time>2016-02-21T13:09:36Z</time>
      </trkpt>
      <trkpt lat="44.35483" lon="5.91372">
        <ele>583.6574707</ele>
        <time>2016-02-21T13:09:54Z</time>
      </trkpt>
      <trkpt lat="44.35534" lon="5.91404">
        <ele>584.1381836</ele>
        <time>2016-02-21T13:10:10Z</time>
      </trkpt>
      <trkpt lat="44.35617" lon="5.91458">
        <ele>583.1767578</ele>
        <time>2016-02-21T13:10:30Z</time>
      </trkpt>
      <trkpt lat="44.35682" lon="5.91503">
        <ele>580.7736816</ele>
        <time>2016-02-21T13:10:44Z</time>
      </trkpt>
      <trkpt lat="44.35686" lon="5.91505">
        <ele>580.7736816</ele>
        <time>2016-02-21T13:10:45Z</time>
      </trkpt>
      <trkpt lat="44.3577" lon="5.91563">
        <ele>581.7348633</ele>
        <time>2016-02-21T13:11:07Z</time>
      </trkpt>
      <trkpt lat="44.35831" lon="5.91605">
        <ele>581.7348633</ele>
        <time>2016-02-21T13:11:24Z</time>
      </trkpt>
      <trkpt lat="44.35835" lon="5.91608">
        <ele>581.7348633</ele>
        <time>2016-02-21T13:11:25Z</time>
      </trkpt>
      <trkpt lat="44.35853" lon="5.91621">
        <ele>581.7348633</ele>
        <time>2016-02-21T13:11:30Z</time>
      </trkpt>
      <trkpt lat="44.35877" lon="5.9164">
        <ele>581.7348633</ele>
        <time>2016-02-21T13:11:37Z</time>
      </trkpt>
      <trkpt lat="44.35946" lon="5.91689">
        <ele>581.2543945</ele>
        <time>2016-02-21T13:11:57Z</time>
      </trkpt>
      <trkpt lat="44.36013" lon="5.91732">
        <ele>581.2543945</ele>
        <time>2016-02-21T13:12:16Z</time>
      </trkpt>
      <trkpt lat="44.36086" lon="5.91782">
        <ele>580.7736816</ele>
        <time>2016-02-21T13:12:36Z</time>
      </trkpt>
      <trkpt lat="44.36152" lon="5.91826">
        <ele>581.2543945</ele>
        <time>2016-02-21T13:12:53Z</time>
      </trkpt>
      <trkpt lat="44.3617" lon="5.91839">
        <ele>581.2543945</ele>
        <time>2016-02-21T13:12:58Z</time>
      </trkpt>
      <trkpt lat="44.3624" lon="5.91886">
        <ele>580.2929688</ele>
        <time>2016-02-21T13:13:17Z</time>
      </trkpt>
      <trkpt lat="44.36307" lon="5.91931">
        <ele>580.7736816</ele>
        <time>2016-02-21T13:13:34Z</time>
      </trkpt>
      <trkpt lat="44.36389" lon="5.91987">
        <ele>580.7736816</ele>
        <time>2016-02-21T13:13:56Z</time>
      </trkpt>
      <trkpt lat="44.36438" lon="5.92023">
        <ele>579.331543</ele>
        <time>2016-02-21T13:14:09Z</time>
      </trkpt>
      <trkpt lat="44.36449" lon="5.92031">
        <ele>579.331543</ele>
        <time>2016-02-21T13:14:12Z</time>
      </trkpt>
      <trkpt lat="44.36458" lon="5.9204">
        <ele>579.8122559</ele>
        <time>2016-02-21T13:14:15Z</time>
      </trkpt>
      <trkpt lat="44.36493" lon="5.92065">
        <ele>580.2929688</ele>
        <time>2016-02-21T13:14:24Z</time>
      </trkpt>
      <trkpt lat="44.36561" lon="5.92111">
        <ele>579.331543</ele>
        <time>2016-02-21T13:14:43Z</time>
      </trkpt>
      <trkpt lat="44.36624" lon="5.92147">
        <ele>578.8510742</ele>
        <time>2016-02-21T13:15:00Z</time>
      </trkpt>
      <trkpt lat="44.36683" lon="5.9216">
        <ele>579.8122559</ele>
        <time>2016-02-21T13:15:13Z</time>
      </trkpt>
      <trkpt lat="44.3672" lon="5.92172">
        <ele>580.7736816</ele>
        <time>2016-02-21T13:15:23Z</time>
      </trkpt>
      <trkpt lat="44.36773" lon="5.92189">
        <ele>580.2929688</ele>
        <time>2016-02-21T13:15:38Z</time>
      </trkpt>
      <trkpt lat="44.36805" lon="5.92202">
        <ele>582.6962891</ele>
        <time>2016-02-21T13:15:52Z</time>
      </trkpt>
      <trkpt lat="44.36811" lon="5.92204">
        <ele>579.8122559</ele>
        <time>2016-02-21T13:15:56Z</time>
      </trkpt>
      <trkpt lat="44.36818" lon="5.92209">
        <ele>582.2155762</ele>
        <time>2016-02-21T13:16:02Z</time>
      </trkpt>
      <trkpt lat="44.36824" lon="5.92216">
        <ele>582.2155762</ele>
        <time>2016-02-21T13:16:07Z</time>
      </trkpt>
      <trkpt lat="44.36831" lon="5.92218">
        <ele>583.6574707</ele>
        <time>2016-02-21T13:16:11Z</time>
      </trkpt>
      <trkpt lat="44.36847" lon="5.92228">
        <ele>581.7348633</ele>
        <time>2016-02-21T13:16:19Z</time>
      </trkpt>
      <trkpt lat="44.36872" lon="5.92245">
        <ele>579.8122559</ele>
        <time>2016-02-21T13:16:26Z</time>
      </trkpt>
      <trkpt lat="44.36876" lon="5.92247">
        <ele>578.8510742</ele>
        <time>2016-02-21T13:16:27Z</time>
      </trkpt>
      <trkpt lat="44.36889" lon="5.92255">
        <ele>581.7348633</ele>
        <time>2016-02-21T13:16:30Z</time>
      </trkpt>
      <trkpt lat="44.36903" lon="5.92265">
        <ele>583.1767578</ele>
        <time>2016-02-21T13:16:33Z</time>
      </trkpt>
      <trkpt lat="44.36919" lon="5.92275">
        <ele>582.2155762</ele>
        <time>2016-02-21T13:16:36Z</time>
      </trkpt>
      <trkpt lat="44.36961" lon="5.92311">
        <ele>579.8122559</ele>
        <time>2016-02-21T13:16:46Z</time>
      </trkpt>
      <trkpt lat="44.36972" lon="5.92322">
        <ele>576.9284668</ele>
        <time>2016-02-21T13:16:49Z</time>
      </trkpt>
      <trkpt lat="44.36979" lon="5.92329">
        <ele>575.0058594</ele>
        <time>2016-02-21T13:16:51Z</time>
      </trkpt>
      <trkpt lat="44.36982" lon="5.92332">
        <ele>578.8510742</ele>
        <time>2016-02-21T13:16:52Z</time>
      </trkpt>
      <trkpt lat="44.36985" lon="5.92334">
        <ele>578.3703613</ele>
        <time>2016-02-21T13:16:53Z</time>
      </trkpt>
      <trkpt lat="44.37046" lon="5.92387">
        <ele>577.4091797</ele>
        <time>2016-02-21T13:17:12Z</time>
      </trkpt>
      <trkpt lat="44.37094" lon="5.92429">
        <ele>576.4477539</ele>
        <time>2016-02-21T13:17:28Z</time>
      </trkpt>
      <trkpt lat="44.37163" lon="5.92488">
        <ele>575.4863281</ele>
        <time>2016-02-21T13:17:51Z</time>
      </trkpt>
      <trkpt lat="44.37203" lon="5.92522">
        <ele>574.5251465</ele>
        <time>2016-02-21T13:18:05Z</time>
      </trkpt>
      <trkpt lat="44.37239" lon="5.92558">
        <ele>575.967041</ele>
        <time>2016-02-21T13:18:19Z</time>
      </trkpt>
      <trkpt lat="44.3728" lon="5.92595">
        <ele>576.9284668</ele>
        <time>2016-02-21T13:18:36Z</time>
      </trkpt>
      <trkpt lat="44.37309" lon="5.92621">
        <ele>578.3703613</ele>
        <time>2016-02-21T13:18:49Z</time>
      </trkpt>
      <trkpt lat="44.37351" lon="5.92656">
        <ele>577.8896484</ele>
        <time>2016-02-21T13:19:08Z</time>
      </trkpt>
      <trkpt lat="44.37387" lon="5.92683">
        <ele>578.8510742</ele>
        <time>2016-02-21T13:19:22Z</time>
      </trkpt>
      <trkpt lat="44.37429" lon="5.92712">
        <ele>578.3703613</ele>
        <time>2016-02-21T13:19:37Z</time>
      </trkpt>
      <trkpt lat="44.37473" lon="5.9274">
        <ele>577.8896484</ele>
        <time>2016-02-21T13:19:53Z</time>
      </trkpt>
      <trkpt lat="44.37515" lon="5.92772">
        <ele>578.3703613</ele>
        <time>2016-02-21T13:20:07Z</time>
      </trkpt>
      <trkpt lat="44.37524" lon="5.92779">
        <ele>579.8122559</ele>
        <time>2016-02-21T13:20:10Z</time>
      </trkpt>
      <trkpt lat="44.3753" lon="5.92783">
        <ele>578.3703613</ele>
        <time>2016-02-21T13:20:12Z</time>
      </trkpt>
      <trkpt lat="44.37592" lon="5.92825">
        <ele>576.9284668</ele>
        <time>2016-02-21T13:20:31Z</time>
      </trkpt>
      <trkpt lat="44.37643" lon="5.9286">
        <ele>576.4477539</ele>
        <time>2016-02-21T13:20:47Z</time>
      </trkpt>
      <trkpt lat="44.37716" lon="5.9291">
        <ele>575.967041</ele>
        <time>2016-02-21T13:21:08Z</time>
      </trkpt>
      <trkpt lat="44.37739" lon="5.92927">
        <ele>575.4863281</ele>
        <time>2016-02-21T13:21:14Z</time>
      </trkpt>
      <trkpt lat="44.3782" lon="5.92985">
        <ele>575.4863281</ele>
        <time>2016-02-21T13:21:33Z</time>
      </trkpt>
      <trkpt lat="44.3787" lon="5.9302">
        <ele>575.4863281</ele>
        <time>2016-02-21T13:21:45Z</time>
      </trkpt>
      <trkpt lat="44.37877" lon="5.93026">
        <ele>575.0058594</ele>
        <time>2016-02-21T13:21:47Z</time>
      </trkpt>
      <trkpt lat="44.37928" lon="5.93061">
        <ele>575.967041</ele>
        <time>2016-02-21T13:22:01Z</time>
      </trkpt>
      <trkpt lat="44.37939" lon="5.93069">
        <ele>575.4863281</ele>
        <time>2016-02-21T13:22:04Z</time>
      </trkpt>
      <trkpt lat="44.37993" lon="5.93108">
        <ele>576.4477539</ele>
        <time>2016-02-21T13:22:19Z</time>
      </trkpt>
      <trkpt lat="44.38062" lon="5.9316">
        <ele>576.9284668</ele>
        <time>2016-02-21T13:22:38Z</time>
      </trkpt>
      <trkpt lat="44.38081" lon="5.93173">
        <ele>575.967041</ele>
        <time>2016-02-21T13:22:49Z</time>
      </trkpt>
      <trkpt lat="44.38082" lon="5.93173">
        <ele>575.967041</ele>
        <time>2016-02-21T13:23:02Z</time>
      </trkpt>
      <trkpt lat="44.38082" lon="5.93173">
        <ele>574.5251465</ele>
        <time>2016-02-21T13:23:04Z</time>
      </trkpt>
      <trkpt lat="44.38083" lon="5.93173">
        <ele>574.5251465</ele>
        <time>2016-02-21T13:23:39Z</time>
      </trkpt>
      <trkpt lat="44.38086" lon="5.93174">
        <ele>575.967041</ele>
        <time>2016-02-21T13:23:41Z</time>
      </trkpt>
      <trkpt lat="44.38089" lon="5.93177">
        <ele>574.5251465</ele>
        <time>2016-02-21T13:23:43Z</time>
      </trkpt>
      <trkpt lat="44.38128" lon="5.93203">
        <ele>575.967041</ele>
        <time>2016-02-21T13:23:57Z</time>
      </trkpt>
      <trkpt lat="44.3819" lon="5.9325">
        <ele>577.8896484</ele>
        <time>2016-02-21T13:24:19Z</time>
      </trkpt>
      <trkpt lat="44.38224" lon="5.93273">
        <ele>576.9284668</ele>
        <time>2016-02-21T13:24:30Z</time>
      </trkpt>
      <trkpt lat="44.38227" lon="5.93274">
        <ele>575.967041</ele>
        <time>2016-02-21T13:24:31Z</time>
      </trkpt>
      <trkpt lat="44.38229" lon="5.9327">
        <ele>575.967041</ele>
        <time>2016-02-21T13:24:42Z</time>
      </trkpt>
      <trkpt lat="44.38204" lon="5.9325">
        <ele>575.0058594</ele>
        <time>2016-02-21T13:24:51Z</time>
      </trkpt>
      <trkpt lat="44.38141" lon="5.93205">
        <ele>574.5251465</ele>
        <time>2016-02-21T13:25:04Z</time>
      </trkpt>
      <trkpt lat="44.38129" lon="5.93197">
        <ele>576.4477539</ele>
        <time>2016-02-21T13:25:06Z</time>
      </trkpt>
      <trkpt lat="44.38052" lon="5.9314">
        <ele>574.5251465</ele>
        <time>2016-02-21T13:25:18Z</time>
      </trkpt>
      <trkpt lat="44.37913" lon="5.9304">
        <ele>573.5639648</ele>
        <time>2016-02-21T13:25:38Z</time>
      </trkpt>
      <trkpt lat="44.37796" lon="5.92957">
        <ele>572.1218262</ele>
        <time>2016-02-21T13:25:55Z</time>
      </trkpt>
      <trkpt lat="44.37686" lon="5.92885">
        <ele>573.083252</ele>
        <time>2016-02-21T13:26:12Z</time>
      </trkpt>
      <trkpt lat="44.37545" lon="5.92787">
        <ele>572.6025391</ele>
        <time>2016-02-21T13:26:35Z</time>
      </trkpt>
      <trkpt lat="44.37429" lon="5.92708">
        <ele>573.5639648</ele>
        <time>2016-02-21T13:26:54Z</time>
      </trkpt>
      <trkpt lat="44.37345" lon="5.92646">
        <ele>574.5251465</ele>
        <time>2016-02-21T13:27:09Z</time>
      </trkpt>
      <trkpt lat="44.37319" lon="5.92624">
        <ele>573.083252</ele>
        <time>2016-02-21T13:27:17Z</time>
      </trkpt>
      <trkpt lat="44.37323" lon="5.92631">
        <ele>572.6025391</ele>
        <time>2016-02-21T13:27:41Z</time>
      </trkpt>
      <trkpt lat="44.37323" lon="5.92631">
        <ele>573.083252</ele>
        <time>2016-02-21T13:27:43Z</time>
      </trkpt>
      <trkpt lat="44.37328" lon="5.92636">
        <ele>572.6025391</ele>
        <time>2016-02-21T13:27:47Z</time>
      </trkpt>
      <trkpt lat="44.37335" lon="5.92641">
        <ele>574.0444336</ele>
        <time>2016-02-21T13:27:51Z</time>
      </trkpt>
      <trkpt lat="44.37366" lon="5.92663">
        <ele>574.0444336</ele>
        <time>2016-02-21T13:28:04Z</time>
      </trkpt>
      <trkpt lat="44.37415" lon="5.92699">
        <ele>575.0058594</ele>
        <time>2016-02-21T13:28:21Z</time>
      </trkpt>
      <trkpt lat="44.3747" lon="5.92736">
        <ele>574.5251465</ele>
        <time>2016-02-21T13:28:39Z</time>
      </trkpt>
      <trkpt lat="44.37533" lon="5.92776">
        <ele>574.5251465</ele>
        <time>2016-02-21T13:29:00Z</time>
      </trkpt>
      <trkpt lat="44.37577" lon="5.92807">
        <ele>573.5639648</ele>
        <time>2016-02-21T13:29:15Z</time>
      </trkpt>
      <trkpt lat="44.37654" lon="5.9286">
        <ele>572.6025391</ele>
        <time>2016-02-21T13:29:40Z</time>
      </trkpt>
      <trkpt lat="44.37715" lon="5.92898">
        <ele>572.1218262</ele>
        <time>2016-02-21T13:29:59Z</time>
      </trkpt>
      <trkpt lat="44.37765" lon="5.92934">
        <ele>571.6408691</ele>
        <time>2016-02-21T13:30:15Z</time>
      </trkpt>
      <trkpt lat="44.37812" lon="5.92964">
        <ele>571.1604004</ele>
        <time>2016-02-21T13:30:30Z</time>
      </trkpt>
      <trkpt lat="44.37826" lon="5.92976">
        <ele>571.1604004</ele>
        <time>2016-02-21T13:30:35Z</time>
      </trkpt>
      <trkpt lat="44.37873" lon="5.93009">
        <ele>571.1604004</ele>
        <time>2016-02-21T13:30:51Z</time>
      </trkpt>
      <trkpt lat="44.37922" lon="5.93041">
        <ele>571.1604004</ele>
        <time>2016-02-21T13:31:07Z</time>
      </trkpt>
      <trkpt lat="44.37967" lon="5.93074">
        <ele>570.6796875</ele>
        <time>2016-02-21T13:31:23Z</time>
      </trkpt>
      <trkpt lat="44.38008" lon="5.93105">
        <ele>571.1604004</ele>
        <time>2016-02-21T13:31:38Z</time>
      </trkpt>
      <trkpt lat="44.3806" lon="5.93148">
        <ele>572.1218262</ele>
        <time>2016-02-21T13:31:57Z</time>
      </trkpt>
      <trkpt lat="44.38115" lon="5.93182">
        <ele>572.6025391</ele>
        <time>2016-02-21T13:32:16Z</time>
      </trkpt>
      <trkpt lat="44.38162" lon="5.93216">
        <ele>572.6025391</ele>
        <time>2016-02-21T13:32:33Z</time>
      </trkpt>
      <trkpt lat="44.38203" lon="5.93245">
        <ele>573.5639648</ele>
        <time>2016-02-21T13:32:48Z</time>
      </trkpt>
      <trkpt lat="44.38246" lon="5.93272">
        <ele>573.5639648</ele>
        <time>2016-02-21T13:33:01Z</time>
      </trkpt>
      <trkpt lat="44.38264" lon="5.93286">
        <ele>572.6025391</ele>
        <time>2016-02-21T13:33:07Z</time>
      </trkpt>
      <trkpt lat="44.38306" lon="5.93316">
        <ele>572.1218262</ele>
        <time>2016-02-21T13:33:20Z</time>
      </trkpt>
      <trkpt lat="44.38333" lon="5.93333">
        <ele>570.6796875</ele>
        <time>2016-02-21T13:33:27Z</time>
      </trkpt>
      <trkpt lat="44.38341" lon="5.93338">
        <ele>572.1218262</ele>
        <time>2016-02-21T13:33:29Z</time>
      </trkpt>
      <trkpt lat="44.38345" lon="5.93341">
        <ele>569.7185059</ele>
        <time>2016-02-21T13:33:30Z</time>
      </trkpt>
      <trkpt lat="44.38365" lon="5.93354">
        <ele>571.6408691</ele>
        <time>2016-02-21T13:33:36Z</time>
      </trkpt>
      <trkpt lat="44.38413" lon="5.93388">
        <ele>570.6796875</ele>
        <time>2016-02-21T13:33:51Z</time>
      </trkpt>
      <trkpt lat="44.38452" lon="5.93415">
        <ele>571.1604004</ele>
        <time>2016-02-21T13:34:04Z</time>
      </trkpt>
      <trkpt lat="44.38494" lon="5.93442">
        <ele>571.1604004</ele>
        <time>2016-02-21T13:34:17Z</time>
      </trkpt>
      <trkpt lat="44.38558" lon="5.93489">
        <ele>572.1218262</ele>
        <time>2016-02-21T13:34:38Z</time>
      </trkpt>
      <trkpt lat="44.38596" lon="5.93516">
        <ele>573.083252</ele>
        <time>2016-02-21T13:34:52Z</time>
      </trkpt>
      <trkpt lat="44.38624" lon="5.9354">
        <ele>574.0444336</ele>
        <time>2016-02-21T13:35:06Z</time>
      </trkpt>
      <trkpt lat="44.38664" lon="5.93566">
        <ele>576.9284668</ele>
        <time>2016-02-21T13:35:23Z</time>
      </trkpt>
      <trkpt lat="44.38672" lon="5.93572">
        <ele>577.4091797</ele>
        <time>2016-02-21T13:35:27Z</time>
      </trkpt>
      <trkpt lat="44.38702" lon="5.93594">
        <ele>577.4091797</ele>
        <time>2016-02-21T13:35:41Z</time>
      </trkpt>
      <trkpt lat="44.38706" lon="5.936">
        <ele>579.331543</ele>
        <time>2016-02-21T13:35:43Z</time>
      </trkpt>
      <trkpt lat="44.38706" lon="5.93609">
        <ele>577.4091797</ele>
        <time>2016-02-21T13:35:45Z</time>
      </trkpt>
      <trkpt lat="44.387" lon="5.93705">
        <ele>575.0058594</ele>
        <time>2016-02-21T13:36:05Z</time>
      </trkpt>
      <trkpt lat="44.38698" lon="5.93749">
        <ele>574.0444336</ele>
        <time>2016-02-21T13:36:13Z</time>
      </trkpt>
      <trkpt lat="44.38698" lon="5.93756">
        <ele>574.0444336</ele>
        <time>2016-02-21T13:36:14Z</time>
      </trkpt>
      <trkpt lat="44.38695" lon="5.93825">
        <ele>573.083252</ele>
        <time>2016-02-21T13:36:23Z</time>
      </trkpt>
      <trkpt lat="44.38693" lon="5.93854">
        <ele>573.5639648</ele>
        <time>2016-02-21T13:36:26Z</time>
      </trkpt>
      <trkpt lat="44.38683" lon="5.93897">
        <ele>570.1989746</ele>
        <time>2016-02-21T13:36:31Z</time>
      </trkpt>
      <trkpt lat="44.38662" lon="5.9391">
        <ele>568.2763672</ele>
        <time>2016-02-21T13:36:34Z</time>
      </trkpt>
      <trkpt lat="44.38651" lon="5.93912">
        <ele>567.7956543</ele>
        <time>2016-02-21T13:36:35Z</time>
      </trkpt>
      <trkpt lat="44.38632" lon="5.93915">
        <ele>566.8344727</ele>
        <time>2016-02-21T13:36:37Z</time>
      </trkpt>
      <trkpt lat="44.38593" lon="5.9392">
        <ele>564.9118652</ele>
        <time>2016-02-21T13:36:41Z</time>
      </trkpt>
      <trkpt lat="44.38565" lon="5.93924">
        <ele>562.0280762</ele>
        <time>2016-02-21T13:36:44Z</time>
      </trkpt>
      <trkpt lat="44.38547" lon="5.93928">
        <ele>560.1052246</ele>
        <time>2016-02-21T13:36:46Z</time>
      </trkpt>
      <trkpt lat="44.38531" lon="5.93931">
        <ele>558.6633301</ele>
        <time>2016-02-21T13:36:48Z</time>
      </trkpt>
      <trkpt lat="44.38524" lon="5.93932">
        <ele>557.2214355</ele>
        <time>2016-02-21T13:36:49Z</time>
      </trkpt>
      <trkpt lat="44.38511" lon="5.93938">
        <ele>556.2600098</ele>
        <time>2016-02-21T13:36:51Z</time>
      </trkpt>
      <trkpt lat="44.38498" lon="5.93981">
        <ele>556.2600098</ele>
        <time>2016-02-21T13:36:56Z</time>
      </trkpt>
      <trkpt lat="44.38502" lon="5.94066">
        <ele>555.7792969</ele>
        <time>2016-02-21T13:37:09Z</time>
      </trkpt>
      <trkpt lat="44.38496" lon="5.94131">
        <ele>556.2600098</ele>
        <time>2016-02-21T13:37:23Z</time>
      </trkpt>
      <trkpt lat="44.38485" lon="5.94187">
        <ele>557.7021484</ele>
        <time>2016-02-21T13:37:37Z</time>
      </trkpt>
      <trkpt lat="44.3849" lon="5.94202">
        <ele>557.2214355</ele>
        <time>2016-02-21T13:37:42Z</time>
      </trkpt>
      <trkpt lat="44.3849" lon="5.94221">
        <ele>556.7407227</ele>
        <time>2016-02-21T13:37:47Z</time>
      </trkpt>
      <trkpt lat="44.38497" lon="5.94239">
        <ele>556.7407227</ele>
        <time>2016-02-21T13:37:51Z</time>
      </trkpt>
      <trkpt lat="44.38518" lon="5.94236">
        <ele>557.2214355</ele>
        <time>2016-02-21T13:38:00Z</time>
      </trkpt>
      <trkpt lat="44.38522" lon="5.94224">
        <ele>557.2214355</ele>
        <time>2016-02-21T13:38:11Z</time>
      </trkpt>
      <trkpt lat="44.38522" lon="5.94224">
        <ele>556.2600098</ele>
        <time>2016-02-21T13:38:19Z</time>
      </trkpt>
    </trkseg>
  </trk>
  <trk>
    <name><![CDATA[N°65  valenty/Lazer/Upaix/Mison]]></name>
    <trkseg>
      <trkpt lat="44.36755" lon="5.92378">
        <ele>591.3481445</ele>
        <time>2016-03-10T09:57:04Z</time>
      </trkpt>
      <trkpt lat="44.36757" lon="5.92384">
        <ele>592.3095703</ele>
        <time>2016-03-10T09:57:07Z</time>
      </trkpt>
      <trkpt lat="44.36758" lon="5.92383">
        <ele>590.8674316</ele>
        <time>2016-03-10T09:57:09Z</time>
      </trkpt>
      <trkpt lat="44.3676" lon="5.92382">
        <ele>587.9833984</ele>
        <time>2016-03-10T09:57:26Z</time>
      </trkpt>
      <trkpt lat="44.36761" lon="5.9238">
        <ele>584.6188965</ele>
        <time>2016-03-10T09:57:34Z</time>
      </trkpt>
      <trkpt lat="44.36759" lon="5.9238">
        <ele>581.7348633</ele>
        <time>2016-03-10T09:57:44Z</time>
      </trkpt>
      <trkpt lat="44.36759" lon="5.9238">
        <ele>578.8510742</ele>
        <time>2016-03-10T09:58:00Z</time>
      </trkpt>
      <trkpt lat="44.3676" lon="5.9238">
        <ele>577.4091797</ele>
        <time>2016-03-10T09:58:14Z</time>
      </trkpt>
      <trkpt lat="44.3676" lon="5.9238">
        <ele>577.4091797</ele>
        <time>2016-03-10T09:58:28Z</time>
      </trkpt>
      <trkpt lat="44.36759" lon="5.92386">
        <ele>574.5251465</ele>
        <time>2016-03-10T09:59:18Z</time>
      </trkpt>
      <trkpt lat="44.36757" lon="5.9239">
        <ele>573.083252</ele>
        <time>2016-03-10T10:00:23Z</time>
      </trkpt>
      <trkpt lat="44.36757" lon="5.9239">
        <ele>575.4863281</ele>
        <time>2016-03-10T10:00:35Z</time>
      </trkpt>
      <trkpt lat="44.36757" lon="5.9239">
        <ele>573.5639648</ele>
        <time>2016-03-10T10:00:37Z</time>
      </trkpt>
      <trkpt lat="44.36756" lon="5.9239">
        <ele>574.0444336</ele>
        <time>2016-03-10T10:00:55Z</time>
      </trkpt>
      <trkpt lat="44.36756" lon="5.92387">
        <ele>574.5251465</ele>
        <time>2016-03-10T10:01:08Z</time>
      </trkpt>
      <trkpt lat="44.36757" lon="5.92387">
        <ele>574.0444336</ele>
        <time>2016-03-10T10:01:30Z</time>
      </trkpt>
      <trkpt lat="44.3676" lon="5.92391">
        <ele>575.0058594</ele>
        <time>2016-03-10T10:02:59Z</time>
      </trkpt>
      <trkpt lat="44.3676" lon="5.92391">
        <ele>575.967041</ele>
        <time>2016-03-10T10:03:22Z</time>
      </trkpt>
      <trkpt lat="44.3676" lon="5.92391">
        <ele>574.0444336</ele>
        <time>2016-03-10T10:03:25Z</time>
      </trkpt>
      <trkpt lat="44.36759" lon="5.92393">
        <ele>573.5639648</ele>
        <time>2016-03-10T10:03:48Z</time>
      </trkpt>
      <trkpt lat="44.36759" lon="5.92392">
        <ele>574.0444336</ele>
        <time>2016-03-10T10:04:04Z</time>
      </trkpt>
      <trkpt lat="44.36754" lon="5.92392">
        <ele>574.0444336</ele>
        <time>2016-03-10T10:04:07Z</time>
      </trkpt>
      <trkpt lat="44.36709" lon="5.92385">
        <ele>575.0058594</ele>
        <time>2016-03-10T10:04:23Z</time>
      </trkpt>
      <trkpt lat="44.36667" lon="5.92415">
        <ele>574.5251465</ele>
        <time>2016-03-10T10:04:37Z</time>
      </trkpt>
      <trkpt lat="44.36623" lon="5.92425">
        <ele>572.6025391</ele>
        <time>2016-03-10T10:04:49Z</time>
      </trkpt>
      <trkpt lat="44.36604" lon="5.92413">
        <ele>572.6025391</ele>
        <time>2016-03-10T10:04:54Z</time>
      </trkpt>
      <trkpt lat="44.36564" lon="5.92372">
        <ele>573.5639648</ele>
        <time>2016-03-10T10:05:06Z</time>
      </trkpt>
      <trkpt lat="44.3655" lon="5.92344">
        <ele>573.5639648</ele>
        <time>2016-03-10T10:05:13Z</time>
      </trkpt>
      <trkpt lat="44.36553" lon="5.92336">
        <ele>575.4863281</ele>
        <time>2016-03-10T10:05:17Z</time>
      </trkpt>
      <trkpt lat="44.36555" lon="5.92341">
        <ele>575.0058594</ele>
        <time>2016-03-10T10:05:19Z</time>
      </trkpt>
      <trkpt lat="44.36592" lon="5.92382">
        <ele>578.3703613</ele>
        <time>2016-03-10T10:05:36Z</time>
      </trkpt>
      <trkpt lat="44.36636" lon="5.92406">
        <ele>579.331543</ele>
        <time>2016-03-10T10:05:53Z</time>
      </trkpt>
      <trkpt lat="44.36679" lon="5.92379">
        <ele>581.2543945</ele>
        <time>2016-03-10T10:06:10Z</time>
      </trkpt>
      <trkpt lat="44.36704" lon="5.92324">
        <ele>581.2543945</ele>
        <time>2016-03-10T10:06:26Z</time>
      </trkpt>
      <trkpt lat="44.36741" lon="5.92276">
        <ele>582.6962891</ele>
        <time>2016-03-10T10:06:43Z</time>
      </trkpt>
      <trkpt lat="44.36791" lon="5.92281">
        <ele>584.1381836</ele>
        <time>2016-03-10T10:07:00Z</time>
      </trkpt>
      <trkpt lat="44.36819" lon="5.92228">
        <ele>583.6574707</ele>
        <time>2016-03-10T10:07:16Z</time>
      </trkpt>
      <trkpt lat="44.36841" lon="5.92188">
        <ele>583.1767578</ele>
        <time>2016-03-10T10:07:25Z</time>
      </trkpt>
      <trkpt lat="44.36895" lon="5.92088">
        <ele>581.7348633</ele>
        <time>2016-03-10T10:07:44Z</time>
      </trkpt>
      <trkpt lat="44.36908" lon="5.92064">
        <ele>581.7348633</ele>
        <time>2016-03-10T10:07:48Z</time>
      </trkpt>
      <trkpt lat="44.36918" lon="5.92039">
        <ele>580.7736816</ele>
        <time>2016-03-10T10:07:52Z</time>
      </trkpt>
      <trkpt lat="44.36925" lon="5.92012">
        <ele>581.2543945</ele>
        <time>2016-03-10T10:07:56Z</time>
      </trkpt>
      <trkpt lat="44.36924" lon="5.91928">
        <ele>581.2543945</ele>
        <time>2016-03-10T10:08:12Z</time>
      </trkpt>
      <trkpt lat="44.36926" lon="5.91856">
        <ele>583.6574707</ele>
        <time>2016-03-10T10:08:29Z</time>
      </trkpt>
      <trkpt lat="44.36938" lon="5.9178">
        <ele>584.6188965</ele>
        <time>2016-03-10T10:08:49Z</time>
      </trkpt>
      <trkpt lat="44.36955" lon="5.91698">
        <ele>587.9833984</ele>
        <time>2016-03-10T10:09:11Z</time>
      </trkpt>
      <trkpt lat="44.3698" lon="5.91648">
        <ele>590.3869629</ele>
        <time>2016-03-10T10:09:28Z</time>
      </trkpt>
      <trkpt lat="44.36991" lon="5.91643">
        <ele>591.8288574</ele>
        <time>2016-03-10T10:09:33Z</time>
      </trkpt>
      <trkpt lat="44.37002" lon="5.91637">
        <ele>594.2321777</ele>
        <time>2016-03-10T10:09:39Z</time>
      </trkpt>
      <trkpt lat="44.37042" lon="5.91616">
        <ele>594.7126465</ele>
        <time>2016-03-10T10:09:57Z</time>
      </trkpt>
      <trkpt lat="44.37075" lon="5.91598">
        <ele>595.1933594</ele>
        <time>2016-03-10T10:10:11Z</time>
      </trkpt>
      <trkpt lat="44.37108" lon="5.91565">
        <ele>597.1159668</ele>
        <time>2016-03-10T10:10:29Z</time>
      </trkpt>
      <trkpt lat="44.37126" lon="5.9152">
        <ele>598.5578613</ele>
        <time>2016-03-10T10:10:44Z</time>
      </trkpt>
      <trkpt lat="44.37139" lon="5.91481">
        <ele>601.4418945</ele>
        <time>2016-03-10T10:10:59Z</time>
      </trkpt>
      <trkpt lat="44.37143" lon="5.91476">
        <ele>601.9226074</ele>
        <time>2016-03-10T10:11:01Z</time>
      </trkpt>
      <trkpt lat="44.37156" lon="5.91415">
        <ele>604.3261719</ele>
        <time>2016-03-10T10:11:17Z</time>
      </trkpt>
      <trkpt lat="44.37156" lon="5.91379">
        <ele>606.729248</ele>
        <time>2016-03-10T10:11:29Z</time>
      </trkpt>
      <trkpt lat="44.37164" lon="5.91348">
        <ele>607.2099609</ele>
        <time>2016-03-10T10:11:38Z</time>
      </trkpt>
      <trkpt lat="44.37169" lon="5.91331">
        <ele>609.1325684</ele>
        <time>2016-03-10T10:11:44Z</time>
      </trkpt>
      <trkpt lat="44.37184" lon="5.91291">
        <ele>610.09375</ele>
        <time>2016-03-10T10:11:56Z</time>
      </trkpt>
      <trkpt lat="44.37223" lon="5.91255">
        <ele>612.9777832</ele>
        <time>2016-03-10T10:12:14Z</time>
      </trkpt>
      <trkpt lat="44.37252" lon="5.91234">
        <ele>614.9003906</ele>
        <time>2016-03-10T10:12:31Z</time>
      </trkpt>
      <trkpt lat="44.37277" lon="5.91186">
        <ele>617.3037109</ele>
        <time>2016-03-10T10:12:51Z</time>
      </trkpt>
      <trkpt lat="44.37297" lon="5.91127">
        <ele>619.7070313</ele>
        <time>2016-03-10T10:13:10Z</time>
      </trkpt>
      <trkpt lat="44.37295" lon="5.91078">
        <ele>622.5910645</ele>
        <time>2016-03-10T10:13:27Z</time>
      </trkpt>
      <trkpt lat="44.37279" lon="5.91016">
        <ele>624.5136719</ele>
        <time>2016-03-10T10:13:48Z</time>
      </trkpt>
      <trkpt lat="44.37274" lon="5.90976">
        <ele>625.9555664</ele>
        <time>2016-03-10T10:14:00Z</time>
      </trkpt>
      <trkpt lat="44.37277" lon="5.90954">
        <ele>626.9169922</ele>
        <time>2016-03-10T10:14:08Z</time>
      </trkpt>
      <trkpt lat="44.3728" lon="5.90903">
        <ele>629.8007813</ele>
        <time>2016-03-10T10:14:26Z</time>
      </trkpt>
      <trkpt lat="44.37279" lon="5.90866">
        <ele>632.2041016</ele>
        <time>2016-03-10T10:14:39Z</time>
      </trkpt>
      <trkpt lat="44.37262" lon="5.90807">
        <ele>634.126709</ele>
        <time>2016-03-10T10:14:58Z</time>
      </trkpt>
      <trkpt lat="44.37247" lon="5.90779">
        <ele>636.0495605</ele>
        <time>2016-03-10T10:15:10Z</time>
      </trkpt>
      <trkpt lat="44.37228" lon="5.90766">
        <ele>637.4914551</ele>
        <time>2016-03-10T10:15:21Z</time>
      </trkpt>
      <trkpt lat="44.37217" lon="5.90761">
        <ele>637.972168</ele>
        <time>2016-03-10T10:15:26Z</time>
      </trkpt>
      <trkpt lat="44.37184" lon="5.90751">
        <ele>638.4528809</ele>
        <time>2016-03-10T10:15:38Z</time>
      </trkpt>
      <trkpt lat="44.37179" lon="5.90731">
        <ele>639.4140625</ele>
        <time>2016-03-10T10:15:44Z</time>
      </trkpt>
      <trkpt lat="44.37197" lon="5.90669">
        <ele>639.8947754</ele>
        <time>2016-03-10T10:16:01Z</time>
      </trkpt>
      <trkpt lat="44.37206" lon="5.9065">
        <ele>639.8947754</ele>
        <time>2016-03-10T10:16:07Z</time>
      </trkpt>
      <trkpt lat="44.37223" lon="5.90628">
        <ele>641.8173828</ele>
        <time>2016-03-10T10:16:18Z</time>
      </trkpt>
      <trkpt lat="44.37234" lon="5.90616">
        <ele>642.2980957</ele>
        <time>2016-03-10T10:16:23Z</time>
      </trkpt>
      <trkpt lat="44.37244" lon="5.90579">
        <ele>640.855957</ele>
        <time>2016-03-10T10:16:32Z</time>
      </trkpt>
      <trkpt lat="44.37248" lon="5.90564">
        <ele>641.8173828</ele>
        <time>2016-03-10T10:16:35Z</time>
      </trkpt>
      <trkpt lat="44.37252" lon="5.90528">
        <ele>641.3366699</ele>
        <time>2016-03-10T10:16:40Z</time>
      </trkpt>
      <trkpt lat="44.37265" lon="5.90477">
        <ele>639.4140625</ele>
        <time>2016-03-10T10:16:46Z</time>
      </trkpt>
      <trkpt lat="44.37266" lon="5.90459">
        <ele>637.972168</ele>
        <time>2016-03-10T10:16:48Z</time>
      </trkpt>
      <trkpt lat="44.37262" lon="5.90433">
        <ele>637.4914551</ele>
        <time>2016-03-10T10:16:51Z</time>
      </trkpt>
      <trkpt lat="44.37264" lon="5.9039">
        <ele>636.0495605</ele>
        <time>2016-03-10T10:16:55Z</time>
      </trkpt>
      <trkpt lat="44.37287" lon="5.90324">
        <ele>632.6848145</ele>
        <time>2016-03-10T10:17:01Z</time>
      </trkpt>
      <trkpt lat="44.37307" lon="5.90269">
        <ele>630.2814941</ele>
        <time>2016-03-10T10:17:06Z</time>
      </trkpt>
      <trkpt lat="44.37315" lon="5.90252">
        <ele>626.4362793</ele>
        <time>2016-03-10T10:17:08Z</time>
      </trkpt>
      <trkpt lat="44.37318" lon="5.90241">
        <ele>626.4362793</ele>
        <time>2016-03-10T10:17:09Z</time>
      </trkpt>
      <trkpt lat="44.37333" lon="5.90217">
        <ele>624.5136719</ele>
        <time>2016-03-10T10:17:13Z</time>
      </trkpt>
      <trkpt lat="44.37361" lon="5.90241">
        <ele>624.032959</ele>
        <time>2016-03-10T10:17:17Z</time>
      </trkpt>
      <trkpt lat="44.37397" lon="5.90288">
        <ele>622.5910645</ele>
        <time>2016-03-10T10:17:25Z</time>
      </trkpt>
      <trkpt lat="44.37418" lon="5.90293">
        <ele>621.6296387</ele>
        <time>2016-03-10T10:17:32Z</time>
      </trkpt>
      <trkpt lat="44.3742" lon="5.90288">
        <ele>621.1491699</ele>
        <time>2016-03-10T10:17:34Z</time>
      </trkpt>
      <trkpt lat="44.37411" lon="5.90269">
        <ele>620.1877441</ele>
        <time>2016-03-10T10:17:39Z</time>
      </trkpt>
      <trkpt lat="44.37356" lon="5.90195">
        <ele>619.2263184</ele>
        <time>2016-03-10T10:17:53Z</time>
      </trkpt>
      <trkpt lat="44.37321" lon="5.90154">
        <ele>618.2648926</ele>
        <time>2016-03-10T10:17:59Z</time>
      </trkpt>
      <trkpt lat="44.37304" lon="5.90135">
        <ele>617.7841797</ele>
        <time>2016-03-10T10:18:02Z</time>
      </trkpt>
      <trkpt lat="44.37209" lon="5.90004">
        <ele>614.4196777</ele>
        <time>2016-03-10T10:18:19Z</time>
      </trkpt>
      <trkpt lat="44.37193" lon="5.89982">
        <ele>611.5358887</ele>
        <time>2016-03-10T10:18:24Z</time>
      </trkpt>
      <trkpt lat="44.37179" lon="5.89963">
        <ele>611.5358887</ele>
        <time>2016-03-10T10:18:30Z</time>
      </trkpt>
      <trkpt lat="44.37126" lon="5.89943">
        <ele>611.0551758</ele>
        <time>2016-03-10T10:18:46Z</time>
      </trkpt>
      <trkpt lat="44.37103" lon="5.89965">
        <ele>611.5358887</ele>
        <time>2016-03-10T10:18:55Z</time>
      </trkpt>
      <trkpt lat="44.37067" lon="5.90002">
        <ele>614.4196777</ele>
        <time>2016-03-10T10:19:10Z</time>
      </trkpt>
      <trkpt lat="44.37037" lon="5.90009">
        <ele>616.822998</ele>
        <time>2016-03-10T10:19:22Z</time>
      </trkpt>
      <trkpt lat="44.36984" lon="5.89993">
        <ele>617.7841797</ele>
        <time>2016-03-10T10:19:40Z</time>
      </trkpt>
      <trkpt lat="44.36921" lon="5.89958">
        <ele>614.9003906</ele>
        <time>2016-03-10T10:19:52Z</time>
      </trkpt>
      <trkpt lat="44.36842" lon="5.89897">
        <ele>612.0166016</ele>
        <time>2016-03-10T10:20:03Z</time>
      </trkpt>
      <trkpt lat="44.36798" lon="5.89839">
        <ele>612.0166016</ele>
        <time>2016-03-10T10:20:11Z</time>
      </trkpt>
      <trkpt lat="44.3678" lon="5.89791">
        <ele>612.9777832</ele>
        <time>2016-03-10T10:20:23Z</time>
      </trkpt>
      <trkpt lat="44.36749" lon="5.89726">
        <ele>613.4584961</ele>
        <time>2016-03-10T10:20:39Z</time>
      </trkpt>
      <trkpt lat="44.36683" lon="5.89625">
        <ele>612.9777832</ele>
        <time>2016-03-10T10:20:59Z</time>
      </trkpt>
      <trkpt lat="44.36636" lon="5.89551">
        <ele>611.0551758</ele>
        <time>2016-03-10T10:21:12Z</time>
      </trkpt>
      <trkpt lat="44.36598" lon="5.89493">
        <ele>611.5358887</ele>
        <time>2016-03-10T10:21:24Z</time>
      </trkpt>
      <trkpt lat="44.36591" lon="5.8948">
        <ele>611.5358887</ele>
        <time>2016-03-10T10:21:27Z</time>
      </trkpt>
      <trkpt lat="44.3656" lon="5.89421">
        <ele>612.0166016</ele>
        <time>2016-03-10T10:21:39Z</time>
      </trkpt>
      <trkpt lat="44.36553" lon="5.89391">
        <ele>611.5358887</ele>
        <time>2016-03-10T10:21:44Z</time>
      </trkpt>
      <trkpt lat="44.36533" lon="5.89294">
        <ele>612.0166016</ele>
        <time>2016-03-10T10:22:01Z</time>
      </trkpt>
      <trkpt lat="44.36512" lon="5.8923">
        <ele>613.9389648</ele>
        <time>2016-03-10T10:22:21Z</time>
      </trkpt>
      <trkpt lat="44.36495" lon="5.89183">
        <ele>616.3422852</ele>
        <time>2016-03-10T10:22:37Z</time>
      </trkpt>
      <trkpt lat="44.36468" lon="5.89117">
        <ele>616.822998</ele>
        <time>2016-03-10T10:22:57Z</time>
      </trkpt>
      <trkpt lat="44.36441" lon="5.89045">
        <ele>619.7070313</ele>
        <time>2016-03-10T10:23:20Z</time>
      </trkpt>
      <trkpt lat="44.36414" lon="5.88975">
        <ele>620.1877441</ele>
        <time>2016-03-10T10:23:39Z</time>
      </trkpt>
      <trkpt lat="44.36385" lon="5.88894">
        <ele>620.1877441</ele>
        <time>2016-03-10T10:23:54Z</time>
      </trkpt>
      <trkpt lat="44.36356" lon="5.88832">
        <ele>622.5910645</ele>
        <time>2016-03-10T10:24:14Z</time>
      </trkpt>
      <trkpt lat="44.36339" lon="5.88769">
        <ele>624.032959</ele>
        <time>2016-03-10T10:24:34Z</time>
      </trkpt>
      <trkpt lat="44.36346" lon="5.88706">
        <ele>624.9943848</ele>
        <time>2016-03-10T10:24:50Z</time>
      </trkpt>
      <trkpt lat="44.36368" lon="5.88648">
        <ele>624.032959</ele>
        <time>2016-03-10T10:25:02Z</time>
      </trkpt>
      <trkpt lat="44.3637" lon="5.88577">
        <ele>624.032959</ele>
        <time>2016-03-10T10:25:14Z</time>
      </trkpt>
      <trkpt lat="44.36373" lon="5.88479">
        <ele>623.0717773</ele>
        <time>2016-03-10T10:25:30Z</time>
      </trkpt>
      <trkpt lat="44.36364" lon="5.88398">
        <ele>623.0717773</ele>
        <time>2016-03-10T10:25:39Z</time>
      </trkpt>
      <trkpt lat="44.36351" lon="5.88362">
        <ele>622.1103516</ele>
        <time>2016-03-10T10:25:43Z</time>
      </trkpt>
      <trkpt lat="44.36325" lon="5.88298">
        <ele>622.1103516</ele>
        <time>2016-03-10T10:25:54Z</time>
      </trkpt>
      <trkpt lat="44.36316" lon="5.88246">
        <ele>624.5136719</ele>
        <time>2016-03-10T10:26:09Z</time>
      </trkpt>
      <trkpt lat="44.36305" lon="5.88197">
        <ele>625.4748535</ele>
        <time>2016-03-10T10:26:22Z</time>
      </trkpt>
      <trkpt lat="44.36302" lon="5.88182">
        <ele>625.9555664</ele>
        <time>2016-03-10T10:26:26Z</time>
      </trkpt>
      <trkpt lat="44.36291" lon="5.88154">
        <ele>626.4362793</ele>
        <time>2016-03-10T10:26:35Z</time>
      </trkpt>
      <trkpt lat="44.3627" lon="5.88071">
        <ele>625.4748535</ele>
        <time>2016-03-10T10:26:53Z</time>
      </trkpt>
      <trkpt lat="44.36253" lon="5.88011">
        <ele>625.9555664</ele>
        <time>2016-03-10T10:27:08Z</time>
      </trkpt>
      <trkpt lat="44.36238" lon="5.87956">
        <ele>628.8395996</ele>
        <time>2016-03-10T10:27:25Z</time>
      </trkpt>
      <trkpt lat="44.3624" lon="5.87902">
        <ele>631.2429199</ele>
        <time>2016-03-10T10:27:41Z</time>
      </trkpt>
      <trkpt lat="44.36234" lon="5.87833">
        <ele>630.2814941</ele>
        <time>2016-03-10T10:27:57Z</time>
      </trkpt>
      <trkpt lat="44.36221" lon="5.87791">
        <ele>630.762207</ele>
        <time>2016-03-10T10:28:07Z</time>
      </trkpt>
      <trkpt lat="44.36219" lon="5.87773">
        <ele>631.7233887</ele>
        <time>2016-03-10T10:28:12Z</time>
      </trkpt>
      <trkpt lat="44.36215" lon="5.87763">
        <ele>631.7233887</ele>
        <time>2016-03-10T10:28:15Z</time>
      </trkpt>
      <trkpt lat="44.36213" lon="5.87752">
        <ele>631.7233887</ele>
        <time>2016-03-10T10:28:18Z</time>
      </trkpt>
      <trkpt lat="44.36212" lon="5.87702">
        <ele>633.6459961</ele>
        <time>2016-03-10T10:28:32Z</time>
      </trkpt>
      <trkpt lat="44.3621" lon="5.87651">
        <ele>635.5686035</ele>
        <time>2016-03-10T10:28:48Z</time>
      </trkpt>
      <trkpt lat="44.36202" lon="5.87612">
        <ele>636.5302734</ele>
        <time>2016-03-10T10:29:02Z</time>
      </trkpt>
      <trkpt lat="44.36192" lon="5.87583">
        <ele>637.972168</ele>
        <time>2016-03-10T10:29:12Z</time>
      </trkpt>
      <trkpt lat="44.36191" lon="5.87575">
        <ele>638.4528809</ele>
        <time>2016-03-10T10:29:15Z</time>
      </trkpt>
      <trkpt lat="44.36187" lon="5.87546">
        <ele>638.9335938</ele>
        <time>2016-03-10T10:29:26Z</time>
      </trkpt>
      <trkpt lat="44.36179" lon="5.87506">
        <ele>640.3754883</ele>
        <time>2016-03-10T10:29:39Z</time>
      </trkpt>
      <trkpt lat="44.36181" lon="5.87465">
        <ele>642.2980957</ele>
        <time>2016-03-10T10:29:52Z</time>
      </trkpt>
      <trkpt lat="44.362" lon="5.87401">
        <ele>644.2207031</ele>
        <time>2016-03-10T10:30:12Z</time>
      </trkpt>
      <trkpt lat="44.36202" lon="5.87358">
        <ele>646.1433105</ele>
        <time>2016-03-10T10:30:27Z</time>
      </trkpt>
      <trkpt lat="44.36176" lon="5.8732">
        <ele>648.065918</ele>
        <time>2016-03-10T10:30:46Z</time>
      </trkpt>
      <trkpt lat="44.36157" lon="5.87298">
        <ele>650.4692383</ele>
        <time>2016-03-10T10:30:59Z</time>
      </trkpt>
      <trkpt lat="44.36142" lon="5.87268">
        <ele>652.3918457</ele>
        <time>2016-03-10T10:31:12Z</time>
      </trkpt>
      <trkpt lat="44.3614" lon="5.87251">
        <ele>653.3532715</ele>
        <time>2016-03-10T10:31:20Z</time>
      </trkpt>
      <trkpt lat="44.36135" lon="5.87244">
        <ele>653.3532715</ele>
        <time>2016-03-10T10:31:24Z</time>
      </trkpt>
      <trkpt lat="44.36131" lon="5.87194">
        <ele>655.7565918</ele>
        <time>2016-03-10T10:31:44Z</time>
      </trkpt>
      <trkpt lat="44.36126" lon="5.87158">
        <ele>657.1984863</ele>
        <time>2016-03-10T10:31:57Z</time>
      </trkpt>
      <trkpt lat="44.36124" lon="5.87153">
        <ele>657.1984863</ele>
        <time>2016-03-10T10:31:59Z</time>
      </trkpt>
      <trkpt lat="44.36117" lon="5.87116">
        <ele>658.6403809</ele>
        <time>2016-03-10T10:32:14Z</time>
      </trkpt>
      <trkpt lat="44.36108" lon="5.87069">
        <ele>661.0437012</ele>
        <time>2016-03-10T10:32:33Z</time>
      </trkpt>
      <trkpt lat="44.36097" lon="5.87014">
        <ele>663.9274902</ele>
        <time>2016-03-10T10:32:57Z</time>
      </trkpt>
      <trkpt lat="44.36082" lon="5.86978">
        <ele>666.3308105</ele>
        <time>2016-03-10T10:33:15Z</time>
      </trkpt>
      <trkpt lat="44.36062" lon="5.86934">
        <ele>669.2150879</ele>
        <time>2016-03-10T10:33:37Z</time>
      </trkpt>
      <trkpt lat="44.36028" lon="5.86859">
        <ele>671.6181641</ele>
        <time>2016-03-10T10:34:12Z</time>
      </trkpt>
      <trkpt lat="44.36" lon="5.86803">
        <ele>674.0214844</ele>
        <time>2016-03-10T10:34:38Z</time>
      </trkpt>
      <trkpt lat="44.35974" lon="5.86753">
        <ele>674.9829102</ele>
        <time>2016-03-10T10:35:00Z</time>
      </trkpt>
      <trkpt lat="44.35948" lon="5.86696">
        <ele>676.4248047</ele>
        <time>2016-03-10T10:35:22Z</time>
      </trkpt>
      <trkpt lat="44.3594" lon="5.86658">
        <ele>676.9055176</ele>
        <time>2016-03-10T10:35:34Z</time>
      </trkpt>
      <trkpt lat="44.35931" lon="5.86602">
        <ele>678.828125</ele>
        <time>2016-03-10T10:35:51Z</time>
      </trkpt>
      <trkpt lat="44.35918" lon="5.86536">
        <ele>678.828125</ele>
        <time>2016-03-10T10:36:11Z</time>
      </trkpt>
      <trkpt lat="44.35901" lon="5.86478">
        <ele>679.3085938</ele>
        <time>2016-03-10T10:36:29Z</time>
      </trkpt>
      <trkpt lat="44.35882" lon="5.86399">
        <ele>679.7893066</ele>
        <time>2016-03-10T10:36:51Z</time>
      </trkpt>
      <trkpt lat="44.35871" lon="5.86336">
        <ele>680.2700195</ele>
        <time>2016-03-10T10:37:08Z</time>
      </trkpt>
      <trkpt lat="44.35831" lon="5.86245">
        <ele>678.828125</ele>
        <time>2016-03-10T10:37:28Z</time>
      </trkpt>
      <trkpt lat="44.35805" lon="5.86146">
        <ele>678.3474121</ele>
        <time>2016-03-10T10:37:45Z</time>
      </trkpt>
      <trkpt lat="44.35786" lon="5.86043">
        <ele>676.9055176</ele>
        <time>2016-03-10T10:38:03Z</time>
      </trkpt>
      <trkpt lat="44.35785" lon="5.86034">
        <ele>676.9055176</ele>
        <time>2016-03-10T10:38:12Z</time>
      </trkpt>
      <trkpt lat="44.35773" lon="5.86018">
        <ele>676.9055176</ele>
        <time>2016-03-10T10:40:10Z</time>
      </trkpt>
      <trkpt lat="44.35732" lon="5.85952">
        <ele>675.9440918</ele>
        <time>2016-03-10T10:40:24Z</time>
      </trkpt>
      <trkpt lat="44.35729" lon="5.85946">
        <ele>675.9440918</ele>
        <time>2016-03-10T10:40:25Z</time>
      </trkpt>
      <trkpt lat="44.35669" lon="5.85847">
        <ele>673.0603027</ele>
        <time>2016-03-10T10:40:41Z</time>
      </trkpt>
      <trkpt lat="44.35603" lon="5.85751">
        <ele>670.6569824</ele>
        <time>2016-03-10T10:40:55Z</time>
      </trkpt>
      <trkpt lat="44.35549" lon="5.85692">
        <ele>669.2150879</ele>
        <time>2016-03-10T10:41:04Z</time>
      </trkpt>
      <trkpt lat="44.35531" lon="5.85672">
        <ele>667.2922363</ele>
        <time>2016-03-10T10:41:07Z</time>
      </trkpt>
      <trkpt lat="44.35479" lon="5.85617">
        <ele>666.8115234</ele>
        <time>2016-03-10T10:41:16Z</time>
      </trkpt>
      <trkpt lat="44.35452" lon="5.85586">
        <ele>663.9274902</ele>
        <time>2016-03-10T10:41:21Z</time>
      </trkpt>
      <trkpt lat="44.3543" lon="5.85562">
        <ele>663.9274902</ele>
        <time>2016-03-10T10:41:25Z</time>
      </trkpt>
      <trkpt lat="44.354" lon="5.85528">
        <ele>661.0437012</ele>
        <time>2016-03-10T10:41:31Z</time>
      </trkpt>
      <trkpt lat="44.35347" lon="5.85473">
        <ele>659.1210938</ele>
        <time>2016-03-10T10:41:41Z</time>
      </trkpt>
      <trkpt lat="44.35327" lon="5.85452">
        <ele>656.7177734</ele>
        <time>2016-03-10T10:41:46Z</time>
      </trkpt>
      <trkpt lat="44.3532" lon="5.85453">
        <ele>656.7177734</ele>
        <time>2016-03-10T10:41:54Z</time>
      </trkpt>
      <trkpt lat="44.35317" lon="5.85482">
        <ele>656.7177734</ele>
        <time>2016-03-10T10:42:07Z</time>
      </trkpt>
      <trkpt lat="44.35317" lon="5.85537">
        <ele>656.7177734</ele>
        <time>2016-03-10T10:42:20Z</time>
      </trkpt>
      <trkpt lat="44.35315" lon="5.85621">
        <ele>657.6791992</ele>
        <time>2016-03-10T10:42:37Z</time>
      </trkpt>
      <trkpt lat="44.353" lon="5.8572">
        <ele>657.1984863</ele>
        <time>2016-03-10T10:42:56Z</time>
      </trkpt>
      <trkpt lat="44.35298" lon="5.85731">
        <ele>657.1984863</ele>
        <time>2016-03-10T10:42:58Z</time>
      </trkpt>
      <trkpt lat="44.35273" lon="5.85866">
        <ele>657.6791992</ele>
        <time>2016-03-10T10:43:23Z</time>
      </trkpt>
      <trkpt lat="44.35245" lon="5.86015">
        <ele>656.7177734</ele>
        <time>2016-03-10T10:43:47Z</time>
      </trkpt>
      <trkpt lat="44.35241" lon="5.86041">
        <ele>656.2370605</ele>
        <time>2016-03-10T10:43:51Z</time>
      </trkpt>
      <trkpt lat="44.35222" lon="5.86164">
        <ele>657.1984863</ele>
        <time>2016-03-10T10:44:11Z</time>
      </trkpt>
      <trkpt lat="44.35215" lon="5.86256">
        <ele>656.7177734</ele>
        <time>2016-03-10T10:44:26Z</time>
      </trkpt>
      <trkpt lat="44.35181" lon="5.8635">
        <ele>657.1984863</ele>
        <time>2016-03-10T10:44:43Z</time>
      </trkpt>
      <trkpt lat="44.35171" lon="5.86366">
        <ele>657.6791992</ele>
        <time>2016-03-10T10:44:47Z</time>
      </trkpt>
      <trkpt lat="44.35128" lon="5.86425">
        <ele>657.6791992</ele>
        <time>2016-03-10T10:45:02Z</time>
      </trkpt>
      <trkpt lat="44.3509" lon="5.8648">
        <ele>657.6791992</ele>
        <time>2016-03-10T10:45:13Z</time>
      </trkpt>
      <trkpt lat="44.35073" lon="5.86509">
        <ele>656.2370605</ele>
        <time>2016-03-10T10:45:17Z</time>
      </trkpt>
      <trkpt lat="44.35043" lon="5.86558">
        <ele>653.8339844</ele>
        <time>2016-03-10T10:45:24Z</time>
      </trkpt>
      <trkpt lat="44.34982" lon="5.86655">
        <ele>651.4304199</ele>
        <time>2016-03-10T10:45:40Z</time>
      </trkpt>
      <trkpt lat="44.34963" lon="5.86679">
        <ele>651.4304199</ele>
        <time>2016-03-10T10:45:45Z</time>
      </trkpt>
      <trkpt lat="44.34948" lon="5.86693">
        <ele>651.4304199</ele>
        <time>2016-03-10T10:45:49Z</time>
      </trkpt>
      <trkpt lat="44.34916" lon="5.86713">
        <ele>651.9111328</ele>
        <time>2016-03-10T10:45:57Z</time>
      </trkpt>
      <trkpt lat="44.34888" lon="5.86744">
        <ele>650.949707</ele>
        <time>2016-03-10T10:46:05Z</time>
      </trkpt>
      <trkpt lat="44.34839" lon="5.86828">
        <ele>650.4692383</ele>
        <time>2016-03-10T10:46:21Z</time>
      </trkpt>
      <trkpt lat="44.34831" lon="5.86843">
        <ele>649.9885254</ele>
        <time>2016-03-10T10:46:24Z</time>
      </trkpt>
      <trkpt lat="44.34781" lon="5.86908">
        <ele>650.4692383</ele>
        <time>2016-03-10T10:46:41Z</time>
      </trkpt>
      <trkpt lat="44.34713" lon="5.86926">
        <ele>651.9111328</ele>
        <time>2016-03-10T10:47:00Z</time>
      </trkpt>
      <trkpt lat="44.34656" lon="5.86918">
        <ele>653.3532715</ele>
        <time>2016-03-10T10:47:18Z</time>
      </trkpt>
      <trkpt lat="44.34635" lon="5.86874">
        <ele>654.3146973</ele>
        <time>2016-03-10T10:47:30Z</time>
      </trkpt>
      <trkpt lat="44.34607" lon="5.86825">
        <ele>654.3146973</ele>
        <time>2016-03-10T10:47:44Z</time>
      </trkpt>
      <trkpt lat="44.34559" lon="5.86808">
        <ele>654.795166</ele>
        <time>2016-03-10T10:48:00Z</time>
      </trkpt>
      <trkpt lat="44.34529" lon="5.86805">
        <ele>656.2370605</ele>
        <time>2016-03-10T10:48:13Z</time>
      </trkpt>
      <trkpt lat="44.34498" lon="5.86816">
        <ele>658.1599121</ele>
        <time>2016-03-10T10:48:31Z</time>
      </trkpt>
      <trkpt lat="44.34479" lon="5.86828">
        <ele>660.0822754</ele>
        <time>2016-03-10T10:48:43Z</time>
      </trkpt>
      <trkpt lat="44.34456" lon="5.86841">
        <ele>662.4855957</ele>
        <time>2016-03-10T10:48:58Z</time>
      </trkpt>
      <trkpt lat="44.3444" lon="5.86847">
        <ele>664.4082031</ele>
        <time>2016-03-10T10:49:10Z</time>
      </trkpt>
      <trkpt lat="44.34426" lon="5.86854">
        <ele>665.3696289</ele>
        <time>2016-03-10T10:49:20Z</time>
      </trkpt>
      <trkpt lat="44.34424" lon="5.86855">
        <ele>665.3696289</ele>
        <time>2016-03-10T10:49:21Z</time>
      </trkpt>
      <trkpt lat="44.34406" lon="5.86858">
        <ele>667.2922363</ele>
        <time>2016-03-10T10:49:32Z</time>
      </trkpt>
      <trkpt lat="44.34382" lon="5.86852">
        <ele>669.2150879</ele>
        <time>2016-03-10T10:49:48Z</time>
      </trkpt>
      <trkpt lat="44.3435" lon="5.86837">
        <ele>672.098877</ele>
        <time>2016-03-10T10:50:10Z</time>
      </trkpt>
      <trkpt lat="44.34328" lon="5.86828">
        <ele>674.0214844</ele>
        <time>2016-03-10T10:50:26Z</time>
      </trkpt>
      <trkpt lat="44.34319" lon="5.86827">
        <ele>674.5021973</ele>
        <time>2016-03-10T10:50:32Z</time>
      </trkpt>
      <trkpt lat="44.34312" lon="5.86832">
        <ele>675.4633789</ele>
        <time>2016-03-10T10:50:38Z</time>
      </trkpt>
      <trkpt lat="44.34308" lon="5.8684">
        <ele>675.9440918</ele>
        <time>2016-03-10T10:50:42Z</time>
      </trkpt>
      <trkpt lat="44.34306" lon="5.86846">
        <ele>675.9440918</ele>
        <time>2016-03-10T10:50:45Z</time>
      </trkpt>
      <trkpt lat="44.3432" lon="5.86875">
        <ele>676.9055176</ele>
        <time>2016-03-10T10:51:01Z</time>
      </trkpt>
      <trkpt lat="44.34337" lon="5.86893">
        <ele>677.8666992</ele>
        <time>2016-03-10T10:51:13Z</time>
      </trkpt>
      <trkpt lat="44.3435" lon="5.86908">
        <ele>679.3085938</ele>
        <time>2016-03-10T10:51:22Z</time>
      </trkpt>
      <trkpt lat="44.3436" lon="5.86913">
        <ele>679.7893066</ele>
        <time>2016-03-10T10:51:29Z</time>
      </trkpt>
      <trkpt lat="44.34387" lon="5.86922">
        <ele>682.192627</ele>
        <time>2016-03-10T10:51:47Z</time>
      </trkpt>
      <trkpt lat="44.34393" lon="5.8692">
        <ele>683.1538086</ele>
        <time>2016-03-10T10:51:51Z</time>
      </trkpt>
      <trkpt lat="44.3442" lon="5.86929">
        <ele>685.0769043</ele>
        <time>2016-03-10T10:52:10Z</time>
      </trkpt>
      <trkpt lat="44.3443" lon="5.8694">
        <ele>686.5187988</ele>
        <time>2016-03-10T10:52:22Z</time>
      </trkpt>
      <trkpt lat="44.34431" lon="5.86941">
        <ele>686.5187988</ele>
        <time>2016-03-10T10:53:01Z</time>
      </trkpt>
      <trkpt lat="44.34433" lon="5.86952">
        <ele>686.9992676</ele>
        <time>2016-03-10T10:53:06Z</time>
      </trkpt>
      <trkpt lat="44.34438" lon="5.86964">
        <ele>687.4799805</ele>
        <time>2016-03-10T10:53:10Z</time>
      </trkpt>
      <trkpt lat="44.34453" lon="5.87011">
        <ele>689.8833008</ele>
        <time>2016-03-10T10:53:26Z</time>
      </trkpt>
      <trkpt lat="44.34449" lon="5.8707">
        <ele>689.8833008</ele>
        <time>2016-03-10T10:53:40Z</time>
      </trkpt>
      <trkpt lat="44.34435" lon="5.87166">
        <ele>689.8833008</ele>
        <time>2016-03-10T10:53:57Z</time>
      </trkpt>
      <trkpt lat="44.34423" lon="5.87232">
        <ele>690.3640137</ele>
        <time>2016-03-10T10:54:11Z</time>
      </trkpt>
      <trkpt lat="44.34417" lon="5.87239">
        <ele>690.3640137</ele>
        <time>2016-03-10T10:54:13Z</time>
      </trkpt>
      <trkpt lat="44.34345" lon="5.87269">
        <ele>687.4799805</ele>
        <time>2016-03-10T10:54:26Z</time>
      </trkpt>
      <trkpt lat="44.3433" lon="5.87272">
        <ele>686.0380859</ele>
        <time>2016-03-10T10:54:28Z</time>
      </trkpt>
      <trkpt lat="44.34306" lon="5.87277">
        <ele>685.0769043</ele>
        <time>2016-03-10T10:54:31Z</time>
      </trkpt>
      <trkpt lat="44.34215" lon="5.87327">
        <ele>682.6733398</ele>
        <time>2016-03-10T10:54:44Z</time>
      </trkpt>
      <trkpt lat="44.34185" lon="5.87342">
        <ele>682.192627</ele>
        <time>2016-03-10T10:54:49Z</time>
      </trkpt>
      <trkpt lat="44.34148" lon="5.87339">
        <ele>679.3085938</ele>
        <time>2016-03-10T10:54:55Z</time>
      </trkpt>
      <trkpt lat="44.3411" lon="5.8732">
        <ele>676.4248047</ele>
        <time>2016-03-10T10:55:02Z</time>
      </trkpt>
      <trkpt lat="44.34048" lon="5.87298">
        <ele>675.9440918</ele>
        <time>2016-03-10T10:55:11Z</time>
      </trkpt>
      <trkpt lat="44.33999" lon="5.87304">
        <ele>674.0214844</ele>
        <time>2016-03-10T10:55:17Z</time>
      </trkpt>
      <trkpt lat="44.33982" lon="5.87303">
        <ele>673.5410156</ele>
        <time>2016-03-10T10:55:19Z</time>
      </trkpt>
      <trkpt lat="44.33947" lon="5.87298">
        <ele>672.5795898</ele>
        <time>2016-03-10T10:55:23Z</time>
      </trkpt>
      <trkpt lat="44.33864" lon="5.87255">
        <ele>669.2150879</ele>
        <time>2016-03-10T10:55:33Z</time>
      </trkpt>
      <trkpt lat="44.33796" lon="5.87236">
        <ele>666.8115234</ele>
        <time>2016-03-10T10:55:41Z</time>
      </trkpt>
      <trkpt lat="44.33765" lon="5.87239">
        <ele>665.8503418</ele>
        <time>2016-03-10T10:55:45Z</time>
      </trkpt>
      <trkpt lat="44.33749" lon="5.87244">
        <ele>663.9274902</ele>
        <time>2016-03-10T10:55:47Z</time>
      </trkpt>
      <trkpt lat="44.33693" lon="5.87259">
        <ele>663.9274902</ele>
        <time>2016-03-10T10:55:54Z</time>
      </trkpt>
      <trkpt lat="44.33671" lon="5.87257">
        <ele>661.5244141</ele>
        <time>2016-03-10T10:55:58Z</time>
      </trkpt>
      <trkpt lat="44.33671" lon="5.87258">
        <ele>660.0822754</ele>
        <time>2016-03-10T10:56:00Z</time>
      </trkpt>
      <trkpt lat="44.33653" lon="5.8724">
        <ele>658.1599121</ele>
        <time>2016-03-10T10:56:35Z</time>
      </trkpt>
      <trkpt lat="44.33652" lon="5.8724">
        <ele>657.6791992</ele>
        <time>2016-03-10T10:56:47Z</time>
      </trkpt>
      <trkpt lat="44.33669" lon="5.87264">
        <ele>658.6403809</ele>
        <time>2016-03-10T10:56:58Z</time>
      </trkpt>
      <trkpt lat="44.33666" lon="5.87295">
        <ele>659.1210938</ele>
        <time>2016-03-10T10:57:07Z</time>
      </trkpt>
      <trkpt lat="44.33644" lon="5.87326">
        <ele>661.0437012</ele>
        <time>2016-03-10T10:57:21Z</time>
      </trkpt>
      <trkpt lat="44.33626" lon="5.87344">
        <ele>663.9274902</ele>
        <time>2016-03-10T10:57:32Z</time>
      </trkpt>
      <trkpt lat="44.3362" lon="5.87348">
        <ele>664.4082031</ele>
        <time>2016-03-10T10:57:35Z</time>
      </trkpt>
      <trkpt lat="44.33612" lon="5.87377">
        <ele>667.2922363</ele>
        <time>2016-03-10T10:57:47Z</time>
      </trkpt>
      <trkpt lat="44.33611" lon="5.8742">
        <ele>669.2150879</ele>
        <time>2016-03-10T10:58:02Z</time>
      </trkpt>
      <trkpt lat="44.33611" lon="5.87423">
        <ele>669.2150879</ele>
        <time>2016-03-10T10:58:03Z</time>
      </trkpt>
      <trkpt lat="44.33611" lon="5.87428">
        <ele>669.2150879</ele>
        <time>2016-03-10T10:58:05Z</time>
      </trkpt>
      <trkpt lat="44.33614" lon="5.8747">
        <ele>673.0603027</ele>
        <time>2016-03-10T10:58:20Z</time>
      </trkpt>
      <trkpt lat="44.33613" lon="5.87472">
        <ele>673.5410156</ele>
        <time>2016-03-10T10:58:21Z</time>
      </trkpt>
      <trkpt lat="44.33601" lon="5.87532">
        <ele>674.0214844</ele>
        <time>2016-03-10T10:58:41Z</time>
      </trkpt>
      <trkpt lat="44.33596" lon="5.87583">
        <ele>673.0603027</ele>
        <time>2016-03-10T10:58:56Z</time>
      </trkpt>
      <trkpt lat="44.33596" lon="5.87649">
        <ele>673.5410156</ele>
        <time>2016-03-10T10:59:13Z</time>
      </trkpt>
      <trkpt lat="44.33593" lon="5.87719">
        <ele>674.0214844</ele>
        <time>2016-03-10T10:59:27Z</time>
      </trkpt>
      <trkpt lat="44.33562" lon="5.87815">
        <ele>671.6181641</ele>
        <time>2016-03-10T10:59:40Z</time>
      </trkpt>
      <trkpt lat="44.33554" lon="5.8784">
        <ele>670.6569824</ele>
        <time>2016-03-10T10:59:43Z</time>
      </trkpt>
      <trkpt lat="44.33538" lon="5.87865">
        <ele>671.1376953</ele>
        <time>2016-03-10T10:59:47Z</time>
      </trkpt>
      <trkpt lat="44.3348" lon="5.87907">
        <ele>672.098877</ele>
        <time>2016-03-10T11:00:01Z</time>
      </trkpt>
      <trkpt lat="44.3347" lon="5.87917">
        <ele>671.1376953</ele>
        <time>2016-03-10T11:00:03Z</time>
      </trkpt>
      <trkpt lat="44.33456" lon="5.87935">
        <ele>671.1376953</ele>
        <time>2016-03-10T11:00:06Z</time>
      </trkpt>
      <trkpt lat="44.33431" lon="5.88006">
        <ele>670.1762695</ele>
        <time>2016-03-10T11:00:17Z</time>
      </trkpt>
      <trkpt lat="44.33424" lon="5.88044">
        <ele>670.1762695</ele>
        <time>2016-03-10T11:00:23Z</time>
      </trkpt>
      <trkpt lat="44.33421" lon="5.88065">
        <ele>670.1762695</ele>
        <time>2016-03-10T11:00:26Z</time>
      </trkpt>
      <trkpt lat="44.33377" lon="5.88146">
        <ele>669.2150879</ele>
        <time>2016-03-10T11:00:43Z</time>
      </trkpt>
      <trkpt lat="44.33348" lon="5.88217">
        <ele>671.1376953</ele>
        <time>2016-03-10T11:01:01Z</time>
      </trkpt>
      <trkpt lat="44.33337" lon="5.88237">
        <ele>672.5795898</ele>
        <time>2016-03-10T11:01:08Z</time>
      </trkpt>
      <trkpt lat="44.33329" lon="5.88242">
        <ele>672.5795898</ele>
        <time>2016-03-10T11:01:12Z</time>
      </trkpt>
      <trkpt lat="44.33288" lon="5.88254">
        <ele>671.6181641</ele>
        <time>2016-03-10T11:01:23Z</time>
      </trkpt>
      <trkpt lat="44.3325" lon="5.88251">
        <ele>671.6181641</ele>
        <time>2016-03-10T11:01:33Z</time>
      </trkpt>
      <trkpt lat="44.33183" lon="5.88273">
        <ele>670.1762695</ele>
        <time>2016-03-10T11:01:47Z</time>
      </trkpt>
      <trkpt lat="44.33138" lon="5.88297">
        <ele>667.7727051</ele>
        <time>2016-03-10T11:01:55Z</time>
      </trkpt>
      <trkpt lat="44.33127" lon="5.88304">
        <ele>668.2536621</ele>
        <time>2016-03-10T11:01:57Z</time>
      </trkpt>
      <trkpt lat="44.33109" lon="5.88318">
        <ele>665.3696289</ele>
        <time>2016-03-10T11:02:00Z</time>
      </trkpt>
      <trkpt lat="44.33096" lon="5.88324">
        <ele>666.3308105</ele>
        <time>2016-03-10T11:02:02Z</time>
      </trkpt>
      <trkpt lat="44.33015" lon="5.88343">
        <ele>665.3696289</ele>
        <time>2016-03-10T11:02:15Z</time>
      </trkpt>
      <trkpt lat="44.32898" lon="5.88313">
        <ele>663.4470215</ele>
        <time>2016-03-10T11:02:34Z</time>
      </trkpt>
      <trkpt lat="44.32829" lon="5.88291">
        <ele>662.9663086</ele>
        <time>2016-03-10T11:02:46Z</time>
      </trkpt>
      <trkpt lat="44.3274" lon="5.88229">
        <ele>662.4855957</ele>
        <time>2016-03-10T11:03:04Z</time>
      </trkpt>
      <trkpt lat="44.3271" lon="5.88201">
        <ele>660.5629883</ele>
        <time>2016-03-10T11:03:09Z</time>
      </trkpt>
      <trkpt lat="44.32664" lon="5.8817">
        <ele>657.6791992</ele>
        <time>2016-03-10T11:03:15Z</time>
      </trkpt>
      <trkpt lat="44.32572" lon="5.88143">
        <ele>656.2370605</ele>
        <time>2016-03-10T11:03:25Z</time>
      </trkpt>
      <trkpt lat="44.32552" lon="5.88145">
        <ele>654.3146973</ele>
        <time>2016-03-10T11:03:29Z</time>
      </trkpt>
      <trkpt lat="44.32534" lon="5.8815">
        <ele>655.2758789</ele>
        <time>2016-03-10T11:03:34Z</time>
      </trkpt>
      <trkpt lat="44.32461" lon="5.88174">
        <ele>654.3146973</ele>
        <time>2016-03-10T11:03:51Z</time>
      </trkpt>
      <trkpt lat="44.32412" lon="5.8819">
        <ele>654.795166</ele>
        <time>2016-03-10T11:04:06Z</time>
      </trkpt>
      <trkpt lat="44.32407" lon="5.88192">
        <ele>655.2758789</ele>
        <time>2016-03-10T11:04:08Z</time>
      </trkpt>
      <trkpt lat="44.32396" lon="5.88189">
        <ele>655.7565918</ele>
        <time>2016-03-10T11:04:14Z</time>
      </trkpt>
      <trkpt lat="44.3239" lon="5.88196">
        <ele>656.2370605</ele>
        <time>2016-03-10T11:04:20Z</time>
      </trkpt>
      <trkpt lat="44.32367" lon="5.88225">
        <ele>658.1599121</ele>
        <time>2016-03-10T11:04:36Z</time>
      </trkpt>
      <trkpt lat="44.32337" lon="5.8825">
        <ele>659.6018066</ele>
        <time>2016-03-10T11:04:54Z</time>
      </trkpt>
      <trkpt lat="44.32335" lon="5.88251">
        <ele>659.6018066</ele>
        <time>2016-03-10T11:04:55Z</time>
      </trkpt>
      <trkpt lat="44.32328" lon="5.88253">
        <ele>660.5629883</ele>
        <time>2016-03-10T11:04:59Z</time>
      </trkpt>
      <trkpt lat="44.32316" lon="5.88241">
        <ele>661.5244141</ele>
        <time>2016-03-10T11:05:07Z</time>
      </trkpt>
      <trkpt lat="44.32312" lon="5.88189">
        <ele>663.9274902</ele>
        <time>2016-03-10T11:05:26Z</time>
      </trkpt>
      <trkpt lat="44.3231" lon="5.88165">
        <ele>664.888916</ele>
        <time>2016-03-10T11:05:36Z</time>
      </trkpt>
      <trkpt lat="44.3231" lon="5.88157">
        <ele>665.3696289</ele>
        <time>2016-03-10T11:05:40Z</time>
      </trkpt>
      <trkpt lat="44.3231" lon="5.88147">
        <ele>665.8503418</ele>
        <time>2016-03-10T11:05:44Z</time>
      </trkpt>
      <trkpt lat="44.3231" lon="5.88138">
        <ele>666.3308105</ele>
        <time>2016-03-10T11:05:48Z</time>
      </trkpt>
      <trkpt lat="44.3231" lon="5.88126">
        <ele>666.8115234</ele>
        <time>2016-03-10T11:05:53Z</time>
      </trkpt>
      <trkpt lat="44.32307" lon="5.88113">
        <ele>667.7727051</ele>
        <time>2016-03-10T11:05:59Z</time>
      </trkpt>
      <trkpt lat="44.32302" lon="5.88108">
        <ele>667.7727051</ele>
        <time>2016-03-10T11:06:02Z</time>
      </trkpt>
      <trkpt lat="44.32295" lon="5.88108">
        <ele>668.734375</ele>
        <time>2016-03-10T11:06:06Z</time>
      </trkpt>
      <trkpt lat="44.3228" lon="5.88133">
        <ele>670.1762695</ele>
        <time>2016-03-10T11:06:19Z</time>
      </trkpt>
      <trkpt lat="44.32265" lon="5.88166">
        <ele>672.098877</ele>
        <time>2016-03-10T11:06:33Z</time>
      </trkpt>
      <trkpt lat="44.32236" lon="5.88196">
        <ele>672.5795898</ele>
        <time>2016-03-10T11:06:52Z</time>
      </trkpt>
      <trkpt lat="44.32228" lon="5.88172">
        <ele>674.9829102</ele>
        <time>2016-03-10T11:07:03Z</time>
      </trkpt>
      <trkpt lat="44.32223" lon="5.88114">
        <ele>676.9055176</ele>
        <time>2016-03-10T11:07:26Z</time>
      </trkpt>
      <trkpt lat="44.32212" lon="5.88071">
        <ele>678.828125</ele>
        <time>2016-03-10T11:07:44Z</time>
      </trkpt>
      <trkpt lat="44.32211" lon="5.88069">
        <ele>679.3085938</ele>
        <time>2016-03-10T11:07:45Z</time>
      </trkpt>
      <trkpt lat="44.32206" lon="5.88044">
        <ele>680.7507324</ele>
        <time>2016-03-10T11:07:58Z</time>
      </trkpt>
      <trkpt lat="44.322" lon="5.88013">
        <ele>682.192627</ele>
        <time>2016-03-10T11:08:12Z</time>
      </trkpt>
      <trkpt lat="44.32187" lon="5.87971">
        <ele>685.0769043</ele>
        <time>2016-03-10T11:08:30Z</time>
      </trkpt>
      <trkpt lat="44.32173" lon="5.87939">
        <ele>687.9606934</ele>
        <time>2016-03-10T11:08:46Z</time>
      </trkpt>
      <trkpt lat="44.32156" lon="5.87917">
        <ele>689.4025879</ele>
        <time>2016-03-10T11:09:01Z</time>
      </trkpt>
      <trkpt lat="44.32157" lon="5.8791">
        <ele>690.3640137</ele>
        <time>2016-03-10T11:09:04Z</time>
      </trkpt>
      <trkpt lat="44.32163" lon="5.87909">
        <ele>690.8444824</ele>
        <time>2016-03-10T11:09:08Z</time>
      </trkpt>
      <trkpt lat="44.3219" lon="5.87922">
        <ele>692.767334</ele>
        <time>2016-03-10T11:09:24Z</time>
      </trkpt>
      <trkpt lat="44.32211" lon="5.87902">
        <ele>694.2092285</ele>
        <time>2016-03-10T11:09:42Z</time>
      </trkpt>
      <trkpt lat="44.32206" lon="5.87868">
        <ele>697.0930176</ele>
        <time>2016-03-10T11:09:59Z</time>
      </trkpt>
      <trkpt lat="44.32196" lon="5.87844">
        <ele>698.5349121</ele>
        <time>2016-03-10T11:10:12Z</time>
      </trkpt>
      <trkpt lat="44.32178" lon="5.87809">
        <ele>700.4580078</ele>
        <time>2016-03-10T11:10:31Z</time>
      </trkpt>
      <trkpt lat="44.32152" lon="5.87771">
        <ele>703.8225098</ele>
        <time>2016-03-10T11:10:55Z</time>
      </trkpt>
      <trkpt lat="44.32143" lon="5.87747">
        <ele>705.2644043</ele>
        <time>2016-03-10T11:11:09Z</time>
      </trkpt>
      <trkpt lat="44.32136" lon="5.87734">
        <ele>706.2255859</ele>
        <time>2016-03-10T11:11:17Z</time>
      </trkpt>
      <trkpt lat="44.32129" lon="5.8774">
        <ele>707.6677246</ele>
        <time>2016-03-10T11:11:23Z</time>
      </trkpt>
      <trkpt lat="44.32116" lon="5.87773">
        <ele>709.590332</ele>
        <time>2016-03-10T11:11:40Z</time>
      </trkpt>
      <trkpt lat="44.3211" lon="5.87788">
        <ele>710.5515137</ele>
        <time>2016-03-10T11:11:47Z</time>
      </trkpt>
      <trkpt lat="44.32089" lon="5.8782">
        <ele>711.9936523</ele>
        <time>2016-03-10T11:12:03Z</time>
      </trkpt>
      <trkpt lat="44.32066" lon="5.87834">
        <ele>713.4355469</ele>
        <time>2016-03-10T11:12:17Z</time>
      </trkpt>
      <trkpt lat="44.32039" lon="5.87827">
        <ele>716.3195801</ele>
        <time>2016-03-10T11:12:33Z</time>
      </trkpt>
      <trkpt lat="44.32015" lon="5.87799">
        <ele>718.7229004</ele>
        <time>2016-03-10T11:12:50Z</time>
      </trkpt>
      <trkpt lat="44.32011" lon="5.87795">
        <ele>718.7229004</ele>
        <time>2016-03-10T11:12:53Z</time>
      </trkpt>
      <trkpt lat="44.31996" lon="5.87775">
        <ele>720.1647949</ele>
        <time>2016-03-10T11:13:06Z</time>
      </trkpt>
      <trkpt lat="44.31978" lon="5.87738">
        <ele>722.5681152</ele>
        <time>2016-03-10T11:13:24Z</time>
      </trkpt>
      <trkpt lat="44.3197" lon="5.87703">
        <ele>724.4907227</ele>
        <time>2016-03-10T11:13:40Z</time>
      </trkpt>
      <trkpt lat="44.31967" lon="5.87689">
        <ele>724.4907227</ele>
        <time>2016-03-10T11:13:46Z</time>
      </trkpt>
      <trkpt lat="44.31965" lon="5.8768">
        <ele>724.9714355</ele>
        <time>2016-03-10T11:13:50Z</time>
      </trkpt>
      <trkpt lat="44.31963" lon="5.87669">
        <ele>725.4519043</ele>
        <time>2016-03-10T11:13:55Z</time>
      </trkpt>
      <trkpt lat="44.31959" lon="5.87653">
        <ele>726.894043</ele>
        <time>2016-03-10T11:14:03Z</time>
      </trkpt>
      <trkpt lat="44.31959" lon="5.87638">
        <ele>727.8552246</ele>
        <time>2016-03-10T11:14:11Z</time>
      </trkpt>
      <trkpt lat="44.31957" lon="5.87622">
        <ele>728.8166504</ele>
        <time>2016-03-10T11:14:19Z</time>
      </trkpt>
      <trkpt lat="44.31954" lon="5.87597">
        <ele>731.2199707</ele>
        <time>2016-03-10T11:14:31Z</time>
      </trkpt>
      <trkpt lat="44.31953" lon="5.87588">
        <ele>731.7004395</ele>
        <time>2016-03-10T11:14:35Z</time>
      </trkpt>
      <trkpt lat="44.31953" lon="5.87584">
        <ele>732.1813965</ele>
        <time>2016-03-10T11:14:38Z</time>
      </trkpt>
      <trkpt lat="44.3195" lon="5.87559">
        <ele>733.623291</ele>
        <time>2016-03-10T11:14:50Z</time>
      </trkpt>
      <trkpt lat="44.31949" lon="5.87557">
        <ele>733.623291</ele>
        <time>2016-03-10T11:14:51Z</time>
      </trkpt>
      <trkpt lat="44.31949" lon="5.87551">
        <ele>734.1040039</ele>
        <time>2016-03-10T11:14:54Z</time>
      </trkpt>
      <trkpt lat="44.31956" lon="5.87527">
        <ele>736.987793</ele>
        <time>2016-03-10T11:15:09Z</time>
      </trkpt>
      <trkpt lat="44.31964" lon="5.87519">
        <ele>737.9492188</ele>
        <time>2016-03-10T11:15:15Z</time>
      </trkpt>
      <trkpt lat="44.31963" lon="5.87502">
        <ele>738.9106445</ele>
        <time>2016-03-10T11:15:23Z</time>
      </trkpt>
      <trkpt lat="44.31956" lon="5.87499">
        <ele>740.3525391</ele>
        <time>2016-03-10T11:15:31Z</time>
      </trkpt>
      <trkpt lat="44.31954" lon="5.87501">
        <ele>740.3525391</ele>
        <time>2016-03-10T11:15:33Z</time>
      </trkpt>
      <trkpt lat="44.3195" lon="5.87503">
        <ele>739.3911133</ele>
        <time>2016-03-10T11:15:48Z</time>
      </trkpt>
      <trkpt lat="44.31948" lon="5.87507">
        <ele>738.4299316</ele>
        <time>2016-03-10T11:16:13Z</time>
      </trkpt>
      <trkpt lat="44.31948" lon="5.87508">
        <ele>739.3911133</ele>
        <time>2016-03-10T11:16:44Z</time>
      </trkpt>
      <trkpt lat="44.31947" lon="5.87509">
        <ele>738.4299316</ele>
        <time>2016-03-10T11:17:21Z</time>
      </trkpt>
      <trkpt lat="44.31946" lon="5.87508">
        <ele>739.3911133</ele>
        <time>2016-03-10T11:17:39Z</time>
      </trkpt>
      <trkpt lat="44.31939" lon="5.87506">
        <ele>740.3525391</ele>
        <time>2016-03-10T11:18:01Z</time>
      </trkpt>
      <trkpt lat="44.31936" lon="5.87507">
        <ele>740.8330078</ele>
        <time>2016-03-10T11:18:11Z</time>
      </trkpt>
      <trkpt lat="44.31929" lon="5.87507">
        <ele>740.8330078</ele>
        <time>2016-03-10T11:18:15Z</time>
      </trkpt>
      <trkpt lat="44.31921" lon="5.87511">
        <ele>738.9106445</ele>
        <time>2016-03-10T11:18:19Z</time>
      </trkpt>
      <trkpt lat="44.31912" lon="5.87513">
        <ele>740.8330078</ele>
        <time>2016-03-10T11:18:23Z</time>
      </trkpt>
      <trkpt lat="44.31909" lon="5.87516">
        <ele>740.8330078</ele>
        <time>2016-03-10T11:18:25Z</time>
      </trkpt>
      <trkpt lat="44.31904" lon="5.87521">
        <ele>740.3525391</ele>
        <time>2016-03-10T11:18:28Z</time>
      </trkpt>
      <trkpt lat="44.31873" lon="5.87542">
        <ele>738.4299316</ele>
        <time>2016-03-10T11:18:42Z</time>
      </trkpt>
      <trkpt lat="44.31872" lon="5.87542">
        <ele>738.4299316</ele>
        <time>2016-03-10T11:18:53Z</time>
      </trkpt>
      <trkpt lat="44.31856" lon="5.87543">
        <ele>737.4685059</ele>
        <time>2016-03-10T11:18:58Z</time>
      </trkpt>
      <trkpt lat="44.31837" lon="5.87528">
        <ele>735.0654297</ele>
        <time>2016-03-10T11:19:03Z</time>
      </trkpt>
      <trkpt lat="44.31834" lon="5.87523">
        <ele>734.1040039</ele>
        <time>2016-03-10T11:19:04Z</time>
      </trkpt>
      <trkpt lat="44.31807" lon="5.87487">
        <ele>735.0654297</ele>
        <time>2016-03-10T11:19:15Z</time>
      </trkpt>
      <trkpt lat="44.31787" lon="5.87472">
        <ele>736.5073242</ele>
        <time>2016-03-10T11:19:24Z</time>
      </trkpt>
      <trkpt lat="44.3178" lon="5.87469">
        <ele>737.4685059</ele>
        <time>2016-03-10T11:19:30Z</time>
      </trkpt>
      <trkpt lat="44.31775" lon="5.87471">
        <ele>737.9492188</ele>
        <time>2016-03-10T11:19:33Z</time>
      </trkpt>
      <trkpt lat="44.31769" lon="5.87475">
        <ele>738.4299316</ele>
        <time>2016-03-10T11:19:35Z</time>
      </trkpt>
      <trkpt lat="44.31746" lon="5.87479">
        <ele>736.0266113</ele>
        <time>2016-03-10T11:19:43Z</time>
      </trkpt>
      <trkpt lat="44.31727" lon="5.87495">
        <ele>733.1425781</ele>
        <time>2016-03-10T11:19:49Z</time>
      </trkpt>
      <trkpt lat="44.31721" lon="5.87498">
        <ele>731.2199707</ele>
        <time>2016-03-10T11:20:01Z</time>
      </trkpt>
      <trkpt lat="44.3172" lon="5.87498">
        <ele>730.7392578</ele>
        <time>2016-03-10T11:20:25Z</time>
      </trkpt>
      <trkpt lat="44.31694" lon="5.87492">
        <ele>728.8166504</ele>
        <time>2016-03-10T11:20:33Z</time>
      </trkpt>
      <trkpt lat="44.31679" lon="5.87473">
        <ele>725.4519043</ele>
        <time>2016-03-10T11:20:38Z</time>
      </trkpt>
      <trkpt lat="44.31687" lon="5.87415">
        <ele>722.0874023</ele>
        <time>2016-03-10T11:20:49Z</time>
      </trkpt>
      <trkpt lat="44.31687" lon="5.87377">
        <ele>718.7229004</ele>
        <time>2016-03-10T11:20:53Z</time>
      </trkpt>
      <trkpt lat="44.31683" lon="5.87368">
        <ele>718.7229004</ele>
        <time>2016-03-10T11:20:54Z</time>
      </trkpt>
      <trkpt lat="44.31675" lon="5.87356">
        <ele>717.2810059</ele>
        <time>2016-03-10T11:20:56Z</time>
      </trkpt>
      <trkpt lat="44.31664" lon="5.87347">
        <ele>714.8774414</ele>
        <time>2016-03-10T11:20:58Z</time>
      </trkpt>
      <trkpt lat="44.31654" lon="5.87339">
        <ele>712.954834</ele>
        <time>2016-03-10T11:21:00Z</time>
      </trkpt>
      <trkpt lat="44.31641" lon="5.8732">
        <ele>711.5129395</ele>
        <time>2016-03-10T11:21:03Z</time>
      </trkpt>
      <trkpt lat="44.31636" lon="5.87288">
        <ele>706.7062988</ele>
        <time>2016-03-10T11:21:07Z</time>
      </trkpt>
      <trkpt lat="44.31636" lon="5.87281">
        <ele>706.7062988</ele>
        <time>2016-03-10T11:21:08Z</time>
      </trkpt>
      <trkpt lat="44.31637" lon="5.87269">
        <ele>705.2644043</ele>
        <time>2016-03-10T11:21:10Z</time>
      </trkpt>
      <trkpt lat="44.31646" lon="5.87215">
        <ele>702.3803711</ele>
        <time>2016-03-10T11:21:17Z</time>
      </trkpt>
      <trkpt lat="44.31649" lon="5.87191">
        <ele>702.3803711</ele>
        <time>2016-03-10T11:21:19Z</time>
      </trkpt>
      <trkpt lat="44.31651" lon="5.87151">
        <ele>698.0544434</ele>
        <time>2016-03-10T11:21:22Z</time>
      </trkpt>
      <trkpt lat="44.31655" lon="5.87125">
        <ele>695.651123</ele>
        <time>2016-03-10T11:21:24Z</time>
      </trkpt>
      <trkpt lat="44.31656" lon="5.87114">
        <ele>692.767334</ele>
        <time>2016-03-10T11:21:25Z</time>
      </trkpt>
      <trkpt lat="44.31653" lon="5.87082">
        <ele>688.9221191</ele>
        <time>2016-03-10T11:21:28Z</time>
      </trkpt>
      <trkpt lat="44.3165" lon="5.87071">
        <ele>688.9221191</ele>
        <time>2016-03-10T11:21:29Z</time>
      </trkpt>
      <trkpt lat="44.31639" lon="5.87051">
        <ele>687.4799805</ele>
        <time>2016-03-10T11:21:31Z</time>
      </trkpt>
      <trkpt lat="44.31624" lon="5.87036">
        <ele>686.0380859</ele>
        <time>2016-03-10T11:21:33Z</time>
      </trkpt>
      <trkpt lat="44.31569" lon="5.86996">
        <ele>684.1154785</ele>
        <time>2016-03-10T11:21:39Z</time>
      </trkpt>
      <trkpt lat="44.31558" lon="5.86989">
        <ele>684.1154785</ele>
        <time>2016-03-10T11:21:40Z</time>
      </trkpt>
      <trkpt lat="44.31518" lon="5.86961">
        <ele>679.3085938</ele>
        <time>2016-03-10T11:21:44Z</time>
      </trkpt>
      <trkpt lat="44.31508" lon="5.86955">
        <ele>679.3085938</ele>
        <time>2016-03-10T11:21:45Z</time>
      </trkpt>
      <trkpt lat="44.3149" lon="5.86942">
        <ele>676.4248047</ele>
        <time>2016-03-10T11:21:47Z</time>
      </trkpt>
      <trkpt lat="44.31481" lon="5.86935">
        <ele>671.6181641</ele>
        <time>2016-03-10T11:21:48Z</time>
      </trkpt>
      <trkpt lat="44.31472" lon="5.86929">
        <ele>671.6181641</ele>
        <time>2016-03-10T11:21:49Z</time>
      </trkpt>
      <trkpt lat="44.31454" lon="5.86916">
        <ele>666.3308105</ele>
        <time>2016-03-10T11:21:51Z</time>
      </trkpt>
      <trkpt lat="44.31436" lon="5.86897">
        <ele>664.888916</ele>
        <time>2016-03-10T11:21:54Z</time>
      </trkpt>
      <trkpt lat="44.31431" lon="5.86889">
        <ele>664.4082031</ele>
        <time>2016-03-10T11:21:55Z</time>
      </trkpt>
      <trkpt lat="44.31392" lon="5.86807">
        <ele>660.0822754</ele>
        <time>2016-03-10T11:22:05Z</time>
      </trkpt>
      <trkpt lat="44.31388" lon="5.86798">
        <ele>660.0822754</ele>
        <time>2016-03-10T11:22:06Z</time>
      </trkpt>
      <trkpt lat="44.31381" lon="5.86783">
        <ele>658.6403809</ele>
        <time>2016-03-10T11:22:08Z</time>
      </trkpt>
      <trkpt lat="44.31375" lon="5.86769">
        <ele>656.7177734</ele>
        <time>2016-03-10T11:22:10Z</time>
      </trkpt>
      <trkpt lat="44.31363" lon="5.86746">
        <ele>655.7565918</ele>
        <time>2016-03-10T11:22:13Z</time>
      </trkpt>
      <trkpt lat="44.31328" lon="5.86705">
        <ele>651.4304199</ele>
        <time>2016-03-10T11:22:19Z</time>
      </trkpt>
      <trkpt lat="44.31321" lon="5.86698">
        <ele>651.4304199</ele>
        <time>2016-03-10T11:22:20Z</time>
      </trkpt>
      <trkpt lat="44.31292" lon="5.8668">
        <ele>649.0270996</ele>
        <time>2016-03-10T11:22:24Z</time>
      </trkpt>
      <trkpt lat="44.31253" lon="5.86661">
        <ele>646.1433105</ele>
        <time>2016-03-10T11:22:29Z</time>
      </trkpt>
      <trkpt lat="44.31235" lon="5.86651">
        <ele>644.7011719</ele>
        <time>2016-03-10T11:22:31Z</time>
      </trkpt>
      <trkpt lat="44.31217" lon="5.86642">
        <ele>643.2592773</ele>
        <time>2016-03-10T11:22:33Z</time>
      </trkpt>
      <trkpt lat="44.31198" lon="5.86632">
        <ele>640.3754883</ele>
        <time>2016-03-10T11:22:35Z</time>
      </trkpt>
      <trkpt lat="44.31163" lon="5.86589">
        <ele>639.8947754</ele>
        <time>2016-03-10T11:22:40Z</time>
      </trkpt>
      <trkpt lat="44.31136" lon="5.86533">
        <ele>638.9335938</ele>
        <time>2016-03-10T11:22:45Z</time>
      </trkpt>
      <trkpt lat="44.31108" lon="5.86477">
        <ele>637.4914551</ele>
        <time>2016-03-10T11:22:50Z</time>
      </trkpt>
      <trkpt lat="44.31094" lon="5.86461">
        <ele>634.126709</ele>
        <time>2016-03-10T11:22:52Z</time>
      </trkpt>
      <trkpt lat="44.31078" lon="5.86451">
        <ele>632.6848145</ele>
        <time>2016-03-10T11:22:54Z</time>
      </trkpt>
      <trkpt lat="44.31061" lon="5.86446">
        <ele>631.2429199</ele>
        <time>2016-03-10T11:22:56Z</time>
      </trkpt>
      <trkpt lat="44.31034" lon="5.86443">
        <ele>629.8007813</ele>
        <time>2016-03-10T11:22:59Z</time>
      </trkpt>
      <trkpt lat="44.30988" lon="5.86438">
        <ele>627.8781738</ele>
        <time>2016-03-10T11:23:04Z</time>
      </trkpt>
      <trkpt lat="44.3093" lon="5.86428">
        <ele>624.9943848</ele>
        <time>2016-03-10T11:23:10Z</time>
      </trkpt>
      <trkpt lat="44.30904" lon="5.86423">
        <ele>623.0717773</ele>
        <time>2016-03-10T11:23:13Z</time>
      </trkpt>
      <trkpt lat="44.30887" lon="5.86418">
        <ele>621.6296387</ele>
        <time>2016-03-10T11:23:15Z</time>
      </trkpt>
      <trkpt lat="44.30878" lon="5.86415">
        <ele>621.1491699</ele>
        <time>2016-03-10T11:23:16Z</time>
      </trkpt>
      <trkpt lat="44.3085" lon="5.86391">
        <ele>620.1877441</ele>
        <time>2016-03-10T11:23:20Z</time>
      </trkpt>
      <trkpt lat="44.30839" lon="5.86375">
        <ele>618.7456055</ele>
        <time>2016-03-10T11:23:22Z</time>
      </trkpt>
      <trkpt lat="44.30796" lon="5.86306">
        <ele>617.3037109</ele>
        <time>2016-03-10T11:23:31Z</time>
      </trkpt>
      <trkpt lat="44.30756" lon="5.86242">
        <ele>614.4196777</ele>
        <time>2016-03-10T11:23:39Z</time>
      </trkpt>
      <trkpt lat="44.30745" lon="5.86226">
        <ele>613.4584961</ele>
        <time>2016-03-10T11:23:41Z</time>
      </trkpt>
      <trkpt lat="44.30734" lon="5.86209">
        <ele>612.0166016</ele>
        <time>2016-03-10T11:23:43Z</time>
      </trkpt>
      <trkpt lat="44.30723" lon="5.86192">
        <ele>610.5744629</ele>
        <time>2016-03-10T11:23:45Z</time>
      </trkpt>
      <trkpt lat="44.30694" lon="5.86147">
        <ele>607.6906738</ele>
        <time>2016-03-10T11:23:52Z</time>
      </trkpt>
      <trkpt lat="44.30681" lon="5.86136">
        <ele>605.7680664</ele>
        <time>2016-03-10T11:24:00Z</time>
      </trkpt>
      <trkpt lat="44.30681" lon="5.86136">
        <ele>604.3261719</ele>
        <time>2016-03-10T11:24:18Z</time>
      </trkpt>
      <trkpt lat="44.30679" lon="5.86135">
        <ele>605.7680664</ele>
        <time>2016-03-10T11:24:25Z</time>
      </trkpt>
      <trkpt lat="44.30672" lon="5.86136">
        <ele>605.2873535</ele>
        <time>2016-03-10T11:24:29Z</time>
      </trkpt>
      <trkpt lat="44.30671" lon="5.86165">
        <ele>605.2873535</ele>
        <time>2016-03-10T11:24:36Z</time>
      </trkpt>
      <trkpt lat="44.3067" lon="5.86222">
        <ele>607.6906738</ele>
        <time>2016-03-10T11:24:50Z</time>
      </trkpt>
      <trkpt lat="44.30678" lon="5.86277">
        <ele>610.09375</ele>
        <time>2016-03-10T11:25:06Z</time>
      </trkpt>
      <trkpt lat="44.30694" lon="5.86325">
        <ele>610.09375</ele>
        <time>2016-03-10T11:25:22Z</time>
      </trkpt>
      <trkpt lat="44.30705" lon="5.86347">
        <ele>610.09375</ele>
        <time>2016-03-10T11:25:30Z</time>
      </trkpt>
      <trkpt lat="44.30727" lon="5.86391">
        <ele>612.0166016</ele>
        <time>2016-03-10T11:25:46Z</time>
      </trkpt>
      <trkpt lat="44.3073" lon="5.86396">
        <ele>613.9389648</ele>
        <time>2016-03-10T11:25:48Z</time>
      </trkpt>
      <trkpt lat="44.3074" lon="5.86415">
        <ele>615.3811035</ele>
        <time>2016-03-10T11:25:55Z</time>
      </trkpt>
      <trkpt lat="44.30742" lon="5.8642">
        <ele>613.9389648</ele>
        <time>2016-03-10T11:25:57Z</time>
      </trkpt>
      <trkpt lat="44.30763" lon="5.86462">
        <ele>615.8618164</ele>
        <time>2016-03-10T11:26:13Z</time>
      </trkpt>
      <trkpt lat="44.30768" lon="5.86475">
        <ele>618.2648926</ele>
        <time>2016-03-10T11:26:18Z</time>
      </trkpt>
      <trkpt lat="44.30784" lon="5.86515">
        <ele>619.7070313</ele>
        <time>2016-03-10T11:26:34Z</time>
      </trkpt>
      <trkpt lat="44.30789" lon="5.86546">
        <ele>622.1103516</ele>
        <time>2016-03-10T11:26:46Z</time>
      </trkpt>
      <trkpt lat="44.30799" lon="5.86588">
        <ele>623.0717773</ele>
        <time>2016-03-10T11:27:01Z</time>
      </trkpt>
      <trkpt lat="44.30804" lon="5.86632">
        <ele>624.5136719</ele>
        <time>2016-03-10T11:27:18Z</time>
      </trkpt>
      <trkpt lat="44.30811" lon="5.86672">
        <ele>626.9169922</ele>
        <time>2016-03-10T11:27:33Z</time>
      </trkpt>
      <trkpt lat="44.30811" lon="5.86695">
        <ele>627.8781738</ele>
        <time>2016-03-10T11:27:42Z</time>
      </trkpt>
      <trkpt lat="44.30821" lon="5.86743">
        <ele>629.8007813</ele>
        <time>2016-03-10T11:28:00Z</time>
      </trkpt>
      <trkpt lat="44.30824" lon="5.86772">
        <ele>631.2429199</ele>
        <time>2016-03-10T11:28:11Z</time>
      </trkpt>
      <trkpt lat="44.30827" lon="5.86809">
        <ele>632.2041016</ele>
        <time>2016-03-10T11:28:25Z</time>
      </trkpt>
      <trkpt lat="44.30828" lon="5.86864">
        <ele>635.0881348</ele>
        <time>2016-03-10T11:28:44Z</time>
      </trkpt>
      <trkpt lat="44.30823" lon="5.86924">
        <ele>637.0107422</ele>
        <time>2016-03-10T11:29:05Z</time>
      </trkpt>
      <trkpt lat="44.3081" lon="5.86971">
        <ele>638.4528809</ele>
        <time>2016-03-10T11:29:21Z</time>
      </trkpt>
      <trkpt lat="44.30795" lon="5.87018">
        <ele>640.3754883</ele>
        <time>2016-03-10T11:29:36Z</time>
      </trkpt>
      <trkpt lat="44.30771" lon="5.87064">
        <ele>641.3366699</ele>
        <time>2016-03-10T11:29:53Z</time>
      </trkpt>
      <trkpt lat="44.30739" lon="5.8711">
        <ele>643.2592773</ele>
        <time>2016-03-10T11:30:11Z</time>
      </trkpt>
      <trkpt lat="44.307" lon="5.8717">
        <ele>644.7011719</ele>
        <time>2016-03-10T11:30:35Z</time>
      </trkpt>
      <trkpt lat="44.30658" lon="5.87239">
        <ele>648.065918</ele>
        <time>2016-03-10T11:31:02Z</time>
      </trkpt>
      <trkpt lat="44.30628" lon="5.87288">
        <ele>650.4692383</ele>
        <time>2016-03-10T11:31:22Z</time>
      </trkpt>
      <trkpt lat="44.30597" lon="5.87335">
        <ele>652.3918457</ele>
        <time>2016-03-10T11:31:42Z</time>
      </trkpt>
      <trkpt lat="44.30574" lon="5.87382">
        <ele>654.3146973</ele>
        <time>2016-03-10T11:32:00Z</time>
      </trkpt>
      <trkpt lat="44.30548" lon="5.87423">
        <ele>655.2758789</ele>
        <time>2016-03-10T11:32:17Z</time>
      </trkpt>
      <trkpt lat="44.30538" lon="5.87446">
        <ele>657.6791992</ele>
        <time>2016-03-10T11:32:26Z</time>
      </trkpt>
      <trkpt lat="44.30533" lon="5.87495">
        <ele>659.6018066</ele>
        <time>2016-03-10T11:32:44Z</time>
      </trkpt>
      <trkpt lat="44.30533" lon="5.87508">
        <ele>660.0822754</ele>
        <time>2016-03-10T11:32:49Z</time>
      </trkpt>
      <trkpt lat="44.30529" lon="5.87543">
        <ele>660.5629883</ele>
        <time>2016-03-10T11:33:02Z</time>
      </trkpt>
      <trkpt lat="44.30528" lon="5.87552">
        <ele>661.5244141</ele>
        <time>2016-03-10T11:33:13Z</time>
      </trkpt>
      <trkpt lat="44.30528" lon="5.87552">
        <ele>661.5244141</ele>
        <time>2016-03-10T11:33:41Z</time>
      </trkpt>
      <trkpt lat="44.3052" lon="5.87553">
        <ele>662.005127</ele>
        <time>2016-03-10T11:33:46Z</time>
      </trkpt>
      <trkpt lat="44.30496" lon="5.87532">
        <ele>664.4082031</ele>
        <time>2016-03-10T11:33:59Z</time>
      </trkpt>
      <trkpt lat="44.30475" lon="5.87516">
        <ele>664.4082031</ele>
        <time>2016-03-10T11:34:10Z</time>
      </trkpt>
      <trkpt lat="44.30444" lon="5.87515">
        <ele>666.3308105</ele>
        <time>2016-03-10T11:34:24Z</time>
      </trkpt>
      <trkpt lat="44.30395" lon="5.87524">
        <ele>665.8503418</ele>
        <time>2016-03-10T11:34:40Z</time>
      </trkpt>
      <trkpt lat="44.30326" lon="5.87541">
        <ele>663.9274902</ele>
        <time>2016-03-10T11:34:53Z</time>
      </trkpt>
      <trkpt lat="44.30235" lon="5.87563">
        <ele>662.9663086</ele>
        <time>2016-03-10T11:35:10Z</time>
      </trkpt>
      <trkpt lat="44.3022" lon="5.87568">
        <ele>662.9663086</ele>
        <time>2016-03-10T11:35:13Z</time>
      </trkpt>
      <trkpt lat="44.3019" lon="5.87594">
        <ele>661.5244141</ele>
        <time>2016-03-10T11:35:20Z</time>
      </trkpt>
      <trkpt lat="44.30173" lon="5.8762">
        <ele>660.5629883</ele>
        <time>2016-03-10T11:35:27Z</time>
      </trkpt>
      <trkpt lat="44.30146" lon="5.87638">
        <ele>661.5244141</ele>
        <time>2016-03-10T11:35:34Z</time>
      </trkpt>
      <trkpt lat="44.30112" lon="5.87634">
        <ele>663.9274902</ele>
        <time>2016-03-10T11:35:47Z</time>
      </trkpt>
      <trkpt lat="44.30112" lon="5.87636">
        <ele>663.4470215</ele>
        <time>2016-03-10T11:35:59Z</time>
      </trkpt>
      <trkpt lat="44.30145" lon="5.87637">
        <ele>662.4855957</ele>
        <time>2016-03-10T11:36:12Z</time>
      </trkpt>
      <trkpt lat="44.30148" lon="5.87637">
        <ele>662.4855957</ele>
        <time>2016-03-10T11:36:13Z</time>
      </trkpt>
      <trkpt lat="44.30153" lon="5.87634">
        <ele>661.0437012</ele>
        <time>2016-03-10T11:36:15Z</time>
      </trkpt>
      <trkpt lat="44.30156" lon="5.87647">
        <ele>661.0437012</ele>
        <time>2016-03-10T11:36:20Z</time>
      </trkpt>
      <trkpt lat="44.30148" lon="5.87658">
        <ele>659.6018066</ele>
        <time>2016-03-10T11:36:23Z</time>
      </trkpt>
      <trkpt lat="44.30126" lon="5.87677">
        <ele>657.6791992</ele>
        <time>2016-03-10T11:36:31Z</time>
      </trkpt>
      <trkpt lat="44.30094" lon="5.87697">
        <ele>655.2758789</ele>
        <time>2016-03-10T11:36:39Z</time>
      </trkpt>
      <trkpt lat="44.30067" lon="5.87712">
        <ele>652.8725586</ele>
        <time>2016-03-10T11:36:43Z</time>
      </trkpt>
      <trkpt lat="44.30031" lon="5.87735">
        <ele>649.9885254</ele>
        <time>2016-03-10T11:36:48Z</time>
      </trkpt>
      <trkpt lat="44.30002" lon="5.8775">
        <ele>650.949707</ele>
        <time>2016-03-10T11:36:52Z</time>
      </trkpt>
      <trkpt lat="44.29971" lon="5.87783">
        <ele>650.4692383</ele>
        <time>2016-03-10T11:36:57Z</time>
      </trkpt>
      <trkpt lat="44.29967" lon="5.87791">
        <ele>648.5463867</ele>
        <time>2016-03-10T11:36:58Z</time>
      </trkpt>
      <trkpt lat="44.29957" lon="5.87813">
        <ele>644.7011719</ele>
        <time>2016-03-10T11:37:01Z</time>
      </trkpt>
      <trkpt lat="44.29953" lon="5.87821">
        <ele>644.7011719</ele>
        <time>2016-03-10T11:37:02Z</time>
      </trkpt>
      <trkpt lat="44.29929" lon="5.87845">
        <ele>644.2207031</ele>
        <time>2016-03-10T11:37:07Z</time>
      </trkpt>
      <trkpt lat="44.29918" lon="5.87849">
        <ele>642.7788086</ele>
        <time>2016-03-10T11:37:09Z</time>
      </trkpt>
      <trkpt lat="44.29873" lon="5.87872">
        <ele>639.8947754</ele>
        <time>2016-03-10T11:37:16Z</time>
      </trkpt>
      <trkpt lat="44.29805" lon="5.87898">
        <ele>636.5302734</ele>
        <time>2016-03-10T11:37:26Z</time>
      </trkpt>
      <trkpt lat="44.298" lon="5.879">
        <ele>636.5302734</ele>
        <time>2016-03-10T11:37:27Z</time>
      </trkpt>
      <trkpt lat="44.29773" lon="5.87899">
        <ele>636.5302734</ele>
        <time>2016-03-10T11:37:32Z</time>
      </trkpt>
      <trkpt lat="44.29693" lon="5.87866">
        <ele>635.0881348</ele>
        <time>2016-03-10T11:37:47Z</time>
      </trkpt>
      <trkpt lat="44.29656" lon="5.87879">
        <ele>634.6074219</ele>
        <time>2016-03-10T11:37:58Z</time>
      </trkpt>
      <trkpt lat="44.29654" lon="5.8788">
        <ele>634.126709</ele>
        <time>2016-03-10T11:38:14Z</time>
      </trkpt>
      <trkpt lat="44.29632" lon="5.87836">
        <ele>633.6459961</ele>
        <time>2016-03-10T11:38:30Z</time>
      </trkpt>
      <trkpt lat="44.29607" lon="5.87774">
        <ele>635.5686035</ele>
        <time>2016-03-10T11:38:44Z</time>
      </trkpt>
      <trkpt lat="44.29605" lon="5.87768">
        <ele>634.6074219</ele>
        <time>2016-03-10T11:38:45Z</time>
      </trkpt>
      <trkpt lat="44.296" lon="5.87757">
        <ele>634.6074219</ele>
        <time>2016-03-10T11:38:47Z</time>
      </trkpt>
      <trkpt lat="44.29576" lon="5.87719">
        <ele>634.6074219</ele>
        <time>2016-03-10T11:38:56Z</time>
      </trkpt>
      <trkpt lat="44.29539" lon="5.87687">
        <ele>634.126709</ele>
        <time>2016-03-10T11:39:06Z</time>
      </trkpt>
      <trkpt lat="44.29435" lon="5.87638">
        <ele>634.6074219</ele>
        <time>2016-03-10T11:39:31Z</time>
      </trkpt>
      <trkpt lat="44.29371" lon="5.87604">
        <ele>637.972168</ele>
        <time>2016-03-10T11:39:50Z</time>
      </trkpt>
      <trkpt lat="44.2935" lon="5.87574">
        <ele>638.4528809</ele>
        <time>2016-03-10T11:40:04Z</time>
      </trkpt>
      <trkpt lat="44.29347" lon="5.87539">
        <ele>637.972168</ele>
        <time>2016-03-10T11:40:15Z</time>
      </trkpt>
      <trkpt lat="44.29343" lon="5.87522">
        <ele>637.4914551</ele>
        <time>2016-03-10T11:40:26Z</time>
      </trkpt>
      <trkpt lat="44.29331" lon="5.87498">
        <ele>636.5302734</ele>
        <time>2016-03-10T11:41:41Z</time>
      </trkpt>
      <trkpt lat="44.29327" lon="5.87491">
        <ele>636.5302734</ele>
        <time>2016-03-10T11:41:56Z</time>
      </trkpt>
      <trkpt lat="44.2933" lon="5.87493">
        <ele>636.5302734</ele>
        <time>2016-03-10T11:42:22Z</time>
      </trkpt>
      <trkpt lat="44.29314" lon="5.87497">
        <ele>637.0107422</ele>
        <time>2016-03-10T11:43:24Z</time>
      </trkpt>
      <trkpt lat="44.29309" lon="5.87491">
        <ele>636.5302734</ele>
        <time>2016-03-10T11:43:35Z</time>
      </trkpt>
      <trkpt lat="44.29283" lon="5.87457">
        <ele>637.0107422</ele>
        <time>2016-03-10T11:43:49Z</time>
      </trkpt>
      <trkpt lat="44.29238" lon="5.87404">
        <ele>636.5302734</ele>
        <time>2016-03-10T11:44:07Z</time>
      </trkpt>
      <trkpt lat="44.29194" lon="5.8738">
        <ele>636.5302734</ele>
        <time>2016-03-10T11:44:20Z</time>
      </trkpt>
      <trkpt lat="44.29162" lon="5.87355">
        <ele>637.0107422</ele>
        <time>2016-03-10T11:44:29Z</time>
      </trkpt>
      <trkpt lat="44.29108" lon="5.8731">
        <ele>636.5302734</ele>
        <time>2016-03-10T11:44:45Z</time>
      </trkpt>
      <trkpt lat="44.2908" lon="5.87287">
        <ele>635.5686035</ele>
        <time>2016-03-10T11:44:54Z</time>
      </trkpt>
      <trkpt lat="44.29052" lon="5.87255">
        <ele>636.5302734</ele>
        <time>2016-03-10T11:45:04Z</time>
      </trkpt>
      <trkpt lat="44.29009" lon="5.87209">
        <ele>635.5686035</ele>
        <time>2016-03-10T11:45:16Z</time>
      </trkpt>
      <trkpt lat="44.28989" lon="5.87188">
        <ele>636.0495605</ele>
        <time>2016-03-10T11:45:22Z</time>
      </trkpt>
      <trkpt lat="44.28973" lon="5.87165">
        <ele>634.6074219</ele>
        <time>2016-03-10T11:45:28Z</time>
      </trkpt>
      <trkpt lat="44.28938" lon="5.87121">
        <ele>635.0881348</ele>
        <time>2016-03-10T11:45:40Z</time>
      </trkpt>
      <trkpt lat="44.2888" lon="5.87079">
        <ele>636.0495605</ele>
        <time>2016-03-10T11:45:57Z</time>
      </trkpt>
      <trkpt lat="44.28846" lon="5.87057">
        <ele>636.5302734</ele>
        <time>2016-03-10T11:46:08Z</time>
      </trkpt>
      <trkpt lat="44.28814" lon="5.87024">
        <ele>636.0495605</ele>
        <time>2016-03-10T11:46:19Z</time>
      </trkpt>
      <trkpt lat="44.28759" lon="5.86976">
        <ele>637.4914551</ele>
        <time>2016-03-10T11:46:34Z</time>
      </trkpt>
      <trkpt lat="44.28699" lon="5.86931">
        <ele>638.4528809</ele>
        <time>2016-03-10T11:46:51Z</time>
      </trkpt>
      <trkpt lat="44.28688" lon="5.8692">
        <ele>638.4528809</ele>
        <time>2016-03-10T11:46:54Z</time>
      </trkpt>
      <trkpt lat="44.28616" lon="5.86848">
        <ele>638.4528809</ele>
        <time>2016-03-10T11:47:11Z</time>
      </trkpt>
      <trkpt lat="44.28541" lon="5.86782">
        <ele>637.972168</ele>
        <time>2016-03-10T11:47:27Z</time>
      </trkpt>
      <trkpt lat="44.28509" lon="5.86762">
        <ele>636.5302734</ele>
        <time>2016-03-10T11:47:33Z</time>
      </trkpt>
      <trkpt lat="44.28482" lon="5.8675">
        <ele>636.5302734</ele>
        <time>2016-03-10T11:47:38Z</time>
      </trkpt>
      <trkpt lat="44.28462" lon="5.86732">
        <ele>636.5302734</ele>
        <time>2016-03-10T11:47:42Z</time>
      </trkpt>
      <trkpt lat="44.28437" lon="5.8668">
        <ele>635.0881348</ele>
        <time>2016-03-10T11:47:49Z</time>
      </trkpt>
      <trkpt lat="44.28432" lon="5.86625">
        <ele>634.126709</ele>
        <time>2016-03-10T11:47:54Z</time>
      </trkpt>
      <trkpt lat="44.28437" lon="5.86593">
        <ele>631.7233887</ele>
        <time>2016-03-10T11:47:57Z</time>
      </trkpt>
      <trkpt lat="44.28438" lon="5.86572">
        <ele>631.2429199</ele>
        <time>2016-03-10T11:47:59Z</time>
      </trkpt>
      <trkpt lat="44.28414" lon="5.86468">
        <ele>629.8007813</ele>
        <time>2016-03-10T11:48:11Z</time>
      </trkpt>
      <trkpt lat="44.28411" lon="5.86461">
        <ele>630.2814941</ele>
        <time>2016-03-10T11:48:12Z</time>
      </trkpt>
      <trkpt lat="44.2841" lon="5.86401">
        <ele>631.2429199</ele>
        <time>2016-03-10T11:48:23Z</time>
      </trkpt>
      <trkpt lat="44.28408" lon="5.86363">
        <ele>633.1652832</ele>
        <time>2016-03-10T11:48:32Z</time>
      </trkpt>
      <trkpt lat="44.28381" lon="5.86302">
        <ele>633.6459961</ele>
        <time>2016-03-10T11:48:47Z</time>
      </trkpt>
      <trkpt lat="44.28358" lon="5.86246">
        <ele>634.6074219</ele>
        <time>2016-03-10T11:49:02Z</time>
      </trkpt>
      <trkpt lat="44.28334" lon="5.86195">
        <ele>635.0881348</ele>
        <time>2016-03-10T11:49:14Z</time>
      </trkpt>
      <trkpt lat="44.28265" lon="5.86114">
        <ele>634.126709</ele>
        <time>2016-03-10T11:49:33Z</time>
      </trkpt>
      <trkpt lat="44.28207" lon="5.86059">
        <ele>633.1652832</ele>
        <time>2016-03-10T11:49:46Z</time>
      </trkpt>
      <trkpt lat="44.28164" lon="5.85999">
        <ele>632.2041016</ele>
        <time>2016-03-10T11:49:59Z</time>
      </trkpt>
      <trkpt lat="44.28148" lon="5.85975">
        <ele>632.6848145</ele>
        <time>2016-03-10T11:50:10Z</time>
      </trkpt>
      <trkpt lat="44.28147" lon="5.85976">
        <ele>632.6848145</ele>
        <time>2016-03-10T11:50:23Z</time>
      </trkpt>
      <trkpt lat="44.28138" lon="5.85972">
        <ele>632.2041016</ele>
        <time>2016-03-10T11:50:27Z</time>
      </trkpt>
      <trkpt lat="44.28082" lon="5.85931">
        <ele>631.7233887</ele>
        <time>2016-03-10T11:50:43Z</time>
      </trkpt>
      <trkpt lat="44.28044" lon="5.85907">
        <ele>631.2429199</ele>
        <time>2016-03-10T11:50:52Z</time>
      </trkpt>
      <trkpt lat="44.28031" lon="5.85901">
        <ele>630.2814941</ele>
        <time>2016-03-10T11:50:54Z</time>
      </trkpt>
      <trkpt lat="44.27969" lon="5.85864">
        <ele>626.4362793</ele>
        <time>2016-03-10T11:51:06Z</time>
      </trkpt>
      <trkpt lat="44.27919" lon="5.85838">
        <ele>625.4748535</ele>
        <time>2016-03-10T11:51:17Z</time>
      </trkpt>
      <trkpt lat="44.27914" lon="5.85836">
        <ele>625.4748535</ele>
        <time>2016-03-10T11:51:18Z</time>
      </trkpt>
      <trkpt lat="44.27877" lon="5.85824">
        <ele>623.0717773</ele>
        <time>2016-03-10T11:51:25Z</time>
      </trkpt>
      <trkpt lat="44.27822" lon="5.858">
        <ele>621.6296387</ele>
        <time>2016-03-10T11:51:36Z</time>
      </trkpt>
      <trkpt lat="44.27802" lon="5.85785">
        <ele>622.1103516</ele>
        <time>2016-03-10T11:51:41Z</time>
      </trkpt>
      <trkpt lat="44.27766" lon="5.85747">
        <ele>623.0717773</ele>
        <time>2016-03-10T11:51:53Z</time>
      </trkpt>
      <trkpt lat="44.27734" lon="5.8569">
        <ele>621.6296387</ele>
        <time>2016-03-10T11:52:04Z</time>
      </trkpt>
      <trkpt lat="44.27729" lon="5.85683">
        <ele>621.6296387</ele>
        <time>2016-03-10T11:52:05Z</time>
      </trkpt>
      <trkpt lat="44.27692" lon="5.8563">
        <ele>619.2263184</ele>
        <time>2016-03-10T11:52:12Z</time>
      </trkpt>
      <trkpt lat="44.27665" lon="5.85606">
        <ele>617.7841797</ele>
        <time>2016-03-10T11:52:16Z</time>
      </trkpt>
      <trkpt lat="44.27556" lon="5.85535">
        <ele>614.9003906</ele>
        <time>2016-03-10T11:52:30Z</time>
      </trkpt>
      <trkpt lat="44.2755" lon="5.8553">
        <ele>614.9003906</ele>
        <time>2016-03-10T11:52:31Z</time>
      </trkpt>
      <trkpt lat="44.27501" lon="5.85444">
        <ele>612.4970703</ele>
        <time>2016-03-10T11:52:43Z</time>
      </trkpt>
      <trkpt lat="44.27479" lon="5.85392">
        <ele>611.0551758</ele>
        <time>2016-03-10T11:52:55Z</time>
      </trkpt>
      <trkpt lat="44.27477" lon="5.85388">
        <ele>610.5744629</ele>
        <time>2016-03-10T11:53:07Z</time>
      </trkpt>
      <trkpt lat="44.27477" lon="5.85387">
        <ele>612.4970703</ele>
        <time>2016-03-10T11:53:31Z</time>
      </trkpt>
      <trkpt lat="44.27472" lon="5.8538">
        <ele>610.5744629</ele>
        <time>2016-03-10T11:53:35Z</time>
      </trkpt>
      <trkpt lat="44.27452" lon="5.85352">
        <ele>610.5744629</ele>
        <time>2016-03-10T11:53:41Z</time>
      </trkpt>
      <trkpt lat="44.27438" lon="5.85337">
        <ele>609.6132813</ele>
        <time>2016-03-10T11:53:44Z</time>
      </trkpt>
      <trkpt lat="44.27427" lon="5.85321">
        <ele>609.1325684</ele>
        <time>2016-03-10T11:53:47Z</time>
      </trkpt>
      <trkpt lat="44.27414" lon="5.853">
        <ele>608.6518555</ele>
        <time>2016-03-10T11:53:53Z</time>
      </trkpt>
      <trkpt lat="44.27375" lon="5.85287">
        <ele>606.2485352</ele>
        <time>2016-03-10T11:54:05Z</time>
      </trkpt>
      <trkpt lat="44.27341" lon="5.85271">
        <ele>605.7680664</ele>
        <time>2016-03-10T11:54:12Z</time>
      </trkpt>
      <trkpt lat="44.27321" lon="5.85261">
        <ele>605.2873535</ele>
        <time>2016-03-10T11:54:16Z</time>
      </trkpt>
      <trkpt lat="44.27306" lon="5.85247">
        <ele>604.3261719</ele>
        <time>2016-03-10T11:54:19Z</time>
      </trkpt>
      <trkpt lat="44.27275" lon="5.85213">
        <ele>603.8452148</ele>
        <time>2016-03-10T11:54:25Z</time>
      </trkpt>
      <trkpt lat="44.27253" lon="5.85196">
        <ele>602.8837891</ele>
        <time>2016-03-10T11:54:29Z</time>
      </trkpt>
      <trkpt lat="44.27234" lon="5.85178">
        <ele>601.4418945</ele>
        <time>2016-03-10T11:54:33Z</time>
      </trkpt>
      <trkpt lat="44.27204" lon="5.85153">
        <ele>602.4030762</ele>
        <time>2016-03-10T11:54:39Z</time>
      </trkpt>
      <trkpt lat="44.27189" lon="5.8514">
        <ele>601.4418945</ele>
        <time>2016-03-10T11:54:42Z</time>
      </trkpt>
      <trkpt lat="44.27179" lon="5.85134">
        <ele>600</ele>
        <time>2016-03-10T11:54:44Z</time>
      </trkpt>
      <trkpt lat="44.27159" lon="5.8512">
        <ele>600.4807129</ele>
        <time>2016-03-10T11:54:48Z</time>
      </trkpt>
      <trkpt lat="44.27151" lon="5.85116">
        <ele>600.4807129</ele>
        <time>2016-03-10T11:54:50Z</time>
      </trkpt>
      <trkpt lat="44.27124" lon="5.851">
        <ele>600</ele>
        <time>2016-03-10T11:54:56Z</time>
      </trkpt>
      <trkpt lat="44.27106" lon="5.85082">
        <ele>601.4418945</ele>
        <time>2016-03-10T11:55:01Z</time>
      </trkpt>
      <trkpt lat="44.27093" lon="5.85071">
        <ele>601.9226074</ele>
        <time>2016-03-10T11:55:05Z</time>
      </trkpt>
      <trkpt lat="44.27055" lon="5.85051">
        <ele>600</ele>
        <time>2016-03-10T11:55:15Z</time>
      </trkpt>
      <trkpt lat="44.27042" lon="5.85048">
        <ele>600</ele>
        <time>2016-03-10T11:55:18Z</time>
      </trkpt>
      <trkpt lat="44.26981" lon="5.85027">
        <ele>600.4807129</ele>
        <time>2016-03-10T11:55:33Z</time>
      </trkpt>
      <trkpt lat="44.2695" lon="5.85018">
        <ele>601.9226074</ele>
        <time>2016-03-10T11:55:42Z</time>
      </trkpt>
      <trkpt lat="44.26927" lon="5.85016">
        <ele>603.364502</ele>
        <time>2016-03-10T11:55:49Z</time>
      </trkpt>
      <trkpt lat="44.26906" lon="5.85022">
        <ele>603.8452148</ele>
        <time>2016-03-10T11:56:02Z</time>
      </trkpt>
      <trkpt lat="44.26905" lon="5.85021">
        <ele>604.3261719</ele>
        <time>2016-03-10T11:56:21Z</time>
      </trkpt>
      <trkpt lat="44.26898" lon="5.85016">
        <ele>604.8066406</ele>
        <time>2016-03-10T11:56:26Z</time>
      </trkpt>
      <trkpt lat="44.26887" lon="5.85003">
        <ele>606.729248</ele>
        <time>2016-03-10T11:56:31Z</time>
      </trkpt>
      <trkpt lat="44.26884" lon="5.85">
        <ele>605.7680664</ele>
        <time>2016-03-10T11:56:33Z</time>
      </trkpt>
      <trkpt lat="44.26875" lon="5.84996">
        <ele>606.729248</ele>
        <time>2016-03-10T11:56:37Z</time>
      </trkpt>
      <trkpt lat="44.26865" lon="5.84989">
        <ele>607.6906738</ele>
        <time>2016-03-10T11:56:42Z</time>
      </trkpt>
      <trkpt lat="44.2686" lon="5.84981">
        <ele>607.6906738</ele>
        <time>2016-03-10T11:56:45Z</time>
      </trkpt>
      <trkpt lat="44.26833" lon="5.84962">
        <ele>610.09375</ele>
        <time>2016-03-10T11:56:57Z</time>
      </trkpt>
      <trkpt lat="44.2682" lon="5.84948">
        <ele>609.6132813</ele>
        <time>2016-03-10T11:57:04Z</time>
      </trkpt>
      <trkpt lat="44.26798" lon="5.84935">
        <ele>610.5744629</ele>
        <time>2016-03-10T11:57:15Z</time>
      </trkpt>
      <trkpt lat="44.26787" lon="5.84927">
        <ele>612.4970703</ele>
        <time>2016-03-10T11:57:20Z</time>
      </trkpt>
      <trkpt lat="44.26755" lon="5.84912">
        <ele>612.4970703</ele>
        <time>2016-03-10T11:57:33Z</time>
      </trkpt>
      <trkpt lat="44.26747" lon="5.8491">
        <ele>614.4196777</ele>
        <time>2016-03-10T11:57:36Z</time>
      </trkpt>
      <trkpt lat="44.26724" lon="5.84897">
        <ele>615.3811035</ele>
        <time>2016-03-10T11:57:48Z</time>
      </trkpt>
      <trkpt lat="44.2672" lon="5.84894">
        <ele>616.3422852</ele>
        <time>2016-03-10T11:57:50Z</time>
      </trkpt>
      <trkpt lat="44.267" lon="5.84878">
        <ele>617.7841797</ele>
        <time>2016-03-10T11:58:01Z</time>
      </trkpt>
      <trkpt lat="44.26691" lon="5.84872">
        <ele>618.2648926</ele>
        <time>2016-03-10T11:58:06Z</time>
      </trkpt>
      <trkpt lat="44.26681" lon="5.84864">
        <ele>618.2648926</ele>
        <time>2016-03-10T11:58:13Z</time>
      </trkpt>
      <trkpt lat="44.26665" lon="5.84854">
        <ele>619.2263184</ele>
        <time>2016-03-10T11:58:22Z</time>
      </trkpt>
      <trkpt lat="44.26633" lon="5.84834">
        <ele>621.1491699</ele>
        <time>2016-03-10T11:58:39Z</time>
      </trkpt>
      <trkpt lat="44.26613" lon="5.84812">
        <ele>623.0717773</ele>
        <time>2016-03-10T11:58:53Z</time>
      </trkpt>
      <trkpt lat="44.26598" lon="5.84794">
        <ele>624.032959</ele>
        <time>2016-03-10T11:59:04Z</time>
      </trkpt>
      <trkpt lat="44.26594" lon="5.84792">
        <ele>624.032959</ele>
        <time>2016-03-10T11:59:06Z</time>
      </trkpt>
      <trkpt lat="44.26586" lon="5.84772">
        <ele>625.4748535</ele>
        <time>2016-03-10T11:59:17Z</time>
      </trkpt>
      <trkpt lat="44.26585" lon="5.8477">
        <ele>624.9943848</ele>
        <time>2016-03-10T11:59:22Z</time>
      </trkpt>
      <trkpt lat="44.26587" lon="5.8476">
        <ele>625.4748535</ele>
        <time>2016-03-10T11:59:28Z</time>
      </trkpt>
      <trkpt lat="44.26598" lon="5.84715">
        <ele>627.8781738</ele>
        <time>2016-03-10T11:59:45Z</time>
      </trkpt>
      <trkpt lat="44.26615" lon="5.84682">
        <ele>629.8007813</ele>
        <time>2016-03-10T11:59:58Z</time>
      </trkpt>
      <trkpt lat="44.26629" lon="5.84663">
        <ele>630.2814941</ele>
        <time>2016-03-10T12:00:07Z</time>
      </trkpt>
      <trkpt lat="44.26651" lon="5.8463">
        <ele>631.7233887</ele>
        <time>2016-03-10T12:00:21Z</time>
      </trkpt>
      <trkpt lat="44.2666" lon="5.84614">
        <ele>632.2041016</ele>
        <time>2016-03-10T12:00:27Z</time>
      </trkpt>
      <trkpt lat="44.26661" lon="5.84579">
        <ele>632.6848145</ele>
        <time>2016-03-10T12:00:37Z</time>
      </trkpt>
      <trkpt lat="44.26673" lon="5.84528">
        <ele>633.6459961</ele>
        <time>2016-03-10T12:00:53Z</time>
      </trkpt>
      <trkpt lat="44.26669" lon="5.84484">
        <ele>635.0881348</ele>
        <time>2016-03-10T12:01:06Z</time>
      </trkpt>
      <trkpt lat="44.26667" lon="5.8445">
        <ele>635.5686035</ele>
        <time>2016-03-10T12:01:15Z</time>
      </trkpt>
      <trkpt lat="44.26669" lon="5.8444">
        <ele>636.0495605</ele>
        <time>2016-03-10T12:01:18Z</time>
      </trkpt>
      <trkpt lat="44.26665" lon="5.84418">
        <ele>636.0495605</ele>
        <time>2016-03-10T12:01:23Z</time>
      </trkpt>
      <trkpt lat="44.26665" lon="5.84395">
        <ele>636.0495605</ele>
        <time>2016-03-10T12:01:29Z</time>
      </trkpt>
      <trkpt lat="44.26656" lon="5.84342">
        <ele>635.5686035</ele>
        <time>2016-03-10T12:01:42Z</time>
      </trkpt>
      <trkpt lat="44.26619" lon="5.84315">
        <ele>637.4914551</ele>
        <time>2016-03-10T12:01:56Z</time>
      </trkpt>
      <trkpt lat="44.26609" lon="5.84311">
        <ele>637.4914551</ele>
        <time>2016-03-10T12:02:00Z</time>
      </trkpt>
      <trkpt lat="44.26573" lon="5.84282">
        <ele>639.4140625</ele>
        <time>2016-03-10T12:02:16Z</time>
      </trkpt>
      <trkpt lat="44.26565" lon="5.84273">
        <ele>639.8947754</ele>
        <time>2016-03-10T12:02:21Z</time>
      </trkpt>
      <trkpt lat="44.26542" lon="5.84251">
        <ele>640.855957</ele>
        <time>2016-03-10T12:02:33Z</time>
      </trkpt>
      <trkpt lat="44.26535" lon="5.84242">
        <ele>641.8173828</ele>
        <time>2016-03-10T12:02:37Z</time>
      </trkpt>
      <trkpt lat="44.26515" lon="5.8421">
        <ele>641.8173828</ele>
        <time>2016-03-10T12:02:52Z</time>
      </trkpt>
      <trkpt lat="44.26502" lon="5.84195">
        <ele>642.2980957</ele>
        <time>2016-03-10T12:03:00Z</time>
      </trkpt>
      <trkpt lat="44.26479" lon="5.84164">
        <ele>644.2207031</ele>
        <time>2016-03-10T12:03:15Z</time>
      </trkpt>
      <trkpt lat="44.26474" lon="5.84148">
        <ele>644.2207031</ele>
        <time>2016-03-10T12:03:20Z</time>
      </trkpt>
      <trkpt lat="44.26463" lon="5.84129">
        <ele>644.7011719</ele>
        <time>2016-03-10T12:03:27Z</time>
      </trkpt>
      <trkpt lat="44.2646" lon="5.8412">
        <ele>644.7011719</ele>
        <time>2016-03-10T12:03:31Z</time>
      </trkpt>
      <trkpt lat="44.26455" lon="5.84112">
        <ele>645.1818848</ele>
        <time>2016-03-10T12:03:35Z</time>
      </trkpt>
      <trkpt lat="44.26452" lon="5.84092">
        <ele>646.1433105</ele>
        <time>2016-03-10T12:03:40Z</time>
      </trkpt>
      <trkpt lat="44.26448" lon="5.8408">
        <ele>646.1433105</ele>
        <time>2016-03-10T12:03:47Z</time>
      </trkpt>
      <trkpt lat="44.26437" lon="5.84075">
        <ele>647.5852051</ele>
        <time>2016-03-10T12:03:56Z</time>
      </trkpt>
      <trkpt lat="44.26411" lon="5.84061">
        <ele>648.5463867</ele>
        <time>2016-03-10T12:04:08Z</time>
      </trkpt>
      <trkpt lat="44.26404" lon="5.84057">
        <ele>647.5852051</ele>
        <time>2016-03-10T12:04:44Z</time>
      </trkpt>
      <trkpt lat="44.26404" lon="5.84057">
        <ele>647.1044922</ele>
        <time>2016-03-10T12:04:53Z</time>
      </trkpt>
      <trkpt lat="44.2641" lon="5.84037">
        <ele>649.9885254</ele>
        <time>2016-03-10T12:05:17Z</time>
      </trkpt>
      <trkpt lat="44.26412" lon="5.8403">
        <ele>649.9885254</ele>
        <time>2016-03-10T12:05:21Z</time>
      </trkpt>
      <trkpt lat="44.26422" lon="5.84006">
        <ele>651.4304199</ele>
        <time>2016-03-10T12:05:40Z</time>
      </trkpt>
      <trkpt lat="44.26429" lon="5.83985">
        <ele>652.3918457</ele>
        <time>2016-03-10T12:06:01Z</time>
      </trkpt>
      <trkpt lat="44.26446" lon="5.83963">
        <ele>652.3918457</ele>
        <time>2016-03-10T12:06:24Z</time>
      </trkpt>
      <trkpt lat="44.26453" lon="5.83935">
        <ele>652.3918457</ele>
        <time>2016-03-10T12:06:51Z</time>
      </trkpt>
      <trkpt lat="44.26451" lon="5.83927">
        <ele>652.8725586</ele>
        <time>2016-03-10T12:07:18Z</time>
      </trkpt>
      <trkpt lat="44.26451" lon="5.83915">
        <ele>652.3918457</ele>
        <time>2016-03-10T12:07:39Z</time>
      </trkpt>
      <trkpt lat="44.26433" lon="5.83877">
        <ele>652.3918457</ele>
        <time>2016-03-10T12:07:54Z</time>
      </trkpt>
      <trkpt lat="44.26415" lon="5.83875">
        <ele>654.3146973</ele>
        <time>2016-03-10T12:08:05Z</time>
      </trkpt>
      <trkpt lat="44.26403" lon="5.83881">
        <ele>654.3146973</ele>
        <time>2016-03-10T12:08:25Z</time>
      </trkpt>
      <trkpt lat="44.26377" lon="5.83886">
        <ele>656.7177734</ele>
        <time>2016-03-10T12:08:52Z</time>
      </trkpt>
      <trkpt lat="44.26358" lon="5.83889">
        <ele>657.1984863</ele>
        <time>2016-03-10T12:09:15Z</time>
      </trkpt>
      <trkpt lat="44.26338" lon="5.83884">
        <ele>656.7177734</ele>
        <time>2016-03-10T12:09:38Z</time>
      </trkpt>
      <trkpt lat="44.26321" lon="5.83893">
        <ele>654.795166</ele>
        <time>2016-03-10T12:09:58Z</time>
      </trkpt>
      <trkpt lat="44.26312" lon="5.83892">
        <ele>653.8339844</ele>
        <time>2016-03-10T12:10:10Z</time>
      </trkpt>
      <trkpt lat="44.26293" lon="5.83898">
        <ele>651.9111328</ele>
        <time>2016-03-10T12:10:29Z</time>
      </trkpt>
      <trkpt lat="44.26278" lon="5.83908">
        <ele>651.4304199</ele>
        <time>2016-03-10T12:10:46Z</time>
      </trkpt>
      <trkpt lat="44.26273" lon="5.83917">
        <ele>651.4304199</ele>
        <time>2016-03-10T12:10:57Z</time>
      </trkpt>
      <trkpt lat="44.26273" lon="5.83923">
        <ele>651.4304199</ele>
        <time>2016-03-10T12:11:00Z</time>
      </trkpt>
      <trkpt lat="44.2627" lon="5.83931">
        <ele>650.949707</ele>
        <time>2016-03-10T12:11:06Z</time>
      </trkpt>
      <trkpt lat="44.26263" lon="5.83935">
        <ele>652.3918457</ele>
        <time>2016-03-10T12:11:21Z</time>
      </trkpt>
      <trkpt lat="44.26267" lon="5.83956">
        <ele>651.4304199</ele>
        <time>2016-03-10T12:11:35Z</time>
      </trkpt>
      <trkpt lat="44.2627" lon="5.83973">
        <ele>649.5078125</ele>
        <time>2016-03-10T12:11:52Z</time>
      </trkpt>
      <trkpt lat="44.26277" lon="5.83993">
        <ele>648.065918</ele>
        <time>2016-03-10T12:12:13Z</time>
      </trkpt>
      <trkpt lat="44.26282" lon="5.8401">
        <ele>646.6240234</ele>
        <time>2016-03-10T12:12:30Z</time>
      </trkpt>
      <trkpt lat="44.26283" lon="5.84014">
        <ele>646.1433105</ele>
        <time>2016-03-10T12:12:34Z</time>
      </trkpt>
      <trkpt lat="44.26285" lon="5.84021">
        <ele>645.6625977</ele>
        <time>2016-03-10T12:12:47Z</time>
      </trkpt>
      <trkpt lat="44.2629" lon="5.84023">
        <ele>645.1818848</ele>
        <time>2016-03-10T12:12:56Z</time>
      </trkpt>
      <trkpt lat="44.26312" lon="5.84046">
        <ele>646.1433105</ele>
        <time>2016-03-10T12:13:09Z</time>
      </trkpt>
      <trkpt lat="44.2632" lon="5.84056">
        <ele>646.6240234</ele>
        <time>2016-03-10T12:13:15Z</time>
      </trkpt>
      <trkpt lat="44.26323" lon="5.84055">
        <ele>646.6240234</ele>
        <time>2016-03-10T12:13:17Z</time>
      </trkpt>
      <trkpt lat="44.26332" lon="5.84059">
        <ele>646.6240234</ele>
        <time>2016-03-10T12:13:20Z</time>
      </trkpt>
      <trkpt lat="44.26358" lon="5.84064">
        <ele>647.5852051</ele>
        <time>2016-03-10T12:13:34Z</time>
      </trkpt>
      <trkpt lat="44.2639" lon="5.84063">
        <ele>646.6240234</ele>
        <time>2016-03-10T12:13:46Z</time>
      </trkpt>
      <trkpt lat="44.2641" lon="5.84063">
        <ele>647.1044922</ele>
        <time>2016-03-10T12:13:55Z</time>
      </trkpt>
      <trkpt lat="44.26413" lon="5.84065">
        <ele>646.6240234</ele>
        <time>2016-03-10T12:13:56Z</time>
      </trkpt>
      <trkpt lat="44.26422" lon="5.84069">
        <ele>646.6240234</ele>
        <time>2016-03-10T12:13:58Z</time>
      </trkpt>
      <trkpt lat="44.26441" lon="5.84084">
        <ele>644.7011719</ele>
        <time>2016-03-10T12:14:04Z</time>
      </trkpt>
      <trkpt lat="44.26441" lon="5.84099">
        <ele>644.7011719</ele>
        <time>2016-03-10T12:14:09Z</time>
      </trkpt>
      <trkpt lat="44.26441" lon="5.84104">
        <ele>642.7788086</ele>
        <time>2016-03-10T12:14:24Z</time>
      </trkpt>
      <trkpt lat="44.26426" lon="5.84146">
        <ele>639.8947754</ele>
        <time>2016-03-10T12:14:35Z</time>
      </trkpt>
      <trkpt lat="44.2642" lon="5.84156">
        <ele>638.9335938</ele>
        <time>2016-03-10T12:14:45Z</time>
      </trkpt>
      <trkpt lat="44.26419" lon="5.84163">
        <ele>637.972168</ele>
        <time>2016-03-10T12:15:07Z</time>
      </trkpt>
      <trkpt lat="44.26433" lon="5.84128">
        <ele>640.3754883</ele>
        <time>2016-03-10T12:15:20Z</time>
      </trkpt>
      <trkpt lat="44.26435" lon="5.84123">
        <ele>639.8947754</ele>
        <time>2016-03-10T12:15:22Z</time>
      </trkpt>
      <trkpt lat="44.26438" lon="5.84111">
        <ele>641.3366699</ele>
        <time>2016-03-10T12:15:27Z</time>
      </trkpt>
      <trkpt lat="44.26443" lon="5.84105">
        <ele>642.2980957</ele>
        <time>2016-03-10T12:15:30Z</time>
      </trkpt>
      <trkpt lat="44.26451" lon="5.84106">
        <ele>643.2592773</ele>
        <time>2016-03-10T12:15:34Z</time>
      </trkpt>
      <trkpt lat="44.26464" lon="5.84134">
        <ele>641.3366699</ele>
        <time>2016-03-10T12:15:46Z</time>
      </trkpt>
      <trkpt lat="44.26468" lon="5.84147">
        <ele>641.3366699</ele>
        <time>2016-03-10T12:15:51Z</time>
      </trkpt>
      <trkpt lat="44.26498" lon="5.8419">
        <ele>641.3366699</ele>
        <time>2016-03-10T12:16:04Z</time>
      </trkpt>
      <trkpt lat="44.26499" lon="5.84192">
        <ele>641.3366699</ele>
        <time>2016-03-10T12:16:05Z</time>
      </trkpt>
      <trkpt lat="44.265" lon="5.84197">
        <ele>639.4140625</ele>
        <time>2016-03-10T12:16:07Z</time>
      </trkpt>
      <trkpt lat="44.265" lon="5.84203">
        <ele>639.4140625</ele>
        <time>2016-03-10T12:16:21Z</time>
      </trkpt>
      <trkpt lat="44.265" lon="5.84202">
        <ele>638.9335938</ele>
        <time>2016-03-10T12:16:28Z</time>
      </trkpt>
      <trkpt lat="44.265" lon="5.84203">
        <ele>638.4528809</ele>
        <time>2016-03-10T12:16:31Z</time>
      </trkpt>
      <trkpt lat="44.26504" lon="5.84205">
        <ele>638.9335938</ele>
        <time>2016-03-10T12:16:35Z</time>
      </trkpt>
      <trkpt lat="44.2651" lon="5.84216">
        <ele>638.4528809</ele>
        <time>2016-03-10T12:16:41Z</time>
      </trkpt>
      <trkpt lat="44.26528" lon="5.84243">
        <ele>637.972168</ele>
        <time>2016-03-10T12:16:52Z</time>
      </trkpt>
      <trkpt lat="44.26539" lon="5.84257">
        <ele>639.4140625</ele>
        <time>2016-03-10T12:16:58Z</time>
      </trkpt>
      <trkpt lat="44.26563" lon="5.84278">
        <ele>639.4140625</ele>
        <time>2016-03-10T12:17:08Z</time>
      </trkpt>
      <trkpt lat="44.26585" lon="5.8429">
        <ele>639.4140625</ele>
        <time>2016-03-10T12:17:13Z</time>
      </trkpt>
      <trkpt lat="44.26605" lon="5.84305">
        <ele>637.972168</ele>
        <time>2016-03-10T12:17:17Z</time>
      </trkpt>
      <trkpt lat="44.26616" lon="5.8431">
        <ele>638.4528809</ele>
        <time>2016-03-10T12:17:19Z</time>
      </trkpt>
      <trkpt lat="44.26635" lon="5.84322">
        <ele>635.0881348</ele>
        <time>2016-03-10T12:17:23Z</time>
      </trkpt>
      <trkpt lat="44.26644" lon="5.84329">
        <ele>635.5686035</ele>
        <time>2016-03-10T12:17:25Z</time>
      </trkpt>
      <trkpt lat="44.26656" lon="5.84347">
        <ele>634.6074219</ele>
        <time>2016-03-10T12:17:33Z</time>
      </trkpt>
      <trkpt lat="44.26656" lon="5.84348">
        <ele>633.6459961</ele>
        <time>2016-03-10T12:17:43Z</time>
      </trkpt>
      <trkpt lat="44.26657" lon="5.84364">
        <ele>633.6459961</ele>
        <time>2016-03-10T12:17:49Z</time>
      </trkpt>
      <trkpt lat="44.26662" lon="5.84389">
        <ele>633.6459961</ele>
        <time>2016-03-10T12:17:56Z</time>
      </trkpt>
      <trkpt lat="44.26665" lon="5.84474">
        <ele>635.0881348</ele>
        <time>2016-03-10T12:18:13Z</time>
      </trkpt>
      <trkpt lat="44.26667" lon="5.84515">
        <ele>633.6459961</ele>
        <time>2016-03-10T12:18:21Z</time>
      </trkpt>
      <trkpt lat="44.26666" lon="5.84541">
        <ele>633.6459961</ele>
        <time>2016-03-10T12:18:26Z</time>
      </trkpt>
      <trkpt lat="44.26656" lon="5.84562">
        <ele>632.2041016</ele>
        <time>2016-03-10T12:18:36Z</time>
      </trkpt>
      <trkpt lat="44.26656" lon="5.84564">
        <ele>632.2041016</ele>
        <time>2016-03-10T12:18:54Z</time>
      </trkpt>
      <trkpt lat="44.26658" lon="5.84616">
        <ele>630.762207</ele>
        <time>2016-03-10T12:19:07Z</time>
      </trkpt>
      <trkpt lat="44.26657" lon="5.84621">
        <ele>630.762207</ele>
        <time>2016-03-10T12:19:08Z</time>
      </trkpt>
      <trkpt lat="44.26648" lon="5.84644">
        <ele>630.2814941</ele>
        <time>2016-03-10T12:19:12Z</time>
      </trkpt>
      <trkpt lat="44.26636" lon="5.84659">
        <ele>630.2814941</ele>
        <time>2016-03-10T12:19:15Z</time>
      </trkpt>
      <trkpt lat="44.26591" lon="5.8473">
        <ele>626.9169922</ele>
        <time>2016-03-10T12:19:27Z</time>
      </trkpt>
      <trkpt lat="44.26587" lon="5.84745">
        <ele>626.4362793</ele>
        <time>2016-03-10T12:19:29Z</time>
      </trkpt>
      <trkpt lat="44.26581" lon="5.84766">
        <ele>625.4748535</ele>
        <time>2016-03-10T12:19:38Z</time>
      </trkpt>
      <trkpt lat="44.26581" lon="5.84767">
        <ele>624.9943848</ele>
        <time>2016-03-10T12:19:54Z</time>
      </trkpt>
      <trkpt lat="44.26586" lon="5.84765">
        <ele>624.5136719</ele>
        <time>2016-03-10T12:19:59Z</time>
      </trkpt>
      <trkpt lat="44.26594" lon="5.8474">
        <ele>624.9943848</ele>
        <time>2016-03-10T12:20:08Z</time>
      </trkpt>
      <trkpt lat="44.26608" lon="5.84702">
        <ele>627.8781738</ele>
        <time>2016-03-10T12:20:19Z</time>
      </trkpt>
      <trkpt lat="44.2661" lon="5.847">
        <ele>627.8781738</ele>
        <time>2016-03-10T12:20:20Z</time>
      </trkpt>
      <trkpt lat="44.26635" lon="5.84668">
        <ele>628.8395996</ele>
        <time>2016-03-10T12:20:34Z</time>
      </trkpt>
      <trkpt lat="44.26663" lon="5.84625">
        <ele>630.762207</ele>
        <time>2016-03-10T12:20:53Z</time>
      </trkpt>
      <trkpt lat="44.26665" lon="5.84577">
        <ele>631.7233887</ele>
        <time>2016-03-10T12:21:08Z</time>
      </trkpt>
      <trkpt lat="44.26669" lon="5.84554">
        <ele>632.2041016</ele>
        <time>2016-03-10T12:21:14Z</time>
      </trkpt>
      <trkpt lat="44.26672" lon="5.8451">
        <ele>633.1652832</ele>
        <time>2016-03-10T12:21:25Z</time>
      </trkpt>
      <trkpt lat="44.26671" lon="5.8449">
        <ele>633.1652832</ele>
        <time>2016-03-10T12:21:32Z</time>
      </trkpt>
      <trkpt lat="44.26667" lon="5.84452">
        <ele>634.6074219</ele>
        <time>2016-03-10T12:21:43Z</time>
      </trkpt>
      <trkpt lat="44.26668" lon="5.84406">
        <ele>635.5686035</ele>
        <time>2016-03-10T12:21:56Z</time>
      </trkpt>
      <trkpt lat="44.26663" lon="5.84357">
        <ele>636.0495605</ele>
        <time>2016-03-10T12:22:07Z</time>
      </trkpt>
      <trkpt lat="44.26656" lon="5.84344">
        <ele>635.5686035</ele>
        <time>2016-03-10T12:22:10Z</time>
      </trkpt>
      <trkpt lat="44.26593" lon="5.84294">
        <ele>637.972168</ele>
        <time>2016-03-10T12:22:29Z</time>
      </trkpt>
      <trkpt lat="44.26567" lon="5.84277">
        <ele>639.8947754</ele>
        <time>2016-03-10T12:22:42Z</time>
      </trkpt>
      <trkpt lat="44.26558" lon="5.84272">
        <ele>640.855957</ele>
        <time>2016-03-10T12:22:47Z</time>
      </trkpt>
      <trkpt lat="44.26526" lon="5.84238">
        <ele>641.3366699</ele>
        <time>2016-03-10T12:23:03Z</time>
      </trkpt>
      <trkpt lat="44.26501" lon="5.84201">
        <ele>642.2980957</ele>
        <time>2016-03-10T12:23:16Z</time>
      </trkpt>
      <trkpt lat="44.26479" lon="5.84172">
        <ele>643.2592773</ele>
        <time>2016-03-10T12:23:29Z</time>
      </trkpt>
      <trkpt lat="44.26468" lon="5.84162">
        <ele>643.7399902</ele>
        <time>2016-03-10T12:23:36Z</time>
      </trkpt>
      <trkpt lat="44.26449" lon="5.84115">
        <ele>644.2207031</ele>
        <time>2016-03-10T12:23:50Z</time>
      </trkpt>
      <trkpt lat="44.26444" lon="5.84097">
        <ele>644.2207031</ele>
        <time>2016-03-10T12:23:56Z</time>
      </trkpt>
      <trkpt lat="44.26444" lon="5.84087">
        <ele>645.1818848</ele>
        <time>2016-03-10T12:24:01Z</time>
      </trkpt>
      <trkpt lat="44.26441" lon="5.84083">
        <ele>645.1818848</ele>
        <time>2016-03-10T12:24:03Z</time>
      </trkpt>
      <trkpt lat="44.26429" lon="5.84076">
        <ele>645.1818848</ele>
        <time>2016-03-10T12:24:09Z</time>
      </trkpt>
      <trkpt lat="44.26402" lon="5.84066">
        <ele>648.065918</ele>
        <time>2016-03-10T12:24:21Z</time>
      </trkpt>
      <trkpt lat="44.26401" lon="5.84066">
        <ele>648.065918</ele>
        <time>2016-03-10T12:24:22Z</time>
      </trkpt>
      <trkpt lat="44.26394" lon="5.8407">
        <ele>648.065918</ele>
        <time>2016-03-10T12:24:34Z</time>
      </trkpt>
      <trkpt lat="44.26395" lon="5.84067">
        <ele>647.1044922</ele>
        <time>2016-03-10T12:24:52Z</time>
      </trkpt>
      <trkpt lat="44.26401" lon="5.84065">
        <ele>645.6625977</ele>
        <time>2016-03-10T12:24:55Z</time>
      </trkpt>
      <trkpt lat="44.26404" lon="5.84064">
        <ele>646.1433105</ele>
        <time>2016-03-10T12:24:57Z</time>
      </trkpt>
      <trkpt lat="44.26411" lon="5.84067">
        <ele>647.5852051</ele>
        <time>2016-03-10T12:25:00Z</time>
      </trkpt>
      <trkpt lat="44.26434" lon="5.84079">
        <ele>645.6625977</ele>
        <time>2016-03-10T12:25:07Z</time>
      </trkpt>
      <trkpt lat="44.26442" lon="5.84088">
        <ele>645.1818848</ele>
        <time>2016-03-10T12:25:10Z</time>
      </trkpt>
      <trkpt lat="44.26444" lon="5.84101">
        <ele>644.2207031</ele>
        <time>2016-03-10T12:25:15Z</time>
      </trkpt>
      <trkpt lat="44.26431" lon="5.84138">
        <ele>643.2592773</ele>
        <time>2016-03-10T12:25:21Z</time>
      </trkpt>
      <trkpt lat="44.26423" lon="5.84152">
        <ele>641.8173828</ele>
        <time>2016-03-10T12:25:23Z</time>
      </trkpt>
      <trkpt lat="44.26415" lon="5.84167">
        <ele>642.2980957</ele>
        <time>2016-03-10T12:25:25Z</time>
      </trkpt>
      <trkpt lat="44.26409" lon="5.84184">
        <ele>640.855957</ele>
        <time>2016-03-10T12:25:27Z</time>
      </trkpt>
      <trkpt lat="44.26401" lon="5.84205">
        <ele>638.4528809</ele>
        <time>2016-03-10T12:25:30Z</time>
      </trkpt>
      <trkpt lat="44.26384" lon="5.84238">
        <ele>636.5302734</ele>
        <time>2016-03-10T12:25:35Z</time>
      </trkpt>
      <trkpt lat="44.26374" lon="5.84287">
        <ele>634.6074219</ele>
        <time>2016-03-10T12:25:43Z</time>
      </trkpt>
      <trkpt lat="44.26375" lon="5.8429">
        <ele>634.6074219</ele>
        <time>2016-03-10T12:25:52Z</time>
      </trkpt>
      <trkpt lat="44.26376" lon="5.8429">
        <ele>633.6459961</ele>
        <time>2016-03-10T12:25:55Z</time>
      </trkpt>
      <trkpt lat="44.26373" lon="5.84304">
        <ele>634.6074219</ele>
        <time>2016-03-10T12:26:00Z</time>
      </trkpt>
      <trkpt lat="44.26361" lon="5.84361">
        <ele>632.2041016</ele>
        <time>2016-03-10T12:26:10Z</time>
      </trkpt>
      <trkpt lat="44.26337" lon="5.84443">
        <ele>629.3200684</ele>
        <time>2016-03-10T12:26:21Z</time>
      </trkpt>
      <trkpt lat="44.26318" lon="5.84495">
        <ele>625.4748535</ele>
        <time>2016-03-10T12:26:27Z</time>
      </trkpt>
      <trkpt lat="44.26315" lon="5.84503">
        <ele>625.4748535</ele>
        <time>2016-03-10T12:26:28Z</time>
      </trkpt>
      <trkpt lat="44.26295" lon="5.84578">
        <ele>622.5910645</ele>
        <time>2016-03-10T12:26:37Z</time>
      </trkpt>
      <trkpt lat="44.26293" lon="5.84588">
        <ele>621.6296387</ele>
        <time>2016-03-10T12:26:38Z</time>
      </trkpt>
      <trkpt lat="44.26276" lon="5.8463">
        <ele>618.2648926</ele>
        <time>2016-03-10T12:26:43Z</time>
      </trkpt>
      <trkpt lat="44.26273" lon="5.84638">
        <ele>618.2648926</ele>
        <time>2016-03-10T12:26:44Z</time>
      </trkpt>
      <trkpt lat="44.26265" lon="5.84652">
        <ele>616.822998</ele>
        <time>2016-03-10T12:26:46Z</time>
      </trkpt>
      <trkpt lat="44.26261" lon="5.84659">
        <ele>616.3422852</ele>
        <time>2016-03-10T12:26:47Z</time>
      </trkpt>
      <trkpt lat="44.26253" lon="5.84669">
        <ele>615.3811035</ele>
        <time>2016-03-10T12:26:49Z</time>
      </trkpt>
      <trkpt lat="44.26243" lon="5.84673">
        <ele>614.4196777</ele>
        <time>2016-03-10T12:26:51Z</time>
      </trkpt>
      <trkpt lat="44.26219" lon="5.84663">
        <ele>611.5358887</ele>
        <time>2016-03-10T12:26:55Z</time>
      </trkpt>
      <trkpt lat="44.26208" lon="5.84655">
        <ele>611.0551758</ele>
        <time>2016-03-10T12:26:57Z</time>
      </trkpt>
      <trkpt lat="44.26174" lon="5.84655">
        <ele>608.6518555</ele>
        <time>2016-03-10T12:27:02Z</time>
      </trkpt>
      <trkpt lat="44.26162" lon="5.84661">
        <ele>606.729248</ele>
        <time>2016-03-10T12:27:04Z</time>
      </trkpt>
      <trkpt lat="44.26149" lon="5.84681">
        <ele>605.7680664</ele>
        <time>2016-03-10T12:27:07Z</time>
      </trkpt>
      <trkpt lat="44.26143" lon="5.84696">
        <ele>604.3261719</ele>
        <time>2016-03-10T12:27:09Z</time>
      </trkpt>
      <trkpt lat="44.26137" lon="5.84714">
        <ele>602.4030762</ele>
        <time>2016-03-10T12:27:11Z</time>
      </trkpt>
      <trkpt lat="44.26127" lon="5.84766">
        <ele>599.0385742</ele>
        <time>2016-03-10T12:27:17Z</time>
      </trkpt>
      <trkpt lat="44.26125" lon="5.84772">
        <ele>598.5578613</ele>
        <time>2016-03-10T12:27:18Z</time>
      </trkpt>
      <trkpt lat="44.26115" lon="5.84788">
        <ele>597.5966797</ele>
        <time>2016-03-10T12:27:22Z</time>
      </trkpt>
      <trkpt lat="44.26102" lon="5.84801">
        <ele>594.7126465</ele>
        <time>2016-03-10T12:27:26Z</time>
      </trkpt>
      <trkpt lat="44.26096" lon="5.84806">
        <ele>593.270752</ele>
        <time>2016-03-10T12:27:27Z</time>
      </trkpt>
      <trkpt lat="44.26062" lon="5.84802">
        <ele>590.3869629</ele>
        <time>2016-03-10T12:27:32Z</time>
      </trkpt>
      <trkpt lat="44.26057" lon="5.84798">
        <ele>590.3869629</ele>
        <time>2016-03-10T12:27:33Z</time>
      </trkpt>
      <trkpt lat="44.26053" lon="5.84794">
        <ele>589.90625</ele>
        <time>2016-03-10T12:27:34Z</time>
      </trkpt>
      <trkpt lat="44.26042" lon="5.84786">
        <ele>588.9450684</ele>
        <time>2016-03-10T12:27:36Z</time>
      </trkpt>
      <trkpt lat="44.2603" lon="5.8478">
        <ele>588.4643555</ele>
        <time>2016-03-10T12:27:38Z</time>
      </trkpt>
      <trkpt lat="44.26008" lon="5.84779">
        <ele>586.060791</ele>
        <time>2016-03-10T12:27:42Z</time>
      </trkpt>
      <trkpt lat="44.25996" lon="5.8478">
        <ele>585.0996094</ele>
        <time>2016-03-10T12:27:44Z</time>
      </trkpt>
      <trkpt lat="44.25984" lon="5.84777">
        <ele>583.6574707</ele>
        <time>2016-03-10T12:27:46Z</time>
      </trkpt>
      <trkpt lat="44.25975" lon="5.84774">
        <ele>581.7348633</ele>
        <time>2016-03-10T12:27:48Z</time>
      </trkpt>
      <trkpt lat="44.25937" lon="5.84798">
        <ele>578.3703613</ele>
        <time>2016-03-10T12:27:55Z</time>
      </trkpt>
      <trkpt lat="44.25933" lon="5.84801">
        <ele>578.3703613</ele>
        <time>2016-03-10T12:27:56Z</time>
      </trkpt>
      <trkpt lat="44.25902" lon="5.84818">
        <ele>574.0444336</ele>
        <time>2016-03-10T12:28:02Z</time>
      </trkpt>
      <trkpt lat="44.25895" lon="5.84821">
        <ele>574.0444336</ele>
        <time>2016-03-10T12:28:03Z</time>
      </trkpt>
      <trkpt lat="44.25882" lon="5.84826">
        <ele>572.6025391</ele>
        <time>2016-03-10T12:28:05Z</time>
      </trkpt>
      <trkpt lat="44.25877" lon="5.84827">
        <ele>570.6796875</ele>
        <time>2016-03-10T12:28:06Z</time>
      </trkpt>
      <trkpt lat="44.25862" lon="5.84843">
        <ele>568.7570801</ele>
        <time>2016-03-10T12:28:10Z</time>
      </trkpt>
      <trkpt lat="44.25831" lon="5.84851">
        <ele>565.873291</ele>
        <time>2016-03-10T12:28:15Z</time>
      </trkpt>
      <trkpt lat="44.25815" lon="5.84854">
        <ele>564.4311523</ele>
        <time>2016-03-10T12:28:17Z</time>
      </trkpt>
      <trkpt lat="44.25811" lon="5.84853">
        <ele>563.4699707</ele>
        <time>2016-03-10T12:28:18Z</time>
      </trkpt>
      <trkpt lat="44.25791" lon="5.84866">
        <ele>562.0280762</ele>
        <time>2016-03-10T12:28:22Z</time>
      </trkpt>
      <trkpt lat="44.25764" lon="5.84873">
        <ele>559.6247559</ele>
        <time>2016-03-10T12:28:26Z</time>
      </trkpt>
      <trkpt lat="44.2574" lon="5.84872">
        <ele>556.7407227</ele>
        <time>2016-03-10T12:28:30Z</time>
      </trkpt>
      <trkpt lat="44.2572" lon="5.84871">
        <ele>554.8178711</ele>
        <time>2016-03-10T12:28:33Z</time>
      </trkpt>
      <trkpt lat="44.25702" lon="5.8487">
        <ele>553.3759766</ele>
        <time>2016-03-10T12:28:36Z</time>
      </trkpt>
      <trkpt lat="44.25677" lon="5.84879">
        <ele>551.4533691</ele>
        <time>2016-03-10T12:28:40Z</time>
      </trkpt>
      <trkpt lat="44.25632" lon="5.84913">
        <ele>547.6081543</ele>
        <time>2016-03-10T12:28:47Z</time>
      </trkpt>
      <trkpt lat="44.25592" lon="5.84943">
        <ele>544.2436523</ele>
        <time>2016-03-10T12:28:53Z</time>
      </trkpt>
      <trkpt lat="44.25586" lon="5.8495">
        <ele>544.2436523</ele>
        <time>2016-03-10T12:28:54Z</time>
      </trkpt>
      <trkpt lat="44.25559" lon="5.84983">
        <ele>541.84021</ele>
        <time>2016-03-10T12:28:58Z</time>
      </trkpt>
      <trkpt lat="44.25547" lon="5.85">
        <ele>537.9949951</ele>
        <time>2016-03-10T12:29:00Z</time>
      </trkpt>
      <trkpt lat="44.25541" lon="5.85008">
        <ele>537.9949951</ele>
        <time>2016-03-10T12:29:01Z</time>
      </trkpt>
      <trkpt lat="44.2553" lon="5.85018">
        <ele>535.5915527</ele>
        <time>2016-03-10T12:29:03Z</time>
      </trkpt>
      <trkpt lat="44.25528" lon="5.85021">
        <ele>534.1496582</ele>
        <time>2016-03-10T12:29:08Z</time>
      </trkpt>
      <trkpt lat="44.25526" lon="5.85022">
        <ele>536.0723877</ele>
        <time>2016-03-10T12:29:31Z</time>
      </trkpt>
      <trkpt lat="44.25505" lon="5.85039">
        <ele>535.5915527</ele>
        <time>2016-03-10T12:29:43Z</time>
      </trkpt>
      <trkpt lat="44.2549" lon="5.85059">
        <ele>535.1109619</ele>
        <time>2016-03-10T12:29:52Z</time>
      </trkpt>
      <trkpt lat="44.25486" lon="5.85062">
        <ele>534.6303711</ele>
        <time>2016-03-10T12:29:53Z</time>
      </trkpt>
      <trkpt lat="44.25426" lon="5.8508">
        <ele>536.5531006</ele>
        <time>2016-03-10T12:30:07Z</time>
      </trkpt>
      <trkpt lat="44.25392" lon="5.85095">
        <ele>536.5531006</ele>
        <time>2016-03-10T12:30:16Z</time>
      </trkpt>
      <trkpt lat="44.25372" lon="5.85104">
        <ele>534.6303711</ele>
        <time>2016-03-10T12:30:22Z</time>
      </trkpt>
      <trkpt lat="44.25365" lon="5.85108">
        <ele>536.0723877</ele>
        <time>2016-03-10T12:30:24Z</time>
      </trkpt>
      <trkpt lat="44.25327" lon="5.85144">
        <ele>537.0336914</ele>
        <time>2016-03-10T12:30:37Z</time>
      </trkpt>
      <trkpt lat="44.25288" lon="5.85188">
        <ele>536.0723877</ele>
        <time>2016-03-10T12:30:51Z</time>
      </trkpt>
      <trkpt lat="44.25281" lon="5.85196">
        <ele>535.5915527</ele>
        <time>2016-03-10T12:30:53Z</time>
      </trkpt>
      <trkpt lat="44.25266" lon="5.8521">
        <ele>536.0723877</ele>
        <time>2016-03-10T12:30:58Z</time>
      </trkpt>
      <trkpt lat="44.25238" lon="5.85232">
        <ele>536.0723877</ele>
        <time>2016-03-10T12:31:06Z</time>
      </trkpt>
      <trkpt lat="44.25212" lon="5.85259">
        <ele>534.6303711</ele>
        <time>2016-03-10T12:31:14Z</time>
      </trkpt>
      <trkpt lat="44.25207" lon="5.85263">
        <ele>534.6303711</ele>
        <time>2016-03-10T12:31:15Z</time>
      </trkpt>
      <trkpt lat="44.25183" lon="5.85275">
        <ele>533.1883545</ele>
        <time>2016-03-10T12:31:22Z</time>
      </trkpt>
      <trkpt lat="44.25147" lon="5.85302">
        <ele>532.2270508</ele>
        <time>2016-03-10T12:31:32Z</time>
      </trkpt>
      <trkpt lat="44.2511" lon="5.85354">
        <ele>531.7463379</ele>
        <time>2016-03-10T12:31:43Z</time>
      </trkpt>
      <trkpt lat="44.25087" lon="5.85381">
        <ele>532.2270508</ele>
        <time>2016-03-10T12:31:51Z</time>
      </trkpt>
      <trkpt lat="44.2504" lon="5.85427">
        <ele>531.2657471</ele>
        <time>2016-03-10T12:32:05Z</time>
      </trkpt>
      <trkpt lat="44.2501" lon="5.85453">
        <ele>529.3431396</ele>
        <time>2016-03-10T12:32:14Z</time>
      </trkpt>
      <trkpt lat="44.24996" lon="5.85479">
        <ele>529.8237305</ele>
        <time>2016-03-10T12:32:19Z</time>
      </trkpt>
      <trkpt lat="44.25019" lon="5.85534">
        <ele>531.2657471</ele>
        <time>2016-03-10T12:32:33Z</time>
      </trkpt>
      <trkpt lat="44.25048" lon="5.85569">
        <ele>531.7463379</ele>
        <time>2016-03-10T12:32:47Z</time>
      </trkpt>
      <trkpt lat="44.25048" lon="5.85579">
        <ele>532.7077637</ele>
        <time>2016-03-10T12:32:51Z</time>
      </trkpt>
      <trkpt lat="44.25042" lon="5.85589">
        <ele>533.1883545</ele>
        <time>2016-03-10T12:32:55Z</time>
      </trkpt>
      <trkpt lat="44.25032" lon="5.85606">
        <ele>533.6689453</ele>
        <time>2016-03-10T12:33:04Z</time>
      </trkpt>
      <trkpt lat="44.2502" lon="5.85625">
        <ele>534.6303711</ele>
        <time>2016-03-10T12:33:13Z</time>
      </trkpt>
      <trkpt lat="44.25008" lon="5.85649">
        <ele>536.0723877</ele>
        <time>2016-03-10T12:33:24Z</time>
      </trkpt>
      <trkpt lat="44.24993" lon="5.85676">
        <ele>537.9949951</ele>
        <time>2016-03-10T12:33:39Z</time>
      </trkpt>
      <trkpt lat="44.24978" lon="5.85697">
        <ele>539.9176025</ele>
        <time>2016-03-10T12:33:50Z</time>
      </trkpt>
      <trkpt lat="44.24978" lon="5.8571">
        <ele>541.3594971</ele>
        <time>2016-03-10T12:33:57Z</time>
      </trkpt>
      <trkpt lat="44.24981" lon="5.85723">
        <ele>542.8015137</ele>
        <time>2016-03-10T12:34:02Z</time>
      </trkpt>
      <trkpt lat="44.24984" lon="5.85729">
        <ele>543.2821045</ele>
        <time>2016-03-10T12:34:06Z</time>
      </trkpt>
      <trkpt lat="44.24998" lon="5.85754">
        <ele>547.1274414</ele>
        <time>2016-03-10T12:34:23Z</time>
      </trkpt>
      <trkpt lat="44.25" lon="5.85755">
        <ele>547.6081543</ele>
        <time>2016-03-10T12:34:24Z</time>
      </trkpt>
      <trkpt lat="44.2501" lon="5.85779">
        <ele>550.0114746</ele>
        <time>2016-03-10T12:34:40Z</time>
      </trkpt>
      <trkpt lat="44.25015" lon="5.85788">
        <ele>551.4533691</ele>
        <time>2016-03-10T12:34:46Z</time>
      </trkpt>
      <trkpt lat="44.25025" lon="5.85796">
        <ele>552.8952637</ele>
        <time>2016-03-10T12:34:55Z</time>
      </trkpt>
      <trkpt lat="44.25038" lon="5.85809">
        <ele>555.298584</ele>
        <time>2016-03-10T12:35:09Z</time>
      </trkpt>
      <trkpt lat="44.25043" lon="5.85811">
        <ele>555.298584</ele>
        <time>2016-03-10T12:35:12Z</time>
      </trkpt>
      <trkpt lat="44.25051" lon="5.85811">
        <ele>556.7407227</ele>
        <time>2016-03-10T12:35:18Z</time>
      </trkpt>
      <trkpt lat="44.25064" lon="5.85823">
        <ele>558.1828613</ele>
        <time>2016-03-10T12:35:34Z</time>
      </trkpt>
      <trkpt lat="44.25077" lon="5.85831">
        <ele>560.1052246</ele>
        <time>2016-03-10T12:35:46Z</time>
      </trkpt>
      <trkpt lat="44.25095" lon="5.85837">
        <ele>562.5085449</ele>
        <time>2016-03-10T12:36:02Z</time>
      </trkpt>
      <trkpt lat="44.25099" lon="5.8584">
        <ele>563.4699707</ele>
        <time>2016-03-10T12:36:06Z</time>
      </trkpt>
      <trkpt lat="44.25105" lon="5.85842">
        <ele>563.4699707</ele>
        <time>2016-03-10T12:36:10Z</time>
      </trkpt>
      <trkpt lat="44.2511" lon="5.85842">
        <ele>563.9504395</ele>
        <time>2016-03-10T12:36:13Z</time>
      </trkpt>
      <trkpt lat="44.25126" lon="5.85849">
        <ele>564.9118652</ele>
        <time>2016-03-10T12:36:23Z</time>
      </trkpt>
      <trkpt lat="44.25129" lon="5.85853">
        <ele>565.3925781</ele>
        <time>2016-03-10T12:36:26Z</time>
      </trkpt>
      <trkpt lat="44.25146" lon="5.85873">
        <ele>565.873291</ele>
        <time>2016-03-10T12:36:38Z</time>
      </trkpt>
      <trkpt lat="44.2515" lon="5.85882">
        <ele>566.3537598</ele>
        <time>2016-03-10T12:36:42Z</time>
      </trkpt>
      <trkpt lat="44.25157" lon="5.85897">
        <ele>566.3537598</ele>
        <time>2016-03-10T12:36:47Z</time>
      </trkpt>
      <trkpt lat="44.252" lon="5.8594">
        <ele>565.3925781</ele>
        <time>2016-03-10T12:37:00Z</time>
      </trkpt>
      <trkpt lat="44.25226" lon="5.85966">
        <ele>565.3925781</ele>
        <time>2016-03-10T12:37:07Z</time>
      </trkpt>
      <trkpt lat="44.25241" lon="5.85983">
        <ele>564.9118652</ele>
        <time>2016-03-10T12:37:11Z</time>
      </trkpt>
      <trkpt lat="44.25276" lon="5.86012">
        <ele>565.3925781</ele>
        <time>2016-03-10T12:37:22Z</time>
      </trkpt>
      <trkpt lat="44.2528" lon="5.86012">
        <ele>565.3925781</ele>
        <time>2016-03-10T12:37:36Z</time>
      </trkpt>
      <trkpt lat="44.25281" lon="5.86012">
        <ele>564.9118652</ele>
        <time>2016-03-10T12:38:02Z</time>
      </trkpt>
      <trkpt lat="44.25288" lon="5.86004">
        <ele>565.3925781</ele>
        <time>2016-03-10T12:38:07Z</time>
      </trkpt>
      <trkpt lat="44.25299" lon="5.86004">
        <ele>565.873291</ele>
        <time>2016-03-10T12:38:11Z</time>
      </trkpt>
      <trkpt lat="44.2531" lon="5.86009">
        <ele>565.873291</ele>
        <time>2016-03-10T12:38:22Z</time>
      </trkpt>
      <trkpt lat="44.2529" lon="5.86002">
        <ele>566.3537598</ele>
        <time>2016-03-10T12:38:32Z</time>
      </trkpt>
      <trkpt lat="44.25266" lon="5.86036">
        <ele>565.3925781</ele>
        <time>2016-03-10T12:38:42Z</time>
      </trkpt>
      <trkpt lat="44.25263" lon="5.86053">
        <ele>565.3925781</ele>
        <time>2016-03-10T12:38:46Z</time>
      </trkpt>
      <trkpt lat="44.25259" lon="5.86059">
        <ele>564.4311523</ele>
        <time>2016-03-10T12:38:56Z</time>
      </trkpt>
      <trkpt lat="44.25258" lon="5.86066">
        <ele>563.4699707</ele>
        <time>2016-03-10T12:39:12Z</time>
      </trkpt>
      <trkpt lat="44.25239" lon="5.86118">
        <ele>565.873291</ele>
        <time>2016-03-10T12:39:25Z</time>
      </trkpt>
      <trkpt lat="44.25213" lon="5.86139">
        <ele>568.2763672</ele>
        <time>2016-03-10T12:39:36Z</time>
      </trkpt>
      <trkpt lat="44.25211" lon="5.86147">
        <ele>569.7185059</ele>
        <time>2016-03-10T12:39:39Z</time>
      </trkpt>
      <trkpt lat="44.25213" lon="5.8615">
        <ele>568.7570801</ele>
        <time>2016-03-10T12:39:49Z</time>
      </trkpt>
      <trkpt lat="44.25215" lon="5.86152">
        <ele>568.7570801</ele>
        <time>2016-03-10T12:40:03Z</time>
      </trkpt>
      <trkpt lat="44.25235" lon="5.86147">
        <ele>570.6796875</ele>
        <time>2016-03-10T12:40:12Z</time>
      </trkpt>
      <trkpt lat="44.25259" lon="5.86159">
        <ele>571.6408691</ele>
        <time>2016-03-10T12:40:21Z</time>
      </trkpt>
      <trkpt lat="44.25293" lon="5.86196">
        <ele>571.6408691</ele>
        <time>2016-03-10T12:40:38Z</time>
      </trkpt>
      <trkpt lat="44.25313" lon="5.86215">
        <ele>573.5639648</ele>
        <time>2016-03-10T12:40:47Z</time>
      </trkpt>
      <trkpt lat="44.25343" lon="5.86247">
        <ele>574.0444336</ele>
        <time>2016-03-10T12:40:59Z</time>
      </trkpt>
      <trkpt lat="44.25392" lon="5.86301">
        <ele>573.5639648</ele>
        <time>2016-03-10T12:41:19Z</time>
      </trkpt>
      <trkpt lat="44.25433" lon="5.86339">
        <ele>575.0058594</ele>
        <time>2016-03-10T12:41:36Z</time>
      </trkpt>
      <trkpt lat="44.2545" lon="5.8635">
        <ele>575.967041</ele>
        <time>2016-03-10T12:41:44Z</time>
      </trkpt>
      <trkpt lat="44.25475" lon="5.86368">
        <ele>577.8896484</ele>
        <time>2016-03-10T12:41:56Z</time>
      </trkpt>
      <trkpt lat="44.25493" lon="5.86394">
        <ele>580.2929688</ele>
        <time>2016-03-10T12:42:09Z</time>
      </trkpt>
      <trkpt lat="44.25495" lon="5.86397">
        <ele>580.7736816</ele>
        <time>2016-03-10T12:42:11Z</time>
      </trkpt>
      <trkpt lat="44.25502" lon="5.86405">
        <ele>581.2543945</ele>
        <time>2016-03-10T12:42:15Z</time>
      </trkpt>
      <trkpt lat="44.25531" lon="5.86433">
        <ele>582.6962891</ele>
        <time>2016-03-10T12:42:31Z</time>
      </trkpt>
      <trkpt lat="44.25558" lon="5.86482">
        <ele>583.1767578</ele>
        <time>2016-03-10T12:42:47Z</time>
      </trkpt>
      <trkpt lat="44.25571" lon="5.86529">
        <ele>581.7348633</ele>
        <time>2016-03-10T12:42:57Z</time>
      </trkpt>
      <trkpt lat="44.25604" lon="5.86598">
        <ele>581.7348633</ele>
        <time>2016-03-10T12:43:12Z</time>
      </trkpt>
      <trkpt lat="44.2564" lon="5.86627">
        <ele>584.6188965</ele>
        <time>2016-03-10T12:43:28Z</time>
      </trkpt>
      <trkpt lat="44.25677" lon="5.86634">
        <ele>585.5800781</ele>
        <time>2016-03-10T12:43:42Z</time>
      </trkpt>
      <trkpt lat="44.25712" lon="5.86644">
        <ele>586.5415039</ele>
        <time>2016-03-10T12:43:56Z</time>
      </trkpt>
      <trkpt lat="44.25719" lon="5.86644">
        <ele>586.5415039</ele>
        <time>2016-03-10T12:43:59Z</time>
      </trkpt>
      <trkpt lat="44.25756" lon="5.86656">
        <ele>588.4643555</ele>
        <time>2016-03-10T12:44:15Z</time>
      </trkpt>
      <trkpt lat="44.25796" lon="5.86673">
        <ele>590.8674316</ele>
        <time>2016-03-10T12:44:35Z</time>
      </trkpt>
      <trkpt lat="44.25807" lon="5.86677">
        <ele>592.3095703</ele>
        <time>2016-03-10T12:44:41Z</time>
      </trkpt>
      <trkpt lat="44.25846" lon="5.86686">
        <ele>589.90625</ele>
        <time>2016-03-10T12:44:55Z</time>
      </trkpt>
      <trkpt lat="44.2585" lon="5.86689">
        <ele>589.4255371</ele>
        <time>2016-03-10T12:44:57Z</time>
      </trkpt>
      <trkpt lat="44.2587" lon="5.86713">
        <ele>588.9450684</ele>
        <time>2016-03-10T12:45:07Z</time>
      </trkpt>
      <trkpt lat="44.25885" lon="5.86738">
        <ele>590.3869629</ele>
        <time>2016-03-10T12:45:17Z</time>
      </trkpt>
      <trkpt lat="44.25914" lon="5.8678">
        <ele>590.3869629</ele>
        <time>2016-03-10T12:45:33Z</time>
      </trkpt>
      <trkpt lat="44.25933" lon="5.86813">
        <ele>590.8674316</ele>
        <time>2016-03-10T12:45:47Z</time>
      </trkpt>
      <trkpt lat="44.2595" lon="5.86838">
        <ele>591.8288574</ele>
        <time>2016-03-10T12:45:58Z</time>
      </trkpt>
      <trkpt lat="44.25955" lon="5.86842">
        <ele>592.7902832</ele>
        <time>2016-03-10T12:46:01Z</time>
      </trkpt>
      <trkpt lat="44.25974" lon="5.86861">
        <ele>594.2321777</ele>
        <time>2016-03-10T12:46:13Z</time>
      </trkpt>
      <trkpt lat="44.25996" lon="5.86882">
        <ele>596.635498</ele>
        <time>2016-03-10T12:46:26Z</time>
      </trkpt>
      <trkpt lat="44.26013" lon="5.86907">
        <ele>598.5578613</ele>
        <time>2016-03-10T12:46:40Z</time>
      </trkpt>
      <trkpt lat="44.26019" lon="5.86915">
        <ele>599.5192871</ele>
        <time>2016-03-10T12:46:45Z</time>
      </trkpt>
      <trkpt lat="44.2603" lon="5.86933">
        <ele>600.9611816</ele>
        <time>2016-03-10T12:46:55Z</time>
      </trkpt>
      <trkpt lat="44.26035" lon="5.8694">
        <ele>600.9611816</ele>
        <time>2016-03-10T12:46:59Z</time>
      </trkpt>
      <trkpt lat="44.26041" lon="5.86955">
        <ele>601.9226074</ele>
        <time>2016-03-10T12:47:06Z</time>
      </trkpt>
      <trkpt lat="44.26048" lon="5.86968">
        <ele>601.9226074</ele>
        <time>2016-03-10T12:47:12Z</time>
      </trkpt>
      <trkpt lat="44.2605" lon="5.86974">
        <ele>601.4418945</ele>
        <time>2016-03-10T12:47:15Z</time>
      </trkpt>
      <trkpt lat="44.26065" lon="5.87001">
        <ele>601.9226074</ele>
        <time>2016-03-10T12:47:26Z</time>
      </trkpt>
      <trkpt lat="44.26084" lon="5.87057">
        <ele>601.4418945</ele>
        <time>2016-03-10T12:47:43Z</time>
      </trkpt>
      <trkpt lat="44.26086" lon="5.87069">
        <ele>600.9611816</ele>
        <time>2016-03-10T12:47:45Z</time>
      </trkpt>
      <trkpt lat="44.26096" lon="5.87146">
        <ele>600</ele>
        <time>2016-03-10T12:47:56Z</time>
      </trkpt>
      <trkpt lat="44.26125" lon="5.87198">
        <ele>599.5192871</ele>
        <time>2016-03-10T12:48:08Z</time>
      </trkpt>
      <trkpt lat="44.26132" lon="5.87271">
        <ele>597.1159668</ele>
        <time>2016-03-10T12:48:20Z</time>
      </trkpt>
      <trkpt lat="44.26146" lon="5.87376">
        <ele>593.270752</ele>
        <time>2016-03-10T12:48:31Z</time>
      </trkpt>
      <trkpt lat="44.26149" lon="5.87388">
        <ele>593.270752</ele>
        <time>2016-03-10T12:48:32Z</time>
      </trkpt>
      <trkpt lat="44.26152" lon="5.874">
        <ele>591.8288574</ele>
        <time>2016-03-10T12:48:33Z</time>
      </trkpt>
      <trkpt lat="44.26158" lon="5.87428">
        <ele>589.4255371</ele>
        <time>2016-03-10T12:48:36Z</time>
      </trkpt>
      <trkpt lat="44.26172" lon="5.87488">
        <ele>585.0996094</ele>
        <time>2016-03-10T12:48:43Z</time>
      </trkpt>
      <trkpt lat="44.26173" lon="5.87493">
        <ele>585.0996094</ele>
        <time>2016-03-10T12:48:44Z</time>
      </trkpt>
      <trkpt lat="44.26168" lon="5.87536">
        <ele>581.7348633</ele>
        <time>2016-03-10T12:48:54Z</time>
      </trkpt>
      <trkpt lat="44.26132" lon="5.87613">
        <ele>579.8122559</ele>
        <time>2016-03-10T12:49:08Z</time>
      </trkpt>
      <trkpt lat="44.26125" lon="5.87668">
        <ele>582.2155762</ele>
        <time>2016-03-10T12:49:20Z</time>
      </trkpt>
      <trkpt lat="44.26161" lon="5.87698">
        <ele>581.2543945</ele>
        <time>2016-03-10T12:49:31Z</time>
      </trkpt>
      <trkpt lat="44.26216" lon="5.87725">
        <ele>580.2929688</ele>
        <time>2016-03-10T12:49:44Z</time>
      </trkpt>
      <trkpt lat="44.26234" lon="5.87736">
        <ele>580.2929688</ele>
        <time>2016-03-10T12:49:48Z</time>
      </trkpt>
      <trkpt lat="44.2626" lon="5.87756">
        <ele>579.331543</ele>
        <time>2016-03-10T12:49:54Z</time>
      </trkpt>
      <trkpt lat="44.26336" lon="5.8782">
        <ele>577.8896484</ele>
        <time>2016-03-10T12:50:12Z</time>
      </trkpt>
      <trkpt lat="44.26348" lon="5.87844">
        <ele>577.8896484</ele>
        <time>2016-03-10T12:50:16Z</time>
      </trkpt>
      <trkpt lat="44.2635" lon="5.87882">
        <ele>577.4091797</ele>
        <time>2016-03-10T12:50:21Z</time>
      </trkpt>
      <trkpt lat="44.26343" lon="5.87925">
        <ele>575.967041</ele>
        <time>2016-03-10T12:50:27Z</time>
      </trkpt>
      <trkpt lat="44.26352" lon="5.87965">
        <ele>576.9284668</ele>
        <time>2016-03-10T12:50:32Z</time>
      </trkpt>
      <trkpt lat="44.26356" lon="5.87972">
        <ele>575.967041</ele>
        <time>2016-03-10T12:50:33Z</time>
      </trkpt>
      <trkpt lat="44.26367" lon="5.87994">
        <ele>574.5251465</ele>
        <time>2016-03-10T12:50:36Z</time>
      </trkpt>
      <trkpt lat="44.26407" lon="5.88028">
        <ele>571.6408691</ele>
        <time>2016-03-10T12:50:43Z</time>
      </trkpt>
      <trkpt lat="44.26431" lon="5.88035">
        <ele>569.7185059</ele>
        <time>2016-03-10T12:50:46Z</time>
      </trkpt>
      <trkpt lat="44.26458" lon="5.88042">
        <ele>567.3151855</ele>
        <time>2016-03-10T12:50:49Z</time>
      </trkpt>
      <trkpt lat="44.26476" lon="5.88046">
        <ele>569.7185059</ele>
        <time>2016-03-10T12:50:51Z</time>
      </trkpt>
      <trkpt lat="44.26484" lon="5.8805">
        <ele>565.873291</ele>
        <time>2016-03-10T12:50:52Z</time>
      </trkpt>
      <trkpt lat="44.26492" lon="5.88053">
        <ele>565.873291</ele>
        <time>2016-03-10T12:50:53Z</time>
      </trkpt>
      <trkpt lat="44.26516" lon="5.8807">
        <ele>563.9504395</ele>
        <time>2016-03-10T12:50:56Z</time>
      </trkpt>
      <trkpt lat="44.26531" lon="5.88082">
        <ele>562.9892578</ele>
        <time>2016-03-10T12:50:58Z</time>
      </trkpt>
      <trkpt lat="44.26539" lon="5.88089">
        <ele>559.6247559</ele>
        <time>2016-03-10T12:50:59Z</time>
      </trkpt>
      <trkpt lat="44.26546" lon="5.88097">
        <ele>559.6247559</ele>
        <time>2016-03-10T12:51:00Z</time>
      </trkpt>
      <trkpt lat="44.26605" lon="5.88181">
        <ele>557.2214355</ele>
        <time>2016-03-10T12:51:10Z</time>
      </trkpt>
      <trkpt lat="44.26615" lon="5.88195">
        <ele>559.144043</ele>
        <time>2016-03-10T12:51:12Z</time>
      </trkpt>
      <trkpt lat="44.26619" lon="5.88202">
        <ele>556.2600098</ele>
        <time>2016-03-10T12:51:13Z</time>
      </trkpt>
      <trkpt lat="44.26647" lon="5.88238">
        <ele>554.3374023</ele>
        <time>2016-03-10T12:51:19Z</time>
      </trkpt>
      <trkpt lat="44.2666" lon="5.88253">
        <ele>553.8566895</ele>
        <time>2016-03-10T12:51:22Z</time>
      </trkpt>
      <trkpt lat="44.26703" lon="5.88288">
        <ele>554.3374023</ele>
        <time>2016-03-10T12:51:33Z</time>
      </trkpt>
      <trkpt lat="44.26748" lon="5.88306">
        <ele>554.8178711</ele>
        <time>2016-03-10T12:51:46Z</time>
      </trkpt>
      <trkpt lat="44.26795" lon="5.88335">
        <ele>552.8952637</ele>
        <time>2016-03-10T12:51:58Z</time>
      </trkpt>
      <trkpt lat="44.26835" lon="5.88366">
        <ele>552.4145508</ele>
        <time>2016-03-10T12:52:09Z</time>
      </trkpt>
      <trkpt lat="44.26838" lon="5.88368">
        <ele>552.4145508</ele>
        <time>2016-03-10T12:52:10Z</time>
      </trkpt>
      <trkpt lat="44.2687" lon="5.88388">
        <ele>552.4145508</ele>
        <time>2016-03-10T12:52:18Z</time>
      </trkpt>
      <trkpt lat="44.26896" lon="5.88419">
        <ele>550.4921875</ele>
        <time>2016-03-10T12:52:24Z</time>
      </trkpt>
      <trkpt lat="44.26917" lon="5.88435">
        <ele>550.4921875</ele>
        <time>2016-03-10T12:52:28Z</time>
      </trkpt>
      <trkpt lat="44.26946" lon="5.88447">
        <ele>550.4921875</ele>
        <time>2016-03-10T12:52:33Z</time>
      </trkpt>
      <trkpt lat="44.27016" lon="5.88453">
        <ele>550.4921875</ele>
        <time>2016-03-10T12:52:48Z</time>
      </trkpt>
      <trkpt lat="44.27078" lon="5.8847">
        <ele>550.0114746</ele>
        <time>2016-03-10T12:53:04Z</time>
      </trkpt>
      <trkpt lat="44.27148" lon="5.8851">
        <ele>549.0500488</ele>
        <time>2016-03-10T12:53:21Z</time>
      </trkpt>
      <trkpt lat="44.27165" lon="5.88512">
        <ele>549.0500488</ele>
        <time>2016-03-10T12:53:25Z</time>
      </trkpt>
      <trkpt lat="44.27244" lon="5.8852">
        <ele>549.0500488</ele>
        <time>2016-03-10T12:53:44Z</time>
      </trkpt>
      <trkpt lat="44.27294" lon="5.88531">
        <ele>550.0114746</ele>
        <time>2016-03-10T12:53:59Z</time>
      </trkpt>
      <trkpt lat="44.273" lon="5.88533">
        <ele>550.9726563</ele>
        <time>2016-03-10T12:54:01Z</time>
      </trkpt>
      <trkpt lat="44.27354" lon="5.88557">
        <ele>550.4921875</ele>
        <time>2016-03-10T12:54:16Z</time>
      </trkpt>
      <trkpt lat="44.2741" lon="5.88587">
        <ele>550.4921875</ele>
        <time>2016-03-10T12:54:32Z</time>
      </trkpt>
      <trkpt lat="44.2744" lon="5.88592">
        <ele>551.4533691</ele>
        <time>2016-03-10T12:54:41Z</time>
      </trkpt>
      <trkpt lat="44.275" lon="5.88602">
        <ele>551.934082</ele>
        <time>2016-03-10T12:54:58Z</time>
      </trkpt>
      <trkpt lat="44.27556" lon="5.88611">
        <ele>553.3759766</ele>
        <time>2016-03-10T12:55:16Z</time>
      </trkpt>
      <trkpt lat="44.27561" lon="5.88619">
        <ele>552.4145508</ele>
        <time>2016-03-10T12:55:18Z</time>
      </trkpt>
      <trkpt lat="44.27584" lon="5.88672">
        <ele>550.0114746</ele>
        <time>2016-03-10T12:55:27Z</time>
      </trkpt>
      <trkpt lat="44.27588" lon="5.88683">
        <ele>551.4533691</ele>
        <time>2016-03-10T12:55:29Z</time>
      </trkpt>
      <trkpt lat="44.27622" lon="5.88747">
        <ele>553.3759766</ele>
        <time>2016-03-10T12:55:44Z</time>
      </trkpt>
      <trkpt lat="44.27667" lon="5.88768">
        <ele>551.934082</ele>
        <time>2016-03-10T12:55:56Z</time>
      </trkpt>
      <trkpt lat="44.27714" lon="5.88803">
        <ele>551.934082</ele>
        <time>2016-03-10T12:56:13Z</time>
      </trkpt>
      <trkpt lat="44.27765" lon="5.88831">
        <ele>552.4145508</ele>
        <time>2016-03-10T12:56:30Z</time>
      </trkpt>
      <trkpt lat="44.27811" lon="5.8886">
        <ele>553.3759766</ele>
        <time>2016-03-10T12:56:48Z</time>
      </trkpt>
      <trkpt lat="44.27834" lon="5.88902">
        <ele>554.3374023</ele>
        <time>2016-03-10T12:57:01Z</time>
      </trkpt>
      <trkpt lat="44.2786" lon="5.88943">
        <ele>555.298584</ele>
        <time>2016-03-10T12:57:15Z</time>
      </trkpt>
      <trkpt lat="44.27894" lon="5.88976">
        <ele>556.7407227</ele>
        <time>2016-03-10T12:57:29Z</time>
      </trkpt>
      <trkpt lat="44.27909" lon="5.89024">
        <ele>556.2600098</ele>
        <time>2016-03-10T12:57:42Z</time>
      </trkpt>
      <trkpt lat="44.27945" lon="5.89024">
        <ele>557.2214355</ele>
        <time>2016-03-10T12:57:54Z</time>
      </trkpt>
      <trkpt lat="44.2803" lon="5.89029">
        <ele>559.144043</ele>
        <time>2016-03-10T12:58:24Z</time>
      </trkpt>
      <trkpt lat="44.28083" lon="5.89021">
        <ele>560.1052246</ele>
        <time>2016-03-10T12:58:44Z</time>
      </trkpt>
      <trkpt lat="44.28121" lon="5.89">
        <ele>560.1052246</ele>
        <time>2016-03-10T12:58:59Z</time>
      </trkpt>
      <trkpt lat="44.2815" lon="5.89006">
        <ele>561.0666504</ele>
        <time>2016-03-10T12:59:11Z</time>
      </trkpt>
      <trkpt lat="44.28164" lon="5.89069">
        <ele>563.4699707</ele>
        <time>2016-03-10T12:59:29Z</time>
      </trkpt>
      <trkpt lat="44.28164" lon="5.89072">
        <ele>563.4699707</ele>
        <time>2016-03-10T12:59:30Z</time>
      </trkpt>
      <trkpt lat="44.28164" lon="5.8908">
        <ele>563.9504395</ele>
        <time>2016-03-10T12:59:33Z</time>
      </trkpt>
      <trkpt lat="44.28171" lon="5.89091">
        <ele>564.4311523</ele>
        <time>2016-03-10T12:59:41Z</time>
      </trkpt>
      <trkpt lat="44.28173" lon="5.89093">
        <ele>564.4311523</ele>
        <time>2016-03-10T12:59:57Z</time>
      </trkpt>
      <trkpt lat="44.28178" lon="5.89089">
        <ele>566.3537598</ele>
        <time>2016-03-10T13:00:01Z</time>
      </trkpt>
      <trkpt lat="44.28211" lon="5.89076">
        <ele>566.3537598</ele>
        <time>2016-03-10T13:00:15Z</time>
      </trkpt>
      <trkpt lat="44.28232" lon="5.8907">
        <ele>566.3537598</ele>
        <time>2016-03-10T13:00:23Z</time>
      </trkpt>
      <trkpt lat="44.28251" lon="5.89113">
        <ele>568.2763672</ele>
        <time>2016-03-10T13:00:38Z</time>
      </trkpt>
      <trkpt lat="44.28285" lon="5.89157">
        <ele>569.237793</ele>
        <time>2016-03-10T13:00:56Z</time>
      </trkpt>
      <trkpt lat="44.28323" lon="5.89184">
        <ele>570.6796875</ele>
        <time>2016-03-10T13:01:14Z</time>
      </trkpt>
      <trkpt lat="44.28366" lon="5.89213">
        <ele>571.6408691</ele>
        <time>2016-03-10T13:01:32Z</time>
      </trkpt>
      <trkpt lat="44.28379" lon="5.89224">
        <ele>571.1604004</ele>
        <time>2016-03-10T13:01:37Z</time>
      </trkpt>
      <trkpt lat="44.28409" lon="5.8925">
        <ele>569.237793</ele>
        <time>2016-03-10T13:01:46Z</time>
      </trkpt>
      <trkpt lat="44.28428" lon="5.89261">
        <ele>571.6408691</ele>
        <time>2016-03-10T13:01:51Z</time>
      </trkpt>
      <trkpt lat="44.28454" lon="5.89275">
        <ele>569.237793</ele>
        <time>2016-03-10T13:01:58Z</time>
      </trkpt>
      <trkpt lat="44.28493" lon="5.89298">
        <ele>568.2763672</ele>
        <time>2016-03-10T13:02:07Z</time>
      </trkpt>
      <trkpt lat="44.28537" lon="5.89345">
        <ele>568.2763672</ele>
        <time>2016-03-10T13:02:19Z</time>
      </trkpt>
      <trkpt lat="44.28605" lon="5.89386">
        <ele>567.3151855</ele>
        <time>2016-03-10T13:02:37Z</time>
      </trkpt>
      <trkpt lat="44.28647" lon="5.89434">
        <ele>566.8344727</ele>
        <time>2016-03-10T13:02:52Z</time>
      </trkpt>
      <trkpt lat="44.28698" lon="5.89462">
        <ele>567.3151855</ele>
        <time>2016-03-10T13:03:09Z</time>
      </trkpt>
      <trkpt lat="44.28705" lon="5.89467">
        <ele>567.7956543</ele>
        <time>2016-03-10T13:03:12Z</time>
      </trkpt>
      <trkpt lat="44.28711" lon="5.89485">
        <ele>569.7185059</ele>
        <time>2016-03-10T13:03:17Z</time>
      </trkpt>
      <trkpt lat="44.28709" lon="5.89586">
        <ele>569.237793</ele>
        <time>2016-03-10T13:03:41Z</time>
      </trkpt>
      <trkpt lat="44.2871" lon="5.89644">
        <ele>571.6408691</ele>
        <time>2016-03-10T13:03:59Z</time>
      </trkpt>
      <trkpt lat="44.28711" lon="5.89674">
        <ele>573.5639648</ele>
        <time>2016-03-10T13:04:10Z</time>
      </trkpt>
      <trkpt lat="44.28714" lon="5.89717">
        <ele>575.4863281</ele>
        <time>2016-03-10T13:04:25Z</time>
      </trkpt>
      <trkpt lat="44.28712" lon="5.89751">
        <ele>577.4091797</ele>
        <time>2016-03-10T13:04:39Z</time>
      </trkpt>
      <trkpt lat="44.28709" lon="5.89788">
        <ele>578.8510742</ele>
        <time>2016-03-10T13:04:55Z</time>
      </trkpt>
      <trkpt lat="44.28738" lon="5.89792">
        <ele>579.8122559</ele>
        <time>2016-03-10T13:05:10Z</time>
      </trkpt>
      <trkpt lat="44.2878" lon="5.89793">
        <ele>578.8510742</ele>
        <time>2016-03-10T13:05:30Z</time>
      </trkpt>
      <trkpt lat="44.28784" lon="5.89792">
        <ele>578.8510742</ele>
        <time>2016-03-10T13:05:45Z</time>
      </trkpt>
      <trkpt lat="44.28784" lon="5.89792">
        <ele>578.3703613</ele>
        <time>2016-03-10T13:06:03Z</time>
      </trkpt>
      <trkpt lat="44.28785" lon="5.89792">
        <ele>578.8510742</ele>
        <time>2016-03-10T13:06:25Z</time>
      </trkpt>
      <trkpt lat="44.28803" lon="5.89785">
        <ele>580.2929688</ele>
        <time>2016-03-10T13:06:34Z</time>
      </trkpt>
      <trkpt lat="44.28846" lon="5.89777">
        <ele>580.7736816</ele>
        <time>2016-03-10T13:06:47Z</time>
      </trkpt>
      <trkpt lat="44.28869" lon="5.89772">
        <ele>578.8510742</ele>
        <time>2016-03-10T13:06:54Z</time>
      </trkpt>
      <trkpt lat="44.28938" lon="5.89762">
        <ele>579.8122559</ele>
        <time>2016-03-10T13:07:13Z</time>
      </trkpt>
      <trkpt lat="44.28954" lon="5.89761">
        <ele>578.8510742</ele>
        <time>2016-03-10T13:07:17Z</time>
      </trkpt>
      <trkpt lat="44.29024" lon="5.8976">
        <ele>577.4091797</ele>
        <time>2016-03-10T13:07:36Z</time>
      </trkpt>
      <trkpt lat="44.29043" lon="5.89759">
        <ele>579.331543</ele>
        <time>2016-03-10T13:07:43Z</time>
      </trkpt>
      <trkpt lat="44.2906" lon="5.8976">
        <ele>581.7348633</ele>
        <time>2016-03-10T13:07:50Z</time>
      </trkpt>
      <trkpt lat="44.29096" lon="5.89762">
        <ele>583.1767578</ele>
        <time>2016-03-10T13:08:06Z</time>
      </trkpt>
      <trkpt lat="44.29127" lon="5.89764">
        <ele>583.6574707</ele>
        <time>2016-03-10T13:08:22Z</time>
      </trkpt>
      <trkpt lat="44.29151" lon="5.89764">
        <ele>585.5800781</ele>
        <time>2016-03-10T13:08:34Z</time>
      </trkpt>
      <trkpt lat="44.29153" lon="5.89765">
        <ele>585.5800781</ele>
        <time>2016-03-10T13:08:35Z</time>
      </trkpt>
      <trkpt lat="44.29168" lon="5.89762">
        <ele>587.0219727</ele>
        <time>2016-03-10T13:08:43Z</time>
      </trkpt>
      <trkpt lat="44.29188" lon="5.89744">
        <ele>588.4643555</ele>
        <time>2016-03-10T13:08:55Z</time>
      </trkpt>
      <trkpt lat="44.29208" lon="5.89708">
        <ele>591.3481445</ele>
        <time>2016-03-10T13:09:12Z</time>
      </trkpt>
      <trkpt lat="44.29228" lon="5.89674">
        <ele>592.3095703</ele>
        <time>2016-03-10T13:09:25Z</time>
      </trkpt>
      <trkpt lat="44.29259" lon="5.89635">
        <ele>593.270752</ele>
        <time>2016-03-10T13:09:42Z</time>
      </trkpt>
      <trkpt lat="44.29296" lon="5.89609">
        <ele>593.270752</ele>
        <time>2016-03-10T13:09:56Z</time>
      </trkpt>
      <trkpt lat="44.29305" lon="5.89603">
        <ele>594.7126465</ele>
        <time>2016-03-10T13:09:59Z</time>
      </trkpt>
      <trkpt lat="44.29366" lon="5.89584">
        <ele>593.270752</ele>
        <time>2016-03-10T13:10:17Z</time>
      </trkpt>
      <trkpt lat="44.29433" lon="5.89577">
        <ele>593.270752</ele>
        <time>2016-03-10T13:10:36Z</time>
      </trkpt>
      <trkpt lat="44.29483" lon="5.89571">
        <ele>592.7902832</ele>
        <time>2016-03-10T13:10:50Z</time>
      </trkpt>
      <trkpt lat="44.29549" lon="5.89543">
        <ele>592.3095703</ele>
        <time>2016-03-10T13:11:02Z</time>
      </trkpt>
      <trkpt lat="44.29606" lon="5.89522">
        <ele>589.4255371</ele>
        <time>2016-03-10T13:11:09Z</time>
      </trkpt>
      <trkpt lat="44.29676" lon="5.89523">
        <ele>586.060791</ele>
        <time>2016-03-10T13:11:17Z</time>
      </trkpt>
      <trkpt lat="44.29727" lon="5.89526">
        <ele>582.6962891</ele>
        <time>2016-03-10T13:11:24Z</time>
      </trkpt>
      <trkpt lat="44.29744" lon="5.89527">
        <ele>584.1381836</ele>
        <time>2016-03-10T13:11:27Z</time>
      </trkpt>
      <trkpt lat="44.29753" lon="5.89527">
        <ele>584.1381836</ele>
        <time>2016-03-10T13:11:29Z</time>
      </trkpt>
      <trkpt lat="44.29819" lon="5.89527">
        <ele>585.5800781</ele>
        <time>2016-03-10T13:11:48Z</time>
      </trkpt>
      <trkpt lat="44.29853" lon="5.89519">
        <ele>585.0996094</ele>
        <time>2016-03-10T13:11:57Z</time>
      </trkpt>
      <trkpt lat="44.29865" lon="5.89514">
        <ele>584.6188965</ele>
        <time>2016-03-10T13:12:00Z</time>
      </trkpt>
      <trkpt lat="44.29958" lon="5.89488">
        <ele>584.1381836</ele>
        <time>2016-03-10T13:12:22Z</time>
      </trkpt>
      <trkpt lat="44.30059" lon="5.89455">
        <ele>583.1767578</ele>
        <time>2016-03-10T13:12:44Z</time>
      </trkpt>
      <trkpt lat="44.30132" lon="5.89435">
        <ele>581.2543945</ele>
        <time>2016-03-10T13:13:00Z</time>
      </trkpt>
      <trkpt lat="44.3021" lon="5.8941">
        <ele>581.7348633</ele>
        <time>2016-03-10T13:13:19Z</time>
      </trkpt>
      <trkpt lat="44.30244" lon="5.89398">
        <ele>581.2543945</ele>
        <time>2016-03-10T13:13:27Z</time>
      </trkpt>
      <trkpt lat="44.30287" lon="5.89389">
        <ele>581.7348633</ele>
        <time>2016-03-10T13:13:38Z</time>
      </trkpt>
      <trkpt lat="44.30352" lon="5.89365">
        <ele>583.1767578</ele>
        <time>2016-03-10T13:13:58Z</time>
      </trkpt>
      <trkpt lat="44.30404" lon="5.89351">
        <ele>585.0996094</ele>
        <time>2016-03-10T13:14:17Z</time>
      </trkpt>
      <trkpt lat="44.30458" lon="5.89332">
        <ele>585.5800781</ele>
        <time>2016-03-10T13:14:34Z</time>
      </trkpt>
      <trkpt lat="44.30475" lon="5.89329">
        <ele>586.060791</ele>
        <time>2016-03-10T13:14:38Z</time>
      </trkpt>
      <trkpt lat="44.30527" lon="5.89314">
        <ele>584.6188965</ele>
        <time>2016-03-10T13:14:50Z</time>
      </trkpt>
      <trkpt lat="44.30577" lon="5.89302">
        <ele>584.1381836</ele>
        <time>2016-03-10T13:15:03Z</time>
      </trkpt>
      <trkpt lat="44.306" lon="5.89295">
        <ele>584.1381836</ele>
        <time>2016-03-10T13:15:09Z</time>
      </trkpt>
      <trkpt lat="44.30612" lon="5.89294">
        <ele>583.6574707</ele>
        <time>2016-03-10T13:15:12Z</time>
      </trkpt>
      <trkpt lat="44.30692" lon="5.89268">
        <ele>584.1381836</ele>
        <time>2016-03-10T13:15:33Z</time>
      </trkpt>
      <trkpt lat="44.30735" lon="5.89256">
        <ele>583.6574707</ele>
        <time>2016-03-10T13:15:45Z</time>
      </trkpt>
      <trkpt lat="44.30739" lon="5.89255">
        <ele>584.1381836</ele>
        <time>2016-03-10T13:15:46Z</time>
      </trkpt>
      <trkpt lat="44.30799" lon="5.89239">
        <ele>585.0996094</ele>
        <time>2016-03-10T13:16:02Z</time>
      </trkpt>
      <trkpt lat="44.30809" lon="5.89237">
        <ele>586.5415039</ele>
        <time>2016-03-10T13:16:05Z</time>
      </trkpt>
      <trkpt lat="44.30837" lon="5.89228">
        <ele>588.4643555</ele>
        <time>2016-03-10T13:16:15Z</time>
      </trkpt>
      <trkpt lat="44.3088" lon="5.89213">
        <ele>588.9450684</ele>
        <time>2016-03-10T13:16:32Z</time>
      </trkpt>
      <trkpt lat="44.30916" lon="5.89201">
        <ele>590.3869629</ele>
        <time>2016-03-10T13:16:48Z</time>
      </trkpt>
      <trkpt lat="44.30961" lon="5.89187">
        <ele>593.270752</ele>
        <time>2016-03-10T13:17:07Z</time>
      </trkpt>
      <trkpt lat="44.31005" lon="5.89175">
        <ele>594.7126465</ele>
        <time>2016-03-10T13:17:26Z</time>
      </trkpt>
      <trkpt lat="44.31057" lon="5.8917">
        <ele>596.1547852</ele>
        <time>2016-03-10T13:17:43Z</time>
      </trkpt>
      <trkpt lat="44.31111" lon="5.89161">
        <ele>596.635498</ele>
        <time>2016-03-10T13:17:58Z</time>
      </trkpt>
      <trkpt lat="44.3118" lon="5.89148">
        <ele>595.6740723</ele>
        <time>2016-03-10T13:18:19Z</time>
      </trkpt>
      <trkpt lat="44.31227" lon="5.8914">
        <ele>595.6740723</ele>
        <time>2016-03-10T13:18:34Z</time>
      </trkpt>
      <trkpt lat="44.31271" lon="5.8913">
        <ele>596.635498</ele>
        <time>2016-03-10T13:18:48Z</time>
      </trkpt>
      <trkpt lat="44.31314" lon="5.89123">
        <ele>595.6740723</ele>
        <time>2016-03-10T13:19:01Z</time>
      </trkpt>
      <trkpt lat="44.31339" lon="5.89121">
        <ele>595.6740723</ele>
        <time>2016-03-10T13:19:08Z</time>
      </trkpt>
      <trkpt lat="44.31343" lon="5.89122">
        <ele>596.635498</ele>
        <time>2016-03-10T13:19:09Z</time>
      </trkpt>
      <trkpt lat="44.3139" lon="5.89113">
        <ele>594.7126465</ele>
        <time>2016-03-10T13:19:20Z</time>
      </trkpt>
      <trkpt lat="44.3142" lon="5.89109">
        <ele>596.635498</ele>
        <time>2016-03-10T13:19:27Z</time>
      </trkpt>
      <trkpt lat="44.31476" lon="5.89104">
        <ele>594.2321777</ele>
        <time>2016-03-10T13:19:40Z</time>
      </trkpt>
      <trkpt lat="44.31489" lon="5.89102">
        <ele>596.1547852</ele>
        <time>2016-03-10T13:19:43Z</time>
      </trkpt>
      <trkpt lat="44.31557" lon="5.89102">
        <ele>594.2321777</ele>
        <time>2016-03-10T13:19:59Z</time>
      </trkpt>
      <trkpt lat="44.31567" lon="5.891">
        <ele>593.7514648</ele>
        <time>2016-03-10T13:20:01Z</time>
      </trkpt>
      <trkpt lat="44.31595" lon="5.89102">
        <ele>592.3095703</ele>
        <time>2016-03-10T13:20:06Z</time>
      </trkpt>
      <trkpt lat="44.31625" lon="5.89104">
        <ele>594.2321777</ele>
        <time>2016-03-10T13:20:11Z</time>
      </trkpt>
      <trkpt lat="44.31637" lon="5.89104">
        <ele>592.7902832</ele>
        <time>2016-03-10T13:20:13Z</time>
      </trkpt>
      <trkpt lat="44.31704" lon="5.89098">
        <ele>589.90625</ele>
        <time>2016-03-10T13:20:24Z</time>
      </trkpt>
      <trkpt lat="44.3171" lon="5.89097">
        <ele>589.90625</ele>
        <time>2016-03-10T13:20:25Z</time>
      </trkpt>
      <trkpt lat="44.31774" lon="5.89066">
        <ele>588.9450684</ele>
        <time>2016-03-10T13:20:36Z</time>
      </trkpt>
      <trkpt lat="44.31809" lon="5.89042">
        <ele>587.0219727</ele>
        <time>2016-03-10T13:20:42Z</time>
      </trkpt>
      <trkpt lat="44.31846" lon="5.89015">
        <ele>586.060791</ele>
        <time>2016-03-10T13:20:48Z</time>
      </trkpt>
      <trkpt lat="44.3193" lon="5.88999">
        <ele>584.1381836</ele>
        <time>2016-03-10T13:20:59Z</time>
      </trkpt>
      <trkpt lat="44.3198" lon="5.89024">
        <ele>582.6962891</ele>
        <time>2016-03-10T13:21:07Z</time>
      </trkpt>
      <trkpt lat="44.3199" lon="5.89032">
        <ele>582.6962891</ele>
        <time>2016-03-10T13:21:09Z</time>
      </trkpt>
      <trkpt lat="44.32075" lon="5.89066">
        <ele>578.8510742</ele>
        <time>2016-03-10T13:21:24Z</time>
      </trkpt>
      <trkpt lat="44.32081" lon="5.89067">
        <ele>578.8510742</ele>
        <time>2016-03-10T13:21:25Z</time>
      </trkpt>
      <trkpt lat="44.32125" lon="5.89076">
        <ele>577.4091797</ele>
        <time>2016-03-10T13:21:32Z</time>
      </trkpt>
      <trkpt lat="44.32154" lon="5.89083">
        <ele>577.8896484</ele>
        <time>2016-03-10T13:21:37Z</time>
      </trkpt>
      <trkpt lat="44.32202" lon="5.89098">
        <ele>575.967041</ele>
        <time>2016-03-10T13:21:46Z</time>
      </trkpt>
      <trkpt lat="44.32221" lon="5.89104">
        <ele>576.9284668</ele>
        <time>2016-03-10T13:21:50Z</time>
      </trkpt>
      <trkpt lat="44.32273" lon="5.8912">
        <ele>577.8896484</ele>
        <time>2016-03-10T13:22:01Z</time>
      </trkpt>
      <trkpt lat="44.32287" lon="5.89123">
        <ele>577.4091797</ele>
        <time>2016-03-10T13:22:04Z</time>
      </trkpt>
      <trkpt lat="44.32345" lon="5.89142">
        <ele>576.9284668</ele>
        <time>2016-03-10T13:22:17Z</time>
      </trkpt>
      <trkpt lat="44.32358" lon="5.89148">
        <ele>578.3703613</ele>
        <time>2016-03-10T13:22:20Z</time>
      </trkpt>
      <trkpt lat="44.32442" lon="5.89176">
        <ele>577.8896484</ele>
        <time>2016-03-10T13:22:39Z</time>
      </trkpt>
      <trkpt lat="44.32473" lon="5.89184">
        <ele>578.8510742</ele>
        <time>2016-03-10T13:22:46Z</time>
      </trkpt>
      <trkpt lat="44.32482" lon="5.89186">
        <ele>577.4091797</ele>
        <time>2016-03-10T13:22:48Z</time>
      </trkpt>
      <trkpt lat="44.32499" lon="5.89193">
        <ele>577.8896484</ele>
        <time>2016-03-10T13:22:52Z</time>
      </trkpt>
      <trkpt lat="44.32582" lon="5.89228">
        <ele>576.4477539</ele>
        <time>2016-03-10T13:23:14Z</time>
      </trkpt>
      <trkpt lat="44.3259" lon="5.89231">
        <ele>578.3703613</ele>
        <time>2016-03-10T13:23:16Z</time>
      </trkpt>
      <trkpt lat="44.3264" lon="5.89252">
        <ele>576.9284668</ele>
        <time>2016-03-10T13:23:31Z</time>
      </trkpt>
      <trkpt lat="44.32652" lon="5.89268">
        <ele>579.331543</ele>
        <time>2016-03-10T13:23:36Z</time>
      </trkpt>
      <trkpt lat="44.32696" lon="5.89305">
        <ele>578.3703613</ele>
        <time>2016-03-10T13:23:47Z</time>
      </trkpt>
      <trkpt lat="44.32775" lon="5.89363">
        <ele>577.8896484</ele>
        <time>2016-03-10T13:24:08Z</time>
      </trkpt>
      <trkpt lat="44.32845" lon="5.89415">
        <ele>577.4091797</ele>
        <time>2016-03-10T13:24:26Z</time>
      </trkpt>
      <trkpt lat="44.32917" lon="5.89464">
        <ele>579.331543</ele>
        <time>2016-03-10T13:24:44Z</time>
      </trkpt>
      <trkpt lat="44.32936" lon="5.89476">
        <ele>578.3703613</ele>
        <time>2016-03-10T13:24:49Z</time>
      </trkpt>
      <trkpt lat="44.33001" lon="5.89509">
        <ele>578.3703613</ele>
        <time>2016-03-10T13:25:05Z</time>
      </trkpt>
      <trkpt lat="44.33006" lon="5.89511">
        <ele>578.8510742</ele>
        <time>2016-03-10T13:25:06Z</time>
      </trkpt>
      <trkpt lat="44.33032" lon="5.89519">
        <ele>578.3703613</ele>
        <time>2016-03-10T13:25:12Z</time>
      </trkpt>
      <trkpt lat="44.33054" lon="5.89524">
        <ele>577.8896484</ele>
        <time>2016-03-10T13:25:17Z</time>
      </trkpt>
      <trkpt lat="44.33068" lon="5.89527">
        <ele>577.8896484</ele>
        <time>2016-03-10T13:25:20Z</time>
      </trkpt>
      <trkpt lat="44.33122" lon="5.89542">
        <ele>577.8896484</ele>
        <time>2016-03-10T13:25:33Z</time>
      </trkpt>
      <trkpt lat="44.3318" lon="5.89565">
        <ele>577.8896484</ele>
        <time>2016-03-10T13:25:48Z</time>
      </trkpt>
      <trkpt lat="44.33244" lon="5.89587">
        <ele>577.4091797</ele>
        <time>2016-03-10T13:26:04Z</time>
      </trkpt>
      <trkpt lat="44.33307" lon="5.8961">
        <ele>577.8896484</ele>
        <time>2016-03-10T13:26:20Z</time>
      </trkpt>
      <trkpt lat="44.3336" lon="5.89636">
        <ele>577.8896484</ele>
        <time>2016-03-10T13:26:35Z</time>
      </trkpt>
      <trkpt lat="44.33451" lon="5.89678">
        <ele>578.8510742</ele>
        <time>2016-03-10T13:26:59Z</time>
      </trkpt>
      <trkpt lat="44.33518" lon="5.89711">
        <ele>576.9284668</ele>
        <time>2016-03-10T13:27:17Z</time>
      </trkpt>
      <trkpt lat="44.33579" lon="5.89739">
        <ele>576.9284668</ele>
        <time>2016-03-10T13:27:33Z</time>
      </trkpt>
      <trkpt lat="44.33618" lon="5.89759">
        <ele>575.967041</ele>
        <time>2016-03-10T13:27:44Z</time>
      </trkpt>
      <trkpt lat="44.33672" lon="5.8979">
        <ele>577.8896484</ele>
        <time>2016-03-10T13:28:01Z</time>
      </trkpt>
      <trkpt lat="44.33713" lon="5.89811">
        <ele>575.0058594</ele>
        <time>2016-03-10T13:28:13Z</time>
      </trkpt>
      <trkpt lat="44.33776" lon="5.8986">
        <ele>575.0058594</ele>
        <time>2016-03-10T13:28:29Z</time>
      </trkpt>
      <trkpt lat="44.33808" lon="5.89888">
        <ele>575.967041</ele>
        <time>2016-03-10T13:28:42Z</time>
      </trkpt>
      <trkpt lat="44.3382" lon="5.89895">
        <ele>577.4091797</ele>
        <time>2016-03-10T13:28:47Z</time>
      </trkpt>
      <trkpt lat="44.3385" lon="5.89918">
        <ele>579.331543</ele>
        <time>2016-03-10T13:29:03Z</time>
      </trkpt>
      <trkpt lat="44.33853" lon="5.89922">
        <ele>580.7736816</ele>
        <time>2016-03-10T13:29:05Z</time>
      </trkpt>
      <trkpt lat="44.33866" lon="5.89934">
        <ele>580.7736816</ele>
        <time>2016-03-10T13:29:12Z</time>
      </trkpt>
      <trkpt lat="44.33885" lon="5.89948">
        <ele>580.7736816</ele>
        <time>2016-03-10T13:29:21Z</time>
      </trkpt>
      <trkpt lat="44.33914" lon="5.89982">
        <ele>581.2543945</ele>
        <time>2016-03-10T13:29:37Z</time>
      </trkpt>
      <trkpt lat="44.33962" lon="5.90036">
        <ele>581.2543945</ele>
        <time>2016-03-10T13:29:55Z</time>
      </trkpt>
      <trkpt lat="44.34008" lon="5.90081">
        <ele>581.7348633</ele>
        <time>2016-03-10T13:30:10Z</time>
      </trkpt>
      <trkpt lat="44.34029" lon="5.90097">
        <ele>584.1381836</ele>
        <time>2016-03-10T13:30:19Z</time>
      </trkpt>
      <trkpt lat="44.3405" lon="5.9012">
        <ele>584.1381836</ele>
        <time>2016-03-10T13:30:30Z</time>
      </trkpt>
      <trkpt lat="44.34056" lon="5.90124">
        <ele>585.0996094</ele>
        <time>2016-03-10T13:30:33Z</time>
      </trkpt>
      <trkpt lat="44.34065" lon="5.90131">
        <ele>586.060791</ele>
        <time>2016-03-10T13:30:38Z</time>
      </trkpt>
      <trkpt lat="44.34091" lon="5.90154">
        <ele>587.9833984</ele>
        <time>2016-03-10T13:30:53Z</time>
      </trkpt>
      <trkpt lat="44.34094" lon="5.90156">
        <ele>587.9833984</ele>
        <time>2016-03-10T13:30:55Z</time>
      </trkpt>
      <trkpt lat="44.34121" lon="5.90185">
        <ele>589.4255371</ele>
        <time>2016-03-10T13:31:10Z</time>
      </trkpt>
      <trkpt lat="44.34156" lon="5.90225">
        <ele>590.8674316</ele>
        <time>2016-03-10T13:31:28Z</time>
      </trkpt>
      <trkpt lat="44.34159" lon="5.90228">
        <ele>590.8674316</ele>
        <time>2016-03-10T13:31:29Z</time>
      </trkpt>
      <trkpt lat="44.34165" lon="5.90236">
        <ele>588.9450684</ele>
        <time>2016-03-10T13:31:31Z</time>
      </trkpt>
      <trkpt lat="44.34172" lon="5.90245">
        <ele>585.0996094</ele>
        <time>2016-03-10T13:31:33Z</time>
      </trkpt>
      <trkpt lat="44.34176" lon="5.9025">
        <ele>585.0996094</ele>
        <time>2016-03-10T13:31:34Z</time>
      </trkpt>
      <trkpt lat="44.34192" lon="5.90271">
        <ele>583.1767578</ele>
        <time>2016-03-10T13:31:38Z</time>
      </trkpt>
      <trkpt lat="44.34202" lon="5.90282">
        <ele>588.4643555</ele>
        <time>2016-03-10T13:31:40Z</time>
      </trkpt>
      <trkpt lat="44.34207" lon="5.90288">
        <ele>588.4643555</ele>
        <time>2016-03-10T13:31:41Z</time>
      </trkpt>
      <trkpt lat="44.34274" lon="5.90375">
        <ele>584.6188965</ele>
        <time>2016-03-10T13:31:54Z</time>
      </trkpt>
      <trkpt lat="44.3428" lon="5.90382">
        <ele>584.6188965</ele>
        <time>2016-03-10T13:31:55Z</time>
      </trkpt>
      <trkpt lat="44.34292" lon="5.90395">
        <ele>583.1767578</ele>
        <time>2016-03-10T13:31:57Z</time>
      </trkpt>
      <trkpt lat="44.34303" lon="5.90407">
        <ele>581.2543945</ele>
        <time>2016-03-10T13:31:59Z</time>
      </trkpt>
      <trkpt lat="44.34308" lon="5.90412">
        <ele>574.0444336</ele>
        <time>2016-03-10T13:32:00Z</time>
      </trkpt>
      <trkpt lat="44.34314" lon="5.90416">
        <ele>574.0444336</ele>
        <time>2016-03-10T13:32:01Z</time>
      </trkpt>
      <trkpt lat="44.34318" lon="5.9042">
        <ele>583.6574707</ele>
        <time>2016-03-10T13:32:02Z</time>
      </trkpt>
      <trkpt lat="44.34323" lon="5.90424">
        <ele>580.2929688</ele>
        <time>2016-03-10T13:32:03Z</time>
      </trkpt>
      <trkpt lat="44.34332" lon="5.90429">
        <ele>579.331543</ele>
        <time>2016-03-10T13:32:05Z</time>
      </trkpt>
      <trkpt lat="44.34341" lon="5.90437">
        <ele>577.8896484</ele>
        <time>2016-03-10T13:32:08Z</time>
      </trkpt>
      <trkpt lat="44.34366" lon="5.90448">
        <ele>576.9284668</ele>
        <time>2016-03-10T13:32:17Z</time>
      </trkpt>
      <trkpt lat="44.34374" lon="5.90452">
        <ele>578.3703613</ele>
        <time>2016-03-10T13:32:21Z</time>
      </trkpt>
      <trkpt lat="44.34382" lon="5.90456">
        <ele>579.331543</ele>
        <time>2016-03-10T13:32:25Z</time>
      </trkpt>
      <trkpt lat="44.34409" lon="5.90479">
        <ele>580.7736816</ele>
        <time>2016-03-10T13:32:38Z</time>
      </trkpt>
      <trkpt lat="44.34415" lon="5.90493">
        <ele>582.2155762</ele>
        <time>2016-03-10T13:32:41Z</time>
      </trkpt>
      <trkpt lat="44.34426" lon="5.90511">
        <ele>580.7736816</ele>
        <time>2016-03-10T13:32:45Z</time>
      </trkpt>
      <trkpt lat="44.34446" lon="5.90532">
        <ele>581.2543945</ele>
        <time>2016-03-10T13:32:50Z</time>
      </trkpt>
      <trkpt lat="44.34512" lon="5.90585">
        <ele>579.8122559</ele>
        <time>2016-03-10T13:33:06Z</time>
      </trkpt>
      <trkpt lat="44.34522" lon="5.90594">
        <ele>576.9284668</ele>
        <time>2016-03-10T13:33:09Z</time>
      </trkpt>
      <trkpt lat="44.34592" lon="5.90652">
        <ele>575.967041</ele>
        <time>2016-03-10T13:33:29Z</time>
      </trkpt>
      <trkpt lat="44.34646" lon="5.90691">
        <ele>575.0058594</ele>
        <time>2016-03-10T13:33:43Z</time>
      </trkpt>
      <trkpt lat="44.34663" lon="5.90702">
        <ele>576.4477539</ele>
        <time>2016-03-10T13:33:46Z</time>
      </trkpt>
      <trkpt lat="44.34683" lon="5.90716">
        <ele>572.1218262</ele>
        <time>2016-03-10T13:33:49Z</time>
      </trkpt>
      <trkpt lat="44.3469" lon="5.9072">
        <ele>572.1218262</ele>
        <time>2016-03-10T13:33:50Z</time>
      </trkpt>
      <trkpt lat="44.34726" lon="5.90744">
        <ele>570.6796875</ele>
        <time>2016-03-10T13:33:55Z</time>
      </trkpt>
      <trkpt lat="44.3476" lon="5.90771">
        <ele>569.237793</ele>
        <time>2016-03-10T13:34:00Z</time>
      </trkpt>
      <trkpt lat="44.34767" lon="5.90777">
        <ele>567.7956543</ele>
        <time>2016-03-10T13:34:01Z</time>
      </trkpt>
      <trkpt lat="44.34851" lon="5.90843">
        <ele>568.2763672</ele>
        <time>2016-03-10T13:34:14Z</time>
      </trkpt>
      <trkpt lat="44.34891" lon="5.90873">
        <ele>566.8344727</ele>
        <time>2016-03-10T13:34:21Z</time>
      </trkpt>
      <trkpt lat="44.34984" lon="5.90949">
        <ele>564.9118652</ele>
        <time>2016-03-10T13:34:38Z</time>
      </trkpt>
      <trkpt lat="44.35008" lon="5.90971">
        <ele>565.873291</ele>
        <time>2016-03-10T13:34:44Z</time>
      </trkpt>
      <trkpt lat="44.35068" lon="5.91029">
        <ele>566.8344727</ele>
        <time>2016-03-10T13:35:04Z</time>
      </trkpt>
      <trkpt lat="44.35116" lon="5.91074">
        <ele>568.7570801</ele>
        <time>2016-03-10T13:35:25Z</time>
      </trkpt>
      <trkpt lat="44.35158" lon="5.91113">
        <ele>570.1989746</ele>
        <time>2016-03-10T13:35:45Z</time>
      </trkpt>
      <trkpt lat="44.35197" lon="5.91151">
        <ele>571.1604004</ele>
        <time>2016-03-10T13:36:04Z</time>
      </trkpt>
      <trkpt lat="44.3523" lon="5.91181">
        <ele>573.083252</ele>
        <time>2016-03-10T13:36:19Z</time>
      </trkpt>
      <trkpt lat="44.35273" lon="5.9122">
        <ele>573.5639648</ele>
        <time>2016-03-10T13:36:38Z</time>
      </trkpt>
      <trkpt lat="44.35325" lon="5.9126">
        <ele>574.5251465</ele>
        <time>2016-03-10T13:36:58Z</time>
      </trkpt>
      <trkpt lat="44.35372" lon="5.91298">
        <ele>575.0058594</ele>
        <time>2016-03-10T13:37:17Z</time>
      </trkpt>
      <trkpt lat="44.35439" lon="5.91346">
        <ele>575.0058594</ele>
        <time>2016-03-10T13:37:40Z</time>
      </trkpt>
      <trkpt lat="44.35505" lon="5.9139">
        <ele>576.4477539</ele>
        <time>2016-03-10T13:38:04Z</time>
      </trkpt>
      <trkpt lat="44.35528" lon="5.91404">
        <ele>576.9284668</ele>
        <time>2016-03-10T13:38:12Z</time>
      </trkpt>
      <trkpt lat="44.35564" lon="5.91425">
        <ele>574.5251465</ele>
        <time>2016-03-10T13:38:23Z</time>
      </trkpt>
      <trkpt lat="44.3558" lon="5.91438">
        <ele>575.4863281</ele>
        <time>2016-03-10T13:38:28Z</time>
      </trkpt>
      <trkpt lat="44.35593" lon="5.91449">
        <ele>574.5251465</ele>
        <time>2016-03-10T13:38:32Z</time>
      </trkpt>
      <trkpt lat="44.35672" lon="5.91499">
        <ele>574.5251465</ele>
        <time>2016-03-10T13:38:51Z</time>
      </trkpt>
      <trkpt lat="44.3568" lon="5.91505">
        <ele>573.083252</ele>
        <time>2016-03-10T13:38:53Z</time>
      </trkpt>
      <trkpt lat="44.35752" lon="5.91556">
        <ele>575.0058594</ele>
        <time>2016-03-10T13:39:11Z</time>
      </trkpt>
      <trkpt lat="44.35806" lon="5.91594">
        <ele>572.6025391</ele>
        <time>2016-03-10T13:39:28Z</time>
      </trkpt>
      <trkpt lat="44.35814" lon="5.91599">
        <ele>574.5251465</ele>
        <time>2016-03-10T13:39:31Z</time>
      </trkpt>
      <trkpt lat="44.35886" lon="5.91651">
        <ele>573.5639648</ele>
        <time>2016-03-10T13:39:55Z</time>
      </trkpt>
      <trkpt lat="44.35905" lon="5.91664">
        <ele>575.4863281</ele>
        <time>2016-03-10T13:40:01Z</time>
      </trkpt>
      <trkpt lat="44.35971" lon="5.91708">
        <ele>574.0444336</ele>
        <time>2016-03-10T13:40:22Z</time>
      </trkpt>
      <trkpt lat="44.36034" lon="5.91753">
        <ele>572.6025391</ele>
        <time>2016-03-10T13:40:41Z</time>
      </trkpt>
      <trkpt lat="44.36088" lon="5.91791">
        <ele>572.6025391</ele>
        <time>2016-03-10T13:40:59Z</time>
      </trkpt>
      <trkpt lat="44.36132" lon="5.91821">
        <ele>573.5639648</ele>
        <time>2016-03-10T13:41:14Z</time>
      </trkpt>
      <trkpt lat="44.36155" lon="5.91837">
        <ele>571.6408691</ele>
        <time>2016-03-10T13:41:22Z</time>
      </trkpt>
      <trkpt lat="44.36176" lon="5.91851">
        <ele>573.083252</ele>
        <time>2016-03-10T13:41:29Z</time>
      </trkpt>
      <trkpt lat="44.36212" lon="5.91875">
        <ele>572.6025391</ele>
        <time>2016-03-10T13:41:42Z</time>
      </trkpt>
      <trkpt lat="44.36214" lon="5.91877">
        <ele>572.6025391</ele>
        <time>2016-03-10T13:41:43Z</time>
      </trkpt>
      <trkpt lat="44.36275" lon="5.91917">
        <ele>571.6408691</ele>
        <time>2016-03-10T13:42:01Z</time>
      </trkpt>
      <trkpt lat="44.36288" lon="5.91927">
        <ele>574.5251465</ele>
        <time>2016-03-10T13:42:05Z</time>
      </trkpt>
      <trkpt lat="44.36291" lon="5.91929">
        <ele>574.5251465</ele>
        <time>2016-03-10T13:42:06Z</time>
      </trkpt>
      <trkpt lat="44.36344" lon="5.91966">
        <ele>574.5251465</ele>
        <time>2016-03-10T13:42:22Z</time>
      </trkpt>
      <trkpt lat="44.36365" lon="5.9198">
        <ele>573.083252</ele>
        <time>2016-03-10T13:42:29Z</time>
      </trkpt>
      <trkpt lat="44.36432" lon="5.92025">
        <ele>574.5251465</ele>
        <time>2016-03-10T13:42:50Z</time>
      </trkpt>
      <trkpt lat="44.36444" lon="5.92033">
        <ele>573.083252</ele>
        <time>2016-03-10T13:42:54Z</time>
      </trkpt>
      <trkpt lat="44.36494" lon="5.92067">
        <ele>572.6025391</ele>
        <time>2016-03-10T13:43:11Z</time>
      </trkpt>
      <trkpt lat="44.36542" lon="5.92098">
        <ele>572.6025391</ele>
        <time>2016-03-10T13:43:27Z</time>
      </trkpt>
      <trkpt lat="44.36563" lon="5.92113">
        <ele>571.1604004</ele>
        <time>2016-03-10T13:43:34Z</time>
      </trkpt>
      <trkpt lat="44.36606" lon="5.92139">
        <ele>572.1218262</ele>
        <time>2016-03-10T13:43:48Z</time>
      </trkpt>
      <trkpt lat="44.36633" lon="5.92151">
        <ele>572.6025391</ele>
        <time>2016-03-10T13:43:57Z</time>
      </trkpt>
      <trkpt lat="44.36686" lon="5.92163">
        <ele>571.6408691</ele>
        <time>2016-03-10T13:44:15Z</time>
      </trkpt>
      <trkpt lat="44.36704" lon="5.92167">
        <ele>571.1604004</ele>
        <time>2016-03-10T13:44:21Z</time>
      </trkpt>
      <trkpt lat="44.36767" lon="5.9219">
        <ele>571.1604004</ele>
        <time>2016-03-10T13:44:41Z</time>
      </trkpt>
      <trkpt lat="44.36797" lon="5.92204">
        <ele>572.6025391</ele>
        <time>2016-03-10T13:44:55Z</time>
      </trkpt>
      <trkpt lat="44.36818" lon="5.92217">
        <ele>575.0058594</ele>
        <time>2016-03-10T13:45:07Z</time>
      </trkpt>
      <trkpt lat="44.36818" lon="5.92228">
        <ele>575.4863281</ele>
        <time>2016-03-10T13:45:12Z</time>
      </trkpt>
      <trkpt lat="44.36784" lon="5.92283">
        <ele>575.967041</ele>
        <time>2016-03-10T13:45:30Z</time>
      </trkpt>
      <trkpt lat="44.36731" lon="5.92278">
        <ele>575.4863281</ele>
        <time>2016-03-10T13:45:46Z</time>
      </trkpt>
      <trkpt lat="44.36707" lon="5.92308">
        <ele>574.0444336</ele>
        <time>2016-03-10T13:45:56Z</time>
      </trkpt>
      <trkpt lat="44.36693" lon="5.9234">
        <ele>573.5639648</ele>
        <time>2016-03-10T13:46:03Z</time>
      </trkpt>
      <trkpt lat="44.36685" lon="5.9236">
        <ele>574.0444336</ele>
        <time>2016-03-10T13:46:07Z</time>
      </trkpt>
      <trkpt lat="44.36673" lon="5.92385">
        <ele>574.0444336</ele>
        <time>2016-03-10T13:46:12Z</time>
      </trkpt>
      <trkpt lat="44.36627" lon="5.92409">
        <ele>575.967041</ele>
        <time>2016-03-10T13:46:21Z</time>
      </trkpt>
      <trkpt lat="44.36621" lon="5.92407">
        <ele>576.9284668</ele>
        <time>2016-03-10T13:46:22Z</time>
      </trkpt>
      <trkpt lat="44.36598" lon="5.92393">
        <ele>574.0444336</ele>
        <time>2016-03-10T13:46:26Z</time>
      </trkpt>
      <trkpt lat="44.36592" lon="5.9239">
        <ele>574.0444336</ele>
        <time>2016-03-10T13:46:27Z</time>
      </trkpt>
      <trkpt lat="44.36581" lon="5.92382">
        <ele>572.6025391</ele>
        <time>2016-03-10T13:46:29Z</time>
      </trkpt>
      <trkpt lat="44.36566" lon="5.92369">
        <ele>571.1604004</ele>
        <time>2016-03-10T13:46:32Z</time>
      </trkpt>
      <trkpt lat="44.36555" lon="5.92352">
        <ele>569.237793</ele>
        <time>2016-03-10T13:46:35Z</time>
      </trkpt>
      <trkpt lat="44.36545" lon="5.92358">
        <ele>567.3151855</ele>
        <time>2016-03-10T13:46:41Z</time>
      </trkpt>
      <trkpt lat="44.36563" lon="5.92384">
        <ele>566.8344727</ele>
        <time>2016-03-10T13:46:47Z</time>
      </trkpt>
      <trkpt lat="44.36614" lon="5.92429">
        <ele>569.7185059</ele>
        <time>2016-03-10T13:47:02Z</time>
      </trkpt>
      <trkpt lat="44.3662" lon="5.92431">
        <ele>568.2763672</ele>
        <time>2016-03-10T13:47:04Z</time>
      </trkpt>
      <trkpt lat="44.36672" lon="5.92416">
        <ele>568.2763672</ele>
        <time>2016-03-10T13:47:20Z</time>
      </trkpt>
      <trkpt lat="44.36722" lon="5.92387">
        <ele>567.7956543</ele>
        <time>2016-03-10T13:47:38Z</time>
      </trkpt>
      <trkpt lat="44.36746" lon="5.92397">
        <ele>567.7956543</ele>
        <time>2016-03-10T13:47:48Z</time>
      </trkpt>
      <trkpt lat="44.36754" lon="5.92394">
        <ele>567.7956543</ele>
        <time>2016-03-10T13:47:59Z</time>
      </trkpt>
      <trkpt lat="44.36754" lon="5.92394">
        <ele>567.3151855</ele>
        <time>2016-03-10T13:48:10Z</time>
      </trkpt>
    </trkseg>
  </trk>
</gpx>